<?xml version="1.0" encoding="UTF-8" standalone="no" ?>
<gpx xmlns="http://www.topografix.com/GPX/1/1" xmlns:xsi="http://www.w3.org/2001/XMLSchema-instance" xsi:schemaLocation="http://www.topografix.com/GPX/1/1 http://www.topografix.com/GPX/1/1/gpx.xsd" version="1.1" creator="VisuGPX - https://www.visugpx.com">
  <metadata>
    <name>Traces DPT 33</name>
    <desc><![CDATA[Total: 12.2km]]></desc>
  </metadata>
  <trk>
    <name><![CDATA[NewTrack]]></name>
    <desc><![CDATA[Total: 12.2km]]></desc>
    <extensions>
      <line xmlns="http://www.topografix.com/GPX/gpx_style/0/2">
        <color>0000FF</color>
        <width>4</width>
      </line>
    </extensions>
    <trkseg>
      <trkpt lat="44.73796" lon="-0.1629">
        <ele>61.8</ele>
        <time>2016-01-27T10:39:06Z</time>
      </trkpt>
      <trkpt lat="44.73771" lon="-0.16395">
        <ele>58.5</ele>
        <time>2016-01-27T10:39:27Z</time>
      </trkpt>
      <trkpt lat="44.7375" lon="-0.16512">
        <ele>51.6</ele>
        <time>2016-01-27T10:39:50Z</time>
      </trkpt>
      <trkpt lat="44.73744" lon="-0.1657">
        <ele>49.7</ele>
        <time>2016-01-27T10:40:01Z</time>
      </trkpt>
      <trkpt lat="44.73756" lon="-0.1673">
        <ele>46.6</ele>
        <time>2016-01-27T10:40:31Z</time>
      </trkpt>
      <trkpt lat="44.73728" lon="-0.16877">
        <ele>40.2</ele>
        <time>2016-01-27T10:41:00Z</time>
      </trkpt>
      <trkpt lat="44.73746" lon="-0.16963">
        <ele>39</ele>
        <time>2016-01-27T10:41:17Z</time>
      </trkpt>
      <trkpt lat="44.73776" lon="-0.17033">
        <ele>35.2</ele>
        <time>2016-01-27T10:41:33Z</time>
      </trkpt>
      <trkpt lat="44.73836" lon="-0.17033">
        <ele>36.2</ele>
        <time>2016-01-27T10:41:49Z</time>
      </trkpt>
      <trkpt lat="44.73879" lon="-0.17036">
        <ele>32.8</ele>
        <time>2016-01-27T10:42:00Z</time>
      </trkpt>
      <trkpt lat="44.73905" lon="-0.17087">
        <ele>27.4</ele>
        <time>2016-01-27T10:42:12Z</time>
      </trkpt>
      <trkpt lat="44.7392" lon="-0.17149">
        <ele>27.4</ele>
        <time>2016-01-27T10:42:25Z</time>
      </trkpt>
      <trkpt lat="44.74032" lon="-0.17153">
        <ele>26.9</ele>
        <time>2016-01-27T10:42:55Z</time>
      </trkpt>
      <trkpt lat="44.74145" lon="-0.17174">
        <ele>28.2</ele>
        <time>2016-01-27T10:43:25Z</time>
      </trkpt>
      <trkpt lat="44.74328" lon="-0.17175">
        <ele>29.9</ele>
        <time>2016-01-27T10:44:14Z</time>
      </trkpt>
      <trkpt lat="44.74409" lon="-0.17205">
        <ele>32.2</ele>
        <time>2016-01-27T10:44:36Z</time>
      </trkpt>
      <trkpt lat="44.74472" lon="-0.17266">
        <ele>29.6</ele>
        <time>2016-01-27T10:44:57Z</time>
      </trkpt>
      <trkpt lat="44.7463" lon="-0.17501">
        <ele>28.7</ele>
        <time>2016-01-27T10:45:58Z</time>
      </trkpt>
      <trkpt lat="44.74702" lon="-0.17562">
        <ele>27</ele>
        <time>2016-01-27T10:46:20Z</time>
      </trkpt>
      <trkpt lat="44.74789" lon="-0.17588">
        <ele>25.1</ele>
        <time>2016-01-27T10:46:44Z</time>
      </trkpt>
      <trkpt lat="44.75024" lon="-0.17655">
        <ele>23.2</ele>
        <time>2016-01-27T10:47:48Z</time>
      </trkpt>
      <trkpt lat="44.75173" lon="-0.17697">
        <ele>24</ele>
        <time>2016-01-27T10:48:28Z</time>
      </trkpt>
      <trkpt lat="44.75435" lon="-0.17702">
        <ele>23.3</ele>
        <time>2016-01-27T10:49:38Z</time>
      </trkpt>
      <trkpt lat="44.7565" lon="-0.17704">
        <ele>24.3</ele>
        <time>2016-01-27T10:50:36Z</time>
      </trkpt>
      <trkpt lat="44.75739" lon="-0.17724">
        <ele>23.5</ele>
        <time>2016-01-27T10:51:00Z</time>
      </trkpt>
      <trkpt lat="44.75827" lon="-0.1777">
        <ele>22.5</ele>
        <time>2016-01-27T10:51:25Z</time>
      </trkpt>
      <trkpt lat="44.75963" lon="-0.1783">
        <ele>21.9</ele>
        <time>2016-01-27T10:52:03Z</time>
      </trkpt>
      <trkpt lat="44.76061" lon="-0.17826">
        <ele>21.1</ele>
        <time>2016-01-27T10:52:29Z</time>
      </trkpt>
      <trkpt lat="44.76149" lon="-0.17779">
        <ele>20.4</ele>
        <time>2016-01-27T10:52:54Z</time>
      </trkpt>
      <trkpt lat="44.76305" lon="-0.17639">
        <ele>18</ele>
        <time>2016-01-27T10:53:44Z</time>
      </trkpt>
      <trkpt lat="44.76391" lon="-0.17587">
        <ele>17.2</ele>
        <time>2016-01-27T10:54:09Z</time>
      </trkpt>
      <trkpt lat="44.76474" lon="-0.17584">
        <ele>20</ele>
        <time>2016-01-27T10:54:31Z</time>
      </trkpt>
      <trkpt lat="44.76543" lon="-0.17584">
        <ele>20</ele>
        <time>2016-01-27T10:54:49Z</time>
      </trkpt>
      <trkpt lat="44.76612" lon="-0.17594">
        <ele>20.3</ele>
        <time>2016-01-27T10:55:08Z</time>
      </trkpt>
      <trkpt lat="44.76647" lon="-0.17253">
        <ele>19.9</ele>
        <time>2016-01-27T10:56:13Z</time>
      </trkpt>
      <trkpt lat="44.76672" lon="-0.1722">
        <ele>24.4</ele>
        <time>2016-01-27T10:56:22Z</time>
      </trkpt>
      <trkpt lat="44.76725" lon="-0.17218">
        <ele>27.2</ele>
        <time>2016-01-27T10:56:36Z</time>
      </trkpt>
      <trkpt lat="44.76772" lon="-0.17232">
        <ele>28.4</ele>
        <time>2016-01-27T10:56:49Z</time>
      </trkpt>
      <trkpt lat="44.7677" lon="-0.17245">
        <ele>26.6</ele>
        <time>2016-01-27T10:56:52Z</time>
      </trkpt>
      <trkpt lat="44.7684" lon="-0.17262">
        <ele>26.7</ele>
        <time>2016-01-27T10:57:11Z</time>
      </trkpt>
      <trkpt lat="44.76877" lon="-0.17246">
        <ele>26.4</ele>
        <time>2016-01-27T10:57:21Z</time>
      </trkpt>
      <trkpt lat="44.76915" lon="-0.17203">
        <ele>23.1</ele>
        <time>2016-01-27T10:57:34Z</time>
      </trkpt>
      <trkpt lat="44.7695" lon="-0.17173">
        <ele>22.9</ele>
        <time>2016-01-27T10:57:45Z</time>
      </trkpt>
      <trkpt lat="44.7699" lon="-0.17176">
        <ele>25.7</ele>
        <time>2016-01-27T10:57:55Z</time>
      </trkpt>
      <trkpt lat="44.77129" lon="-0.17161">
        <ele>35</ele>
        <time>2016-01-27T10:58:33Z</time>
      </trkpt>
      <trkpt lat="44.77255" lon="-0.17187">
        <ele>27.6</ele>
        <time>2016-01-27T10:59:07Z</time>
      </trkpt>
      <trkpt lat="44.77341" lon="-0.17157">
        <ele>23.1</ele>
        <time>2016-01-27T10:59:30Z</time>
      </trkpt>
      <trkpt lat="44.77486" lon="-0.16974">
        <ele>18.9</ele>
        <time>2016-01-27T11:00:22Z</time>
      </trkpt>
      <trkpt lat="44.77393" lon="-0.16898">
        <ele>35.6</ele>
        <time>2016-01-27T11:00:51Z</time>
      </trkpt>
      <trkpt lat="44.77347" lon="-0.16874">
        <ele>43.2</ele>
        <time>2016-01-27T11:01:04Z</time>
      </trkpt>
      <trkpt lat="44.77306" lon="-0.16836">
        <ele>50.7</ele>
        <time>2016-01-27T11:01:17Z</time>
      </trkpt>
      <trkpt lat="44.77288" lon="-0.16836">
        <ele>51.5</ele>
        <time>2016-01-27T11:01:22Z</time>
      </trkpt>
      <trkpt lat="44.77258" lon="-0.16866">
        <ele>53.1</ele>
        <time>2016-01-27T11:01:32Z</time>
      </trkpt>
      <trkpt lat="44.77236" lon="-0.16874">
        <ele>55</ele>
        <time>2016-01-27T11:01:38Z</time>
      </trkpt>
      <trkpt lat="44.77219" lon="-0.16863">
        <ele>56.3</ele>
        <time>2016-01-27T11:01:43Z</time>
      </trkpt>
      <trkpt lat="44.77208" lon="-0.16837">
        <ele>56.2</ele>
        <time>2016-01-27T11:01:48Z</time>
      </trkpt>
      <trkpt lat="44.77201" lon="-0.1681">
        <ele>56.5</ele>
        <time>2016-01-27T11:01:54Z</time>
      </trkpt>
      <trkpt lat="44.7723" lon="-0.16693">
        <ele>57.7</ele>
        <time>2016-01-27T11:02:17Z</time>
      </trkpt>
      <trkpt lat="44.77184" lon="-0.16608">
        <ele>59.2</ele>
        <time>2016-01-27T11:02:38Z</time>
      </trkpt>
      <trkpt lat="44.772" lon="-0.16579">
        <ele>56.1</ele>
        <time>2016-01-27T11:02:45Z</time>
      </trkpt>
      <trkpt lat="44.77171" lon="-0.16508">
        <ele>54.1</ele>
        <time>2016-01-27T11:03:00Z</time>
      </trkpt>
      <trkpt lat="44.77157" lon="-0.16441">
        <ele>51.9</ele>
        <time>2016-01-27T11:03:14Z</time>
      </trkpt>
      <trkpt lat="44.77132" lon="-0.16435">
        <ele>54.2</ele>
        <time>2016-01-27T11:03:20Z</time>
      </trkpt>
      <trkpt lat="44.77106" lon="-0.16457">
        <ele>56.7</ele>
        <time>2016-01-27T11:03:28Z</time>
      </trkpt>
      <trkpt lat="44.77025" lon="-0.16539">
        <ele>63</ele>
        <time>2016-01-27T11:03:55Z</time>
      </trkpt>
      <trkpt lat="44.7694" lon="-0.16658">
        <ele>60.8</ele>
        <time>2016-01-27T11:04:27Z</time>
      </trkpt>
      <trkpt lat="44.76772" lon="-0.16615">
        <ele>58.9</ele>
        <time>2016-01-27T11:05:12Z</time>
      </trkpt>
      <trkpt lat="44.76761" lon="-0.16567">
        <ele>59.6</ele>
        <time>2016-01-27T11:05:22Z</time>
      </trkpt>
      <trkpt lat="44.7676" lon="-0.16506">
        <ele>60.8</ele>
        <time>2016-01-27T11:05:34Z</time>
      </trkpt>
      <trkpt lat="44.76686" lon="-0.16464">
        <ele>59.2</ele>
        <time>2016-01-27T11:05:55Z</time>
      </trkpt>
      <trkpt lat="44.767" lon="-0.16336">
        <ele>64.2</ele>
        <time>2016-01-27T11:06:20Z</time>
      </trkpt>
      <trkpt lat="44.76696" lon="-0.16263">
        <ele>66.5</ele>
        <time>2016-01-27T11:06:33Z</time>
      </trkpt>
      <trkpt lat="44.76689" lon="-0.16046">
        <ele>69.2</ele>
        <time>2016-01-27T11:07:15Z</time>
      </trkpt>
      <trkpt lat="44.7673" lon="-0.15855">
        <ele>66.7</ele>
        <time>2016-01-27T11:07:53Z</time>
      </trkpt>
      <trkpt lat="44.76686" lon="-0.15873">
        <ele>68.6</ele>
        <time>2016-01-27T11:08:05Z</time>
      </trkpt>
      <trkpt lat="44.76653" lon="-0.15783">
        <ele>71.4</ele>
        <time>2016-01-27T11:08:24Z</time>
      </trkpt>
      <trkpt lat="44.76631" lon="-0.15686">
        <ele>74.4</ele>
        <time>2016-01-27T11:08:43Z</time>
      </trkpt>
      <trkpt lat="44.76603" lon="-0.15436">
        <ele>79.3</ele>
        <time>2016-01-27T11:09:31Z</time>
      </trkpt>
      <trkpt lat="44.76586" lon="-0.15151">
        <ele>81</ele>
        <time>2016-01-27T11:10:26Z</time>
      </trkpt>
      <trkpt lat="44.76564" lon="-0.1514">
        <ele>80.3</ele>
        <time>2016-01-27T11:10:32Z</time>
      </trkpt>
      <trkpt lat="44.76544" lon="-0.14791">
        <ele>81.6</ele>
        <time>2016-01-27T11:11:38Z</time>
      </trkpt>
      <trkpt lat="44.76496" lon="-0.14789">
        <ele>79.8</ele>
        <time>2016-01-27T11:11:51Z</time>
      </trkpt>
      <trkpt lat="44.76408" lon="-0.14775">
        <ele>77.7</ele>
        <time>2016-01-27T11:12:15Z</time>
      </trkpt>
      <trkpt lat="44.76317" lon="-0.14805">
        <ele>74.4</ele>
        <time>2016-01-27T11:12:40Z</time>
      </trkpt>
      <trkpt lat="44.76226" lon="-0.14841">
        <ele>69.9</ele>
        <time>2016-01-27T11:13:05Z</time>
      </trkpt>
      <trkpt lat="44.76114" lon="-0.14862">
        <ele>65.2</ele>
        <time>2016-01-27T11:13:35Z</time>
      </trkpt>
      <trkpt lat="44.76109" lon="-0.14957">
        <ele>63.8</ele>
        <time>2016-01-27T11:13:53Z</time>
      </trkpt>
      <trkpt lat="44.76137" lon="-0.15159">
        <ele>65.9</ele>
        <time>2016-01-27T11:14:33Z</time>
      </trkpt>
      <trkpt lat="44.76104" lon="-0.15157">
        <ele>63.8</ele>
        <time>2016-01-27T11:14:41Z</time>
      </trkpt>
      <trkpt lat="44.76072" lon="-0.15164">
        <ele>62.1</ele>
        <time>2016-01-27T11:14:50Z</time>
      </trkpt>
      <trkpt lat="44.76046" lon="-0.15197">
        <ele>60.3</ele>
        <time>2016-01-27T11:14:59Z</time>
      </trkpt>
      <trkpt lat="44.7601" lon="-0.15313">
        <ele>56.5</ele>
        <time>2016-01-27T11:15:24Z</time>
      </trkpt>
      <trkpt lat="44.75999" lon="-0.15397">
        <ele>55.3</ele>
        <time>2016-01-27T11:15:40Z</time>
      </trkpt>
      <trkpt lat="44.75961" lon="-0.15504">
        <ele>55.8</ele>
        <time>2016-01-27T11:16:02Z</time>
      </trkpt>
      <trkpt lat="44.75906" lon="-0.15578">
        <ele>53.5</ele>
        <time>2016-01-27T11:16:23Z</time>
      </trkpt>
      <trkpt lat="44.75828" lon="-0.15721">
        <ele>48.1</ele>
        <time>2016-01-27T11:16:57Z</time>
      </trkpt>
      <trkpt lat="44.75755" lon="-0.15781">
        <ele>44.1</ele>
        <time>2016-01-27T11:17:19Z</time>
      </trkpt>
      <trkpt lat="44.75682" lon="-0.15827">
        <ele>45.6</ele>
        <time>2016-01-27T11:17:41Z</time>
      </trkpt>
      <trkpt lat="44.75646" lon="-0.15863">
        <ele>44.9</ele>
        <time>2016-01-27T11:17:52Z</time>
      </trkpt>
      <trkpt lat="44.75642" lon="-0.15911">
        <ele>44.9</ele>
        <time>2016-01-27T11:18:02Z</time>
      </trkpt>
      <trkpt lat="44.75631" lon="-0.15933">
        <ele>43.2</ele>
        <time>2016-01-27T11:18:07Z</time>
      </trkpt>
      <trkpt lat="44.75614" lon="-0.15942">
        <ele>40.4</ele>
        <time>2016-01-27T11:18:12Z</time>
      </trkpt>
      <trkpt lat="44.75577" lon="-0.15935">
        <ele>38.4</ele>
        <time>2016-01-27T11:18:22Z</time>
      </trkpt>
      <trkpt lat="44.75515" lon="-0.15954">
        <ele>40.3</ele>
        <time>2016-01-27T11:18:39Z</time>
      </trkpt>
      <trkpt lat="44.75502" lon="-0.16092">
        <ele>44</ele>
        <time>2016-01-27T11:19:05Z</time>
      </trkpt>
      <trkpt lat="44.75479" lon="-0.16107">
        <ele>48.2</ele>
        <time>2016-01-27T11:19:12Z</time>
      </trkpt>
      <trkpt lat="44.75419" lon="-0.16069">
        <ele>55.5</ele>
        <time>2016-01-27T11:19:29Z</time>
      </trkpt>
      <trkpt lat="44.75332" lon="-0.1606">
        <ele>61</ele>
        <time>2016-01-27T11:19:52Z</time>
      </trkpt>
      <trkpt lat="44.75252" lon="-0.16076">
        <ele>64.2</ele>
        <time>2016-01-27T11:20:14Z</time>
      </trkpt>
      <trkpt lat="44.75195" lon="-0.16103">
        <ele>65.3</ele>
        <time>2016-01-27T11:20:30Z</time>
      </trkpt>
      <trkpt lat="44.75173" lon="-0.16081">
        <ele>65.3</ele>
        <time>2016-01-27T11:20:37Z</time>
      </trkpt>
      <trkpt lat="44.75133" lon="-0.16092">
        <ele>65.3</ele>
        <time>2016-01-27T11:20:48Z</time>
      </trkpt>
      <trkpt lat="44.75128" lon="-0.16062">
        <ele>64.7</ele>
        <time>2016-01-27T11:20:54Z</time>
      </trkpt>
      <trkpt lat="44.74987" lon="-0.16109">
        <ele>60.2</ele>
        <time>2016-01-27T11:21:33Z</time>
      </trkpt>
      <trkpt lat="44.74846" lon="-0.1616">
        <ele>63.3</ele>
        <time>2016-01-27T11:22:11Z</time>
      </trkpt>
      <trkpt lat="44.74732" lon="-0.16252">
        <ele>66</ele>
        <time>2016-01-27T11:22:47Z</time>
      </trkpt>
      <trkpt lat="44.74636" lon="-0.16343">
        <ele>65.8</ele>
        <time>2016-01-27T11:23:17Z</time>
      </trkpt>
      <trkpt lat="44.74563" lon="-0.16535">
        <ele>63.5</ele>
        <time>2016-01-27T11:23:59Z</time>
      </trkpt>
      <trkpt lat="44.74532" lon="-0.16581">
        <ele>63.1</ele>
        <time>2016-01-27T11:24:11Z</time>
      </trkpt>
      <trkpt lat="44.74494" lon="-0.16606">
        <ele>62</ele>
        <time>2016-01-27T11:24:22Z</time>
      </trkpt>
      <trkpt lat="44.74453" lon="-0.16614">
        <ele>60.2</ele>
        <time>2016-01-27T11:24:33Z</time>
      </trkpt>
      <trkpt lat="44.74367" lon="-0.1661">
        <ele>59</ele>
        <time>2016-01-27T11:24:56Z</time>
      </trkpt>
      <trkpt lat="44.74225" lon="-0.16544">
        <ele>55.1</ele>
        <time>2016-01-27T11:25:36Z</time>
      </trkpt>
      <trkpt lat="44.74101" lon="-0.16513">
        <ele>50.1</ele>
        <time>2016-01-27T11:26:09Z</time>
      </trkpt>
      <trkpt lat="44.73982" lon="-0.16489">
        <ele>52.4</ele>
        <time>2016-01-27T11:26:41Z</time>
      </trkpt>
      <trkpt lat="44.73865" lon="-0.16474">
        <ele>57.8</ele>
        <time>2016-01-27T11:27:13Z</time>
      </trkpt>
      <trkpt lat="44.73756" lon="-0.16487">
        <ele>53.5</ele>
        <time>2016-01-27T11:27:42Z</time>
      </trkpt>
    </trkseg>
  </trk>
  <trk>
    <name><![CDATA[NewTrack]]></name>
    <desc><![CDATA[Total: 18.6km]]></desc>
    <extensions>
      <line xmlns="http://www.topografix.com/GPX/gpx_style/0/2">
        <color>00FF00</color>
        <width>4</width>
      </line>
    </extensions>
    <trkseg>
      <trkpt lat="44.69042" lon="-0.08856">
        <ele>56.4</ele>
      </trkpt>
      <trkpt lat="44.69244" lon="-0.08622">
        <ele>70.7</ele>
      </trkpt>
      <trkpt lat="44.69251" lon="-0.08623">
        <ele>71.1</ele>
      </trkpt>
      <trkpt lat="44.69289" lon="-0.08578">
        <ele>74</ele>
      </trkpt>
      <trkpt lat="44.69289" lon="-0.08568">
        <ele>74.3</ele>
      </trkpt>
      <trkpt lat="44.69187" lon="-0.08413">
        <ele>73</ele>
      </trkpt>
      <trkpt lat="44.69243" lon="-0.08392">
        <ele>75.8</ele>
      </trkpt>
      <trkpt lat="44.69222" lon="-0.0832">
        <ele>74.5</ele>
      </trkpt>
      <trkpt lat="44.69203" lon="-0.0826">
        <ele>71.2</ele>
      </trkpt>
      <trkpt lat="44.6919" lon="-0.08237">
        <ele>69.9</ele>
      </trkpt>
      <trkpt lat="44.69134" lon="-0.08207">
        <ele>68.3</ele>
      </trkpt>
      <trkpt lat="44.6909" lon="-0.08151">
        <ele>64.3</ele>
      </trkpt>
      <trkpt lat="44.69046" lon="-0.08089">
        <ele>62</ele>
      </trkpt>
      <trkpt lat="44.69023" lon="-0.08048">
        <ele>60.1</ele>
      </trkpt>
      <trkpt lat="44.69007" lon="-0.08011">
        <ele>58.5</ele>
      </trkpt>
      <trkpt lat="44.6897" lon="-0.07914">
        <ele>55.1</ele>
      </trkpt>
      <trkpt lat="44.6893" lon="-0.07781">
        <ele>50.2</ele>
      </trkpt>
      <trkpt lat="44.68864" lon="-0.07592">
        <ele>43.7</ele>
      </trkpt>
      <trkpt lat="44.6882" lon="-0.07453">
        <ele>52.3</ele>
      </trkpt>
      <trkpt lat="44.68777" lon="-0.07316">
        <ele>61</ele>
      </trkpt>
      <trkpt lat="44.68761" lon="-0.07251">
        <ele>62.4</ele>
      </trkpt>
      <trkpt lat="44.68727" lon="-0.07155">
        <ele>61.78</ele>
      </trkpt>
      <trkpt lat="44.68688" lon="-0.07071">
        <ele>60.7</ele>
      </trkpt>
      <trkpt lat="44.68667" lon="-0.07023">
        <ele>59.01</ele>
      </trkpt>
      <trkpt lat="44.68646" lon="-0.06958">
        <ele>59.64</ele>
      </trkpt>
      <trkpt lat="44.68624" lon="-0.06884">
        <ele>58.9</ele>
      </trkpt>
      <trkpt lat="44.68592" lon="-0.06803">
        <ele>58.7</ele>
      </trkpt>
      <trkpt lat="44.68582" lon="-0.06772">
        <ele>59.4</ele>
      </trkpt>
      <trkpt lat="44.68572" lon="-0.06737">
        <ele>60.4</ele>
      </trkpt>
      <trkpt lat="44.68639" lon="-0.06681">
        <ele>63.26</ele>
      </trkpt>
      <trkpt lat="44.68701" lon="-0.06622">
        <ele>67.97</ele>
      </trkpt>
      <trkpt lat="44.68727" lon="-0.06598">
        <ele>69.75</ele>
      </trkpt>
      <trkpt lat="44.68823" lon="-0.06464">
        <ele>77.22</ele>
      </trkpt>
      <trkpt lat="44.68895" lon="-0.06383">
        <ele>75.01</ele>
      </trkpt>
      <trkpt lat="44.68938" lon="-0.06346">
        <ele>70.99</ele>
      </trkpt>
      <trkpt lat="44.68992" lon="-0.06321">
        <ele>67.7</ele>
      </trkpt>
      <trkpt lat="44.69038" lon="-0.06283">
        <ele>63.4</ele>
      </trkpt>
      <trkpt lat="44.69049" lon="-0.06265">
        <ele>62</ele>
      </trkpt>
      <trkpt lat="44.69175" lon="-0.06164">
        <ele>63.7</ele>
      </trkpt>
      <trkpt lat="44.69206" lon="-0.06128">
        <ele>65.81</ele>
      </trkpt>
      <trkpt lat="44.69297" lon="-0.05951">
        <ele>77.9</ele>
      </trkpt>
      <trkpt lat="44.69336" lon="-0.05874">
        <ele>78.5</ele>
      </trkpt>
      <trkpt lat="44.69355" lon="-0.058">
        <ele>74.7</ele>
      </trkpt>
      <trkpt lat="44.69391" lon="-0.05557">
        <ele>62.19</ele>
      </trkpt>
      <trkpt lat="44.69404" lon="-0.05507">
        <ele>61.25</ele>
      </trkpt>
      <trkpt lat="44.69441" lon="-0.05395">
        <ele>64.1</ele>
      </trkpt>
      <trkpt lat="44.69464" lon="-0.05345">
        <ele>65.8</ele>
      </trkpt>
      <trkpt lat="44.69559" lon="-0.05239">
        <ele>57.9</ele>
      </trkpt>
      <trkpt lat="44.69578" lon="-0.05226">
        <ele>57.8</ele>
      </trkpt>
      <trkpt lat="44.69603" lon="-0.05224">
        <ele>57.8</ele>
      </trkpt>
      <trkpt lat="44.69675" lon="-0.05228">
        <ele>54.7</ele>
      </trkpt>
      <trkpt lat="44.69707" lon="-0.05211">
        <ele>53.5</ele>
      </trkpt>
      <trkpt lat="44.69734" lon="-0.05176">
        <ele>53.1</ele>
      </trkpt>
      <trkpt lat="44.69782" lon="-0.0501">
        <ele>50.8</ele>
      </trkpt>
      <trkpt lat="44.69819" lon="-0.04972">
        <ele>54.5</ele>
      </trkpt>
      <trkpt lat="44.69785" lon="-0.04867">
        <ele>53.6</ele>
      </trkpt>
      <trkpt lat="44.69799" lon="-0.04472">
        <ele>57.5</ele>
      </trkpt>
      <trkpt lat="44.69762" lon="-0.04262">
        <ele>59.2</ele>
      </trkpt>
      <trkpt lat="44.69756" lon="-0.04204">
        <ele>59.9</ele>
      </trkpt>
      <trkpt lat="44.69757" lon="-0.04149">
        <ele>60.4</ele>
      </trkpt>
      <trkpt lat="44.69777" lon="-0.04027">
        <ele>63.1</ele>
      </trkpt>
      <trkpt lat="44.69779" lon="-0.03995">
        <ele>64.3</ele>
      </trkpt>
      <trkpt lat="44.6974" lon="-0.03794">
        <ele>69.3</ele>
      </trkpt>
      <trkpt lat="44.69712" lon="-0.03591">
        <ele>70.72</ele>
      </trkpt>
      <trkpt lat="44.697" lon="-0.03513">
        <ele>68.4</ele>
      </trkpt>
      <trkpt lat="44.69681" lon="-0.03271">
        <ele>69.2</ele>
      </trkpt>
      <trkpt lat="44.69678" lon="-0.03252">
        <ele>69.4</ele>
      </trkpt>
      <trkpt lat="44.69667" lon="-0.03227">
        <ele>69</ele>
      </trkpt>
      <trkpt lat="44.69599" lon="-0.03124">
        <ele>69.8</ele>
      </trkpt>
      <trkpt lat="44.69581" lon="-0.0307">
        <ele>70.3</ele>
      </trkpt>
      <trkpt lat="44.69572" lon="-0.03017">
        <ele>71.2</ele>
      </trkpt>
      <trkpt lat="44.69567" lon="-0.02872">
        <ele>74.2</ele>
      </trkpt>
      <trkpt lat="44.69551" lon="-0.02771">
        <ele>73.5</ele>
      </trkpt>
      <trkpt lat="44.69549" lon="-0.02747">
        <ele>73.2</ele>
      </trkpt>
      <trkpt lat="44.69602" lon="-0.02209">
        <ele>92.2</ele>
      </trkpt>
      <trkpt lat="44.69592" lon="-0.02116">
        <ele>93.9</ele>
      </trkpt>
      <trkpt lat="44.69416" lon="-0.01737">
        <ele>92.6</ele>
      </trkpt>
      <trkpt lat="44.69414" lon="-0.01713">
        <ele>92.1</ele>
      </trkpt>
      <trkpt lat="44.69442" lon="-0.01642">
        <ele>91.2</ele>
      </trkpt>
      <trkpt lat="44.69444" lon="-0.01627">
        <ele>90.6</ele>
      </trkpt>
      <trkpt lat="44.69398" lon="-0.01313">
        <ele>87.1</ele>
      </trkpt>
      <trkpt lat="44.69365" lon="-0.0123">
        <ele>85.9</ele>
      </trkpt>
      <trkpt lat="44.69314" lon="-0.01119">
        <ele>85.31</ele>
      </trkpt>
      <trkpt lat="44.69263" lon="-0.00991">
        <ele>86.7</ele>
      </trkpt>
      <trkpt lat="44.69219" lon="-0.0092">
        <ele>83.7</ele>
      </trkpt>
      <trkpt lat="44.69173" lon="-0.00865">
        <ele>81</ele>
      </trkpt>
      <trkpt lat="44.69152" lon="-0.00833">
        <ele>79.5</ele>
      </trkpt>
      <trkpt lat="44.69132" lon="-0.00781">
        <ele>76.06</ele>
      </trkpt>
      <trkpt lat="44.69126" lon="-0.00762">
        <ele>77.5</ele>
      </trkpt>
      <trkpt lat="44.69089" lon="-0.00704">
        <ele>76.57</ele>
      </trkpt>
      <trkpt lat="44.68924" lon="-0.00727">
        <ele>69.8</ele>
      </trkpt>
      <trkpt lat="44.68874" lon="-0.00748">
        <ele>71.1</ele>
      </trkpt>
      <trkpt lat="44.68759" lon="-0.00855">
        <ele>78</ele>
      </trkpt>
      <trkpt lat="44.68705" lon="-0.00905">
        <ele>75.5</ele>
      </trkpt>
      <trkpt lat="44.6868" lon="-0.00918">
        <ele>73</ele>
      </trkpt>
      <trkpt lat="44.68441" lon="-0.00963">
        <ele>62.89</ele>
      </trkpt>
      <trkpt lat="44.68413" lon="-0.00969">
        <ele>61.7</ele>
      </trkpt>
      <trkpt lat="44.68393" lon="-0.00977">
        <ele>61.4</ele>
      </trkpt>
      <trkpt lat="44.68375" lon="-0.00996">
        <ele>60.8</ele>
      </trkpt>
      <trkpt lat="44.68274" lon="-0.01148">
        <ele>58.1</ele>
      </trkpt>
      <trkpt lat="44.6823" lon="-0.01207">
        <ele>58.7</ele>
      </trkpt>
      <trkpt lat="44.6818" lon="-0.0125">
        <ele>57.9</ele>
      </trkpt>
      <trkpt lat="44.68165" lon="-0.01256">
        <ele>57.6</ele>
      </trkpt>
      <trkpt lat="44.68111" lon="-0.01262">
        <ele>55.4</ele>
      </trkpt>
      <trkpt lat="44.68095" lon="-0.01247">
        <ele>54</ele>
      </trkpt>
      <trkpt lat="44.68044" lon="-0.01275">
        <ele>55.4</ele>
      </trkpt>
      <trkpt lat="44.68028" lon="-0.01271">
        <ele>55.1</ele>
      </trkpt>
      <trkpt lat="44.67987" lon="-0.01281">
        <ele>58.7</ele>
      </trkpt>
      <trkpt lat="44.67981" lon="-0.01289">
        <ele>59.2</ele>
      </trkpt>
      <trkpt lat="44.67979" lon="-0.01302">
        <ele>59.8</ele>
      </trkpt>
      <trkpt lat="44.67989" lon="-0.01462">
        <ele>65.2</ele>
      </trkpt>
      <trkpt lat="44.67987" lon="-0.01476">
        <ele>65.7</ele>
      </trkpt>
      <trkpt lat="44.67982" lon="-0.01488">
        <ele>66.19</ele>
      </trkpt>
      <trkpt lat="44.67874" lon="-0.01553">
        <ele>60.8</ele>
      </trkpt>
      <trkpt lat="44.67864" lon="-0.01567">
        <ele>60.6</ele>
      </trkpt>
      <trkpt lat="44.67842" lon="-0.01621">
        <ele>60.6</ele>
      </trkpt>
      <trkpt lat="44.67835" lon="-0.01634">
        <ele>62.14</ele>
      </trkpt>
      <trkpt lat="44.67807" lon="-0.01675">
        <ele>62.31</ele>
      </trkpt>
      <trkpt lat="44.67792" lon="-0.01696">
        <ele>61.91</ele>
      </trkpt>
      <trkpt lat="44.67777" lon="-0.01712">
        <ele>61.36</ele>
      </trkpt>
      <trkpt lat="44.67728" lon="-0.01752">
        <ele>59.96</ele>
      </trkpt>
      <trkpt lat="44.67714" lon="-0.01763">
        <ele>58.9</ele>
      </trkpt>
      <trkpt lat="44.67696" lon="-0.01774">
        <ele>57.3</ele>
      </trkpt>
      <trkpt lat="44.67683" lon="-0.01778">
        <ele>56.2</ele>
      </trkpt>
      <trkpt lat="44.67578" lon="-0.01807">
        <ele>59.5</ele>
      </trkpt>
      <trkpt lat="44.67572" lon="-0.01813">
        <ele>60.7</ele>
      </trkpt>
      <trkpt lat="44.67568" lon="-0.01826">
        <ele>62.9</ele>
      </trkpt>
      <trkpt lat="44.67558" lon="-0.01951">
        <ele>69.5</ele>
      </trkpt>
      <trkpt lat="44.67551" lon="-0.01964">
        <ele>70.4</ele>
      </trkpt>
      <trkpt lat="44.67517" lon="-0.02013">
        <ele>67.29</ele>
      </trkpt>
      <trkpt lat="44.67475" lon="-0.02074">
        <ele>67</ele>
      </trkpt>
      <trkpt lat="44.67451" lon="-0.02102">
        <ele>69.4</ele>
      </trkpt>
      <trkpt lat="44.67391" lon="-0.02155">
        <ele>77.1</ele>
      </trkpt>
      <trkpt lat="44.67334" lon="-0.02213">
        <ele>74.91</ele>
      </trkpt>
      <trkpt lat="44.67303" lon="-0.02263">
        <ele>70.78</ele>
      </trkpt>
      <trkpt lat="44.67143" lon="-0.02487">
        <ele>52.9</ele>
      </trkpt>
      <trkpt lat="44.67141" lon="-0.02503">
        <ele>53</ele>
      </trkpt>
      <trkpt lat="44.67146" lon="-0.02585">
        <ele>52.2</ele>
      </trkpt>
      <trkpt lat="44.67149" lon="-0.02677">
        <ele>49.4</ele>
      </trkpt>
      <trkpt lat="44.67155" lon="-0.02716">
        <ele>48.3</ele>
      </trkpt>
      <trkpt lat="44.67172" lon="-0.02784">
        <ele>46</ele>
      </trkpt>
      <trkpt lat="44.67187" lon="-0.02839">
        <ele>43.9</ele>
      </trkpt>
      <trkpt lat="44.67189" lon="-0.02852">
        <ele>43.6</ele>
      </trkpt>
      <trkpt lat="44.67187" lon="-0.02864">
        <ele>42.7</ele>
      </trkpt>
      <trkpt lat="44.67055" lon="-0.03132">
        <ele>47.4</ele>
      </trkpt>
      <trkpt lat="44.66904" lon="-0.03493">
        <ele>58.4</ele>
      </trkpt>
      <trkpt lat="44.66898" lon="-0.03524">
        <ele>58.9</ele>
      </trkpt>
      <trkpt lat="44.66887" lon="-0.03772">
        <ele>58.9</ele>
      </trkpt>
      <trkpt lat="44.66876" lon="-0.03897">
        <ele>61.5</ele>
      </trkpt>
      <trkpt lat="44.66902" lon="-0.03903">
        <ele>63</ele>
      </trkpt>
      <trkpt lat="44.66928" lon="-0.03913">
        <ele>64.8</ele>
      </trkpt>
      <trkpt lat="44.66935" lon="-0.03928">
        <ele>65.7</ele>
      </trkpt>
      <trkpt lat="44.66942" lon="-0.04007">
        <ele>64.7</ele>
      </trkpt>
      <trkpt lat="44.66944" lon="-0.04054">
        <ele>64.9</ele>
      </trkpt>
      <trkpt lat="44.66932" lon="-0.04159">
        <ele>68.5</ele>
      </trkpt>
      <trkpt lat="44.66928" lon="-0.04216">
        <ele>69</ele>
      </trkpt>
      <trkpt lat="44.66926" lon="-0.04274">
        <ele>69.6</ele>
      </trkpt>
      <trkpt lat="44.66933" lon="-0.04338">
        <ele>71.4</ele>
      </trkpt>
      <trkpt lat="44.6694" lon="-0.04374">
        <ele>72.7</ele>
      </trkpt>
      <trkpt lat="44.66945" lon="-0.04391">
        <ele>73.3</ele>
      </trkpt>
      <trkpt lat="44.67021" lon="-0.04537">
        <ele>80.4</ele>
      </trkpt>
      <trkpt lat="44.67025" lon="-0.04558">
        <ele>79.7</ele>
      </trkpt>
      <trkpt lat="44.67021" lon="-0.04586">
        <ele>79.4</ele>
      </trkpt>
      <trkpt lat="44.66989" lon="-0.04689">
        <ele>85.5</ele>
      </trkpt>
      <trkpt lat="44.66961" lon="-0.0479">
        <ele>86.1</ele>
      </trkpt>
      <trkpt lat="44.66931" lon="-0.04992">
        <ele>89.4</ele>
      </trkpt>
      <trkpt lat="44.66913" lon="-0.05095">
        <ele>90.4</ele>
      </trkpt>
      <trkpt lat="44.6687" lon="-0.05297">
        <ele>93</ele>
      </trkpt>
      <trkpt lat="44.66858" lon="-0.05373">
        <ele>93.1</ele>
      </trkpt>
      <trkpt lat="44.66851" lon="-0.05442">
        <ele>94.4</ele>
      </trkpt>
      <trkpt lat="44.66841" lon="-0.0575">
        <ele>90.7</ele>
      </trkpt>
      <trkpt lat="44.66845" lon="-0.05788">
        <ele>90.5</ele>
      </trkpt>
      <trkpt lat="44.66891" lon="-0.05971">
        <ele>87.9</ele>
      </trkpt>
      <trkpt lat="44.66908" lon="-0.06026">
        <ele>87.6</ele>
      </trkpt>
      <trkpt lat="44.66992" lon="-0.06166">
        <ele>86.6</ele>
      </trkpt>
      <trkpt lat="44.67054" lon="-0.06171">
        <ele>85</ele>
      </trkpt>
      <trkpt lat="44.67401" lon="-0.06137">
        <ele>87.6</ele>
      </trkpt>
      <trkpt lat="44.67555" lon="-0.06122">
        <ele>81.4</ele>
      </trkpt>
      <trkpt lat="44.67707" lon="-0.06111">
        <ele>82.9</ele>
      </trkpt>
      <trkpt lat="44.67739" lon="-0.06113">
        <ele>84.5</ele>
      </trkpt>
      <trkpt lat="44.67779" lon="-0.06119">
        <ele>85.8</ele>
      </trkpt>
      <trkpt lat="44.67805" lon="-0.06125">
        <ele>86.5</ele>
      </trkpt>
      <trkpt lat="44.67846" lon="-0.06139">
        <ele>86</ele>
      </trkpt>
      <trkpt lat="44.67882" lon="-0.06168">
        <ele>85.2</ele>
      </trkpt>
      <trkpt lat="44.67912" lon="-0.06196">
        <ele>83.9</ele>
      </trkpt>
      <trkpt lat="44.67936" lon="-0.06223">
        <ele>83</ele>
      </trkpt>
      <trkpt lat="44.6796" lon="-0.06251">
        <ele>82.4</ele>
      </trkpt>
      <trkpt lat="44.68163" lon="-0.06546">
        <ele>73</ele>
      </trkpt>
      <trkpt lat="44.68187" lon="-0.06582">
        <ele>72.3</ele>
      </trkpt>
      <trkpt lat="44.68246" lon="-0.067">
        <ele>64.2</ele>
      </trkpt>
      <trkpt lat="44.68253" lon="-0.06712">
        <ele>63.5</ele>
      </trkpt>
      <trkpt lat="44.6825" lon="-0.0675">
        <ele>63</ele>
      </trkpt>
      <trkpt lat="44.6825" lon="-0.06776">
        <ele>63</ele>
      </trkpt>
      <trkpt lat="44.68265" lon="-0.06962">
        <ele>63.8</ele>
      </trkpt>
      <trkpt lat="44.68278" lon="-0.0713">
        <ele>63</ele>
      </trkpt>
      <trkpt lat="44.6828" lon="-0.07136">
        <ele>62.9</ele>
      </trkpt>
      <trkpt lat="44.68285" lon="-0.07136">
        <ele>62.5</ele>
      </trkpt>
      <trkpt lat="44.68305" lon="-0.07129">
        <ele>61.4</ele>
      </trkpt>
      <trkpt lat="44.68348" lon="-0.0711">
        <ele>58.9</ele>
      </trkpt>
      <trkpt lat="44.68385" lon="-0.07091">
        <ele>57.8</ele>
      </trkpt>
      <trkpt lat="44.68422" lon="-0.07071">
        <ele>58.31</ele>
      </trkpt>
      <trkpt lat="44.68432" lon="-0.07062">
        <ele>55</ele>
      </trkpt>
      <trkpt lat="44.68443" lon="-0.07046">
        <ele>59.04</ele>
      </trkpt>
      <trkpt lat="44.68448" lon="-0.07023">
        <ele>56.3</ele>
      </trkpt>
      <trkpt lat="44.68447" lon="-0.06987">
        <ele>57.5</ele>
      </trkpt>
      <trkpt lat="44.68448" lon="-0.06975">
        <ele>57.9</ele>
      </trkpt>
      <trkpt lat="44.6845" lon="-0.06965">
        <ele>58.2</ele>
      </trkpt>
      <trkpt lat="44.68474" lon="-0.06914">
        <ele>58</ele>
      </trkpt>
      <trkpt lat="44.68478" lon="-0.069">
        <ele>57.9</ele>
      </trkpt>
      <trkpt lat="44.68481" lon="-0.06879">
        <ele>57.7</ele>
      </trkpt>
      <trkpt lat="44.68483" lon="-0.06812">
        <ele>58.26</ele>
      </trkpt>
      <trkpt lat="44.68487" lon="-0.06799">
        <ele>57.6</ele>
      </trkpt>
      <trkpt lat="44.68495" lon="-0.06791">
        <ele>57.6</ele>
      </trkpt>
      <trkpt lat="44.6857" lon="-0.06739">
        <ele>60.3</ele>
      </trkpt>
      <trkpt lat="44.68592" lon="-0.06803">
        <ele>58.7</ele>
      </trkpt>
      <trkpt lat="44.68624" lon="-0.06884">
        <ele>58.9</ele>
      </trkpt>
      <trkpt lat="44.68645" lon="-0.06953">
        <ele>59.6</ele>
      </trkpt>
      <trkpt lat="44.68666" lon="-0.07022">
        <ele>60.1</ele>
      </trkpt>
      <trkpt lat="44.68689" lon="-0.07072">
        <ele>60.8</ele>
      </trkpt>
      <trkpt lat="44.68727" lon="-0.07155">
        <ele>61.8</ele>
      </trkpt>
      <trkpt lat="44.68761" lon="-0.0725">
        <ele>62.4</ele>
      </trkpt>
      <trkpt lat="44.68776" lon="-0.07316">
        <ele>61</ele>
      </trkpt>
      <trkpt lat="44.68864" lon="-0.07593">
        <ele>43.7</ele>
      </trkpt>
      <trkpt lat="44.6893" lon="-0.0778">
        <ele>50.1</ele>
      </trkpt>
      <trkpt lat="44.68971" lon="-0.07914">
        <ele>55</ele>
      </trkpt>
      <trkpt lat="44.69008" lon="-0.08012">
        <ele>58.7</ele>
      </trkpt>
      <trkpt lat="44.69022" lon="-0.08048">
        <ele>60.1</ele>
      </trkpt>
      <trkpt lat="44.69045" lon="-0.0809">
        <ele>62</ele>
      </trkpt>
      <trkpt lat="44.6909" lon="-0.08151">
        <ele>64.3</ele>
      </trkpt>
      <trkpt lat="44.69134" lon="-0.08207">
        <ele>68.3</ele>
      </trkpt>
      <trkpt lat="44.69189" lon="-0.08237">
        <ele>69.9</ele>
      </trkpt>
      <trkpt lat="44.69204" lon="-0.08259">
        <ele>71.2</ele>
      </trkpt>
      <trkpt lat="44.69243" lon="-0.08391">
        <ele>75.8</ele>
      </trkpt>
      <trkpt lat="44.6929" lon="-0.08378">
        <ele>79.5</ele>
      </trkpt>
      <trkpt lat="44.69317" lon="-0.08378">
        <ele>80.4</ele>
      </trkpt>
      <trkpt lat="44.69344" lon="-0.08384">
        <ele>81.3</ele>
      </trkpt>
      <trkpt lat="44.6934" lon="-0.08417">
        <ele>82.2</ele>
      </trkpt>
      <trkpt lat="44.69372" lon="-0.08468">
        <ele>82.9</ele>
      </trkpt>
      <trkpt lat="44.69291" lon="-0.08569">
        <ele>74.5</ele>
      </trkpt>
      <trkpt lat="44.6929" lon="-0.08583">
        <ele>73.9</ele>
      </trkpt>
      <trkpt lat="44.69322" lon="-0.0863">
        <ele>74.5</ele>
      </trkpt>
      <trkpt lat="44.69286" lon="-0.08675">
        <ele>72</ele>
      </trkpt>
      <trkpt lat="44.69284" lon="-0.08686">
        <ele>71.5</ele>
      </trkpt>
      <trkpt lat="44.69127" lon="-0.08866">
        <ele>59.6</ele>
      </trkpt>
      <trkpt lat="44.69059" lon="-0.08845">
        <ele>57.1</ele>
      </trkpt>
      <trkpt lat="44.69044" lon="-0.08859">
        <ele>56.6</ele>
      </trkpt>
    </trkseg>
  </trk>
  <trk>
    <name><![CDATA[Traces DPT 33_3]]></name>
    <extensions>
      <line xmlns="http://www.topografix.com/GPX/gpx_style/0/2">
        <color>0000FF</color>
        <width>4</width>
      </line>
    </extensions>
    <trkseg>
      <trkpt lat="44.81616" lon="-0.21482">
        <ele>62.7</ele>
      </trkpt>
      <trkpt lat="44.81539" lon="-0.21565">
        <ele>61.9</ele>
      </trkpt>
      <trkpt lat="44.81508" lon="-0.21609">
        <ele>57.9</ele>
      </trkpt>
      <trkpt lat="44.81496" lon="-0.21639">
        <ele>55.7</ele>
      </trkpt>
      <trkpt lat="44.81449" lon="-0.21726">
        <ele>55.1</ele>
      </trkpt>
      <trkpt lat="44.81439" lon="-0.21724">
        <ele>54.9</ele>
      </trkpt>
      <trkpt lat="44.81335" lon="-0.21753">
        <ele>57</ele>
      </trkpt>
      <trkpt lat="44.81284" lon="-0.21786">
        <ele>58.3</ele>
      </trkpt>
      <trkpt lat="44.81269" lon="-0.2176">
        <ele>59.5</ele>
      </trkpt>
      <trkpt lat="44.81247" lon="-0.21648">
        <ele>63.1</ele>
      </trkpt>
      <trkpt lat="44.81247" lon="-0.2162">
        <ele>63.1</ele>
      </trkpt>
      <trkpt lat="44.81248" lon="-0.21563">
        <ele>61.4</ele>
      </trkpt>
      <trkpt lat="44.81239" lon="-0.21467">
        <ele>59.6</ele>
      </trkpt>
      <trkpt lat="44.81233" lon="-0.2143">
        <ele>58.9</ele>
      </trkpt>
      <trkpt lat="44.81218" lon="-0.21352">
        <ele>56.3</ele>
      </trkpt>
      <trkpt lat="44.812" lon="-0.21277">
        <ele>54</ele>
      </trkpt>
      <trkpt lat="44.81195" lon="-0.2127">
        <ele>53.7</ele>
      </trkpt>
      <trkpt lat="44.81185" lon="-0.21269">
        <ele>53.8</ele>
      </trkpt>
      <trkpt lat="44.81114" lon="-0.21301">
        <ele>53.8</ele>
      </trkpt>
      <trkpt lat="44.81096" lon="-0.21314">
        <ele>53.4</ele>
      </trkpt>
      <trkpt lat="44.81066" lon="-0.21339">
        <ele>53.6</ele>
      </trkpt>
      <trkpt lat="44.81046" lon="-0.21352">
        <ele>53.5</ele>
      </trkpt>
      <trkpt lat="44.81016" lon="-0.21359">
        <ele>53.4</ele>
      </trkpt>
      <trkpt lat="44.80961" lon="-0.21366">
        <ele>53.2</ele>
      </trkpt>
      <trkpt lat="44.80947" lon="-0.21371">
        <ele>53.3</ele>
      </trkpt>
      <trkpt lat="44.80863" lon="-0.21423">
        <ele>56.2</ele>
      </trkpt>
      <trkpt lat="44.80823" lon="-0.21436">
        <ele>58.4</ele>
      </trkpt>
      <trkpt lat="44.80788" lon="-0.2144">
        <ele>59.4</ele>
      </trkpt>
      <trkpt lat="44.80745" lon="-0.21442">
        <ele>59.9</ele>
      </trkpt>
      <trkpt lat="44.80681" lon="-0.21425">
        <ele>60.5</ele>
      </trkpt>
      <trkpt lat="44.80618" lon="-0.21408">
        <ele>62.5</ele>
      </trkpt>
      <trkpt lat="44.80587" lon="-0.2141">
        <ele>64.5</ele>
      </trkpt>
      <trkpt lat="44.80574" lon="-0.21409">
        <ele>65.1</ele>
      </trkpt>
      <trkpt lat="44.80561" lon="-0.214">
        <ele>65.2</ele>
      </trkpt>
      <trkpt lat="44.80544" lon="-0.21378">
        <ele>64.6</ele>
      </trkpt>
      <trkpt lat="44.80531" lon="-0.21363">
        <ele>64.1</ele>
      </trkpt>
      <trkpt lat="44.80517" lon="-0.21353">
        <ele>63.6</ele>
      </trkpt>
      <trkpt lat="44.80492" lon="-0.21343">
        <ele>62.4</ele>
      </trkpt>
      <trkpt lat="44.80464" lon="-0.2134">
        <ele>60.8</ele>
      </trkpt>
      <trkpt lat="44.8045" lon="-0.21335">
        <ele>60.2</ele>
      </trkpt>
      <trkpt lat="44.80442" lon="-0.21332">
        <ele>59.9</ele>
      </trkpt>
      <trkpt lat="44.80434" lon="-0.21324">
        <ele>59.8</ele>
      </trkpt>
      <trkpt lat="44.80429" lon="-0.21312">
        <ele>59.7</ele>
      </trkpt>
      <trkpt lat="44.80424" lon="-0.21299">
        <ele>59.6</ele>
      </trkpt>
      <trkpt lat="44.80409" lon="-0.21236">
        <ele>58.3</ele>
      </trkpt>
      <trkpt lat="44.80404" lon="-0.21225">
        <ele>58.1</ele>
      </trkpt>
      <trkpt lat="44.80397" lon="-0.21216">
        <ele>57.8</ele>
      </trkpt>
      <trkpt lat="44.80376" lon="-0.21197">
        <ele>57.6</ele>
      </trkpt>
      <trkpt lat="44.80135" lon="-0.21321">
        <ele>71.1</ele>
      </trkpt>
      <trkpt lat="44.80112" lon="-0.2132">
        <ele>71.4</ele>
      </trkpt>
      <trkpt lat="44.8008" lon="-0.21312">
        <ele>73</ele>
      </trkpt>
      <trkpt lat="44.80053" lon="-0.2131">
        <ele>73.3</ele>
      </trkpt>
      <trkpt lat="44.79991" lon="-0.21337">
        <ele>75</ele>
      </trkpt>
      <trkpt lat="44.79915" lon="-0.21366">
        <ele>77</ele>
      </trkpt>
      <trkpt lat="44.79796" lon="-0.21438">
        <ele>79.8</ele>
      </trkpt>
      <trkpt lat="44.79753" lon="-0.21455">
        <ele>81.3</ele>
      </trkpt>
      <trkpt lat="44.79584" lon="-0.215">
        <ele>86</ele>
      </trkpt>
      <trkpt lat="44.79481" lon="-0.21528">
        <ele>86</ele>
      </trkpt>
      <trkpt lat="44.79444" lon="-0.2153">
        <ele>86</ele>
      </trkpt>
      <trkpt lat="44.79394" lon="-0.21522">
        <ele>85.4</ele>
      </trkpt>
      <trkpt lat="44.79321" lon="-0.21517">
        <ele>84.1</ele>
      </trkpt>
      <trkpt lat="44.79279" lon="-0.21525">
        <ele>83.1</ele>
      </trkpt>
      <trkpt lat="44.79066" lon="-0.21597">
        <ele>81</ele>
      </trkpt>
      <trkpt lat="44.79024" lon="-0.21604">
        <ele>79.2</ele>
      </trkpt>
      <trkpt lat="44.7895" lon="-0.21598">
        <ele>76.1</ele>
      </trkpt>
      <trkpt lat="44.78902" lon="-0.21602">
        <ele>74.6</ele>
      </trkpt>
      <trkpt lat="44.78887" lon="-0.21613">
        <ele>74</ele>
      </trkpt>
      <trkpt lat="44.79066" lon="-0.2194">
        <ele>81.6</ele>
      </trkpt>
      <trkpt lat="44.79085" lon="-0.21987">
        <ele>79.4</ele>
      </trkpt>
      <trkpt lat="44.79098" lon="-0.22022">
        <ele>78.2</ele>
      </trkpt>
      <trkpt lat="44.79107" lon="-0.22056">
        <ele>78</ele>
      </trkpt>
      <trkpt lat="44.79116" lon="-0.22091">
        <ele>78</ele>
      </trkpt>
      <trkpt lat="44.79119" lon="-0.22116">
        <ele>77.8</ele>
      </trkpt>
      <trkpt lat="44.79138" lon="-0.22281">
        <ele>76.8</ele>
      </trkpt>
      <trkpt lat="44.79155" lon="-0.22422">
        <ele>75.6</ele>
      </trkpt>
      <trkpt lat="44.79163" lon="-0.22495">
        <ele>76.1</ele>
      </trkpt>
      <trkpt lat="44.79167" lon="-0.22549">
        <ele>76</ele>
      </trkpt>
      <trkpt lat="44.79168" lon="-0.22613">
        <ele>76</ele>
      </trkpt>
      <trkpt lat="44.79165" lon="-0.22655">
        <ele>75.2</ele>
      </trkpt>
      <trkpt lat="44.79156" lon="-0.22727">
        <ele>76</ele>
      </trkpt>
      <trkpt lat="44.79147" lon="-0.22771">
        <ele>73.6</ele>
      </trkpt>
      <trkpt lat="44.79145" lon="-0.22777">
        <ele>73.3</ele>
      </trkpt>
      <trkpt lat="44.7914" lon="-0.22785">
        <ele>73.3</ele>
      </trkpt>
      <trkpt lat="44.79133" lon="-0.22792">
        <ele>73.7</ele>
      </trkpt>
      <trkpt lat="44.79137" lon="-0.228">
        <ele>73.8</ele>
      </trkpt>
      <trkpt lat="44.79167" lon="-0.2277">
        <ele>74</ele>
      </trkpt>
      <trkpt lat="44.79177" lon="-0.22752">
        <ele>75.1</ele>
      </trkpt>
      <trkpt lat="44.79219" lon="-0.22702">
        <ele>74.6</ele>
      </trkpt>
      <trkpt lat="44.79234" lon="-0.22709">
        <ele>74.1</ele>
      </trkpt>
      <trkpt lat="44.79248" lon="-0.22744">
        <ele>74.2</ele>
      </trkpt>
      <trkpt lat="44.79267" lon="-0.22783">
        <ele>73.9</ele>
      </trkpt>
      <trkpt lat="44.79355" lon="-0.22946">
        <ele>73.3</ele>
      </trkpt>
      <trkpt lat="44.7946" lon="-0.23139">
        <ele>72.9</ele>
      </trkpt>
      <trkpt lat="44.79476" lon="-0.23171">
        <ele>73</ele>
      </trkpt>
      <trkpt lat="44.79496" lon="-0.23224">
        <ele>73.2</ele>
      </trkpt>
      <trkpt lat="44.79539" lon="-0.23345">
        <ele>73.3</ele>
      </trkpt>
      <trkpt lat="44.79562" lon="-0.23444">
        <ele>73.2</ele>
      </trkpt>
      <trkpt lat="44.79583" lon="-0.23566">
        <ele>73.6</ele>
      </trkpt>
      <trkpt lat="44.79591" lon="-0.23591">
        <ele>73</ele>
      </trkpt>
      <trkpt lat="44.79608" lon="-0.23628">
        <ele>72.5</ele>
      </trkpt>
      <trkpt lat="44.79684" lon="-0.23763">
        <ele>69.7</ele>
      </trkpt>
      <trkpt lat="44.79697" lon="-0.238">
        <ele>68.3</ele>
      </trkpt>
      <trkpt lat="44.79762" lon="-0.24057">
        <ele>67.4</ele>
      </trkpt>
      <trkpt lat="44.7977" lon="-0.24082">
        <ele>67.7</ele>
      </trkpt>
      <trkpt lat="44.79778" lon="-0.24102">
        <ele>68</ele>
      </trkpt>
      <trkpt lat="44.79785" lon="-0.24123">
        <ele>68.1</ele>
      </trkpt>
      <trkpt lat="44.79791" lon="-0.24142">
        <ele>67.9</ele>
      </trkpt>
      <trkpt lat="44.79803" lon="-0.24226">
        <ele>66.8</ele>
      </trkpt>
      <trkpt lat="44.79801" lon="-0.24262">
        <ele>66.1</ele>
      </trkpt>
      <trkpt lat="44.79803" lon="-0.24361">
        <ele>64.7</ele>
      </trkpt>
      <trkpt lat="44.79805" lon="-0.24408">
        <ele>63.3</ele>
      </trkpt>
      <trkpt lat="44.79803" lon="-0.24426">
        <ele>62.8</ele>
      </trkpt>
      <trkpt lat="44.79793" lon="-0.2446">
        <ele>62.1</ele>
      </trkpt>
      <trkpt lat="44.79777" lon="-0.24504">
        <ele>61</ele>
      </trkpt>
      <trkpt lat="44.79767" lon="-0.24546">
        <ele>61</ele>
      </trkpt>
      <trkpt lat="44.79762" lon="-0.24604">
        <ele>60.1</ele>
      </trkpt>
      <trkpt lat="44.7976" lon="-0.24671">
        <ele>58.4</ele>
      </trkpt>
      <trkpt lat="44.79762" lon="-0.24744">
        <ele>54.2</ele>
      </trkpt>
      <trkpt lat="44.79758" lon="-0.24782">
        <ele>51.1</ele>
      </trkpt>
      <trkpt lat="44.79775" lon="-0.24795">
        <ele>50.9</ele>
      </trkpt>
      <trkpt lat="44.79798" lon="-0.24799">
        <ele>50</ele>
      </trkpt>
      <trkpt lat="44.79832" lon="-0.2481">
        <ele>48.7</ele>
      </trkpt>
      <trkpt lat="44.79904" lon="-0.24883">
        <ele>49</ele>
      </trkpt>
      <trkpt lat="44.79967" lon="-0.24908">
        <ele>48</ele>
      </trkpt>
      <trkpt lat="44.79971" lon="-0.24918">
        <ele>47</ele>
      </trkpt>
      <trkpt lat="44.80013" lon="-0.24894">
        <ele>48.3</ele>
      </trkpt>
      <trkpt lat="44.80021" lon="-0.24897">
        <ele>47.9</ele>
      </trkpt>
      <trkpt lat="44.80092" lon="-0.24909">
        <ele>45.5</ele>
      </trkpt>
      <trkpt lat="44.80129" lon="-0.24906">
        <ele>44.5</ele>
      </trkpt>
      <trkpt lat="44.80224" lon="-0.24889">
        <ele>41</ele>
      </trkpt>
      <trkpt lat="44.80334" lon="-0.24877">
        <ele>43.5</ele>
      </trkpt>
      <trkpt lat="44.80361" lon="-0.24877">
        <ele>45</ele>
      </trkpt>
      <trkpt lat="44.80412" lon="-0.24867">
        <ele>47.5</ele>
      </trkpt>
      <trkpt lat="44.80489" lon="-0.24858">
        <ele>51.7</ele>
      </trkpt>
      <trkpt lat="44.80539" lon="-0.24865">
        <ele>51.9</ele>
      </trkpt>
      <trkpt lat="44.80564" lon="-0.24876">
        <ele>51.5</ele>
      </trkpt>
      <trkpt lat="44.8062" lon="-0.24918">
        <ele>50.5</ele>
      </trkpt>
      <trkpt lat="44.80653" lon="-0.24937">
        <ele>51</ele>
      </trkpt>
      <trkpt lat="44.80669" lon="-0.24942">
        <ele>51.3</ele>
      </trkpt>
      <trkpt lat="44.80685" lon="-0.24941">
        <ele>52.5</ele>
      </trkpt>
      <trkpt lat="44.80715" lon="-0.24929">
        <ele>54</ele>
      </trkpt>
      <trkpt lat="44.80733" lon="-0.24921">
        <ele>54.7</ele>
      </trkpt>
      <trkpt lat="44.80755" lon="-0.24909">
        <ele>54.8</ele>
      </trkpt>
      <trkpt lat="44.80785" lon="-0.24881">
        <ele>53.6</ele>
      </trkpt>
      <trkpt lat="44.80812" lon="-0.24851">
        <ele>53.2</ele>
      </trkpt>
      <trkpt lat="44.80839" lon="-0.24829">
        <ele>52.6</ele>
      </trkpt>
      <trkpt lat="44.80869" lon="-0.24817">
        <ele>50.7</ele>
      </trkpt>
      <trkpt lat="44.80949" lon="-0.24792">
        <ele>46.3</ele>
      </trkpt>
      <trkpt lat="44.81042" lon="-0.24752">
        <ele>50.4</ele>
      </trkpt>
      <trkpt lat="44.81055" lon="-0.24741">
        <ele>51.3</ele>
      </trkpt>
      <trkpt lat="44.81053" lon="-0.2471">
        <ele>51.9</ele>
      </trkpt>
      <trkpt lat="44.81048" lon="-0.24685">
        <ele>52.3</ele>
      </trkpt>
      <trkpt lat="44.81042" lon="-0.24662">
        <ele>53.2</ele>
      </trkpt>
      <trkpt lat="44.81014" lon="-0.2457">
        <ele>54.3</ele>
      </trkpt>
      <trkpt lat="44.80905" lon="-0.24263">
        <ele>50.3</ele>
      </trkpt>
      <trkpt lat="44.80898" lon="-0.24251">
        <ele>49.7</ele>
      </trkpt>
      <trkpt lat="44.80868" lon="-0.24224">
        <ele>49.8</ele>
      </trkpt>
      <trkpt lat="44.80866" lon="-0.24218">
        <ele>50</ele>
      </trkpt>
      <trkpt lat="44.80936" lon="-0.24206">
        <ele>45.9</ele>
      </trkpt>
      <trkpt lat="44.80934" lon="-0.24196">
        <ele>45.4</ele>
      </trkpt>
      <trkpt lat="44.80939" lon="-0.24167">
        <ele>43.8</ele>
      </trkpt>
      <trkpt lat="44.80989" lon="-0.24033">
        <ele>37.3</ele>
      </trkpt>
      <trkpt lat="44.81025" lon="-0.23942">
        <ele>33</ele>
      </trkpt>
      <trkpt lat="44.81034" lon="-0.23926">
        <ele>32.1</ele>
      </trkpt>
      <trkpt lat="44.81045" lon="-0.2391">
        <ele>31.3</ele>
      </trkpt>
      <trkpt lat="44.81143" lon="-0.23791">
        <ele>36.6</ele>
      </trkpt>
      <trkpt lat="44.81234" lon="-0.23665">
        <ele>38.3</ele>
      </trkpt>
      <trkpt lat="44.81254" lon="-0.23632">
        <ele>38.4</ele>
      </trkpt>
      <trkpt lat="44.81305" lon="-0.23543">
        <ele>43.5</ele>
      </trkpt>
      <trkpt lat="44.81322" lon="-0.23512">
        <ele>44.3</ele>
      </trkpt>
      <trkpt lat="44.81332" lon="-0.23491">
        <ele>44</ele>
      </trkpt>
      <trkpt lat="44.81337" lon="-0.23469">
        <ele>44.7</ele>
      </trkpt>
      <trkpt lat="44.81341" lon="-0.23443">
        <ele>46.3</ele>
      </trkpt>
      <trkpt lat="44.81351" lon="-0.23418">
        <ele>47.6</ele>
      </trkpt>
      <trkpt lat="44.81362" lon="-0.23403">
        <ele>47.6</ele>
      </trkpt>
      <trkpt lat="44.81388" lon="-0.23379">
        <ele>48.2</ele>
      </trkpt>
      <trkpt lat="44.81413" lon="-0.23351">
        <ele>49.4</ele>
      </trkpt>
      <trkpt lat="44.81438" lon="-0.2328">
        <ele>50</ele>
      </trkpt>
      <trkpt lat="44.81443" lon="-0.23262">
        <ele>50</ele>
      </trkpt>
      <trkpt lat="44.81448" lon="-0.23239">
        <ele>50.7</ele>
      </trkpt>
      <trkpt lat="44.81452" lon="-0.23208">
        <ele>51.7</ele>
      </trkpt>
      <trkpt lat="44.81452" lon="-0.23183">
        <ele>52.1</ele>
      </trkpt>
      <trkpt lat="44.81453" lon="-0.23163">
        <ele>52.7</ele>
      </trkpt>
      <trkpt lat="44.81459" lon="-0.23147">
        <ele>53.4</ele>
      </trkpt>
      <trkpt lat="44.8147" lon="-0.23137">
        <ele>53.9</ele>
      </trkpt>
      <trkpt lat="44.81549" lon="-0.23085">
        <ele>57.4</ele>
      </trkpt>
      <trkpt lat="44.81684" lon="-0.22998">
        <ele>67.7</ele>
      </trkpt>
      <trkpt lat="44.81708" lon="-0.22979">
        <ele>68.5</ele>
      </trkpt>
      <trkpt lat="44.81722" lon="-0.22957">
        <ele>68.5</ele>
      </trkpt>
      <trkpt lat="44.81717" lon="-0.22939">
        <ele>69.6</ele>
      </trkpt>
      <trkpt lat="44.81712" lon="-0.2291">
        <ele>70.9</ele>
      </trkpt>
      <trkpt lat="44.81696" lon="-0.22856">
        <ele>73</ele>
      </trkpt>
      <trkpt lat="44.81689" lon="-0.22843">
        <ele>73</ele>
      </trkpt>
      <trkpt lat="44.81684" lon="-0.22797">
        <ele>73.8</ele>
      </trkpt>
      <trkpt lat="44.81684" lon="-0.22779">
        <ele>74.2</ele>
      </trkpt>
      <trkpt lat="44.81678" lon="-0.22753">
        <ele>73.8</ele>
      </trkpt>
      <trkpt lat="44.81668" lon="-0.22723">
        <ele>74.9</ele>
      </trkpt>
      <trkpt lat="44.81598" lon="-0.22583">
        <ele>75.5</ele>
      </trkpt>
      <trkpt lat="44.8159" lon="-0.22555">
        <ele>76.3</ele>
      </trkpt>
      <trkpt lat="44.81577" lon="-0.22495">
        <ele>78.1</ele>
      </trkpt>
      <trkpt lat="44.81554" lon="-0.22435">
        <ele>79</ele>
      </trkpt>
      <trkpt lat="44.8166" lon="-0.22351">
        <ele>80</ele>
      </trkpt>
      <trkpt lat="44.81662" lon="-0.22336">
        <ele>80</ele>
      </trkpt>
      <trkpt lat="44.81685" lon="-0.22277">
        <ele>78.6</ele>
      </trkpt>
      <trkpt lat="44.81696" lon="-0.22235">
        <ele>76.5</ele>
      </trkpt>
      <trkpt lat="44.81698" lon="-0.2221">
        <ele>75.8</ele>
      </trkpt>
      <trkpt lat="44.81695" lon="-0.22187">
        <ele>75.1</ele>
      </trkpt>
      <trkpt lat="44.81643" lon="-0.21978">
        <ele>68.4</ele>
      </trkpt>
      <trkpt lat="44.81621" lon="-0.21892">
        <ele>65.7</ele>
      </trkpt>
      <trkpt lat="44.81613" lon="-0.21851">
        <ele>64.5</ele>
      </trkpt>
      <trkpt lat="44.81638" lon="-0.21824">
        <ele>66.2</ele>
      </trkpt>
      <trkpt lat="44.81666" lon="-0.21799">
        <ele>68.9</ele>
      </trkpt>
      <trkpt lat="44.81698" lon="-0.21771">
        <ele>71.4</ele>
      </trkpt>
      <trkpt lat="44.81733" lon="-0.21752">
        <ele>73.3</ele>
      </trkpt>
      <trkpt lat="44.81772" lon="-0.21732">
        <ele>75.7</ele>
      </trkpt>
      <trkpt lat="44.81787" lon="-0.21725">
        <ele>76.3</ele>
      </trkpt>
      <trkpt lat="44.81785" lon="-0.21719">
        <ele>76.3</ele>
      </trkpt>
      <trkpt lat="44.81782" lon="-0.21704">
        <ele>76.1</ele>
      </trkpt>
      <trkpt lat="44.81793" lon="-0.21602">
        <ele>75.4</ele>
      </trkpt>
      <trkpt lat="44.81795" lon="-0.21589">
        <ele>75.1</ele>
      </trkpt>
      <trkpt lat="44.81792" lon="-0.21577">
        <ele>74.6</ele>
      </trkpt>
      <trkpt lat="44.8177" lon="-0.21529">
        <ele>70.5</ele>
      </trkpt>
      <trkpt lat="44.81747" lon="-0.21524">
        <ele>68.4</ele>
      </trkpt>
      <trkpt lat="44.8173" lon="-0.21516">
        <ele>67.3</ele>
      </trkpt>
      <trkpt lat="44.81723" lon="-0.21499">
        <ele>66</ele>
      </trkpt>
      <trkpt lat="44.81723" lon="-0.21477">
        <ele>65.1</ele>
      </trkpt>
      <trkpt lat="44.81736" lon="-0.2143">
        <ele>61.2</ele>
      </trkpt>
      <trkpt lat="44.81736" lon="-0.21412">
        <ele>59.8</ele>
      </trkpt>
      <trkpt lat="44.81732" lon="-0.21396">
        <ele>59.1</ele>
      </trkpt>
      <trkpt lat="44.81723" lon="-0.2138">
        <ele>58.7</ele>
      </trkpt>
      <trkpt lat="44.81713" lon="-0.21364">
        <ele>57.5</ele>
      </trkpt>
      <trkpt lat="44.81697" lon="-0.21389">
        <ele>58.1</ele>
      </trkpt>
      <trkpt lat="44.81669" lon="-0.21427">
        <ele>58.6</ele>
      </trkpt>
      <trkpt lat="44.81616" lon="-0.21482">
        <ele>62.7</ele>
      </trkpt>
    </trkseg>
  </trk>
  <trk>
    <name><![CDATA[NewTrack]]></name>
    <desc><![CDATA[Total: 18.0km]]></desc>
    <extensions>
      <line xmlns="http://www.topografix.com/GPX/gpx_style/0/2">
        <color>00FFFF</color>
        <width>4</width>
      </line>
    </extensions>
    <trkseg>
      <trkpt lat="44.68479" lon="-0.11285">
        <ele>83.1</ele>
        <time>2016-01-22T09:54:07Z</time>
      </trkpt>
      <trkpt lat="44.68486" lon="-0.11288">
        <ele>83.41</ele>
        <time>2016-01-22T09:54:09Z</time>
      </trkpt>
      <trkpt lat="44.6856" lon="-0.10967">
        <ele>87.56</ele>
        <time>2016-01-22T09:55:18Z</time>
      </trkpt>
      <trkpt lat="44.68584" lon="-0.10778">
        <ele>88.67</ele>
        <time>2016-01-22T09:55:57Z</time>
      </trkpt>
      <trkpt lat="44.68601" lon="-0.10739">
        <ele>88.07</ele>
        <time>2016-01-22T09:56:06Z</time>
      </trkpt>
      <trkpt lat="44.68613" lon="-0.10747">
        <ele>88.32</ele>
        <time>2016-01-22T09:56:10Z</time>
      </trkpt>
      <trkpt lat="44.68636" lon="-0.10752">
        <ele>88.65</ele>
        <time>2016-01-22T09:56:17Z</time>
      </trkpt>
      <trkpt lat="44.68682" lon="-0.10758">
        <ele>89.39</ele>
        <time>2016-01-22T09:56:30Z</time>
      </trkpt>
      <trkpt lat="44.68722" lon="-0.10764">
        <ele>90.44</ele>
        <time>2016-01-22T09:56:42Z</time>
      </trkpt>
      <trkpt lat="44.68763" lon="-0.10765">
        <ele>91.62</ele>
        <time>2016-01-22T09:56:53Z</time>
      </trkpt>
      <trkpt lat="44.68823" lon="-0.10766">
        <ele>93.65</ele>
        <time>2016-01-22T09:57:10Z</time>
      </trkpt>
      <trkpt lat="44.68907" lon="-0.10756">
        <ele>95.71</ele>
        <time>2016-01-22T09:57:35Z</time>
      </trkpt>
      <trkpt lat="44.69006" lon="-0.10772">
        <ele>93.7</ele>
        <time>2016-01-22T09:58:03Z</time>
      </trkpt>
      <trkpt lat="44.69082" lon="-0.10774">
        <ele>93.3</ele>
        <time>2016-01-22T09:58:25Z</time>
      </trkpt>
      <trkpt lat="44.6911" lon="-0.10782">
        <ele>92.49</ele>
        <time>2016-01-22T09:58:33Z</time>
      </trkpt>
      <trkpt lat="44.69138" lon="-0.10786">
        <ele>91.55</ele>
        <time>2016-01-22T09:58:41Z</time>
      </trkpt>
      <trkpt lat="44.69222" lon="-0.10781">
        <ele>88.39</ele>
        <time>2016-01-22T09:59:05Z</time>
      </trkpt>
      <trkpt lat="44.69326" lon="-0.10748">
        <ele>88.92</ele>
        <time>2016-01-22T09:59:35Z</time>
      </trkpt>
      <trkpt lat="44.69443" lon="-0.10739">
        <ele>89.05</ele>
        <time>2016-01-22T10:00:09Z</time>
      </trkpt>
      <trkpt lat="44.69495" lon="-0.10752">
        <ele>88.98</ele>
        <time>2016-01-22T10:00:24Z</time>
      </trkpt>
      <trkpt lat="44.69599" lon="-0.1084">
        <ele>86.86</ele>
        <time>2016-01-22T10:00:59Z</time>
      </trkpt>
      <trkpt lat="44.69632" lon="-0.10877">
        <ele>86.26</ele>
        <time>2016-01-22T10:01:11Z</time>
      </trkpt>
      <trkpt lat="44.69747" lon="-0.10921">
        <ele>83.04</ele>
        <time>2016-01-22T10:01:45Z</time>
      </trkpt>
      <trkpt lat="44.6999" lon="-0.10814">
        <ele>86.5</ele>
        <time>2016-01-22T10:02:58Z</time>
      </trkpt>
      <trkpt lat="44.70095" lon="-0.10748">
        <ele>84.19</ele>
        <time>2016-01-22T10:03:31Z</time>
      </trkpt>
      <trkpt lat="44.702" lon="-0.10672">
        <ele>88.61</ele>
        <time>2016-01-22T10:04:04Z</time>
      </trkpt>
      <trkpt lat="44.70303" lon="-0.10612">
        <ele>89.96</ele>
        <time>2016-01-22T10:04:36Z</time>
      </trkpt>
      <trkpt lat="44.70368" lon="-0.10583">
        <ele>92.26</ele>
        <time>2016-01-22T10:04:56Z</time>
      </trkpt>
      <trkpt lat="44.70452" lon="-0.10504">
        <ele>99.15</ele>
        <time>2016-01-22T10:05:25Z</time>
      </trkpt>
      <trkpt lat="44.70637" lon="-0.10437">
        <ele>102.57</ele>
        <time>2016-01-22T10:06:19Z</time>
      </trkpt>
      <trkpt lat="44.70704" lon="-0.10571">
        <ele>105.19</ele>
        <time>2016-01-22T10:06:53Z</time>
      </trkpt>
      <trkpt lat="44.70746" lon="-0.1068">
        <ele>107.72</ele>
        <time>2016-01-22T10:07:18Z</time>
      </trkpt>
      <trkpt lat="44.70851" lon="-0.10585">
        <ele>96.81</ele>
        <time>2016-01-22T10:07:54Z</time>
      </trkpt>
      <trkpt lat="44.70937" lon="-0.10501">
        <ele>90.52</ele>
        <time>2016-01-22T10:08:24Z</time>
      </trkpt>
      <trkpt lat="44.70967" lon="-0.10471">
        <ele>89.23</ele>
        <time>2016-01-22T10:08:34Z</time>
      </trkpt>
      <trkpt lat="44.70985" lon="-0.10476">
        <ele>88.84</ele>
        <time>2016-01-22T10:08:40Z</time>
      </trkpt>
      <trkpt lat="44.71007" lon="-0.105">
        <ele>89</ele>
        <time>2016-01-22T10:08:48Z</time>
      </trkpt>
      <trkpt lat="44.71026" lon="-0.10516">
        <ele>89.37</ele>
        <time>2016-01-22T10:08:54Z</time>
      </trkpt>
      <trkpt lat="44.71043" lon="-0.10501">
        <ele>89.03</ele>
        <time>2016-01-22T10:09:00Z</time>
      </trkpt>
      <trkpt lat="44.7108" lon="-0.10322">
        <ele>87.68</ele>
        <time>2016-01-22T10:09:38Z</time>
      </trkpt>
      <trkpt lat="44.71092" lon="-0.10265">
        <ele>86.36</ele>
        <time>2016-01-22T10:09:50Z</time>
      </trkpt>
      <trkpt lat="44.71093" lon="-0.10236">
        <ele>85.42</ele>
        <time>2016-01-22T10:09:56Z</time>
      </trkpt>
      <trkpt lat="44.71137" lon="-0.10097">
        <ele>79.66</ele>
        <time>2016-01-22T10:10:27Z</time>
      </trkpt>
      <trkpt lat="44.71173" lon="-0.09953">
        <ele>77.9</ele>
        <time>2016-01-22T10:10:58Z</time>
      </trkpt>
      <trkpt lat="44.71186" lon="-0.09929">
        <ele>77.55</ele>
        <time>2016-01-22T10:11:04Z</time>
      </trkpt>
      <trkpt lat="44.71306" lon="-0.0986">
        <ele>75.68</ele>
        <time>2016-01-22T10:11:41Z</time>
      </trkpt>
      <trkpt lat="44.71383" lon="-0.09997">
        <ele>78.58</ele>
        <time>2016-01-22T10:12:17Z</time>
      </trkpt>
      <trkpt lat="44.71435" lon="-0.1007">
        <ele>79.95</ele>
        <time>2016-01-22T10:12:38Z</time>
      </trkpt>
      <trkpt lat="44.71468" lon="-0.10105">
        <ele>80.36</ele>
        <time>2016-01-22T10:12:50Z</time>
      </trkpt>
      <trkpt lat="44.71505" lon="-0.10137">
        <ele>80.84</ele>
        <time>2016-01-22T10:13:02Z</time>
      </trkpt>
      <trkpt lat="44.71804" lon="-0.1038">
        <ele>91.74</ele>
        <time>2016-01-22T10:14:41Z</time>
      </trkpt>
      <trkpt lat="44.71857" lon="-0.10415">
        <ele>92.02</ele>
        <time>2016-01-22T10:14:57Z</time>
      </trkpt>
      <trkpt lat="44.71961" lon="-0.1044">
        <ele>91.75</ele>
        <time>2016-01-22T10:15:28Z</time>
      </trkpt>
      <trkpt lat="44.71961" lon="-0.10404">
        <ele>91.31</ele>
        <time>2016-01-22T10:15:35Z</time>
      </trkpt>
      <trkpt lat="44.71954" lon="-0.1036">
        <ele>90.94</ele>
        <time>2016-01-22T10:15:44Z</time>
      </trkpt>
      <trkpt lat="44.71797" lon="-0.10154">
        <ele>90.34</ele>
        <time>2016-01-22T10:16:46Z</time>
      </trkpt>
      <trkpt lat="44.7178" lon="-0.10128">
        <ele>90.47</ele>
        <time>2016-01-22T10:16:53Z</time>
      </trkpt>
      <trkpt lat="44.71773" lon="-0.10107">
        <ele>90.52</ele>
        <time>2016-01-22T10:16:58Z</time>
      </trkpt>
      <trkpt lat="44.71762" lon="-0.10066">
        <ele>90.32</ele>
        <time>2016-01-22T10:17:06Z</time>
      </trkpt>
      <trkpt lat="44.71749" lon="-0.10043">
        <ele>90.02</ele>
        <time>2016-01-22T10:17:12Z</time>
      </trkpt>
      <trkpt lat="44.7174" lon="-0.09971">
        <ele>89</ele>
        <time>2016-01-22T10:17:27Z</time>
      </trkpt>
      <trkpt lat="44.71698" lon="-0.09828">
        <ele>87.83</ele>
        <time>2016-01-22T10:17:59Z</time>
      </trkpt>
      <trkpt lat="44.7174" lon="-0.09813">
        <ele>86.33</ele>
        <time>2016-01-22T10:18:11Z</time>
      </trkpt>
      <trkpt lat="44.71752" lon="-0.09797">
        <ele>85.95</ele>
        <time>2016-01-22T10:18:16Z</time>
      </trkpt>
      <trkpt lat="44.71788" lon="-0.09661">
        <ele>83.02</ele>
        <time>2016-01-22T10:18:45Z</time>
      </trkpt>
      <trkpt lat="44.7183" lon="-0.09527">
        <ele>80.43</ele>
        <time>2016-01-22T10:19:15Z</time>
      </trkpt>
      <trkpt lat="44.71848" lon="-0.09466">
        <ele>78.92</ele>
        <time>2016-01-22T10:19:29Z</time>
      </trkpt>
      <trkpt lat="44.71862" lon="-0.09399">
        <ele>77.78</ele>
        <time>2016-01-22T10:19:43Z</time>
      </trkpt>
      <trkpt lat="44.71861" lon="-0.09389">
        <ele>78.12</ele>
        <time>2016-01-22T10:19:45Z</time>
      </trkpt>
      <trkpt lat="44.71949" lon="-0.0903">
        <ele>72.85</ele>
        <time>2016-01-22T10:21:02Z</time>
      </trkpt>
      <trkpt lat="44.71949" lon="-0.09005">
        <ele>71.68</ele>
        <time>2016-01-22T10:21:07Z</time>
      </trkpt>
      <trkpt lat="44.7194" lon="-0.08978">
        <ele>71.15</ele>
        <time>2016-01-22T10:21:13Z</time>
      </trkpt>
      <trkpt lat="44.71775" lon="-0.08634">
        <ele>66.85</ele>
        <time>2016-01-22T10:22:38Z</time>
      </trkpt>
      <trkpt lat="44.7176" lon="-0.08549">
        <ele>64.28</ele>
        <time>2016-01-22T10:22:56Z</time>
      </trkpt>
      <trkpt lat="44.72014" lon="-0.08336">
        <ele>80.7</ele>
        <time>2016-01-22T10:24:20Z</time>
      </trkpt>
      <trkpt lat="44.71944" lon="-0.08223">
        <ele>80.07</ele>
        <time>2016-01-22T10:24:51Z</time>
      </trkpt>
      <trkpt lat="44.71905" lon="-0.08194">
        <ele>79.32</ele>
        <time>2016-01-22T10:25:04Z</time>
      </trkpt>
      <trkpt lat="44.71875" lon="-0.08183">
        <ele>77.91</ele>
        <time>2016-01-22T10:25:13Z</time>
      </trkpt>
      <trkpt lat="44.71847" lon="-0.08175">
        <ele>76.53</ele>
        <time>2016-01-22T10:25:21Z</time>
      </trkpt>
      <trkpt lat="44.71775" lon="-0.08125">
        <ele>71.65</ele>
        <time>2016-01-22T10:25:44Z</time>
      </trkpt>
      <trkpt lat="44.71754" lon="-0.08097">
        <ele>70.25</ele>
        <time>2016-01-22T10:25:52Z</time>
      </trkpt>
      <trkpt lat="44.71729" lon="-0.08102">
        <ele>69.1</ele>
        <time>2016-01-22T10:25:59Z</time>
      </trkpt>
      <trkpt lat="44.71706" lon="-0.08113">
        <ele>68.26</ele>
        <time>2016-01-22T10:26:06Z</time>
      </trkpt>
      <trkpt lat="44.71662" lon="-0.08135">
        <ele>67.19</ele>
        <time>2016-01-22T10:26:20Z</time>
      </trkpt>
      <trkpt lat="44.71624" lon="-0.08143">
        <ele>66.92</ele>
        <time>2016-01-22T10:26:30Z</time>
      </trkpt>
      <trkpt lat="44.71588" lon="-0.08145">
        <ele>66.54</ele>
        <time>2016-01-22T10:26:41Z</time>
      </trkpt>
      <trkpt lat="44.71568" lon="-0.08126">
        <ele>66.11</ele>
        <time>2016-01-22T10:26:48Z</time>
      </trkpt>
      <trkpt lat="44.71464" lon="-0.07957">
        <ele>68.12</ele>
        <time>2016-01-22T10:27:33Z</time>
      </trkpt>
      <trkpt lat="44.71509" lon="-0.07901">
        <ele>68.03</ele>
        <time>2016-01-22T10:27:51Z</time>
      </trkpt>
      <trkpt lat="44.71593" lon="-0.07858">
        <ele>68.93</ele>
        <time>2016-01-22T10:28:16Z</time>
      </trkpt>
      <trkpt lat="44.71623" lon="-0.07653">
        <ele>76.31</ele>
        <time>2016-01-22T10:28:59Z</time>
      </trkpt>
      <trkpt lat="44.71631" lon="-0.07452">
        <ele>83.65</ele>
        <time>2016-01-22T10:29:40Z</time>
      </trkpt>
      <trkpt lat="44.7159" lon="-0.07255">
        <ele>89.85</ele>
        <time>2016-01-22T10:30:22Z</time>
      </trkpt>
      <trkpt lat="44.71567" lon="-0.07244">
        <ele>89.31</ele>
        <time>2016-01-22T10:30:29Z</time>
      </trkpt>
      <trkpt lat="44.71532" lon="-0.07238">
        <ele>87.77</ele>
        <time>2016-01-22T10:30:39Z</time>
      </trkpt>
      <trkpt lat="44.71501" lon="-0.0703">
        <ele>92.69</ele>
        <time>2016-01-22T10:31:22Z</time>
      </trkpt>
      <trkpt lat="44.71471" lon="-0.07006">
        <ele>91.86</ele>
        <time>2016-01-22T10:31:32Z</time>
      </trkpt>
      <trkpt lat="44.71374" lon="-0.07021">
        <ele>88.09</ele>
        <time>2016-01-22T10:32:00Z</time>
      </trkpt>
      <trkpt lat="44.71299" lon="-0.07022">
        <ele>86.43</ele>
        <time>2016-01-22T10:32:21Z</time>
      </trkpt>
      <trkpt lat="44.71258" lon="-0.06788">
        <ele>85.93</ele>
        <time>2016-01-22T10:33:10Z</time>
      </trkpt>
      <trkpt lat="44.71215" lon="-0.06562">
        <ele>93.78</ele>
        <time>2016-01-22T10:33:58Z</time>
      </trkpt>
      <trkpt lat="44.71159" lon="-0.06481">
        <ele>94.79</ele>
        <time>2016-01-22T10:34:21Z</time>
      </trkpt>
      <trkpt lat="44.71009" lon="-0.06333">
        <ele>95.22</ele>
        <time>2016-01-22T10:35:14Z</time>
      </trkpt>
      <trkpt lat="44.70886" lon="-0.06185">
        <ele>94.51</ele>
        <time>2016-01-22T10:36:00Z</time>
      </trkpt>
      <trkpt lat="44.70818" lon="-0.06103">
        <ele>95.98</ele>
        <time>2016-01-22T10:36:25Z</time>
      </trkpt>
      <trkpt lat="44.70785" lon="-0.06048">
        <ele>96.14</ele>
        <time>2016-01-22T10:36:40Z</time>
      </trkpt>
      <trkpt lat="44.70776" lon="-0.05987">
        <ele>96.67</ele>
        <time>2016-01-22T10:36:53Z</time>
      </trkpt>
      <trkpt lat="44.70765" lon="-0.05932">
        <ele>95.11</ele>
        <time>2016-01-22T10:37:04Z</time>
      </trkpt>
      <trkpt lat="44.70737" lon="-0.05863">
        <ele>91.72</ele>
        <time>2016-01-22T10:37:21Z</time>
      </trkpt>
      <trkpt lat="44.70707" lon="-0.05802">
        <ele>89.91</ele>
        <time>2016-01-22T10:37:36Z</time>
      </trkpt>
      <trkpt lat="44.70555" lon="-0.05671">
        <ele>85.07</ele>
        <time>2016-01-22T10:38:27Z</time>
      </trkpt>
      <trkpt lat="44.70487" lon="-0.05613">
        <ele>83.5</ele>
        <time>2016-01-22T10:38:49Z</time>
      </trkpt>
      <trkpt lat="44.70455" lon="-0.05593">
        <ele>82.63</ele>
        <time>2016-01-22T10:39:00Z</time>
      </trkpt>
      <trkpt lat="44.70418" lon="-0.05582">
        <ele>81.95</ele>
        <time>2016-01-22T10:39:10Z</time>
      </trkpt>
      <trkpt lat="44.7038" lon="-0.05578">
        <ele>80.45</ele>
        <time>2016-01-22T10:39:21Z</time>
      </trkpt>
      <trkpt lat="44.70314" lon="-0.05541">
        <ele>77.02</ele>
        <time>2016-01-22T10:39:41Z</time>
      </trkpt>
      <trkpt lat="44.70256" lon="-0.05499">
        <ele>75.88</ele>
        <time>2016-01-22T10:40:00Z</time>
      </trkpt>
      <trkpt lat="44.70187" lon="-0.05417">
        <ele>70.25</ele>
        <time>2016-01-22T10:40:26Z</time>
      </trkpt>
      <trkpt lat="44.70133" lon="-0.05359">
        <ele>65.17</ele>
        <time>2016-01-22T10:40:45Z</time>
      </trkpt>
      <trkpt lat="44.7011" lon="-0.05304">
        <ele>60.28</ele>
        <time>2016-01-22T10:40:59Z</time>
      </trkpt>
      <trkpt lat="44.70081" lon="-0.05251">
        <ele>54.99</ele>
        <time>2016-01-22T10:41:12Z</time>
      </trkpt>
      <trkpt lat="44.70049" lon="-0.0524">
        <ele>53.45</ele>
        <time>2016-01-22T10:41:22Z</time>
      </trkpt>
      <trkpt lat="44.69935" lon="-0.05227">
        <ele>50.53</ele>
        <time>2016-01-22T10:41:54Z</time>
      </trkpt>
      <trkpt lat="44.69824" lon="-0.04973">
        <ele>56.56</ele>
        <time>2016-01-22T10:42:55Z</time>
      </trkpt>
      <trkpt lat="44.69788" lon="-0.05011">
        <ele>54.26</ele>
        <time>2016-01-22T10:43:08Z</time>
      </trkpt>
      <trkpt lat="44.69772" lon="-0.05064">
        <ele>53.75</ele>
        <time>2016-01-22T10:43:20Z</time>
      </trkpt>
      <trkpt lat="44.69753" lon="-0.05135">
        <ele>53.32</ele>
        <time>2016-01-22T10:43:35Z</time>
      </trkpt>
      <trkpt lat="44.69744" lon="-0.05166">
        <ele>53.36</ele>
        <time>2016-01-22T10:43:42Z</time>
      </trkpt>
      <trkpt lat="44.69731" lon="-0.05192">
        <ele>52.85</ele>
        <time>2016-01-22T10:43:49Z</time>
      </trkpt>
      <trkpt lat="44.69696" lon="-0.05224">
        <ele>53.04</ele>
        <time>2016-01-22T10:44:01Z</time>
      </trkpt>
      <trkpt lat="44.69677" lon="-0.05233">
        <ele>53.5</ele>
        <time>2016-01-22T10:44:06Z</time>
      </trkpt>
      <trkpt lat="44.69591" lon="-0.05225">
        <ele>57.94</ele>
        <time>2016-01-22T10:44:31Z</time>
      </trkpt>
      <trkpt lat="44.69569" lon="-0.05239">
        <ele>58.92</ele>
        <time>2016-01-22T10:44:38Z</time>
      </trkpt>
      <trkpt lat="44.69479" lon="-0.05342">
        <ele>65.32</ele>
        <time>2016-01-22T10:45:11Z</time>
      </trkpt>
      <trkpt lat="44.69454" lon="-0.05373">
        <ele>64.84</ele>
        <time>2016-01-22T10:45:21Z</time>
      </trkpt>
      <trkpt lat="44.69402" lon="-0.05507">
        <ele>61.28</ele>
        <time>2016-01-22T10:45:52Z</time>
      </trkpt>
      <trkpt lat="44.69384" lon="-0.05584">
        <ele>62.81</ele>
        <time>2016-01-22T10:46:08Z</time>
      </trkpt>
      <trkpt lat="44.69362" lon="-0.05782">
        <ele>74.34</ele>
        <time>2016-01-22T10:46:49Z</time>
      </trkpt>
      <trkpt lat="44.69345" lon="-0.05847">
        <ele>77.28</ele>
        <time>2016-01-22T10:47:03Z</time>
      </trkpt>
      <trkpt lat="44.6931" lon="-0.0593">
        <ele>77.99</ele>
        <time>2016-01-22T10:47:23Z</time>
      </trkpt>
      <trkpt lat="44.69199" lon="-0.06143">
        <ele>65.12</ele>
        <time>2016-01-22T10:48:17Z</time>
      </trkpt>
      <trkpt lat="44.69047" lon="-0.0628">
        <ele>62.89</ele>
        <time>2016-01-22T10:49:09Z</time>
      </trkpt>
      <trkpt lat="44.69143" lon="-0.06522">
        <ele>61.69</ele>
        <time>2016-01-22T10:50:05Z</time>
      </trkpt>
      <trkpt lat="44.69174" lon="-0.06694">
        <ele>60.46</ele>
        <time>2016-01-22T10:50:41Z</time>
      </trkpt>
      <trkpt lat="44.69178" lon="-0.06848">
        <ele>60.26</ele>
        <time>2016-01-22T10:51:13Z</time>
      </trkpt>
      <trkpt lat="44.69124" lon="-0.06855">
        <ele>64.18</ele>
        <time>2016-01-22T10:51:28Z</time>
      </trkpt>
      <trkpt lat="44.69081" lon="-0.06892">
        <ele>66.43</ele>
        <time>2016-01-22T10:51:42Z</time>
      </trkpt>
      <trkpt lat="44.69054" lon="-0.06933">
        <ele>67.38</ele>
        <time>2016-01-22T10:51:54Z</time>
      </trkpt>
      <trkpt lat="44.69037" lon="-0.06986">
        <ele>66.6</ele>
        <time>2016-01-22T10:52:06Z</time>
      </trkpt>
      <trkpt lat="44.68863" lon="-0.07163">
        <ele>64.38</ele>
        <time>2016-01-22T10:53:07Z</time>
      </trkpt>
      <trkpt lat="44.68764" lon="-0.07246">
        <ele>63.18</ele>
        <time>2016-01-22T10:53:40Z</time>
      </trkpt>
      <trkpt lat="44.68796" lon="-0.07372">
        <ele>58.33</ele>
        <time>2016-01-22T10:54:07Z</time>
      </trkpt>
      <trkpt lat="44.68757" lon="-0.07412">
        <ele>57.06</ele>
        <time>2016-01-22T10:54:21Z</time>
      </trkpt>
      <trkpt lat="44.68721" lon="-0.07439">
        <ele>55.41</ele>
        <time>2016-01-22T10:54:33Z</time>
      </trkpt>
      <trkpt lat="44.68663" lon="-0.07474">
        <ele>53.09</ele>
        <time>2016-01-22T10:54:51Z</time>
      </trkpt>
      <trkpt lat="44.68609" lon="-0.07497">
        <ele>50.01</ele>
        <time>2016-01-22T10:55:07Z</time>
      </trkpt>
      <trkpt lat="44.68533" lon="-0.07501">
        <ele>50.21</ele>
        <time>2016-01-22T10:55:29Z</time>
      </trkpt>
      <trkpt lat="44.68507" lon="-0.07516">
        <ele>50.97</ele>
        <time>2016-01-22T10:55:37Z</time>
      </trkpt>
      <trkpt lat="44.68476" lon="-0.07557">
        <ele>52.26</ele>
        <time>2016-01-22T10:55:49Z</time>
      </trkpt>
      <trkpt lat="44.6844" lon="-0.07589">
        <ele>53.41</ele>
        <time>2016-01-22T10:56:01Z</time>
      </trkpt>
      <trkpt lat="44.68381" lon="-0.07622">
        <ele>56.19</ele>
        <time>2016-01-22T10:56:19Z</time>
      </trkpt>
      <trkpt lat="44.68426" lon="-0.07803">
        <ele>46.67</ele>
        <time>2016-01-22T10:56:58Z</time>
      </trkpt>
      <trkpt lat="44.68458" lon="-0.07877">
        <ele>46.49</ele>
        <time>2016-01-22T10:57:16Z</time>
      </trkpt>
      <trkpt lat="44.685" lon="-0.07947">
        <ele>48.37</ele>
        <time>2016-01-22T10:57:35Z</time>
      </trkpt>
      <trkpt lat="44.68595" lon="-0.08039">
        <ele>52.84</ele>
        <time>2016-01-22T10:58:08Z</time>
      </trkpt>
      <trkpt lat="44.6868" lon="-0.08171">
        <ele>56.8</ele>
        <time>2016-01-22T10:58:44Z</time>
      </trkpt>
      <trkpt lat="44.68644" lon="-0.08245">
        <ele>50.5</ele>
        <time>2016-01-22T10:59:03Z</time>
      </trkpt>
      <trkpt lat="44.68689" lon="-0.08299">
        <ele>51.9</ele>
        <time>2016-01-22T10:59:19Z</time>
      </trkpt>
      <trkpt lat="44.68734" lon="-0.08335">
        <ele>51.4</ele>
        <time>2016-01-22T10:59:34Z</time>
      </trkpt>
      <trkpt lat="44.68774" lon="-0.08376">
        <ele>50.1</ele>
        <time>2016-01-22T10:59:49Z</time>
      </trkpt>
      <trkpt lat="44.68819" lon="-0.08436">
        <ele>50.7</ele>
        <time>2016-01-22T11:00:06Z</time>
      </trkpt>
      <trkpt lat="44.68926" lon="-0.08572">
        <ele>52.9</ele>
        <time>2016-01-22T11:00:48Z</time>
      </trkpt>
      <trkpt lat="44.68953" lon="-0.08612">
        <ele>53.6</ele>
        <time>2016-01-22T11:00:59Z</time>
      </trkpt>
      <trkpt lat="44.68981" lon="-0.08669">
        <ele>53.5</ele>
        <time>2016-01-22T11:01:13Z</time>
      </trkpt>
      <trkpt lat="44.69027" lon="-0.08778">
        <ele>54.9</ele>
        <time>2016-01-22T11:01:39Z</time>
      </trkpt>
      <trkpt lat="44.69037" lon="-0.08849">
        <ele>56.1</ele>
        <time>2016-01-22T11:01:53Z</time>
      </trkpt>
      <trkpt lat="44.69046" lon="-0.0886">
        <ele>56.6</ele>
        <time>2016-01-22T11:01:57Z</time>
      </trkpt>
      <trkpt lat="44.69048" lon="-0.08903">
        <ele>55.2</ele>
        <time>2016-01-22T11:02:06Z</time>
      </trkpt>
      <trkpt lat="44.6905" lon="-0.09222">
        <ele>62.2</ele>
        <time>2016-01-22T11:03:11Z</time>
      </trkpt>
      <trkpt lat="44.6905" lon="-0.09292">
        <ele>62.4</ele>
        <time>2016-01-22T11:03:25Z</time>
      </trkpt>
      <trkpt lat="44.69045" lon="-0.09363">
        <ele>61</ele>
        <time>2016-01-22T11:03:39Z</time>
      </trkpt>
      <trkpt lat="44.6896" lon="-0.0979">
        <ele>69.2</ele>
        <time>2016-01-22T11:05:10Z</time>
      </trkpt>
      <trkpt lat="44.68931" lon="-0.09925">
        <ele>71.5</ele>
        <time>2016-01-22T11:05:38Z</time>
      </trkpt>
      <trkpt lat="44.68918" lon="-0.09987">
        <ele>71.6</ele>
        <time>2016-01-22T11:05:52Z</time>
      </trkpt>
      <trkpt lat="44.68904" lon="-0.10028">
        <ele>73.5</ele>
        <time>2016-01-22T11:06:01Z</time>
      </trkpt>
      <trkpt lat="44.68884" lon="-0.10072">
        <ele>73.8</ele>
        <time>2016-01-22T11:06:12Z</time>
      </trkpt>
      <trkpt lat="44.68864" lon="-0.10108">
        <ele>74.4</ele>
        <time>2016-01-22T11:06:21Z</time>
      </trkpt>
      <trkpt lat="44.68831" lon="-0.10151">
        <ele>76.7</ele>
        <time>2016-01-22T11:06:34Z</time>
      </trkpt>
      <trkpt lat="44.6879" lon="-0.10189">
        <ele>77.7</ele>
        <time>2016-01-22T11:06:48Z</time>
      </trkpt>
      <trkpt lat="44.68744" lon="-0.10216">
        <ele>78.9</ele>
        <time>2016-01-22T11:07:02Z</time>
      </trkpt>
      <trkpt lat="44.68643" lon="-0.10274">
        <ele>78.7</ele>
        <time>2016-01-22T11:07:33Z</time>
      </trkpt>
      <trkpt lat="44.6861" lon="-0.10297">
        <ele>79</ele>
        <time>2016-01-22T11:07:44Z</time>
      </trkpt>
      <trkpt lat="44.68589" lon="-0.10317">
        <ele>79.2</ele>
        <time>2016-01-22T11:07:51Z</time>
      </trkpt>
      <trkpt lat="44.68544" lon="-0.10382">
        <ele>78.6</ele>
        <time>2016-01-22T11:08:10Z</time>
      </trkpt>
      <trkpt lat="44.6852" lon="-0.1043">
        <ele>79</ele>
        <time>2016-01-22T11:08:21Z</time>
      </trkpt>
      <trkpt lat="44.68503" lon="-0.10481">
        <ele>80.2</ele>
        <time>2016-01-22T11:08:33Z</time>
      </trkpt>
      <trkpt lat="44.68493" lon="-0.10529">
        <ele>82.1</ele>
        <time>2016-01-22T11:08:43Z</time>
      </trkpt>
      <trkpt lat="44.68488" lon="-0.1056">
        <ele>83.2</ele>
        <time>2016-01-22T11:08:50Z</time>
      </trkpt>
      <trkpt lat="44.68484" lon="-0.10773">
        <ele>88.4</ele>
        <time>2016-01-22T11:09:33Z</time>
      </trkpt>
      <trkpt lat="44.68484" lon="-0.10971">
        <ele>85.8</ele>
        <time>2016-01-22T11:10:13Z</time>
      </trkpt>
      <trkpt lat="44.68484" lon="-0.1111">
        <ele>83.4</ele>
        <time>2016-01-22T11:10:42Z</time>
      </trkpt>
      <trkpt lat="44.68483" lon="-0.11268">
        <ele>84</ele>
        <time>2016-01-22T11:11:14Z</time>
      </trkpt>
      <trkpt lat="44.6848" lon="-0.11279">
        <ele>84</ele>
        <time>2016-01-22T11:11:16Z</time>
      </trkpt>
    </trkseg>
  </trk>
  <trk>
    <name><![CDATA[randogps33-497]]></name>
    <extensions>
      <line xmlns="http://www.topografix.com/GPX/gpx_style/0/2">
        <color>FFFF00</color>
        <width>4</width>
      </line>
    </extensions>
    <trkseg>
      <trkpt lat="44.77873" lon="-0.12471">
        <ele>70</ele>
        <time>2016-11-24T11:24:04Z</time>
      </trkpt>
      <trkpt lat="44.77789" lon="-0.12532">
        <ele>69</ele>
        <time>2016-11-24T11:26:04Z</time>
      </trkpt>
      <trkpt lat="44.77795" lon="-0.12564">
        <ele>68</ele>
        <time>2016-11-24T11:28:04Z</time>
      </trkpt>
      <trkpt lat="44.77803" lon="-0.12584">
        <ele>67</ele>
        <time>2016-11-24T11:30:04Z</time>
      </trkpt>
      <trkpt lat="44.77815" lon="-0.126">
        <ele>66</ele>
        <time>2016-11-24T11:32:04Z</time>
      </trkpt>
      <trkpt lat="44.77835" lon="-0.12616">
        <ele>65</ele>
        <time>2016-11-24T11:34:04Z</time>
      </trkpt>
      <trkpt lat="44.77847" lon="-0.12665">
        <ele>64</ele>
        <time>2016-11-24T11:36:04Z</time>
      </trkpt>
      <trkpt lat="44.77831" lon="-0.12672">
        <ele>64</ele>
        <time>2016-11-24T11:38:04Z</time>
      </trkpt>
      <trkpt lat="44.7784" lon="-0.12695">
        <ele>62</ele>
        <time>2016-11-24T11:40:04Z</time>
      </trkpt>
      <trkpt lat="44.77872" lon="-0.127">
        <ele>62</ele>
        <time>2016-11-24T11:42:04Z</time>
      </trkpt>
      <trkpt lat="44.77881" lon="-0.1276">
        <ele>58</ele>
        <time>2016-11-24T11:44:04Z</time>
      </trkpt>
      <trkpt lat="44.77859" lon="-0.12807">
        <ele>56</ele>
        <time>2016-11-24T11:46:04Z</time>
      </trkpt>
      <trkpt lat="44.7787" lon="-0.12846">
        <ele>56</ele>
        <time>2016-11-24T11:48:04Z</time>
      </trkpt>
      <trkpt lat="44.77899" lon="-0.12902">
        <ele>59</ele>
        <time>2016-11-24T11:50:04Z</time>
      </trkpt>
      <trkpt lat="44.77927" lon="-0.12897">
        <ele>59</ele>
        <time>2016-11-24T11:52:04Z</time>
      </trkpt>
      <trkpt lat="44.77945" lon="-0.12918">
        <ele>61</ele>
        <time>2016-11-24T11:54:04Z</time>
      </trkpt>
      <trkpt lat="44.77961" lon="-0.12918">
        <ele>62</ele>
        <time>2016-11-24T11:56:04Z</time>
      </trkpt>
      <trkpt lat="44.77997" lon="-0.12989">
        <ele>68</ele>
        <time>2016-11-24T11:58:04Z</time>
      </trkpt>
      <trkpt lat="44.78024" lon="-0.1309">
        <ele>73</ele>
        <time>2016-11-24T12:00:04Z</time>
      </trkpt>
      <trkpt lat="44.7808" lon="-0.13095">
        <ele>74</ele>
        <time>2016-11-24T12:02:04Z</time>
      </trkpt>
      <trkpt lat="44.78145" lon="-0.13077">
        <ele>73</ele>
        <time>2016-11-24T12:04:04Z</time>
      </trkpt>
      <trkpt lat="44.78179" lon="-0.13095">
        <ele>74</ele>
        <time>2016-11-24T12:06:04Z</time>
      </trkpt>
      <trkpt lat="44.78229" lon="-0.13136">
        <ele>77</ele>
        <time>2016-11-24T12:08:04Z</time>
      </trkpt>
      <trkpt lat="44.78308" lon="-0.13166">
        <ele>78</ele>
        <time>2016-11-24T12:10:04Z</time>
      </trkpt>
      <trkpt lat="44.78361" lon="-0.13205">
        <ele>79</ele>
        <time>2016-11-24T12:12:04Z</time>
      </trkpt>
      <trkpt lat="44.7843" lon="-0.13287">
        <ele>81</ele>
        <time>2016-11-24T12:14:04Z</time>
      </trkpt>
      <trkpt lat="44.78483" lon="-0.13336">
        <ele>81</ele>
        <time>2016-11-24T12:16:04Z</time>
      </trkpt>
      <trkpt lat="44.78543" lon="-0.13394">
        <ele>80</ele>
        <time>2016-11-24T12:18:04Z</time>
      </trkpt>
      <trkpt lat="44.78613" lon="-0.13437">
        <ele>79</ele>
        <time>2016-11-24T12:20:04Z</time>
      </trkpt>
      <trkpt lat="44.78651" lon="-0.13501">
        <ele>80</ele>
        <time>2016-11-24T12:22:04Z</time>
      </trkpt>
      <trkpt lat="44.78676" lon="-0.13572">
        <ele>79</ele>
        <time>2016-11-24T12:24:04Z</time>
      </trkpt>
      <trkpt lat="44.78687" lon="-0.13624">
        <ele>77</ele>
        <time>2016-11-24T12:26:04Z</time>
      </trkpt>
      <trkpt lat="44.78737" lon="-0.13699">
        <ele>76</ele>
        <time>2016-11-24T12:28:04Z</time>
      </trkpt>
      <trkpt lat="44.78781" lon="-0.13767">
        <ele>74</ele>
        <time>2016-11-24T12:30:04Z</time>
      </trkpt>
      <trkpt lat="44.78812" lon="-0.13883">
        <ele>72</ele>
        <time>2016-11-24T12:32:04Z</time>
      </trkpt>
      <trkpt lat="44.78825" lon="-0.13925">
        <ele>71</ele>
        <time>2016-11-24T12:34:04Z</time>
      </trkpt>
      <trkpt lat="44.78848" lon="-0.13953">
        <ele>70</ele>
        <time>2016-11-24T12:36:04Z</time>
      </trkpt>
      <trkpt lat="44.78959" lon="-0.14045">
        <ele>67</ele>
        <time>2016-11-24T12:38:04Z</time>
      </trkpt>
      <trkpt lat="44.78996" lon="-0.14085">
        <ele>68</ele>
        <time>2016-11-24T12:40:04Z</time>
      </trkpt>
      <trkpt lat="44.79076" lon="-0.14217">
        <ele>72</ele>
        <time>2016-11-24T12:42:04Z</time>
      </trkpt>
      <trkpt lat="44.79142" lon="-0.14304">
        <ele>73</ele>
        <time>2016-11-24T12:44:04Z</time>
      </trkpt>
      <trkpt lat="44.79329" lon="-0.14326">
        <ele>81</ele>
        <time>2016-11-24T12:46:04Z</time>
      </trkpt>
      <trkpt lat="44.79397" lon="-0.1436">
        <ele>77</ele>
        <time>2016-11-24T12:48:04Z</time>
      </trkpt>
      <trkpt lat="44.79456" lon="-0.14464">
        <ele>73</ele>
        <time>2016-11-24T12:50:04Z</time>
      </trkpt>
      <trkpt lat="44.79572" lon="-0.14779">
        <ele>68</ele>
        <time>2016-11-24T12:52:04Z</time>
      </trkpt>
      <trkpt lat="44.79601" lon="-0.14837">
        <ele>68</ele>
        <time>2016-11-24T12:54:04Z</time>
      </trkpt>
      <trkpt lat="44.79679" lon="-0.14948">
        <ele>69</ele>
        <time>2016-11-24T12:56:04Z</time>
      </trkpt>
      <trkpt lat="44.79775" lon="-0.15006">
        <ele>69</ele>
        <time>2016-11-24T12:58:04Z</time>
      </trkpt>
      <trkpt lat="44.79807" lon="-0.15002">
        <ele>68</ele>
        <time>2016-11-24T13:00:04Z</time>
      </trkpt>
      <trkpt lat="44.79845" lon="-0.15012">
        <ele>65</ele>
        <time>2016-11-24T13:02:04Z</time>
      </trkpt>
      <trkpt lat="44.79909" lon="-0.15021">
        <ele>56</ele>
        <time>2016-11-24T13:04:04Z</time>
      </trkpt>
      <trkpt lat="44.79952" lon="-0.15095">
        <ele>54</ele>
        <time>2016-11-24T13:06:04Z</time>
      </trkpt>
      <trkpt lat="44.79986" lon="-0.15138">
        <ele>52</ele>
        <time>2016-11-24T13:08:04Z</time>
      </trkpt>
      <trkpt lat="44.80036" lon="-0.15147">
        <ele>43</ele>
        <time>2016-11-24T13:10:04Z</time>
      </trkpt>
      <trkpt lat="44.80117" lon="-0.15121">
        <ele>31</ele>
        <time>2016-11-24T13:12:04Z</time>
      </trkpt>
      <trkpt lat="44.80077" lon="-0.14989">
        <ele>34</ele>
        <time>2016-11-24T13:14:04Z</time>
      </trkpt>
      <trkpt lat="44.80062" lon="-0.14932">
        <ele>32</ele>
        <time>2016-11-24T13:16:04Z</time>
      </trkpt>
      <trkpt lat="44.80035" lon="-0.14844">
        <ele>30</ele>
        <time>2016-11-24T13:18:04Z</time>
      </trkpt>
      <trkpt lat="44.80012" lon="-0.14789">
        <ele>30</ele>
        <time>2016-11-24T13:20:04Z</time>
      </trkpt>
      <trkpt lat="44.7994" lon="-0.147">
        <ele>29</ele>
        <time>2016-11-24T13:22:04Z</time>
      </trkpt>
      <trkpt lat="44.79909" lon="-0.1465">
        <ele>29</ele>
        <time>2016-11-24T13:24:04Z</time>
      </trkpt>
      <trkpt lat="44.79874" lon="-0.14567">
        <ele>31</ele>
        <time>2016-11-24T13:26:04Z</time>
      </trkpt>
      <trkpt lat="44.79913" lon="-0.14537">
        <ele>28</ele>
        <time>2016-11-24T13:28:04Z</time>
      </trkpt>
      <trkpt lat="44.79929" lon="-0.14559">
        <ele>27</ele>
        <time>2016-11-24T13:30:04Z</time>
      </trkpt>
      <trkpt lat="44.79944" lon="-0.14574">
        <ele>27</ele>
        <time>2016-11-24T13:32:04Z</time>
      </trkpt>
      <trkpt lat="44.79956" lon="-0.14559">
        <ele>26</ele>
        <time>2016-11-24T13:34:04Z</time>
      </trkpt>
      <trkpt lat="44.79936" lon="-0.14497">
        <ele>26</ele>
        <time>2016-11-24T13:36:04Z</time>
      </trkpt>
      <trkpt lat="44.79917" lon="-0.14495">
        <ele>27</ele>
        <time>2016-11-24T13:38:04Z</time>
      </trkpt>
      <trkpt lat="44.79903" lon="-0.14458">
        <ele>26</ele>
        <time>2016-11-24T13:40:04Z</time>
      </trkpt>
      <trkpt lat="44.79842" lon="-0.14479">
        <ele>30</ele>
        <time>2016-11-24T13:42:04Z</time>
      </trkpt>
      <trkpt lat="44.79809" lon="-0.14436">
        <ele>31</ele>
        <time>2016-11-24T13:44:04Z</time>
      </trkpt>
      <trkpt lat="44.79805" lon="-0.14397">
        <ele>31</ele>
        <time>2016-11-24T13:46:04Z</time>
      </trkpt>
      <trkpt lat="44.79776" lon="-0.14322">
        <ele>33</ele>
        <time>2016-11-24T13:48:04Z</time>
      </trkpt>
      <trkpt lat="44.79747" lon="-0.1426">
        <ele>34</ele>
        <time>2016-11-24T13:50:04Z</time>
      </trkpt>
      <trkpt lat="44.79858" lon="-0.14166">
        <ele>19</ele>
        <time>2016-11-24T13:52:04Z</time>
      </trkpt>
      <trkpt lat="44.79776" lon="-0.14021">
        <ele>21</ele>
        <time>2016-11-24T13:54:04Z</time>
      </trkpt>
      <trkpt lat="44.79753" lon="-0.13955">
        <ele>22</ele>
        <time>2016-11-24T13:56:04Z</time>
      </trkpt>
      <trkpt lat="44.79718" lon="-0.13836">
        <ele>24</ele>
        <time>2016-11-24T13:58:04Z</time>
      </trkpt>
      <trkpt lat="44.79689" lon="-0.13802">
        <ele>24</ele>
        <time>2016-11-24T14:00:04Z</time>
      </trkpt>
      <trkpt lat="44.79721" lon="-0.13749">
        <ele>21</ele>
        <time>2016-11-24T14:02:04Z</time>
      </trkpt>
      <trkpt lat="44.79726" lon="-0.1366">
        <ele>20</ele>
        <time>2016-11-24T14:04:04Z</time>
      </trkpt>
      <trkpt lat="44.79737" lon="-0.13632">
        <ele>21</ele>
        <time>2016-11-24T14:06:04Z</time>
      </trkpt>
      <trkpt lat="44.79726" lon="-0.13566">
        <ele>26</ele>
        <time>2016-11-24T14:08:04Z</time>
      </trkpt>
      <trkpt lat="44.79737" lon="-0.13542">
        <ele>30</ele>
        <time>2016-11-24T14:10:04Z</time>
      </trkpt>
      <trkpt lat="44.79762" lon="-0.1349">
        <ele>39</ele>
        <time>2016-11-24T14:12:04Z</time>
      </trkpt>
      <trkpt lat="44.79776" lon="-0.13468">
        <ele>44</ele>
        <time>2016-11-24T14:14:04Z</time>
      </trkpt>
      <trkpt lat="44.79793" lon="-0.13447">
        <ele>49</ele>
        <time>2016-11-24T14:16:04Z</time>
      </trkpt>
      <trkpt lat="44.7981" lon="-0.13427">
        <ele>54</ele>
        <time>2016-11-24T14:18:04Z</time>
      </trkpt>
      <trkpt lat="44.79808" lon="-0.13405">
        <ele>57</ele>
        <time>2016-11-24T14:20:04Z</time>
      </trkpt>
      <trkpt lat="44.79795" lon="-0.13394">
        <ele>57</ele>
        <time>2016-11-24T14:22:04Z</time>
      </trkpt>
      <trkpt lat="44.79797" lon="-0.13375">
        <ele>60</ele>
        <time>2016-11-24T14:24:04Z</time>
      </trkpt>
      <trkpt lat="44.79825" lon="-0.13377">
        <ele>62</ele>
        <time>2016-11-24T14:26:04Z</time>
      </trkpt>
      <trkpt lat="44.79853" lon="-0.13372">
        <ele>65</ele>
        <time>2016-11-24T14:28:04Z</time>
      </trkpt>
      <trkpt lat="44.79813" lon="-0.13357">
        <ele>64</ele>
        <time>2016-11-24T14:30:04Z</time>
      </trkpt>
      <trkpt lat="44.79788" lon="-0.13328">
        <ele>65</ele>
        <time>2016-11-24T14:32:04Z</time>
      </trkpt>
      <trkpt lat="44.79751" lon="-0.13291">
        <ele>64</ele>
        <time>2016-11-24T14:34:04Z</time>
      </trkpt>
      <trkpt lat="44.79753" lon="-0.13261">
        <ele>66</ele>
        <time>2016-11-24T14:36:04Z</time>
      </trkpt>
      <trkpt lat="44.79777" lon="-0.13232">
        <ele>69</ele>
        <time>2016-11-24T14:38:04Z</time>
      </trkpt>
      <trkpt lat="44.79712" lon="-0.13083">
        <ele>65</ele>
        <time>2016-11-24T14:40:04Z</time>
      </trkpt>
      <trkpt lat="44.79727" lon="-0.13043">
        <ele>66</ele>
        <time>2016-11-24T14:42:04Z</time>
      </trkpt>
      <trkpt lat="44.79743" lon="-0.12997">
        <ele>68</ele>
        <time>2016-11-24T14:44:04Z</time>
      </trkpt>
      <trkpt lat="44.79756" lon="-0.12968">
        <ele>69</ele>
        <time>2016-11-24T14:46:04Z</time>
      </trkpt>
      <trkpt lat="44.79744" lon="-0.12928">
        <ele>68</ele>
        <time>2016-11-24T14:48:04Z</time>
      </trkpt>
      <trkpt lat="44.79837" lon="-0.12814">
        <ele>76</ele>
        <time>2016-11-24T14:50:04Z</time>
      </trkpt>
      <trkpt lat="44.79801" lon="-0.12785">
        <ele>76</ele>
        <time>2016-11-24T14:52:04Z</time>
      </trkpt>
      <trkpt lat="44.79733" lon="-0.12774">
        <ele>75</ele>
        <time>2016-11-24T14:54:04Z</time>
      </trkpt>
      <trkpt lat="44.79612" lon="-0.12759">
        <ele>75</ele>
        <time>2016-11-24T14:56:04Z</time>
      </trkpt>
      <trkpt lat="44.79568" lon="-0.12741">
        <ele>76</ele>
        <time>2016-11-24T14:58:04Z</time>
      </trkpt>
      <trkpt lat="44.79699" lon="-0.12473">
        <ele>82</ele>
        <time>2016-11-24T15:00:04Z</time>
      </trkpt>
      <trkpt lat="44.79391" lon="-0.12174">
        <ele>81</ele>
        <time>2016-11-24T15:02:04Z</time>
      </trkpt>
      <trkpt lat="44.79424" lon="-0.12129">
        <ele>82</ele>
        <time>2016-11-24T15:04:04Z</time>
      </trkpt>
      <trkpt lat="44.79394" lon="-0.12083">
        <ele>82</ele>
        <time>2016-11-24T15:06:04Z</time>
      </trkpt>
      <trkpt lat="44.79347" lon="-0.11973">
        <ele>79</ele>
        <time>2016-11-24T15:08:04Z</time>
      </trkpt>
      <trkpt lat="44.7928" lon="-0.11806">
        <ele>80</ele>
        <time>2016-11-24T15:10:04Z</time>
      </trkpt>
      <trkpt lat="44.79262" lon="-0.11761">
        <ele>80</ele>
        <time>2016-11-24T15:12:04Z</time>
      </trkpt>
      <trkpt lat="44.79255" lon="-0.11709">
        <ele>81</ele>
        <time>2016-11-24T15:14:04Z</time>
      </trkpt>
      <trkpt lat="44.79248" lon="-0.11577">
        <ele>82</ele>
        <time>2016-11-24T15:16:04Z</time>
      </trkpt>
      <trkpt lat="44.79233" lon="-0.11487">
        <ele>81</ele>
        <time>2016-11-24T15:18:04Z</time>
      </trkpt>
      <trkpt lat="44.79226" lon="-0.11454">
        <ele>80</ele>
        <time>2016-11-24T15:20:04Z</time>
      </trkpt>
      <trkpt lat="44.79154" lon="-0.112">
        <ele>79</ele>
        <time>2016-11-24T15:22:04Z</time>
      </trkpt>
      <trkpt lat="44.79127" lon="-0.11079">
        <ele>80</ele>
        <time>2016-11-24T15:24:04Z</time>
      </trkpt>
      <trkpt lat="44.79107" lon="-0.10878">
        <ele>74</ele>
        <time>2016-11-24T15:26:04Z</time>
      </trkpt>
      <trkpt lat="44.7909" lon="-0.10729">
        <ele>68</ele>
        <time>2016-11-24T15:28:04Z</time>
      </trkpt>
      <trkpt lat="44.79075" lon="-0.10652">
        <ele>67</ele>
        <time>2016-11-24T15:30:04Z</time>
      </trkpt>
      <trkpt lat="44.79083" lon="-0.10616">
        <ele>66</ele>
        <time>2016-11-24T15:32:04Z</time>
      </trkpt>
      <trkpt lat="44.78985" lon="-0.10507">
        <ele>66</ele>
        <time>2016-11-24T15:34:04Z</time>
      </trkpt>
      <trkpt lat="44.78846" lon="-0.10174">
        <ele>66</ele>
        <time>2016-11-24T15:36:04Z</time>
      </trkpt>
      <trkpt lat="44.78734" lon="-0.09887">
        <ele>73</ele>
        <time>2016-11-24T15:38:04Z</time>
      </trkpt>
      <trkpt lat="44.7865" lon="-0.09931">
        <ele>73</ele>
        <time>2016-11-24T15:40:04Z</time>
      </trkpt>
      <trkpt lat="44.78575" lon="-0.09977">
        <ele>74</ele>
        <time>2016-11-24T15:42:04Z</time>
      </trkpt>
      <trkpt lat="44.78513" lon="-0.09753">
        <ele>76</ele>
        <time>2016-11-24T15:44:04Z</time>
      </trkpt>
      <trkpt lat="44.78516" lon="-0.09718">
        <ele>77</ele>
        <time>2016-11-24T15:46:04Z</time>
      </trkpt>
      <trkpt lat="44.78496" lon="-0.09694">
        <ele>78</ele>
        <time>2016-11-24T15:48:04Z</time>
      </trkpt>
      <trkpt lat="44.7846" lon="-0.09504">
        <ele>81</ele>
        <time>2016-11-24T15:50:04Z</time>
      </trkpt>
      <trkpt lat="44.78396" lon="-0.09531">
        <ele>86</ele>
        <time>2016-11-24T15:52:04Z</time>
      </trkpt>
      <trkpt lat="44.78397" lon="-0.09586">
        <ele>84</ele>
        <time>2016-11-24T15:54:04Z</time>
      </trkpt>
      <trkpt lat="44.78167" lon="-0.09603">
        <ele>90</ele>
        <time>2016-11-24T15:56:04Z</time>
      </trkpt>
      <trkpt lat="44.7814" lon="-0.09458">
        <ele>91</ele>
        <time>2016-11-24T15:58:04Z</time>
      </trkpt>
      <trkpt lat="44.78044" lon="-0.09465">
        <ele>93</ele>
        <time>2016-11-24T16:00:04Z</time>
      </trkpt>
      <trkpt lat="44.77935" lon="-0.09486">
        <ele>94</ele>
        <time>2016-11-24T16:02:04Z</time>
      </trkpt>
      <trkpt lat="44.77819" lon="-0.09511">
        <ele>94</ele>
        <time>2016-11-24T16:04:04Z</time>
      </trkpt>
      <trkpt lat="44.77644" lon="-0.09542">
        <ele>93</ele>
        <time>2016-11-24T16:06:04Z</time>
      </trkpt>
      <trkpt lat="44.77606" lon="-0.09564">
        <ele>92</ele>
        <time>2016-11-24T16:08:04Z</time>
      </trkpt>
      <trkpt lat="44.77511" lon="-0.09588">
        <ele>90</ele>
        <time>2016-11-24T16:10:04Z</time>
      </trkpt>
      <trkpt lat="44.77473" lon="-0.09607">
        <ele>90</ele>
        <time>2016-11-24T16:12:04Z</time>
      </trkpt>
      <trkpt lat="44.77429" lon="-0.09614">
        <ele>91</ele>
        <time>2016-11-24T16:14:04Z</time>
      </trkpt>
      <trkpt lat="44.77415" lon="-0.09576">
        <ele>92</ele>
        <time>2016-11-24T16:16:04Z</time>
      </trkpt>
      <trkpt lat="44.77405" lon="-0.09513">
        <ele>94</ele>
        <time>2016-11-24T16:18:04Z</time>
      </trkpt>
      <trkpt lat="44.77397" lon="-0.09503">
        <ele>94</ele>
        <time>2016-11-24T16:20:04Z</time>
      </trkpt>
      <trkpt lat="44.77366" lon="-0.09511">
        <ele>94</ele>
        <time>2016-11-24T16:22:04Z</time>
      </trkpt>
      <trkpt lat="44.7726" lon="-0.0958">
        <ele>93</ele>
        <time>2016-11-24T16:24:04Z</time>
      </trkpt>
      <trkpt lat="44.77219" lon="-0.09603">
        <ele>93</ele>
        <time>2016-11-24T16:26:04Z</time>
      </trkpt>
      <trkpt lat="44.77116" lon="-0.0967">
        <ele>95</ele>
        <time>2016-11-24T16:28:04Z</time>
      </trkpt>
      <trkpt lat="44.77017" lon="-0.09738">
        <ele>97</ele>
        <time>2016-11-24T16:30:04Z</time>
      </trkpt>
      <trkpt lat="44.76879" lon="-0.09805">
        <ele>102</ele>
        <time>2016-11-24T16:32:04Z</time>
      </trkpt>
      <trkpt lat="44.76892" lon="-0.09865">
        <ele>104</ele>
        <time>2016-11-24T16:34:04Z</time>
      </trkpt>
      <trkpt lat="44.76835" lon="-0.09899">
        <ele>105</ele>
        <time>2016-11-24T16:36:04Z</time>
      </trkpt>
      <trkpt lat="44.76782" lon="-0.09949">
        <ele>102</ele>
        <time>2016-11-24T16:38:04Z</time>
      </trkpt>
      <trkpt lat="44.76726" lon="-0.09991">
        <ele>97</ele>
        <time>2016-11-24T16:40:04Z</time>
      </trkpt>
      <trkpt lat="44.76696" lon="-0.10049">
        <ele>93</ele>
        <time>2016-11-24T16:42:04Z</time>
      </trkpt>
      <trkpt lat="44.76681" lon="-0.10055">
        <ele>92</ele>
        <time>2016-11-24T16:44:04Z</time>
      </trkpt>
      <trkpt lat="44.76664" lon="-0.10016">
        <ele>92</ele>
        <time>2016-11-24T16:46:04Z</time>
      </trkpt>
      <trkpt lat="44.76645" lon="-0.09996">
        <ele>91</ele>
        <time>2016-11-24T16:48:04Z</time>
      </trkpt>
      <trkpt lat="44.76562" lon="-0.10024">
        <ele>85</ele>
        <time>2016-11-24T16:50:04Z</time>
      </trkpt>
      <trkpt lat="44.76487" lon="-0.1008">
        <ele>80</ele>
        <time>2016-11-24T16:52:04Z</time>
      </trkpt>
      <trkpt lat="44.76374" lon="-0.10127">
        <ele>75</ele>
        <time>2016-11-24T16:54:04Z</time>
      </trkpt>
      <trkpt lat="44.76359" lon="-0.10121">
        <ele>75</ele>
        <time>2016-11-24T16:56:04Z</time>
      </trkpt>
      <trkpt lat="44.76325" lon="-0.10123">
        <ele>74</ele>
        <time>2016-11-24T16:58:04Z</time>
      </trkpt>
      <trkpt lat="44.76262" lon="-0.10164">
        <ele>72</ele>
        <time>2016-11-24T17:00:04Z</time>
      </trkpt>
      <trkpt lat="44.76224" lon="-0.10212">
        <ele>76</ele>
        <time>2016-11-24T17:02:04Z</time>
      </trkpt>
      <trkpt lat="44.76225" lon="-0.10241">
        <ele>77</ele>
        <time>2016-11-24T17:04:04Z</time>
      </trkpt>
      <trkpt lat="44.76245" lon="-0.10265">
        <ele>78</ele>
        <time>2016-11-24T17:06:04Z</time>
      </trkpt>
      <trkpt lat="44.76277" lon="-0.10267">
        <ele>77</ele>
        <time>2016-11-24T17:08:04Z</time>
      </trkpt>
      <trkpt lat="44.76293" lon="-0.10275">
        <ele>76</ele>
        <time>2016-11-24T17:10:04Z</time>
      </trkpt>
      <trkpt lat="44.76303" lon="-0.10299">
        <ele>76</ele>
        <time>2016-11-24T17:12:04Z</time>
      </trkpt>
      <trkpt lat="44.76297" lon="-0.10313">
        <ele>76</ele>
        <time>2016-11-24T17:14:04Z</time>
      </trkpt>
      <trkpt lat="44.76265" lon="-0.10317">
        <ele>77</ele>
        <time>2016-11-24T17:16:04Z</time>
      </trkpt>
      <trkpt lat="44.76249" lon="-0.1038">
        <ele>76</ele>
        <time>2016-11-24T17:18:04Z</time>
      </trkpt>
      <trkpt lat="44.76479" lon="-0.10536">
        <ele>85</ele>
        <time>2016-11-24T17:20:04Z</time>
      </trkpt>
      <trkpt lat="44.76525" lon="-0.10531">
        <ele>87</ele>
        <time>2016-11-24T17:22:04Z</time>
      </trkpt>
      <trkpt lat="44.76607" lon="-0.10567">
        <ele>90</ele>
        <time>2016-11-24T17:24:04Z</time>
      </trkpt>
      <trkpt lat="44.76717" lon="-0.10716">
        <ele>97</ele>
        <time>2016-11-24T17:26:04Z</time>
      </trkpt>
      <trkpt lat="44.76719" lon="-0.10738">
        <ele>97</ele>
        <time>2016-11-24T17:28:04Z</time>
      </trkpt>
      <trkpt lat="44.767" lon="-0.10836">
        <ele>99</ele>
        <time>2016-11-24T17:30:04Z</time>
      </trkpt>
      <trkpt lat="44.76691" lon="-0.10891">
        <ele>98</ele>
        <time>2016-11-24T17:32:04Z</time>
      </trkpt>
      <trkpt lat="44.76689" lon="-0.1116">
        <ele>96</ele>
        <time>2016-11-24T17:34:04Z</time>
      </trkpt>
      <trkpt lat="44.76689" lon="-0.11377">
        <ele>95</ele>
        <time>2016-11-24T17:36:04Z</time>
      </trkpt>
      <trkpt lat="44.76722" lon="-0.11454">
        <ele>94</ele>
        <time>2016-11-24T17:38:04Z</time>
      </trkpt>
      <trkpt lat="44.76758" lon="-0.11595">
        <ele>89</ele>
        <time>2016-11-24T17:40:04Z</time>
      </trkpt>
      <trkpt lat="44.76774" lon="-0.11634">
        <ele>88</ele>
        <time>2016-11-24T17:42:04Z</time>
      </trkpt>
      <trkpt lat="44.76945" lon="-0.11889">
        <ele>81</ele>
        <time>2016-11-24T17:44:04Z</time>
      </trkpt>
      <trkpt lat="44.77066" lon="-0.11846">
        <ele>80</ele>
        <time>2016-11-24T17:46:04Z</time>
      </trkpt>
      <trkpt lat="44.77233" lon="-0.11774">
        <ele>81</ele>
        <time>2016-11-24T17:48:04Z</time>
      </trkpt>
      <trkpt lat="44.77351" lon="-0.11713">
        <ele>81</ele>
        <time>2016-11-24T17:50:04Z</time>
      </trkpt>
      <trkpt lat="44.77447" lon="-0.11768">
        <ele>80</ele>
        <time>2016-11-24T17:52:04Z</time>
      </trkpt>
      <trkpt lat="44.77496" lon="-0.11786">
        <ele>81</ele>
        <time>2016-11-24T17:54:04Z</time>
      </trkpt>
      <trkpt lat="44.77538" lon="-0.11923">
        <ele>80</ele>
        <time>2016-11-24T17:56:04Z</time>
      </trkpt>
      <trkpt lat="44.77573" lon="-0.11967">
        <ele>79</ele>
        <time>2016-11-24T17:58:04Z</time>
      </trkpt>
      <trkpt lat="44.77585" lon="-0.11995">
        <ele>79</ele>
        <time>2016-11-24T18:00:04Z</time>
      </trkpt>
      <trkpt lat="44.77601" lon="-0.12095">
        <ele>77</ele>
        <time>2016-11-24T18:02:04Z</time>
      </trkpt>
      <trkpt lat="44.77653" lon="-0.12261">
        <ele>75</ele>
        <time>2016-11-24T18:04:04Z</time>
      </trkpt>
      <trkpt lat="44.77674" lon="-0.1232">
        <ele>73</ele>
        <time>2016-11-24T18:06:04Z</time>
      </trkpt>
      <trkpt lat="44.77734" lon="-0.12449">
        <ele>70</ele>
        <time>2016-11-24T18:08:04Z</time>
      </trkpt>
      <trkpt lat="44.77767" lon="-0.12529">
        <ele>69</ele>
        <time>2016-11-24T18:10:04Z</time>
      </trkpt>
      <trkpt lat="44.7778" lon="-0.12535">
        <ele>69</ele>
        <time>2016-11-24T18:12:04Z</time>
      </trkpt>
      <trkpt lat="44.7779" lon="-0.12557">
        <ele>68</ele>
        <time>2016-11-24T18:14:04Z</time>
      </trkpt>
      <trkpt lat="44.7782" lon="-0.12533">
        <ele>69</ele>
        <time>2016-11-24T18:16:04Z</time>
      </trkpt>
      <trkpt lat="44.77822" lon="-0.12505">
        <ele>70</ele>
        <time>2016-11-24T18:18:04Z</time>
      </trkpt>
      <trkpt lat="44.77877" lon="-0.12468">
        <ele>70</ele>
        <time>2016-11-24T18:20:04Z</time>
      </trkpt>
    </trkseg>
  </trk>
  <trk>
    <name><![CDATA[Traces DPT 33_6]]></name>
    <extensions>
      <line xmlns="http://www.topografix.com/GPX/gpx_style/0/2">
        <color>FF00FF</color>
        <width>4</width>
      </line>
    </extensions>
    <trkseg>
      <trkpt lat="44.89359" lon="-0.15689">
        <ele>80.6</ele>
      </trkpt>
      <trkpt lat="44.89361" lon="-0.15689">
        <ele>80.8</ele>
      </trkpt>
      <trkpt lat="44.89362" lon="-0.15688">
        <ele>80.8</ele>
      </trkpt>
      <trkpt lat="44.89364" lon="-0.15689">
        <ele>80.9</ele>
      </trkpt>
      <trkpt lat="44.89365" lon="-0.1569">
        <ele>81</ele>
      </trkpt>
      <trkpt lat="44.89382" lon="-0.15705">
        <ele>80.6</ele>
      </trkpt>
      <trkpt lat="44.89387" lon="-0.1571">
        <ele>80.3</ele>
      </trkpt>
      <trkpt lat="44.89392" lon="-0.15716">
        <ele>79.8</ele>
      </trkpt>
      <trkpt lat="44.89396" lon="-0.15725">
        <ele>79.7</ele>
      </trkpt>
      <trkpt lat="44.89402" lon="-0.1574">
        <ele>80.9</ele>
      </trkpt>
      <trkpt lat="44.89429" lon="-0.15719">
        <ele>80.9</ele>
      </trkpt>
      <trkpt lat="44.89429" lon="-0.15719">
        <ele>80.9</ele>
      </trkpt>
      <trkpt lat="44.89452" lon="-0.15702">
        <ele>80.1</ele>
      </trkpt>
      <trkpt lat="44.89479" lon="-0.15679">
        <ele>77.8</ele>
      </trkpt>
      <trkpt lat="44.89499" lon="-0.1566">
        <ele>77</ele>
      </trkpt>
      <trkpt lat="44.89541" lon="-0.15622">
        <ele>75.4</ele>
      </trkpt>
      <trkpt lat="44.89565" lon="-0.15597">
        <ele>76.2</ele>
      </trkpt>
      <trkpt lat="44.89577" lon="-0.15582">
        <ele>76.2</ele>
      </trkpt>
      <trkpt lat="44.89583" lon="-0.15575">
        <ele>76</ele>
      </trkpt>
      <trkpt lat="44.89587" lon="-0.15566">
        <ele>76</ele>
      </trkpt>
      <trkpt lat="44.89589" lon="-0.15562">
        <ele>76</ele>
      </trkpt>
      <trkpt lat="44.89591" lon="-0.15564">
        <ele>75.9</ele>
      </trkpt>
      <trkpt lat="44.89593" lon="-0.15565">
        <ele>75.9</ele>
      </trkpt>
      <trkpt lat="44.89595" lon="-0.15565">
        <ele>75.9</ele>
      </trkpt>
      <trkpt lat="44.89598" lon="-0.15564">
        <ele>75.8</ele>
      </trkpt>
      <trkpt lat="44.89601" lon="-0.15563">
        <ele>75.8</ele>
      </trkpt>
      <trkpt lat="44.89603" lon="-0.15559">
        <ele>75.9</ele>
      </trkpt>
      <trkpt lat="44.89604" lon="-0.15554">
        <ele>76</ele>
      </trkpt>
      <trkpt lat="44.89604" lon="-0.15551">
        <ele>75.9</ele>
      </trkpt>
      <trkpt lat="44.89604" lon="-0.15548">
        <ele>75.9</ele>
      </trkpt>
      <trkpt lat="44.89603" lon="-0.15545">
        <ele>75.8</ele>
      </trkpt>
      <trkpt lat="44.89602" lon="-0.15543">
        <ele>75.8</ele>
      </trkpt>
      <trkpt lat="44.8961" lon="-0.1554">
        <ele>75.5</ele>
      </trkpt>
      <trkpt lat="44.89687" lon="-0.15533">
        <ele>72.3</ele>
      </trkpt>
      <trkpt lat="44.89716" lon="-0.15531">
        <ele>70.4</ele>
      </trkpt>
      <trkpt lat="44.89755" lon="-0.1553">
        <ele>68.8</ele>
      </trkpt>
      <trkpt lat="44.89774" lon="-0.1553">
        <ele>68.1</ele>
      </trkpt>
      <trkpt lat="44.89792" lon="-0.15528">
        <ele>68</ele>
      </trkpt>
      <trkpt lat="44.89813" lon="-0.15523">
        <ele>67.7</ele>
      </trkpt>
      <trkpt lat="44.89835" lon="-0.15515">
        <ele>67</ele>
      </trkpt>
      <trkpt lat="44.89862" lon="-0.15503">
        <ele>67</ele>
      </trkpt>
      <trkpt lat="44.8994" lon="-0.15463">
        <ele>65.1</ele>
      </trkpt>
      <trkpt lat="44.90087" lon="-0.15385">
        <ele>68.4</ele>
      </trkpt>
      <trkpt lat="44.90134" lon="-0.15412">
        <ele>70.8</ele>
      </trkpt>
      <trkpt lat="44.90157" lon="-0.1543">
        <ele>72.1</ele>
      </trkpt>
      <trkpt lat="44.90173" lon="-0.15444">
        <ele>73.7</ele>
      </trkpt>
      <trkpt lat="44.9021" lon="-0.15485">
        <ele>73.4</ele>
      </trkpt>
      <trkpt lat="44.90263" lon="-0.15543">
        <ele>71.6</ele>
      </trkpt>
      <trkpt lat="44.90269" lon="-0.15546">
        <ele>71.5</ele>
      </trkpt>
      <trkpt lat="44.90275" lon="-0.15548">
        <ele>71.5</ele>
      </trkpt>
      <trkpt lat="44.903" lon="-0.15549">
        <ele>70.9</ele>
      </trkpt>
      <trkpt lat="44.9031" lon="-0.15548">
        <ele>70.6</ele>
      </trkpt>
      <trkpt lat="44.9032" lon="-0.15546">
        <ele>70.1</ele>
      </trkpt>
      <trkpt lat="44.90349" lon="-0.15537">
        <ele>68.8</ele>
      </trkpt>
      <trkpt lat="44.90412" lon="-0.15516">
        <ele>67.2</ele>
      </trkpt>
      <trkpt lat="44.90446" lon="-0.15512">
        <ele>65.3</ele>
      </trkpt>
      <trkpt lat="44.90473" lon="-0.15512">
        <ele>63.4</ele>
      </trkpt>
      <trkpt lat="44.90531" lon="-0.15522">
        <ele>59.1</ele>
      </trkpt>
      <trkpt lat="44.90572" lon="-0.15527">
        <ele>56.8</ele>
      </trkpt>
      <trkpt lat="44.90622" lon="-0.15536">
        <ele>54.8</ele>
      </trkpt>
      <trkpt lat="44.90631" lon="-0.15537">
        <ele>54.4</ele>
      </trkpt>
      <trkpt lat="44.90638" lon="-0.15537">
        <ele>54</ele>
      </trkpt>
      <trkpt lat="44.90644" lon="-0.15537">
        <ele>53.8</ele>
      </trkpt>
      <trkpt lat="44.90651" lon="-0.15535">
        <ele>53.6</ele>
      </trkpt>
      <trkpt lat="44.90773" lon="-0.15484">
        <ele>49.5</ele>
      </trkpt>
      <trkpt lat="44.9086" lon="-0.15449">
        <ele>48</ele>
      </trkpt>
      <trkpt lat="44.90887" lon="-0.15437">
        <ele>47</ele>
      </trkpt>
      <trkpt lat="44.90919" lon="-0.15426">
        <ele>46.3</ele>
      </trkpt>
      <trkpt lat="44.90949" lon="-0.15418">
        <ele>46</ele>
      </trkpt>
      <trkpt lat="44.90971" lon="-0.15411">
        <ele>45.8</ele>
      </trkpt>
      <trkpt lat="44.90978" lon="-0.1541">
        <ele>45.6</ele>
      </trkpt>
      <trkpt lat="44.90977" lon="-0.15402">
        <ele>45.4</ele>
      </trkpt>
      <trkpt lat="44.90977" lon="-0.15402">
        <ele>45.4</ele>
      </trkpt>
      <trkpt lat="44.90966" lon="-0.15299">
        <ele>45.2</ele>
      </trkpt>
      <trkpt lat="44.90963" lon="-0.1528">
        <ele>45.3</ele>
      </trkpt>
      <trkpt lat="44.9096" lon="-0.15266">
        <ele>45.4</ele>
      </trkpt>
      <trkpt lat="44.90955" lon="-0.15253">
        <ele>45.6</ele>
      </trkpt>
      <trkpt lat="44.90947" lon="-0.15241">
        <ele>45.9</ele>
      </trkpt>
      <trkpt lat="44.90917" lon="-0.15202">
        <ele>46</ele>
      </trkpt>
      <trkpt lat="44.90911" lon="-0.15193">
        <ele>46</ele>
      </trkpt>
      <trkpt lat="44.90906" lon="-0.15183">
        <ele>46</ele>
      </trkpt>
      <trkpt lat="44.90903" lon="-0.15173">
        <ele>46</ele>
      </trkpt>
      <trkpt lat="44.90907" lon="-0.15171">
        <ele>46</ele>
      </trkpt>
      <trkpt lat="44.90913" lon="-0.15168">
        <ele>46</ele>
      </trkpt>
      <trkpt lat="44.90907" lon="-0.15171">
        <ele>46</ele>
      </trkpt>
      <trkpt lat="44.90903" lon="-0.15173">
        <ele>46</ele>
      </trkpt>
      <trkpt lat="44.90902" lon="-0.15169">
        <ele>46</ele>
      </trkpt>
      <trkpt lat="44.90893" lon="-0.15141">
        <ele>46</ele>
      </trkpt>
      <trkpt lat="44.90886" lon="-0.15112">
        <ele>46.1</ele>
      </trkpt>
      <trkpt lat="44.90882" lon="-0.15089">
        <ele>46.2</ele>
      </trkpt>
      <trkpt lat="44.90881" lon="-0.15078">
        <ele>46.3</ele>
      </trkpt>
      <trkpt lat="44.9088" lon="-0.1506">
        <ele>46.3</ele>
      </trkpt>
      <trkpt lat="44.90878" lon="-0.15034">
        <ele>46.1</ele>
      </trkpt>
      <trkpt lat="44.90878" lon="-0.15013">
        <ele>45.7</ele>
      </trkpt>
      <trkpt lat="44.90876" lon="-0.15001">
        <ele>45.5</ele>
      </trkpt>
      <trkpt lat="44.90875" lon="-0.14989">
        <ele>45.5</ele>
      </trkpt>
      <trkpt lat="44.90872" lon="-0.14977">
        <ele>45.6</ele>
      </trkpt>
      <trkpt lat="44.90869" lon="-0.14965">
        <ele>45.7</ele>
      </trkpt>
      <trkpt lat="44.90865" lon="-0.14951">
        <ele>45.9</ele>
      </trkpt>
      <trkpt lat="44.90857" lon="-0.14926">
        <ele>46.1</ele>
      </trkpt>
      <trkpt lat="44.90828" lon="-0.14839">
        <ele>46.2</ele>
      </trkpt>
      <trkpt lat="44.90802" lon="-0.14764">
        <ele>46.6</ele>
      </trkpt>
      <trkpt lat="44.90796" lon="-0.14748">
        <ele>46.4</ele>
      </trkpt>
      <trkpt lat="44.90796" lon="-0.14748">
        <ele>46.4</ele>
      </trkpt>
      <trkpt lat="44.90802" lon="-0.14764">
        <ele>46.6</ele>
      </trkpt>
      <trkpt lat="44.90842" lon="-0.14727">
        <ele>46</ele>
      </trkpt>
      <trkpt lat="44.90897" lon="-0.14673">
        <ele>44.7</ele>
      </trkpt>
      <trkpt lat="44.90929" lon="-0.14641">
        <ele>44</ele>
      </trkpt>
      <trkpt lat="44.90966" lon="-0.14604">
        <ele>42.8</ele>
      </trkpt>
      <trkpt lat="44.90997" lon="-0.14572">
        <ele>41.6</ele>
      </trkpt>
      <trkpt lat="44.91021" lon="-0.14545">
        <ele>40.7</ele>
      </trkpt>
      <trkpt lat="44.91028" lon="-0.14539">
        <ele>40.4</ele>
      </trkpt>
      <trkpt lat="44.91044" lon="-0.14523">
        <ele>40</ele>
      </trkpt>
      <trkpt lat="44.91062" lon="-0.1451">
        <ele>39.9</ele>
      </trkpt>
      <trkpt lat="44.91082" lon="-0.14493">
        <ele>38.8</ele>
      </trkpt>
      <trkpt lat="44.91088" lon="-0.14488">
        <ele>38.5</ele>
      </trkpt>
      <trkpt lat="44.91106" lon="-0.14474">
        <ele>38</ele>
      </trkpt>
      <trkpt lat="44.91135" lon="-0.14452">
        <ele>37</ele>
      </trkpt>
      <trkpt lat="44.91177" lon="-0.14422">
        <ele>35.7</ele>
      </trkpt>
      <trkpt lat="44.91187" lon="-0.14415">
        <ele>35.3</ele>
      </trkpt>
      <trkpt lat="44.91197" lon="-0.14406">
        <ele>35</ele>
      </trkpt>
      <trkpt lat="44.91199" lon="-0.14405">
        <ele>35</ele>
      </trkpt>
      <trkpt lat="44.91206" lon="-0.14399">
        <ele>35</ele>
      </trkpt>
      <trkpt lat="44.91217" lon="-0.14391">
        <ele>35</ele>
      </trkpt>
      <trkpt lat="44.91229" lon="-0.14383">
        <ele>35</ele>
      </trkpt>
      <trkpt lat="44.91246" lon="-0.14374">
        <ele>35</ele>
      </trkpt>
      <trkpt lat="44.91251" lon="-0.14372">
        <ele>35</ele>
      </trkpt>
      <trkpt lat="44.91287" lon="-0.14355">
        <ele>33.9</ele>
      </trkpt>
      <trkpt lat="44.91304" lon="-0.14346">
        <ele>33.5</ele>
      </trkpt>
      <trkpt lat="44.91317" lon="-0.14337">
        <ele>33.1</ele>
      </trkpt>
      <trkpt lat="44.91339" lon="-0.14323">
        <ele>33</ele>
      </trkpt>
      <trkpt lat="44.91355" lon="-0.14309">
        <ele>33</ele>
      </trkpt>
      <trkpt lat="44.91361" lon="-0.14301">
        <ele>32.8</ele>
      </trkpt>
      <trkpt lat="44.91375" lon="-0.14278">
        <ele>32</ele>
      </trkpt>
      <trkpt lat="44.91386" lon="-0.14254">
        <ele>31.2</ele>
      </trkpt>
      <trkpt lat="44.9139" lon="-0.14246">
        <ele>31</ele>
      </trkpt>
      <trkpt lat="44.91392" lon="-0.14242">
        <ele>31</ele>
      </trkpt>
      <trkpt lat="44.91395" lon="-0.14239">
        <ele>31</ele>
      </trkpt>
      <trkpt lat="44.91395" lon="-0.14234">
        <ele>31</ele>
      </trkpt>
      <trkpt lat="44.91397" lon="-0.14229">
        <ele>31</ele>
      </trkpt>
      <trkpt lat="44.91402" lon="-0.14211">
        <ele>30.8</ele>
      </trkpt>
      <trkpt lat="44.91413" lon="-0.14178">
        <ele>30.1</ele>
      </trkpt>
      <trkpt lat="44.91419" lon="-0.14155">
        <ele>29.9</ele>
      </trkpt>
      <trkpt lat="44.9142" lon="-0.14147">
        <ele>29.9</ele>
      </trkpt>
      <trkpt lat="44.91421" lon="-0.14141">
        <ele>29.8</ele>
      </trkpt>
      <trkpt lat="44.91421" lon="-0.14115">
        <ele>29</ele>
      </trkpt>
      <trkpt lat="44.91421" lon="-0.14049">
        <ele>29.2</ele>
      </trkpt>
      <trkpt lat="44.91423" lon="-0.14034">
        <ele>29.8</ele>
      </trkpt>
      <trkpt lat="44.91426" lon="-0.14023">
        <ele>30.1</ele>
      </trkpt>
      <trkpt lat="44.91436" lon="-0.13995">
        <ele>30.5</ele>
      </trkpt>
      <trkpt lat="44.91438" lon="-0.13989">
        <ele>30.6</ele>
      </trkpt>
      <trkpt lat="44.91438" lon="-0.13982">
        <ele>30.9</ele>
      </trkpt>
      <trkpt lat="44.91437" lon="-0.13977">
        <ele>31.1</ele>
      </trkpt>
      <trkpt lat="44.91435" lon="-0.13973">
        <ele>31.3</ele>
      </trkpt>
      <trkpt lat="44.91432" lon="-0.13969">
        <ele>31.5</ele>
      </trkpt>
      <trkpt lat="44.91427" lon="-0.13964">
        <ele>31.7</ele>
      </trkpt>
      <trkpt lat="44.9142" lon="-0.13959">
        <ele>31.9</ele>
      </trkpt>
      <trkpt lat="44.91397" lon="-0.13942">
        <ele>32</ele>
      </trkpt>
      <trkpt lat="44.91388" lon="-0.13933">
        <ele>32</ele>
      </trkpt>
      <trkpt lat="44.91384" lon="-0.13927">
        <ele>32.2</ele>
      </trkpt>
      <trkpt lat="44.91379" lon="-0.13915">
        <ele>32.4</ele>
      </trkpt>
      <trkpt lat="44.91373" lon="-0.13889">
        <ele>32.6</ele>
      </trkpt>
      <trkpt lat="44.91371" lon="-0.13882">
        <ele>32.6</ele>
      </trkpt>
      <trkpt lat="44.91372" lon="-0.13874">
        <ele>32.6</ele>
      </trkpt>
      <trkpt lat="44.91373" lon="-0.13869">
        <ele>32.6</ele>
      </trkpt>
      <trkpt lat="44.91379" lon="-0.13858">
        <ele>32.2</ele>
      </trkpt>
      <trkpt lat="44.91381" lon="-0.13853">
        <ele>32</ele>
      </trkpt>
      <trkpt lat="44.91383" lon="-0.13847">
        <ele>31.7</ele>
      </trkpt>
      <trkpt lat="44.91382" lon="-0.13842">
        <ele>31.6</ele>
      </trkpt>
      <trkpt lat="44.91381" lon="-0.13837">
        <ele>31.4</ele>
      </trkpt>
      <trkpt lat="44.91379" lon="-0.13833">
        <ele>31.3</ele>
      </trkpt>
      <trkpt lat="44.91373" lon="-0.13827">
        <ele>31.3</ele>
      </trkpt>
      <trkpt lat="44.91358" lon="-0.13811">
        <ele>31.3</ele>
      </trkpt>
      <trkpt lat="44.91347" lon="-0.13796">
        <ele>31.2</ele>
      </trkpt>
      <trkpt lat="44.91332" lon="-0.13769">
        <ele>30.7</ele>
      </trkpt>
      <trkpt lat="44.91326" lon="-0.13761">
        <ele>30.8</ele>
      </trkpt>
      <trkpt lat="44.91324" lon="-0.13758">
        <ele>30.9</ele>
      </trkpt>
      <trkpt lat="44.91321" lon="-0.13757">
        <ele>31</ele>
      </trkpt>
      <trkpt lat="44.91318" lon="-0.13757">
        <ele>31.2</ele>
      </trkpt>
      <trkpt lat="44.91316" lon="-0.13758">
        <ele>31.4</ele>
      </trkpt>
      <trkpt lat="44.91313" lon="-0.13761">
        <ele>31.6</ele>
      </trkpt>
      <trkpt lat="44.91309" lon="-0.13765">
        <ele>31.8</ele>
      </trkpt>
      <trkpt lat="44.91291" lon="-0.13793">
        <ele>33.3</ele>
      </trkpt>
      <trkpt lat="44.91286" lon="-0.13799">
        <ele>33.6</ele>
      </trkpt>
      <trkpt lat="44.91269" lon="-0.13814">
        <ele>34.5</ele>
      </trkpt>
      <trkpt lat="44.91247" lon="-0.13832">
        <ele>35</ele>
      </trkpt>
      <trkpt lat="44.91241" lon="-0.13836">
        <ele>35</ele>
      </trkpt>
      <trkpt lat="44.91238" lon="-0.13837">
        <ele>35</ele>
      </trkpt>
      <trkpt lat="44.91234" lon="-0.13837">
        <ele>35</ele>
      </trkpt>
      <trkpt lat="44.91232" lon="-0.13836">
        <ele>35</ele>
      </trkpt>
      <trkpt lat="44.91229" lon="-0.13833">
        <ele>35</ele>
      </trkpt>
      <trkpt lat="44.91226" lon="-0.13828">
        <ele>35</ele>
      </trkpt>
      <trkpt lat="44.91219" lon="-0.13808">
        <ele>35.1</ele>
      </trkpt>
      <trkpt lat="44.91208" lon="-0.13779">
        <ele>35.5</ele>
      </trkpt>
      <trkpt lat="44.91188" lon="-0.13736">
        <ele>36</ele>
      </trkpt>
      <trkpt lat="44.91159" lon="-0.13675">
        <ele>36.2</ele>
      </trkpt>
      <trkpt lat="44.91146" lon="-0.13649">
        <ele>36.3</ele>
      </trkpt>
      <trkpt lat="44.91138" lon="-0.13635">
        <ele>36</ele>
      </trkpt>
      <trkpt lat="44.91131" lon="-0.13623">
        <ele>36.3</ele>
      </trkpt>
      <trkpt lat="44.91126" lon="-0.13616">
        <ele>36.5</ele>
      </trkpt>
      <trkpt lat="44.91122" lon="-0.1361">
        <ele>36.6</ele>
      </trkpt>
      <trkpt lat="44.91116" lon="-0.13603">
        <ele>36.6</ele>
      </trkpt>
      <trkpt lat="44.91101" lon="-0.13585">
        <ele>36.4</ele>
      </trkpt>
      <trkpt lat="44.91082" lon="-0.13563">
        <ele>37</ele>
      </trkpt>
      <trkpt lat="44.91082" lon="-0.13562">
        <ele>37</ele>
      </trkpt>
      <trkpt lat="44.91076" lon="-0.13555">
        <ele>37.3</ele>
      </trkpt>
      <trkpt lat="44.91088" lon="-0.13538">
        <ele>36.8</ele>
      </trkpt>
      <trkpt lat="44.911" lon="-0.13518">
        <ele>36.2</ele>
      </trkpt>
      <trkpt lat="44.91118" lon="-0.13484">
        <ele>34.9</ele>
      </trkpt>
      <trkpt lat="44.91126" lon="-0.13466">
        <ele>34.2</ele>
      </trkpt>
      <trkpt lat="44.91131" lon="-0.13457">
        <ele>33.5</ele>
      </trkpt>
      <trkpt lat="44.91141" lon="-0.13437">
        <ele>32.2</ele>
      </trkpt>
      <trkpt lat="44.91154" lon="-0.13408">
        <ele>32.1</ele>
      </trkpt>
      <trkpt lat="44.91175" lon="-0.13355">
        <ele>29.6</ele>
      </trkpt>
      <trkpt lat="44.91182" lon="-0.13335">
        <ele>28.9</ele>
      </trkpt>
      <trkpt lat="44.91197" lon="-0.13294">
        <ele>27</ele>
      </trkpt>
      <trkpt lat="44.91206" lon="-0.13271">
        <ele>27</ele>
      </trkpt>
      <trkpt lat="44.91215" lon="-0.13246">
        <ele>26.5</ele>
      </trkpt>
      <trkpt lat="44.91222" lon="-0.13227">
        <ele>26</ele>
      </trkpt>
      <trkpt lat="44.91225" lon="-0.13218">
        <ele>26.1</ele>
      </trkpt>
      <trkpt lat="44.91228" lon="-0.13212">
        <ele>26.3</ele>
      </trkpt>
      <trkpt lat="44.91225" lon="-0.13218">
        <ele>26.1</ele>
      </trkpt>
      <trkpt lat="44.91225" lon="-0.13218">
        <ele>26.1</ele>
      </trkpt>
      <trkpt lat="44.91224" lon="-0.13212">
        <ele>26.3</ele>
      </trkpt>
      <trkpt lat="44.91223" lon="-0.13208">
        <ele>26.5</ele>
      </trkpt>
      <trkpt lat="44.91221" lon="-0.132">
        <ele>26.8</ele>
      </trkpt>
      <trkpt lat="44.91212" lon="-0.13204">
        <ele>26.8</ele>
      </trkpt>
      <trkpt lat="44.91192" lon="-0.13212">
        <ele>27.1</ele>
      </trkpt>
      <trkpt lat="44.91149" lon="-0.13229">
        <ele>29.4</ele>
      </trkpt>
      <trkpt lat="44.91118" lon="-0.13238">
        <ele>31.5</ele>
      </trkpt>
      <trkpt lat="44.9106" lon="-0.13251">
        <ele>34.7</ele>
      </trkpt>
      <trkpt lat="44.9103" lon="-0.13257">
        <ele>36.2</ele>
      </trkpt>
      <trkpt lat="44.91003" lon="-0.13262">
        <ele>37.3</ele>
      </trkpt>
      <trkpt lat="44.90974" lon="-0.13264">
        <ele>38</ele>
      </trkpt>
      <trkpt lat="44.90966" lon="-0.13264">
        <ele>38.2</ele>
      </trkpt>
      <trkpt lat="44.90936" lon="-0.13263">
        <ele>39.3</ele>
      </trkpt>
      <trkpt lat="44.90912" lon="-0.13261">
        <ele>40</ele>
      </trkpt>
      <trkpt lat="44.90893" lon="-0.13257">
        <ele>40</ele>
      </trkpt>
      <trkpt lat="44.90876" lon="-0.13254">
        <ele>40.5</ele>
      </trkpt>
      <trkpt lat="44.90849" lon="-0.13248">
        <ele>41.5</ele>
      </trkpt>
      <trkpt lat="44.9083" lon="-0.13243">
        <ele>42</ele>
      </trkpt>
      <trkpt lat="44.90792" lon="-0.13233">
        <ele>42.8</ele>
      </trkpt>
      <trkpt lat="44.9079" lon="-0.13233">
        <ele>42.8</ele>
      </trkpt>
      <trkpt lat="44.90748" lon="-0.13222">
        <ele>43.1</ele>
      </trkpt>
      <trkpt lat="44.90729" lon="-0.13215">
        <ele>43.8</ele>
      </trkpt>
      <trkpt lat="44.9072" lon="-0.13211">
        <ele>44</ele>
      </trkpt>
      <trkpt lat="44.90701" lon="-0.13202">
        <ele>44.2</ele>
      </trkpt>
      <trkpt lat="44.90687" lon="-0.13195">
        <ele>44.3</ele>
      </trkpt>
      <trkpt lat="44.9067" lon="-0.13184">
        <ele>44.9</ele>
      </trkpt>
      <trkpt lat="44.9063" lon="-0.1316">
        <ele>45</ele>
      </trkpt>
      <trkpt lat="44.90603" lon="-0.13144">
        <ele>45.2</ele>
      </trkpt>
      <trkpt lat="44.9057" lon="-0.13125">
        <ele>46</ele>
      </trkpt>
      <trkpt lat="44.90545" lon="-0.1311">
        <ele>46.4</ele>
      </trkpt>
      <trkpt lat="44.90527" lon="-0.13101">
        <ele>47</ele>
      </trkpt>
      <trkpt lat="44.90524" lon="-0.13097">
        <ele>47.1</ele>
      </trkpt>
      <trkpt lat="44.90524" lon="-0.13094">
        <ele>47.1</ele>
      </trkpt>
      <trkpt lat="44.90524" lon="-0.13093">
        <ele>47.1</ele>
      </trkpt>
      <trkpt lat="44.90524" lon="-0.13092">
        <ele>47.1</ele>
      </trkpt>
      <trkpt lat="44.90524" lon="-0.1309">
        <ele>47.1</ele>
      </trkpt>
      <trkpt lat="44.90524" lon="-0.13085">
        <ele>47.1</ele>
      </trkpt>
      <trkpt lat="44.90553" lon="-0.13061">
        <ele>47</ele>
      </trkpt>
      <trkpt lat="44.90593" lon="-0.13025">
        <ele>46</ele>
      </trkpt>
      <trkpt lat="44.90606" lon="-0.13013">
        <ele>45.6</ele>
      </trkpt>
      <trkpt lat="44.90628" lon="-0.12994">
        <ele>45.1</ele>
      </trkpt>
      <trkpt lat="44.90652" lon="-0.12972">
        <ele>44.5</ele>
      </trkpt>
      <trkpt lat="44.9067" lon="-0.12956">
        <ele>43.9</ele>
      </trkpt>
      <trkpt lat="44.90678" lon="-0.12948">
        <ele>43.6</ele>
      </trkpt>
      <trkpt lat="44.90682" lon="-0.12943">
        <ele>43.5</ele>
      </trkpt>
      <trkpt lat="44.90685" lon="-0.12938">
        <ele>43.5</ele>
      </trkpt>
      <trkpt lat="44.90686" lon="-0.12935">
        <ele>43.5</ele>
      </trkpt>
      <trkpt lat="44.90688" lon="-0.12931">
        <ele>43.6</ele>
      </trkpt>
      <trkpt lat="44.90689" lon="-0.12927">
        <ele>43.7</ele>
      </trkpt>
      <trkpt lat="44.90691" lon="-0.12921">
        <ele>43.9</ele>
      </trkpt>
      <trkpt lat="44.90691" lon="-0.12914">
        <ele>44</ele>
      </trkpt>
      <trkpt lat="44.90691" lon="-0.12893">
        <ele>44.1</ele>
      </trkpt>
      <trkpt lat="44.90691" lon="-0.12876">
        <ele>44.1</ele>
      </trkpt>
      <trkpt lat="44.90691" lon="-0.12858">
        <ele>44.2</ele>
      </trkpt>
      <trkpt lat="44.90692" lon="-0.12838">
        <ele>44.9</ele>
      </trkpt>
      <trkpt lat="44.90696" lon="-0.12819">
        <ele>44.9</ele>
      </trkpt>
      <trkpt lat="44.90704" lon="-0.12797">
        <ele>44.9</ele>
      </trkpt>
      <trkpt lat="44.90716" lon="-0.12768">
        <ele>44.4</ele>
      </trkpt>
      <trkpt lat="44.90729" lon="-0.12741">
        <ele>44.2</ele>
      </trkpt>
      <trkpt lat="44.90731" lon="-0.12737">
        <ele>44.3</ele>
      </trkpt>
      <trkpt lat="44.90733" lon="-0.12728">
        <ele>44.5</ele>
      </trkpt>
      <trkpt lat="44.90737" lon="-0.12717">
        <ele>44.4</ele>
      </trkpt>
      <trkpt lat="44.90742" lon="-0.12702">
        <ele>43.8</ele>
      </trkpt>
      <trkpt lat="44.90744" lon="-0.12687">
        <ele>43.4</ele>
      </trkpt>
      <trkpt lat="44.90745" lon="-0.12685">
        <ele>43.3</ele>
      </trkpt>
      <trkpt lat="44.90747" lon="-0.12674">
        <ele>43.1</ele>
      </trkpt>
      <trkpt lat="44.9075" lon="-0.12651">
        <ele>43</ele>
      </trkpt>
      <trkpt lat="44.90756" lon="-0.12608">
        <ele>42.6</ele>
      </trkpt>
      <trkpt lat="44.90764" lon="-0.12553">
        <ele>41</ele>
      </trkpt>
      <trkpt lat="44.9077" lon="-0.12511">
        <ele>40.6</ele>
      </trkpt>
      <trkpt lat="44.90778" lon="-0.12456">
        <ele>40</ele>
      </trkpt>
      <trkpt lat="44.90783" lon="-0.12421">
        <ele>39.1</ele>
      </trkpt>
      <trkpt lat="44.90784" lon="-0.12413">
        <ele>39</ele>
      </trkpt>
      <trkpt lat="44.90785" lon="-0.12404">
        <ele>39</ele>
      </trkpt>
      <trkpt lat="44.90791" lon="-0.12365">
        <ele>38.6</ele>
      </trkpt>
      <trkpt lat="44.90796" lon="-0.12328">
        <ele>38.2</ele>
      </trkpt>
      <trkpt lat="44.90801" lon="-0.12296">
        <ele>37</ele>
      </trkpt>
      <trkpt lat="44.90809" lon="-0.12241">
        <ele>35.7</ele>
      </trkpt>
      <trkpt lat="44.90812" lon="-0.12222">
        <ele>35</ele>
      </trkpt>
      <trkpt lat="44.90815" lon="-0.12202">
        <ele>34.8</ele>
      </trkpt>
      <trkpt lat="44.90821" lon="-0.12172">
        <ele>33.6</ele>
      </trkpt>
      <trkpt lat="44.90827" lon="-0.12138">
        <ele>32.4</ele>
      </trkpt>
      <trkpt lat="44.90833" lon="-0.1211">
        <ele>32</ele>
      </trkpt>
      <trkpt lat="44.90839" lon="-0.1208">
        <ele>31.6</ele>
      </trkpt>
      <trkpt lat="44.90841" lon="-0.12069">
        <ele>31.6</ele>
      </trkpt>
      <trkpt lat="44.90844" lon="-0.12052">
        <ele>31.6</ele>
      </trkpt>
      <trkpt lat="44.90848" lon="-0.1202">
        <ele>31.8</ele>
      </trkpt>
      <trkpt lat="44.9085" lon="-0.11991">
        <ele>32.4</ele>
      </trkpt>
      <trkpt lat="44.9085" lon="-0.11969">
        <ele>32.3</ele>
      </trkpt>
      <trkpt lat="44.9085" lon="-0.11953">
        <ele>32</ele>
      </trkpt>
      <trkpt lat="44.90848" lon="-0.11934">
        <ele>31.9</ele>
      </trkpt>
      <trkpt lat="44.90845" lon="-0.11896">
        <ele>31.7</ele>
      </trkpt>
      <trkpt lat="44.90841" lon="-0.11867">
        <ele>30.9</ele>
      </trkpt>
      <trkpt lat="44.9084" lon="-0.1186">
        <ele>30.8</ele>
      </trkpt>
      <trkpt lat="44.9084" lon="-0.11858">
        <ele>30.8</ele>
      </trkpt>
      <trkpt lat="44.9084" lon="-0.1186">
        <ele>30.8</ele>
      </trkpt>
      <trkpt lat="44.90836" lon="-0.11862">
        <ele>30.9</ele>
      </trkpt>
      <trkpt lat="44.90816" lon="-0.11872">
        <ele>32.9</ele>
      </trkpt>
      <trkpt lat="44.90769" lon="-0.11896">
        <ele>36.6</ele>
      </trkpt>
      <trkpt lat="44.90725" lon="-0.11921">
        <ele>40</ele>
      </trkpt>
      <trkpt lat="44.90716" lon="-0.11925">
        <ele>40.7</ele>
      </trkpt>
      <trkpt lat="44.90705" lon="-0.11927">
        <ele>41.4</ele>
      </trkpt>
      <trkpt lat="44.90695" lon="-0.11929">
        <ele>42</ele>
      </trkpt>
      <trkpt lat="44.90678" lon="-0.1193">
        <ele>42.6</ele>
      </trkpt>
      <trkpt lat="44.90632" lon="-0.11932">
        <ele>45.2</ele>
      </trkpt>
      <trkpt lat="44.90581" lon="-0.11933">
        <ele>47.1</ele>
      </trkpt>
      <trkpt lat="44.90559" lon="-0.11934">
        <ele>47.9</ele>
      </trkpt>
      <trkpt lat="44.90547" lon="-0.11935">
        <ele>48.3</ele>
      </trkpt>
      <trkpt lat="44.90513" lon="-0.11937">
        <ele>49.1</ele>
      </trkpt>
      <trkpt lat="44.90489" lon="-0.11939">
        <ele>49.5</ele>
      </trkpt>
      <trkpt lat="44.90471" lon="-0.11941">
        <ele>50</ele>
      </trkpt>
      <trkpt lat="44.90467" lon="-0.11943">
        <ele>50.2</ele>
      </trkpt>
      <trkpt lat="44.90466" lon="-0.11934">
        <ele>50.1</ele>
      </trkpt>
      <trkpt lat="44.90465" lon="-0.11926">
        <ele>50.1</ele>
      </trkpt>
      <trkpt lat="44.90462" lon="-0.11915">
        <ele>50</ele>
      </trkpt>
      <trkpt lat="44.90456" lon="-0.11896">
        <ele>49.7</ele>
      </trkpt>
      <trkpt lat="44.90447" lon="-0.11873">
        <ele>49.3</ele>
      </trkpt>
      <trkpt lat="44.90436" lon="-0.11846">
        <ele>49.3</ele>
      </trkpt>
      <trkpt lat="44.90422" lon="-0.11809">
        <ele>49.8</ele>
      </trkpt>
      <trkpt lat="44.90418" lon="-0.11802">
        <ele>49.8</ele>
      </trkpt>
      <trkpt lat="44.90412" lon="-0.11791">
        <ele>49.6</ele>
      </trkpt>
      <trkpt lat="44.90387" lon="-0.11746">
        <ele>49.9</ele>
      </trkpt>
      <trkpt lat="44.90353" lon="-0.11687">
        <ele>50.2</ele>
      </trkpt>
      <trkpt lat="44.90337" lon="-0.11658">
        <ele>49.7</ele>
      </trkpt>
      <trkpt lat="44.90336" lon="-0.11656">
        <ele>49.6</ele>
      </trkpt>
      <trkpt lat="44.90331" lon="-0.11645">
        <ele>49.4</ele>
      </trkpt>
      <trkpt lat="44.90331" lon="-0.11645">
        <ele>49.4</ele>
      </trkpt>
      <trkpt lat="44.90328" lon="-0.11648">
        <ele>49.8</ele>
      </trkpt>
      <trkpt lat="44.9032" lon="-0.11658">
        <ele>50.5</ele>
      </trkpt>
      <trkpt lat="44.90307" lon="-0.11671">
        <ele>51.1</ele>
      </trkpt>
      <trkpt lat="44.90286" lon="-0.11689">
        <ele>51.9</ele>
      </trkpt>
      <trkpt lat="44.90249" lon="-0.1172">
        <ele>53</ele>
      </trkpt>
      <trkpt lat="44.90225" lon="-0.11737">
        <ele>54</ele>
      </trkpt>
      <trkpt lat="44.902" lon="-0.11752">
        <ele>54.8</ele>
      </trkpt>
      <trkpt lat="44.90194" lon="-0.11755">
        <ele>55</ele>
      </trkpt>
      <trkpt lat="44.9017" lon="-0.11766">
        <ele>55.5</ele>
      </trkpt>
      <trkpt lat="44.90165" lon="-0.11769">
        <ele>55.7</ele>
      </trkpt>
      <trkpt lat="44.90141" lon="-0.11779">
        <ele>56</ele>
      </trkpt>
      <trkpt lat="44.90107" lon="-0.11798">
        <ele>57.8</ele>
      </trkpt>
      <trkpt lat="44.90086" lon="-0.11809">
        <ele>58.2</ele>
      </trkpt>
      <trkpt lat="44.90072" lon="-0.1182">
        <ele>59.4</ele>
      </trkpt>
      <trkpt lat="44.90062" lon="-0.1183">
        <ele>59.9</ele>
      </trkpt>
      <trkpt lat="44.90058" lon="-0.11834">
        <ele>60</ele>
      </trkpt>
      <trkpt lat="44.90042" lon="-0.11853">
        <ele>61.6</ele>
      </trkpt>
      <trkpt lat="44.90025" lon="-0.11885">
        <ele>63</ele>
      </trkpt>
      <trkpt lat="44.90004" lon="-0.11931">
        <ele>65.4</ele>
      </trkpt>
      <trkpt lat="44.89983" lon="-0.11984">
        <ele>68.6</ele>
      </trkpt>
      <trkpt lat="44.89972" lon="-0.12004">
        <ele>69.1</ele>
      </trkpt>
      <trkpt lat="44.8997" lon="-0.12007">
        <ele>69.3</ele>
      </trkpt>
      <trkpt lat="44.89963" lon="-0.12018">
        <ele>69.6</ele>
      </trkpt>
      <trkpt lat="44.89949" lon="-0.12032">
        <ele>70.2</ele>
      </trkpt>
      <trkpt lat="44.89933" lon="-0.12045">
        <ele>70.2</ele>
      </trkpt>
      <trkpt lat="44.89908" lon="-0.12056">
        <ele>69.7</ele>
      </trkpt>
      <trkpt lat="44.89891" lon="-0.12064">
        <ele>69.7</ele>
      </trkpt>
      <trkpt lat="44.89863" lon="-0.12075">
        <ele>70.1</ele>
      </trkpt>
      <trkpt lat="44.89829" lon="-0.1209">
        <ele>71.9</ele>
      </trkpt>
      <trkpt lat="44.89789" lon="-0.12108">
        <ele>75.3</ele>
      </trkpt>
      <trkpt lat="44.8978" lon="-0.12111">
        <ele>75.9</ele>
      </trkpt>
      <trkpt lat="44.89755" lon="-0.12121">
        <ele>78.1</ele>
      </trkpt>
      <trkpt lat="44.89717" lon="-0.12138">
        <ele>80.2</ele>
      </trkpt>
      <trkpt lat="44.89692" lon="-0.12149">
        <ele>81.4</ele>
      </trkpt>
      <trkpt lat="44.89678" lon="-0.12155">
        <ele>81.8</ele>
      </trkpt>
      <trkpt lat="44.89617" lon="-0.12179">
        <ele>83</ele>
      </trkpt>
      <trkpt lat="44.89611" lon="-0.12181">
        <ele>83</ele>
      </trkpt>
      <trkpt lat="44.89604" lon="-0.12183">
        <ele>83.3</ele>
      </trkpt>
      <trkpt lat="44.89604" lon="-0.12183">
        <ele>83.3</ele>
      </trkpt>
      <trkpt lat="44.89604" lon="-0.12185">
        <ele>83.4</ele>
      </trkpt>
      <trkpt lat="44.89608" lon="-0.12204">
        <ele>84</ele>
      </trkpt>
      <trkpt lat="44.89609" lon="-0.12229">
        <ele>84</ele>
      </trkpt>
      <trkpt lat="44.89611" lon="-0.12262">
        <ele>84</ele>
      </trkpt>
      <trkpt lat="44.89611" lon="-0.12281">
        <ele>83.9</ele>
      </trkpt>
      <trkpt lat="44.89611" lon="-0.12292">
        <ele>83.5</ele>
      </trkpt>
      <trkpt lat="44.89611" lon="-0.12324">
        <ele>82.3</ele>
      </trkpt>
      <trkpt lat="44.89612" lon="-0.12366">
        <ele>81</ele>
      </trkpt>
      <trkpt lat="44.89615" lon="-0.12368">
        <ele>81.1</ele>
      </trkpt>
      <trkpt lat="44.89616" lon="-0.1237">
        <ele>81.1</ele>
      </trkpt>
      <trkpt lat="44.89615" lon="-0.12368">
        <ele>81.1</ele>
      </trkpt>
      <trkpt lat="44.89612" lon="-0.12366">
        <ele>81</ele>
      </trkpt>
      <trkpt lat="44.89609" lon="-0.12367">
        <ele>81</ele>
      </trkpt>
      <trkpt lat="44.89607" lon="-0.1237">
        <ele>81</ele>
      </trkpt>
      <trkpt lat="44.89606" lon="-0.12373">
        <ele>80.9</ele>
      </trkpt>
      <trkpt lat="44.89606" lon="-0.12376">
        <ele>80.9</ele>
      </trkpt>
      <trkpt lat="44.89595" lon="-0.12389">
        <ele>80.4</ele>
      </trkpt>
      <trkpt lat="44.89563" lon="-0.1241">
        <ele>78.5</ele>
      </trkpt>
      <trkpt lat="44.89534" lon="-0.12431">
        <ele>77.5</ele>
      </trkpt>
      <trkpt lat="44.89504" lon="-0.12453">
        <ele>77.2</ele>
      </trkpt>
      <trkpt lat="44.89474" lon="-0.12479">
        <ele>77.6</ele>
      </trkpt>
      <trkpt lat="44.89452" lon="-0.12499">
        <ele>78.5</ele>
      </trkpt>
      <trkpt lat="44.89435" lon="-0.12516">
        <ele>79.7</ele>
      </trkpt>
      <trkpt lat="44.89417" lon="-0.12527">
        <ele>81</ele>
      </trkpt>
      <trkpt lat="44.89415" lon="-0.12528">
        <ele>81.1</ele>
      </trkpt>
      <trkpt lat="44.89394" lon="-0.12538">
        <ele>81.7</ele>
      </trkpt>
      <trkpt lat="44.89361" lon="-0.12554">
        <ele>83.1</ele>
      </trkpt>
      <trkpt lat="44.89325" lon="-0.12574">
        <ele>84.3</ele>
      </trkpt>
      <trkpt lat="44.89283" lon="-0.12598">
        <ele>86.3</ele>
      </trkpt>
      <trkpt lat="44.89225" lon="-0.12636">
        <ele>89.9</ele>
      </trkpt>
      <trkpt lat="44.89226" lon="-0.12641">
        <ele>89.9</ele>
      </trkpt>
      <trkpt lat="44.89226" lon="-0.12641">
        <ele>89.9</ele>
      </trkpt>
      <trkpt lat="44.89232" lon="-0.12659">
        <ele>90.1</ele>
      </trkpt>
      <trkpt lat="44.89243" lon="-0.12696">
        <ele>89.8</ele>
      </trkpt>
      <trkpt lat="44.89249" lon="-0.12719">
        <ele>90</ele>
      </trkpt>
      <trkpt lat="44.89253" lon="-0.12735">
        <ele>90.2</ele>
      </trkpt>
      <trkpt lat="44.89256" lon="-0.12759">
        <ele>90</ele>
      </trkpt>
      <trkpt lat="44.89262" lon="-0.12835">
        <ele>87.7</ele>
      </trkpt>
      <trkpt lat="44.89267" lon="-0.1287">
        <ele>86.6</ele>
      </trkpt>
      <trkpt lat="44.8927" lon="-0.12898">
        <ele>86.5</ele>
      </trkpt>
      <trkpt lat="44.89271" lon="-0.12935">
        <ele>85.7</ele>
      </trkpt>
      <trkpt lat="44.89273" lon="-0.12965">
        <ele>85.1</ele>
      </trkpt>
      <trkpt lat="44.89283" lon="-0.13021">
        <ele>84</ele>
      </trkpt>
      <trkpt lat="44.89287" lon="-0.13041">
        <ele>83.5</ele>
      </trkpt>
      <trkpt lat="44.89288" lon="-0.13054">
        <ele>83.1</ele>
      </trkpt>
      <trkpt lat="44.89288" lon="-0.1306">
        <ele>83</ele>
      </trkpt>
      <trkpt lat="44.89287" lon="-0.13079">
        <ele>83</ele>
      </trkpt>
      <trkpt lat="44.89282" lon="-0.13116">
        <ele>83</ele>
      </trkpt>
      <trkpt lat="44.8928" lon="-0.13134">
        <ele>83.1</ele>
      </trkpt>
      <trkpt lat="44.8928" lon="-0.13148">
        <ele>83.1</ele>
      </trkpt>
      <trkpt lat="44.89282" lon="-0.13161">
        <ele>83.2</ele>
      </trkpt>
      <trkpt lat="44.89285" lon="-0.1317">
        <ele>83.3</ele>
      </trkpt>
      <trkpt lat="44.89291" lon="-0.13179">
        <ele>83.5</ele>
      </trkpt>
      <trkpt lat="44.89302" lon="-0.1319">
        <ele>83.9</ele>
      </trkpt>
      <trkpt lat="44.89305" lon="-0.13194">
        <ele>84</ele>
      </trkpt>
      <trkpt lat="44.89308" lon="-0.13198">
        <ele>83.9</ele>
      </trkpt>
      <trkpt lat="44.89313" lon="-0.13206">
        <ele>83.8</ele>
      </trkpt>
      <trkpt lat="44.89314" lon="-0.13211">
        <ele>83.9</ele>
      </trkpt>
      <trkpt lat="44.89316" lon="-0.13216">
        <ele>83.9</ele>
      </trkpt>
      <trkpt lat="44.89317" lon="-0.13221">
        <ele>84</ele>
      </trkpt>
      <trkpt lat="44.89322" lon="-0.13246">
        <ele>84.9</ele>
      </trkpt>
      <trkpt lat="44.89324" lon="-0.13259">
        <ele>85.3</ele>
      </trkpt>
      <trkpt lat="44.89325" lon="-0.13267">
        <ele>85.6</ele>
      </trkpt>
      <trkpt lat="44.89325" lon="-0.13276">
        <ele>85.9</ele>
      </trkpt>
      <trkpt lat="44.89324" lon="-0.13286">
        <ele>86.1</ele>
      </trkpt>
      <trkpt lat="44.89324" lon="-0.13296">
        <ele>86.2</ele>
      </trkpt>
      <trkpt lat="44.8932" lon="-0.1332">
        <ele>86.8</ele>
      </trkpt>
      <trkpt lat="44.89314" lon="-0.13355">
        <ele>87.5</ele>
      </trkpt>
      <trkpt lat="44.89313" lon="-0.13363">
        <ele>87.8</ele>
      </trkpt>
      <trkpt lat="44.89312" lon="-0.13377">
        <ele>87.9</ele>
      </trkpt>
      <trkpt lat="44.89309" lon="-0.13427">
        <ele>88</ele>
      </trkpt>
      <trkpt lat="44.89311" lon="-0.13467">
        <ele>88</ele>
      </trkpt>
      <trkpt lat="44.89313" lon="-0.13506">
        <ele>88</ele>
      </trkpt>
      <trkpt lat="44.89315" lon="-0.13523">
        <ele>88</ele>
      </trkpt>
      <trkpt lat="44.89315" lon="-0.1353">
        <ele>88.1</ele>
      </trkpt>
      <trkpt lat="44.89313" lon="-0.13536">
        <ele>88.2</ele>
      </trkpt>
      <trkpt lat="44.89306" lon="-0.13547">
        <ele>88.7</ele>
      </trkpt>
      <trkpt lat="44.893" lon="-0.13553">
        <ele>88.7</ele>
      </trkpt>
      <trkpt lat="44.89282" lon="-0.1356">
        <ele>88.3</ele>
      </trkpt>
      <trkpt lat="44.89256" lon="-0.13565">
        <ele>88.3</ele>
      </trkpt>
      <trkpt lat="44.89241" lon="-0.13572">
        <ele>88.6</ele>
      </trkpt>
      <trkpt lat="44.89229" lon="-0.13576">
        <ele>88.7</ele>
      </trkpt>
      <trkpt lat="44.89226" lon="-0.13578">
        <ele>88.8</ele>
      </trkpt>
      <trkpt lat="44.89226" lon="-0.13578">
        <ele>88.8</ele>
      </trkpt>
      <trkpt lat="44.89224" lon="-0.13612">
        <ele>90</ele>
      </trkpt>
      <trkpt lat="44.8922" lon="-0.13646">
        <ele>90.9</ele>
      </trkpt>
      <trkpt lat="44.89221" lon="-0.13665">
        <ele>91</ele>
      </trkpt>
      <trkpt lat="44.89222" lon="-0.13691">
        <ele>91.9</ele>
      </trkpt>
      <trkpt lat="44.89227" lon="-0.13742">
        <ele>93.6</ele>
      </trkpt>
      <trkpt lat="44.89236" lon="-0.13829">
        <ele>95.3</ele>
      </trkpt>
      <trkpt lat="44.89239" lon="-0.13856">
        <ele>95.9</ele>
      </trkpt>
      <trkpt lat="44.8924" lon="-0.13871">
        <ele>96.2</ele>
      </trkpt>
      <trkpt lat="44.89241" lon="-0.13901">
        <ele>96.7</ele>
      </trkpt>
      <trkpt lat="44.89244" lon="-0.13943">
        <ele>97</ele>
      </trkpt>
      <trkpt lat="44.89247" lon="-0.13984">
        <ele>96.9</ele>
      </trkpt>
      <trkpt lat="44.89247" lon="-0.14001">
        <ele>96.9</ele>
      </trkpt>
      <trkpt lat="44.89252" lon="-0.14053">
        <ele>97</ele>
      </trkpt>
      <trkpt lat="44.89255" lon="-0.14089">
        <ele>96.8</ele>
      </trkpt>
      <trkpt lat="44.89257" lon="-0.14106">
        <ele>96.4</ele>
      </trkpt>
      <trkpt lat="44.89262" lon="-0.1412">
        <ele>96.1</ele>
      </trkpt>
      <trkpt lat="44.89274" lon="-0.14149">
        <ele>95.5</ele>
      </trkpt>
      <trkpt lat="44.89281" lon="-0.14168">
        <ele>95.1</ele>
      </trkpt>
      <trkpt lat="44.89285" lon="-0.14182">
        <ele>94.7</ele>
      </trkpt>
      <trkpt lat="44.89291" lon="-0.14203">
        <ele>94.2</ele>
      </trkpt>
      <trkpt lat="44.89299" lon="-0.14249">
        <ele>93</ele>
      </trkpt>
      <trkpt lat="44.89302" lon="-0.14265">
        <ele>92.5</ele>
      </trkpt>
      <trkpt lat="44.89306" lon="-0.14279">
        <ele>92</ele>
      </trkpt>
      <trkpt lat="44.89311" lon="-0.14295">
        <ele>91.4</ele>
      </trkpt>
      <trkpt lat="44.89313" lon="-0.14301">
        <ele>91.2</ele>
      </trkpt>
      <trkpt lat="44.89322" lon="-0.14325">
        <ele>90.4</ele>
      </trkpt>
      <trkpt lat="44.89328" lon="-0.14343">
        <ele>90</ele>
      </trkpt>
      <trkpt lat="44.89367" lon="-0.1451">
        <ele>85.1</ele>
      </trkpt>
      <trkpt lat="44.89373" lon="-0.14533">
        <ele>84.7</ele>
      </trkpt>
      <trkpt lat="44.89367" lon="-0.14544">
        <ele>84</ele>
      </trkpt>
      <trkpt lat="44.89365" lon="-0.14549">
        <ele>83.6</ele>
      </trkpt>
      <trkpt lat="44.89363" lon="-0.14556">
        <ele>83.2</ele>
      </trkpt>
      <trkpt lat="44.89362" lon="-0.14563">
        <ele>83.1</ele>
      </trkpt>
      <trkpt lat="44.8936" lon="-0.14573">
        <ele>82.9</ele>
      </trkpt>
      <trkpt lat="44.89359" lon="-0.14584">
        <ele>82.8</ele>
      </trkpt>
      <trkpt lat="44.89357" lon="-0.14605">
        <ele>81.9</ele>
      </trkpt>
      <trkpt lat="44.89356" lon="-0.14634">
        <ele>81.5</ele>
      </trkpt>
      <trkpt lat="44.89356" lon="-0.14671">
        <ele>79.3</ele>
      </trkpt>
      <trkpt lat="44.89355" lon="-0.14695">
        <ele>77.8</ele>
      </trkpt>
      <trkpt lat="44.89355" lon="-0.14715">
        <ele>77.3</ele>
      </trkpt>
      <trkpt lat="44.89352" lon="-0.14721">
        <ele>76.7</ele>
      </trkpt>
      <trkpt lat="44.8935" lon="-0.14724">
        <ele>76.5</ele>
      </trkpt>
      <trkpt lat="44.89352" lon="-0.14721">
        <ele>76.7</ele>
      </trkpt>
      <trkpt lat="44.89355" lon="-0.14715">
        <ele>77.3</ele>
      </trkpt>
      <trkpt lat="44.89355" lon="-0.14724">
        <ele>77.2</ele>
      </trkpt>
      <trkpt lat="44.89352" lon="-0.14731">
        <ele>77</ele>
      </trkpt>
      <trkpt lat="44.89344" lon="-0.14744">
        <ele>76.3</ele>
      </trkpt>
      <trkpt lat="44.89338" lon="-0.14759">
        <ele>76.5</ele>
      </trkpt>
      <trkpt lat="44.89334" lon="-0.1477">
        <ele>77.2</ele>
      </trkpt>
      <trkpt lat="44.89327" lon="-0.14789">
        <ele>77.4</ele>
      </trkpt>
      <trkpt lat="44.89321" lon="-0.14814">
        <ele>77.8</ele>
      </trkpt>
      <trkpt lat="44.89315" lon="-0.14846">
        <ele>79.1</ele>
      </trkpt>
      <trkpt lat="44.89311" lon="-0.14876">
        <ele>80.6</ele>
      </trkpt>
      <trkpt lat="44.89308" lon="-0.14913">
        <ele>82</ele>
      </trkpt>
      <trkpt lat="44.89302" lon="-0.14996">
        <ele>82.6</ele>
      </trkpt>
      <trkpt lat="44.89299" lon="-0.15035">
        <ele>81.7</ele>
      </trkpt>
      <trkpt lat="44.89295" lon="-0.15062">
        <ele>81.9</ele>
      </trkpt>
      <trkpt lat="44.89287" lon="-0.15095">
        <ele>81.8</ele>
      </trkpt>
      <trkpt lat="44.89277" lon="-0.15132">
        <ele>81.6</ele>
      </trkpt>
      <trkpt lat="44.89265" lon="-0.15213">
        <ele>81.8</ele>
      </trkpt>
      <trkpt lat="44.89262" lon="-0.1524">
        <ele>81.7</ele>
      </trkpt>
      <trkpt lat="44.89257" lon="-0.15265">
        <ele>81.8</ele>
      </trkpt>
      <trkpt lat="44.89252" lon="-0.1528">
        <ele>82.2</ele>
      </trkpt>
      <trkpt lat="44.8925" lon="-0.15287">
        <ele>82.3</ele>
      </trkpt>
      <trkpt lat="44.89248" lon="-0.15293">
        <ele>82.3</ele>
      </trkpt>
      <trkpt lat="44.89241" lon="-0.15315">
        <ele>81.8</ele>
      </trkpt>
      <trkpt lat="44.8924" lon="-0.15321">
        <ele>81.8</ele>
      </trkpt>
      <trkpt lat="44.8924" lon="-0.15324">
        <ele>81.8</ele>
      </trkpt>
      <trkpt lat="44.89241" lon="-0.15327">
        <ele>82</ele>
      </trkpt>
      <trkpt lat="44.89241" lon="-0.15329">
        <ele>82</ele>
      </trkpt>
      <trkpt lat="44.89242" lon="-0.15332">
        <ele>82.1</ele>
      </trkpt>
      <trkpt lat="44.89237" lon="-0.15338">
        <ele>81.4</ele>
      </trkpt>
      <trkpt lat="44.89234" lon="-0.15342">
        <ele>81.1</ele>
      </trkpt>
      <trkpt lat="44.89229" lon="-0.1535">
        <ele>80.7</ele>
      </trkpt>
      <trkpt lat="44.89226" lon="-0.15359">
        <ele>80.8</ele>
      </trkpt>
      <trkpt lat="44.89223" lon="-0.15368">
        <ele>81</ele>
      </trkpt>
      <trkpt lat="44.8922" lon="-0.1538">
        <ele>80.4</ele>
      </trkpt>
      <trkpt lat="44.8922" lon="-0.1539">
        <ele>80.2</ele>
      </trkpt>
      <trkpt lat="44.8922" lon="-0.15401">
        <ele>78.6</ele>
      </trkpt>
      <trkpt lat="44.8922" lon="-0.1541">
        <ele>77.3</ele>
      </trkpt>
      <trkpt lat="44.89222" lon="-0.15419">
        <ele>76.3</ele>
      </trkpt>
      <trkpt lat="44.89224" lon="-0.15425">
        <ele>75</ele>
      </trkpt>
      <trkpt lat="44.89227" lon="-0.15431">
        <ele>73.9</ele>
      </trkpt>
      <trkpt lat="44.8924" lon="-0.1545">
        <ele>72.3</ele>
      </trkpt>
      <trkpt lat="44.89255" lon="-0.15466">
        <ele>72.6</ele>
      </trkpt>
      <trkpt lat="44.89272" lon="-0.15479">
        <ele>73.4</ele>
      </trkpt>
      <trkpt lat="44.89288" lon="-0.15489">
        <ele>74.3</ele>
      </trkpt>
      <trkpt lat="44.89324" lon="-0.15504">
        <ele>76.6</ele>
      </trkpt>
      <trkpt lat="44.89332" lon="-0.15507">
        <ele>77.1</ele>
      </trkpt>
      <trkpt lat="44.89339" lon="-0.15507">
        <ele>77.7</ele>
      </trkpt>
      <trkpt lat="44.89344" lon="-0.15507">
        <ele>78.1</ele>
      </trkpt>
      <trkpt lat="44.89359" lon="-0.15506">
        <ele>79.4</ele>
      </trkpt>
      <trkpt lat="44.89368" lon="-0.15505">
        <ele>80.2</ele>
      </trkpt>
      <trkpt lat="44.89376" lon="-0.15505">
        <ele>80.8</ele>
      </trkpt>
      <trkpt lat="44.8938" lon="-0.15505">
        <ele>81.1</ele>
      </trkpt>
      <trkpt lat="44.89383" lon="-0.15506">
        <ele>81.3</ele>
      </trkpt>
      <trkpt lat="44.89384" lon="-0.15506">
        <ele>81.4</ele>
      </trkpt>
      <trkpt lat="44.89384" lon="-0.15507">
        <ele>81.4</ele>
      </trkpt>
      <trkpt lat="44.89385" lon="-0.15508">
        <ele>81.4</ele>
      </trkpt>
      <trkpt lat="44.89385" lon="-0.15509">
        <ele>81.4</ele>
      </trkpt>
      <trkpt lat="44.89385" lon="-0.15512">
        <ele>81.2</ele>
      </trkpt>
      <trkpt lat="44.89389" lon="-0.1556">
        <ele>80</ele>
      </trkpt>
      <trkpt lat="44.89389" lon="-0.15568">
        <ele>80</ele>
      </trkpt>
      <trkpt lat="44.89388" lon="-0.15572">
        <ele>79.9</ele>
      </trkpt>
      <trkpt lat="44.89387" lon="-0.15576">
        <ele>79.7</ele>
      </trkpt>
      <trkpt lat="44.89386" lon="-0.15581">
        <ele>79.5</ele>
      </trkpt>
      <trkpt lat="44.89381" lon="-0.15597">
        <ele>79.1</ele>
      </trkpt>
      <trkpt lat="44.89366" lon="-0.15649">
        <ele>79.3</ele>
      </trkpt>
      <trkpt lat="44.8936" lon="-0.15671">
        <ele>80</ele>
      </trkpt>
      <trkpt lat="44.89359" lon="-0.15676">
        <ele>80</ele>
      </trkpt>
      <trkpt lat="44.89359" lon="-0.15682">
        <ele>80.3</ele>
      </trkpt>
      <trkpt lat="44.89359" lon="-0.15689">
        <ele>80.6</ele>
      </trkpt>
      <trkpt lat="44.89359" lon="-0.15689">
        <ele>80.6</ele>
      </trkpt>
      <trkpt lat="44.89357" lon="-0.1569">
        <ele>80.5</ele>
      </trkpt>
      <trkpt lat="44.89356" lon="-0.15691">
        <ele>80.4</ele>
      </trkpt>
      <trkpt lat="44.89357" lon="-0.1569">
        <ele>80.5</ele>
      </trkpt>
    </trkseg>
  </trk>
  <trk>
    <name><![CDATA[--Montagne-- OR-3823617:la boucle de Diane et Ausone]]></name>
    <extensions>
      <line xmlns="http://www.topografix.com/GPX/gpx_style/0/2">
        <color>000088</color>
        <width>4</width>
      </line>
    </extensions>
    <trkseg>
      <trkpt lat="44.92987" lon="-0.12786">
        <ele>89</ele>
      </trkpt>
      <trkpt lat="44.92986" lon="-0.12782">
        <ele>89</ele>
      </trkpt>
      <trkpt lat="44.92983" lon="-0.12775">
        <ele>89</ele>
      </trkpt>
      <trkpt lat="44.92963" lon="-0.12715">
        <ele>89</ele>
      </trkpt>
      <trkpt lat="44.92945" lon="-0.1265">
        <ele>85</ele>
      </trkpt>
      <trkpt lat="44.92931" lon="-0.12654">
        <ele>85</ele>
      </trkpt>
      <trkpt lat="44.92891" lon="-0.1267">
        <ele>85</ele>
      </trkpt>
      <trkpt lat="44.92868" lon="-0.12678">
        <ele>81</ele>
      </trkpt>
      <trkpt lat="44.92838" lon="-0.12689">
        <ele>81</ele>
      </trkpt>
      <trkpt lat="44.92767" lon="-0.12715">
        <ele>75</ele>
      </trkpt>
      <trkpt lat="44.92714" lon="-0.12735">
        <ele>75</ele>
      </trkpt>
      <trkpt lat="44.92678" lon="-0.12745">
        <ele>72</ele>
      </trkpt>
      <trkpt lat="44.92683" lon="-0.12768">
        <ele>72</ele>
      </trkpt>
      <trkpt lat="44.92686" lon="-0.12778">
        <ele>72</ele>
      </trkpt>
      <trkpt lat="44.92691" lon="-0.12792">
        <ele>72</ele>
      </trkpt>
      <trkpt lat="44.92696" lon="-0.12804">
        <ele>72</ele>
      </trkpt>
      <trkpt lat="44.92701" lon="-0.12814">
        <ele>72</ele>
      </trkpt>
      <trkpt lat="44.92716" lon="-0.1284">
        <ele>76</ele>
      </trkpt>
      <trkpt lat="44.92725" lon="-0.12861">
        <ele>76</ele>
      </trkpt>
      <trkpt lat="44.92727" lon="-0.12867">
        <ele>76</ele>
      </trkpt>
      <trkpt lat="44.9273" lon="-0.12875">
        <ele>76</ele>
      </trkpt>
      <trkpt lat="44.92733" lon="-0.12891">
        <ele>76</ele>
      </trkpt>
      <trkpt lat="44.92727" lon="-0.12895">
        <ele>76</ele>
      </trkpt>
      <trkpt lat="44.92719" lon="-0.129">
        <ele>76</ele>
      </trkpt>
      <trkpt lat="44.92707" lon="-0.12907">
        <ele>74</ele>
      </trkpt>
      <trkpt lat="44.92686" lon="-0.12922">
        <ele>74</ele>
      </trkpt>
      <trkpt lat="44.92665" lon="-0.12939">
        <ele>74</ele>
      </trkpt>
      <trkpt lat="44.92641" lon="-0.12956">
        <ele>74</ele>
      </trkpt>
      <trkpt lat="44.92618" lon="-0.12973">
        <ele>73</ele>
      </trkpt>
      <trkpt lat="44.92594" lon="-0.12993">
        <ele>73</ele>
      </trkpt>
      <trkpt lat="44.92571" lon="-0.13012">
        <ele>73</ele>
      </trkpt>
      <trkpt lat="44.92555" lon="-0.13027">
        <ele>73</ele>
      </trkpt>
      <trkpt lat="44.92538" lon="-0.13044">
        <ele>72</ele>
      </trkpt>
      <trkpt lat="44.92521" lon="-0.13062">
        <ele>72</ele>
      </trkpt>
      <trkpt lat="44.92504" lon="-0.1308">
        <ele>72</ele>
      </trkpt>
      <trkpt lat="44.92491" lon="-0.13096">
        <ele>72</ele>
      </trkpt>
      <trkpt lat="44.92484" lon="-0.13105">
        <ele>72</ele>
      </trkpt>
      <trkpt lat="44.92482" lon="-0.13109">
        <ele>72</ele>
      </trkpt>
      <trkpt lat="44.92475" lon="-0.13123">
        <ele>72</ele>
      </trkpt>
      <trkpt lat="44.92479" lon="-0.13129">
        <ele>72</ele>
      </trkpt>
      <trkpt lat="44.92484" lon="-0.13135">
        <ele>72</ele>
      </trkpt>
      <trkpt lat="44.92485" lon="-0.13138">
        <ele>72</ele>
      </trkpt>
      <trkpt lat="44.92494" lon="-0.13158">
        <ele>72</ele>
      </trkpt>
      <trkpt lat="44.92527" lon="-0.13237">
        <ele>73</ele>
      </trkpt>
      <trkpt lat="44.9253" lon="-0.13246">
        <ele>73</ele>
      </trkpt>
      <trkpt lat="44.92534" lon="-0.13254">
        <ele>73</ele>
      </trkpt>
      <trkpt lat="44.9254" lon="-0.13262">
        <ele>73</ele>
      </trkpt>
      <trkpt lat="44.92546" lon="-0.13265">
        <ele>68</ele>
      </trkpt>
      <trkpt lat="44.92547" lon="-0.13265">
        <ele>68</ele>
      </trkpt>
      <trkpt lat="44.92556" lon="-0.13267">
        <ele>68</ele>
      </trkpt>
      <trkpt lat="44.92565" lon="-0.13265">
        <ele>68</ele>
      </trkpt>
      <trkpt lat="44.92574" lon="-0.1326">
        <ele>68</ele>
      </trkpt>
      <trkpt lat="44.92581" lon="-0.13255">
        <ele>68</ele>
      </trkpt>
      <trkpt lat="44.92592" lon="-0.13249">
        <ele>68</ele>
      </trkpt>
      <trkpt lat="44.92601" lon="-0.13244">
        <ele>68</ele>
      </trkpt>
      <trkpt lat="44.92612" lon="-0.13241">
        <ele>68</ele>
      </trkpt>
      <trkpt lat="44.92623" lon="-0.1324">
        <ele>68</ele>
      </trkpt>
      <trkpt lat="44.92636" lon="-0.13241">
        <ele>71</ele>
      </trkpt>
      <trkpt lat="44.92655" lon="-0.13244">
        <ele>71</ele>
      </trkpt>
      <trkpt lat="44.92674" lon="-0.13248">
        <ele>71</ele>
      </trkpt>
      <trkpt lat="44.92695" lon="-0.13252">
        <ele>71</ele>
      </trkpt>
      <trkpt lat="44.92707" lon="-0.13255">
        <ele>71</ele>
      </trkpt>
      <trkpt lat="44.92706" lon="-0.13258">
        <ele>71</ele>
      </trkpt>
      <trkpt lat="44.92704" lon="-0.13298">
        <ele>72</ele>
      </trkpt>
      <trkpt lat="44.92703" lon="-0.133">
        <ele>72</ele>
      </trkpt>
      <trkpt lat="44.92703" lon="-0.13319">
        <ele>72</ele>
      </trkpt>
      <trkpt lat="44.92703" lon="-0.13323">
        <ele>72</ele>
      </trkpt>
      <trkpt lat="44.92703" lon="-0.13327">
        <ele>72</ele>
      </trkpt>
      <trkpt lat="44.92704" lon="-0.13331">
        <ele>72</ele>
      </trkpt>
      <trkpt lat="44.92705" lon="-0.13334">
        <ele>72</ele>
      </trkpt>
      <trkpt lat="44.92706" lon="-0.13338">
        <ele>72</ele>
      </trkpt>
      <trkpt lat="44.92707" lon="-0.13341">
        <ele>72</ele>
      </trkpt>
      <trkpt lat="44.92714" lon="-0.13353">
        <ele>77</ele>
      </trkpt>
      <trkpt lat="44.92734" lon="-0.13394">
        <ele>74</ele>
      </trkpt>
      <trkpt lat="44.92738" lon="-0.13404">
        <ele>74</ele>
      </trkpt>
      <trkpt lat="44.9275" lon="-0.13431">
        <ele>74</ele>
      </trkpt>
      <trkpt lat="44.92764" lon="-0.13467">
        <ele>70</ele>
      </trkpt>
      <trkpt lat="44.92765" lon="-0.1347">
        <ele>70</ele>
      </trkpt>
      <trkpt lat="44.92768" lon="-0.13487">
        <ele>70</ele>
      </trkpt>
      <trkpt lat="44.92769" lon="-0.13498">
        <ele>70</ele>
      </trkpt>
      <trkpt lat="44.9277" lon="-0.13516">
        <ele>70</ele>
      </trkpt>
      <trkpt lat="44.9277" lon="-0.13529">
        <ele>70</ele>
      </trkpt>
      <trkpt lat="44.9277" lon="-0.1355">
        <ele>66</ele>
      </trkpt>
      <trkpt lat="44.92767" lon="-0.1358">
        <ele>66</ele>
      </trkpt>
      <trkpt lat="44.92766" lon="-0.136">
        <ele>66</ele>
      </trkpt>
      <trkpt lat="44.92766" lon="-0.13606">
        <ele>66</ele>
      </trkpt>
      <trkpt lat="44.92767" lon="-0.13612">
        <ele>66</ele>
      </trkpt>
      <trkpt lat="44.92796" lon="-0.1366">
        <ele>67</ele>
      </trkpt>
      <trkpt lat="44.9278" lon="-0.13696">
        <ele>65</ele>
      </trkpt>
      <trkpt lat="44.92788" lon="-0.13724">
        <ele>63</ele>
      </trkpt>
      <trkpt lat="44.928" lon="-0.13772">
        <ele>64</ele>
      </trkpt>
      <trkpt lat="44.9281" lon="-0.13823">
        <ele>60</ele>
      </trkpt>
      <trkpt lat="44.92814" lon="-0.13849">
        <ele>60</ele>
      </trkpt>
      <trkpt lat="44.92814" lon="-0.13852">
        <ele>60</ele>
      </trkpt>
      <trkpt lat="44.92814" lon="-0.13856">
        <ele>60</ele>
      </trkpt>
      <trkpt lat="44.92814" lon="-0.13859">
        <ele>60</ele>
      </trkpt>
      <trkpt lat="44.92814" lon="-0.13863">
        <ele>60</ele>
      </trkpt>
      <trkpt lat="44.92813" lon="-0.13867">
        <ele>60</ele>
      </trkpt>
      <trkpt lat="44.92808" lon="-0.13879">
        <ele>57</ele>
      </trkpt>
      <trkpt lat="44.928" lon="-0.13907">
        <ele>57</ele>
      </trkpt>
      <trkpt lat="44.92789" lon="-0.1394">
        <ele>57</ele>
      </trkpt>
      <trkpt lat="44.92779" lon="-0.13962">
        <ele>52</ele>
      </trkpt>
      <trkpt lat="44.92778" lon="-0.13966">
        <ele>52</ele>
      </trkpt>
      <trkpt lat="44.92778" lon="-0.1397">
        <ele>52</ele>
      </trkpt>
      <trkpt lat="44.92777" lon="-0.13973">
        <ele>52</ele>
      </trkpt>
      <trkpt lat="44.92778" lon="-0.13975">
        <ele>52</ele>
      </trkpt>
      <trkpt lat="44.92778" lon="-0.13977">
        <ele>52</ele>
      </trkpt>
      <trkpt lat="44.92778" lon="-0.13979">
        <ele>52</ele>
      </trkpt>
      <trkpt lat="44.92787" lon="-0.14016">
        <ele>52</ele>
      </trkpt>
      <trkpt lat="44.92795" lon="-0.14053">
        <ele>47</ele>
      </trkpt>
      <trkpt lat="44.92796" lon="-0.14057">
        <ele>47</ele>
      </trkpt>
      <trkpt lat="44.92796" lon="-0.14059">
        <ele>47</ele>
      </trkpt>
      <trkpt lat="44.92796" lon="-0.1406">
        <ele>47</ele>
      </trkpt>
      <trkpt lat="44.92796" lon="-0.14062">
        <ele>47</ele>
      </trkpt>
      <trkpt lat="44.92796" lon="-0.14063">
        <ele>47</ele>
      </trkpt>
      <trkpt lat="44.92795" lon="-0.14065">
        <ele>47</ele>
      </trkpt>
      <trkpt lat="44.92795" lon="-0.14066">
        <ele>47</ele>
      </trkpt>
      <trkpt lat="44.92794" lon="-0.14069">
        <ele>47</ele>
      </trkpt>
      <trkpt lat="44.92793" lon="-0.14071">
        <ele>47</ele>
      </trkpt>
      <trkpt lat="44.92783" lon="-0.14084">
        <ele>46</ele>
      </trkpt>
      <trkpt lat="44.92782" lon="-0.14085">
        <ele>46</ele>
      </trkpt>
      <trkpt lat="44.92782" lon="-0.14086">
        <ele>46</ele>
      </trkpt>
      <trkpt lat="44.92778" lon="-0.14096">
        <ele>46</ele>
      </trkpt>
      <trkpt lat="44.92778" lon="-0.14097">
        <ele>46</ele>
      </trkpt>
      <trkpt lat="44.92777" lon="-0.141">
        <ele>46</ele>
      </trkpt>
      <trkpt lat="44.92777" lon="-0.14102">
        <ele>46</ele>
      </trkpt>
      <trkpt lat="44.92777" lon="-0.14104">
        <ele>46</ele>
      </trkpt>
      <trkpt lat="44.92777" lon="-0.14107">
        <ele>46</ele>
      </trkpt>
      <trkpt lat="44.92777" lon="-0.14109">
        <ele>46</ele>
      </trkpt>
      <trkpt lat="44.92777" lon="-0.1411">
        <ele>46</ele>
      </trkpt>
      <trkpt lat="44.9278" lon="-0.14123">
        <ele>46</ele>
      </trkpt>
      <trkpt lat="44.9278" lon="-0.14124">
        <ele>46</ele>
      </trkpt>
      <trkpt lat="44.9278" lon="-0.14125">
        <ele>46</ele>
      </trkpt>
      <trkpt lat="44.9278" lon="-0.14127">
        <ele>44</ele>
      </trkpt>
      <trkpt lat="44.92787" lon="-0.14144">
        <ele>44</ele>
      </trkpt>
      <trkpt lat="44.9279" lon="-0.14155">
        <ele>44</ele>
      </trkpt>
      <trkpt lat="44.92793" lon="-0.14163">
        <ele>48</ele>
      </trkpt>
      <trkpt lat="44.92793" lon="-0.14165">
        <ele>48</ele>
      </trkpt>
      <trkpt lat="44.92793" lon="-0.14166">
        <ele>48</ele>
      </trkpt>
      <trkpt lat="44.92794" lon="-0.14174">
        <ele>48</ele>
      </trkpt>
      <trkpt lat="44.92793" lon="-0.14178">
        <ele>48</ele>
      </trkpt>
      <trkpt lat="44.92793" lon="-0.14181">
        <ele>48</ele>
      </trkpt>
      <trkpt lat="44.92793" lon="-0.14185">
        <ele>48</ele>
      </trkpt>
      <trkpt lat="44.92793" lon="-0.14186">
        <ele>48</ele>
      </trkpt>
      <trkpt lat="44.9279" lon="-0.14198">
        <ele>44</ele>
      </trkpt>
      <trkpt lat="44.92803" lon="-0.14225">
        <ele>48</ele>
      </trkpt>
      <trkpt lat="44.92808" lon="-0.14232">
        <ele>48</ele>
      </trkpt>
      <trkpt lat="44.92811" lon="-0.14235">
        <ele>48</ele>
      </trkpt>
      <trkpt lat="44.92817" lon="-0.14241">
        <ele>48</ele>
      </trkpt>
      <trkpt lat="44.92807" lon="-0.14251">
        <ele>48</ele>
      </trkpt>
      <trkpt lat="44.92797" lon="-0.14264">
        <ele>48</ele>
      </trkpt>
      <trkpt lat="44.92794" lon="-0.14268">
        <ele>48</ele>
      </trkpt>
      <trkpt lat="44.92787" lon="-0.14283">
        <ele>45</ele>
      </trkpt>
      <trkpt lat="44.92798" lon="-0.14294">
        <ele>50</ele>
      </trkpt>
      <trkpt lat="44.9281" lon="-0.14308">
        <ele>50</ele>
      </trkpt>
      <trkpt lat="44.92814" lon="-0.14314">
        <ele>50</ele>
      </trkpt>
      <trkpt lat="44.92816" lon="-0.14318">
        <ele>50</ele>
      </trkpt>
      <trkpt lat="44.92817" lon="-0.14322">
        <ele>50</ele>
      </trkpt>
      <trkpt lat="44.92817" lon="-0.14325">
        <ele>50</ele>
      </trkpt>
      <trkpt lat="44.92818" lon="-0.14328">
        <ele>50</ele>
      </trkpt>
      <trkpt lat="44.92818" lon="-0.14332">
        <ele>50</ele>
      </trkpt>
      <trkpt lat="44.92818" lon="-0.14336">
        <ele>50</ele>
      </trkpt>
      <trkpt lat="44.92817" lon="-0.14342">
        <ele>50</ele>
      </trkpt>
      <trkpt lat="44.92813" lon="-0.14356">
        <ele>50</ele>
      </trkpt>
      <trkpt lat="44.92811" lon="-0.14361">
        <ele>50</ele>
      </trkpt>
      <trkpt lat="44.9281" lon="-0.14364">
        <ele>50</ele>
      </trkpt>
      <trkpt lat="44.92808" lon="-0.14368">
        <ele>50</ele>
      </trkpt>
      <trkpt lat="44.92806" lon="-0.14372">
        <ele>50</ele>
      </trkpt>
      <trkpt lat="44.92792" lon="-0.14395">
        <ele>51</ele>
      </trkpt>
      <trkpt lat="44.92779" lon="-0.14414">
        <ele>46</ele>
      </trkpt>
      <trkpt lat="44.92774" lon="-0.14423">
        <ele>46</ele>
      </trkpt>
      <trkpt lat="44.92798" lon="-0.14444">
        <ele>51</ele>
      </trkpt>
      <trkpt lat="44.92806" lon="-0.14452">
        <ele>51</ele>
      </trkpt>
      <trkpt lat="44.9282" lon="-0.1446">
        <ele>52</ele>
      </trkpt>
      <trkpt lat="44.92861" lon="-0.14492">
        <ele>52</ele>
      </trkpt>
      <trkpt lat="44.9288" lon="-0.14502">
        <ele>56</ele>
      </trkpt>
      <trkpt lat="44.9289" lon="-0.14503">
        <ele>56</ele>
      </trkpt>
      <trkpt lat="44.92905" lon="-0.14499">
        <ele>56</ele>
      </trkpt>
      <trkpt lat="44.92932" lon="-0.14486">
        <ele>56</ele>
      </trkpt>
      <trkpt lat="44.92956" lon="-0.14477">
        <ele>56</ele>
      </trkpt>
      <trkpt lat="44.92979" lon="-0.14471">
        <ele>60</ele>
      </trkpt>
      <trkpt lat="44.92995" lon="-0.1447">
        <ele>60</ele>
      </trkpt>
      <trkpt lat="44.93004" lon="-0.14474">
        <ele>60</ele>
      </trkpt>
      <trkpt lat="44.9301" lon="-0.14478">
        <ele>60</ele>
      </trkpt>
      <trkpt lat="44.93011" lon="-0.14479">
        <ele>60</ele>
      </trkpt>
      <trkpt lat="44.93014" lon="-0.14482">
        <ele>60</ele>
      </trkpt>
      <trkpt lat="44.93016" lon="-0.14484">
        <ele>60</ele>
      </trkpt>
      <trkpt lat="44.93017" lon="-0.14485">
        <ele>60</ele>
      </trkpt>
      <trkpt lat="44.93019" lon="-0.14487">
        <ele>60</ele>
      </trkpt>
      <trkpt lat="44.93022" lon="-0.14491">
        <ele>60</ele>
      </trkpt>
      <trkpt lat="44.93027" lon="-0.14501">
        <ele>60</ele>
      </trkpt>
      <trkpt lat="44.9307" lon="-0.14593">
        <ele>65</ele>
      </trkpt>
      <trkpt lat="44.93101" lon="-0.14654">
        <ele>65</ele>
      </trkpt>
      <trkpt lat="44.93122" lon="-0.14692">
        <ele>65</ele>
      </trkpt>
      <trkpt lat="44.93125" lon="-0.14696">
        <ele>65</ele>
      </trkpt>
      <trkpt lat="44.93134" lon="-0.14706">
        <ele>66</ele>
      </trkpt>
      <trkpt lat="44.93132" lon="-0.14716">
        <ele>64</ele>
      </trkpt>
      <trkpt lat="44.93129" lon="-0.14732">
        <ele>64</ele>
      </trkpt>
      <trkpt lat="44.93127" lon="-0.14738">
        <ele>64</ele>
      </trkpt>
      <trkpt lat="44.93125" lon="-0.14743">
        <ele>68</ele>
      </trkpt>
      <trkpt lat="44.93121" lon="-0.14752">
        <ele>68</ele>
      </trkpt>
      <trkpt lat="44.93098" lon="-0.14793">
        <ele>65</ele>
      </trkpt>
      <trkpt lat="44.93074" lon="-0.14835">
        <ele>65</ele>
      </trkpt>
      <trkpt lat="44.9306" lon="-0.1486">
        <ele>65</ele>
      </trkpt>
      <trkpt lat="44.93053" lon="-0.14878">
        <ele>60</ele>
      </trkpt>
      <trkpt lat="44.93047" lon="-0.14898">
        <ele>60</ele>
      </trkpt>
      <trkpt lat="44.93045" lon="-0.14916">
        <ele>60</ele>
      </trkpt>
      <trkpt lat="44.9304" lon="-0.14946">
        <ele>69</ele>
      </trkpt>
      <trkpt lat="44.93039" lon="-0.14959">
        <ele>64</ele>
      </trkpt>
      <trkpt lat="44.93035" lon="-0.15006">
        <ele>64</ele>
      </trkpt>
      <trkpt lat="44.93033" lon="-0.15026">
        <ele>64</ele>
      </trkpt>
      <trkpt lat="44.93026" lon="-0.15075">
        <ele>60</ele>
      </trkpt>
      <trkpt lat="44.93007" lon="-0.15201">
        <ele>54</ele>
      </trkpt>
      <trkpt lat="44.93003" lon="-0.15224">
        <ele>51</ele>
      </trkpt>
      <trkpt lat="44.93002" lon="-0.15242">
        <ele>51</ele>
      </trkpt>
      <trkpt lat="44.93003" lon="-0.1526">
        <ele>51</ele>
      </trkpt>
      <trkpt lat="44.93005" lon="-0.15284">
        <ele>51</ele>
      </trkpt>
      <trkpt lat="44.93009" lon="-0.15313">
        <ele>50</ele>
      </trkpt>
      <trkpt lat="44.93015" lon="-0.15344">
        <ele>50</ele>
      </trkpt>
      <trkpt lat="44.93021" lon="-0.15372">
        <ele>50</ele>
      </trkpt>
      <trkpt lat="44.93037" lon="-0.15431">
        <ele>49</ele>
      </trkpt>
      <trkpt lat="44.93041" lon="-0.15452">
        <ele>49</ele>
      </trkpt>
      <trkpt lat="44.93044" lon="-0.15471">
        <ele>43</ele>
      </trkpt>
      <trkpt lat="44.93046" lon="-0.15499">
        <ele>43</ele>
      </trkpt>
      <trkpt lat="44.93049" lon="-0.1554">
        <ele>43</ele>
      </trkpt>
      <trkpt lat="44.93053" lon="-0.15638">
        <ele>41</ele>
      </trkpt>
      <trkpt lat="44.93055" lon="-0.15683">
        <ele>41</ele>
      </trkpt>
      <trkpt lat="44.93055" lon="-0.15704">
        <ele>41</ele>
      </trkpt>
      <trkpt lat="44.93054" lon="-0.1571">
        <ele>39</ele>
      </trkpt>
      <trkpt lat="44.93045" lon="-0.15796">
        <ele>38</ele>
      </trkpt>
      <trkpt lat="44.93042" lon="-0.15823">
        <ele>38</ele>
      </trkpt>
      <trkpt lat="44.93034" lon="-0.15887">
        <ele>38</ele>
      </trkpt>
      <trkpt lat="44.93032" lon="-0.15899">
        <ele>38</ele>
      </trkpt>
      <trkpt lat="44.9305" lon="-0.15902">
        <ele>37</ele>
      </trkpt>
      <trkpt lat="44.93083" lon="-0.15908">
        <ele>37</ele>
      </trkpt>
      <trkpt lat="44.93109" lon="-0.15916">
        <ele>37</ele>
      </trkpt>
      <trkpt lat="44.93122" lon="-0.15921">
        <ele>37</ele>
      </trkpt>
      <trkpt lat="44.93136" lon="-0.15929">
        <ele>34</ele>
      </trkpt>
      <trkpt lat="44.93146" lon="-0.15934">
        <ele>34</ele>
      </trkpt>
      <trkpt lat="44.93153" lon="-0.15936">
        <ele>34</ele>
      </trkpt>
      <trkpt lat="44.9316" lon="-0.15935">
        <ele>34</ele>
      </trkpt>
      <trkpt lat="44.932" lon="-0.15931">
        <ele>34</ele>
      </trkpt>
      <trkpt lat="44.93244" lon="-0.15925">
        <ele>33</ele>
      </trkpt>
      <trkpt lat="44.93257" lon="-0.15926">
        <ele>33</ele>
      </trkpt>
      <trkpt lat="44.9327" lon="-0.15928">
        <ele>33</ele>
      </trkpt>
      <trkpt lat="44.93332" lon="-0.15946">
        <ele>34</ele>
      </trkpt>
      <trkpt lat="44.93343" lon="-0.15951">
        <ele>34</ele>
      </trkpt>
      <trkpt lat="44.9335" lon="-0.15961">
        <ele>34</ele>
      </trkpt>
      <trkpt lat="44.93373" lon="-0.15995">
        <ele>34</ele>
      </trkpt>
      <trkpt lat="44.93392" lon="-0.16027">
        <ele>36</ele>
      </trkpt>
      <trkpt lat="44.9342" lon="-0.16094">
        <ele>36</ele>
      </trkpt>
      <trkpt lat="44.93442" lon="-0.16142">
        <ele>35</ele>
      </trkpt>
      <trkpt lat="44.93482" lon="-0.16232">
        <ele>36</ele>
      </trkpt>
      <trkpt lat="44.93485" lon="-0.16238">
        <ele>36</ele>
      </trkpt>
      <trkpt lat="44.9344" lon="-0.16259">
        <ele>35</ele>
      </trkpt>
      <trkpt lat="44.93428" lon="-0.16267">
        <ele>35</ele>
      </trkpt>
      <trkpt lat="44.93416" lon="-0.16277">
        <ele>35</ele>
      </trkpt>
      <trkpt lat="44.93407" lon="-0.16286">
        <ele>35</ele>
      </trkpt>
      <trkpt lat="44.93387" lon="-0.16312">
        <ele>35</ele>
      </trkpt>
      <trkpt lat="44.93362" lon="-0.16351">
        <ele>34</ele>
      </trkpt>
      <trkpt lat="44.9333" lon="-0.16397">
        <ele>33</ele>
      </trkpt>
      <trkpt lat="44.933" lon="-0.16441">
        <ele>33</ele>
      </trkpt>
      <trkpt lat="44.93277" lon="-0.16473">
        <ele>30</ele>
      </trkpt>
      <trkpt lat="44.93258" lon="-0.16503">
        <ele>30</ele>
      </trkpt>
      <trkpt lat="44.93251" lon="-0.16515">
        <ele>30</ele>
      </trkpt>
      <trkpt lat="44.93246" lon="-0.16525">
        <ele>30</ele>
      </trkpt>
      <trkpt lat="44.93242" lon="-0.16537">
        <ele>30</ele>
      </trkpt>
      <trkpt lat="44.93238" lon="-0.16552">
        <ele>31</ele>
      </trkpt>
      <trkpt lat="44.93231" lon="-0.16577">
        <ele>31</ele>
      </trkpt>
      <trkpt lat="44.93222" lon="-0.16617">
        <ele>31</ele>
      </trkpt>
      <trkpt lat="44.93212" lon="-0.16661">
        <ele>30</ele>
      </trkpt>
      <trkpt lat="44.93208" lon="-0.16679">
        <ele>27</ele>
      </trkpt>
      <trkpt lat="44.93206" lon="-0.16692">
        <ele>27</ele>
      </trkpt>
      <trkpt lat="44.93201" lon="-0.16733">
        <ele>27</ele>
      </trkpt>
      <trkpt lat="44.93195" lon="-0.16775">
        <ele>27</ele>
      </trkpt>
      <trkpt lat="44.93189" lon="-0.16815">
        <ele>27</ele>
      </trkpt>
      <trkpt lat="44.93183" lon="-0.16848">
        <ele>27</ele>
      </trkpt>
      <trkpt lat="44.93181" lon="-0.16875">
        <ele>27</ele>
      </trkpt>
      <trkpt lat="44.93181" lon="-0.16911">
        <ele>29</ele>
      </trkpt>
      <trkpt lat="44.93181" lon="-0.16941">
        <ele>29</ele>
      </trkpt>
      <trkpt lat="44.93177" lon="-0.16971">
        <ele>27</ele>
      </trkpt>
      <trkpt lat="44.9317" lon="-0.17014">
        <ele>27</ele>
      </trkpt>
      <trkpt lat="44.9316" lon="-0.17064">
        <ele>24</ele>
      </trkpt>
      <trkpt lat="44.93153" lon="-0.17103">
        <ele>24</ele>
      </trkpt>
      <trkpt lat="44.93149" lon="-0.17132">
        <ele>24</ele>
      </trkpt>
      <trkpt lat="44.93147" lon="-0.17158">
        <ele>24</ele>
      </trkpt>
      <trkpt lat="44.93146" lon="-0.17189">
        <ele>24</ele>
      </trkpt>
      <trkpt lat="44.93145" lon="-0.17192">
        <ele>24</ele>
      </trkpt>
      <trkpt lat="44.93142" lon="-0.17206">
        <ele>24</ele>
      </trkpt>
      <trkpt lat="44.93142" lon="-0.17218">
        <ele>23</ele>
      </trkpt>
      <trkpt lat="44.93143" lon="-0.1724">
        <ele>23</ele>
      </trkpt>
      <trkpt lat="44.9315" lon="-0.173">
        <ele>22</ele>
      </trkpt>
      <trkpt lat="44.9315" lon="-0.17307">
        <ele>22</ele>
      </trkpt>
      <trkpt lat="44.9315" lon="-0.17317">
        <ele>22</ele>
      </trkpt>
      <trkpt lat="44.93157" lon="-0.17315">
        <ele>22</ele>
      </trkpt>
      <trkpt lat="44.93161" lon="-0.17316">
        <ele>22</ele>
      </trkpt>
      <trkpt lat="44.93164" lon="-0.17317">
        <ele>22</ele>
      </trkpt>
      <trkpt lat="44.9317" lon="-0.17322">
        <ele>22</ele>
      </trkpt>
      <trkpt lat="44.93177" lon="-0.17325">
        <ele>22</ele>
      </trkpt>
      <trkpt lat="44.93182" lon="-0.17325">
        <ele>22</ele>
      </trkpt>
      <trkpt lat="44.93187" lon="-0.17323">
        <ele>22</ele>
      </trkpt>
      <trkpt lat="44.93192" lon="-0.1732">
        <ele>22</ele>
      </trkpt>
      <trkpt lat="44.93199" lon="-0.17309">
        <ele>22</ele>
      </trkpt>
      <trkpt lat="44.93202" lon="-0.17306">
        <ele>22</ele>
      </trkpt>
      <trkpt lat="44.93205" lon="-0.17305">
        <ele>22</ele>
      </trkpt>
      <trkpt lat="44.9321" lon="-0.17306">
        <ele>20</ele>
      </trkpt>
      <trkpt lat="44.93213" lon="-0.17308">
        <ele>20</ele>
      </trkpt>
      <trkpt lat="44.9322" lon="-0.17323">
        <ele>20</ele>
      </trkpt>
      <trkpt lat="44.93241" lon="-0.17364">
        <ele>20</ele>
      </trkpt>
      <trkpt lat="44.93251" lon="-0.17381">
        <ele>21</ele>
      </trkpt>
      <trkpt lat="44.93256" lon="-0.17389">
        <ele>21</ele>
      </trkpt>
      <trkpt lat="44.93261" lon="-0.17403">
        <ele>21</ele>
      </trkpt>
      <trkpt lat="44.93265" lon="-0.17418">
        <ele>21</ele>
      </trkpt>
      <trkpt lat="44.93268" lon="-0.1745">
        <ele>21</ele>
      </trkpt>
      <trkpt lat="44.93271" lon="-0.17466">
        <ele>20</ele>
      </trkpt>
      <trkpt lat="44.93275" lon="-0.17482">
        <ele>20</ele>
      </trkpt>
      <trkpt lat="44.93278" lon="-0.17494">
        <ele>20</ele>
      </trkpt>
      <trkpt lat="44.93288" lon="-0.17522">
        <ele>20</ele>
      </trkpt>
      <trkpt lat="44.93296" lon="-0.17543">
        <ele>24</ele>
      </trkpt>
      <trkpt lat="44.9331" lon="-0.17581">
        <ele>24</ele>
      </trkpt>
      <trkpt lat="44.93318" lon="-0.17595">
        <ele>24</ele>
      </trkpt>
      <trkpt lat="44.9333" lon="-0.17609">
        <ele>24</ele>
      </trkpt>
      <trkpt lat="44.93344" lon="-0.17621">
        <ele>24</ele>
      </trkpt>
      <trkpt lat="44.93407" lon="-0.17662">
        <ele>27</ele>
      </trkpt>
      <trkpt lat="44.93426" lon="-0.17677">
        <ele>27</ele>
      </trkpt>
      <trkpt lat="44.93438" lon="-0.17688">
        <ele>27</ele>
      </trkpt>
      <trkpt lat="44.9345" lon="-0.17701">
        <ele>27</ele>
      </trkpt>
      <trkpt lat="44.93464" lon="-0.1772">
        <ele>29</ele>
      </trkpt>
      <trkpt lat="44.93479" lon="-0.17745">
        <ele>29</ele>
      </trkpt>
      <trkpt lat="44.93515" lon="-0.17815">
        <ele>31</ele>
      </trkpt>
      <trkpt lat="44.93545" lon="-0.17873">
        <ele>34</ele>
      </trkpt>
      <trkpt lat="44.93556" lon="-0.17895">
        <ele>36</ele>
      </trkpt>
      <trkpt lat="44.9356" lon="-0.17906">
        <ele>36</ele>
      </trkpt>
      <trkpt lat="44.93562" lon="-0.17915">
        <ele>36</ele>
      </trkpt>
      <trkpt lat="44.93564" lon="-0.17926">
        <ele>36</ele>
      </trkpt>
      <trkpt lat="44.9356" lon="-0.17953">
        <ele>36</ele>
      </trkpt>
      <trkpt lat="44.93554" lon="-0.17981">
        <ele>37</ele>
      </trkpt>
      <trkpt lat="44.9355" lon="-0.18003">
        <ele>37</ele>
      </trkpt>
      <trkpt lat="44.93547" lon="-0.1802">
        <ele>37</ele>
      </trkpt>
      <trkpt lat="44.93546" lon="-0.18028">
        <ele>37</ele>
      </trkpt>
      <trkpt lat="44.93573" lon="-0.18008">
        <ele>37</ele>
      </trkpt>
      <trkpt lat="44.93585" lon="-0.18001">
        <ele>37</ele>
      </trkpt>
      <trkpt lat="44.93592" lon="-0.17998">
        <ele>37</ele>
      </trkpt>
      <trkpt lat="44.936" lon="-0.17996">
        <ele>37</ele>
      </trkpt>
      <trkpt lat="44.93609" lon="-0.17994">
        <ele>37</ele>
      </trkpt>
      <trkpt lat="44.93614" lon="-0.17994">
        <ele>37</ele>
      </trkpt>
      <trkpt lat="44.93618" lon="-0.17994">
        <ele>37</ele>
      </trkpt>
      <trkpt lat="44.93632" lon="-0.17994">
        <ele>37</ele>
      </trkpt>
      <trkpt lat="44.93652" lon="-0.17994">
        <ele>37</ele>
      </trkpt>
      <trkpt lat="44.93687" lon="-0.17995">
        <ele>37</ele>
      </trkpt>
      <trkpt lat="44.93732" lon="-0.17997">
        <ele>37</ele>
      </trkpt>
      <trkpt lat="44.93778" lon="-0.17999">
        <ele>37</ele>
      </trkpt>
      <trkpt lat="44.93807" lon="-0.17999">
        <ele>39</ele>
      </trkpt>
      <trkpt lat="44.93825" lon="-0.17999">
        <ele>39</ele>
      </trkpt>
      <trkpt lat="44.9384" lon="-0.17998">
        <ele>39</ele>
      </trkpt>
      <trkpt lat="44.93842" lon="-0.17998">
        <ele>39</ele>
      </trkpt>
      <trkpt lat="44.93852" lon="-0.17997">
        <ele>39</ele>
      </trkpt>
      <trkpt lat="44.93864" lon="-0.17994">
        <ele>39</ele>
      </trkpt>
      <trkpt lat="44.93875" lon="-0.1799">
        <ele>39</ele>
      </trkpt>
      <trkpt lat="44.93886" lon="-0.17984">
        <ele>40</ele>
      </trkpt>
      <trkpt lat="44.93899" lon="-0.17976">
        <ele>40</ele>
      </trkpt>
      <trkpt lat="44.93909" lon="-0.17968">
        <ele>40</ele>
      </trkpt>
      <trkpt lat="44.93917" lon="-0.1796">
        <ele>40</ele>
      </trkpt>
      <trkpt lat="44.93929" lon="-0.17948">
        <ele>40</ele>
      </trkpt>
      <trkpt lat="44.9396" lon="-0.17914">
        <ele>42</ele>
      </trkpt>
      <trkpt lat="44.93996" lon="-0.17875">
        <ele>40</ele>
      </trkpt>
      <trkpt lat="44.93999" lon="-0.1787">
        <ele>40</ele>
      </trkpt>
      <trkpt lat="44.94019" lon="-0.17843">
        <ele>40</ele>
      </trkpt>
      <trkpt lat="44.94041" lon="-0.17808">
        <ele>40</ele>
      </trkpt>
      <trkpt lat="44.94073" lon="-0.17757">
        <ele>42</ele>
      </trkpt>
      <trkpt lat="44.94104" lon="-0.17699">
        <ele>41</ele>
      </trkpt>
      <trkpt lat="44.94135" lon="-0.17635">
        <ele>43</ele>
      </trkpt>
      <trkpt lat="44.94158" lon="-0.17588">
        <ele>43</ele>
      </trkpt>
      <trkpt lat="44.94181" lon="-0.17544">
        <ele>43</ele>
      </trkpt>
      <trkpt lat="44.942" lon="-0.17506">
        <ele>46</ele>
      </trkpt>
      <trkpt lat="44.94224" lon="-0.17448">
        <ele>46</ele>
      </trkpt>
      <trkpt lat="44.94243" lon="-0.17401">
        <ele>46</ele>
      </trkpt>
      <trkpt lat="44.94245" lon="-0.17394">
        <ele>46</ele>
      </trkpt>
      <trkpt lat="44.9425" lon="-0.1738">
        <ele>46</ele>
      </trkpt>
      <trkpt lat="44.94253" lon="-0.1737">
        <ele>47</ele>
      </trkpt>
      <trkpt lat="44.94258" lon="-0.17355">
        <ele>47</ele>
      </trkpt>
      <trkpt lat="44.94264" lon="-0.17336">
        <ele>47</ele>
      </trkpt>
      <trkpt lat="44.94279" lon="-0.17273">
        <ele>49</ele>
      </trkpt>
      <trkpt lat="44.94291" lon="-0.17221">
        <ele>49</ele>
      </trkpt>
      <trkpt lat="44.94298" lon="-0.17196">
        <ele>45</ele>
      </trkpt>
      <trkpt lat="44.94302" lon="-0.17184">
        <ele>45</ele>
      </trkpt>
      <trkpt lat="44.94296" lon="-0.17181">
        <ele>45</ele>
      </trkpt>
      <trkpt lat="44.9427" lon="-0.17175">
        <ele>46</ele>
      </trkpt>
      <trkpt lat="44.94226" lon="-0.17163">
        <ele>46</ele>
      </trkpt>
      <trkpt lat="44.94186" lon="-0.17151">
        <ele>43</ele>
      </trkpt>
      <trkpt lat="44.94146" lon="-0.17138">
        <ele>43</ele>
      </trkpt>
      <trkpt lat="44.94103" lon="-0.17126">
        <ele>42</ele>
      </trkpt>
      <trkpt lat="44.94091" lon="-0.17125">
        <ele>42</ele>
      </trkpt>
      <trkpt lat="44.94087" lon="-0.17125">
        <ele>42</ele>
      </trkpt>
      <trkpt lat="44.94047" lon="-0.17123">
        <ele>42</ele>
      </trkpt>
      <trkpt lat="44.94015" lon="-0.17119">
        <ele>40</ele>
      </trkpt>
      <trkpt lat="44.94002" lon="-0.17118">
        <ele>40</ele>
      </trkpt>
      <trkpt lat="44.93994" lon="-0.17118">
        <ele>40</ele>
      </trkpt>
      <trkpt lat="44.93986" lon="-0.17123">
        <ele>40</ele>
      </trkpt>
      <trkpt lat="44.93968" lon="-0.17135">
        <ele>40</ele>
      </trkpt>
      <trkpt lat="44.93951" lon="-0.17147">
        <ele>38</ele>
      </trkpt>
      <trkpt lat="44.93941" lon="-0.17152">
        <ele>38</ele>
      </trkpt>
      <trkpt lat="44.93938" lon="-0.17151">
        <ele>38</ele>
      </trkpt>
      <trkpt lat="44.93935" lon="-0.1715">
        <ele>38</ele>
      </trkpt>
      <trkpt lat="44.93928" lon="-0.17142">
        <ele>38</ele>
      </trkpt>
      <trkpt lat="44.93924" lon="-0.17134">
        <ele>38</ele>
      </trkpt>
      <trkpt lat="44.9392" lon="-0.17123">
        <ele>38</ele>
      </trkpt>
      <trkpt lat="44.93919" lon="-0.17118">
        <ele>38</ele>
      </trkpt>
      <trkpt lat="44.93915" lon="-0.17094">
        <ele>38</ele>
      </trkpt>
      <trkpt lat="44.93911" lon="-0.17091">
        <ele>38</ele>
      </trkpt>
      <trkpt lat="44.93906" lon="-0.17089">
        <ele>38</ele>
      </trkpt>
      <trkpt lat="44.939" lon="-0.17087">
        <ele>38</ele>
      </trkpt>
      <trkpt lat="44.93893" lon="-0.17085">
        <ele>38</ele>
      </trkpt>
      <trkpt lat="44.93886" lon="-0.17082">
        <ele>38</ele>
      </trkpt>
      <trkpt lat="44.93882" lon="-0.17078">
        <ele>38</ele>
      </trkpt>
      <trkpt lat="44.93876" lon="-0.17068">
        <ele>38</ele>
      </trkpt>
      <trkpt lat="44.93872" lon="-0.17055">
        <ele>34</ele>
      </trkpt>
      <trkpt lat="44.93868" lon="-0.17042">
        <ele>34</ele>
      </trkpt>
      <trkpt lat="44.93867" lon="-0.17037">
        <ele>35</ele>
      </trkpt>
      <trkpt lat="44.93864" lon="-0.1703">
        <ele>35</ele>
      </trkpt>
      <trkpt lat="44.93859" lon="-0.17018">
        <ele>35</ele>
      </trkpt>
      <trkpt lat="44.93847" lon="-0.17">
        <ele>35</ele>
      </trkpt>
      <trkpt lat="44.93829" lon="-0.16976">
        <ele>35</ele>
      </trkpt>
      <trkpt lat="44.93823" lon="-0.16967">
        <ele>35</ele>
      </trkpt>
      <trkpt lat="44.93808" lon="-0.16939">
        <ele>35</ele>
      </trkpt>
      <trkpt lat="44.93789" lon="-0.16897">
        <ele>33</ele>
      </trkpt>
      <trkpt lat="44.93778" lon="-0.16871">
        <ele>34</ele>
      </trkpt>
      <trkpt lat="44.93777" lon="-0.16866">
        <ele>34</ele>
      </trkpt>
      <trkpt lat="44.93777" lon="-0.16858">
        <ele>34</ele>
      </trkpt>
      <trkpt lat="44.93778" lon="-0.16851">
        <ele>34</ele>
      </trkpt>
      <trkpt lat="44.9378" lon="-0.16845">
        <ele>34</ele>
      </trkpt>
      <trkpt lat="44.93783" lon="-0.16841">
        <ele>34</ele>
      </trkpt>
      <trkpt lat="44.93796" lon="-0.16826">
        <ele>35</ele>
      </trkpt>
      <trkpt lat="44.93822" lon="-0.16801">
        <ele>35</ele>
      </trkpt>
      <trkpt lat="44.93845" lon="-0.16781">
        <ele>36</ele>
      </trkpt>
      <trkpt lat="44.93871" lon="-0.16758">
        <ele>36</ele>
      </trkpt>
      <trkpt lat="44.93881" lon="-0.16746">
        <ele>38</ele>
      </trkpt>
      <trkpt lat="44.93904" lon="-0.16717">
        <ele>38</ele>
      </trkpt>
      <trkpt lat="44.93929" lon="-0.1668">
        <ele>39</ele>
      </trkpt>
      <trkpt lat="44.9395" lon="-0.16644">
        <ele>39</ele>
      </trkpt>
      <trkpt lat="44.93954" lon="-0.16632">
        <ele>39</ele>
      </trkpt>
      <trkpt lat="44.93956" lon="-0.16622">
        <ele>40</ele>
      </trkpt>
      <trkpt lat="44.93956" lon="-0.16615">
        <ele>40</ele>
      </trkpt>
      <trkpt lat="44.93955" lon="-0.16593">
        <ele>40</ele>
      </trkpt>
      <trkpt lat="44.93953" lon="-0.16561">
        <ele>40</ele>
      </trkpt>
      <trkpt lat="44.93951" lon="-0.16543">
        <ele>40</ele>
      </trkpt>
      <trkpt lat="44.9395" lon="-0.16526">
        <ele>40</ele>
      </trkpt>
      <trkpt lat="44.93947" lon="-0.16504">
        <ele>40</ele>
      </trkpt>
      <trkpt lat="44.9394" lon="-0.1646">
        <ele>40</ele>
      </trkpt>
      <trkpt lat="44.93934" lon="-0.16424">
        <ele>42</ele>
      </trkpt>
      <trkpt lat="44.93932" lon="-0.16406">
        <ele>42</ele>
      </trkpt>
      <trkpt lat="44.93932" lon="-0.16392">
        <ele>42</ele>
      </trkpt>
      <trkpt lat="44.93934" lon="-0.1637">
        <ele>41</ele>
      </trkpt>
      <trkpt lat="44.93934" lon="-0.16365">
        <ele>41</ele>
      </trkpt>
      <trkpt lat="44.93938" lon="-0.16345">
        <ele>41</ele>
      </trkpt>
      <trkpt lat="44.93944" lon="-0.16322">
        <ele>41</ele>
      </trkpt>
      <trkpt lat="44.93953" lon="-0.16297">
        <ele>41</ele>
      </trkpt>
      <trkpt lat="44.93963" lon="-0.16269">
        <ele>44</ele>
      </trkpt>
      <trkpt lat="44.93966" lon="-0.16258">
        <ele>44</ele>
      </trkpt>
      <trkpt lat="44.93967" lon="-0.16248">
        <ele>44</ele>
      </trkpt>
      <trkpt lat="44.93966" lon="-0.16242">
        <ele>44</ele>
      </trkpt>
      <trkpt lat="44.93965" lon="-0.16236">
        <ele>44</ele>
      </trkpt>
      <trkpt lat="44.93963" lon="-0.16228">
        <ele>44</ele>
      </trkpt>
      <trkpt lat="44.9396" lon="-0.16222">
        <ele>44</ele>
      </trkpt>
      <trkpt lat="44.93957" lon="-0.16215">
        <ele>43</ele>
      </trkpt>
      <trkpt lat="44.93932" lon="-0.16165">
        <ele>44</ele>
      </trkpt>
      <trkpt lat="44.93909" lon="-0.16118">
        <ele>45</ele>
      </trkpt>
      <trkpt lat="44.93893" lon="-0.16084">
        <ele>45</ele>
      </trkpt>
      <trkpt lat="44.93873" lon="-0.16042">
        <ele>42</ele>
      </trkpt>
      <trkpt lat="44.9386" lon="-0.16012">
        <ele>43</ele>
      </trkpt>
      <trkpt lat="44.93851" lon="-0.15989">
        <ele>43</ele>
      </trkpt>
      <trkpt lat="44.93833" lon="-0.15925">
        <ele>44</ele>
      </trkpt>
      <trkpt lat="44.93825" lon="-0.15908">
        <ele>44</ele>
      </trkpt>
      <trkpt lat="44.93812" lon="-0.15893">
        <ele>44</ele>
      </trkpt>
      <trkpt lat="44.93788" lon="-0.15873">
        <ele>44</ele>
      </trkpt>
      <trkpt lat="44.93802" lon="-0.15817">
        <ele>45</ele>
      </trkpt>
      <trkpt lat="44.93816" lon="-0.15771">
        <ele>44</ele>
      </trkpt>
      <trkpt lat="44.93845" lon="-0.1569">
        <ele>46</ele>
      </trkpt>
      <trkpt lat="44.93861" lon="-0.15643">
        <ele>46</ele>
      </trkpt>
      <trkpt lat="44.93876" lon="-0.15583">
        <ele>48</ele>
      </trkpt>
      <trkpt lat="44.93892" lon="-0.15511">
        <ele>48</ele>
      </trkpt>
      <trkpt lat="44.93903" lon="-0.15447">
        <ele>50</ele>
      </trkpt>
      <trkpt lat="44.93908" lon="-0.15409">
        <ele>50</ele>
      </trkpt>
      <trkpt lat="44.9391" lon="-0.15396">
        <ele>50</ele>
      </trkpt>
      <trkpt lat="44.93914" lon="-0.15349">
        <ele>51</ele>
      </trkpt>
      <trkpt lat="44.93914" lon="-0.15344">
        <ele>51</ele>
      </trkpt>
      <trkpt lat="44.93915" lon="-0.15338">
        <ele>51</ele>
      </trkpt>
      <trkpt lat="44.93917" lon="-0.15308">
        <ele>51</ele>
      </trkpt>
      <trkpt lat="44.93918" lon="-0.15283">
        <ele>51</ele>
      </trkpt>
      <trkpt lat="44.93925" lon="-0.15204">
        <ele>51</ele>
      </trkpt>
      <trkpt lat="44.93931" lon="-0.15133">
        <ele>51</ele>
      </trkpt>
      <trkpt lat="44.93938" lon="-0.15063">
        <ele>51</ele>
      </trkpt>
      <trkpt lat="44.93939" lon="-0.15026">
        <ele>52</ele>
      </trkpt>
      <trkpt lat="44.93938" lon="-0.15008">
        <ele>52</ele>
      </trkpt>
      <trkpt lat="44.93932" lon="-0.14966">
        <ele>52</ele>
      </trkpt>
      <trkpt lat="44.9393" lon="-0.14956">
        <ele>54</ele>
      </trkpt>
      <trkpt lat="44.93924" lon="-0.14928">
        <ele>54</ele>
      </trkpt>
      <trkpt lat="44.93919" lon="-0.14907">
        <ele>54</ele>
      </trkpt>
      <trkpt lat="44.93911" lon="-0.14886">
        <ele>54</ele>
      </trkpt>
      <trkpt lat="44.939" lon="-0.1486">
        <ele>57</ele>
      </trkpt>
      <trkpt lat="44.93881" lon="-0.14815">
        <ele>57</ele>
      </trkpt>
      <trkpt lat="44.93862" lon="-0.14771">
        <ele>57</ele>
      </trkpt>
      <trkpt lat="44.93845" lon="-0.14725">
        <ele>57</ele>
      </trkpt>
      <trkpt lat="44.93826" lon="-0.14671">
        <ele>59</ele>
      </trkpt>
      <trkpt lat="44.93823" lon="-0.14662">
        <ele>59</ele>
      </trkpt>
      <trkpt lat="44.93814" lon="-0.1464">
        <ele>59</ele>
      </trkpt>
      <trkpt lat="44.93791" lon="-0.14583">
        <ele>62</ele>
      </trkpt>
      <trkpt lat="44.93776" lon="-0.14544">
        <ele>62</ele>
      </trkpt>
      <trkpt lat="44.93771" lon="-0.14531">
        <ele>65</ele>
      </trkpt>
      <trkpt lat="44.93755" lon="-0.14486">
        <ele>65</ele>
      </trkpt>
      <trkpt lat="44.93737" lon="-0.1442">
        <ele>65</ele>
      </trkpt>
      <trkpt lat="44.9372" lon="-0.14358">
        <ele>67</ele>
      </trkpt>
      <trkpt lat="44.93709" lon="-0.1432">
        <ele>67</ele>
      </trkpt>
      <trkpt lat="44.93707" lon="-0.143">
        <ele>67</ele>
      </trkpt>
      <trkpt lat="44.93706" lon="-0.14283">
        <ele>71</ele>
      </trkpt>
      <trkpt lat="44.93707" lon="-0.14265">
        <ele>71</ele>
      </trkpt>
      <trkpt lat="44.9371" lon="-0.14245">
        <ele>71</ele>
      </trkpt>
      <trkpt lat="44.93713" lon="-0.14215">
        <ele>71</ele>
      </trkpt>
      <trkpt lat="44.93715" lon="-0.14194">
        <ele>80</ele>
      </trkpt>
      <trkpt lat="44.93715" lon="-0.14175">
        <ele>80</ele>
      </trkpt>
      <trkpt lat="44.93714" lon="-0.14158">
        <ele>80</ele>
      </trkpt>
      <trkpt lat="44.93714" lon="-0.14133">
        <ele>80</ele>
      </trkpt>
      <trkpt lat="44.93712" lon="-0.14101">
        <ele>86</ele>
      </trkpt>
      <trkpt lat="44.9371" lon="-0.14073">
        <ele>86</ele>
      </trkpt>
      <trkpt lat="44.9371" lon="-0.1407">
        <ele>86</ele>
      </trkpt>
      <trkpt lat="44.93708" lon="-0.14047">
        <ele>85</ele>
      </trkpt>
      <trkpt lat="44.93705" lon="-0.14027">
        <ele>87</ele>
      </trkpt>
      <trkpt lat="44.93701" lon="-0.14005">
        <ele>87</ele>
      </trkpt>
      <trkpt lat="44.93694" lon="-0.13985">
        <ele>87</ele>
      </trkpt>
      <trkpt lat="44.93688" lon="-0.13966">
        <ele>87</ele>
      </trkpt>
      <trkpt lat="44.93681" lon="-0.1395">
        <ele>86</ele>
      </trkpt>
      <trkpt lat="44.93669" lon="-0.13929">
        <ele>86</ele>
      </trkpt>
      <trkpt lat="44.93652" lon="-0.139">
        <ele>86</ele>
      </trkpt>
      <trkpt lat="44.93639" lon="-0.13869">
        <ele>84</ele>
      </trkpt>
      <trkpt lat="44.93629" lon="-0.13846">
        <ele>84</ele>
      </trkpt>
      <trkpt lat="44.93609" lon="-0.13784">
        <ele>79</ele>
      </trkpt>
      <trkpt lat="44.93595" lon="-0.13743">
        <ele>79</ele>
      </trkpt>
      <trkpt lat="44.93588" lon="-0.1372">
        <ele>79</ele>
      </trkpt>
      <trkpt lat="44.93586" lon="-0.13703">
        <ele>80</ele>
      </trkpt>
      <trkpt lat="44.93584" lon="-0.13692">
        <ele>80</ele>
      </trkpt>
      <trkpt lat="44.93577" lon="-0.13666">
        <ele>80</ele>
      </trkpt>
      <trkpt lat="44.93569" lon="-0.1363">
        <ele>80</ele>
      </trkpt>
      <trkpt lat="44.93562" lon="-0.13597">
        <ele>82</ele>
      </trkpt>
      <trkpt lat="44.9356" lon="-0.13588">
        <ele>82</ele>
      </trkpt>
      <trkpt lat="44.93554" lon="-0.13552">
        <ele>82</ele>
      </trkpt>
      <trkpt lat="44.93544" lon="-0.13502">
        <ele>81</ele>
      </trkpt>
      <trkpt lat="44.93534" lon="-0.13449">
        <ele>73</ele>
      </trkpt>
      <trkpt lat="44.9353" lon="-0.13423">
        <ele>73</ele>
      </trkpt>
      <trkpt lat="44.93526" lon="-0.13398">
        <ele>73</ele>
      </trkpt>
      <trkpt lat="44.93524" lon="-0.13371">
        <ele>71</ele>
      </trkpt>
      <trkpt lat="44.93524" lon="-0.13345">
        <ele>71</ele>
      </trkpt>
      <trkpt lat="44.93523" lon="-0.13322">
        <ele>71</ele>
      </trkpt>
      <trkpt lat="44.9352" lon="-0.13307">
        <ele>71</ele>
      </trkpt>
      <trkpt lat="44.93516" lon="-0.13294">
        <ele>71</ele>
      </trkpt>
      <trkpt lat="44.9351" lon="-0.13281">
        <ele>74</ele>
      </trkpt>
      <trkpt lat="44.93499" lon="-0.13268">
        <ele>74</ele>
      </trkpt>
      <trkpt lat="44.93479" lon="-0.13244">
        <ele>74</ele>
      </trkpt>
      <trkpt lat="44.93472" lon="-0.13234">
        <ele>74</ele>
      </trkpt>
      <trkpt lat="44.93461" lon="-0.13218">
        <ele>74</ele>
      </trkpt>
      <trkpt lat="44.93437" lon="-0.13182">
        <ele>71</ele>
      </trkpt>
      <trkpt lat="44.93422" lon="-0.13158">
        <ele>71</ele>
      </trkpt>
      <trkpt lat="44.93408" lon="-0.13129">
        <ele>71</ele>
      </trkpt>
      <trkpt lat="44.93393" lon="-0.13091">
        <ele>73</ele>
      </trkpt>
      <trkpt lat="44.93382" lon="-0.13061">
        <ele>73</ele>
      </trkpt>
      <trkpt lat="44.9337" lon="-0.13052">
        <ele>71</ele>
      </trkpt>
      <trkpt lat="44.9336" lon="-0.13046">
        <ele>71</ele>
      </trkpt>
      <trkpt lat="44.93349" lon="-0.13042">
        <ele>71</ele>
      </trkpt>
      <trkpt lat="44.9334" lon="-0.13039">
        <ele>75</ele>
      </trkpt>
      <trkpt lat="44.93329" lon="-0.13038">
        <ele>75</ele>
      </trkpt>
      <trkpt lat="44.93312" lon="-0.13037">
        <ele>75</ele>
      </trkpt>
      <trkpt lat="44.93283" lon="-0.13033">
        <ele>73</ele>
      </trkpt>
      <trkpt lat="44.93239" lon="-0.13029">
        <ele>73</ele>
      </trkpt>
      <trkpt lat="44.93179" lon="-0.13021">
        <ele>80</ele>
      </trkpt>
      <trkpt lat="44.93132" lon="-0.13016">
        <ele>80</ele>
      </trkpt>
      <trkpt lat="44.93089" lon="-0.13012">
        <ele>87</ele>
      </trkpt>
      <trkpt lat="44.93049" lon="-0.13007">
        <ele>87</ele>
      </trkpt>
      <trkpt lat="44.93038" lon="-0.13004">
        <ele>87</ele>
      </trkpt>
      <trkpt lat="44.93032" lon="-0.13001">
        <ele>87</ele>
      </trkpt>
      <trkpt lat="44.93034" lon="-0.12984">
        <ele>87</ele>
      </trkpt>
      <trkpt lat="44.93035" lon="-0.12956">
        <ele>91</ele>
      </trkpt>
      <trkpt lat="44.93038" lon="-0.12919">
        <ele>91</ele>
      </trkpt>
      <trkpt lat="44.93037" lon="-0.12909">
        <ele>91</ele>
      </trkpt>
      <trkpt lat="44.93035" lon="-0.129">
        <ele>91</ele>
      </trkpt>
      <trkpt lat="44.93029" lon="-0.12881">
        <ele>91</ele>
      </trkpt>
      <trkpt lat="44.93027" lon="-0.12874">
        <ele>91</ele>
      </trkpt>
      <trkpt lat="44.93019" lon="-0.12857">
        <ele>91</ele>
      </trkpt>
    </trkseg>
  </trk>
  <trk>
    <name><![CDATA[Traces DPT 33_8]]></name>
    <extensions>
      <line xmlns="http://www.topografix.com/GPX/gpx_style/0/2">
        <color>008800</color>
        <width>4</width>
      </line>
    </extensions>
    <trkseg>
      <trkpt lat="44.93034" lon="-0.12989">
        <ele>86.6</ele>
      </trkpt>
      <trkpt lat="44.93032" lon="-0.13001">
        <ele>85.9</ele>
      </trkpt>
      <trkpt lat="44.9302" lon="-0.13007">
        <ele>85.3</ele>
      </trkpt>
      <trkpt lat="44.93007" lon="-0.13013">
        <ele>84.7</ele>
      </trkpt>
      <trkpt lat="44.93004" lon="-0.13014">
        <ele>84.6</ele>
      </trkpt>
      <trkpt lat="44.92976" lon="-0.13031">
        <ele>83.9</ele>
      </trkpt>
      <trkpt lat="44.92949" lon="-0.1305">
        <ele>83</ele>
      </trkpt>
      <trkpt lat="44.9293" lon="-0.13066">
        <ele>82.1</ele>
      </trkpt>
      <trkpt lat="44.92912" lon="-0.13078">
        <ele>81</ele>
      </trkpt>
      <trkpt lat="44.92889" lon="-0.13093">
        <ele>80</ele>
      </trkpt>
      <trkpt lat="44.92864" lon="-0.13112">
        <ele>78.2</ele>
      </trkpt>
      <trkpt lat="44.92847" lon="-0.13127">
        <ele>77.5</ele>
      </trkpt>
      <trkpt lat="44.92835" lon="-0.13139">
        <ele>77.1</ele>
      </trkpt>
      <trkpt lat="44.92822" lon="-0.13155">
        <ele>77.3</ele>
      </trkpt>
      <trkpt lat="44.92818" lon="-0.1316">
        <ele>77.3</ele>
      </trkpt>
      <trkpt lat="44.92805" lon="-0.13177">
        <ele>77.4</ele>
      </trkpt>
      <trkpt lat="44.92786" lon="-0.13197">
        <ele>77.3</ele>
      </trkpt>
      <trkpt lat="44.92783" lon="-0.13192">
        <ele>77.1</ele>
      </trkpt>
      <trkpt lat="44.92781" lon="-0.13188">
        <ele>76.9</ele>
      </trkpt>
      <trkpt lat="44.92783" lon="-0.13192">
        <ele>77.1</ele>
      </trkpt>
      <trkpt lat="44.92786" lon="-0.13197">
        <ele>77.3</ele>
      </trkpt>
      <trkpt lat="44.92767" lon="-0.13207">
        <ele>76.4</ele>
      </trkpt>
      <trkpt lat="44.92745" lon="-0.13216">
        <ele>75.5</ele>
      </trkpt>
      <trkpt lat="44.92725" lon="-0.13227">
        <ele>74.4</ele>
      </trkpt>
      <trkpt lat="44.92715" lon="-0.13233">
        <ele>73.6</ele>
      </trkpt>
      <trkpt lat="44.92712" lon="-0.13235">
        <ele>73.4</ele>
      </trkpt>
      <trkpt lat="44.92711" lon="-0.13237">
        <ele>73.3</ele>
      </trkpt>
      <trkpt lat="44.9271" lon="-0.13241">
        <ele>73.4</ele>
      </trkpt>
      <trkpt lat="44.92709" lon="-0.13243">
        <ele>73.3</ele>
      </trkpt>
      <trkpt lat="44.92707" lon="-0.13255">
        <ele>73.5</ele>
      </trkpt>
      <trkpt lat="44.92706" lon="-0.13258">
        <ele>73.4</ele>
      </trkpt>
      <trkpt lat="44.92706" lon="-0.13259">
        <ele>73.4</ele>
      </trkpt>
      <trkpt lat="44.92704" lon="-0.13298">
        <ele>73.7</ele>
      </trkpt>
      <trkpt lat="44.92703" lon="-0.133">
        <ele>73.6</ele>
      </trkpt>
      <trkpt lat="44.92703" lon="-0.13319">
        <ele>73.5</ele>
      </trkpt>
      <trkpt lat="44.92703" lon="-0.13323">
        <ele>73.4</ele>
      </trkpt>
      <trkpt lat="44.92703" lon="-0.13327">
        <ele>73.4</ele>
      </trkpt>
      <trkpt lat="44.92704" lon="-0.13331">
        <ele>73.4</ele>
      </trkpt>
      <trkpt lat="44.92705" lon="-0.13334">
        <ele>73.4</ele>
      </trkpt>
      <trkpt lat="44.92706" lon="-0.13338">
        <ele>73.3</ele>
      </trkpt>
      <trkpt lat="44.92707" lon="-0.13341">
        <ele>73.3</ele>
      </trkpt>
      <trkpt lat="44.92714" lon="-0.13353">
        <ele>73.5</ele>
      </trkpt>
      <trkpt lat="44.92734" lon="-0.13394">
        <ele>73.6</ele>
      </trkpt>
      <trkpt lat="44.92738" lon="-0.13404">
        <ele>73.4</ele>
      </trkpt>
      <trkpt lat="44.9275" lon="-0.13431">
        <ele>73.5</ele>
      </trkpt>
      <trkpt lat="44.9275" lon="-0.13432">
        <ele>73.4</ele>
      </trkpt>
      <trkpt lat="44.92764" lon="-0.13467">
        <ele>73.6</ele>
      </trkpt>
      <trkpt lat="44.92765" lon="-0.1347">
        <ele>73.6</ele>
      </trkpt>
      <trkpt lat="44.92768" lon="-0.13487">
        <ele>73.1</ele>
      </trkpt>
      <trkpt lat="44.92769" lon="-0.13498">
        <ele>72.8</ele>
      </trkpt>
      <trkpt lat="44.9277" lon="-0.13516">
        <ele>71.7</ele>
      </trkpt>
      <trkpt lat="44.9277" lon="-0.13529">
        <ele>70.9</ele>
      </trkpt>
      <trkpt lat="44.9277" lon="-0.1355">
        <ele>69.4</ele>
      </trkpt>
      <trkpt lat="44.92767" lon="-0.1358">
        <ele>68.1</ele>
      </trkpt>
      <trkpt lat="44.92766" lon="-0.136">
        <ele>67.7</ele>
      </trkpt>
      <trkpt lat="44.92766" lon="-0.13606">
        <ele>67.7</ele>
      </trkpt>
      <trkpt lat="44.92767" lon="-0.13612">
        <ele>67.6</ele>
      </trkpt>
      <trkpt lat="44.92796" lon="-0.1366">
        <ele>67.5</ele>
      </trkpt>
      <trkpt lat="44.92793" lon="-0.13667">
        <ele>67.5</ele>
      </trkpt>
      <trkpt lat="44.92793" lon="-0.13667">
        <ele>67.5</ele>
      </trkpt>
      <trkpt lat="44.9278" lon="-0.13696">
        <ele>66</ele>
      </trkpt>
      <trkpt lat="44.92788" lon="-0.13724">
        <ele>65.7</ele>
      </trkpt>
      <trkpt lat="44.928" lon="-0.13772">
        <ele>64.4</ele>
      </trkpt>
      <trkpt lat="44.9281" lon="-0.13823">
        <ele>62.5</ele>
      </trkpt>
      <trkpt lat="44.92814" lon="-0.13849">
        <ele>61.6</ele>
      </trkpt>
      <trkpt lat="44.92814" lon="-0.13852">
        <ele>61.4</ele>
      </trkpt>
      <trkpt lat="44.92814" lon="-0.13856">
        <ele>61.2</ele>
      </trkpt>
      <trkpt lat="44.92814" lon="-0.13859">
        <ele>61.1</ele>
      </trkpt>
      <trkpt lat="44.92814" lon="-0.13863">
        <ele>60.9</ele>
      </trkpt>
      <trkpt lat="44.92813" lon="-0.13867">
        <ele>60.8</ele>
      </trkpt>
      <trkpt lat="44.92808" lon="-0.13879">
        <ele>60.4</ele>
      </trkpt>
      <trkpt lat="44.928" lon="-0.13907">
        <ele>58.8</ele>
      </trkpt>
      <trkpt lat="44.92789" lon="-0.1394">
        <ele>57.8</ele>
      </trkpt>
      <trkpt lat="44.92779" lon="-0.13962">
        <ele>56.7</ele>
      </trkpt>
      <trkpt lat="44.92778" lon="-0.13966">
        <ele>56.4</ele>
      </trkpt>
      <trkpt lat="44.92778" lon="-0.1397">
        <ele>56.2</ele>
      </trkpt>
      <trkpt lat="44.92777" lon="-0.13973">
        <ele>55.9</ele>
      </trkpt>
      <trkpt lat="44.92778" lon="-0.13975">
        <ele>55.7</ele>
      </trkpt>
      <trkpt lat="44.92778" lon="-0.13977">
        <ele>55.5</ele>
      </trkpt>
      <trkpt lat="44.92778" lon="-0.13979">
        <ele>55.3</ele>
      </trkpt>
      <trkpt lat="44.92787" lon="-0.14016">
        <ele>50.9</ele>
      </trkpt>
      <trkpt lat="44.92795" lon="-0.14053">
        <ele>47</ele>
      </trkpt>
      <trkpt lat="44.92796" lon="-0.14057">
        <ele>46.5</ele>
      </trkpt>
      <trkpt lat="44.92796" lon="-0.14059">
        <ele>46.3</ele>
      </trkpt>
      <trkpt lat="44.92796" lon="-0.1406">
        <ele>46.2</ele>
      </trkpt>
      <trkpt lat="44.92796" lon="-0.14062">
        <ele>46</ele>
      </trkpt>
      <trkpt lat="44.92796" lon="-0.14063">
        <ele>45.9</ele>
      </trkpt>
      <trkpt lat="44.92795" lon="-0.14065">
        <ele>45.7</ele>
      </trkpt>
      <trkpt lat="44.92795" lon="-0.14066">
        <ele>45.6</ele>
      </trkpt>
      <trkpt lat="44.92794" lon="-0.14069">
        <ele>45.4</ele>
      </trkpt>
      <trkpt lat="44.92793" lon="-0.14071">
        <ele>45.2</ele>
      </trkpt>
      <trkpt lat="44.92783" lon="-0.14084">
        <ele>44.6</ele>
      </trkpt>
      <trkpt lat="44.92782" lon="-0.14085">
        <ele>44.6</ele>
      </trkpt>
      <trkpt lat="44.92782" lon="-0.14086">
        <ele>44.5</ele>
      </trkpt>
      <trkpt lat="44.92778" lon="-0.14096">
        <ele>44.1</ele>
      </trkpt>
      <trkpt lat="44.92778" lon="-0.14097">
        <ele>44</ele>
      </trkpt>
      <trkpt lat="44.92777" lon="-0.141">
        <ele>43.8</ele>
      </trkpt>
      <trkpt lat="44.92777" lon="-0.14102">
        <ele>43.7</ele>
      </trkpt>
      <trkpt lat="44.92777" lon="-0.14104">
        <ele>43.5</ele>
      </trkpt>
      <trkpt lat="44.92777" lon="-0.14107">
        <ele>43.3</ele>
      </trkpt>
      <trkpt lat="44.92777" lon="-0.14109">
        <ele>43.2</ele>
      </trkpt>
      <trkpt lat="44.92777" lon="-0.1411">
        <ele>43.1</ele>
      </trkpt>
      <trkpt lat="44.9278" lon="-0.14123">
        <ele>42.6</ele>
      </trkpt>
      <trkpt lat="44.9278" lon="-0.14124">
        <ele>42.5</ele>
      </trkpt>
      <trkpt lat="44.9278" lon="-0.14125">
        <ele>42.5</ele>
      </trkpt>
      <trkpt lat="44.9278" lon="-0.14127">
        <ele>42.4</ele>
      </trkpt>
      <trkpt lat="44.92787" lon="-0.14144">
        <ele>42.3</ele>
      </trkpt>
      <trkpt lat="44.9279" lon="-0.14155">
        <ele>42.4</ele>
      </trkpt>
      <trkpt lat="44.92793" lon="-0.14163">
        <ele>42.5</ele>
      </trkpt>
      <trkpt lat="44.92793" lon="-0.14165">
        <ele>42.5</ele>
      </trkpt>
      <trkpt lat="44.92793" lon="-0.14166">
        <ele>42.5</ele>
      </trkpt>
      <trkpt lat="44.92794" lon="-0.14174">
        <ele>42.7</ele>
      </trkpt>
      <trkpt lat="44.92793" lon="-0.14178">
        <ele>42.8</ele>
      </trkpt>
      <trkpt lat="44.92793" lon="-0.14181">
        <ele>42.8</ele>
      </trkpt>
      <trkpt lat="44.92793" lon="-0.14185">
        <ele>42.9</ele>
      </trkpt>
      <trkpt lat="44.92793" lon="-0.14186">
        <ele>42.9</ele>
      </trkpt>
      <trkpt lat="44.9279" lon="-0.14198">
        <ele>43</ele>
      </trkpt>
      <trkpt lat="44.92782" lon="-0.14211">
        <ele>42.9</ele>
      </trkpt>
      <trkpt lat="44.92775" lon="-0.14219">
        <ele>42.7</ele>
      </trkpt>
      <trkpt lat="44.92773" lon="-0.14222">
        <ele>42.6</ele>
      </trkpt>
      <trkpt lat="44.92771" lon="-0.14226">
        <ele>42.6</ele>
      </trkpt>
      <trkpt lat="44.9277" lon="-0.14227">
        <ele>42.6</ele>
      </trkpt>
      <trkpt lat="44.92768" lon="-0.14232">
        <ele>42.6</ele>
      </trkpt>
      <trkpt lat="44.92766" lon="-0.14235">
        <ele>42.6</ele>
      </trkpt>
      <trkpt lat="44.92766" lon="-0.14238">
        <ele>42.7</ele>
      </trkpt>
      <trkpt lat="44.92765" lon="-0.1424">
        <ele>42.7</ele>
      </trkpt>
      <trkpt lat="44.92765" lon="-0.14241">
        <ele>42.8</ele>
      </trkpt>
      <trkpt lat="44.92765" lon="-0.14244">
        <ele>42.9</ele>
      </trkpt>
      <trkpt lat="44.92766" lon="-0.14246">
        <ele>43</ele>
      </trkpt>
      <trkpt lat="44.92766" lon="-0.14249">
        <ele>43.1</ele>
      </trkpt>
      <trkpt lat="44.92768" lon="-0.14257">
        <ele>43.5</ele>
      </trkpt>
      <trkpt lat="44.92769" lon="-0.1426">
        <ele>43.7</ele>
      </trkpt>
      <trkpt lat="44.9277" lon="-0.14264">
        <ele>43.9</ele>
      </trkpt>
      <trkpt lat="44.92771" lon="-0.14267">
        <ele>44.1</ele>
      </trkpt>
      <trkpt lat="44.92772" lon="-0.14269">
        <ele>44.3</ele>
      </trkpt>
      <trkpt lat="44.92774" lon="-0.14272">
        <ele>44.5</ele>
      </trkpt>
      <trkpt lat="44.92776" lon="-0.14275">
        <ele>44.8</ele>
      </trkpt>
      <trkpt lat="44.92779" lon="-0.14278">
        <ele>45.1</ele>
      </trkpt>
      <trkpt lat="44.92782" lon="-0.1428">
        <ele>45.4</ele>
      </trkpt>
      <trkpt lat="44.92787" lon="-0.14283">
        <ele>45.8</ele>
      </trkpt>
      <trkpt lat="44.92798" lon="-0.14294">
        <ele>46.6</ele>
      </trkpt>
      <trkpt lat="44.9281" lon="-0.14308">
        <ele>47.4</ele>
      </trkpt>
      <trkpt lat="44.92814" lon="-0.14314">
        <ele>47.8</ele>
      </trkpt>
      <trkpt lat="44.92816" lon="-0.14318">
        <ele>48</ele>
      </trkpt>
      <trkpt lat="44.92817" lon="-0.14322">
        <ele>48.2</ele>
      </trkpt>
      <trkpt lat="44.92817" lon="-0.14325">
        <ele>48.2</ele>
      </trkpt>
      <trkpt lat="44.92818" lon="-0.14328">
        <ele>48.3</ele>
      </trkpt>
      <trkpt lat="44.92818" lon="-0.14332">
        <ele>48.4</ele>
      </trkpt>
      <trkpt lat="44.92818" lon="-0.14336">
        <ele>48.5</ele>
      </trkpt>
      <trkpt lat="44.92817" lon="-0.14342">
        <ele>48.5</ele>
      </trkpt>
      <trkpt lat="44.92813" lon="-0.14356">
        <ele>48.5</ele>
      </trkpt>
      <trkpt lat="44.92811" lon="-0.14361">
        <ele>48.4</ele>
      </trkpt>
      <trkpt lat="44.9281" lon="-0.14364">
        <ele>48.3</ele>
      </trkpt>
      <trkpt lat="44.92808" lon="-0.14368">
        <ele>48.2</ele>
      </trkpt>
      <trkpt lat="44.92806" lon="-0.14372">
        <ele>48</ele>
      </trkpt>
      <trkpt lat="44.92792" lon="-0.14395">
        <ele>47.6</ele>
      </trkpt>
      <trkpt lat="44.92779" lon="-0.14414">
        <ele>47.9</ele>
      </trkpt>
      <trkpt lat="44.92774" lon="-0.14423">
        <ele>47.7</ele>
      </trkpt>
      <trkpt lat="44.92772" lon="-0.1442">
        <ele>47.6</ele>
      </trkpt>
      <trkpt lat="44.92772" lon="-0.1442">
        <ele>47.6</ele>
      </trkpt>
      <trkpt lat="44.92774" lon="-0.14423">
        <ele>47.7</ele>
      </trkpt>
      <trkpt lat="44.92798" lon="-0.14444">
        <ele>48</ele>
      </trkpt>
      <trkpt lat="44.92806" lon="-0.14452">
        <ele>48.3</ele>
      </trkpt>
      <trkpt lat="44.9282" lon="-0.1446">
        <ele>49.8</ele>
      </trkpt>
      <trkpt lat="44.92861" lon="-0.14492">
        <ele>53</ele>
      </trkpt>
      <trkpt lat="44.9288" lon="-0.14502">
        <ele>54.4</ele>
      </trkpt>
      <trkpt lat="44.9289" lon="-0.14503">
        <ele>55</ele>
      </trkpt>
      <trkpt lat="44.92905" lon="-0.14499">
        <ele>55.5</ele>
      </trkpt>
      <trkpt lat="44.92932" lon="-0.14486">
        <ele>56.3</ele>
      </trkpt>
      <trkpt lat="44.92956" lon="-0.14477">
        <ele>57.2</ele>
      </trkpt>
      <trkpt lat="44.92979" lon="-0.14471">
        <ele>58.4</ele>
      </trkpt>
      <trkpt lat="44.92995" lon="-0.1447">
        <ele>59.6</ele>
      </trkpt>
      <trkpt lat="44.93004" lon="-0.14474">
        <ele>60.2</ele>
      </trkpt>
      <trkpt lat="44.9301" lon="-0.14478">
        <ele>60.6</ele>
      </trkpt>
      <trkpt lat="44.93011" lon="-0.14479">
        <ele>60.6</ele>
      </trkpt>
      <trkpt lat="44.93014" lon="-0.14482">
        <ele>60.9</ele>
      </trkpt>
      <trkpt lat="44.93016" lon="-0.14484">
        <ele>61</ele>
      </trkpt>
      <trkpt lat="44.93017" lon="-0.14485">
        <ele>61.1</ele>
      </trkpt>
      <trkpt lat="44.93019" lon="-0.14487">
        <ele>61.2</ele>
      </trkpt>
      <trkpt lat="44.93022" lon="-0.14491">
        <ele>61.5</ele>
      </trkpt>
      <trkpt lat="44.93027" lon="-0.14501">
        <ele>62</ele>
      </trkpt>
      <trkpt lat="44.9307" lon="-0.14593">
        <ele>65.5</ele>
      </trkpt>
      <trkpt lat="44.93101" lon="-0.14654">
        <ele>67.3</ele>
      </trkpt>
      <trkpt lat="44.93122" lon="-0.14692">
        <ele>68</ele>
      </trkpt>
      <trkpt lat="44.93124" lon="-0.14696">
        <ele>68</ele>
      </trkpt>
      <trkpt lat="44.93125" lon="-0.14696">
        <ele>68</ele>
      </trkpt>
      <trkpt lat="44.93134" lon="-0.14706">
        <ele>68</ele>
      </trkpt>
      <trkpt lat="44.93132" lon="-0.14716">
        <ele>68</ele>
      </trkpt>
      <trkpt lat="44.93129" lon="-0.14732">
        <ele>67.1</ele>
      </trkpt>
      <trkpt lat="44.93127" lon="-0.14738">
        <ele>66.7</ele>
      </trkpt>
      <trkpt lat="44.93125" lon="-0.14743">
        <ele>66.5</ele>
      </trkpt>
      <trkpt lat="44.93121" lon="-0.14752">
        <ele>66.5</ele>
      </trkpt>
      <trkpt lat="44.93098" lon="-0.14793">
        <ele>66.8</ele>
      </trkpt>
      <trkpt lat="44.93074" lon="-0.14835">
        <ele>67.5</ele>
      </trkpt>
      <trkpt lat="44.9306" lon="-0.1486">
        <ele>67.4</ele>
      </trkpt>
      <trkpt lat="44.93053" lon="-0.14878">
        <ele>67.5</ele>
      </trkpt>
      <trkpt lat="44.93047" lon="-0.14898">
        <ele>67.1</ele>
      </trkpt>
      <trkpt lat="44.93045" lon="-0.14916">
        <ele>66.2</ele>
      </trkpt>
      <trkpt lat="44.9304" lon="-0.14946">
        <ele>65.2</ele>
      </trkpt>
      <trkpt lat="44.93039" lon="-0.14959">
        <ele>65</ele>
      </trkpt>
      <trkpt lat="44.93035" lon="-0.15006">
        <ele>63.6</ele>
      </trkpt>
      <trkpt lat="44.93033" lon="-0.15026">
        <ele>63.1</ele>
      </trkpt>
      <trkpt lat="44.93026" lon="-0.15075">
        <ele>60.3</ele>
      </trkpt>
      <trkpt lat="44.93007" lon="-0.15201">
        <ele>54.5</ele>
      </trkpt>
      <trkpt lat="44.93003" lon="-0.15224">
        <ele>53.7</ele>
      </trkpt>
      <trkpt lat="44.93002" lon="-0.15242">
        <ele>53.1</ele>
      </trkpt>
      <trkpt lat="44.93003" lon="-0.1526">
        <ele>52.7</ele>
      </trkpt>
      <trkpt lat="44.93005" lon="-0.15284">
        <ele>52.3</ele>
      </trkpt>
      <trkpt lat="44.93009" lon="-0.15313">
        <ele>51.2</ele>
      </trkpt>
      <trkpt lat="44.93015" lon="-0.15344">
        <ele>50.3</ele>
      </trkpt>
      <trkpt lat="44.93021" lon="-0.15372">
        <ele>49.7</ele>
      </trkpt>
      <trkpt lat="44.93037" lon="-0.15431">
        <ele>47.7</ele>
      </trkpt>
      <trkpt lat="44.93041" lon="-0.15452">
        <ele>47.3</ele>
      </trkpt>
      <trkpt lat="44.93044" lon="-0.15471">
        <ele>46.5</ele>
      </trkpt>
      <trkpt lat="44.93046" lon="-0.15499">
        <ele>46.3</ele>
      </trkpt>
      <trkpt lat="44.93049" lon="-0.1554">
        <ele>44.8</ele>
      </trkpt>
      <trkpt lat="44.93053" lon="-0.15638">
        <ele>43</ele>
      </trkpt>
      <trkpt lat="44.93055" lon="-0.15683">
        <ele>42</ele>
      </trkpt>
      <trkpt lat="44.93055" lon="-0.15686">
        <ele>42</ele>
      </trkpt>
      <trkpt lat="44.93055" lon="-0.15704">
        <ele>41.7</ele>
      </trkpt>
      <trkpt lat="44.93054" lon="-0.1571">
        <ele>41.5</ele>
      </trkpt>
      <trkpt lat="44.93045" lon="-0.15796">
        <ele>40.1</ele>
      </trkpt>
      <trkpt lat="44.93042" lon="-0.15823">
        <ele>39.7</ele>
      </trkpt>
      <trkpt lat="44.93034" lon="-0.15887">
        <ele>38.1</ele>
      </trkpt>
      <trkpt lat="44.93032" lon="-0.15899">
        <ele>38</ele>
      </trkpt>
      <trkpt lat="44.93047" lon="-0.15902">
        <ele>38</ele>
      </trkpt>
      <trkpt lat="44.93047" lon="-0.15902">
        <ele>38</ele>
      </trkpt>
      <trkpt lat="44.9305" lon="-0.15902">
        <ele>38</ele>
      </trkpt>
      <trkpt lat="44.93083" lon="-0.15908">
        <ele>37</ele>
      </trkpt>
      <trkpt lat="44.93109" lon="-0.15916">
        <ele>36.1</ele>
      </trkpt>
      <trkpt lat="44.93122" lon="-0.15921">
        <ele>35.5</ele>
      </trkpt>
      <trkpt lat="44.93136" lon="-0.15929">
        <ele>34.7</ele>
      </trkpt>
      <trkpt lat="44.93146" lon="-0.15934">
        <ele>33.9</ele>
      </trkpt>
      <trkpt lat="44.93153" lon="-0.15936">
        <ele>33.3</ele>
      </trkpt>
      <trkpt lat="44.9316" lon="-0.15935">
        <ele>32.8</ele>
      </trkpt>
      <trkpt lat="44.932" lon="-0.15931">
        <ele>31.2</ele>
      </trkpt>
      <trkpt lat="44.93244" lon="-0.15925">
        <ele>30</ele>
      </trkpt>
      <trkpt lat="44.93257" lon="-0.15926">
        <ele>30</ele>
      </trkpt>
      <trkpt lat="44.9327" lon="-0.15928">
        <ele>30</ele>
      </trkpt>
      <trkpt lat="44.93332" lon="-0.15946">
        <ele>34</ele>
      </trkpt>
      <trkpt lat="44.93343" lon="-0.15951">
        <ele>34.8</ele>
      </trkpt>
      <trkpt lat="44.9335" lon="-0.15961">
        <ele>35.4</ele>
      </trkpt>
      <trkpt lat="44.93373" lon="-0.15995">
        <ele>36.4</ele>
      </trkpt>
      <trkpt lat="44.93392" lon="-0.16027">
        <ele>37</ele>
      </trkpt>
      <trkpt lat="44.9342" lon="-0.16094">
        <ele>36.1</ele>
      </trkpt>
      <trkpt lat="44.93442" lon="-0.16142">
        <ele>36.9</ele>
      </trkpt>
      <trkpt lat="44.93477" lon="-0.1622">
        <ele>36.2</ele>
      </trkpt>
      <trkpt lat="44.93482" lon="-0.16232">
        <ele>36.4</ele>
      </trkpt>
      <trkpt lat="44.93485" lon="-0.16238">
        <ele>36.5</ele>
      </trkpt>
      <trkpt lat="44.9344" lon="-0.16259">
        <ele>35.9</ele>
      </trkpt>
      <trkpt lat="44.93428" lon="-0.16267">
        <ele>35.6</ele>
      </trkpt>
      <trkpt lat="44.93416" lon="-0.16277">
        <ele>35</ele>
      </trkpt>
      <trkpt lat="44.93407" lon="-0.16286">
        <ele>35.1</ele>
      </trkpt>
      <trkpt lat="44.93387" lon="-0.16312">
        <ele>34.2</ele>
      </trkpt>
      <trkpt lat="44.93362" lon="-0.16351">
        <ele>34</ele>
      </trkpt>
      <trkpt lat="44.9333" lon="-0.16397">
        <ele>33</ele>
      </trkpt>
      <trkpt lat="44.933" lon="-0.16441">
        <ele>32.1</ele>
      </trkpt>
      <trkpt lat="44.93277" lon="-0.16473">
        <ele>32</ele>
      </trkpt>
      <trkpt lat="44.93258" lon="-0.16503">
        <ele>31.3</ele>
      </trkpt>
      <trkpt lat="44.93251" lon="-0.16515">
        <ele>31</ele>
      </trkpt>
      <trkpt lat="44.93246" lon="-0.16525">
        <ele>30.9</ele>
      </trkpt>
      <trkpt lat="44.93242" lon="-0.16537">
        <ele>30.8</ele>
      </trkpt>
      <trkpt lat="44.93238" lon="-0.16552">
        <ele>30.9</ele>
      </trkpt>
      <trkpt lat="44.93231" lon="-0.16577">
        <ele>31</ele>
      </trkpt>
      <trkpt lat="44.93222" lon="-0.16617">
        <ele>31</ele>
      </trkpt>
      <trkpt lat="44.93212" lon="-0.16661">
        <ele>30.6</ele>
      </trkpt>
      <trkpt lat="44.93208" lon="-0.16679">
        <ele>30.5</ele>
      </trkpt>
      <trkpt lat="44.93206" lon="-0.16692">
        <ele>30.4</ele>
      </trkpt>
      <trkpt lat="44.93201" lon="-0.16733">
        <ele>30.2</ele>
      </trkpt>
      <trkpt lat="44.93195" lon="-0.16775">
        <ele>30</ele>
      </trkpt>
      <trkpt lat="44.93189" lon="-0.16815">
        <ele>30</ele>
      </trkpt>
      <trkpt lat="44.93183" lon="-0.16848">
        <ele>30</ele>
      </trkpt>
      <trkpt lat="44.93181" lon="-0.16875">
        <ele>30</ele>
      </trkpt>
      <trkpt lat="44.93181" lon="-0.16911">
        <ele>29.6</ele>
      </trkpt>
      <trkpt lat="44.93181" lon="-0.16941">
        <ele>29.1</ele>
      </trkpt>
      <trkpt lat="44.93177" lon="-0.16971">
        <ele>29.4</ele>
      </trkpt>
      <trkpt lat="44.9317" lon="-0.17014">
        <ele>27.7</ele>
      </trkpt>
      <trkpt lat="44.9316" lon="-0.17064">
        <ele>26.9</ele>
      </trkpt>
      <trkpt lat="44.93153" lon="-0.17103">
        <ele>25.8</ele>
      </trkpt>
      <trkpt lat="44.93149" lon="-0.17132">
        <ele>24.6</ele>
      </trkpt>
      <trkpt lat="44.93147" lon="-0.17158">
        <ele>23.8</ele>
      </trkpt>
      <trkpt lat="44.93146" lon="-0.17189">
        <ele>22.7</ele>
      </trkpt>
      <trkpt lat="44.93145" lon="-0.17192">
        <ele>22.5</ele>
      </trkpt>
      <trkpt lat="44.93142" lon="-0.17206">
        <ele>22.2</ele>
      </trkpt>
      <trkpt lat="44.93142" lon="-0.17218">
        <ele>22.1</ele>
      </trkpt>
      <trkpt lat="44.93143" lon="-0.1724">
        <ele>21.5</ele>
      </trkpt>
      <trkpt lat="44.9315" lon="-0.173">
        <ele>19.7</ele>
      </trkpt>
      <trkpt lat="44.9315" lon="-0.17307">
        <ele>19.3</ele>
      </trkpt>
      <trkpt lat="44.9315" lon="-0.17317">
        <ele>19</ele>
      </trkpt>
      <trkpt lat="44.93152" lon="-0.17339">
        <ele>18.4</ele>
      </trkpt>
      <trkpt lat="44.93152" lon="-0.17369">
        <ele>18</ele>
      </trkpt>
      <trkpt lat="44.9315" lon="-0.17386">
        <ele>18</ele>
      </trkpt>
      <trkpt lat="44.93144" lon="-0.17413">
        <ele>17.8</ele>
      </trkpt>
      <trkpt lat="44.93135" lon="-0.17433">
        <ele>18</ele>
      </trkpt>
      <trkpt lat="44.93132" lon="-0.17441">
        <ele>18</ele>
      </trkpt>
      <trkpt lat="44.9312" lon="-0.17458">
        <ele>17.8</ele>
      </trkpt>
      <trkpt lat="44.93107" lon="-0.17478">
        <ele>17.8</ele>
      </trkpt>
      <trkpt lat="44.93098" lon="-0.17495">
        <ele>17.6</ele>
      </trkpt>
      <trkpt lat="44.93091" lon="-0.17513">
        <ele>17.7</ele>
      </trkpt>
      <trkpt lat="44.93089" lon="-0.17527">
        <ele>17.8</ele>
      </trkpt>
      <trkpt lat="44.93087" lon="-0.17544">
        <ele>17.9</ele>
      </trkpt>
      <trkpt lat="44.93087" lon="-0.17563">
        <ele>18.2</ele>
      </trkpt>
      <trkpt lat="44.93089" lon="-0.17584">
        <ele>18.8</ele>
      </trkpt>
      <trkpt lat="44.93092" lon="-0.17612">
        <ele>18.7</ele>
      </trkpt>
      <trkpt lat="44.93095" lon="-0.17652">
        <ele>19.4</ele>
      </trkpt>
      <trkpt lat="44.93096" lon="-0.17669">
        <ele>19.6</ele>
      </trkpt>
      <trkpt lat="44.93095" lon="-0.17684">
        <ele>19.9</ele>
      </trkpt>
      <trkpt lat="44.93093" lon="-0.17704">
        <ele>20.4</ele>
      </trkpt>
      <trkpt lat="44.93088" lon="-0.17726">
        <ele>20.8</ele>
      </trkpt>
      <trkpt lat="44.93083" lon="-0.17748">
        <ele>21</ele>
      </trkpt>
      <trkpt lat="44.93077" lon="-0.17768">
        <ele>22</ele>
      </trkpt>
      <trkpt lat="44.93079" lon="-0.17769">
        <ele>21.9</ele>
      </trkpt>
      <trkpt lat="44.93081" lon="-0.17772">
        <ele>21.9</ele>
      </trkpt>
      <trkpt lat="44.93082" lon="-0.17775">
        <ele>22</ele>
      </trkpt>
      <trkpt lat="44.93094" lon="-0.17805">
        <ele>22.2</ele>
      </trkpt>
      <trkpt lat="44.93102" lon="-0.17834">
        <ele>21.7</ele>
      </trkpt>
      <trkpt lat="44.93106" lon="-0.17845">
        <ele>21.8</ele>
      </trkpt>
      <trkpt lat="44.93111" lon="-0.17854">
        <ele>21.8</ele>
      </trkpt>
      <trkpt lat="44.93118" lon="-0.17864">
        <ele>21.6</ele>
      </trkpt>
      <trkpt lat="44.93152" lon="-0.17899">
        <ele>20.9</ele>
      </trkpt>
      <trkpt lat="44.93164" lon="-0.17912">
        <ele>20.9</ele>
      </trkpt>
      <trkpt lat="44.93169" lon="-0.17917">
        <ele>20.8</ele>
      </trkpt>
      <trkpt lat="44.93174" lon="-0.17923">
        <ele>20.7</ele>
      </trkpt>
      <trkpt lat="44.93179" lon="-0.17931">
        <ele>20.6</ele>
      </trkpt>
      <trkpt lat="44.93184" lon="-0.17947">
        <ele>20.8</ele>
      </trkpt>
      <trkpt lat="44.93191" lon="-0.17975">
        <ele>21.3</ele>
      </trkpt>
      <trkpt lat="44.932" lon="-0.18017">
        <ele>21.7</ele>
      </trkpt>
      <trkpt lat="44.93203" lon="-0.18032">
        <ele>21.7</ele>
      </trkpt>
      <trkpt lat="44.93206" lon="-0.18043">
        <ele>21.6</ele>
      </trkpt>
      <trkpt lat="44.9321" lon="-0.18052">
        <ele>21.4</ele>
      </trkpt>
      <trkpt lat="44.93222" lon="-0.18072">
        <ele>21</ele>
      </trkpt>
      <trkpt lat="44.93231" lon="-0.18084">
        <ele>20.7</ele>
      </trkpt>
      <trkpt lat="44.93264" lon="-0.1813">
        <ele>19.5</ele>
      </trkpt>
      <trkpt lat="44.93279" lon="-0.18149">
        <ele>19</ele>
      </trkpt>
      <trkpt lat="44.93283" lon="-0.18152">
        <ele>18.8</ele>
      </trkpt>
      <trkpt lat="44.93292" lon="-0.18159">
        <ele>18.5</ele>
      </trkpt>
      <trkpt lat="44.93304" lon="-0.18163">
        <ele>18.1</ele>
      </trkpt>
      <trkpt lat="44.93316" lon="-0.18164">
        <ele>17.6</ele>
      </trkpt>
      <trkpt lat="44.93324" lon="-0.18165">
        <ele>17.3</ele>
      </trkpt>
      <trkpt lat="44.93331" lon="-0.18167">
        <ele>17.1</ele>
      </trkpt>
      <trkpt lat="44.93338" lon="-0.1817">
        <ele>17</ele>
      </trkpt>
      <trkpt lat="44.9335" lon="-0.18177">
        <ele>16.8</ele>
      </trkpt>
      <trkpt lat="44.93356" lon="-0.18182">
        <ele>16.7</ele>
      </trkpt>
      <trkpt lat="44.93364" lon="-0.1819">
        <ele>16.6</ele>
      </trkpt>
      <trkpt lat="44.93369" lon="-0.18197">
        <ele>16.5</ele>
      </trkpt>
      <trkpt lat="44.93377" lon="-0.18211">
        <ele>16.5</ele>
      </trkpt>
      <trkpt lat="44.93385" lon="-0.18225">
        <ele>16.4</ele>
      </trkpt>
      <trkpt lat="44.93399" lon="-0.18243">
        <ele>16.4</ele>
      </trkpt>
      <trkpt lat="44.93406" lon="-0.18253">
        <ele>16.4</ele>
      </trkpt>
      <trkpt lat="44.93413" lon="-0.18265">
        <ele>16.1</ele>
      </trkpt>
      <trkpt lat="44.93426" lon="-0.18287">
        <ele>16</ele>
      </trkpt>
      <trkpt lat="44.93444" lon="-0.18321">
        <ele>16</ele>
      </trkpt>
      <trkpt lat="44.93457" lon="-0.18347">
        <ele>16.2</ele>
      </trkpt>
      <trkpt lat="44.93459" lon="-0.18354">
        <ele>16.1</ele>
      </trkpt>
      <trkpt lat="44.93459" lon="-0.18363">
        <ele>16</ele>
      </trkpt>
      <trkpt lat="44.93457" lon="-0.18364">
        <ele>16</ele>
      </trkpt>
      <trkpt lat="44.93457" lon="-0.18364">
        <ele>16</ele>
      </trkpt>
      <trkpt lat="44.93459" lon="-0.18363">
        <ele>16</ele>
      </trkpt>
      <trkpt lat="44.93463" lon="-0.18362">
        <ele>16</ele>
      </trkpt>
      <trkpt lat="44.93475" lon="-0.18359">
        <ele>16.3</ele>
      </trkpt>
      <trkpt lat="44.93488" lon="-0.18356">
        <ele>17.3</ele>
      </trkpt>
      <trkpt lat="44.93504" lon="-0.18352">
        <ele>18.9</ele>
      </trkpt>
      <trkpt lat="44.93508" lon="-0.18351">
        <ele>19.4</ele>
      </trkpt>
      <trkpt lat="44.93515" lon="-0.18346">
        <ele>20.4</ele>
      </trkpt>
      <trkpt lat="44.93517" lon="-0.18344">
        <ele>20.7</ele>
      </trkpt>
      <trkpt lat="44.9352" lon="-0.1834">
        <ele>21.1</ele>
      </trkpt>
      <trkpt lat="44.93524" lon="-0.18332">
        <ele>21.7</ele>
      </trkpt>
      <trkpt lat="44.93525" lon="-0.18324">
        <ele>22.3</ele>
      </trkpt>
      <trkpt lat="44.93526" lon="-0.18316">
        <ele>23</ele>
      </trkpt>
      <trkpt lat="44.93526" lon="-0.18307">
        <ele>23.6</ele>
      </trkpt>
      <trkpt lat="44.93524" lon="-0.18292">
        <ele>24.3</ele>
      </trkpt>
      <trkpt lat="44.93515" lon="-0.18251">
        <ele>25.6</ele>
      </trkpt>
      <trkpt lat="44.93503" lon="-0.18194">
        <ele>27.7</ele>
      </trkpt>
      <trkpt lat="44.93493" lon="-0.18149">
        <ele>28.7</ele>
      </trkpt>
      <trkpt lat="44.93489" lon="-0.18128">
        <ele>29.2</ele>
      </trkpt>
      <trkpt lat="44.93488" lon="-0.18115">
        <ele>29.6</ele>
      </trkpt>
      <trkpt lat="44.93488" lon="-0.18106">
        <ele>29.8</ele>
      </trkpt>
      <trkpt lat="44.93489" lon="-0.18094">
        <ele>30</ele>
      </trkpt>
      <trkpt lat="44.93491" lon="-0.18086">
        <ele>30.4</ele>
      </trkpt>
      <trkpt lat="44.93494" lon="-0.18078">
        <ele>31</ele>
      </trkpt>
      <trkpt lat="44.93498" lon="-0.18069">
        <ele>31.7</ele>
      </trkpt>
      <trkpt lat="44.93502" lon="-0.18062">
        <ele>32.2</ele>
      </trkpt>
      <trkpt lat="44.93511" lon="-0.18054">
        <ele>32.9</ele>
      </trkpt>
      <trkpt lat="44.93535" lon="-0.18036">
        <ele>35.1</ele>
      </trkpt>
      <trkpt lat="44.93546" lon="-0.18028">
        <ele>35.7</ele>
      </trkpt>
      <trkpt lat="44.93559" lon="-0.18018">
        <ele>36.2</ele>
      </trkpt>
      <trkpt lat="44.93573" lon="-0.18008">
        <ele>36.8</ele>
      </trkpt>
      <trkpt lat="44.93585" lon="-0.18001">
        <ele>37.1</ele>
      </trkpt>
      <trkpt lat="44.93592" lon="-0.17998">
        <ele>37.4</ele>
      </trkpt>
      <trkpt lat="44.936" lon="-0.17996">
        <ele>37.7</ele>
      </trkpt>
      <trkpt lat="44.93609" lon="-0.17994">
        <ele>37.9</ele>
      </trkpt>
      <trkpt lat="44.93614" lon="-0.17994">
        <ele>38</ele>
      </trkpt>
      <trkpt lat="44.93618" lon="-0.17994">
        <ele>37.9</ele>
      </trkpt>
      <trkpt lat="44.93632" lon="-0.17994">
        <ele>37.8</ele>
      </trkpt>
      <trkpt lat="44.93652" lon="-0.17994">
        <ele>37.8</ele>
      </trkpt>
      <trkpt lat="44.93687" lon="-0.17995">
        <ele>38</ele>
      </trkpt>
      <trkpt lat="44.93732" lon="-0.17997">
        <ele>38</ele>
      </trkpt>
      <trkpt lat="44.93778" lon="-0.17999">
        <ele>39</ele>
      </trkpt>
      <trkpt lat="44.93807" lon="-0.17999">
        <ele>39</ele>
      </trkpt>
      <trkpt lat="44.93825" lon="-0.17999">
        <ele>39</ele>
      </trkpt>
      <trkpt lat="44.9384" lon="-0.17998">
        <ele>39</ele>
      </trkpt>
      <trkpt lat="44.93842" lon="-0.17998">
        <ele>39</ele>
      </trkpt>
      <trkpt lat="44.93852" lon="-0.17997">
        <ele>39</ele>
      </trkpt>
      <trkpt lat="44.93864" lon="-0.17994">
        <ele>39.1</ele>
      </trkpt>
      <trkpt lat="44.93875" lon="-0.1799">
        <ele>39.3</ele>
      </trkpt>
      <trkpt lat="44.93886" lon="-0.17984">
        <ele>39.4</ele>
      </trkpt>
      <trkpt lat="44.93899" lon="-0.17976">
        <ele>39.5</ele>
      </trkpt>
      <trkpt lat="44.93909" lon="-0.17968">
        <ele>39.7</ele>
      </trkpt>
      <trkpt lat="44.93917" lon="-0.1796">
        <ele>40</ele>
      </trkpt>
      <trkpt lat="44.93929" lon="-0.17948">
        <ele>40.1</ele>
      </trkpt>
      <trkpt lat="44.9396" lon="-0.17914">
        <ele>40.5</ele>
      </trkpt>
      <trkpt lat="44.93996" lon="-0.17875">
        <ele>40.4</ele>
      </trkpt>
      <trkpt lat="44.93999" lon="-0.1787">
        <ele>40.3</ele>
      </trkpt>
      <trkpt lat="44.94019" lon="-0.17843">
        <ele>40.7</ele>
      </trkpt>
      <trkpt lat="44.94041" lon="-0.17808">
        <ele>41</ele>
      </trkpt>
      <trkpt lat="44.94073" lon="-0.17757">
        <ele>41.9</ele>
      </trkpt>
      <trkpt lat="44.94104" lon="-0.17699">
        <ele>42.1</ele>
      </trkpt>
      <trkpt lat="44.94135" lon="-0.17635">
        <ele>42</ele>
      </trkpt>
      <trkpt lat="44.94158" lon="-0.17588">
        <ele>42.7</ele>
      </trkpt>
      <trkpt lat="44.94181" lon="-0.17544">
        <ele>43</ele>
      </trkpt>
      <trkpt lat="44.942" lon="-0.17506">
        <ele>43.2</ele>
      </trkpt>
      <trkpt lat="44.94224" lon="-0.17448">
        <ele>43.2</ele>
      </trkpt>
      <trkpt lat="44.94243" lon="-0.17401">
        <ele>43.9</ele>
      </trkpt>
      <trkpt lat="44.94245" lon="-0.17394">
        <ele>44</ele>
      </trkpt>
      <trkpt lat="44.9425" lon="-0.1738">
        <ele>44</ele>
      </trkpt>
      <trkpt lat="44.94253" lon="-0.1737">
        <ele>44</ele>
      </trkpt>
      <trkpt lat="44.94258" lon="-0.17355">
        <ele>43.8</ele>
      </trkpt>
      <trkpt lat="44.94264" lon="-0.17336">
        <ele>43.6</ele>
      </trkpt>
      <trkpt lat="44.94279" lon="-0.17273">
        <ele>44</ele>
      </trkpt>
      <trkpt lat="44.94291" lon="-0.17221">
        <ele>44</ele>
      </trkpt>
      <trkpt lat="44.94298" lon="-0.17196">
        <ele>44</ele>
      </trkpt>
      <trkpt lat="44.94299" lon="-0.17192">
        <ele>44</ele>
      </trkpt>
      <trkpt lat="44.94302" lon="-0.17184">
        <ele>44</ele>
      </trkpt>
      <trkpt lat="44.94302" lon="-0.17184">
        <ele>44</ele>
      </trkpt>
      <trkpt lat="44.94296" lon="-0.17181">
        <ele>43.8</ele>
      </trkpt>
      <trkpt lat="44.9427" lon="-0.17175">
        <ele>43.2</ele>
      </trkpt>
      <trkpt lat="44.94226" lon="-0.17163">
        <ele>42.1</ele>
      </trkpt>
      <trkpt lat="44.94186" lon="-0.17151">
        <ele>40.7</ele>
      </trkpt>
      <trkpt lat="44.94146" lon="-0.17138">
        <ele>39.3</ele>
      </trkpt>
      <trkpt lat="44.94103" lon="-0.17126">
        <ele>38</ele>
      </trkpt>
      <trkpt lat="44.94091" lon="-0.17125">
        <ele>38</ele>
      </trkpt>
      <trkpt lat="44.94087" lon="-0.17125">
        <ele>38</ele>
      </trkpt>
      <trkpt lat="44.94047" lon="-0.17123">
        <ele>37.3</ele>
      </trkpt>
      <trkpt lat="44.94015" lon="-0.17119">
        <ele>36.7</ele>
      </trkpt>
      <trkpt lat="44.94002" lon="-0.17118">
        <ele>36.8</ele>
      </trkpt>
      <trkpt lat="44.93994" lon="-0.17118">
        <ele>36.8</ele>
      </trkpt>
      <trkpt lat="44.93986" lon="-0.17123">
        <ele>36.8</ele>
      </trkpt>
      <trkpt lat="44.93968" lon="-0.17135">
        <ele>37</ele>
      </trkpt>
      <trkpt lat="44.93951" lon="-0.17147">
        <ele>36.6</ele>
      </trkpt>
      <trkpt lat="44.93941" lon="-0.17152">
        <ele>36.5</ele>
      </trkpt>
      <trkpt lat="44.93938" lon="-0.17151">
        <ele>36.6</ele>
      </trkpt>
      <trkpt lat="44.93935" lon="-0.1715">
        <ele>36.6</ele>
      </trkpt>
      <trkpt lat="44.93928" lon="-0.17142">
        <ele>36.9</ele>
      </trkpt>
      <trkpt lat="44.93924" lon="-0.17134">
        <ele>37</ele>
      </trkpt>
      <trkpt lat="44.9392" lon="-0.17123">
        <ele>37.1</ele>
      </trkpt>
      <trkpt lat="44.93919" lon="-0.17118">
        <ele>37.1</ele>
      </trkpt>
      <trkpt lat="44.93915" lon="-0.17094">
        <ele>37</ele>
      </trkpt>
      <trkpt lat="44.93911" lon="-0.17091">
        <ele>36.9</ele>
      </trkpt>
      <trkpt lat="44.93906" lon="-0.17089">
        <ele>36.9</ele>
      </trkpt>
      <trkpt lat="44.939" lon="-0.17087">
        <ele>36.9</ele>
      </trkpt>
      <trkpt lat="44.93893" lon="-0.17085">
        <ele>36.9</ele>
      </trkpt>
      <trkpt lat="44.93886" lon="-0.17082">
        <ele>36.8</ele>
      </trkpt>
      <trkpt lat="44.93882" lon="-0.17078">
        <ele>36.5</ele>
      </trkpt>
      <trkpt lat="44.93876" lon="-0.17068">
        <ele>36.1</ele>
      </trkpt>
      <trkpt lat="44.93872" lon="-0.17055">
        <ele>35.8</ele>
      </trkpt>
      <trkpt lat="44.93868" lon="-0.17042">
        <ele>35.9</ele>
      </trkpt>
      <trkpt lat="44.93867" lon="-0.17037">
        <ele>36</ele>
      </trkpt>
      <trkpt lat="44.93864" lon="-0.1703">
        <ele>36</ele>
      </trkpt>
      <trkpt lat="44.93864" lon="-0.17029">
        <ele>36.1</ele>
      </trkpt>
      <trkpt lat="44.93859" lon="-0.17018">
        <ele>36.3</ele>
      </trkpt>
      <trkpt lat="44.93847" lon="-0.17">
        <ele>36.5</ele>
      </trkpt>
      <trkpt lat="44.93829" lon="-0.16976">
        <ele>36.9</ele>
      </trkpt>
      <trkpt lat="44.93823" lon="-0.16967">
        <ele>36.9</ele>
      </trkpt>
      <trkpt lat="44.93808" lon="-0.16939">
        <ele>35.9</ele>
      </trkpt>
      <trkpt lat="44.93789" lon="-0.16897">
        <ele>34.6</ele>
      </trkpt>
      <trkpt lat="44.93778" lon="-0.16871">
        <ele>34</ele>
      </trkpt>
      <trkpt lat="44.93777" lon="-0.16866">
        <ele>34</ele>
      </trkpt>
      <trkpt lat="44.93777" lon="-0.16858">
        <ele>34.1</ele>
      </trkpt>
      <trkpt lat="44.93778" lon="-0.16851">
        <ele>34.4</ele>
      </trkpt>
      <trkpt lat="44.9378" lon="-0.16845">
        <ele>34.6</ele>
      </trkpt>
      <trkpt lat="44.93783" lon="-0.16841">
        <ele>34.8</ele>
      </trkpt>
      <trkpt lat="44.93796" lon="-0.16826">
        <ele>35</ele>
      </trkpt>
      <trkpt lat="44.93822" lon="-0.16801">
        <ele>35.8</ele>
      </trkpt>
      <trkpt lat="44.93845" lon="-0.16781">
        <ele>36.9</ele>
      </trkpt>
      <trkpt lat="44.93871" lon="-0.16758">
        <ele>38.1</ele>
      </trkpt>
      <trkpt lat="44.93881" lon="-0.16746">
        <ele>38.7</ele>
      </trkpt>
      <trkpt lat="44.93904" lon="-0.16717">
        <ele>39</ele>
      </trkpt>
      <trkpt lat="44.93929" lon="-0.1668">
        <ele>39.4</ele>
      </trkpt>
      <trkpt lat="44.9395" lon="-0.16644">
        <ele>40</ele>
      </trkpt>
      <trkpt lat="44.93954" lon="-0.16632">
        <ele>40</ele>
      </trkpt>
      <trkpt lat="44.93956" lon="-0.16622">
        <ele>40</ele>
      </trkpt>
      <trkpt lat="44.93956" lon="-0.16615">
        <ele>40</ele>
      </trkpt>
      <trkpt lat="44.93955" lon="-0.16593">
        <ele>40</ele>
      </trkpt>
      <trkpt lat="44.93953" lon="-0.16561">
        <ele>40.2</ele>
      </trkpt>
      <trkpt lat="44.93951" lon="-0.16543">
        <ele>40.2</ele>
      </trkpt>
      <trkpt lat="44.9395" lon="-0.16526">
        <ele>40.2</ele>
      </trkpt>
      <trkpt lat="44.93947" lon="-0.16504">
        <ele>40.1</ele>
      </trkpt>
      <trkpt lat="44.9394" lon="-0.1646">
        <ele>40.8</ele>
      </trkpt>
      <trkpt lat="44.93934" lon="-0.16424">
        <ele>40.9</ele>
      </trkpt>
      <trkpt lat="44.93932" lon="-0.16406">
        <ele>41</ele>
      </trkpt>
      <trkpt lat="44.93932" lon="-0.16392">
        <ele>41</ele>
      </trkpt>
      <trkpt lat="44.93934" lon="-0.1637">
        <ele>41.4</ele>
      </trkpt>
      <trkpt lat="44.93934" lon="-0.16365">
        <ele>41.5</ele>
      </trkpt>
      <trkpt lat="44.93938" lon="-0.16345">
        <ele>41.5</ele>
      </trkpt>
      <trkpt lat="44.93944" lon="-0.16322">
        <ele>41.4</ele>
      </trkpt>
      <trkpt lat="44.93953" lon="-0.16297">
        <ele>42</ele>
      </trkpt>
      <trkpt lat="44.93963" lon="-0.16269">
        <ele>42.3</ele>
      </trkpt>
      <trkpt lat="44.93966" lon="-0.16258">
        <ele>42.7</ele>
      </trkpt>
      <trkpt lat="44.93967" lon="-0.16248">
        <ele>43</ele>
      </trkpt>
      <trkpt lat="44.93966" lon="-0.16242">
        <ele>43</ele>
      </trkpt>
      <trkpt lat="44.93965" lon="-0.16236">
        <ele>43</ele>
      </trkpt>
      <trkpt lat="44.93963" lon="-0.16228">
        <ele>43</ele>
      </trkpt>
      <trkpt lat="44.9396" lon="-0.16222">
        <ele>43</ele>
      </trkpt>
      <trkpt lat="44.93957" lon="-0.16215">
        <ele>43.3</ele>
      </trkpt>
      <trkpt lat="44.93932" lon="-0.16165">
        <ele>44.1</ele>
      </trkpt>
      <trkpt lat="44.93909" lon="-0.16118">
        <ele>44.7</ele>
      </trkpt>
      <trkpt lat="44.93893" lon="-0.16084">
        <ele>45.1</ele>
      </trkpt>
      <trkpt lat="44.93873" lon="-0.16042">
        <ele>45.4</ele>
      </trkpt>
      <trkpt lat="44.9386" lon="-0.16012">
        <ele>45.5</ele>
      </trkpt>
      <trkpt lat="44.93851" lon="-0.15989">
        <ele>45.8</ele>
      </trkpt>
      <trkpt lat="44.93833" lon="-0.15925">
        <ele>46</ele>
      </trkpt>
      <trkpt lat="44.93825" lon="-0.15908">
        <ele>45.8</ele>
      </trkpt>
      <trkpt lat="44.93812" lon="-0.15893">
        <ele>45.9</ele>
      </trkpt>
      <trkpt lat="44.93798" lon="-0.15882">
        <ele>45.5</ele>
      </trkpt>
      <trkpt lat="44.93788" lon="-0.15873">
        <ele>45.2</ele>
      </trkpt>
      <trkpt lat="44.93788" lon="-0.15873">
        <ele>45.2</ele>
      </trkpt>
      <trkpt lat="44.93802" lon="-0.15817">
        <ele>45</ele>
      </trkpt>
      <trkpt lat="44.93816" lon="-0.15771">
        <ele>45.2</ele>
      </trkpt>
      <trkpt lat="44.93845" lon="-0.1569">
        <ele>46.5</ele>
      </trkpt>
      <trkpt lat="44.93861" lon="-0.15643">
        <ele>47</ele>
      </trkpt>
      <trkpt lat="44.93876" lon="-0.15583">
        <ele>48.1</ele>
      </trkpt>
      <trkpt lat="44.93892" lon="-0.15511">
        <ele>48.2</ele>
      </trkpt>
      <trkpt lat="44.93903" lon="-0.15447">
        <ele>49.5</ele>
      </trkpt>
      <trkpt lat="44.93908" lon="-0.15409">
        <ele>49.7</ele>
      </trkpt>
      <trkpt lat="44.9391" lon="-0.15396">
        <ele>49.8</ele>
      </trkpt>
      <trkpt lat="44.93914" lon="-0.15349">
        <ele>49.9</ele>
      </trkpt>
      <trkpt lat="44.93926" lon="-0.15347">
        <ele>50</ele>
      </trkpt>
      <trkpt lat="44.93926" lon="-0.15347">
        <ele>50</ele>
      </trkpt>
      <trkpt lat="44.93917" lon="-0.15308">
        <ele>50</ele>
      </trkpt>
      <trkpt lat="44.93918" lon="-0.15283">
        <ele>50</ele>
      </trkpt>
      <trkpt lat="44.93925" lon="-0.15204">
        <ele>51.3</ele>
      </trkpt>
      <trkpt lat="44.93931" lon="-0.15133">
        <ele>51.2</ele>
      </trkpt>
      <trkpt lat="44.93938" lon="-0.15063">
        <ele>52.2</ele>
      </trkpt>
      <trkpt lat="44.93939" lon="-0.15026">
        <ele>53.2</ele>
      </trkpt>
      <trkpt lat="44.93938" lon="-0.15008">
        <ele>53.2</ele>
      </trkpt>
      <trkpt lat="44.93932" lon="-0.14966">
        <ele>54.6</ele>
      </trkpt>
      <trkpt lat="44.9393" lon="-0.14956">
        <ele>54.8</ele>
      </trkpt>
      <trkpt lat="44.93924" lon="-0.14928">
        <ele>55</ele>
      </trkpt>
      <trkpt lat="44.93919" lon="-0.14907">
        <ele>55</ele>
      </trkpt>
      <trkpt lat="44.93911" lon="-0.14886">
        <ele>55.5</ele>
      </trkpt>
      <trkpt lat="44.939" lon="-0.1486">
        <ele>56.6</ele>
      </trkpt>
      <trkpt lat="44.93881" lon="-0.14815">
        <ele>57.7</ele>
      </trkpt>
      <trkpt lat="44.93862" lon="-0.14771">
        <ele>58.3</ele>
      </trkpt>
      <trkpt lat="44.93845" lon="-0.14725">
        <ele>59.9</ele>
      </trkpt>
      <trkpt lat="44.93826" lon="-0.14671">
        <ele>60.6</ele>
      </trkpt>
      <trkpt lat="44.93823" lon="-0.14662">
        <ele>60.8</ele>
      </trkpt>
      <trkpt lat="44.93814" lon="-0.1464">
        <ele>61.3</ele>
      </trkpt>
      <trkpt lat="44.93791" lon="-0.14583">
        <ele>63.5</ele>
      </trkpt>
      <trkpt lat="44.93776" lon="-0.14544">
        <ele>63.9</ele>
      </trkpt>
      <trkpt lat="44.93771" lon="-0.14531">
        <ele>64.8</ele>
      </trkpt>
      <trkpt lat="44.93755" lon="-0.14486">
        <ele>65.7</ele>
      </trkpt>
      <trkpt lat="44.93737" lon="-0.1442">
        <ele>67.9</ele>
      </trkpt>
      <trkpt lat="44.9372" lon="-0.14358">
        <ele>68.2</ele>
      </trkpt>
      <trkpt lat="44.93709" lon="-0.1432">
        <ele>69.7</ele>
      </trkpt>
      <trkpt lat="44.93707" lon="-0.143">
        <ele>70.2</ele>
      </trkpt>
      <trkpt lat="44.93706" lon="-0.14283">
        <ele>70.8</ele>
      </trkpt>
      <trkpt lat="44.93707" lon="-0.14265">
        <ele>71.5</ele>
      </trkpt>
      <trkpt lat="44.9371" lon="-0.14245">
        <ele>72.2</ele>
      </trkpt>
      <trkpt lat="44.93713" lon="-0.14215">
        <ele>73.4</ele>
      </trkpt>
      <trkpt lat="44.93715" lon="-0.14194">
        <ele>74.8</ele>
      </trkpt>
      <trkpt lat="44.93715" lon="-0.14175">
        <ele>76.3</ele>
      </trkpt>
      <trkpt lat="44.93714" lon="-0.14158">
        <ele>77.8</ele>
      </trkpt>
      <trkpt lat="44.93714" lon="-0.14133">
        <ele>80</ele>
      </trkpt>
      <trkpt lat="44.93712" lon="-0.14101">
        <ele>82</ele>
      </trkpt>
      <trkpt lat="44.9371" lon="-0.14073">
        <ele>83.2</ele>
      </trkpt>
      <trkpt lat="44.9371" lon="-0.1407">
        <ele>83.2</ele>
      </trkpt>
      <trkpt lat="44.93708" lon="-0.14047">
        <ele>83.7</ele>
      </trkpt>
      <trkpt lat="44.93705" lon="-0.14027">
        <ele>84</ele>
      </trkpt>
      <trkpt lat="44.93703" lon="-0.14018">
        <ele>84.5</ele>
      </trkpt>
      <trkpt lat="44.93701" lon="-0.14005">
        <ele>85</ele>
      </trkpt>
      <trkpt lat="44.93701" lon="-0.14005">
        <ele>85</ele>
      </trkpt>
      <trkpt lat="44.9371" lon="-0.14001">
        <ele>85.5</ele>
      </trkpt>
      <trkpt lat="44.93716" lon="-0.13998">
        <ele>85.8</ele>
      </trkpt>
      <trkpt lat="44.93723" lon="-0.13992">
        <ele>86.3</ele>
      </trkpt>
      <trkpt lat="44.93731" lon="-0.13984">
        <ele>86.7</ele>
      </trkpt>
      <trkpt lat="44.93739" lon="-0.13976">
        <ele>86.9</ele>
      </trkpt>
      <trkpt lat="44.93774" lon="-0.13943">
        <ele>87.2</ele>
      </trkpt>
      <trkpt lat="44.93794" lon="-0.13924">
        <ele>87</ele>
      </trkpt>
      <trkpt lat="44.93809" lon="-0.13907">
        <ele>86.7</ele>
      </trkpt>
      <trkpt lat="44.93824" lon="-0.13886">
        <ele>86.3</ele>
      </trkpt>
      <trkpt lat="44.9384" lon="-0.13858">
        <ele>85.7</ele>
      </trkpt>
      <trkpt lat="44.93855" lon="-0.13824">
        <ele>86.6</ele>
      </trkpt>
      <trkpt lat="44.93872" lon="-0.13785">
        <ele>86.9</ele>
      </trkpt>
      <trkpt lat="44.93883" lon="-0.13762">
        <ele>87.4</ele>
      </trkpt>
      <trkpt lat="44.93891" lon="-0.13752">
        <ele>87.7</ele>
      </trkpt>
      <trkpt lat="44.93904" lon="-0.13735">
        <ele>87.5</ele>
      </trkpt>
      <trkpt lat="44.93919" lon="-0.13719">
        <ele>87.1</ele>
      </trkpt>
      <trkpt lat="44.93925" lon="-0.13713">
        <ele>87.4</ele>
      </trkpt>
      <trkpt lat="44.93941" lon="-0.13698">
        <ele>87.9</ele>
      </trkpt>
      <trkpt lat="44.93976" lon="-0.13668">
        <ele>89.1</ele>
      </trkpt>
      <trkpt lat="44.94006" lon="-0.13641">
        <ele>92.1</ele>
      </trkpt>
      <trkpt lat="44.94022" lon="-0.13628">
        <ele>93.5</ele>
      </trkpt>
      <trkpt lat="44.94039" lon="-0.13622">
        <ele>94.4</ele>
      </trkpt>
      <trkpt lat="44.94057" lon="-0.13618">
        <ele>94.8</ele>
      </trkpt>
      <trkpt lat="44.94059" lon="-0.13618">
        <ele>94.8</ele>
      </trkpt>
      <trkpt lat="44.94059" lon="-0.13609">
        <ele>95.3</ele>
      </trkpt>
      <trkpt lat="44.9406" lon="-0.13602">
        <ele>95.8</ele>
      </trkpt>
      <trkpt lat="44.9406" lon="-0.13599">
        <ele>96</ele>
      </trkpt>
      <trkpt lat="44.94062" lon="-0.13594">
        <ele>96.3</ele>
      </trkpt>
      <trkpt lat="44.94066" lon="-0.13589">
        <ele>96.7</ele>
      </trkpt>
      <trkpt lat="44.94068" lon="-0.13585">
        <ele>96.9</ele>
      </trkpt>
      <trkpt lat="44.94069" lon="-0.13583">
        <ele>97</ele>
      </trkpt>
      <trkpt lat="44.94071" lon="-0.1358">
        <ele>97.1</ele>
      </trkpt>
      <trkpt lat="44.94075" lon="-0.13576">
        <ele>97.2</ele>
      </trkpt>
      <trkpt lat="44.94072" lon="-0.1357">
        <ele>97.3</ele>
      </trkpt>
      <trkpt lat="44.94059" lon="-0.13534">
        <ele>97.9</ele>
      </trkpt>
      <trkpt lat="44.94041" lon="-0.13494">
        <ele>99.1</ele>
      </trkpt>
      <trkpt lat="44.94031" lon="-0.13472">
        <ele>99.1</ele>
      </trkpt>
      <trkpt lat="44.94024" lon="-0.13453">
        <ele>98.8</ele>
      </trkpt>
      <trkpt lat="44.94017" lon="-0.13431">
        <ele>97.9</ele>
      </trkpt>
      <trkpt lat="44.94009" lon="-0.13411">
        <ele>96.9</ele>
      </trkpt>
      <trkpt lat="44.93994" lon="-0.13387">
        <ele>94.7</ele>
      </trkpt>
      <trkpt lat="44.93988" lon="-0.13378">
        <ele>94.2</ele>
      </trkpt>
      <trkpt lat="44.94028" lon="-0.13319">
        <ele>91</ele>
      </trkpt>
      <trkpt lat="44.94028" lon="-0.13319">
        <ele>91</ele>
      </trkpt>
      <trkpt lat="44.94032" lon="-0.13313">
        <ele>90.5</ele>
      </trkpt>
      <trkpt lat="44.94013" lon="-0.13295">
        <ele>89.1</ele>
      </trkpt>
      <trkpt lat="44.93989" lon="-0.1327">
        <ele>88.4</ele>
      </trkpt>
      <trkpt lat="44.93966" lon="-0.13239">
        <ele>88.1</ele>
      </trkpt>
      <trkpt lat="44.93951" lon="-0.1322">
        <ele>88.4</ele>
      </trkpt>
      <trkpt lat="44.93934" lon="-0.13201">
        <ele>88.9</ele>
      </trkpt>
      <trkpt lat="44.9391" lon="-0.13182">
        <ele>89.8</ele>
      </trkpt>
      <trkpt lat="44.93869" lon="-0.1315">
        <ele>90.5</ele>
      </trkpt>
      <trkpt lat="44.93858" lon="-0.13142">
        <ele>91</ele>
      </trkpt>
      <trkpt lat="44.93842" lon="-0.1313">
        <ele>90.7</ele>
      </trkpt>
      <trkpt lat="44.93806" lon="-0.131">
        <ele>90</ele>
      </trkpt>
      <trkpt lat="44.93776" lon="-0.13069">
        <ele>90</ele>
      </trkpt>
      <trkpt lat="44.93748" lon="-0.13039">
        <ele>89.4</ele>
      </trkpt>
      <trkpt lat="44.93737" lon="-0.13026">
        <ele>89</ele>
      </trkpt>
      <trkpt lat="44.93722" lon="-0.13018">
        <ele>89</ele>
      </trkpt>
      <trkpt lat="44.93702" lon="-0.13009">
        <ele>88.8</ele>
      </trkpt>
      <trkpt lat="44.93681" lon="-0.12998">
        <ele>88.5</ele>
      </trkpt>
      <trkpt lat="44.93673" lon="-0.12991">
        <ele>88.2</ele>
      </trkpt>
      <trkpt lat="44.93664" lon="-0.12978">
        <ele>87.9</ele>
      </trkpt>
      <trkpt lat="44.93635" lon="-0.12916">
        <ele>86.9</ele>
      </trkpt>
      <trkpt lat="44.93595" lon="-0.12831">
        <ele>86.2</ele>
      </trkpt>
      <trkpt lat="44.93572" lon="-0.12783">
        <ele>86.5</ele>
      </trkpt>
      <trkpt lat="44.93563" lon="-0.12769">
        <ele>87.1</ele>
      </trkpt>
      <trkpt lat="44.93545" lon="-0.12731">
        <ele>87.9</ele>
      </trkpt>
      <trkpt lat="44.93529" lon="-0.12706">
        <ele>88</ele>
      </trkpt>
      <trkpt lat="44.93511" lon="-0.12683">
        <ele>87.6</ele>
      </trkpt>
      <trkpt lat="44.93493" lon="-0.12665">
        <ele>87.7</ele>
      </trkpt>
      <trkpt lat="44.9348" lon="-0.12652">
        <ele>87.1</ele>
      </trkpt>
      <trkpt lat="44.93473" lon="-0.12658">
        <ele>87</ele>
      </trkpt>
      <trkpt lat="44.93473" lon="-0.12658">
        <ele>87</ele>
      </trkpt>
      <trkpt lat="44.93455" lon="-0.12672">
        <ele>87</ele>
      </trkpt>
      <trkpt lat="44.93443" lon="-0.1268">
        <ele>87</ele>
      </trkpt>
      <trkpt lat="44.93432" lon="-0.12687">
        <ele>87</ele>
      </trkpt>
      <trkpt lat="44.93404" lon="-0.12702">
        <ele>86.4</ele>
      </trkpt>
      <trkpt lat="44.93386" lon="-0.12708">
        <ele>85.9</ele>
      </trkpt>
      <trkpt lat="44.93365" lon="-0.12712">
        <ele>85.5</ele>
      </trkpt>
      <trkpt lat="44.93327" lon="-0.12717">
        <ele>85.2</ele>
      </trkpt>
      <trkpt lat="44.93293" lon="-0.12723">
        <ele>86</ele>
      </trkpt>
      <trkpt lat="44.93278" lon="-0.12728">
        <ele>86</ele>
      </trkpt>
      <trkpt lat="44.93265" lon="-0.12733">
        <ele>86.3</ele>
      </trkpt>
      <trkpt lat="44.93251" lon="-0.12741">
        <ele>86.3</ele>
      </trkpt>
      <trkpt lat="44.93226" lon="-0.12757">
        <ele>86.6</ele>
      </trkpt>
      <trkpt lat="44.93178" lon="-0.1279">
        <ele>88.2</ele>
      </trkpt>
      <trkpt lat="44.93111" lon="-0.12831">
        <ele>90</ele>
      </trkpt>
      <trkpt lat="44.93053" lon="-0.12866">
        <ele>89</ele>
      </trkpt>
      <trkpt lat="44.93029" lon="-0.12881">
        <ele>89</ele>
      </trkpt>
      <trkpt lat="44.93035" lon="-0.129">
        <ele>89</ele>
      </trkpt>
      <trkpt lat="44.93037" lon="-0.12909">
        <ele>89</ele>
      </trkpt>
      <trkpt lat="44.93038" lon="-0.12919">
        <ele>89</ele>
      </trkpt>
      <trkpt lat="44.93035" lon="-0.12956">
        <ele>88.1</ele>
      </trkpt>
      <trkpt lat="44.93034" lon="-0.12984">
        <ele>86.8</ele>
      </trkpt>
      <trkpt lat="44.93034" lon="-0.12989">
        <ele>86.6</ele>
      </trkpt>
      <trkpt lat="44.93034" lon="-0.12984">
        <ele>86.8</ele>
      </trkpt>
      <trkpt lat="44.93035" lon="-0.12972">
        <ele>87.5</ele>
      </trkpt>
      <trkpt lat="44.93035" lon="-0.12956">
        <ele>88.1</ele>
      </trkpt>
      <trkpt lat="44.93037" lon="-0.12936">
        <ele>88.8</ele>
      </trkpt>
    </trkseg>
  </trk>
  <trk>
    <name><![CDATA[309]]></name>
    <extensions>
      <line xmlns="http://www.topografix.com/GPX/gpx_style/0/2">
        <color>880000</color>
        <width>4</width>
      </line>
    </extensions>
    <trkseg>
      <trkpt lat="44.77733" lon="-0.30769">
        <ele>80.7</ele>
      </trkpt>
      <trkpt lat="44.77502" lon="-0.30962">
        <ele>75.4</ele>
      </trkpt>
      <trkpt lat="44.77476" lon="-0.30978">
        <ele>75.6</ele>
      </trkpt>
      <trkpt lat="44.77381" lon="-0.30986">
        <ele>70.4</ele>
      </trkpt>
      <trkpt lat="44.77363" lon="-0.30999">
        <ele>69.2</ele>
      </trkpt>
      <trkpt lat="44.77341" lon="-0.31029">
        <ele>68.6</ele>
      </trkpt>
      <trkpt lat="44.77294" lon="-0.31132">
        <ele>68</ele>
      </trkpt>
      <trkpt lat="44.7727" lon="-0.31164">
        <ele>67</ele>
      </trkpt>
      <trkpt lat="44.77248" lon="-0.31171">
        <ele>67.1</ele>
      </trkpt>
      <trkpt lat="44.77228" lon="-0.31168">
        <ele>67.8</ele>
      </trkpt>
      <trkpt lat="44.77208" lon="-0.31156">
        <ele>68</ele>
      </trkpt>
      <trkpt lat="44.77161" lon="-0.31111">
        <ele>70.2</ele>
      </trkpt>
      <trkpt lat="44.77013" lon="-0.31007">
        <ele>79.2</ele>
      </trkpt>
      <trkpt lat="44.76967" lon="-0.31074">
        <ele>82.4</ele>
      </trkpt>
      <trkpt lat="44.76955" lon="-0.31109">
        <ele>83.2</ele>
      </trkpt>
      <trkpt lat="44.76831" lon="-0.31009">
        <ele>88.9</ele>
      </trkpt>
      <trkpt lat="44.76813" lon="-0.31007">
        <ele>90.4</ele>
      </trkpt>
      <trkpt lat="44.76788" lon="-0.30996">
        <ele>92.3</ele>
      </trkpt>
      <trkpt lat="44.76777" lon="-0.31007">
        <ele>94.5</ele>
      </trkpt>
      <trkpt lat="44.76757" lon="-0.31108">
        <ele>99.4</ele>
      </trkpt>
      <trkpt lat="44.7675" lon="-0.31118">
        <ele>100.2</ele>
      </trkpt>
      <trkpt lat="44.76741" lon="-0.31158">
        <ele>100.5</ele>
      </trkpt>
      <trkpt lat="44.76741" lon="-0.312">
        <ele>98</ele>
      </trkpt>
      <trkpt lat="44.76753" lon="-0.31279">
        <ele>95.7</ele>
      </trkpt>
      <trkpt lat="44.76895" lon="-0.3128">
        <ele>84.3</ele>
      </trkpt>
      <trkpt lat="44.7689" lon="-0.31399">
        <ele>81.7</ele>
      </trkpt>
      <trkpt lat="44.76961" lon="-0.31414">
        <ele>81.7</ele>
      </trkpt>
      <trkpt lat="44.77003" lon="-0.31416">
        <ele>81.7</ele>
      </trkpt>
      <trkpt lat="44.77046" lon="-0.31414">
        <ele>79.2</ele>
      </trkpt>
      <trkpt lat="44.77075" lon="-0.31408">
        <ele>78</ele>
      </trkpt>
      <trkpt lat="44.77093" lon="-0.31391">
        <ele>76.7</ele>
      </trkpt>
      <trkpt lat="44.77103" lon="-0.31399">
        <ele>76.7</ele>
      </trkpt>
      <trkpt lat="44.77191" lon="-0.31357">
        <ele>69.4</ele>
      </trkpt>
      <trkpt lat="44.77268" lon="-0.31308">
        <ele>66.6</ele>
      </trkpt>
      <trkpt lat="44.77283" lon="-0.31308">
        <ele>67.5</ele>
      </trkpt>
      <trkpt lat="44.77284" lon="-0.31311">
        <ele>67.5</ele>
      </trkpt>
      <trkpt lat="44.77322" lon="-0.31403">
        <ele>66.4</ele>
      </trkpt>
      <trkpt lat="44.77334" lon="-0.31424">
        <ele>66.9</ele>
      </trkpt>
      <trkpt lat="44.77365" lon="-0.31455">
        <ele>70.4</ele>
      </trkpt>
      <trkpt lat="44.77407" lon="-0.31497">
        <ele>71.4</ele>
      </trkpt>
      <trkpt lat="44.77439" lon="-0.31515">
        <ele>72.6</ele>
      </trkpt>
      <trkpt lat="44.77488" lon="-0.3156">
        <ele>71.3</ele>
      </trkpt>
      <trkpt lat="44.77545" lon="-0.31603">
        <ele>70.5</ele>
      </trkpt>
      <trkpt lat="44.77559" lon="-0.31604">
        <ele>70.9</ele>
      </trkpt>
      <trkpt lat="44.77596" lon="-0.31591">
        <ele>73.3</ele>
      </trkpt>
      <trkpt lat="44.77643" lon="-0.31592">
        <ele>73.3</ele>
      </trkpt>
      <trkpt lat="44.77661" lon="-0.31598">
        <ele>72.6</ele>
      </trkpt>
      <trkpt lat="44.77689" lon="-0.31601">
        <ele>70.8</ele>
      </trkpt>
      <trkpt lat="44.77701" lon="-0.31596">
        <ele>70.4</ele>
      </trkpt>
      <trkpt lat="44.7774" lon="-0.31598">
        <ele>69.9</ele>
      </trkpt>
      <trkpt lat="44.77773" lon="-0.31605">
        <ele>70.9</ele>
      </trkpt>
      <trkpt lat="44.77836" lon="-0.31618">
        <ele>72.6</ele>
      </trkpt>
      <trkpt lat="44.7797" lon="-0.3168">
        <ele>66.6</ele>
      </trkpt>
      <trkpt lat="44.77986" lon="-0.31682">
        <ele>66.5</ele>
      </trkpt>
      <trkpt lat="44.78076" lon="-0.31728">
        <ele>67.3</ele>
      </trkpt>
      <trkpt lat="44.781" lon="-0.31734">
        <ele>67.6</ele>
      </trkpt>
      <trkpt lat="44.78148" lon="-0.31736">
        <ele>67.7</ele>
      </trkpt>
      <trkpt lat="44.78191" lon="-0.31732">
        <ele>68.9</ele>
      </trkpt>
      <trkpt lat="44.78213" lon="-0.31737">
        <ele>68.7</ele>
      </trkpt>
      <trkpt lat="44.78273" lon="-0.31764">
        <ele>67.7</ele>
      </trkpt>
      <trkpt lat="44.7831" lon="-0.31773">
        <ele>66.5</ele>
      </trkpt>
      <trkpt lat="44.78354" lon="-0.31776">
        <ele>63.5</ele>
      </trkpt>
      <trkpt lat="44.78371" lon="-0.31775">
        <ele>62.5</ele>
      </trkpt>
      <trkpt lat="44.78383" lon="-0.31772">
        <ele>62</ele>
      </trkpt>
      <trkpt lat="44.78404" lon="-0.31764">
        <ele>60.7</ele>
      </trkpt>
      <trkpt lat="44.78423" lon="-0.31753">
        <ele>60</ele>
      </trkpt>
      <trkpt lat="44.78438" lon="-0.31748">
        <ele>60.1</ele>
      </trkpt>
      <trkpt lat="44.78454" lon="-0.31747">
        <ele>60.5</ele>
      </trkpt>
      <trkpt lat="44.78466" lon="-0.31751">
        <ele>60.7</ele>
      </trkpt>
      <trkpt lat="44.78534" lon="-0.31781">
        <ele>62.2</ele>
      </trkpt>
      <trkpt lat="44.78651" lon="-0.31816">
        <ele>65</ele>
      </trkpt>
      <trkpt lat="44.78686" lon="-0.31632">
        <ele>67.7</ele>
      </trkpt>
      <trkpt lat="44.7869" lon="-0.31585">
        <ele>67.8</ele>
      </trkpt>
      <trkpt lat="44.78692" lon="-0.31535">
        <ele>68</ele>
      </trkpt>
      <trkpt lat="44.78691" lon="-0.31487">
        <ele>69</ele>
      </trkpt>
      <trkpt lat="44.78686" lon="-0.31382">
        <ele>71.3</ele>
      </trkpt>
      <trkpt lat="44.78686" lon="-0.31302">
        <ele>72.6</ele>
      </trkpt>
      <trkpt lat="44.78725" lon="-0.30682">
        <ele>71.7</ele>
      </trkpt>
      <trkpt lat="44.78729" lon="-0.30613">
        <ele>71.5</ele>
      </trkpt>
      <trkpt lat="44.78725" lon="-0.30346">
        <ele>73.1</ele>
      </trkpt>
      <trkpt lat="44.78711" lon="-0.30042">
        <ele>77.5</ele>
      </trkpt>
      <trkpt lat="44.787" lon="-0.29843">
        <ele>82.5</ele>
      </trkpt>
      <trkpt lat="44.78692" lon="-0.2975">
        <ele>84.9</ele>
      </trkpt>
      <trkpt lat="44.78688" lon="-0.29727">
        <ele>84.8</ele>
      </trkpt>
      <trkpt lat="44.78636" lon="-0.29758">
        <ele>82.9</ele>
      </trkpt>
      <trkpt lat="44.78591" lon="-0.29786">
        <ele>82.2</ele>
      </trkpt>
      <trkpt lat="44.78537" lon="-0.29815">
        <ele>81.9</ele>
      </trkpt>
      <trkpt lat="44.78459" lon="-0.29866">
        <ele>83.3</ele>
      </trkpt>
      <trkpt lat="44.78408" lon="-0.29906">
        <ele>84</ele>
      </trkpt>
      <trkpt lat="44.78335" lon="-0.29986">
        <ele>86</ele>
      </trkpt>
      <trkpt lat="44.78313" lon="-0.30007">
        <ele>86.7</ele>
      </trkpt>
      <trkpt lat="44.78283" lon="-0.30027">
        <ele>87.8</ele>
      </trkpt>
      <trkpt lat="44.78237" lon="-0.30039">
        <ele>89.5</ele>
      </trkpt>
      <trkpt lat="44.78185" lon="-0.30112">
        <ele>94</ele>
      </trkpt>
      <trkpt lat="44.78171" lon="-0.30143">
        <ele>96.4</ele>
      </trkpt>
      <trkpt lat="44.78165" lon="-0.30173">
        <ele>99.3</ele>
      </trkpt>
      <trkpt lat="44.7816" lon="-0.30197">
        <ele>100.6</ele>
      </trkpt>
      <trkpt lat="44.78139" lon="-0.30239">
        <ele>101.6</ele>
      </trkpt>
      <trkpt lat="44.78106" lon="-0.30312">
        <ele>103</ele>
      </trkpt>
      <trkpt lat="44.78103" lon="-0.30334">
        <ele>103</ele>
      </trkpt>
      <trkpt lat="44.78106" lon="-0.30352">
        <ele>103</ele>
      </trkpt>
      <trkpt lat="44.7813" lon="-0.30425">
        <ele>100</ele>
      </trkpt>
      <trkpt lat="44.78133" lon="-0.30439">
        <ele>98.8</ele>
      </trkpt>
      <trkpt lat="44.78129" lon="-0.30467">
        <ele>97.1</ele>
      </trkpt>
      <trkpt lat="44.78111" lon="-0.30506">
        <ele>95.5</ele>
      </trkpt>
      <trkpt lat="44.78092" lon="-0.30541">
        <ele>94.5</ele>
      </trkpt>
      <trkpt lat="44.78079" lon="-0.30563">
        <ele>93.5</ele>
      </trkpt>
      <trkpt lat="44.78063" lon="-0.30581">
        <ele>92</ele>
      </trkpt>
      <trkpt lat="44.78043" lon="-0.30603">
        <ele>90.8</ele>
      </trkpt>
      <trkpt lat="44.78014" lon="-0.30629">
        <ele>90</ele>
      </trkpt>
      <trkpt lat="44.77961" lon="-0.30665">
        <ele>90.8</ele>
      </trkpt>
      <trkpt lat="44.7785" lon="-0.30767">
        <ele>85.8</ele>
      </trkpt>
      <trkpt lat="44.77841" lon="-0.30754">
        <ele>86.7</ele>
      </trkpt>
      <trkpt lat="44.77733" lon="-0.30769">
        <ele>80.7</ele>
      </trkpt>
    </trkseg>
  </trk>
  <trk>
    <name><![CDATA[randogps33-370]]></name>
    <extensions>
      <line xmlns="http://www.topografix.com/GPX/gpx_style/0/2">
        <color>008888</color>
        <width>4</width>
      </line>
    </extensions>
    <trkseg>
      <trkpt lat="44.78871" lon="-0.18343">
        <ele>60</ele>
      </trkpt>
      <trkpt lat="44.78893" lon="-0.18345">
        <ele>59</ele>
      </trkpt>
      <trkpt lat="44.78903" lon="-0.18341">
        <ele>59</ele>
      </trkpt>
      <trkpt lat="44.78915" lon="-0.18323">
        <ele>59</ele>
      </trkpt>
      <trkpt lat="44.78938" lon="-0.18356">
        <ele>52</ele>
      </trkpt>
      <trkpt lat="44.78965" lon="-0.18366">
        <ele>50</ele>
      </trkpt>
      <trkpt lat="44.79052" lon="-0.18367">
        <ele>41</ele>
      </trkpt>
      <trkpt lat="44.79072" lon="-0.18364">
        <ele>40</ele>
      </trkpt>
      <trkpt lat="44.79118" lon="-0.18376">
        <ele>36</ele>
      </trkpt>
      <trkpt lat="44.79226" lon="-0.18444">
        <ele>38</ele>
      </trkpt>
      <trkpt lat="44.79263" lon="-0.1849">
        <ele>46</ele>
      </trkpt>
      <trkpt lat="44.79273" lon="-0.18495">
        <ele>46</ele>
      </trkpt>
      <trkpt lat="44.79323" lon="-0.185">
        <ele>54</ele>
      </trkpt>
      <trkpt lat="44.7937" lon="-0.1849">
        <ele>57</ele>
      </trkpt>
      <trkpt lat="44.79371" lon="-0.18486">
        <ele>57</ele>
      </trkpt>
      <trkpt lat="44.79395" lon="-0.1848">
        <ele>58</ele>
      </trkpt>
      <trkpt lat="44.79416" lon="-0.18484">
        <ele>59</ele>
      </trkpt>
      <trkpt lat="44.79425" lon="-0.18474">
        <ele>62</ele>
      </trkpt>
      <trkpt lat="44.79445" lon="-0.18441">
        <ele>62</ele>
      </trkpt>
      <trkpt lat="44.79449" lon="-0.18442">
        <ele>62</ele>
      </trkpt>
      <trkpt lat="44.79453" lon="-0.18433">
        <ele>62</ele>
      </trkpt>
      <trkpt lat="44.79451" lon="-0.18445">
        <ele>62</ele>
      </trkpt>
      <trkpt lat="44.79478" lon="-0.18449">
        <ele>63</ele>
      </trkpt>
      <trkpt lat="44.79555" lon="-0.18449">
        <ele>67</ele>
      </trkpt>
      <trkpt lat="44.79561" lon="-0.18442">
        <ele>67</ele>
      </trkpt>
      <trkpt lat="44.79695" lon="-0.18413">
        <ele>73</ele>
      </trkpt>
      <trkpt lat="44.79739" lon="-0.18393">
        <ele>75</ele>
      </trkpt>
      <trkpt lat="44.79772" lon="-0.18364">
        <ele>74</ele>
      </trkpt>
      <trkpt lat="44.79805" lon="-0.18343">
        <ele>73</ele>
      </trkpt>
      <trkpt lat="44.79876" lon="-0.18307">
        <ele>69</ele>
      </trkpt>
      <trkpt lat="44.79909" lon="-0.18309">
        <ele>69</ele>
      </trkpt>
      <trkpt lat="44.79921" lon="-0.18305">
        <ele>69</ele>
      </trkpt>
      <trkpt lat="44.79948" lon="-0.18324">
        <ele>69</ele>
      </trkpt>
      <trkpt lat="44.79996" lon="-0.18313">
        <ele>69</ele>
      </trkpt>
      <trkpt lat="44.80005" lon="-0.18306">
        <ele>70</ele>
      </trkpt>
      <trkpt lat="44.80026" lon="-0.18304">
        <ele>70</ele>
      </trkpt>
      <trkpt lat="44.80134" lon="-0.18243">
        <ele>73</ele>
      </trkpt>
      <trkpt lat="44.80195" lon="-0.18194">
        <ele>74</ele>
      </trkpt>
      <trkpt lat="44.80236" lon="-0.18154">
        <ele>73</ele>
      </trkpt>
      <trkpt lat="44.80273" lon="-0.18108">
        <ele>72</ele>
      </trkpt>
      <trkpt lat="44.80366" lon="-0.18015">
        <ele>73</ele>
      </trkpt>
      <trkpt lat="44.80322" lon="-0.17901">
        <ele>70</ele>
      </trkpt>
      <trkpt lat="44.80296" lon="-0.17849">
        <ele>70</ele>
      </trkpt>
      <trkpt lat="44.80266" lon="-0.17733">
        <ele>70</ele>
      </trkpt>
      <trkpt lat="44.80231" lon="-0.17678">
        <ele>65</ele>
      </trkpt>
      <trkpt lat="44.80207" lon="-0.17619">
        <ele>65</ele>
      </trkpt>
      <trkpt lat="44.80214" lon="-0.17613">
        <ele>65</ele>
      </trkpt>
      <trkpt lat="44.80212" lon="-0.1762">
        <ele>65</ele>
      </trkpt>
      <trkpt lat="44.80212" lon="-0.17598">
        <ele>65</ele>
      </trkpt>
      <trkpt lat="44.80207" lon="-0.17587">
        <ele>65</ele>
      </trkpt>
      <trkpt lat="44.80193" lon="-0.1758">
        <ele>63</ele>
      </trkpt>
      <trkpt lat="44.80172" lon="-0.17505">
        <ele>60</ele>
      </trkpt>
      <trkpt lat="44.80169" lon="-0.1743">
        <ele>54</ele>
      </trkpt>
      <trkpt lat="44.80177" lon="-0.17378">
        <ele>48</ele>
      </trkpt>
      <trkpt lat="44.80184" lon="-0.17365">
        <ele>48</ele>
      </trkpt>
      <trkpt lat="44.8019" lon="-0.17286">
        <ele>42</ele>
      </trkpt>
      <trkpt lat="44.80206" lon="-0.17265">
        <ele>42</ele>
      </trkpt>
      <trkpt lat="44.80218" lon="-0.17266">
        <ele>42</ele>
      </trkpt>
      <trkpt lat="44.80295" lon="-0.17219">
        <ele>40</ele>
      </trkpt>
      <trkpt lat="44.80301" lon="-0.17227">
        <ele>40</ele>
      </trkpt>
      <trkpt lat="44.80299" lon="-0.17259">
        <ele>42</ele>
      </trkpt>
      <trkpt lat="44.80285" lon="-0.17338">
        <ele>44</ele>
      </trkpt>
      <trkpt lat="44.80241" lon="-0.17361">
        <ele>46</ele>
      </trkpt>
      <trkpt lat="44.80247" lon="-0.17403">
        <ele>49</ele>
      </trkpt>
      <trkpt lat="44.80265" lon="-0.17483">
        <ele>55</ele>
      </trkpt>
      <trkpt lat="44.80287" lon="-0.175">
        <ele>60</ele>
      </trkpt>
      <trkpt lat="44.80334" lon="-0.17519">
        <ele>59</ele>
      </trkpt>
      <trkpt lat="44.8036" lon="-0.17518">
        <ele>60</ele>
      </trkpt>
      <trkpt lat="44.80354" lon="-0.17524">
        <ele>61</ele>
      </trkpt>
      <trkpt lat="44.80365" lon="-0.17533">
        <ele>62</ele>
      </trkpt>
      <trkpt lat="44.80378" lon="-0.1753">
        <ele>62</ele>
      </trkpt>
      <trkpt lat="44.80436" lon="-0.17483">
        <ele>60</ele>
      </trkpt>
      <trkpt lat="44.80479" lon="-0.17465">
        <ele>62</ele>
      </trkpt>
      <trkpt lat="44.80487" lon="-0.17436">
        <ele>62</ele>
      </trkpt>
      <trkpt lat="44.80459" lon="-0.17389">
        <ele>61</ele>
      </trkpt>
      <trkpt lat="44.80453" lon="-0.17368">
        <ele>61</ele>
      </trkpt>
      <trkpt lat="44.80457" lon="-0.17345">
        <ele>61</ele>
      </trkpt>
      <trkpt lat="44.80453" lon="-0.17315">
        <ele>62</ele>
      </trkpt>
      <trkpt lat="44.80458" lon="-0.17306">
        <ele>63</ele>
      </trkpt>
      <trkpt lat="44.80488" lon="-0.17291">
        <ele>65</ele>
      </trkpt>
      <trkpt lat="44.80488" lon="-0.17295">
        <ele>65</ele>
      </trkpt>
      <trkpt lat="44.80509" lon="-0.1727">
        <ele>69</ele>
      </trkpt>
      <trkpt lat="44.80515" lon="-0.17212">
        <ele>65</ele>
      </trkpt>
      <trkpt lat="44.80528" lon="-0.17185">
        <ele>64</ele>
      </trkpt>
      <trkpt lat="44.80551" lon="-0.17177">
        <ele>64</ele>
      </trkpt>
      <trkpt lat="44.80562" lon="-0.17179">
        <ele>63</ele>
      </trkpt>
      <trkpt lat="44.80604" lon="-0.17213">
        <ele>63</ele>
      </trkpt>
      <trkpt lat="44.80628" lon="-0.17222">
        <ele>63</ele>
      </trkpt>
      <trkpt lat="44.80655" lon="-0.17227">
        <ele>63</ele>
      </trkpt>
      <trkpt lat="44.80689" lon="-0.17224">
        <ele>61</ele>
      </trkpt>
      <trkpt lat="44.80711" lon="-0.17228">
        <ele>61</ele>
      </trkpt>
      <trkpt lat="44.80753" lon="-0.17252">
        <ele>65</ele>
      </trkpt>
      <trkpt lat="44.8077" lon="-0.17256">
        <ele>66</ele>
      </trkpt>
      <trkpt lat="44.80783" lon="-0.17249">
        <ele>64</ele>
      </trkpt>
      <trkpt lat="44.80813" lon="-0.17212">
        <ele>65</ele>
      </trkpt>
      <trkpt lat="44.8083" lon="-0.17178">
        <ele>66</ele>
      </trkpt>
      <trkpt lat="44.80834" lon="-0.17152">
        <ele>69</ele>
      </trkpt>
      <trkpt lat="44.8083" lon="-0.17149">
        <ele>64</ele>
      </trkpt>
      <trkpt lat="44.8081" lon="-0.17155">
        <ele>63</ele>
      </trkpt>
      <trkpt lat="44.80829" lon="-0.17151">
        <ele>64</ele>
      </trkpt>
      <trkpt lat="44.80855" lon="-0.17135">
        <ele>71</ele>
      </trkpt>
      <trkpt lat="44.80855" lon="-0.17144">
        <ele>71</ele>
      </trkpt>
      <trkpt lat="44.80862" lon="-0.17134">
        <ele>71</ele>
      </trkpt>
      <trkpt lat="44.80869" lon="-0.17134">
        <ele>72</ele>
      </trkpt>
      <trkpt lat="44.80898" lon="-0.17113">
        <ele>74</ele>
      </trkpt>
      <trkpt lat="44.80967" lon="-0.17085">
        <ele>79</ele>
      </trkpt>
      <trkpt lat="44.81048" lon="-0.17042">
        <ele>77</ele>
      </trkpt>
      <trkpt lat="44.81078" lon="-0.17017">
        <ele>75</ele>
      </trkpt>
      <trkpt lat="44.81084" lon="-0.17018">
        <ele>72</ele>
      </trkpt>
      <trkpt lat="44.81107" lon="-0.1703">
        <ele>72</ele>
      </trkpt>
      <trkpt lat="44.81344" lon="-0.17085">
        <ele>70</ele>
      </trkpt>
      <trkpt lat="44.81381" lon="-0.17084">
        <ele>70</ele>
      </trkpt>
      <trkpt lat="44.81566" lon="-0.17026">
        <ele>68</ele>
      </trkpt>
      <trkpt lat="44.81695" lon="-0.17016">
        <ele>66</ele>
      </trkpt>
      <trkpt lat="44.81729" lon="-0.17017">
        <ele>66</ele>
      </trkpt>
      <trkpt lat="44.81766" lon="-0.17">
        <ele>65</ele>
      </trkpt>
      <trkpt lat="44.81863" lon="-0.16922">
        <ele>62</ele>
      </trkpt>
      <trkpt lat="44.81895" lon="-0.16889">
        <ele>61</ele>
      </trkpt>
      <trkpt lat="44.81913" lon="-0.1684">
        <ele>62</ele>
      </trkpt>
      <trkpt lat="44.8192" lon="-0.16773">
        <ele>61</ele>
      </trkpt>
      <trkpt lat="44.81965" lon="-0.16697">
        <ele>59</ele>
      </trkpt>
      <trkpt lat="44.82104" lon="-0.16498">
        <ele>59</ele>
      </trkpt>
      <trkpt lat="44.82176" lon="-0.16345">
        <ele>57</ele>
      </trkpt>
      <trkpt lat="44.82215" lon="-0.16279">
        <ele>55</ele>
      </trkpt>
      <trkpt lat="44.82237" lon="-0.16185">
        <ele>52</ele>
      </trkpt>
      <trkpt lat="44.82254" lon="-0.16165">
        <ele>51</ele>
      </trkpt>
      <trkpt lat="44.82289" lon="-0.16142">
        <ele>51</ele>
      </trkpt>
      <trkpt lat="44.82307" lon="-0.16146">
        <ele>51</ele>
      </trkpt>
      <trkpt lat="44.82316" lon="-0.16144">
        <ele>51</ele>
      </trkpt>
      <trkpt lat="44.82325" lon="-0.16135">
        <ele>51</ele>
      </trkpt>
      <trkpt lat="44.82459" lon="-0.15987">
        <ele>41</ele>
      </trkpt>
      <trkpt lat="44.82471" lon="-0.15965">
        <ele>40</ele>
      </trkpt>
      <trkpt lat="44.82477" lon="-0.15937">
        <ele>38</ele>
      </trkpt>
      <trkpt lat="44.82472" lon="-0.15925">
        <ele>38</ele>
      </trkpt>
      <trkpt lat="44.82481" lon="-0.15915">
        <ele>33</ele>
      </trkpt>
      <trkpt lat="44.82484" lon="-0.15923">
        <ele>36</ele>
      </trkpt>
      <trkpt lat="44.82471" lon="-0.1592">
        <ele>38</ele>
      </trkpt>
      <trkpt lat="44.82467" lon="-0.15914">
        <ele>35</ele>
      </trkpt>
      <trkpt lat="44.82455" lon="-0.15883">
        <ele>35</ele>
      </trkpt>
      <trkpt lat="44.82461" lon="-0.15859">
        <ele>33</ele>
      </trkpt>
      <trkpt lat="44.82473" lon="-0.15851">
        <ele>31</ele>
      </trkpt>
      <trkpt lat="44.82497" lon="-0.15868">
        <ele>31</ele>
      </trkpt>
      <trkpt lat="44.82518" lon="-0.15896">
        <ele>23</ele>
      </trkpt>
      <trkpt lat="44.82551" lon="-0.15906">
        <ele>18</ele>
      </trkpt>
      <trkpt lat="44.8256" lon="-0.15899">
        <ele>17</ele>
      </trkpt>
      <trkpt lat="44.82578" lon="-0.15877">
        <ele>16</ele>
      </trkpt>
      <trkpt lat="44.82698" lon="-0.15799">
        <ele>5</ele>
      </trkpt>
      <trkpt lat="44.82681" lon="-0.15786">
        <ele>5</ele>
      </trkpt>
      <trkpt lat="44.8265" lon="-0.15771">
        <ele>5</ele>
      </trkpt>
      <trkpt lat="44.82624" lon="-0.1575">
        <ele>5</ele>
      </trkpt>
      <trkpt lat="44.8258" lon="-0.15732">
        <ele>7</ele>
      </trkpt>
      <trkpt lat="44.8256" lon="-0.15717">
        <ele>7</ele>
      </trkpt>
      <trkpt lat="44.82531" lon="-0.15684">
        <ele>7</ele>
      </trkpt>
      <trkpt lat="44.8247" lon="-0.1563">
        <ele>12</ele>
      </trkpt>
      <trkpt lat="44.82442" lon="-0.15599">
        <ele>14</ele>
      </trkpt>
      <trkpt lat="44.82337" lon="-0.15462">
        <ele>18</ele>
      </trkpt>
      <trkpt lat="44.8224" lon="-0.15323">
        <ele>17</ele>
      </trkpt>
      <trkpt lat="44.82215" lon="-0.15311">
        <ele>16</ele>
      </trkpt>
      <trkpt lat="44.82188" lon="-0.15312">
        <ele>18</ele>
      </trkpt>
      <trkpt lat="44.82146" lon="-0.15306">
        <ele>19</ele>
      </trkpt>
      <trkpt lat="44.8206" lon="-0.15307">
        <ele>17</ele>
      </trkpt>
      <trkpt lat="44.82023" lon="-0.15292">
        <ele>14</ele>
      </trkpt>
      <trkpt lat="44.81978" lon="-0.15267">
        <ele>12</ele>
      </trkpt>
      <trkpt lat="44.81925" lon="-0.15244">
        <ele>9</ele>
      </trkpt>
      <trkpt lat="44.81898" lon="-0.15241">
        <ele>12</ele>
      </trkpt>
      <trkpt lat="44.81888" lon="-0.15245">
        <ele>13</ele>
      </trkpt>
      <trkpt lat="44.81881" lon="-0.15254">
        <ele>19</ele>
      </trkpt>
      <trkpt lat="44.81887" lon="-0.15263">
        <ele>18</ele>
      </trkpt>
      <trkpt lat="44.81894" lon="-0.15251">
        <ele>17</ele>
      </trkpt>
      <trkpt lat="44.81915" lon="-0.15251">
        <ele>11</ele>
      </trkpt>
      <trkpt lat="44.81936" lon="-0.15266">
        <ele>12</ele>
      </trkpt>
      <trkpt lat="44.81955" lon="-0.1529">
        <ele>14</ele>
      </trkpt>
      <trkpt lat="44.81984" lon="-0.15316">
        <ele>16</ele>
      </trkpt>
      <trkpt lat="44.82053" lon="-0.15358">
        <ele>26</ele>
      </trkpt>
      <trkpt lat="44.82065" lon="-0.1536">
        <ele>26</ele>
      </trkpt>
      <trkpt lat="44.82075" lon="-0.15369">
        <ele>27</ele>
      </trkpt>
      <trkpt lat="44.8209" lon="-0.1541">
        <ele>34</ele>
      </trkpt>
      <trkpt lat="44.82127" lon="-0.15549">
        <ele>40</ele>
      </trkpt>
      <trkpt lat="44.8217" lon="-0.15794">
        <ele>44</ele>
      </trkpt>
      <trkpt lat="44.82167" lon="-0.15817">
        <ele>44</ele>
      </trkpt>
      <trkpt lat="44.82083" lon="-0.15899">
        <ele>41</ele>
      </trkpt>
      <trkpt lat="44.82061" lon="-0.15914">
        <ele>41</ele>
      </trkpt>
      <trkpt lat="44.82032" lon="-0.15916">
        <ele>40</ele>
      </trkpt>
      <trkpt lat="44.82011" lon="-0.15929">
        <ele>41</ele>
      </trkpt>
      <trkpt lat="44.81978" lon="-0.15991">
        <ele>39</ele>
      </trkpt>
      <trkpt lat="44.81919" lon="-0.16076">
        <ele>38</ele>
      </trkpt>
      <trkpt lat="44.81856" lon="-0.16151">
        <ele>35</ele>
      </trkpt>
      <trkpt lat="44.81825" lon="-0.16219">
        <ele>34</ele>
      </trkpt>
      <trkpt lat="44.81809" lon="-0.16305">
        <ele>37</ele>
      </trkpt>
      <trkpt lat="44.8182" lon="-0.16332">
        <ele>38</ele>
      </trkpt>
      <trkpt lat="44.81863" lon="-0.16401">
        <ele>43</ele>
      </trkpt>
      <trkpt lat="44.81873" lon="-0.16427">
        <ele>44</ele>
      </trkpt>
      <trkpt lat="44.81994" lon="-0.16641">
        <ele>58</ele>
      </trkpt>
      <trkpt lat="44.81994" lon="-0.16657">
        <ele>59</ele>
      </trkpt>
      <trkpt lat="44.81931" lon="-0.16759">
        <ele>61</ele>
      </trkpt>
      <trkpt lat="44.81922" lon="-0.1679">
        <ele>61</ele>
      </trkpt>
      <trkpt lat="44.81916" lon="-0.16859">
        <ele>61</ele>
      </trkpt>
      <trkpt lat="44.81901" lon="-0.16888">
        <ele>61</ele>
      </trkpt>
      <trkpt lat="44.81812" lon="-0.1697">
        <ele>62</ele>
      </trkpt>
      <trkpt lat="44.81766" lon="-0.17007">
        <ele>65</ele>
      </trkpt>
      <trkpt lat="44.81744" lon="-0.17017">
        <ele>66</ele>
      </trkpt>
      <trkpt lat="44.81618" lon="-0.17026">
        <ele>67</ele>
      </trkpt>
      <trkpt lat="44.81568" lon="-0.17027">
        <ele>68</ele>
      </trkpt>
      <trkpt lat="44.81557" lon="-0.17015">
        <ele>68</ele>
      </trkpt>
      <trkpt lat="44.81552" lon="-0.16975">
        <ele>67</ele>
      </trkpt>
      <trkpt lat="44.81524" lon="-0.16881">
        <ele>63</ele>
      </trkpt>
      <trkpt lat="44.81503" lon="-0.16871">
        <ele>62</ele>
      </trkpt>
      <trkpt lat="44.81506" lon="-0.16869">
        <ele>62</ele>
      </trkpt>
      <trkpt lat="44.815" lon="-0.16863">
        <ele>60</ele>
      </trkpt>
      <trkpt lat="44.81491" lon="-0.16859">
        <ele>60</ele>
      </trkpt>
      <trkpt lat="44.81458" lon="-0.16866">
        <ele>60</ele>
      </trkpt>
      <trkpt lat="44.81431" lon="-0.16854">
        <ele>59</ele>
      </trkpt>
      <trkpt lat="44.8143" lon="-0.16809">
        <ele>54</ele>
      </trkpt>
      <trkpt lat="44.81425" lon="-0.16795">
        <ele>53</ele>
      </trkpt>
      <trkpt lat="44.81419" lon="-0.16675">
        <ele>45</ele>
      </trkpt>
      <trkpt lat="44.81412" lon="-0.16674">
        <ele>45</ele>
      </trkpt>
      <trkpt lat="44.81415" lon="-0.16672">
        <ele>45</ele>
      </trkpt>
      <trkpt lat="44.81419" lon="-0.16674">
        <ele>44</ele>
      </trkpt>
      <trkpt lat="44.81425" lon="-0.16663">
        <ele>44</ele>
      </trkpt>
      <trkpt lat="44.81473" lon="-0.16541">
        <ele>43</ele>
      </trkpt>
      <trkpt lat="44.81481" lon="-0.16508">
        <ele>42</ele>
      </trkpt>
      <trkpt lat="44.81473" lon="-0.16445">
        <ele>41</ele>
      </trkpt>
      <trkpt lat="44.81481" lon="-0.16429">
        <ele>40</ele>
      </trkpt>
      <trkpt lat="44.81561" lon="-0.1637">
        <ele>36</ele>
      </trkpt>
      <trkpt lat="44.81559" lon="-0.16356">
        <ele>36</ele>
      </trkpt>
      <trkpt lat="44.81463" lon="-0.16171">
        <ele>37</ele>
      </trkpt>
      <trkpt lat="44.81438" lon="-0.16095">
        <ele>37</ele>
      </trkpt>
      <trkpt lat="44.81453" lon="-0.16068">
        <ele>38</ele>
      </trkpt>
      <trkpt lat="44.81466" lon="-0.16063">
        <ele>37</ele>
      </trkpt>
      <trkpt lat="44.81458" lon="-0.16063">
        <ele>38</ele>
      </trkpt>
      <trkpt lat="44.81455" lon="-0.16059">
        <ele>38</ele>
      </trkpt>
      <trkpt lat="44.81453" lon="-0.16063">
        <ele>38</ele>
      </trkpt>
      <trkpt lat="44.81458" lon="-0.1605">
        <ele>38</ele>
      </trkpt>
      <trkpt lat="44.81456" lon="-0.16016">
        <ele>38</ele>
      </trkpt>
      <trkpt lat="44.81439" lon="-0.15973">
        <ele>38</ele>
      </trkpt>
      <trkpt lat="44.81378" lon="-0.15926">
        <ele>36</ele>
      </trkpt>
      <trkpt lat="44.81343" lon="-0.15841">
        <ele>34</ele>
      </trkpt>
      <trkpt lat="44.81299" lon="-0.1576">
        <ele>33</ele>
      </trkpt>
      <trkpt lat="44.81277" lon="-0.15709">
        <ele>31</ele>
      </trkpt>
      <trkpt lat="44.81246" lon="-0.15658">
        <ele>30</ele>
      </trkpt>
      <trkpt lat="44.81223" lon="-0.15586">
        <ele>28</ele>
      </trkpt>
      <trkpt lat="44.81203" lon="-0.15566">
        <ele>26</ele>
      </trkpt>
      <trkpt lat="44.81192" lon="-0.15566">
        <ele>26</ele>
      </trkpt>
      <trkpt lat="44.81171" lon="-0.15574">
        <ele>27</ele>
      </trkpt>
      <trkpt lat="44.8116" lon="-0.15571">
        <ele>27</ele>
      </trkpt>
      <trkpt lat="44.81151" lon="-0.15562">
        <ele>26</ele>
      </trkpt>
      <trkpt lat="44.81138" lon="-0.15539">
        <ele>26</ele>
      </trkpt>
      <trkpt lat="44.8109" lon="-0.15441">
        <ele>21</ele>
      </trkpt>
      <trkpt lat="44.81074" lon="-0.15442">
        <ele>21</ele>
      </trkpt>
      <trkpt lat="44.81044" lon="-0.15464">
        <ele>22</ele>
      </trkpt>
      <trkpt lat="44.80887" lon="-0.15594">
        <ele>27</ele>
      </trkpt>
      <trkpt lat="44.80877" lon="-0.15612">
        <ele>27</ele>
      </trkpt>
      <trkpt lat="44.80877" lon="-0.15627">
        <ele>28</ele>
      </trkpt>
      <trkpt lat="44.80899" lon="-0.15698">
        <ele>33</ele>
      </trkpt>
      <trkpt lat="44.80966" lon="-0.15855">
        <ele>47</ele>
      </trkpt>
      <trkpt lat="44.8097" lon="-0.15885">
        <ele>49</ele>
      </trkpt>
      <trkpt lat="44.80955" lon="-0.15945">
        <ele>53</ele>
      </trkpt>
      <trkpt lat="44.80835" lon="-0.1619">
        <ele>63</ele>
      </trkpt>
      <trkpt lat="44.80823" lon="-0.16228">
        <ele>60</ele>
      </trkpt>
      <trkpt lat="44.80829" lon="-0.16235">
        <ele>62</ele>
      </trkpt>
      <trkpt lat="44.80836" lon="-0.16227">
        <ele>66</ele>
      </trkpt>
      <trkpt lat="44.80829" lon="-0.16236">
        <ele>62</ele>
      </trkpt>
      <trkpt lat="44.80826" lon="-0.16268">
        <ele>63</ele>
      </trkpt>
      <trkpt lat="44.80833" lon="-0.16306">
        <ele>62</ele>
      </trkpt>
      <trkpt lat="44.80862" lon="-0.16417">
        <ele>63</ele>
      </trkpt>
      <trkpt lat="44.80871" lon="-0.16477">
        <ele>65</ele>
      </trkpt>
      <trkpt lat="44.80875" lon="-0.16614">
        <ele>64</ele>
      </trkpt>
      <trkpt lat="44.80887" lon="-0.16719">
        <ele>66</ele>
      </trkpt>
      <trkpt lat="44.80876" lon="-0.16758">
        <ele>67</ele>
      </trkpt>
      <trkpt lat="44.80867" lon="-0.16761">
        <ele>67</ele>
      </trkpt>
      <trkpt lat="44.80794" lon="-0.16741">
        <ele>62</ele>
      </trkpt>
      <trkpt lat="44.8079" lon="-0.16734">
        <ele>62</ele>
      </trkpt>
      <trkpt lat="44.80795" lon="-0.1674">
        <ele>62</ele>
      </trkpt>
      <trkpt lat="44.80789" lon="-0.16733">
        <ele>62</ele>
      </trkpt>
      <trkpt lat="44.80766" lon="-0.16725">
        <ele>61</ele>
      </trkpt>
      <trkpt lat="44.80706" lon="-0.16689">
        <ele>55</ele>
      </trkpt>
      <trkpt lat="44.80695" lon="-0.16673">
        <ele>53</ele>
      </trkpt>
      <trkpt lat="44.80673" lon="-0.16598">
        <ele>40</ele>
      </trkpt>
      <trkpt lat="44.80645" lon="-0.16544">
        <ele>33</ele>
      </trkpt>
      <trkpt lat="44.80578" lon="-0.16456">
        <ele>29</ele>
      </trkpt>
      <trkpt lat="44.80555" lon="-0.16433">
        <ele>28</ele>
      </trkpt>
      <trkpt lat="44.80513" lon="-0.16429">
        <ele>26</ele>
      </trkpt>
      <trkpt lat="44.80469" lon="-0.1644">
        <ele>24</ele>
      </trkpt>
      <trkpt lat="44.80458" lon="-0.16438">
        <ele>24</ele>
      </trkpt>
      <trkpt lat="44.80432" lon="-0.16448">
        <ele>23</ele>
      </trkpt>
      <trkpt lat="44.80409" lon="-0.16463">
        <ele>25</ele>
      </trkpt>
      <trkpt lat="44.80393" lon="-0.16463">
        <ele>25</ele>
      </trkpt>
      <trkpt lat="44.80392" lon="-0.16471">
        <ele>25</ele>
      </trkpt>
      <trkpt lat="44.80344" lon="-0.16504">
        <ele>27</ele>
      </trkpt>
      <trkpt lat="44.8033" lon="-0.16508">
        <ele>28</ele>
      </trkpt>
      <trkpt lat="44.80325" lon="-0.16514">
        <ele>28</ele>
      </trkpt>
      <trkpt lat="44.80291" lon="-0.16508">
        <ele>29</ele>
      </trkpt>
      <trkpt lat="44.80287" lon="-0.16504">
        <ele>29</ele>
      </trkpt>
      <trkpt lat="44.80262" lon="-0.16502">
        <ele>30</ele>
      </trkpt>
      <trkpt lat="44.802" lon="-0.16503">
        <ele>31</ele>
      </trkpt>
      <trkpt lat="44.80138" lon="-0.16526">
        <ele>36</ele>
      </trkpt>
      <trkpt lat="44.80117" lon="-0.16415">
        <ele>27</ele>
      </trkpt>
      <trkpt lat="44.80103" lon="-0.16387">
        <ele>26</ele>
      </trkpt>
      <trkpt lat="44.80084" lon="-0.16389">
        <ele>27</ele>
      </trkpt>
      <trkpt lat="44.79989" lon="-0.1643">
        <ele>34</ele>
      </trkpt>
      <trkpt lat="44.79979" lon="-0.16429">
        <ele>35</ele>
      </trkpt>
      <trkpt lat="44.79924" lon="-0.16453">
        <ele>37</ele>
      </trkpt>
      <trkpt lat="44.79895" lon="-0.16461">
        <ele>35</ele>
      </trkpt>
      <trkpt lat="44.79827" lon="-0.16494">
        <ele>31</ele>
      </trkpt>
      <trkpt lat="44.79786" lon="-0.16494">
        <ele>27</ele>
      </trkpt>
      <trkpt lat="44.79777" lon="-0.165">
        <ele>30</ele>
      </trkpt>
      <trkpt lat="44.79787" lon="-0.16633">
        <ele>44</ele>
      </trkpt>
      <trkpt lat="44.79813" lon="-0.16647">
        <ele>46</ele>
      </trkpt>
      <trkpt lat="44.79813" lon="-0.16656">
        <ele>47</ele>
      </trkpt>
      <trkpt lat="44.79795" lon="-0.16664">
        <ele>46</ele>
      </trkpt>
      <trkpt lat="44.79787" lon="-0.16678">
        <ele>51</ele>
      </trkpt>
      <trkpt lat="44.79799" lon="-0.1669">
        <ele>52</ele>
      </trkpt>
      <trkpt lat="44.7981" lon="-0.16743">
        <ele>55</ele>
      </trkpt>
      <trkpt lat="44.79784" lon="-0.1678">
        <ele>59</ele>
      </trkpt>
      <trkpt lat="44.7976" lon="-0.16832">
        <ele>59</ele>
      </trkpt>
      <trkpt lat="44.79732" lon="-0.16936">
        <ele>57</ele>
      </trkpt>
      <trkpt lat="44.79728" lon="-0.16999">
        <ele>56</ele>
      </trkpt>
      <trkpt lat="44.79689" lon="-0.17167">
        <ele>58</ele>
      </trkpt>
      <trkpt lat="44.79686" lon="-0.17199">
        <ele>60</ele>
      </trkpt>
      <trkpt lat="44.79732" lon="-0.17268">
        <ele>65</ele>
      </trkpt>
      <trkpt lat="44.79739" lon="-0.17296">
        <ele>66</ele>
      </trkpt>
      <trkpt lat="44.79739" lon="-0.17326">
        <ele>67</ele>
      </trkpt>
      <trkpt lat="44.79721" lon="-0.17413">
        <ele>68</ele>
      </trkpt>
      <trkpt lat="44.79718" lon="-0.17459">
        <ele>69</ele>
      </trkpt>
      <trkpt lat="44.79701" lon="-0.17477">
        <ele>69</ele>
      </trkpt>
      <trkpt lat="44.79646" lon="-0.17504">
        <ele>70</ele>
      </trkpt>
      <trkpt lat="44.79612" lon="-0.17516">
        <ele>70</ele>
      </trkpt>
      <trkpt lat="44.7957" lon="-0.17521">
        <ele>70</ele>
      </trkpt>
      <trkpt lat="44.79509" lon="-0.17536">
        <ele>69</ele>
      </trkpt>
      <trkpt lat="44.79495" lon="-0.17557">
        <ele>64</ele>
      </trkpt>
      <trkpt lat="44.79493" lon="-0.17585">
        <ele>66</ele>
      </trkpt>
      <trkpt lat="44.79477" lon="-0.17617">
        <ele>61</ele>
      </trkpt>
      <trkpt lat="44.79477" lon="-0.17585">
        <ele>62</ele>
      </trkpt>
      <trkpt lat="44.79468" lon="-0.17544">
        <ele>62</ele>
      </trkpt>
      <trkpt lat="44.79462" lon="-0.17539">
        <ele>61</ele>
      </trkpt>
      <trkpt lat="44.79441" lon="-0.17534">
        <ele>59</ele>
      </trkpt>
      <trkpt lat="44.79397" lon="-0.17568">
        <ele>48</ele>
      </trkpt>
      <trkpt lat="44.7933" lon="-0.17587">
        <ele>36</ele>
      </trkpt>
      <trkpt lat="44.79165" lon="-0.17643">
        <ele>26</ele>
      </trkpt>
      <trkpt lat="44.79057" lon="-0.17675">
        <ele>32</ele>
      </trkpt>
      <trkpt lat="44.78946" lon="-0.17717">
        <ele>44</ele>
      </trkpt>
      <trkpt lat="44.78923" lon="-0.17717">
        <ele>45</ele>
      </trkpt>
      <trkpt lat="44.78909" lon="-0.17724">
        <ele>52</ele>
      </trkpt>
      <trkpt lat="44.78906" lon="-0.17735">
        <ele>52</ele>
      </trkpt>
      <trkpt lat="44.78903" lon="-0.17795">
        <ele>54</ele>
      </trkpt>
      <trkpt lat="44.78892" lon="-0.17846">
        <ele>56</ele>
      </trkpt>
      <trkpt lat="44.78884" lon="-0.18016">
        <ele>64</ele>
      </trkpt>
      <trkpt lat="44.78914" lon="-0.18139">
        <ele>63</ele>
      </trkpt>
      <trkpt lat="44.78916" lon="-0.18321">
        <ele>59</ele>
      </trkpt>
      <trkpt lat="44.78905" lon="-0.18342">
        <ele>59</ele>
      </trkpt>
      <trkpt lat="44.78877" lon="-0.18344">
        <ele>60</ele>
      </trkpt>
    </trkseg>
  </trk>
  <trk>
    <name><![CDATA[track]]></name>
    <extensions>
      <line xmlns="http://www.topografix.com/GPX/gpx_style/0/2">
        <color>888800</color>
        <width>4</width>
      </line>
    </extensions>
    <trkseg>
      <trkpt lat="44.80166" lon="-0.21277">
        <ele>69</ele>
      </trkpt>
      <trkpt lat="44.80166" lon="-0.21283">
        <ele>68</ele>
      </trkpt>
      <trkpt lat="44.80157" lon="-0.21308">
        <ele>66</ele>
      </trkpt>
      <trkpt lat="44.80129" lon="-0.21319">
        <ele>67</ele>
      </trkpt>
      <trkpt lat="44.80117" lon="-0.21317">
        <ele>66</ele>
      </trkpt>
      <trkpt lat="44.80105" lon="-0.2128">
        <ele>66</ele>
      </trkpt>
      <trkpt lat="44.80098" lon="-0.21249">
        <ele>64</ele>
      </trkpt>
      <trkpt lat="44.80055" lon="-0.21138">
        <ele>56</ele>
      </trkpt>
      <trkpt lat="44.80042" lon="-0.21096">
        <ele>55</ele>
      </trkpt>
      <trkpt lat="44.80033" lon="-0.21048">
        <ele>56</ele>
      </trkpt>
      <trkpt lat="44.80024" lon="-0.20979">
        <ele>55</ele>
      </trkpt>
      <trkpt lat="44.8001" lon="-0.20957">
        <ele>55</ele>
      </trkpt>
      <trkpt lat="44.79908" lon="-0.20994">
        <ele>64</ele>
      </trkpt>
      <trkpt lat="44.79867" lon="-0.2101">
        <ele>67</ele>
      </trkpt>
      <trkpt lat="44.79849" lon="-0.21019">
        <ele>68</ele>
      </trkpt>
      <trkpt lat="44.79848" lon="-0.21026">
        <ele>67</ele>
      </trkpt>
      <trkpt lat="44.79885" lon="-0.21153">
        <ele>64</ele>
      </trkpt>
      <trkpt lat="44.79872" lon="-0.21167">
        <ele>66</ele>
      </trkpt>
      <trkpt lat="44.79765" lon="-0.21204">
        <ele>75</ele>
      </trkpt>
      <trkpt lat="44.79731" lon="-0.21221">
        <ele>70</ele>
      </trkpt>
      <trkpt lat="44.79724" lon="-0.21226">
        <ele>68</ele>
      </trkpt>
      <trkpt lat="44.79721" lon="-0.2128">
        <ele>68</ele>
      </trkpt>
      <trkpt lat="44.79716" lon="-0.21296">
        <ele>68</ele>
      </trkpt>
      <trkpt lat="44.79708" lon="-0.21304">
        <ele>69</ele>
      </trkpt>
      <trkpt lat="44.79623" lon="-0.21348">
        <ele>78</ele>
      </trkpt>
      <trkpt lat="44.79549" lon="-0.21373">
        <ele>88</ele>
      </trkpt>
      <trkpt lat="44.79519" lon="-0.21288">
        <ele>78</ele>
      </trkpt>
      <trkpt lat="44.79486" lon="-0.21234">
        <ele>73</ele>
      </trkpt>
      <trkpt lat="44.7948" lon="-0.21228">
        <ele>73</ele>
      </trkpt>
      <trkpt lat="44.79468" lon="-0.2121">
        <ele>71</ele>
      </trkpt>
      <trkpt lat="44.79459" lon="-0.21186">
        <ele>72</ele>
      </trkpt>
      <trkpt lat="44.79444" lon="-0.21161">
        <ele>81</ele>
      </trkpt>
      <trkpt lat="44.79415" lon="-0.21093">
        <ele>79</ele>
      </trkpt>
      <trkpt lat="44.79397" lon="-0.21099">
        <ele>81</ele>
      </trkpt>
      <trkpt lat="44.79316" lon="-0.21154">
        <ele>90</ele>
      </trkpt>
      <trkpt lat="44.79281" lon="-0.21173">
        <ele>91</ele>
      </trkpt>
      <trkpt lat="44.79263" lon="-0.21185">
        <ele>93</ele>
      </trkpt>
      <trkpt lat="44.7925" lon="-0.21191">
        <ele>93</ele>
      </trkpt>
      <trkpt lat="44.79247" lon="-0.21188">
        <ele>92</ele>
      </trkpt>
      <trkpt lat="44.79213" lon="-0.21092">
        <ele>79</ele>
      </trkpt>
      <trkpt lat="44.79168" lon="-0.20977">
        <ele>75</ele>
      </trkpt>
      <trkpt lat="44.79159" lon="-0.20942">
        <ele>74</ele>
      </trkpt>
      <trkpt lat="44.79163" lon="-0.20925">
        <ele>74</ele>
      </trkpt>
      <trkpt lat="44.79121" lon="-0.20803">
        <ele>71</ele>
      </trkpt>
      <trkpt lat="44.79127" lon="-0.20783">
        <ele>72</ele>
      </trkpt>
      <trkpt lat="44.79153" lon="-0.20767">
        <ele>76</ele>
      </trkpt>
      <trkpt lat="44.79153" lon="-0.2076">
        <ele>75</ele>
      </trkpt>
      <trkpt lat="44.79135" lon="-0.20767">
        <ele>77</ele>
      </trkpt>
      <trkpt lat="44.79095" lon="-0.2079">
        <ele>79</ele>
      </trkpt>
      <trkpt lat="44.79082" lon="-0.2079">
        <ele>80</ele>
      </trkpt>
      <trkpt lat="44.79077" lon="-0.20728">
        <ele>77</ele>
      </trkpt>
      <trkpt lat="44.79066" lon="-0.20664">
        <ele>76</ele>
      </trkpt>
      <trkpt lat="44.79063" lon="-0.20621">
        <ele>75</ele>
      </trkpt>
      <trkpt lat="44.79046" lon="-0.20496">
        <ele>79</ele>
      </trkpt>
      <trkpt lat="44.79048" lon="-0.2048">
        <ele>81</ele>
      </trkpt>
      <trkpt lat="44.79037" lon="-0.20406">
        <ele>78</ele>
      </trkpt>
      <trkpt lat="44.79037" lon="-0.2039">
        <ele>83</ele>
      </trkpt>
      <trkpt lat="44.79031" lon="-0.20351">
        <ele>86</ele>
      </trkpt>
      <trkpt lat="44.79032" lon="-0.20345">
        <ele>86</ele>
      </trkpt>
      <trkpt lat="44.79029" lon="-0.20339">
        <ele>86</ele>
      </trkpt>
      <trkpt lat="44.7903" lon="-0.20322">
        <ele>85</ele>
      </trkpt>
      <trkpt lat="44.79023" lon="-0.20261">
        <ele>79</ele>
      </trkpt>
      <trkpt lat="44.79013" lon="-0.20209">
        <ele>79</ele>
      </trkpt>
      <trkpt lat="44.79011" lon="-0.20179">
        <ele>77</ele>
      </trkpt>
      <trkpt lat="44.79002" lon="-0.20145">
        <ele>74</ele>
      </trkpt>
      <trkpt lat="44.79" lon="-0.20123">
        <ele>72</ele>
      </trkpt>
      <trkpt lat="44.78989" lon="-0.20081">
        <ele>75</ele>
      </trkpt>
      <trkpt lat="44.7897" lon="-0.19986">
        <ele>74</ele>
      </trkpt>
      <trkpt lat="44.78963" lon="-0.19937">
        <ele>64</ele>
      </trkpt>
      <trkpt lat="44.78958" lon="-0.19932">
        <ele>63</ele>
      </trkpt>
      <trkpt lat="44.78949" lon="-0.19932">
        <ele>63</ele>
      </trkpt>
      <trkpt lat="44.78893" lon="-0.19936">
        <ele>65</ele>
      </trkpt>
      <trkpt lat="44.78892" lon="-0.19933">
        <ele>67</ele>
      </trkpt>
      <trkpt lat="44.7889" lon="-0.19938">
        <ele>70</ele>
      </trkpt>
      <trkpt lat="44.78883" lon="-0.19938">
        <ele>75</ele>
      </trkpt>
      <trkpt lat="44.78854" lon="-0.19947">
        <ele>78</ele>
      </trkpt>
      <trkpt lat="44.78791" lon="-0.19971">
        <ele>82</ele>
      </trkpt>
      <trkpt lat="44.78786" lon="-0.19967">
        <ele>83</ele>
      </trkpt>
      <trkpt lat="44.78785" lon="-0.19961">
        <ele>83</ele>
      </trkpt>
      <trkpt lat="44.78777" lon="-0.19866">
        <ele>81</ele>
      </trkpt>
      <trkpt lat="44.78775" lon="-0.19857">
        <ele>80</ele>
      </trkpt>
      <trkpt lat="44.78762" lon="-0.19849">
        <ele>82</ele>
      </trkpt>
      <trkpt lat="44.78675" lon="-0.19869">
        <ele>80</ele>
      </trkpt>
      <trkpt lat="44.78656" lon="-0.19876">
        <ele>80</ele>
      </trkpt>
      <trkpt lat="44.78637" lon="-0.19879">
        <ele>79</ele>
      </trkpt>
      <trkpt lat="44.786" lon="-0.19896">
        <ele>75</ele>
      </trkpt>
      <trkpt lat="44.78576" lon="-0.19898">
        <ele>67</ele>
      </trkpt>
      <trkpt lat="44.78558" lon="-0.19905">
        <ele>70</ele>
      </trkpt>
      <trkpt lat="44.78538" lon="-0.19908">
        <ele>72</ele>
      </trkpt>
      <trkpt lat="44.78532" lon="-0.19912">
        <ele>72</ele>
      </trkpt>
      <trkpt lat="44.78512" lon="-0.19916">
        <ele>77</ele>
      </trkpt>
      <trkpt lat="44.78503" lon="-0.19907">
        <ele>77</ele>
      </trkpt>
      <trkpt lat="44.78515" lon="-0.1987">
        <ele>73</ele>
      </trkpt>
      <trkpt lat="44.78514" lon="-0.19863">
        <ele>73</ele>
      </trkpt>
      <trkpt lat="44.78499" lon="-0.19873">
        <ele>72</ele>
      </trkpt>
      <trkpt lat="44.78491" lon="-0.19916">
        <ele>67</ele>
      </trkpt>
      <trkpt lat="44.78475" lon="-0.1997">
        <ele>65</ele>
      </trkpt>
      <trkpt lat="44.78472" lon="-0.19994">
        <ele>65</ele>
      </trkpt>
      <trkpt lat="44.78457" lon="-0.20042">
        <ele>67</ele>
      </trkpt>
      <trkpt lat="44.78455" lon="-0.20043">
        <ele>67</ele>
      </trkpt>
      <trkpt lat="44.78436" lon="-0.20034">
        <ele>68</ele>
      </trkpt>
      <trkpt lat="44.78356" lon="-0.19959">
        <ele>66</ele>
      </trkpt>
      <trkpt lat="44.78352" lon="-0.19959">
        <ele>65</ele>
      </trkpt>
      <trkpt lat="44.78338" lon="-0.20044">
        <ele>58</ele>
      </trkpt>
      <trkpt lat="44.78327" lon="-0.20079">
        <ele>55</ele>
      </trkpt>
      <trkpt lat="44.78318" lon="-0.20098">
        <ele>54</ele>
      </trkpt>
      <trkpt lat="44.78305" lon="-0.2012">
        <ele>53</ele>
      </trkpt>
      <trkpt lat="44.78271" lon="-0.20169">
        <ele>56</ele>
      </trkpt>
      <trkpt lat="44.78277" lon="-0.20194">
        <ele>55</ele>
      </trkpt>
      <trkpt lat="44.78283" lon="-0.20203">
        <ele>53</ele>
      </trkpt>
      <trkpt lat="44.78289" lon="-0.20219">
        <ele>54</ele>
      </trkpt>
      <trkpt lat="44.783" lon="-0.20232">
        <ele>57</ele>
      </trkpt>
      <trkpt lat="44.78216" lon="-0.20291">
        <ele>60</ele>
      </trkpt>
      <trkpt lat="44.78219" lon="-0.20333">
        <ele>60</ele>
      </trkpt>
      <trkpt lat="44.78216" lon="-0.20339">
        <ele>60</ele>
      </trkpt>
      <trkpt lat="44.78221" lon="-0.20367">
        <ele>58</ele>
      </trkpt>
      <trkpt lat="44.78231" lon="-0.20424">
        <ele>62</ele>
      </trkpt>
      <trkpt lat="44.7825" lon="-0.20483">
        <ele>61</ele>
      </trkpt>
      <trkpt lat="44.78263" lon="-0.20548">
        <ele>62</ele>
      </trkpt>
      <trkpt lat="44.78271" lon="-0.20621">
        <ele>57</ele>
      </trkpt>
      <trkpt lat="44.7828" lon="-0.20642">
        <ele>50</ele>
      </trkpt>
      <trkpt lat="44.78302" lon="-0.20711">
        <ele>33</ele>
      </trkpt>
      <trkpt lat="44.78303" lon="-0.20775">
        <ele>43</ele>
      </trkpt>
      <trkpt lat="44.78294" lon="-0.2082">
        <ele>46</ele>
      </trkpt>
      <trkpt lat="44.78282" lon="-0.20859">
        <ele>50</ele>
      </trkpt>
      <trkpt lat="44.78285" lon="-0.20881">
        <ele>53</ele>
      </trkpt>
      <trkpt lat="44.78293" lon="-0.20899">
        <ele>54</ele>
      </trkpt>
      <trkpt lat="44.783" lon="-0.20928">
        <ele>51</ele>
      </trkpt>
      <trkpt lat="44.78314" lon="-0.21018">
        <ele>59</ele>
      </trkpt>
      <trkpt lat="44.78318" lon="-0.21026">
        <ele>60</ele>
      </trkpt>
      <trkpt lat="44.78319" lon="-0.21039">
        <ele>63</ele>
      </trkpt>
      <trkpt lat="44.78321" lon="-0.21044">
        <ele>62</ele>
      </trkpt>
      <trkpt lat="44.78322" lon="-0.21074">
        <ele>63</ele>
      </trkpt>
      <trkpt lat="44.78325" lon="-0.21115">
        <ele>62</ele>
      </trkpt>
      <trkpt lat="44.78328" lon="-0.21128">
        <ele>58</ele>
      </trkpt>
      <trkpt lat="44.78327" lon="-0.21167">
        <ele>49</ele>
      </trkpt>
      <trkpt lat="44.78318" lon="-0.21212">
        <ele>50</ele>
      </trkpt>
      <trkpt lat="44.78311" lon="-0.21227">
        <ele>53</ele>
      </trkpt>
      <trkpt lat="44.78299" lon="-0.21275">
        <ele>57</ele>
      </trkpt>
      <trkpt lat="44.78295" lon="-0.2128">
        <ele>58</ele>
      </trkpt>
      <trkpt lat="44.78284" lon="-0.21279">
        <ele>59</ele>
      </trkpt>
      <trkpt lat="44.78244" lon="-0.21254">
        <ele>57</ele>
      </trkpt>
      <trkpt lat="44.7821" lon="-0.21247">
        <ele>49</ele>
      </trkpt>
      <trkpt lat="44.78098" lon="-0.21246">
        <ele>40</ele>
      </trkpt>
      <trkpt lat="44.78078" lon="-0.21253">
        <ele>40</ele>
      </trkpt>
      <trkpt lat="44.78065" lon="-0.2125">
        <ele>38</ele>
      </trkpt>
      <trkpt lat="44.78049" lon="-0.2125">
        <ele>34</ele>
      </trkpt>
      <trkpt lat="44.78044" lon="-0.21245">
        <ele>34</ele>
      </trkpt>
      <trkpt lat="44.78011" lon="-0.21224">
        <ele>39</ele>
      </trkpt>
      <trkpt lat="44.78001" lon="-0.2122">
        <ele>40</ele>
      </trkpt>
      <trkpt lat="44.77975" lon="-0.21204">
        <ele>40</ele>
      </trkpt>
      <trkpt lat="44.77949" lon="-0.21182">
        <ele>34</ele>
      </trkpt>
      <trkpt lat="44.7793" lon="-0.2116">
        <ele>28</ele>
      </trkpt>
      <trkpt lat="44.77913" lon="-0.21147">
        <ele>20</ele>
      </trkpt>
      <trkpt lat="44.77883" lon="-0.21146">
        <ele>29</ele>
      </trkpt>
      <trkpt lat="44.77856" lon="-0.21169">
        <ele>41</ele>
      </trkpt>
      <trkpt lat="44.77829" lon="-0.21273">
        <ele>52</ele>
      </trkpt>
      <trkpt lat="44.7781" lon="-0.21289">
        <ele>60</ele>
      </trkpt>
      <trkpt lat="44.7779" lon="-0.21314">
        <ele>61</ele>
      </trkpt>
      <trkpt lat="44.77786" lon="-0.21326">
        <ele>63</ele>
      </trkpt>
      <trkpt lat="44.77701" lon="-0.21348">
        <ele>72</ele>
      </trkpt>
      <trkpt lat="44.77689" lon="-0.21353">
        <ele>72</ele>
      </trkpt>
      <trkpt lat="44.77693" lon="-0.21376">
        <ele>73</ele>
      </trkpt>
      <trkpt lat="44.7771" lon="-0.21423">
        <ele>71</ele>
      </trkpt>
      <trkpt lat="44.77729" lon="-0.21482">
        <ele>72</ele>
      </trkpt>
      <trkpt lat="44.77737" lon="-0.21525">
        <ele>74</ele>
      </trkpt>
      <trkpt lat="44.77744" lon="-0.21545">
        <ele>74</ele>
      </trkpt>
      <trkpt lat="44.77754" lon="-0.21617">
        <ele>74</ele>
      </trkpt>
      <trkpt lat="44.7778" lon="-0.2169">
        <ele>78</ele>
      </trkpt>
      <trkpt lat="44.77789" lon="-0.2173">
        <ele>78</ele>
      </trkpt>
      <trkpt lat="44.77808" lon="-0.21776">
        <ele>77</ele>
      </trkpt>
      <trkpt lat="44.77815" lon="-0.21801">
        <ele>73</ele>
      </trkpt>
      <trkpt lat="44.77811" lon="-0.21825">
        <ele>73</ele>
      </trkpt>
      <trkpt lat="44.77812" lon="-0.21856">
        <ele>70</ele>
      </trkpt>
      <trkpt lat="44.77794" lon="-0.21909">
        <ele>68</ele>
      </trkpt>
      <trkpt lat="44.77793" lon="-0.21925">
        <ele>66</ele>
      </trkpt>
      <trkpt lat="44.77797" lon="-0.21976">
        <ele>63</ele>
      </trkpt>
      <trkpt lat="44.77795" lon="-0.2199">
        <ele>64</ele>
      </trkpt>
      <trkpt lat="44.77791" lon="-0.21998">
        <ele>63</ele>
      </trkpt>
      <trkpt lat="44.77789" lon="-0.22028">
        <ele>67</ele>
      </trkpt>
      <trkpt lat="44.77793" lon="-0.22048">
        <ele>73</ele>
      </trkpt>
      <trkpt lat="44.77796" lon="-0.22054">
        <ele>73</ele>
      </trkpt>
      <trkpt lat="44.77806" lon="-0.22065">
        <ele>74</ele>
      </trkpt>
      <trkpt lat="44.77815" lon="-0.22069">
        <ele>73</ele>
      </trkpt>
      <trkpt lat="44.77824" lon="-0.22069">
        <ele>73</ele>
      </trkpt>
      <trkpt lat="44.77834" lon="-0.22065">
        <ele>72</ele>
      </trkpt>
      <trkpt lat="44.77841" lon="-0.22068">
        <ele>72</ele>
      </trkpt>
      <trkpt lat="44.7785" lon="-0.22077">
        <ele>73</ele>
      </trkpt>
      <trkpt lat="44.77878" lon="-0.22143">
        <ele>62</ele>
      </trkpt>
      <trkpt lat="44.77878" lon="-0.22147">
        <ele>63</ele>
      </trkpt>
      <trkpt lat="44.77888" lon="-0.22163">
        <ele>66</ele>
      </trkpt>
      <trkpt lat="44.77997" lon="-0.2232">
        <ele>76</ele>
      </trkpt>
      <trkpt lat="44.78053" lon="-0.22403">
        <ele>76</ele>
      </trkpt>
      <trkpt lat="44.78065" lon="-0.22425">
        <ele>75</ele>
      </trkpt>
      <trkpt lat="44.78093" lon="-0.22463">
        <ele>75</ele>
      </trkpt>
      <trkpt lat="44.78116" lon="-0.22498">
        <ele>73</ele>
      </trkpt>
      <trkpt lat="44.78128" lon="-0.22523">
        <ele>71</ele>
      </trkpt>
      <trkpt lat="44.78164" lon="-0.22574">
        <ele>73</ele>
      </trkpt>
      <trkpt lat="44.78189" lon="-0.22626">
        <ele>69</ele>
      </trkpt>
      <trkpt lat="44.78201" lon="-0.22646">
        <ele>71</ele>
      </trkpt>
      <trkpt lat="44.78251" lon="-0.22572">
        <ele>78</ele>
      </trkpt>
      <trkpt lat="44.78257" lon="-0.22565">
        <ele>78</ele>
      </trkpt>
      <trkpt lat="44.78268" lon="-0.22577">
        <ele>78</ele>
      </trkpt>
      <trkpt lat="44.78276" lon="-0.22601">
        <ele>78</ele>
      </trkpt>
      <trkpt lat="44.78283" lon="-0.22625">
        <ele>78</ele>
      </trkpt>
      <trkpt lat="44.78291" lon="-0.2264">
        <ele>77</ele>
      </trkpt>
      <trkpt lat="44.78298" lon="-0.22637">
        <ele>76</ele>
      </trkpt>
      <trkpt lat="44.78307" lon="-0.22638">
        <ele>75</ele>
      </trkpt>
      <trkpt lat="44.78307" lon="-0.22668">
        <ele>75</ele>
      </trkpt>
      <trkpt lat="44.78331" lon="-0.22699">
        <ele>73</ele>
      </trkpt>
      <trkpt lat="44.78341" lon="-0.22707">
        <ele>73</ele>
      </trkpt>
      <trkpt lat="44.78392" lon="-0.22677">
        <ele>78</ele>
      </trkpt>
      <trkpt lat="44.78398" lon="-0.22678">
        <ele>77</ele>
      </trkpt>
      <trkpt lat="44.78414" lon="-0.22698">
        <ele>76</ele>
      </trkpt>
      <trkpt lat="44.7842" lon="-0.22718">
        <ele>74</ele>
      </trkpt>
      <trkpt lat="44.78409" lon="-0.22738">
        <ele>74</ele>
      </trkpt>
      <trkpt lat="44.78392" lon="-0.22756">
        <ele>75</ele>
      </trkpt>
      <trkpt lat="44.78386" lon="-0.22764">
        <ele>75</ele>
      </trkpt>
      <trkpt lat="44.78386" lon="-0.22768">
        <ele>75</ele>
      </trkpt>
      <trkpt lat="44.78396" lon="-0.22791">
        <ele>73</ele>
      </trkpt>
      <trkpt lat="44.78429" lon="-0.22842">
        <ele>76</ele>
      </trkpt>
      <trkpt lat="44.78446" lon="-0.22875">
        <ele>77</ele>
      </trkpt>
      <trkpt lat="44.78453" lon="-0.22875">
        <ele>76</ele>
      </trkpt>
      <trkpt lat="44.7848" lon="-0.22842">
        <ele>77</ele>
      </trkpt>
      <trkpt lat="44.78492" lon="-0.22823">
        <ele>76</ele>
      </trkpt>
      <trkpt lat="44.78506" lon="-0.22808">
        <ele>75</ele>
      </trkpt>
      <trkpt lat="44.78534" lon="-0.22768">
        <ele>75</ele>
      </trkpt>
      <trkpt lat="44.78552" lon="-0.22745">
        <ele>73</ele>
      </trkpt>
      <trkpt lat="44.78555" lon="-0.22745">
        <ele>73</ele>
      </trkpt>
      <trkpt lat="44.78603" lon="-0.22923">
        <ele>78</ele>
      </trkpt>
      <trkpt lat="44.78627" lon="-0.22981">
        <ele>77</ele>
      </trkpt>
      <trkpt lat="44.78646" lon="-0.23033">
        <ele>75</ele>
      </trkpt>
      <trkpt lat="44.7865" lon="-0.23063">
        <ele>72</ele>
      </trkpt>
      <trkpt lat="44.78631" lon="-0.23092">
        <ele>76</ele>
      </trkpt>
      <trkpt lat="44.78648" lon="-0.23136">
        <ele>74</ele>
      </trkpt>
      <trkpt lat="44.78665" lon="-0.23164">
        <ele>72</ele>
      </trkpt>
      <trkpt lat="44.78672" lon="-0.23182">
        <ele>70</ele>
      </trkpt>
      <trkpt lat="44.78695" lon="-0.23258">
        <ele>62</ele>
      </trkpt>
      <trkpt lat="44.78719" lon="-0.23318">
        <ele>59</ele>
      </trkpt>
      <trkpt lat="44.78744" lon="-0.23392">
        <ele>61</ele>
      </trkpt>
      <trkpt lat="44.7875" lon="-0.23413">
        <ele>61</ele>
      </trkpt>
      <trkpt lat="44.78771" lon="-0.2347">
        <ele>60</ele>
      </trkpt>
      <trkpt lat="44.78773" lon="-0.23498">
        <ele>58</ele>
      </trkpt>
      <trkpt lat="44.78771" lon="-0.23525">
        <ele>58</ele>
      </trkpt>
      <trkpt lat="44.78783" lon="-0.23625">
        <ele>54</ele>
      </trkpt>
      <trkpt lat="44.78794" lon="-0.23679">
        <ele>55</ele>
      </trkpt>
      <trkpt lat="44.78797" lon="-0.23706">
        <ele>55</ele>
      </trkpt>
      <trkpt lat="44.78797" lon="-0.23727">
        <ele>55</ele>
      </trkpt>
      <trkpt lat="44.78805" lon="-0.23826">
        <ele>48</ele>
      </trkpt>
      <trkpt lat="44.78805" lon="-0.23861">
        <ele>50</ele>
      </trkpt>
      <trkpt lat="44.7881" lon="-0.23863">
        <ele>49</ele>
      </trkpt>
      <trkpt lat="44.78815" lon="-0.2386">
        <ele>49</ele>
      </trkpt>
      <trkpt lat="44.78855" lon="-0.23832">
        <ele>48</ele>
      </trkpt>
      <trkpt lat="44.7887" lon="-0.23814">
        <ele>48</ele>
      </trkpt>
      <trkpt lat="44.78885" lon="-0.23803">
        <ele>47</ele>
      </trkpt>
      <trkpt lat="44.78903" lon="-0.23792">
        <ele>47</ele>
      </trkpt>
      <trkpt lat="44.78924" lon="-0.23772">
        <ele>50</ele>
      </trkpt>
      <trkpt lat="44.78929" lon="-0.23763">
        <ele>47</ele>
      </trkpt>
      <trkpt lat="44.78937" lon="-0.23759">
        <ele>45</ele>
      </trkpt>
      <trkpt lat="44.78937" lon="-0.23753">
        <ele>43</ele>
      </trkpt>
      <trkpt lat="44.78944" lon="-0.23734">
        <ele>40</ele>
      </trkpt>
      <trkpt lat="44.78954" lon="-0.23725">
        <ele>40</ele>
      </trkpt>
      <trkpt lat="44.78965" lon="-0.23724">
        <ele>41</ele>
      </trkpt>
      <trkpt lat="44.79014" lon="-0.23745">
        <ele>50</ele>
      </trkpt>
      <trkpt lat="44.79029" lon="-0.23752">
        <ele>50</ele>
      </trkpt>
      <trkpt lat="44.79039" lon="-0.23761">
        <ele>52</ele>
      </trkpt>
      <trkpt lat="44.79046" lon="-0.23773">
        <ele>56</ele>
      </trkpt>
      <trkpt lat="44.79056" lon="-0.23807">
        <ele>63</ele>
      </trkpt>
      <trkpt lat="44.7907" lon="-0.23843">
        <ele>61</ele>
      </trkpt>
      <trkpt lat="44.79086" lon="-0.23848">
        <ele>62</ele>
      </trkpt>
      <trkpt lat="44.79092" lon="-0.23847">
        <ele>61</ele>
      </trkpt>
      <trkpt lat="44.79097" lon="-0.23844">
        <ele>62</ele>
      </trkpt>
      <trkpt lat="44.79169" lon="-0.23818">
        <ele>64</ele>
      </trkpt>
      <trkpt lat="44.79183" lon="-0.23829">
        <ele>66</ele>
      </trkpt>
      <trkpt lat="44.79189" lon="-0.23849">
        <ele>67</ele>
      </trkpt>
      <trkpt lat="44.79215" lon="-0.23977">
        <ele>61</ele>
      </trkpt>
      <trkpt lat="44.79221" lon="-0.24001">
        <ele>63</ele>
      </trkpt>
      <trkpt lat="44.79229" lon="-0.24022">
        <ele>65</ele>
      </trkpt>
      <trkpt lat="44.7923" lon="-0.24033">
        <ele>64</ele>
      </trkpt>
      <trkpt lat="44.79258" lon="-0.24218">
        <ele>46</ele>
      </trkpt>
      <trkpt lat="44.79263" lon="-0.24273">
        <ele>47</ele>
      </trkpt>
      <trkpt lat="44.79285" lon="-0.24392">
        <ele>51</ele>
      </trkpt>
      <trkpt lat="44.79289" lon="-0.24404">
        <ele>51</ele>
      </trkpt>
      <trkpt lat="44.79302" lon="-0.24404">
        <ele>50</ele>
      </trkpt>
      <trkpt lat="44.79307" lon="-0.24402">
        <ele>51</ele>
      </trkpt>
      <trkpt lat="44.79315" lon="-0.24391">
        <ele>49</ele>
      </trkpt>
      <trkpt lat="44.79327" lon="-0.24389">
        <ele>48</ele>
      </trkpt>
      <trkpt lat="44.79339" lon="-0.24369">
        <ele>47</ele>
      </trkpt>
      <trkpt lat="44.79345" lon="-0.24366">
        <ele>47</ele>
      </trkpt>
      <trkpt lat="44.79356" lon="-0.24366">
        <ele>48</ele>
      </trkpt>
      <trkpt lat="44.79361" lon="-0.2435">
        <ele>53</ele>
      </trkpt>
      <trkpt lat="44.79366" lon="-0.24358">
        <ele>53</ele>
      </trkpt>
      <trkpt lat="44.7937" lon="-0.24358">
        <ele>53</ele>
      </trkpt>
      <trkpt lat="44.79382" lon="-0.24416">
        <ele>53</ele>
      </trkpt>
      <trkpt lat="44.7939" lon="-0.24436">
        <ele>53</ele>
      </trkpt>
      <trkpt lat="44.79397" lon="-0.24445">
        <ele>55</ele>
      </trkpt>
      <trkpt lat="44.79417" lon="-0.24447">
        <ele>54</ele>
      </trkpt>
      <trkpt lat="44.79462" lon="-0.24442">
        <ele>52</ele>
      </trkpt>
      <trkpt lat="44.79473" lon="-0.24438">
        <ele>51</ele>
      </trkpt>
      <trkpt lat="44.79513" lon="-0.24419">
        <ele>59</ele>
      </trkpt>
      <trkpt lat="44.79525" lon="-0.24416">
        <ele>60</ele>
      </trkpt>
      <trkpt lat="44.79533" lon="-0.24402">
        <ele>57</ele>
      </trkpt>
      <trkpt lat="44.7954" lon="-0.24351">
        <ele>53</ele>
      </trkpt>
      <trkpt lat="44.79542" lon="-0.2429">
        <ele>50</ele>
      </trkpt>
      <trkpt lat="44.79545" lon="-0.24255">
        <ele>51</ele>
      </trkpt>
      <trkpt lat="44.79549" lon="-0.2424">
        <ele>53</ele>
      </trkpt>
      <trkpt lat="44.79544" lon="-0.24183">
        <ele>58</ele>
      </trkpt>
      <trkpt lat="44.79546" lon="-0.24063">
        <ele>60</ele>
      </trkpt>
      <trkpt lat="44.79535" lon="-0.23966">
        <ele>65</ele>
      </trkpt>
      <trkpt lat="44.79541" lon="-0.23955">
        <ele>65</ele>
      </trkpt>
      <trkpt lat="44.79586" lon="-0.23938">
        <ele>66</ele>
      </trkpt>
      <trkpt lat="44.79603" lon="-0.23935">
        <ele>66</ele>
      </trkpt>
      <trkpt lat="44.79697" lon="-0.23902">
        <ele>64</ele>
      </trkpt>
      <trkpt lat="44.79718" lon="-0.23897">
        <ele>67</ele>
      </trkpt>
      <trkpt lat="44.79722" lon="-0.23897">
        <ele>68</ele>
      </trkpt>
      <trkpt lat="44.79726" lon="-0.23904">
        <ele>68</ele>
      </trkpt>
      <trkpt lat="44.79738" lon="-0.2395">
        <ele>65</ele>
      </trkpt>
      <trkpt lat="44.79758" lon="-0.23947">
        <ele>66</ele>
      </trkpt>
      <trkpt lat="44.79796" lon="-0.2393">
        <ele>69</ele>
      </trkpt>
      <trkpt lat="44.79815" lon="-0.2392">
        <ele>66</ele>
      </trkpt>
      <trkpt lat="44.79842" lon="-0.23892">
        <ele>65</ele>
      </trkpt>
      <trkpt lat="44.79864" lon="-0.23854">
        <ele>66</ele>
      </trkpt>
      <trkpt lat="44.799" lon="-0.23826">
        <ele>66</ele>
      </trkpt>
      <trkpt lat="44.79934" lon="-0.23794">
        <ele>66</ele>
      </trkpt>
      <trkpt lat="44.7994" lon="-0.23794">
        <ele>66</ele>
      </trkpt>
      <trkpt lat="44.79947" lon="-0.23803">
        <ele>65</ele>
      </trkpt>
      <trkpt lat="44.7999" lon="-0.23879">
        <ele>67</ele>
      </trkpt>
      <trkpt lat="44.80008" lon="-0.23871">
        <ele>67</ele>
      </trkpt>
      <trkpt lat="44.80025" lon="-0.23855">
        <ele>64</ele>
      </trkpt>
      <trkpt lat="44.80043" lon="-0.23846">
        <ele>64</ele>
      </trkpt>
      <trkpt lat="44.80051" lon="-0.23831">
        <ele>64</ele>
      </trkpt>
      <trkpt lat="44.80054" lon="-0.23818">
        <ele>64</ele>
      </trkpt>
      <trkpt lat="44.80057" lon="-0.23791">
        <ele>61</ele>
      </trkpt>
      <trkpt lat="44.80058" lon="-0.23751">
        <ele>60</ele>
      </trkpt>
      <trkpt lat="44.80082" lon="-0.23738">
        <ele>59</ele>
      </trkpt>
      <trkpt lat="44.80102" lon="-0.23735">
        <ele>61</ele>
      </trkpt>
      <trkpt lat="44.8011" lon="-0.23706">
        <ele>58</ele>
      </trkpt>
      <trkpt lat="44.80146" lon="-0.2356">
        <ele>56</ele>
      </trkpt>
      <trkpt lat="44.80155" lon="-0.23534">
        <ele>59</ele>
      </trkpt>
      <trkpt lat="44.80171" lon="-0.23462">
        <ele>59</ele>
      </trkpt>
      <trkpt lat="44.8019" lon="-0.23389">
        <ele>59</ele>
      </trkpt>
      <trkpt lat="44.8024" lon="-0.2316">
        <ele>54</ele>
      </trkpt>
      <trkpt lat="44.80272" lon="-0.23039">
        <ele>51</ele>
      </trkpt>
      <trkpt lat="44.80279" lon="-0.22999">
        <ele>52</ele>
      </trkpt>
      <trkpt lat="44.80282" lon="-0.22989">
        <ele>51</ele>
      </trkpt>
      <trkpt lat="44.80294" lon="-0.22981">
        <ele>53</ele>
      </trkpt>
      <trkpt lat="44.80291" lon="-0.22947">
        <ele>51</ele>
      </trkpt>
      <trkpt lat="44.80278" lon="-0.22899">
        <ele>51</ele>
      </trkpt>
      <trkpt lat="44.80278" lon="-0.22864">
        <ele>50</ele>
      </trkpt>
      <trkpt lat="44.80283" lon="-0.22837">
        <ele>49</ele>
      </trkpt>
      <trkpt lat="44.80278" lon="-0.22787">
        <ele>48</ele>
      </trkpt>
      <trkpt lat="44.80295" lon="-0.22768">
        <ele>52</ele>
      </trkpt>
      <trkpt lat="44.80309" lon="-0.22761">
        <ele>55</ele>
      </trkpt>
      <trkpt lat="44.80315" lon="-0.22753">
        <ele>57</ele>
      </trkpt>
      <trkpt lat="44.80318" lon="-0.22752">
        <ele>58</ele>
      </trkpt>
      <trkpt lat="44.8033" lon="-0.2274">
        <ele>60</ele>
      </trkpt>
      <trkpt lat="44.80352" lon="-0.22726">
        <ele>62</ele>
      </trkpt>
      <trkpt lat="44.8035" lon="-0.22716">
        <ele>60</ele>
      </trkpt>
      <trkpt lat="44.80347" lon="-0.22717">
        <ele>60</ele>
      </trkpt>
      <trkpt lat="44.80348" lon="-0.22716">
        <ele>60</ele>
      </trkpt>
      <trkpt lat="44.80356" lon="-0.22714">
        <ele>60</ele>
      </trkpt>
      <trkpt lat="44.80361" lon="-0.22717">
        <ele>60</ele>
      </trkpt>
      <trkpt lat="44.80382" lon="-0.22702">
        <ele>59</ele>
      </trkpt>
      <trkpt lat="44.80416" lon="-0.22681">
        <ele>65</ele>
      </trkpt>
      <trkpt lat="44.80419" lon="-0.22676">
        <ele>65</ele>
      </trkpt>
      <trkpt lat="44.80433" lon="-0.22665">
        <ele>66</ele>
      </trkpt>
      <trkpt lat="44.80442" lon="-0.22661">
        <ele>68</ele>
      </trkpt>
      <trkpt lat="44.80499" lon="-0.22618">
        <ele>70</ele>
      </trkpt>
      <trkpt lat="44.80515" lon="-0.22599">
        <ele>71</ele>
      </trkpt>
      <trkpt lat="44.80546" lon="-0.22574">
        <ele>64</ele>
      </trkpt>
      <trkpt lat="44.8056" lon="-0.2255">
        <ele>63</ele>
      </trkpt>
      <trkpt lat="44.8057" lon="-0.22542">
        <ele>62</ele>
      </trkpt>
      <trkpt lat="44.80583" lon="-0.22527">
        <ele>62</ele>
      </trkpt>
      <trkpt lat="44.80567" lon="-0.22463">
        <ele>65</ele>
      </trkpt>
      <trkpt lat="44.80558" lon="-0.22441">
        <ele>64</ele>
      </trkpt>
      <trkpt lat="44.80552" lon="-0.22416">
        <ele>64</ele>
      </trkpt>
      <trkpt lat="44.80517" lon="-0.22301">
        <ele>67</ele>
      </trkpt>
      <trkpt lat="44.80514" lon="-0.22276">
        <ele>66</ele>
      </trkpt>
      <trkpt lat="44.80515" lon="-0.22251">
        <ele>68</ele>
      </trkpt>
      <trkpt lat="44.80494" lon="-0.22147">
        <ele>61</ele>
      </trkpt>
      <trkpt lat="44.80473" lon="-0.22139">
        <ele>61</ele>
      </trkpt>
      <trkpt lat="44.80462" lon="-0.22139">
        <ele>63</ele>
      </trkpt>
      <trkpt lat="44.80458" lon="-0.22135">
        <ele>62</ele>
      </trkpt>
      <trkpt lat="44.80447" lon="-0.22051">
        <ele>66</ele>
      </trkpt>
      <trkpt lat="44.80444" lon="-0.22048">
        <ele>67</ele>
      </trkpt>
      <trkpt lat="44.80424" lon="-0.22052">
        <ele>68</ele>
      </trkpt>
      <trkpt lat="44.80411" lon="-0.22049">
        <ele>68</ele>
      </trkpt>
      <trkpt lat="44.80408" lon="-0.22003">
        <ele>67</ele>
      </trkpt>
      <trkpt lat="44.80397" lon="-0.21992">
        <ele>67</ele>
      </trkpt>
      <trkpt lat="44.80391" lon="-0.21888">
        <ele>65</ele>
      </trkpt>
      <trkpt lat="44.80384" lon="-0.21836">
        <ele>70</ele>
      </trkpt>
      <trkpt lat="44.80382" lon="-0.21772">
        <ele>71</ele>
      </trkpt>
      <trkpt lat="44.80385" lon="-0.21723">
        <ele>68</ele>
      </trkpt>
      <trkpt lat="44.8038" lon="-0.21616">
        <ele>55</ele>
      </trkpt>
      <trkpt lat="44.80351" lon="-0.21429">
        <ele>49</ele>
      </trkpt>
      <trkpt lat="44.80339" lon="-0.21371">
        <ele>52</ele>
      </trkpt>
      <trkpt lat="44.80331" lon="-0.21308">
        <ele>54</ele>
      </trkpt>
      <trkpt lat="44.80326" lon="-0.21292">
        <ele>54</ele>
      </trkpt>
      <trkpt lat="44.80322" lon="-0.21247">
        <ele>51</ele>
      </trkpt>
      <trkpt lat="44.80316" lon="-0.21238">
        <ele>50</ele>
      </trkpt>
      <trkpt lat="44.80309" lon="-0.21237">
        <ele>51</ele>
      </trkpt>
      <trkpt lat="44.80299" lon="-0.2124">
        <ele>53</ele>
      </trkpt>
      <trkpt lat="44.80286" lon="-0.21246">
        <ele>55</ele>
      </trkpt>
      <trkpt lat="44.80269" lon="-0.2125">
        <ele>54</ele>
      </trkpt>
      <trkpt lat="44.80252" lon="-0.21258">
        <ele>53</ele>
      </trkpt>
      <trkpt lat="44.80238" lon="-0.21266">
        <ele>53</ele>
      </trkpt>
      <trkpt lat="44.80206" lon="-0.21279">
        <ele>53</ele>
      </trkpt>
      <trkpt lat="44.80179" lon="-0.21293">
        <ele>56</ele>
      </trkpt>
      <trkpt lat="44.80166" lon="-0.21266">
        <ele>64</ele>
      </trkpt>
    </trkseg>
  </trk>
  <trk>
    <name><![CDATA[randogps33-414]]></name>
    <extensions>
      <line xmlns="http://www.topografix.com/GPX/gpx_style/0/2">
        <color>0000FF</color>
        <width>4</width>
      </line>
    </extensions>
    <trkseg>
      <trkpt lat="44.853" lon="-0.03862">
        <ele>7.492188</ele>
      </trkpt>
      <trkpt lat="44.85189" lon="-0.04219">
        <ele>15.328125</ele>
      </trkpt>
      <trkpt lat="44.85283" lon="-0.04197">
        <ele>19.121094</ele>
      </trkpt>
      <trkpt lat="44.85293" lon="-0.04221">
        <ele>19.066406</ele>
      </trkpt>
      <trkpt lat="44.85381" lon="-0.0415">
        <ele>14.070312</ele>
      </trkpt>
      <trkpt lat="44.85408" lon="-0.04249">
        <ele>14.957031</ele>
      </trkpt>
      <trkpt lat="44.85543" lon="-0.04165">
        <ele>19.921875</ele>
      </trkpt>
      <trkpt lat="44.85511" lon="-0.04008">
        <ele>18.953125</ele>
      </trkpt>
      <trkpt lat="44.85662" lon="-0.03952">
        <ele>25.105469</ele>
      </trkpt>
      <trkpt lat="44.85681" lon="-0.03744">
        <ele>25.152344</ele>
      </trkpt>
      <trkpt lat="44.8571" lon="-0.03706">
        <ele>25.953125</ele>
      </trkpt>
      <trkpt lat="44.85769" lon="-0.03706">
        <ele>28.136719</ele>
      </trkpt>
      <trkpt lat="44.85805" lon="-0.03422">
        <ele>30.078125</ele>
      </trkpt>
      <trkpt lat="44.85836" lon="-0.03091">
        <ele>30.066406</ele>
      </trkpt>
      <trkpt lat="44.85966" lon="-0.03059">
        <ele>41.582031</ele>
      </trkpt>
      <trkpt lat="44.86054" lon="-0.03064">
        <ele>56.828125</ele>
      </trkpt>
      <trkpt lat="44.86061" lon="-0.03033">
        <ele>58.898438</ele>
      </trkpt>
      <trkpt lat="44.86061" lon="-0.02896">
        <ele>60.480469</ele>
      </trkpt>
      <trkpt lat="44.86104" lon="-0.02858">
        <ele>70.546875</ele>
      </trkpt>
      <trkpt lat="44.86129" lon="-0.02709">
        <ele>75.585938</ele>
      </trkpt>
      <trkpt lat="44.86244" lon="-0.02739">
        <ele>98.640625</ele>
      </trkpt>
      <trkpt lat="44.86271" lon="-0.02622">
        <ele>95.445312</ele>
      </trkpt>
      <trkpt lat="44.86343" lon="-0.0262">
        <ele>93.992188</ele>
      </trkpt>
      <trkpt lat="44.86334" lon="-0.02511">
        <ele>92.351562</ele>
      </trkpt>
      <trkpt lat="44.86366" lon="-0.02432">
        <ele>90.535156</ele>
      </trkpt>
      <trkpt lat="44.86546" lon="-0.02389">
        <ele>85.84375</ele>
      </trkpt>
      <trkpt lat="44.86584" lon="-0.02313">
        <ele>82.445312</ele>
      </trkpt>
      <trkpt lat="44.86589" lon="-0.02169">
        <ele>80.453125</ele>
      </trkpt>
      <trkpt lat="44.86733" lon="-0.02113">
        <ele>64.078125</ele>
      </trkpt>
      <trkpt lat="44.86772" lon="-0.02159">
        <ele>55.933594</ele>
      </trkpt>
      <trkpt lat="44.86796" lon="-0.02148">
        <ele>51.488281</ele>
      </trkpt>
      <trkpt lat="44.86785" lon="-0.01996">
        <ele>50.851562</ele>
      </trkpt>
      <trkpt lat="44.86724" lon="-0.01951">
        <ele>52.226562</ele>
      </trkpt>
      <trkpt lat="44.86754" lon="-0.01819">
        <ele>40.382812</ele>
      </trkpt>
      <trkpt lat="44.86749" lon="-0.01712">
        <ele>32.40625</ele>
      </trkpt>
      <trkpt lat="44.8684" lon="-0.01664">
        <ele>25.90625</ele>
      </trkpt>
      <trkpt lat="44.86885" lon="-0.01656">
        <ele>24.019531</ele>
      </trkpt>
      <trkpt lat="44.8704" lon="-0.01661">
        <ele>38.414062</ele>
      </trkpt>
      <trkpt lat="44.87052" lon="-0.01679">
        <ele>39.925781</ele>
      </trkpt>
      <trkpt lat="44.87212" lon="-0.01692">
        <ele>57.394531</ele>
      </trkpt>
      <trkpt lat="44.87263" lon="-0.01724">
        <ele>62.351562</ele>
      </trkpt>
      <trkpt lat="44.87369" lon="-0.0174">
        <ele>69.984375</ele>
      </trkpt>
      <trkpt lat="44.87441" lon="-0.01752">
        <ele>71.894531</ele>
      </trkpt>
      <trkpt lat="44.87565" lon="-0.01839">
        <ele>70.453125</ele>
      </trkpt>
      <trkpt lat="44.8764" lon="-0.01912">
        <ele>70.058594</ele>
      </trkpt>
      <trkpt lat="44.87688" lon="-0.02001">
        <ele>71.851562</ele>
      </trkpt>
      <trkpt lat="44.87717" lon="-0.02102">
        <ele>74.597656</ele>
      </trkpt>
      <trkpt lat="44.87719" lon="-0.02138">
        <ele>76.34375</ele>
      </trkpt>
      <trkpt lat="44.87627" lon="-0.02224">
        <ele>85.144531</ele>
      </trkpt>
      <trkpt lat="44.87642" lon="-0.02262">
        <ele>87.078125</ele>
      </trkpt>
      <trkpt lat="44.87739" lon="-0.02483">
        <ele>94.5625</ele>
      </trkpt>
      <trkpt lat="44.87816" lon="-0.0281">
        <ele>98.601562</ele>
      </trkpt>
      <trkpt lat="44.87856" lon="-0.03043">
        <ele>99.023438</ele>
      </trkpt>
      <trkpt lat="44.87854" lon="-0.03099">
        <ele>100.046875</ele>
      </trkpt>
      <trkpt lat="44.87816" lon="-0.03124">
        <ele>101.644531</ele>
      </trkpt>
      <trkpt lat="44.87832" lon="-0.03205">
        <ele>99.636719</ele>
      </trkpt>
      <trkpt lat="44.87676" lon="-0.0335">
        <ele>84.339844</ele>
      </trkpt>
      <trkpt lat="44.87629" lon="-0.03436">
        <ele>74.707031</ele>
      </trkpt>
      <trkpt lat="44.8759" lon="-0.03481">
        <ele>71.222656</ele>
      </trkpt>
      <trkpt lat="44.8746" lon="-0.03507">
        <ele>75.625</ele>
      </trkpt>
      <trkpt lat="44.87304" lon="-0.03563">
        <ele>84.1875</ele>
      </trkpt>
      <trkpt lat="44.87214" lon="-0.03626">
        <ele>94.445312</ele>
      </trkpt>
      <trkpt lat="44.87078" lon="-0.03489">
        <ele>95.75</ele>
      </trkpt>
      <trkpt lat="44.86981" lon="-0.03552">
        <ele>94.597656</ele>
      </trkpt>
      <trkpt lat="44.86957" lon="-0.03598">
        <ele>91.613281</ele>
      </trkpt>
      <trkpt lat="44.86934" lon="-0.0374">
        <ele>84.757812</ele>
      </trkpt>
      <trkpt lat="44.86928" lon="-0.0378">
        <ele>83.535156</ele>
      </trkpt>
      <trkpt lat="44.86866" lon="-0.03851">
        <ele>78.246094</ele>
      </trkpt>
      <trkpt lat="44.86844" lon="-0.03902">
        <ele>78.425781</ele>
      </trkpt>
      <trkpt lat="44.86761" lon="-0.0393">
        <ele>74.84375</ele>
      </trkpt>
      <trkpt lat="44.86672" lon="-0.04003">
        <ele>74.378906</ele>
      </trkpt>
      <trkpt lat="44.86594" lon="-0.04067">
        <ele>68.5625</ele>
      </trkpt>
      <trkpt lat="44.86533" lon="-0.04361">
        <ele>44.300781</ele>
      </trkpt>
      <trkpt lat="44.86544" lon="-0.045">
        <ele>43.929688</ele>
      </trkpt>
      <trkpt lat="44.86533" lon="-0.04602">
        <ele>41.132812</ele>
      </trkpt>
      <trkpt lat="44.86458" lon="-0.04609">
        <ele>36.429688</ele>
      </trkpt>
      <trkpt lat="44.86454" lon="-0.0465">
        <ele>35.632812</ele>
      </trkpt>
      <trkpt lat="44.86409" lon="-0.0466">
        <ele>37.65625</ele>
      </trkpt>
      <trkpt lat="44.86237" lon="-0.0465">
        <ele>50.320312</ele>
      </trkpt>
      <trkpt lat="44.86159" lon="-0.04679">
        <ele>47.035156</ele>
      </trkpt>
      <trkpt lat="44.86141" lon="-0.04692">
        <ele>44.789062</ele>
      </trkpt>
      <trkpt lat="44.86089" lon="-0.04689">
        <ele>40.78125</ele>
      </trkpt>
      <trkpt lat="44.85992" lon="-0.04709">
        <ele>32.511719</ele>
      </trkpt>
      <trkpt lat="44.8593" lon="-0.04722">
        <ele>27.792969</ele>
      </trkpt>
      <trkpt lat="44.85898" lon="-0.0474">
        <ele>25.988281</ele>
      </trkpt>
      <trkpt lat="44.859" lon="-0.04796">
        <ele>24.417969</ele>
      </trkpt>
      <trkpt lat="44.859" lon="-0.04892">
        <ele>22.035156</ele>
      </trkpt>
      <trkpt lat="44.85873" lon="-0.0496">
        <ele>19.941406</ele>
      </trkpt>
      <trkpt lat="44.85833" lon="-0.05011">
        <ele>20.253906</ele>
      </trkpt>
      <trkpt lat="44.85853" lon="-0.05128">
        <ele>22</ele>
      </trkpt>
      <trkpt lat="44.8579" lon="-0.05083">
        <ele>21.546875</ele>
      </trkpt>
      <trkpt lat="44.85829" lon="-0.05217">
        <ele>22</ele>
      </trkpt>
      <trkpt lat="44.85855" lon="-0.05276">
        <ele>22</ele>
      </trkpt>
      <trkpt lat="44.85937" lon="-0.05643">
        <ele>24</ele>
      </trkpt>
      <trkpt lat="44.85939" lon="-0.05696">
        <ele>24</ele>
      </trkpt>
      <trkpt lat="44.85763" lon="-0.05813">
        <ele>23.949219</ele>
      </trkpt>
      <trkpt lat="44.85729" lon="-0.05849">
        <ele>23.3125</ele>
      </trkpt>
      <trkpt lat="44.85703" lon="-0.05881">
        <ele>23</ele>
      </trkpt>
      <trkpt lat="44.85624" lon="-0.05921">
        <ele>23</ele>
      </trkpt>
      <trkpt lat="44.85521" lon="-0.05972">
        <ele>23</ele>
      </trkpt>
      <trkpt lat="44.85491" lon="-0.06035">
        <ele>23</ele>
      </trkpt>
      <trkpt lat="44.85473" lon="-0.06048">
        <ele>23</ele>
      </trkpt>
      <trkpt lat="44.85442" lon="-0.06061">
        <ele>23</ele>
      </trkpt>
      <trkpt lat="44.85421" lon="-0.06071">
        <ele>22.761719</ele>
      </trkpt>
      <trkpt lat="44.85396" lon="-0.06162">
        <ele>22.3125</ele>
      </trkpt>
      <trkpt lat="44.85288" lon="-0.06165">
        <ele>20.367188</ele>
      </trkpt>
      <trkpt lat="44.85293" lon="-0.06251">
        <ele>20.15625</ele>
      </trkpt>
      <trkpt lat="44.85313" lon="-0.06378">
        <ele>19.820312</ele>
      </trkpt>
      <trkpt lat="44.85121" lon="-0.06517">
        <ele>17</ele>
      </trkpt>
      <trkpt lat="44.85124" lon="-0.06598">
        <ele>17</ele>
      </trkpt>
      <trkpt lat="44.85015" lon="-0.06641">
        <ele>17</ele>
      </trkpt>
      <trkpt lat="44.84821" lon="-0.06629">
        <ele>17</ele>
      </trkpt>
      <trkpt lat="44.84737" lon="-0.06622">
        <ele>16.847656</ele>
      </trkpt>
      <trkpt lat="44.84688" lon="-0.06653">
        <ele>16.101562</ele>
      </trkpt>
      <trkpt lat="44.84591" lon="-0.06653">
        <ele>16</ele>
      </trkpt>
      <trkpt lat="44.84534" lon="-0.06871">
        <ele>15</ele>
      </trkpt>
      <trkpt lat="44.8448" lon="-0.07104">
        <ele>15.992188</ele>
      </trkpt>
      <trkpt lat="44.84404" lon="-0.07094">
        <ele>15.769531</ele>
      </trkpt>
      <trkpt lat="44.84366" lon="-0.07097">
        <ele>15.8125</ele>
      </trkpt>
      <trkpt lat="44.84248" lon="-0.07211">
        <ele>15.867188</ele>
      </trkpt>
      <trkpt lat="44.84149" lon="-0.0737">
        <ele>16</ele>
      </trkpt>
      <trkpt lat="44.8411" lon="-0.07429">
        <ele>16</ele>
      </trkpt>
      <trkpt lat="44.84004" lon="-0.07507">
        <ele>11.671875</ele>
      </trkpt>
      <trkpt lat="44.83871" lon="-0.07507">
        <ele>5.667969</ele>
      </trkpt>
      <trkpt lat="44.83776" lon="-0.07512">
        <ele>5.859375</ele>
      </trkpt>
      <trkpt lat="44.83733" lon="-0.08125">
        <ele>8</ele>
      </trkpt>
      <trkpt lat="44.83709" lon="-0.08482">
        <ele>7</ele>
      </trkpt>
      <trkpt lat="44.83425" lon="-0.08333">
        <ele>5.066406</ele>
      </trkpt>
      <trkpt lat="44.83499" lon="-0.08092">
        <ele>5.15625</ele>
      </trkpt>
      <trkpt lat="44.83551" lon="-0.07828">
        <ele>5.09375</ele>
      </trkpt>
      <trkpt lat="44.83632" lon="-0.0761">
        <ele>5.035156</ele>
      </trkpt>
      <trkpt lat="44.83675" lon="-0.07529">
        <ele>5.328125</ele>
      </trkpt>
      <trkpt lat="44.8377" lon="-0.07357">
        <ele>5.0625</ele>
      </trkpt>
      <trkpt lat="44.83819" lon="-0.07207">
        <ele>5.832031</ele>
      </trkpt>
      <trkpt lat="44.83862" lon="-0.07118">
        <ele>7.140625</ele>
      </trkpt>
      <trkpt lat="44.83925" lon="-0.06923">
        <ele>8.558594</ele>
      </trkpt>
      <trkpt lat="44.83982" lon="-0.06781">
        <ele>9.3125</ele>
      </trkpt>
      <trkpt lat="44.84076" lon="-0.06558">
        <ele>8.804688</ele>
      </trkpt>
      <trkpt lat="44.84132" lon="-0.06378">
        <ele>7.519531</ele>
      </trkpt>
      <trkpt lat="44.84167" lon="-0.06219">
        <ele>6.390625</ele>
      </trkpt>
      <trkpt lat="44.8425" lon="-0.06064">
        <ele>6.582031</ele>
      </trkpt>
      <trkpt lat="44.84374" lon="-0.05831">
        <ele>7.796875</ele>
      </trkpt>
      <trkpt lat="44.84482" lon="-0.05667">
        <ele>9.398438</ele>
      </trkpt>
      <trkpt lat="44.84588" lon="-0.05471">
        <ele>10.863281</ele>
      </trkpt>
      <trkpt lat="44.84669" lon="-0.0538">
        <ele>12.519531</ele>
      </trkpt>
      <trkpt lat="44.84809" lon="-0.0518">
        <ele>13.632812</ele>
      </trkpt>
      <trkpt lat="44.84864" lon="-0.05061">
        <ele>13.0625</ele>
      </trkpt>
      <trkpt lat="44.84963" lon="-0.04901">
        <ele>13.335938</ele>
      </trkpt>
      <trkpt lat="44.84979" lon="-0.04848">
        <ele>12.65625</ele>
      </trkpt>
      <trkpt lat="44.85051" lon="-0.04734">
        <ele>14.160156</ele>
      </trkpt>
      <trkpt lat="44.85105" lon="-0.04614">
        <ele>13.714844</ele>
      </trkpt>
      <trkpt lat="44.85132" lon="-0.04543">
        <ele>13.503906</ele>
      </trkpt>
      <trkpt lat="44.85163" lon="-0.04366">
        <ele>14.515625</ele>
      </trkpt>
      <trkpt lat="44.85188" lon="-0.04221">
        <ele>15.167969</ele>
      </trkpt>
      <trkpt lat="44.85233" lon="-0.04063">
        <ele>12.199219</ele>
      </trkpt>
      <trkpt lat="44.85297" lon="-0.0386">
        <ele>7.375</ele>
      </trkpt>
    </trkseg>
  </trk>
  <trk>
    <name><![CDATA[NewTrack]]></name>
    <desc><![CDATA[Total: 8.0km]]></desc>
    <extensions>
      <line xmlns="http://www.topografix.com/GPX/gpx_style/0/2">
        <color>0000FF</color>
        <width>4</width>
      </line>
    </extensions>
    <trkseg>
      <trkpt lat="44.6232" lon="-0.10696">
        <ele>26.89</ele>
        <time>2015-02-20T15:22:44Z</time>
      </trkpt>
      <trkpt lat="44.62247" lon="-0.10733">
        <ele>22.28</ele>
        <time>2015-02-20T15:23:36Z</time>
      </trkpt>
      <trkpt lat="44.62171" lon="-0.10776">
        <ele>23.61</ele>
        <time>2015-02-20T15:24:30Z</time>
      </trkpt>
      <trkpt lat="44.62096" lon="-0.10833">
        <ele>33.16</ele>
        <time>2015-02-20T15:25:28Z</time>
      </trkpt>
      <trkpt lat="44.62107" lon="-0.10985">
        <ele>40.52</ele>
        <time>2015-02-20T15:26:40Z</time>
      </trkpt>
      <trkpt lat="44.62099" lon="-0.11119">
        <ele>45.19</ele>
        <time>2015-02-20T15:27:45Z</time>
      </trkpt>
      <trkpt lat="44.62095" lon="-0.11154">
        <ele>46.09</ele>
        <time>2015-02-20T15:28:01Z</time>
      </trkpt>
      <trkpt lat="44.62087" lon="-0.11166">
        <ele>47.44</ele>
        <time>2015-02-20T15:28:10Z</time>
      </trkpt>
      <trkpt lat="44.62075" lon="-0.11173">
        <ele>48.61</ele>
        <time>2015-02-20T15:28:18Z</time>
      </trkpt>
      <trkpt lat="44.62099" lon="-0.11251">
        <ele>47.97</ele>
        <time>2015-02-20T15:28:58Z</time>
      </trkpt>
      <trkpt lat="44.62103" lon="-0.11286">
        <ele>46.81</ele>
        <time>2015-02-20T15:29:15Z</time>
      </trkpt>
      <trkpt lat="44.62101" lon="-0.11332">
        <ele>46.63</ele>
        <time>2015-02-20T15:29:37Z</time>
      </trkpt>
      <trkpt lat="44.62084" lon="-0.11393">
        <ele>49.89</ele>
        <time>2015-02-20T15:30:08Z</time>
      </trkpt>
      <trkpt lat="44.62061" lon="-0.11453">
        <ele>50.56</ele>
        <time>2015-02-20T15:30:41Z</time>
      </trkpt>
      <trkpt lat="44.62057" lon="-0.11516">
        <ele>49.8</ele>
        <time>2015-02-20T15:31:11Z</time>
      </trkpt>
      <trkpt lat="44.62047" lon="-0.11552">
        <ele>50.21</ele>
        <time>2015-02-20T15:31:29Z</time>
      </trkpt>
      <trkpt lat="44.62045" lon="-0.11587">
        <ele>49.97</ele>
        <time>2015-02-20T15:31:46Z</time>
      </trkpt>
      <trkpt lat="44.62037" lon="-0.11791">
        <ele>50.66</ele>
        <time>2015-02-20T15:33:23Z</time>
      </trkpt>
      <trkpt lat="44.6204" lon="-0.12079">
        <ele>50.61</ele>
        <time>2015-02-20T15:35:40Z</time>
      </trkpt>
      <trkpt lat="44.62043" lon="-0.12099">
        <ele>50.33</ele>
        <time>2015-02-20T15:35:50Z</time>
      </trkpt>
      <trkpt lat="44.62049" lon="-0.12116">
        <ele>49.89</ele>
        <time>2015-02-20T15:35:59Z</time>
      </trkpt>
      <trkpt lat="44.62088" lon="-0.12131">
        <ele>47.77</ele>
        <time>2015-02-20T15:36:26Z</time>
      </trkpt>
      <trkpt lat="44.62135" lon="-0.12247">
        <ele>50.25</ele>
        <time>2015-02-20T15:37:30Z</time>
      </trkpt>
      <trkpt lat="44.62149" lon="-0.12329">
        <ele>50.41</ele>
        <time>2015-02-20T15:38:10Z</time>
      </trkpt>
      <trkpt lat="44.62165" lon="-0.12398">
        <ele>52.35</ele>
        <time>2015-02-20T15:38:44Z</time>
      </trkpt>
      <trkpt lat="44.62199" lon="-0.12517">
        <ele>50.67</ele>
        <time>2015-02-20T15:39:45Z</time>
      </trkpt>
      <trkpt lat="44.62224" lon="-0.12626">
        <ele>48.37</ele>
        <time>2015-02-20T15:40:40Z</time>
      </trkpt>
      <trkpt lat="44.62224" lon="-0.1267">
        <ele>48.01</ele>
        <time>2015-02-20T15:41:01Z</time>
      </trkpt>
      <trkpt lat="44.62188" lon="-0.12831">
        <ele>53.68</ele>
        <time>2015-02-20T15:42:21Z</time>
      </trkpt>
      <trkpt lat="44.62116" lon="-0.12989">
        <ele>69.2</ele>
        <time>2015-02-20T15:43:51Z</time>
      </trkpt>
      <trkpt lat="44.62056" lon="-0.13145">
        <ele>67.23</ele>
        <time>2015-02-20T15:45:15Z</time>
      </trkpt>
      <trkpt lat="44.62029" lon="-0.1323">
        <ele>62.23</ele>
        <time>2015-02-20T15:46:00Z</time>
      </trkpt>
      <trkpt lat="44.6202" lon="-0.13282">
        <ele>60.86</ele>
        <time>2015-02-20T15:46:25Z</time>
      </trkpt>
      <trkpt lat="44.62008" lon="-0.13338">
        <ele>59.93</ele>
        <time>2015-02-20T15:46:53Z</time>
      </trkpt>
      <trkpt lat="44.61992" lon="-0.13366">
        <ele>59.15</ele>
        <time>2015-02-20T15:47:10Z</time>
      </trkpt>
      <trkpt lat="44.61972" lon="-0.13386">
        <ele>59.11</ele>
        <time>2015-02-20T15:47:27Z</time>
      </trkpt>
      <trkpt lat="44.61898" lon="-0.1345">
        <ele>59.03</ele>
        <time>2015-02-20T15:48:25Z</time>
      </trkpt>
      <trkpt lat="44.61925" lon="-0.13567">
        <ele>55.03</ele>
        <time>2015-02-20T15:49:23Z</time>
      </trkpt>
      <trkpt lat="44.6195" lon="-0.13646">
        <ele>57.36</ele>
        <time>2015-02-20T15:50:04Z</time>
      </trkpt>
      <trkpt lat="44.6197" lon="-0.13721">
        <ele>63.02</ele>
        <time>2015-02-20T15:50:42Z</time>
      </trkpt>
      <trkpt lat="44.61999" lon="-0.1394">
        <ele>69.49</ele>
        <time>2015-02-20T15:52:29Z</time>
      </trkpt>
      <trkpt lat="44.62026" lon="-0.14148">
        <ele>69.3</ele>
        <time>2015-02-20T15:54:10Z</time>
      </trkpt>
      <trkpt lat="44.62068" lon="-0.14114">
        <ele>67.38</ele>
        <time>2015-02-20T15:54:42Z</time>
      </trkpt>
      <trkpt lat="44.621" lon="-0.14098">
        <ele>67.45</ele>
        <time>2015-02-20T15:55:05Z</time>
      </trkpt>
      <trkpt lat="44.62134" lon="-0.14097">
        <ele>68.43</ele>
        <time>2015-02-20T15:55:27Z</time>
      </trkpt>
      <trkpt lat="44.62199" lon="-0.14108">
        <ele>69.59</ele>
        <time>2015-02-20T15:56:11Z</time>
      </trkpt>
      <trkpt lat="44.62299" lon="-0.14159">
        <ele>66.61</ele>
        <time>2015-02-20T15:57:22Z</time>
      </trkpt>
      <trkpt lat="44.62383" lon="-0.14159">
        <ele>65.09</ele>
        <time>2015-02-20T15:58:18Z</time>
      </trkpt>
      <trkpt lat="44.625" lon="-0.14195">
        <ele>55.3</ele>
        <time>2015-02-20T15:59:38Z</time>
      </trkpt>
      <trkpt lat="44.62526" lon="-0.14243">
        <ele>50.95</ele>
        <time>2015-02-20T16:00:07Z</time>
      </trkpt>
      <trkpt lat="44.62535" lon="-0.14252">
        <ele>49.83</ele>
        <time>2015-02-20T16:00:14Z</time>
      </trkpt>
      <trkpt lat="44.62546" lon="-0.14256">
        <ele>49.06</ele>
        <time>2015-02-20T16:00:22Z</time>
      </trkpt>
      <trkpt lat="44.62622" lon="-0.14252">
        <ele>48.86</ele>
        <time>2015-02-20T16:01:13Z</time>
      </trkpt>
      <trkpt lat="44.6266" lon="-0.14244">
        <ele>50.51</ele>
        <time>2015-02-20T16:01:38Z</time>
      </trkpt>
      <trkpt lat="44.62698" lon="-0.1423">
        <ele>51.14</ele>
        <time>2015-02-20T16:02:04Z</time>
      </trkpt>
      <trkpt lat="44.62646" lon="-0.14187">
        <ele>49.42</ele>
        <time>2015-02-20T16:02:45Z</time>
      </trkpt>
      <trkpt lat="44.62635" lon="-0.14169">
        <ele>49.89</ele>
        <time>2015-02-20T16:02:56Z</time>
      </trkpt>
      <trkpt lat="44.62636" lon="-0.14128">
        <ele>48.9</ele>
        <time>2015-02-20T16:03:15Z</time>
      </trkpt>
      <trkpt lat="44.62652" lon="-0.14082">
        <ele>46.9</ele>
        <time>2015-02-20T16:03:40Z</time>
      </trkpt>
      <trkpt lat="44.62647" lon="-0.14029">
        <ele>47.41</ele>
        <time>2015-02-20T16:04:05Z</time>
      </trkpt>
      <trkpt lat="44.62636" lon="-0.13987">
        <ele>47.57</ele>
        <time>2015-02-20T16:04:26Z</time>
      </trkpt>
      <trkpt lat="44.62632" lon="-0.13948">
        <ele>48.28</ele>
        <time>2015-02-20T16:04:45Z</time>
      </trkpt>
      <trkpt lat="44.62612" lon="-0.13612">
        <ele>50.73</ele>
        <time>2015-02-20T16:07:25Z</time>
      </trkpt>
      <trkpt lat="44.62621" lon="-0.13084">
        <ele>53.81</ele>
        <time>2015-02-20T16:11:37Z</time>
      </trkpt>
      <trkpt lat="44.62634" lon="-0.12927">
        <ele>53.29</ele>
        <time>2015-02-20T16:12:52Z</time>
      </trkpt>
      <trkpt lat="44.62628" lon="-0.12734">
        <ele>58.14</ele>
        <time>2015-02-20T16:14:25Z</time>
      </trkpt>
      <trkpt lat="44.62658" lon="-0.12738">
        <ele>60.67</ele>
        <time>2015-02-20T16:14:44Z</time>
      </trkpt>
      <trkpt lat="44.62701" lon="-0.12719">
        <ele>62.16</ele>
        <time>2015-02-20T16:15:15Z</time>
      </trkpt>
      <trkpt lat="44.62796" lon="-0.12677">
        <ele>65.12</ele>
        <time>2015-02-20T16:16:21Z</time>
      </trkpt>
      <trkpt lat="44.62904" lon="-0.12628">
        <ele>68.43</ele>
        <time>2015-02-20T16:17:37Z</time>
      </trkpt>
      <trkpt lat="44.62953" lon="-0.1261">
        <ele>71.05</ele>
        <time>2015-02-20T16:18:11Z</time>
      </trkpt>
      <trkpt lat="44.63031" lon="-0.12592">
        <ele>74.35</ele>
        <time>2015-02-20T16:19:04Z</time>
      </trkpt>
      <trkpt lat="44.63138" lon="-0.12536">
        <ele>82.45</ele>
        <time>2015-02-20T16:20:20Z</time>
      </trkpt>
      <trkpt lat="44.63116" lon="-0.12459">
        <ele>81.65</ele>
        <time>2015-02-20T16:20:59Z</time>
      </trkpt>
      <trkpt lat="44.6309" lon="-0.12383">
        <ele>79.73</ele>
        <time>2015-02-20T16:21:39Z</time>
      </trkpt>
      <trkpt lat="44.63053" lon="-0.12317">
        <ele>78.91</ele>
        <time>2015-02-20T16:22:19Z</time>
      </trkpt>
      <trkpt lat="44.63035" lon="-0.12267">
        <ele>78.25</ele>
        <time>2015-02-20T16:22:46Z</time>
      </trkpt>
      <trkpt lat="44.62992" lon="-0.12054">
        <ele>77.34</ele>
        <time>2015-02-20T16:24:31Z</time>
      </trkpt>
      <trkpt lat="44.62949" lon="-0.11851">
        <ele>77.89</ele>
        <time>2015-02-20T16:26:12Z</time>
      </trkpt>
      <trkpt lat="44.62932" lon="-0.11803">
        <ele>77.61</ele>
        <time>2015-02-20T16:26:38Z</time>
      </trkpt>
      <trkpt lat="44.62901" lon="-0.11739">
        <ele>75.87</ele>
        <time>2015-02-20T16:27:14Z</time>
      </trkpt>
      <trkpt lat="44.62877" lon="-0.11675">
        <ele>74.1</ele>
        <time>2015-02-20T16:27:49Z</time>
      </trkpt>
      <trkpt lat="44.62849" lon="-0.1158">
        <ele>72.73</ele>
        <time>2015-02-20T16:28:38Z</time>
      </trkpt>
      <trkpt lat="44.62852" lon="-0.11559">
        <ele>72.7</ele>
        <time>2015-02-20T16:28:48Z</time>
      </trkpt>
      <trkpt lat="44.62933" lon="-0.11481">
        <ele>72.38</ele>
        <time>2015-02-20T16:29:53Z</time>
      </trkpt>
      <trkpt lat="44.62943" lon="-0.11459">
        <ele>71.37</ele>
        <time>2015-02-20T16:30:06Z</time>
      </trkpt>
      <trkpt lat="44.62943" lon="-0.11442">
        <ele>70.57</ele>
        <time>2015-02-20T16:30:14Z</time>
      </trkpt>
      <trkpt lat="44.62932" lon="-0.11363">
        <ele>67.82</ele>
        <time>2015-02-20T16:30:52Z</time>
      </trkpt>
      <trkpt lat="44.62921" lon="-0.113">
        <ele>64.61</ele>
        <time>2015-02-20T16:31:23Z</time>
      </trkpt>
      <trkpt lat="44.62901" lon="-0.11247">
        <ele>60.78</ele>
        <time>2015-02-20T16:31:52Z</time>
      </trkpt>
      <trkpt lat="44.62876" lon="-0.11199">
        <ele>57.03</ele>
        <time>2015-02-20T16:32:20Z</time>
      </trkpt>
      <trkpt lat="44.6285" lon="-0.11113">
        <ele>50.98</ele>
        <time>2015-02-20T16:33:04Z</time>
      </trkpt>
      <trkpt lat="44.62849" lon="-0.11058">
        <ele>48.03</ele>
        <time>2015-02-20T16:33:31Z</time>
      </trkpt>
      <trkpt lat="44.62853" lon="-0.11019">
        <ele>46.28</ele>
        <time>2015-02-20T16:33:50Z</time>
      </trkpt>
      <trkpt lat="44.62849" lon="-0.10984">
        <ele>44.49</ele>
        <time>2015-02-20T16:34:06Z</time>
      </trkpt>
      <trkpt lat="44.62836" lon="-0.10969">
        <ele>43.23</ele>
        <time>2015-02-20T16:34:17Z</time>
      </trkpt>
      <trkpt lat="44.62819" lon="-0.10966">
        <ele>44.34</ele>
        <time>2015-02-20T16:34:29Z</time>
      </trkpt>
      <trkpt lat="44.62798" lon="-0.10944">
        <ele>45.04</ele>
        <time>2015-02-20T16:34:47Z</time>
      </trkpt>
      <trkpt lat="44.62748" lon="-0.10844">
        <ele>35</ele>
        <time>2015-02-20T16:35:45Z</time>
      </trkpt>
      <trkpt lat="44.62713" lon="-0.10702">
        <ele>23.36</ele>
        <time>2015-02-20T16:36:57Z</time>
      </trkpt>
      <trkpt lat="44.62577" lon="-0.107">
        <ele>23.74</ele>
        <time>2015-02-20T16:38:28Z</time>
      </trkpt>
      <trkpt lat="44.62554" lon="-0.10691">
        <ele>25.63</ele>
        <time>2015-02-20T16:38:44Z</time>
      </trkpt>
      <trkpt lat="44.62512" lon="-0.1065">
        <ele>26.15</ele>
        <time>2015-02-20T16:39:18Z</time>
      </trkpt>
      <trkpt lat="44.62471" lon="-0.10614">
        <ele>26.3</ele>
        <time>2015-02-20T16:39:50Z</time>
      </trkpt>
      <trkpt lat="44.62421" lon="-0.10579">
        <ele>24.69</ele>
        <time>2015-02-20T16:40:28Z</time>
      </trkpt>
      <trkpt lat="44.62384" lon="-0.10562">
        <ele>22.8</ele>
        <time>2015-02-20T16:40:53Z</time>
      </trkpt>
      <trkpt lat="44.62351" lon="-0.10563">
        <ele>21.65</ele>
        <time>2015-02-20T16:41:16Z</time>
      </trkpt>
      <trkpt lat="44.62333" lon="-0.10572">
        <ele>21.46</ele>
        <time>2015-02-20T16:41:28Z</time>
      </trkpt>
      <trkpt lat="44.62321" lon="-0.10589">
        <ele>22.3</ele>
        <time>2015-02-20T16:41:40Z</time>
      </trkpt>
      <trkpt lat="44.62318" lon="-0.10619">
        <ele>23.83</ele>
        <time>2015-02-20T16:41:54Z</time>
      </trkpt>
      <trkpt lat="44.62322" lon="-0.10658">
        <ele>25.99</ele>
        <time>2015-02-20T16:42:13Z</time>
      </trkpt>
      <trkpt lat="44.62325" lon="-0.1069">
        <ele>27.07</ele>
        <time>2015-02-20T16:42:28Z</time>
      </trkpt>
      <trkpt lat="44.62327" lon="-0.10704">
        <ele>27.48</ele>
        <time>2015-02-20T16:42:35Z</time>
      </trkpt>
    </trkseg>
  </trk>
  <trk>
    <name><![CDATA[track]]></name>
    <extensions>
      <line xmlns="http://www.topografix.com/GPX/gpx_style/0/2">
        <color>00FF00</color>
        <width>4</width>
      </line>
    </extensions>
    <trkseg>
      <trkpt lat="44.73443" lon="-0.26155">
        <ele>56</ele>
        <time>2020-03-12T08:31:57Z</time>
      </trkpt>
      <trkpt lat="44.73448" lon="-0.26143">
        <ele>56</ele>
        <time>2020-03-12T08:32:20Z</time>
      </trkpt>
      <trkpt lat="44.73451" lon="-0.26115">
        <ele>55</ele>
        <time>2020-03-12T08:32:55Z</time>
      </trkpt>
      <trkpt lat="44.73444" lon="-0.26021">
        <ele>58</ele>
        <time>2020-03-12T08:33:49Z</time>
      </trkpt>
      <trkpt lat="44.73471" lon="-0.2584">
        <ele>66</ele>
        <time>2020-03-12T08:35:33Z</time>
      </trkpt>
      <trkpt lat="44.7347" lon="-0.25804">
        <ele>67</ele>
        <time>2020-03-12T08:35:51Z</time>
      </trkpt>
      <trkpt lat="44.73477" lon="-0.25763">
        <ele>67</ele>
        <time>2020-03-12T08:36:13Z</time>
      </trkpt>
      <trkpt lat="44.73466" lon="-0.25725">
        <ele>68</ele>
        <time>2020-03-12T08:36:42Z</time>
      </trkpt>
      <trkpt lat="44.7346" lon="-0.2566">
        <ele>69</ele>
        <time>2020-03-12T08:37:15Z</time>
      </trkpt>
      <trkpt lat="44.73462" lon="-0.25626">
        <ele>69</ele>
        <time>2020-03-12T08:37:38Z</time>
      </trkpt>
      <trkpt lat="44.73459" lon="-0.25513">
        <ele>70</ele>
        <time>2020-03-12T08:38:38Z</time>
      </trkpt>
      <trkpt lat="44.73448" lon="-0.25443">
        <ele>71</ele>
        <time>2020-03-12T08:39:18Z</time>
      </trkpt>
      <trkpt lat="44.73438" lon="-0.25404">
        <ele>71</ele>
        <time>2020-03-12T08:39:37Z</time>
      </trkpt>
      <trkpt lat="44.73428" lon="-0.2538">
        <ele>71</ele>
        <time>2020-03-12T08:39:52Z</time>
      </trkpt>
      <trkpt lat="44.7343" lon="-0.25365">
        <ele>71</ele>
        <time>2020-03-12T08:39:59Z</time>
      </trkpt>
      <trkpt lat="44.73448" lon="-0.25351">
        <ele>72</ele>
        <time>2020-03-12T08:40:15Z</time>
      </trkpt>
      <trkpt lat="44.73484" lon="-0.25303">
        <ele>72</ele>
        <time>2020-03-12T08:40:53Z</time>
      </trkpt>
      <trkpt lat="44.7358" lon="-0.25233">
        <ele>74</ele>
        <time>2020-03-12T08:42:20Z</time>
      </trkpt>
      <trkpt lat="44.73639" lon="-0.25165">
        <ele>77</ele>
        <time>2020-03-12T08:43:14Z</time>
      </trkpt>
      <trkpt lat="44.73704" lon="-0.2514">
        <ele>79</ele>
        <time>2020-03-12T08:43:59Z</time>
      </trkpt>
      <trkpt lat="44.73714" lon="-0.25123">
        <ele>80</ele>
        <time>2020-03-12T08:44:14Z</time>
      </trkpt>
      <trkpt lat="44.73725" lon="-0.25089">
        <ele>82</ele>
        <time>2020-03-12T08:44:34Z</time>
      </trkpt>
      <trkpt lat="44.73724" lon="-0.25062">
        <ele>82</ele>
        <time>2020-03-12T08:44:51Z</time>
      </trkpt>
      <trkpt lat="44.73737" lon="-0.24995">
        <ele>84</ele>
        <time>2020-03-12T08:45:29Z</time>
      </trkpt>
      <trkpt lat="44.73747" lon="-0.24815">
        <ele>89</ele>
        <time>2020-03-12T08:47:01Z</time>
      </trkpt>
      <trkpt lat="44.73763" lon="-0.24748">
        <ele>92</ele>
        <time>2020-03-12T08:47:40Z</time>
      </trkpt>
      <trkpt lat="44.73774" lon="-0.24614">
        <ele>96</ele>
        <time>2020-03-12T08:48:50Z</time>
      </trkpt>
      <trkpt lat="44.73778" lon="-0.246">
        <ele>96</ele>
        <time>2020-03-12T08:48:58Z</time>
      </trkpt>
      <trkpt lat="44.7378" lon="-0.24537">
        <ele>99</ele>
        <time>2020-03-12T08:49:31Z</time>
      </trkpt>
      <trkpt lat="44.73783" lon="-0.24522">
        <ele>99</ele>
        <time>2020-03-12T08:49:40Z</time>
      </trkpt>
      <trkpt lat="44.73781" lon="-0.24501">
        <ele>99</ele>
        <time>2020-03-12T08:49:49Z</time>
      </trkpt>
      <trkpt lat="44.73789" lon="-0.2446">
        <ele>100</ele>
        <time>2020-03-12T08:50:14Z</time>
      </trkpt>
      <trkpt lat="44.738" lon="-0.24445">
        <ele>101</ele>
        <time>2020-03-12T08:50:25Z</time>
      </trkpt>
      <trkpt lat="44.73846" lon="-0.24409">
        <ele>103</ele>
        <time>2020-03-12T08:51:06Z</time>
      </trkpt>
      <trkpt lat="44.7386" lon="-0.24359">
        <ele>104</ele>
        <time>2020-03-12T08:51:33Z</time>
      </trkpt>
      <trkpt lat="44.73884" lon="-0.2422">
        <ele>107</ele>
        <time>2020-03-12T08:52:55Z</time>
      </trkpt>
      <trkpt lat="44.73887" lon="-0.24185">
        <ele>107</ele>
        <time>2020-03-12T08:53:12Z</time>
      </trkpt>
      <trkpt lat="44.739" lon="-0.24145">
        <ele>108</ele>
        <time>2020-03-12T08:53:37Z</time>
      </trkpt>
      <trkpt lat="44.7391" lon="-0.2414">
        <ele>109</ele>
        <time>2020-03-12T08:53:47Z</time>
      </trkpt>
      <trkpt lat="44.73941" lon="-0.24156">
        <ele>110</ele>
        <time>2020-03-12T08:54:08Z</time>
      </trkpt>
      <trkpt lat="44.73996" lon="-0.24162">
        <ele>112</ele>
        <time>2020-03-12T08:55:17Z</time>
      </trkpt>
      <trkpt lat="44.74007" lon="-0.24148">
        <ele>112</ele>
        <time>2020-03-12T08:55:27Z</time>
      </trkpt>
      <trkpt lat="44.74023" lon="-0.24101">
        <ele>112</ele>
        <time>2020-03-12T08:55:54Z</time>
      </trkpt>
      <trkpt lat="44.74031" lon="-0.24045">
        <ele>112</ele>
        <time>2020-03-12T08:56:27Z</time>
      </trkpt>
      <trkpt lat="44.74046" lon="-0.24017">
        <ele>112</ele>
        <time>2020-03-12T08:56:47Z</time>
      </trkpt>
      <trkpt lat="44.74046" lon="-0.23987">
        <ele>112</ele>
        <time>2020-03-12T08:57:00Z</time>
      </trkpt>
      <trkpt lat="44.74057" lon="-0.23955">
        <ele>112</ele>
        <time>2020-03-12T08:57:20Z</time>
      </trkpt>
      <trkpt lat="44.7406" lon="-0.23861">
        <ele>112</ele>
        <time>2020-03-12T08:58:11Z</time>
      </trkpt>
      <trkpt lat="44.74044" lon="-0.23826">
        <ele>112</ele>
        <time>2020-03-12T08:58:40Z</time>
      </trkpt>
      <trkpt lat="44.74074" lon="-0.23711">
        <ele>109</ele>
        <time>2020-03-12T09:03:33Z</time>
      </trkpt>
      <trkpt lat="44.74089" lon="-0.23683">
        <ele>105</ele>
        <time>2020-03-12T09:03:54Z</time>
      </trkpt>
      <trkpt lat="44.74104" lon="-0.23624">
        <ele>101</ele>
        <time>2020-03-12T09:04:30Z</time>
      </trkpt>
      <trkpt lat="44.74126" lon="-0.23594">
        <ele>98</ele>
        <time>2020-03-12T09:05:01Z</time>
      </trkpt>
      <trkpt lat="44.74146" lon="-0.23554">
        <ele>95</ele>
        <time>2020-03-12T09:05:26Z</time>
      </trkpt>
      <trkpt lat="44.74168" lon="-0.23531">
        <ele>94</ele>
        <time>2020-03-12T09:05:48Z</time>
      </trkpt>
      <trkpt lat="44.74167" lon="-0.2351">
        <ele>95</ele>
        <time>2020-03-12T09:06:00Z</time>
      </trkpt>
      <trkpt lat="44.74182" lon="-0.23498">
        <ele>93</ele>
        <time>2020-03-12T09:06:39Z</time>
      </trkpt>
      <trkpt lat="44.74193" lon="-0.23475">
        <ele>93</ele>
        <time>2020-03-12T09:06:54Z</time>
      </trkpt>
      <trkpt lat="44.74212" lon="-0.23451">
        <ele>92</ele>
        <time>2020-03-12T09:07:17Z</time>
      </trkpt>
      <trkpt lat="44.7426" lon="-0.23406">
        <ele>88</ele>
        <time>2020-03-12T09:08:00Z</time>
      </trkpt>
      <trkpt lat="44.74286" lon="-0.2337">
        <ele>86</ele>
        <time>2020-03-12T09:08:29Z</time>
      </trkpt>
      <trkpt lat="44.74308" lon="-0.23322">
        <ele>85</ele>
        <time>2020-03-12T09:09:01Z</time>
      </trkpt>
      <trkpt lat="44.74351" lon="-0.2326">
        <ele>82</ele>
        <time>2020-03-12T09:09:47Z</time>
      </trkpt>
      <trkpt lat="44.74365" lon="-0.23229">
        <ele>82</ele>
        <time>2020-03-12T09:10:08Z</time>
      </trkpt>
      <trkpt lat="44.74389" lon="-0.2313">
        <ele>78</ele>
        <time>2020-03-12T09:11:00Z</time>
      </trkpt>
      <trkpt lat="44.74412" lon="-0.23008">
        <ele>73</ele>
        <time>2020-03-12T09:11:59Z</time>
      </trkpt>
      <trkpt lat="44.7443" lon="-0.22933">
        <ele>72</ele>
        <time>2020-03-12T09:12:40Z</time>
      </trkpt>
      <trkpt lat="44.74441" lon="-0.22775">
        <ele>73</ele>
        <time>2020-03-12T09:14:03Z</time>
      </trkpt>
      <trkpt lat="44.74423" lon="-0.2261">
        <ele>76</ele>
        <time>2020-03-12T09:15:33Z</time>
      </trkpt>
      <trkpt lat="44.74426" lon="-0.22567">
        <ele>75</ele>
        <time>2020-03-12T09:15:59Z</time>
      </trkpt>
      <trkpt lat="44.74447" lon="-0.22561">
        <ele>76</ele>
        <time>2020-03-12T09:16:16Z</time>
      </trkpt>
      <trkpt lat="44.74492" lon="-0.22492">
        <ele>74</ele>
        <time>2020-03-12T09:17:10Z</time>
      </trkpt>
      <trkpt lat="44.74546" lon="-0.22343">
        <ele>72</ele>
        <time>2020-03-12T09:18:48Z</time>
      </trkpt>
      <trkpt lat="44.74552" lon="-0.22308">
        <ele>71</ele>
        <time>2020-03-12T09:19:10Z</time>
      </trkpt>
      <trkpt lat="44.74575" lon="-0.22232">
        <ele>68</ele>
        <time>2020-03-12T09:20:02Z</time>
      </trkpt>
      <trkpt lat="44.74585" lon="-0.22217">
        <ele>68</ele>
        <time>2020-03-12T09:20:30Z</time>
      </trkpt>
      <trkpt lat="44.7459" lon="-0.22178">
        <ele>65</ele>
        <time>2020-03-12T09:21:07Z</time>
      </trkpt>
      <trkpt lat="44.74588" lon="-0.22159">
        <ele>64</ele>
        <time>2020-03-12T09:21:26Z</time>
      </trkpt>
      <trkpt lat="44.74608" lon="-0.22152">
        <ele>63</ele>
        <time>2020-03-12T09:21:47Z</time>
      </trkpt>
      <trkpt lat="44.74665" lon="-0.2215">
        <ele>63</ele>
        <time>2020-03-12T09:22:41Z</time>
      </trkpt>
      <trkpt lat="44.74689" lon="-0.22142">
        <ele>63</ele>
        <time>2020-03-12T09:23:03Z</time>
      </trkpt>
      <trkpt lat="44.74697" lon="-0.22069">
        <ele>57</ele>
        <time>2020-03-12T09:23:45Z</time>
      </trkpt>
      <trkpt lat="44.7471" lon="-0.22047">
        <ele>56</ele>
        <time>2020-03-12T09:24:02Z</time>
      </trkpt>
      <trkpt lat="44.74718" lon="-0.22041">
        <ele>55</ele>
        <time>2020-03-12T09:24:16Z</time>
      </trkpt>
      <trkpt lat="44.7472" lon="-0.22027">
        <ele>54</ele>
        <time>2020-03-12T09:24:30Z</time>
      </trkpt>
      <trkpt lat="44.74713" lon="-0.21987">
        <ele>53</ele>
        <time>2020-03-12T09:24:49Z</time>
      </trkpt>
      <trkpt lat="44.74713" lon="-0.21951">
        <ele>54</ele>
        <time>2020-03-12T09:25:16Z</time>
      </trkpt>
      <trkpt lat="44.74719" lon="-0.21925">
        <ele>55</ele>
        <time>2020-03-12T09:25:37Z</time>
      </trkpt>
      <trkpt lat="44.74742" lon="-0.2187">
        <ele>58</ele>
        <time>2020-03-12T09:26:24Z</time>
      </trkpt>
      <trkpt lat="44.74751" lon="-0.21839">
        <ele>60</ele>
        <time>2020-03-12T09:26:55Z</time>
      </trkpt>
      <trkpt lat="44.74775" lon="-0.21781">
        <ele>64</ele>
        <time>2020-03-12T09:27:36Z</time>
      </trkpt>
      <trkpt lat="44.74791" lon="-0.21709">
        <ele>67</ele>
        <time>2020-03-12T09:28:29Z</time>
      </trkpt>
      <trkpt lat="44.74789" lon="-0.21703">
        <ele>67</ele>
        <time>2020-03-12T09:28:32Z</time>
      </trkpt>
      <trkpt lat="44.74793" lon="-0.21699">
        <ele>67</ele>
        <time>2020-03-12T09:29:54Z</time>
      </trkpt>
      <trkpt lat="44.74785" lon="-0.21703">
        <ele>67</ele>
        <time>2020-03-12T09:31:09Z</time>
      </trkpt>
      <trkpt lat="44.74789" lon="-0.217">
        <ele>67</ele>
        <time>2020-03-12T09:31:31Z</time>
      </trkpt>
      <trkpt lat="44.74782" lon="-0.21689">
        <ele>67</ele>
        <time>2020-03-12T09:32:54Z</time>
      </trkpt>
      <trkpt lat="44.74739" lon="-0.21658">
        <ele>67</ele>
        <time>2020-03-12T09:33:30Z</time>
      </trkpt>
      <trkpt lat="44.74718" lon="-0.21655">
        <ele>66</ele>
        <time>2020-03-12T09:33:46Z</time>
      </trkpt>
      <trkpt lat="44.74646" lon="-0.21658">
        <ele>65</ele>
        <time>2020-03-12T09:34:39Z</time>
      </trkpt>
      <trkpt lat="44.74543" lon="-0.2161">
        <ele>63</ele>
        <time>2020-03-12T09:36:04Z</time>
      </trkpt>
      <trkpt lat="44.74536" lon="-0.21612">
        <ele>63</ele>
        <time>2020-03-12T09:36:18Z</time>
      </trkpt>
      <trkpt lat="44.745" lon="-0.21601">
        <ele>63</ele>
        <time>2020-03-12T09:36:46Z</time>
      </trkpt>
      <trkpt lat="44.74424" lon="-0.21601">
        <ele>64</ele>
        <time>2020-03-12T09:37:34Z</time>
      </trkpt>
      <trkpt lat="44.7428" lon="-0.21622">
        <ele>70</ele>
        <time>2020-03-12T09:39:19Z</time>
      </trkpt>
      <trkpt lat="44.741" lon="-0.21685">
        <ele>68</ele>
        <time>2020-03-12T09:41:36Z</time>
      </trkpt>
      <trkpt lat="44.74049" lon="-0.21716">
        <ele>67</ele>
        <time>2020-03-12T09:42:25Z</time>
      </trkpt>
      <trkpt lat="44.74039" lon="-0.2171">
        <ele>67</ele>
        <time>2020-03-12T09:42:35Z</time>
      </trkpt>
      <trkpt lat="44.74013" lon="-0.21675">
        <ele>68</ele>
        <time>2020-03-12T09:43:04Z</time>
      </trkpt>
      <trkpt lat="44.73989" lon="-0.21656">
        <ele>67</ele>
        <time>2020-03-12T09:43:22Z</time>
      </trkpt>
      <trkpt lat="44.73943" lon="-0.21646">
        <ele>68</ele>
        <time>2020-03-12T09:43:55Z</time>
      </trkpt>
      <trkpt lat="44.73927" lon="-0.21654">
        <ele>69</ele>
        <time>2020-03-12T09:44:07Z</time>
      </trkpt>
      <trkpt lat="44.73917" lon="-0.21668">
        <ele>69</ele>
        <time>2020-03-12T09:44:24Z</time>
      </trkpt>
      <trkpt lat="44.73875" lon="-0.21695">
        <ele>70</ele>
        <time>2020-03-12T09:45:04Z</time>
      </trkpt>
      <trkpt lat="44.73856" lon="-0.21719">
        <ele>70</ele>
        <time>2020-03-12T09:45:22Z</time>
      </trkpt>
      <trkpt lat="44.73837" lon="-0.21764">
        <ele>69</ele>
        <time>2020-03-12T09:45:49Z</time>
      </trkpt>
      <trkpt lat="44.73822" lon="-0.21817">
        <ele>66</ele>
        <time>2020-03-12T09:46:20Z</time>
      </trkpt>
      <trkpt lat="44.73826" lon="-0.21829">
        <ele>66</ele>
        <time>2020-03-12T09:46:50Z</time>
      </trkpt>
      <trkpt lat="44.73816" lon="-0.21843">
        <ele>65</ele>
        <time>2020-03-12T09:47:02Z</time>
      </trkpt>
      <trkpt lat="44.73757" lon="-0.2185">
        <ele>67</ele>
        <time>2020-03-12T09:47:50Z</time>
      </trkpt>
      <trkpt lat="44.73698" lon="-0.21892">
        <ele>70</ele>
        <time>2020-03-12T09:48:41Z</time>
      </trkpt>
      <trkpt lat="44.73646" lon="-0.21919">
        <ele>72</ele>
        <time>2020-03-12T09:49:24Z</time>
      </trkpt>
      <trkpt lat="44.73646" lon="-0.21975">
        <ele>71</ele>
        <time>2020-03-12T09:50:00Z</time>
      </trkpt>
      <trkpt lat="44.73653" lon="-0.22002">
        <ele>70</ele>
        <time>2020-03-12T09:50:28Z</time>
      </trkpt>
      <trkpt lat="44.73654" lon="-0.22017">
        <ele>70</ele>
        <time>2020-03-12T09:50:38Z</time>
      </trkpt>
      <trkpt lat="44.73664" lon="-0.22039">
        <ele>70</ele>
        <time>2020-03-12T09:50:57Z</time>
      </trkpt>
      <trkpt lat="44.73661" lon="-0.22066">
        <ele>69</ele>
        <time>2020-03-12T09:51:17Z</time>
      </trkpt>
      <trkpt lat="44.73652" lon="-0.22072">
        <ele>70</ele>
        <time>2020-03-12T09:51:29Z</time>
      </trkpt>
      <trkpt lat="44.73637" lon="-0.22072">
        <ele>70</ele>
        <time>2020-03-12T09:51:45Z</time>
      </trkpt>
      <trkpt lat="44.73601" lon="-0.22093">
        <ele>71</ele>
        <time>2020-03-12T09:52:30Z</time>
      </trkpt>
      <trkpt lat="44.73581" lon="-0.22098">
        <ele>72</ele>
        <time>2020-03-12T09:52:48Z</time>
      </trkpt>
      <trkpt lat="44.7349" lon="-0.22185">
        <ele>77</ele>
        <time>2020-03-12T09:54:28Z</time>
      </trkpt>
      <trkpt lat="44.73483" lon="-0.22203">
        <ele>77</ele>
        <time>2020-03-12T09:54:46Z</time>
      </trkpt>
      <trkpt lat="44.73496" lon="-0.22215">
        <ele>76</ele>
        <time>2020-03-12T09:55:03Z</time>
      </trkpt>
      <trkpt lat="44.73492" lon="-0.2222">
        <ele>77</ele>
        <time>2020-03-12T10:02:17Z</time>
      </trkpt>
      <trkpt lat="44.73482" lon="-0.2229">
        <ele>76</ele>
        <time>2020-03-12T10:03:07Z</time>
      </trkpt>
      <trkpt lat="44.73483" lon="-0.22337">
        <ele>77</ele>
        <time>2020-03-12T10:03:38Z</time>
      </trkpt>
      <trkpt lat="44.73472" lon="-0.22413">
        <ele>78</ele>
        <time>2020-03-12T10:04:30Z</time>
      </trkpt>
      <trkpt lat="44.73448" lon="-0.22477">
        <ele>81</ele>
        <time>2020-03-12T10:05:13Z</time>
      </trkpt>
      <trkpt lat="44.73427" lon="-0.22509">
        <ele>83</ele>
        <time>2020-03-12T10:05:47Z</time>
      </trkpt>
      <trkpt lat="44.73347" lon="-0.2253">
        <ele>89</ele>
        <time>2020-03-12T10:06:59Z</time>
      </trkpt>
      <trkpt lat="44.73334" lon="-0.2254">
        <ele>90</ele>
        <time>2020-03-12T10:07:22Z</time>
      </trkpt>
      <trkpt lat="44.73298" lon="-0.22518">
        <ele>92</ele>
        <time>2020-03-12T10:08:09Z</time>
      </trkpt>
      <trkpt lat="44.73287" lon="-0.22504">
        <ele>92</ele>
        <time>2020-03-12T10:08:19Z</time>
      </trkpt>
      <trkpt lat="44.73274" lon="-0.22499">
        <ele>93</ele>
        <time>2020-03-12T10:08:28Z</time>
      </trkpt>
      <trkpt lat="44.73258" lon="-0.225">
        <ele>94</ele>
        <time>2020-03-12T10:08:41Z</time>
      </trkpt>
      <trkpt lat="44.73227" lon="-0.22526">
        <ele>98</ele>
        <time>2020-03-12T10:09:12Z</time>
      </trkpt>
      <trkpt lat="44.73218" lon="-0.22529">
        <ele>98</ele>
        <time>2020-03-12T10:09:31Z</time>
      </trkpt>
      <trkpt lat="44.73211" lon="-0.22518">
        <ele>97</ele>
        <time>2020-03-12T10:09:40Z</time>
      </trkpt>
      <trkpt lat="44.73195" lon="-0.22449">
        <ele>92</ele>
        <time>2020-03-12T10:10:25Z</time>
      </trkpt>
      <trkpt lat="44.73189" lon="-0.22438">
        <ele>91</ele>
        <time>2020-03-12T10:10:32Z</time>
      </trkpt>
      <trkpt lat="44.7317" lon="-0.22431">
        <ele>91</ele>
        <time>2020-03-12T10:10:46Z</time>
      </trkpt>
      <trkpt lat="44.7314" lon="-0.22439">
        <ele>90</ele>
        <time>2020-03-12T10:11:05Z</time>
      </trkpt>
      <trkpt lat="44.7311" lon="-0.22463">
        <ele>90</ele>
        <time>2020-03-12T10:11:45Z</time>
      </trkpt>
      <trkpt lat="44.73098" lon="-0.2248">
        <ele>91</ele>
        <time>2020-03-12T10:13:13Z</time>
      </trkpt>
      <trkpt lat="44.73089" lon="-0.22504">
        <ele>92</ele>
        <time>2020-03-12T10:13:34Z</time>
      </trkpt>
      <trkpt lat="44.73077" lon="-0.22561">
        <ele>95</ele>
        <time>2020-03-12T10:14:14Z</time>
      </trkpt>
      <trkpt lat="44.73069" lon="-0.22578">
        <ele>97</ele>
        <time>2020-03-12T10:14:25Z</time>
      </trkpt>
      <trkpt lat="44.73056" lon="-0.22589">
        <ele>97</ele>
        <time>2020-03-12T10:14:43Z</time>
      </trkpt>
      <trkpt lat="44.73017" lon="-0.22588">
        <ele>98</ele>
        <time>2020-03-12T10:15:16Z</time>
      </trkpt>
      <trkpt lat="44.73008" lon="-0.22593">
        <ele>99</ele>
        <time>2020-03-12T10:15:23Z</time>
      </trkpt>
      <trkpt lat="44.72983" lon="-0.22622">
        <ele>103</ele>
        <time>2020-03-12T10:15:49Z</time>
      </trkpt>
      <trkpt lat="44.72963" lon="-0.22662">
        <ele>105</ele>
        <time>2020-03-12T10:16:23Z</time>
      </trkpt>
      <trkpt lat="44.72949" lon="-0.22644">
        <ele>104</ele>
        <time>2020-03-12T10:16:50Z</time>
      </trkpt>
      <trkpt lat="44.72942" lon="-0.22626">
        <ele>104</ele>
        <time>2020-03-12T10:17:03Z</time>
      </trkpt>
      <trkpt lat="44.72927" lon="-0.22606">
        <ele>103</ele>
        <time>2020-03-12T10:17:19Z</time>
      </trkpt>
      <trkpt lat="44.72916" lon="-0.2258">
        <ele>102</ele>
        <time>2020-03-12T10:17:37Z</time>
      </trkpt>
      <trkpt lat="44.72904" lon="-0.22563">
        <ele>102</ele>
        <time>2020-03-12T10:17:47Z</time>
      </trkpt>
      <trkpt lat="44.72891" lon="-0.22557">
        <ele>102</ele>
        <time>2020-03-12T10:17:55Z</time>
      </trkpt>
      <trkpt lat="44.72874" lon="-0.22539">
        <ele>100</ele>
        <time>2020-03-12T10:18:17Z</time>
      </trkpt>
      <trkpt lat="44.72861" lon="-0.22533">
        <ele>99</ele>
        <time>2020-03-12T10:18:40Z</time>
      </trkpt>
      <trkpt lat="44.72856" lon="-0.22521">
        <ele>99</ele>
        <time>2020-03-12T10:18:52Z</time>
      </trkpt>
      <trkpt lat="44.7284" lon="-0.22501">
        <ele>98</ele>
        <time>2020-03-12T10:19:16Z</time>
      </trkpt>
      <trkpt lat="44.72832" lon="-0.22483">
        <ele>97</ele>
        <time>2020-03-12T10:19:31Z</time>
      </trkpt>
      <trkpt lat="44.72791" lon="-0.22439">
        <ele>96</ele>
        <time>2020-03-12T10:20:11Z</time>
      </trkpt>
      <trkpt lat="44.72777" lon="-0.22433">
        <ele>96</ele>
        <time>2020-03-12T10:20:26Z</time>
      </trkpt>
      <trkpt lat="44.72755" lon="-0.22415">
        <ele>95</ele>
        <time>2020-03-12T10:20:45Z</time>
      </trkpt>
      <trkpt lat="44.72724" lon="-0.22372">
        <ele>94</ele>
        <time>2020-03-12T10:21:32Z</time>
      </trkpt>
      <trkpt lat="44.72702" lon="-0.22351">
        <ele>93</ele>
        <time>2020-03-12T10:21:55Z</time>
      </trkpt>
      <trkpt lat="44.72655" lon="-0.22287">
        <ele>92</ele>
        <time>2020-03-12T10:22:54Z</time>
      </trkpt>
      <trkpt lat="44.72645" lon="-0.22282">
        <ele>92</ele>
        <time>2020-03-12T10:23:07Z</time>
      </trkpt>
      <trkpt lat="44.72635" lon="-0.22283">
        <ele>92</ele>
        <time>2020-03-12T10:23:16Z</time>
      </trkpt>
      <trkpt lat="44.72634" lon="-0.22291">
        <ele>92</ele>
        <time>2020-03-12T10:23:25Z</time>
      </trkpt>
      <trkpt lat="44.72652" lon="-0.22336">
        <ele>91</ele>
        <time>2020-03-12T10:23:55Z</time>
      </trkpt>
      <trkpt lat="44.72667" lon="-0.22396">
        <ele>91</ele>
        <time>2020-03-12T10:24:29Z</time>
      </trkpt>
      <trkpt lat="44.72672" lon="-0.22433">
        <ele>90</ele>
        <time>2020-03-12T10:24:50Z</time>
      </trkpt>
      <trkpt lat="44.72671" lon="-0.22489">
        <ele>90</ele>
        <time>2020-03-12T10:25:22Z</time>
      </trkpt>
      <trkpt lat="44.72678" lon="-0.22541">
        <ele>89</ele>
        <time>2020-03-12T10:25:48Z</time>
      </trkpt>
      <trkpt lat="44.72681" lon="-0.22613">
        <ele>87</ele>
        <time>2020-03-12T10:26:31Z</time>
      </trkpt>
      <trkpt lat="44.72675" lon="-0.22625">
        <ele>87</ele>
        <time>2020-03-12T10:26:43Z</time>
      </trkpt>
      <trkpt lat="44.7264" lon="-0.22637">
        <ele>84</ele>
        <time>2020-03-12T10:27:15Z</time>
      </trkpt>
      <trkpt lat="44.72601" lon="-0.22657">
        <ele>81</ele>
        <time>2020-03-12T10:27:44Z</time>
      </trkpt>
      <trkpt lat="44.7258" lon="-0.2266">
        <ele>80</ele>
        <time>2020-03-12T10:28:01Z</time>
      </trkpt>
      <trkpt lat="44.72529" lon="-0.22684">
        <ele>77</ele>
        <time>2020-03-12T10:28:53Z</time>
      </trkpt>
      <trkpt lat="44.72518" lon="-0.22714">
        <ele>77</ele>
        <time>2020-03-12T10:29:18Z</time>
      </trkpt>
      <trkpt lat="44.72513" lon="-0.2275">
        <ele>76</ele>
        <time>2020-03-12T10:29:38Z</time>
      </trkpt>
      <trkpt lat="44.72496" lon="-0.22797">
        <ele>76</ele>
        <time>2020-03-12T10:30:14Z</time>
      </trkpt>
      <trkpt lat="44.72486" lon="-0.22813">
        <ele>76</ele>
        <time>2020-03-12T10:30:29Z</time>
      </trkpt>
      <trkpt lat="44.72378" lon="-0.22925">
        <ele>73</ele>
        <time>2020-03-12T10:32:41Z</time>
      </trkpt>
      <trkpt lat="44.7238" lon="-0.22938">
        <ele>74</ele>
        <time>2020-03-12T10:32:59Z</time>
      </trkpt>
      <trkpt lat="44.72376" lon="-0.22936">
        <ele>73</ele>
        <time>2020-03-12T10:33:18Z</time>
      </trkpt>
      <trkpt lat="44.72378" lon="-0.22931">
        <ele>73</ele>
        <time>2020-03-12T10:33:46Z</time>
      </trkpt>
      <trkpt lat="44.72375" lon="-0.22936">
        <ele>73</ele>
        <time>2020-03-12T10:34:07Z</time>
      </trkpt>
      <trkpt lat="44.72367" lon="-0.2294">
        <ele>73</ele>
        <time>2020-03-12T10:34:29Z</time>
      </trkpt>
      <trkpt lat="44.7237" lon="-0.22936">
        <ele>73</ele>
        <time>2020-03-12T10:35:00Z</time>
      </trkpt>
      <trkpt lat="44.72379" lon="-0.22937">
        <ele>73</ele>
        <time>2020-03-12T10:35:23Z</time>
      </trkpt>
      <trkpt lat="44.72368" lon="-0.22989">
        <ele>73</ele>
        <time>2020-03-12T10:39:03Z</time>
      </trkpt>
      <trkpt lat="44.72374" lon="-0.23047">
        <ele>75</ele>
        <time>2020-03-12T10:39:41Z</time>
      </trkpt>
      <trkpt lat="44.72362" lon="-0.2307">
        <ele>75</ele>
        <time>2020-03-12T10:40:05Z</time>
      </trkpt>
      <trkpt lat="44.72356" lon="-0.2307">
        <ele>75</ele>
        <time>2020-03-12T10:40:09Z</time>
      </trkpt>
      <trkpt lat="44.72335" lon="-0.23088">
        <ele>75</ele>
        <time>2020-03-12T10:40:27Z</time>
      </trkpt>
      <trkpt lat="44.72312" lon="-0.23118">
        <ele>76</ele>
        <time>2020-03-12T10:40:53Z</time>
      </trkpt>
      <trkpt lat="44.7229" lon="-0.23159">
        <ele>79</ele>
        <time>2020-03-12T10:41:21Z</time>
      </trkpt>
      <trkpt lat="44.72213" lon="-0.23268">
        <ele>86</ele>
        <time>2020-03-12T10:42:52Z</time>
      </trkpt>
      <trkpt lat="44.72185" lon="-0.23242">
        <ele>85</ele>
        <time>2020-03-12T10:43:29Z</time>
      </trkpt>
      <trkpt lat="44.72182" lon="-0.23247">
        <ele>85</ele>
        <time>2020-03-12T10:43:43Z</time>
      </trkpt>
      <trkpt lat="44.72175" lon="-0.23235">
        <ele>84</ele>
        <time>2020-03-12T10:43:56Z</time>
      </trkpt>
      <trkpt lat="44.72057" lon="-0.23114">
        <ele>80</ele>
        <time>2020-03-12T10:45:51Z</time>
      </trkpt>
      <trkpt lat="44.72033" lon="-0.23102">
        <ele>79</ele>
        <time>2020-03-12T10:46:32Z</time>
      </trkpt>
      <trkpt lat="44.72025" lon="-0.23107">
        <ele>79</ele>
        <time>2020-03-12T10:46:58Z</time>
      </trkpt>
      <trkpt lat="44.72008" lon="-0.23106">
        <ele>78</ele>
        <time>2020-03-12T10:47:09Z</time>
      </trkpt>
      <trkpt lat="44.71944" lon="-0.23085">
        <ele>76</ele>
        <time>2020-03-12T10:48:05Z</time>
      </trkpt>
      <trkpt lat="44.71918" lon="-0.23084">
        <ele>76</ele>
        <time>2020-03-12T10:48:27Z</time>
      </trkpt>
      <trkpt lat="44.71871" lon="-0.23067">
        <ele>74</ele>
        <time>2020-03-12T10:49:10Z</time>
      </trkpt>
      <trkpt lat="44.71863" lon="-0.23093">
        <ele>74</ele>
        <time>2020-03-12T10:49:31Z</time>
      </trkpt>
      <trkpt lat="44.71866" lon="-0.23158">
        <ele>74</ele>
        <time>2020-03-12T10:50:18Z</time>
      </trkpt>
      <trkpt lat="44.71874" lon="-0.23198">
        <ele>76</ele>
        <time>2020-03-12T10:50:40Z</time>
      </trkpt>
      <trkpt lat="44.71891" lon="-0.23333">
        <ele>79</ele>
        <time>2020-03-12T10:52:04Z</time>
      </trkpt>
      <trkpt lat="44.71894" lon="-0.23401">
        <ele>79</ele>
        <time>2020-03-12T10:52:50Z</time>
      </trkpt>
      <trkpt lat="44.71902" lon="-0.23447">
        <ele>80</ele>
        <time>2020-03-12T10:53:32Z</time>
      </trkpt>
      <trkpt lat="44.71885" lon="-0.23597">
        <ele>85</ele>
        <time>2020-03-12T10:55:29Z</time>
      </trkpt>
      <trkpt lat="44.71874" lon="-0.2363">
        <ele>86</ele>
        <time>2020-03-12T10:55:53Z</time>
      </trkpt>
      <trkpt lat="44.71875" lon="-0.23666">
        <ele>87</ele>
        <time>2020-03-12T10:56:12Z</time>
      </trkpt>
      <trkpt lat="44.71868" lon="-0.23698">
        <ele>87</ele>
        <time>2020-03-12T10:56:33Z</time>
      </trkpt>
      <trkpt lat="44.71863" lon="-0.238">
        <ele>86</ele>
        <time>2020-03-12T10:57:33Z</time>
      </trkpt>
      <trkpt lat="44.71866" lon="-0.23813">
        <ele>86</ele>
        <time>2020-03-12T10:57:43Z</time>
      </trkpt>
      <trkpt lat="44.71854" lon="-0.23903">
        <ele>83</ele>
        <time>2020-03-12T10:58:38Z</time>
      </trkpt>
      <trkpt lat="44.71855" lon="-0.23932">
        <ele>83</ele>
        <time>2020-03-12T10:58:58Z</time>
      </trkpt>
      <trkpt lat="44.71863" lon="-0.23966">
        <ele>82</ele>
        <time>2020-03-12T10:59:21Z</time>
      </trkpt>
      <trkpt lat="44.71884" lon="-0.24019">
        <ele>83</ele>
        <time>2020-03-12T10:59:55Z</time>
      </trkpt>
      <trkpt lat="44.71909" lon="-0.24126">
        <ele>81</ele>
        <time>2020-03-12T11:00:58Z</time>
      </trkpt>
      <trkpt lat="44.71911" lon="-0.24187">
        <ele>80</ele>
        <time>2020-03-12T11:01:45Z</time>
      </trkpt>
      <trkpt lat="44.71886" lon="-0.24266">
        <ele>77</ele>
        <time>2020-03-12T11:02:42Z</time>
      </trkpt>
      <trkpt lat="44.71879" lon="-0.24277">
        <ele>76</ele>
        <time>2020-03-12T11:02:50Z</time>
      </trkpt>
      <trkpt lat="44.71876" lon="-0.24297">
        <ele>76</ele>
        <time>2020-03-12T11:03:01Z</time>
      </trkpt>
      <trkpt lat="44.71858" lon="-0.2435">
        <ele>74</ele>
        <time>2020-03-12T11:03:35Z</time>
      </trkpt>
      <trkpt lat="44.71801" lon="-0.24578">
        <ele>69</ele>
        <time>2020-03-12T11:05:48Z</time>
      </trkpt>
      <trkpt lat="44.71782" lon="-0.24635">
        <ele>67</ele>
        <time>2020-03-12T11:06:23Z</time>
      </trkpt>
      <trkpt lat="44.71775" lon="-0.24645">
        <ele>67</ele>
        <time>2020-03-12T11:06:31Z</time>
      </trkpt>
      <trkpt lat="44.71757" lon="-0.24656">
        <ele>66</ele>
        <time>2020-03-12T11:06:46Z</time>
      </trkpt>
      <trkpt lat="44.71727" lon="-0.24666">
        <ele>64</ele>
        <time>2020-03-12T11:07:10Z</time>
      </trkpt>
      <trkpt lat="44.71706" lon="-0.24686">
        <ele>63</ele>
        <time>2020-03-12T11:07:28Z</time>
      </trkpt>
      <trkpt lat="44.71668" lon="-0.24757">
        <ele>63</ele>
        <time>2020-03-12T11:10:20Z</time>
      </trkpt>
      <trkpt lat="44.71761" lon="-0.24817">
        <ele>65</ele>
        <time>2020-03-12T11:12:33Z</time>
      </trkpt>
      <trkpt lat="44.71844" lon="-0.24898">
        <ele>67</ele>
        <time>2020-03-12T11:13:55Z</time>
      </trkpt>
      <trkpt lat="44.71922" lon="-0.24991">
        <ele>65</ele>
        <time>2020-03-12T11:15:15Z</time>
      </trkpt>
      <trkpt lat="44.71978" lon="-0.25045">
        <ele>63</ele>
        <time>2020-03-12T11:16:04Z</time>
      </trkpt>
      <trkpt lat="44.71998" lon="-0.25076">
        <ele>62</ele>
        <time>2020-03-12T11:16:28Z</time>
      </trkpt>
      <trkpt lat="44.72022" lon="-0.25124">
        <ele>59</ele>
        <time>2020-03-12T11:17:03Z</time>
      </trkpt>
      <trkpt lat="44.72038" lon="-0.25141">
        <ele>57</ele>
        <time>2020-03-12T11:17:20Z</time>
      </trkpt>
      <trkpt lat="44.72073" lon="-0.25192">
        <ele>54</ele>
        <time>2020-03-12T11:17:57Z</time>
      </trkpt>
      <trkpt lat="44.721" lon="-0.25214">
        <ele>54</ele>
        <time>2020-03-12T11:18:14Z</time>
      </trkpt>
      <trkpt lat="44.72137" lon="-0.25224">
        <ele>55</ele>
        <time>2020-03-12T11:18:48Z</time>
      </trkpt>
      <trkpt lat="44.72155" lon="-0.25234">
        <ele>56</ele>
        <time>2020-03-12T11:19:05Z</time>
      </trkpt>
      <trkpt lat="44.72164" lon="-0.2525">
        <ele>57</ele>
        <time>2020-03-12T11:19:19Z</time>
      </trkpt>
      <trkpt lat="44.72142" lon="-0.2532">
        <ele>59</ele>
        <time>2020-03-12T11:20:11Z</time>
      </trkpt>
      <trkpt lat="44.72113" lon="-0.25345">
        <ele>58</ele>
        <time>2020-03-12T11:20:41Z</time>
      </trkpt>
      <trkpt lat="44.72092" lon="-0.25354">
        <ele>57</ele>
        <time>2020-03-12T11:20:58Z</time>
      </trkpt>
      <trkpt lat="44.72069" lon="-0.25379">
        <ele>57</ele>
        <time>2020-03-12T11:21:27Z</time>
      </trkpt>
      <trkpt lat="44.72081" lon="-0.25393">
        <ele>59</ele>
        <time>2020-03-12T11:21:46Z</time>
      </trkpt>
      <trkpt lat="44.72127" lon="-0.25547">
        <ele>62</ele>
        <time>2020-03-12T11:23:30Z</time>
      </trkpt>
      <trkpt lat="44.72137" lon="-0.25562">
        <ele>63</ele>
        <time>2020-03-12T11:23:42Z</time>
      </trkpt>
      <trkpt lat="44.72148" lon="-0.25644">
        <ele>64</ele>
        <time>2020-03-12T11:24:29Z</time>
      </trkpt>
      <trkpt lat="44.72147" lon="-0.25674">
        <ele>64</ele>
        <time>2020-03-12T11:24:43Z</time>
      </trkpt>
      <trkpt lat="44.72124" lon="-0.25801">
        <ele>65</ele>
        <time>2020-03-12T11:25:56Z</time>
      </trkpt>
      <trkpt lat="44.72122" lon="-0.25852">
        <ele>64</ele>
        <time>2020-03-12T11:26:22Z</time>
      </trkpt>
      <trkpt lat="44.7213" lon="-0.25869">
        <ele>64</ele>
        <time>2020-03-12T11:26:44Z</time>
      </trkpt>
      <trkpt lat="44.72124" lon="-0.25871">
        <ele>64</ele>
        <time>2020-03-12T11:56:59Z</time>
      </trkpt>
      <trkpt lat="44.72121" lon="-0.25883">
        <ele>63</ele>
        <time>2020-03-12T11:57:29Z</time>
      </trkpt>
      <trkpt lat="44.72115" lon="-0.26085">
        <ele>54</ele>
        <time>2020-03-12T11:59:33Z</time>
      </trkpt>
      <trkpt lat="44.72192" lon="-0.26091">
        <ele>53</ele>
        <time>2020-03-12T12:00:35Z</time>
      </trkpt>
      <trkpt lat="44.72202" lon="-0.26097">
        <ele>53</ele>
        <time>2020-03-12T12:00:45Z</time>
      </trkpt>
      <trkpt lat="44.72253" lon="-0.26156">
        <ele>51</ele>
        <time>2020-03-12T12:01:37Z</time>
      </trkpt>
      <trkpt lat="44.72292" lon="-0.26231">
        <ele>46</ele>
        <time>2020-03-12T12:02:27Z</time>
      </trkpt>
      <trkpt lat="44.72309" lon="-0.26245">
        <ele>46</ele>
        <time>2020-03-12T12:02:45Z</time>
      </trkpt>
      <trkpt lat="44.7235" lon="-0.2625">
        <ele>47</ele>
        <time>2020-03-12T12:03:18Z</time>
      </trkpt>
      <trkpt lat="44.72381" lon="-0.26271">
        <ele>46</ele>
        <time>2020-03-12T12:03:45Z</time>
      </trkpt>
      <trkpt lat="44.72385" lon="-0.26285">
        <ele>46</ele>
        <time>2020-03-12T12:03:54Z</time>
      </trkpt>
      <trkpt lat="44.72372" lon="-0.26317">
        <ele>45</ele>
        <time>2020-03-12T12:04:16Z</time>
      </trkpt>
      <trkpt lat="44.7235" lon="-0.26429">
        <ele>47</ele>
        <time>2020-03-12T12:05:13Z</time>
      </trkpt>
      <trkpt lat="44.72259" lon="-0.2642">
        <ele>49</ele>
        <time>2020-03-12T12:06:28Z</time>
      </trkpt>
      <trkpt lat="44.72263" lon="-0.26417">
        <ele>49</ele>
        <time>2020-03-12T12:06:48Z</time>
      </trkpt>
      <trkpt lat="44.72349" lon="-0.26429">
        <ele>47</ele>
        <time>2020-03-12T12:08:08Z</time>
      </trkpt>
      <trkpt lat="44.7235" lon="-0.26436">
        <ele>48</ele>
        <time>2020-03-12T12:08:23Z</time>
      </trkpt>
      <trkpt lat="44.72324" lon="-0.2659">
        <ele>56</ele>
        <time>2020-03-12T12:09:56Z</time>
      </trkpt>
      <trkpt lat="44.72317" lon="-0.26676">
        <ele>61</ele>
        <time>2020-03-12T12:10:46Z</time>
      </trkpt>
      <trkpt lat="44.72285" lon="-0.26834">
        <ele>68</ele>
        <time>2020-03-12T12:12:21Z</time>
      </trkpt>
      <trkpt lat="44.72259" lon="-0.26905">
        <ele>69</ele>
        <time>2020-03-12T12:13:02Z</time>
      </trkpt>
      <trkpt lat="44.72249" lon="-0.26907">
        <ele>69</ele>
        <time>2020-03-12T12:13:10Z</time>
      </trkpt>
      <trkpt lat="44.7221" lon="-0.26891">
        <ele>66</ele>
        <time>2020-03-12T12:13:43Z</time>
      </trkpt>
      <trkpt lat="44.72117" lon="-0.2684">
        <ele>61</ele>
        <time>2020-03-12T12:14:56Z</time>
      </trkpt>
      <trkpt lat="44.72033" lon="-0.26801">
        <ele>63</ele>
        <time>2020-03-12T12:15:58Z</time>
      </trkpt>
      <trkpt lat="44.72006" lon="-0.26801">
        <ele>65</ele>
        <time>2020-03-12T12:16:18Z</time>
      </trkpt>
      <trkpt lat="44.71976" lon="-0.26811">
        <ele>67</ele>
        <time>2020-03-12T12:16:41Z</time>
      </trkpt>
      <trkpt lat="44.71821" lon="-0.26888">
        <ele>70</ele>
        <time>2020-03-12T12:19:12Z</time>
      </trkpt>
      <trkpt lat="44.71817" lon="-0.26906">
        <ele>71</ele>
        <time>2020-03-12T12:19:25Z</time>
      </trkpt>
      <trkpt lat="44.71829" lon="-0.26946">
        <ele>72</ele>
        <time>2020-03-12T12:19:49Z</time>
      </trkpt>
      <trkpt lat="44.71858" lon="-0.27118">
        <ele>75</ele>
        <time>2020-03-12T12:21:25Z</time>
      </trkpt>
      <trkpt lat="44.71865" lon="-0.27188">
        <ele>76</ele>
        <time>2020-03-12T12:22:05Z</time>
      </trkpt>
      <trkpt lat="44.71854" lon="-0.27235">
        <ele>76</ele>
        <time>2020-03-12T12:22:33Z</time>
      </trkpt>
      <trkpt lat="44.71853" lon="-0.27264">
        <ele>77</ele>
        <time>2020-03-12T12:22:49Z</time>
      </trkpt>
      <trkpt lat="44.71888" lon="-0.27344">
        <ele>80</ele>
        <time>2020-03-12T12:23:42Z</time>
      </trkpt>
      <trkpt lat="44.71893" lon="-0.27369">
        <ele>82</ele>
        <time>2020-03-12T12:23:58Z</time>
      </trkpt>
      <trkpt lat="44.71911" lon="-0.2741">
        <ele>84</ele>
        <time>2020-03-12T12:24:28Z</time>
      </trkpt>
      <trkpt lat="44.71918" lon="-0.27446">
        <ele>85</ele>
        <time>2020-03-12T12:24:54Z</time>
      </trkpt>
      <trkpt lat="44.71919" lon="-0.27497">
        <ele>86</ele>
        <time>2020-03-12T12:25:27Z</time>
      </trkpt>
      <trkpt lat="44.71959" lon="-0.27693">
        <ele>92</ele>
        <time>2020-03-12T12:27:35Z</time>
      </trkpt>
      <trkpt lat="44.71963" lon="-0.27698">
        <ele>92</ele>
        <time>2020-03-12T12:27:40Z</time>
      </trkpt>
      <trkpt lat="44.72016" lon="-0.2766">
        <ele>88</ele>
        <time>2020-03-12T12:28:33Z</time>
      </trkpt>
      <trkpt lat="44.72077" lon="-0.27601">
        <ele>83</ele>
        <time>2020-03-12T12:29:30Z</time>
      </trkpt>
      <trkpt lat="44.7213" lon="-0.27494">
        <ele>81</ele>
        <time>2020-03-12T12:30:41Z</time>
      </trkpt>
      <trkpt lat="44.72155" lon="-0.27429">
        <ele>81</ele>
        <time>2020-03-12T12:31:21Z</time>
      </trkpt>
      <trkpt lat="44.7219" lon="-0.27357">
        <ele>81</ele>
        <time>2020-03-12T12:32:09Z</time>
      </trkpt>
      <trkpt lat="44.72248" lon="-0.27338">
        <ele>79</ele>
        <time>2020-03-12T12:33:08Z</time>
      </trkpt>
      <trkpt lat="44.72297" lon="-0.27337">
        <ele>77</ele>
        <time>2020-03-12T12:33:48Z</time>
      </trkpt>
      <trkpt lat="44.72335" lon="-0.27343">
        <ele>76</ele>
        <time>2020-03-12T12:34:18Z</time>
      </trkpt>
      <trkpt lat="44.72404" lon="-0.27365">
        <ele>73</ele>
        <time>2020-03-12T12:35:21Z</time>
      </trkpt>
      <trkpt lat="44.72418" lon="-0.27361">
        <ele>72</ele>
        <time>2020-03-12T12:35:37Z</time>
      </trkpt>
      <trkpt lat="44.72427" lon="-0.27367">
        <ele>71</ele>
        <time>2020-03-12T12:35:53Z</time>
      </trkpt>
      <trkpt lat="44.72519" lon="-0.2739">
        <ele>67</ele>
        <time>2020-03-12T12:37:15Z</time>
      </trkpt>
      <trkpt lat="44.72543" lon="-0.2739">
        <ele>66</ele>
        <time>2020-03-12T12:37:41Z</time>
      </trkpt>
      <trkpt lat="44.72603" lon="-0.27377">
        <ele>62</ele>
        <time>2020-03-12T12:38:37Z</time>
      </trkpt>
      <trkpt lat="44.72646" lon="-0.27382">
        <ele>59</ele>
        <time>2020-03-12T12:39:15Z</time>
      </trkpt>
      <trkpt lat="44.72676" lon="-0.27378">
        <ele>57</ele>
        <time>2020-03-12T12:39:42Z</time>
      </trkpt>
      <trkpt lat="44.72728" lon="-0.27386">
        <ele>56</ele>
        <time>2020-03-12T12:40:28Z</time>
      </trkpt>
      <trkpt lat="44.72764" lon="-0.27383">
        <ele>56</ele>
        <time>2020-03-12T12:40:57Z</time>
      </trkpt>
      <trkpt lat="44.72777" lon="-0.27389">
        <ele>57</ele>
        <time>2020-03-12T12:41:16Z</time>
      </trkpt>
      <trkpt lat="44.72784" lon="-0.27398">
        <ele>57</ele>
        <time>2020-03-12T12:41:36Z</time>
      </trkpt>
      <trkpt lat="44.72789" lon="-0.27397">
        <ele>57</ele>
        <time>2020-03-12T12:42:17Z</time>
      </trkpt>
      <trkpt lat="44.72787" lon="-0.27391">
        <ele>57</ele>
        <time>2020-03-12T12:42:43Z</time>
      </trkpt>
      <trkpt lat="44.72787" lon="-0.27397">
        <ele>57</ele>
        <time>2020-03-12T12:43:08Z</time>
      </trkpt>
      <trkpt lat="44.72791" lon="-0.27396">
        <ele>57</ele>
        <time>2020-03-12T12:44:07Z</time>
      </trkpt>
      <trkpt lat="44.72832" lon="-0.27415">
        <ele>59</ele>
        <time>2020-03-12T12:44:36Z</time>
      </trkpt>
      <trkpt lat="44.72843" lon="-0.27429">
        <ele>60</ele>
        <time>2020-03-12T12:44:46Z</time>
      </trkpt>
      <trkpt lat="44.73052" lon="-0.27586">
        <ele>68</ele>
        <time>2020-03-12T12:47:35Z</time>
      </trkpt>
      <trkpt lat="44.73064" lon="-0.27601">
        <ele>69</ele>
        <time>2020-03-12T12:47:47Z</time>
      </trkpt>
      <trkpt lat="44.73135" lon="-0.27644">
        <ele>74</ele>
        <time>2020-03-12T12:48:40Z</time>
      </trkpt>
      <trkpt lat="44.73174" lon="-0.27675">
        <ele>77</ele>
        <time>2020-03-12T12:49:14Z</time>
      </trkpt>
      <trkpt lat="44.73178" lon="-0.27675">
        <ele>78</ele>
        <time>2020-03-12T12:49:22Z</time>
      </trkpt>
      <trkpt lat="44.73204" lon="-0.2763">
        <ele>78</ele>
        <time>2020-03-12T12:50:09Z</time>
      </trkpt>
      <trkpt lat="44.73209" lon="-0.27629">
        <ele>78</ele>
        <time>2020-03-12T12:50:20Z</time>
      </trkpt>
      <trkpt lat="44.73217" lon="-0.27603">
        <ele>78</ele>
        <time>2020-03-12T12:50:41Z</time>
      </trkpt>
      <trkpt lat="44.73236" lon="-0.27568">
        <ele>77</ele>
        <time>2020-03-12T12:51:04Z</time>
      </trkpt>
      <trkpt lat="44.73248" lon="-0.27527">
        <ele>76</ele>
        <time>2020-03-12T12:51:34Z</time>
      </trkpt>
      <trkpt lat="44.73253" lon="-0.2746">
        <ele>75</ele>
        <time>2020-03-12T12:52:09Z</time>
      </trkpt>
      <trkpt lat="44.73233" lon="-0.27258">
        <ele>71</ele>
        <time>2020-03-12T12:53:57Z</time>
      </trkpt>
      <trkpt lat="44.73216" lon="-0.27135">
        <ele>70</ele>
        <time>2020-03-12T12:55:02Z</time>
      </trkpt>
      <trkpt lat="44.73216" lon="-0.27083">
        <ele>70</ele>
        <time>2020-03-12T12:55:29Z</time>
      </trkpt>
      <trkpt lat="44.73229" lon="-0.2702">
        <ele>67</ele>
        <time>2020-03-12T12:56:03Z</time>
      </trkpt>
      <trkpt lat="44.73251" lon="-0.26941">
        <ele>64</ele>
        <time>2020-03-12T12:56:47Z</time>
      </trkpt>
      <trkpt lat="44.73266" lon="-0.26902">
        <ele>62</ele>
        <time>2020-03-12T12:57:09Z</time>
      </trkpt>
      <trkpt lat="44.7337" lon="-0.26549">
        <ele>58</ele>
        <time>2020-03-12T13:00:41Z</time>
      </trkpt>
      <trkpt lat="44.73389" lon="-0.2651">
        <ele>60</ele>
        <time>2020-03-12T13:01:06Z</time>
      </trkpt>
      <trkpt lat="44.73391" lon="-0.26482">
        <ele>61</ele>
        <time>2020-03-12T13:01:24Z</time>
      </trkpt>
      <trkpt lat="44.73408" lon="-0.26427">
        <ele>64</ele>
        <time>2020-03-12T13:01:57Z</time>
      </trkpt>
      <trkpt lat="44.73418" lon="-0.26326">
        <ele>65</ele>
        <time>2020-03-12T13:03:08Z</time>
      </trkpt>
      <trkpt lat="44.73413" lon="-0.26326">
        <ele>64</ele>
        <time>2020-03-12T13:03:23Z</time>
      </trkpt>
      <trkpt lat="44.73418" lon="-0.26283">
        <ele>62</ele>
        <time>2020-03-12T13:03:52Z</time>
      </trkpt>
      <trkpt lat="44.73446" lon="-0.26204">
        <ele>58</ele>
        <time>2020-03-12T13:04:32Z</time>
      </trkpt>
      <trkpt lat="44.73445" lon="-0.26156">
        <ele>56</ele>
        <time>2020-03-12T13:04:58Z</time>
      </trkpt>
    </trkseg>
  </trk>
  <trk>
    <name><![CDATA[randogps33-611]]></name>
    <extensions>
      <line xmlns="http://www.topografix.com/GPX/gpx_style/0/2">
        <color>0000FF</color>
        <width>4</width>
      </line>
    </extensions>
    <trkseg>
      <trkpt lat="44.69246" lon="-0.23061">
        <ele>61.18</ele>
        <time>2017-11-28T12:05:39Z</time>
      </trkpt>
      <trkpt lat="44.69245" lon="-0.2306">
        <ele>61.18</ele>
        <time>2017-11-28T12:06:02Z</time>
      </trkpt>
      <trkpt lat="44.69247" lon="-0.2306">
        <ele>61.18</ele>
        <time>2017-11-28T12:06:30Z</time>
      </trkpt>
      <trkpt lat="44.69246" lon="-0.23059">
        <ele>63.1</ele>
        <time>2017-11-28T12:06:57Z</time>
      </trkpt>
      <trkpt lat="44.69245" lon="-0.2306">
        <ele>61.66</ele>
        <time>2017-11-28T12:07:27Z</time>
      </trkpt>
      <trkpt lat="44.69245" lon="-0.23059">
        <ele>63.1</ele>
        <time>2017-11-28T12:07:48Z</time>
      </trkpt>
      <trkpt lat="44.69245" lon="-0.23059">
        <ele>61.66</ele>
        <time>2017-11-28T12:08:04Z</time>
      </trkpt>
      <trkpt lat="44.69245" lon="-0.2306">
        <ele>61.66</ele>
        <time>2017-11-28T12:08:28Z</time>
      </trkpt>
      <trkpt lat="44.69244" lon="-0.2306">
        <ele>61.66</ele>
        <time>2017-11-28T12:08:39Z</time>
      </trkpt>
      <trkpt lat="44.69241" lon="-0.23064">
        <ele>61.18</ele>
        <time>2017-11-28T12:08:51Z</time>
      </trkpt>
      <trkpt lat="44.69227" lon="-0.23078">
        <ele>63.1</ele>
        <time>2017-11-28T12:09:09Z</time>
      </trkpt>
      <trkpt lat="44.69224" lon="-0.23083">
        <ele>61.66</ele>
        <time>2017-11-28T12:09:14Z</time>
      </trkpt>
      <trkpt lat="44.69224" lon="-0.2309">
        <ele>63.1</ele>
        <time>2017-11-28T12:09:21Z</time>
      </trkpt>
      <trkpt lat="44.6922" lon="-0.23099">
        <ele>63.58</ele>
        <time>2017-11-28T12:09:32Z</time>
      </trkpt>
      <trkpt lat="44.69217" lon="-0.231">
        <ele>63.58</ele>
        <time>2017-11-28T12:09:46Z</time>
      </trkpt>
      <trkpt lat="44.6921" lon="-0.23112">
        <ele>64.07</ele>
        <time>2017-11-28T12:09:59Z</time>
      </trkpt>
      <trkpt lat="44.69202" lon="-0.23126">
        <ele>63.58</ele>
        <time>2017-11-28T12:10:12Z</time>
      </trkpt>
      <trkpt lat="44.69197" lon="-0.23129">
        <ele>64.55</ele>
        <time>2017-11-28T12:10:24Z</time>
      </trkpt>
      <trkpt lat="44.69199" lon="-0.23132">
        <ele>64.55</ele>
        <time>2017-11-28T12:10:47Z</time>
      </trkpt>
      <trkpt lat="44.69198" lon="-0.23132">
        <ele>64.55</ele>
        <time>2017-11-28T12:11:07Z</time>
      </trkpt>
      <trkpt lat="44.692" lon="-0.23131">
        <ele>64.55</ele>
        <time>2017-11-28T12:11:28Z</time>
      </trkpt>
      <trkpt lat="44.692" lon="-0.23133">
        <ele>64.55</ele>
        <time>2017-11-28T12:11:46Z</time>
      </trkpt>
      <trkpt lat="44.69201" lon="-0.23132">
        <ele>65.03</ele>
        <time>2017-11-28T12:12:01Z</time>
      </trkpt>
      <trkpt lat="44.69201" lon="-0.23132">
        <ele>65.03</ele>
        <time>2017-11-28T12:12:20Z</time>
      </trkpt>
      <trkpt lat="44.692" lon="-0.23132">
        <ele>65.03</ele>
        <time>2017-11-28T12:12:41Z</time>
      </trkpt>
      <trkpt lat="44.692" lon="-0.23131">
        <ele>65.03</ele>
        <time>2017-11-28T12:12:57Z</time>
      </trkpt>
      <trkpt lat="44.69199" lon="-0.23128">
        <ele>64.55</ele>
        <time>2017-11-28T12:13:28Z</time>
      </trkpt>
      <trkpt lat="44.692" lon="-0.23131">
        <ele>64.55</ele>
        <time>2017-11-28T12:13:49Z</time>
      </trkpt>
      <trkpt lat="44.69201" lon="-0.23133">
        <ele>64.55</ele>
        <time>2017-11-28T12:13:52Z</time>
      </trkpt>
      <trkpt lat="44.69215" lon="-0.23149">
        <ele>63.1</ele>
        <time>2017-11-28T12:14:07Z</time>
      </trkpt>
      <trkpt lat="44.69231" lon="-0.23169">
        <ele>62.62</ele>
        <time>2017-11-28T12:14:25Z</time>
      </trkpt>
      <trkpt lat="44.6923" lon="-0.23177">
        <ele>62.62</ele>
        <time>2017-11-28T12:14:31Z</time>
      </trkpt>
      <trkpt lat="44.69226" lon="-0.23188">
        <ele>62.62</ele>
        <time>2017-11-28T12:14:38Z</time>
      </trkpt>
      <trkpt lat="44.69215" lon="-0.23214">
        <ele>62.62</ele>
        <time>2017-11-28T12:14:55Z</time>
      </trkpt>
      <trkpt lat="44.69213" lon="-0.23215">
        <ele>62.62</ele>
        <time>2017-11-28T12:14:58Z</time>
      </trkpt>
      <trkpt lat="44.69199" lon="-0.23206">
        <ele>62.62</ele>
        <time>2017-11-28T12:15:12Z</time>
      </trkpt>
      <trkpt lat="44.69197" lon="-0.23204">
        <ele>62.62</ele>
        <time>2017-11-28T12:15:19Z</time>
      </trkpt>
      <trkpt lat="44.69196" lon="-0.23202">
        <ele>62.62</ele>
        <time>2017-11-28T12:15:21Z</time>
      </trkpt>
      <trkpt lat="44.6919" lon="-0.23196">
        <ele>64.07</ele>
        <time>2017-11-28T12:15:30Z</time>
      </trkpt>
      <trkpt lat="44.69173" lon="-0.2318">
        <ele>64.07</ele>
        <time>2017-11-28T12:15:46Z</time>
      </trkpt>
      <trkpt lat="44.69161" lon="-0.23164">
        <ele>63.58</ele>
        <time>2017-11-28T12:16:01Z</time>
      </trkpt>
      <trkpt lat="44.69144" lon="-0.23146">
        <ele>64.07</ele>
        <time>2017-11-28T12:16:19Z</time>
      </trkpt>
      <trkpt lat="44.69128" lon="-0.23126">
        <ele>64.55</ele>
        <time>2017-11-28T12:16:36Z</time>
      </trkpt>
      <trkpt lat="44.69114" lon="-0.23109">
        <ele>65.03</ele>
        <time>2017-11-28T12:16:53Z</time>
      </trkpt>
      <trkpt lat="44.69101" lon="-0.23094">
        <ele>65.03</ele>
        <time>2017-11-28T12:17:09Z</time>
      </trkpt>
      <trkpt lat="44.69088" lon="-0.23081">
        <ele>65.99</ele>
        <time>2017-11-28T12:17:23Z</time>
      </trkpt>
      <trkpt lat="44.69075" lon="-0.23066">
        <ele>65.51</ele>
        <time>2017-11-28T12:17:38Z</time>
      </trkpt>
      <trkpt lat="44.69059" lon="-0.23049">
        <ele>65.99</ele>
        <time>2017-11-28T12:17:55Z</time>
      </trkpt>
      <trkpt lat="44.69044" lon="-0.23034">
        <ele>66.47</ele>
        <time>2017-11-28T12:18:10Z</time>
      </trkpt>
      <trkpt lat="44.6903" lon="-0.23019">
        <ele>66.95</ele>
        <time>2017-11-28T12:18:27Z</time>
      </trkpt>
      <trkpt lat="44.69013" lon="-0.23005">
        <ele>67.43</ele>
        <time>2017-11-28T12:18:44Z</time>
      </trkpt>
      <trkpt lat="44.68997" lon="-0.22992">
        <ele>67.43</ele>
        <time>2017-11-28T12:19:00Z</time>
      </trkpt>
      <trkpt lat="44.68982" lon="-0.22977">
        <ele>67.91</ele>
        <time>2017-11-28T12:19:16Z</time>
      </trkpt>
      <trkpt lat="44.68968" lon="-0.22962">
        <ele>68.39</ele>
        <time>2017-11-28T12:19:32Z</time>
      </trkpt>
      <trkpt lat="44.68957" lon="-0.22946">
        <ele>68.87</ele>
        <time>2017-11-28T12:19:47Z</time>
      </trkpt>
      <trkpt lat="44.68957" lon="-0.22944">
        <ele>69.35</ele>
        <time>2017-11-28T12:19:48Z</time>
      </trkpt>
      <trkpt lat="44.68961" lon="-0.22934">
        <ele>69.83</ele>
        <time>2017-11-28T12:20:02Z</time>
      </trkpt>
      <trkpt lat="44.68962" lon="-0.22933">
        <ele>69.35</ele>
        <time>2017-11-28T12:20:09Z</time>
      </trkpt>
      <trkpt lat="44.68963" lon="-0.22934">
        <ele>70.31</ele>
        <time>2017-11-28T12:20:25Z</time>
      </trkpt>
      <trkpt lat="44.68965" lon="-0.22929">
        <ele>69.35</ele>
        <time>2017-11-28T12:20:36Z</time>
      </trkpt>
      <trkpt lat="44.68967" lon="-0.22927">
        <ele>69.35</ele>
        <time>2017-11-28T12:20:48Z</time>
      </trkpt>
      <trkpt lat="44.68969" lon="-0.22927">
        <ele>69.35</ele>
        <time>2017-11-28T12:21:27Z</time>
      </trkpt>
      <trkpt lat="44.68968" lon="-0.22926">
        <ele>70.31</ele>
        <time>2017-11-28T12:22:01Z</time>
      </trkpt>
      <trkpt lat="44.68967" lon="-0.22925">
        <ele>69.83</ele>
        <time>2017-11-28T12:22:34Z</time>
      </trkpt>
      <trkpt lat="44.68965" lon="-0.2293">
        <ele>69.83</ele>
        <time>2017-11-28T12:23:02Z</time>
      </trkpt>
      <trkpt lat="44.68964" lon="-0.2293">
        <ele>69.83</ele>
        <time>2017-11-28T12:23:03Z</time>
      </trkpt>
      <trkpt lat="44.6896" lon="-0.22946">
        <ele>69.83</ele>
        <time>2017-11-28T12:23:14Z</time>
      </trkpt>
      <trkpt lat="44.68962" lon="-0.22949">
        <ele>68.87</ele>
        <time>2017-11-28T12:23:23Z</time>
      </trkpt>
      <trkpt lat="44.68962" lon="-0.22943">
        <ele>68.87</ele>
        <time>2017-11-28T12:23:28Z</time>
      </trkpt>
      <trkpt lat="44.68967" lon="-0.22929">
        <ele>68.39</ele>
        <time>2017-11-28T12:23:42Z</time>
      </trkpt>
      <trkpt lat="44.68968" lon="-0.22929">
        <ele>69.83</ele>
        <time>2017-11-28T12:23:58Z</time>
      </trkpt>
      <trkpt lat="44.68969" lon="-0.22927">
        <ele>69.83</ele>
        <time>2017-11-28T12:24:21Z</time>
      </trkpt>
      <trkpt lat="44.6897" lon="-0.22926">
        <ele>69.83</ele>
        <time>2017-11-28T12:24:24Z</time>
      </trkpt>
      <trkpt lat="44.68977" lon="-0.22912">
        <ele>69.83</ele>
        <time>2017-11-28T12:24:39Z</time>
      </trkpt>
      <trkpt lat="44.68977" lon="-0.22903">
        <ele>69.83</ele>
        <time>2017-11-28T12:24:45Z</time>
      </trkpt>
      <trkpt lat="44.68966" lon="-0.2289">
        <ele>70.31</ele>
        <time>2017-11-28T12:25:01Z</time>
      </trkpt>
      <trkpt lat="44.68962" lon="-0.22886">
        <ele>70.31</ele>
        <time>2017-11-28T12:25:04Z</time>
      </trkpt>
      <trkpt lat="44.68956" lon="-0.22878">
        <ele>71.27</ele>
        <time>2017-11-28T12:25:12Z</time>
      </trkpt>
      <trkpt lat="44.6895" lon="-0.22871">
        <ele>71.27</ele>
        <time>2017-11-28T12:25:20Z</time>
      </trkpt>
      <trkpt lat="44.68938" lon="-0.22857">
        <ele>72.24</ele>
        <time>2017-11-28T12:25:34Z</time>
      </trkpt>
      <trkpt lat="44.68924" lon="-0.22841">
        <ele>72.24</ele>
        <time>2017-11-28T12:25:49Z</time>
      </trkpt>
      <trkpt lat="44.68911" lon="-0.22826">
        <ele>72.24</ele>
        <time>2017-11-28T12:26:04Z</time>
      </trkpt>
      <trkpt lat="44.689" lon="-0.22814">
        <ele>72.24</ele>
        <time>2017-11-28T12:26:18Z</time>
      </trkpt>
      <trkpt lat="44.68889" lon="-0.228">
        <ele>72.72</ele>
        <time>2017-11-28T12:26:32Z</time>
      </trkpt>
      <trkpt lat="44.68885" lon="-0.22792">
        <ele>72.72</ele>
        <time>2017-11-28T12:26:40Z</time>
      </trkpt>
      <trkpt lat="44.68894" lon="-0.22774">
        <ele>72.72</ele>
        <time>2017-11-28T12:26:54Z</time>
      </trkpt>
      <trkpt lat="44.68894" lon="-0.22773">
        <ele>72.72</ele>
        <time>2017-11-28T12:26:55Z</time>
      </trkpt>
      <trkpt lat="44.68896" lon="-0.22764">
        <ele>71.27</ele>
        <time>2017-11-28T12:27:06Z</time>
      </trkpt>
      <trkpt lat="44.68906" lon="-0.22748">
        <ele>70.31</ele>
        <time>2017-11-28T12:27:22Z</time>
      </trkpt>
      <trkpt lat="44.68916" lon="-0.22732">
        <ele>69.83</ele>
        <time>2017-11-28T12:27:36Z</time>
      </trkpt>
      <trkpt lat="44.68917" lon="-0.22727">
        <ele>69.83</ele>
        <time>2017-11-28T12:27:43Z</time>
      </trkpt>
      <trkpt lat="44.68911" lon="-0.2272">
        <ele>69.83</ele>
        <time>2017-11-28T12:27:49Z</time>
      </trkpt>
      <trkpt lat="44.68893" lon="-0.22705">
        <ele>71.76</ele>
        <time>2017-11-28T12:28:06Z</time>
      </trkpt>
      <trkpt lat="44.68873" lon="-0.22683">
        <ele>71.76</ele>
        <time>2017-11-28T12:28:24Z</time>
      </trkpt>
      <trkpt lat="44.68854" lon="-0.22664">
        <ele>72.24</ele>
        <time>2017-11-28T12:28:43Z</time>
      </trkpt>
      <trkpt lat="44.68836" lon="-0.22641">
        <ele>72.24</ele>
        <time>2017-11-28T12:29:05Z</time>
      </trkpt>
      <trkpt lat="44.68823" lon="-0.2262">
        <ele>73.2</ele>
        <time>2017-11-28T12:29:23Z</time>
      </trkpt>
      <trkpt lat="44.68805" lon="-0.22595">
        <ele>73.2</ele>
        <time>2017-11-28T12:29:42Z</time>
      </trkpt>
      <trkpt lat="44.68791" lon="-0.22576">
        <ele>73.2</ele>
        <time>2017-11-28T12:29:58Z</time>
      </trkpt>
      <trkpt lat="44.68783" lon="-0.22565">
        <ele>73.68</ele>
        <time>2017-11-28T12:30:11Z</time>
      </trkpt>
      <trkpt lat="44.68776" lon="-0.22563">
        <ele>74.16</ele>
        <time>2017-11-28T12:30:27Z</time>
      </trkpt>
      <trkpt lat="44.68773" lon="-0.22569">
        <ele>74.16</ele>
        <time>2017-11-28T12:30:42Z</time>
      </trkpt>
      <trkpt lat="44.68767" lon="-0.22579">
        <ele>74.64</ele>
        <time>2017-11-28T12:30:53Z</time>
      </trkpt>
      <trkpt lat="44.68764" lon="-0.22586">
        <ele>74.64</ele>
        <time>2017-11-28T12:30:59Z</time>
      </trkpt>
      <trkpt lat="44.68756" lon="-0.22604">
        <ele>75.6</ele>
        <time>2017-11-28T12:31:14Z</time>
      </trkpt>
      <trkpt lat="44.68742" lon="-0.22617">
        <ele>76.56</ele>
        <time>2017-11-28T12:31:29Z</time>
      </trkpt>
      <trkpt lat="44.68726" lon="-0.2262">
        <ele>77.52</ele>
        <time>2017-11-28T12:31:44Z</time>
      </trkpt>
      <trkpt lat="44.6871" lon="-0.22632">
        <ele>78.97</ele>
        <time>2017-11-28T12:32:00Z</time>
      </trkpt>
      <trkpt lat="44.68696" lon="-0.22646">
        <ele>79.93</ele>
        <time>2017-11-28T12:32:15Z</time>
      </trkpt>
      <trkpt lat="44.68683" lon="-0.22651">
        <ele>80.41</ele>
        <time>2017-11-28T12:32:27Z</time>
      </trkpt>
      <trkpt lat="44.68668" lon="-0.22659">
        <ele>80.41</ele>
        <time>2017-11-28T12:32:42Z</time>
      </trkpt>
      <trkpt lat="44.68653" lon="-0.22668">
        <ele>81.85</ele>
        <time>2017-11-28T12:32:58Z</time>
      </trkpt>
      <trkpt lat="44.68637" lon="-0.22673">
        <ele>82.81</ele>
        <time>2017-11-28T12:33:15Z</time>
      </trkpt>
      <trkpt lat="44.68628" lon="-0.22677">
        <ele>83.29</ele>
        <time>2017-11-28T12:33:34Z</time>
      </trkpt>
      <trkpt lat="44.68613" lon="-0.22686">
        <ele>85.21</ele>
        <time>2017-11-28T12:33:49Z</time>
      </trkpt>
      <trkpt lat="44.68608" lon="-0.22687">
        <ele>85.21</ele>
        <time>2017-11-28T12:33:53Z</time>
      </trkpt>
      <trkpt lat="44.68591" lon="-0.22689">
        <ele>85.21</ele>
        <time>2017-11-28T12:34:07Z</time>
      </trkpt>
      <trkpt lat="44.68587" lon="-0.2269">
        <ele>85.21</ele>
        <time>2017-11-28T12:34:19Z</time>
      </trkpt>
      <trkpt lat="44.68575" lon="-0.22702">
        <ele>85.21</ele>
        <time>2017-11-28T12:34:31Z</time>
      </trkpt>
      <trkpt lat="44.6856" lon="-0.22712">
        <ele>85.21</ele>
        <time>2017-11-28T12:34:45Z</time>
      </trkpt>
      <trkpt lat="44.68544" lon="-0.2272">
        <ele>85.21</ele>
        <time>2017-11-28T12:35:03Z</time>
      </trkpt>
      <trkpt lat="44.68542" lon="-0.22733">
        <ele>85.21</ele>
        <time>2017-11-28T12:35:12Z</time>
      </trkpt>
      <trkpt lat="44.68544" lon="-0.22744">
        <ele>85.21</ele>
        <time>2017-11-28T12:35:20Z</time>
      </trkpt>
      <trkpt lat="44.68541" lon="-0.22774">
        <ele>85.21</ele>
        <time>2017-11-28T12:35:36Z</time>
      </trkpt>
      <trkpt lat="44.6854" lon="-0.22792">
        <ele>83.77</ele>
        <time>2017-11-28T12:35:49Z</time>
      </trkpt>
      <trkpt lat="44.68538" lon="-0.22813">
        <ele>83.29</ele>
        <time>2017-11-28T12:36:07Z</time>
      </trkpt>
      <trkpt lat="44.68529" lon="-0.22841">
        <ele>82.81</ele>
        <time>2017-11-28T12:36:25Z</time>
      </trkpt>
      <trkpt lat="44.68523" lon="-0.22851">
        <ele>82.33</ele>
        <time>2017-11-28T12:36:32Z</time>
      </trkpt>
      <trkpt lat="44.68513" lon="-0.22869">
        <ele>80.89</ele>
        <time>2017-11-28T12:36:46Z</time>
      </trkpt>
      <trkpt lat="44.68501" lon="-0.2289">
        <ele>80.89</ele>
        <time>2017-11-28T12:36:59Z</time>
      </trkpt>
      <trkpt lat="44.68489" lon="-0.22911">
        <ele>80.89</ele>
        <time>2017-11-28T12:37:14Z</time>
      </trkpt>
      <trkpt lat="44.68479" lon="-0.22928">
        <ele>80.41</ele>
        <time>2017-11-28T12:37:27Z</time>
      </trkpt>
      <trkpt lat="44.6847" lon="-0.22946">
        <ele>80.41</ele>
        <time>2017-11-28T12:37:40Z</time>
      </trkpt>
      <trkpt lat="44.68468" lon="-0.22948">
        <ele>81.85</ele>
        <time>2017-11-28T12:37:43Z</time>
      </trkpt>
      <trkpt lat="44.68468" lon="-0.22949">
        <ele>81.85</ele>
        <time>2017-11-28T12:37:44Z</time>
      </trkpt>
      <trkpt lat="44.68466" lon="-0.22961">
        <ele>82.81</ele>
        <time>2017-11-28T12:37:51Z</time>
      </trkpt>
      <trkpt lat="44.68466" lon="-0.22962">
        <ele>82.81</ele>
        <time>2017-11-28T12:37:53Z</time>
      </trkpt>
      <trkpt lat="44.68457" lon="-0.22975">
        <ele>83.29</ele>
        <time>2017-11-28T12:38:05Z</time>
      </trkpt>
      <trkpt lat="44.68443" lon="-0.22985">
        <ele>82.81</ele>
        <time>2017-11-28T12:38:19Z</time>
      </trkpt>
      <trkpt lat="44.68422" lon="-0.23001">
        <ele>81.37</ele>
        <time>2017-11-28T12:38:35Z</time>
      </trkpt>
      <trkpt lat="44.68406" lon="-0.23016">
        <ele>80.89</ele>
        <time>2017-11-28T12:38:53Z</time>
      </trkpt>
      <trkpt lat="44.684" lon="-0.23026">
        <ele>79.93</ele>
        <time>2017-11-28T12:39:01Z</time>
      </trkpt>
      <trkpt lat="44.68405" lon="-0.23045">
        <ele>79.93</ele>
        <time>2017-11-28T12:39:14Z</time>
      </trkpt>
      <trkpt lat="44.6841" lon="-0.23064">
        <ele>81.37</ele>
        <time>2017-11-28T12:39:27Z</time>
      </trkpt>
      <trkpt lat="44.68415" lon="-0.23086">
        <ele>81.85</ele>
        <time>2017-11-28T12:39:41Z</time>
      </trkpt>
      <trkpt lat="44.68418" lon="-0.23103">
        <ele>82.33</ele>
        <time>2017-11-28T12:39:52Z</time>
      </trkpt>
      <trkpt lat="44.68424" lon="-0.23122">
        <ele>82.81</ele>
        <time>2017-11-28T12:40:05Z</time>
      </trkpt>
      <trkpt lat="44.68429" lon="-0.23143">
        <ele>83.29</ele>
        <time>2017-11-28T12:40:20Z</time>
      </trkpt>
      <trkpt lat="44.68433" lon="-0.23163">
        <ele>83.77</ele>
        <time>2017-11-28T12:40:34Z</time>
      </trkpt>
      <trkpt lat="44.68439" lon="-0.23186">
        <ele>84.73</ele>
        <time>2017-11-28T12:40:48Z</time>
      </trkpt>
      <trkpt lat="44.68445" lon="-0.23205">
        <ele>84.73</ele>
        <time>2017-11-28T12:41:01Z</time>
      </trkpt>
      <trkpt lat="44.68451" lon="-0.23233">
        <ele>84.73</ele>
        <time>2017-11-28T12:41:20Z</time>
      </trkpt>
      <trkpt lat="44.68456" lon="-0.23253">
        <ele>84.73</ele>
        <time>2017-11-28T12:41:34Z</time>
      </trkpt>
      <trkpt lat="44.68456" lon="-0.23255">
        <ele>84.73</ele>
        <time>2017-11-28T12:41:36Z</time>
      </trkpt>
      <trkpt lat="44.68443" lon="-0.23267">
        <ele>83.29</ele>
        <time>2017-11-28T12:41:52Z</time>
      </trkpt>
      <trkpt lat="44.68428" lon="-0.23288">
        <ele>82.33</ele>
        <time>2017-11-28T12:42:10Z</time>
      </trkpt>
      <trkpt lat="44.68416" lon="-0.23308">
        <ele>81.37</ele>
        <time>2017-11-28T12:42:26Z</time>
      </trkpt>
      <trkpt lat="44.68417" lon="-0.23318">
        <ele>80.41</ele>
        <time>2017-11-28T12:42:31Z</time>
      </trkpt>
      <trkpt lat="44.68419" lon="-0.23335">
        <ele>79.45</ele>
        <time>2017-11-28T12:42:44Z</time>
      </trkpt>
      <trkpt lat="44.68423" lon="-0.23358">
        <ele>78.97</ele>
        <time>2017-11-28T12:42:58Z</time>
      </trkpt>
      <trkpt lat="44.68427" lon="-0.23377">
        <ele>78</ele>
        <time>2017-11-28T12:43:12Z</time>
      </trkpt>
      <trkpt lat="44.68431" lon="-0.23408">
        <ele>77.52</ele>
        <time>2017-11-28T12:43:29Z</time>
      </trkpt>
      <trkpt lat="44.68435" lon="-0.23432">
        <ele>76.08</ele>
        <time>2017-11-28T12:43:42Z</time>
      </trkpt>
      <trkpt lat="44.68439" lon="-0.23453">
        <ele>75.6</ele>
        <time>2017-11-28T12:43:56Z</time>
      </trkpt>
      <trkpt lat="44.68453" lon="-0.23464">
        <ele>75.6</ele>
        <time>2017-11-28T12:44:10Z</time>
      </trkpt>
      <trkpt lat="44.68463" lon="-0.23478">
        <ele>74.16</ele>
        <time>2017-11-28T12:44:24Z</time>
      </trkpt>
      <trkpt lat="44.68472" lon="-0.2351">
        <ele>73.68</ele>
        <time>2017-11-28T12:44:42Z</time>
      </trkpt>
      <trkpt lat="44.68478" lon="-0.23533">
        <ele>72.72</ele>
        <time>2017-11-28T12:44:57Z</time>
      </trkpt>
      <trkpt lat="44.68479" lon="-0.23536">
        <ele>72.72</ele>
        <time>2017-11-28T12:44:59Z</time>
      </trkpt>
      <trkpt lat="44.68479" lon="-0.23537">
        <ele>72.72</ele>
        <time>2017-11-28T12:45:00Z</time>
      </trkpt>
      <trkpt lat="44.68485" lon="-0.23557">
        <ele>71.27</ele>
        <time>2017-11-28T12:45:15Z</time>
      </trkpt>
      <trkpt lat="44.68492" lon="-0.23584">
        <ele>69.83</ele>
        <time>2017-11-28T12:45:32Z</time>
      </trkpt>
      <trkpt lat="44.68502" lon="-0.23627">
        <ele>68.39</ele>
        <time>2017-11-28T12:45:53Z</time>
      </trkpt>
      <trkpt lat="44.68511" lon="-0.2365">
        <ele>66.47</ele>
        <time>2017-11-28T12:46:12Z</time>
      </trkpt>
      <trkpt lat="44.6852" lon="-0.23675">
        <ele>65.51</ele>
        <time>2017-11-28T12:46:28Z</time>
      </trkpt>
      <trkpt lat="44.68531" lon="-0.23706">
        <ele>64.55</ele>
        <time>2017-11-28T12:46:44Z</time>
      </trkpt>
      <trkpt lat="44.68536" lon="-0.23724">
        <ele>63.58</ele>
        <time>2017-11-28T12:46:59Z</time>
      </trkpt>
      <trkpt lat="44.68545" lon="-0.23748">
        <ele>63.58</ele>
        <time>2017-11-28T12:47:15Z</time>
      </trkpt>
      <trkpt lat="44.68554" lon="-0.23771">
        <ele>62.62</ele>
        <time>2017-11-28T12:47:30Z</time>
      </trkpt>
      <trkpt lat="44.68563" lon="-0.23798">
        <ele>62.14</ele>
        <time>2017-11-28T12:47:47Z</time>
      </trkpt>
      <trkpt lat="44.68569" lon="-0.23819">
        <ele>61.66</ele>
        <time>2017-11-28T12:48:02Z</time>
      </trkpt>
      <trkpt lat="44.6857" lon="-0.23819">
        <ele>61.66</ele>
        <time>2017-11-28T12:48:03Z</time>
      </trkpt>
      <trkpt lat="44.68571" lon="-0.23821">
        <ele>61.66</ele>
        <time>2017-11-28T12:48:04Z</time>
      </trkpt>
      <trkpt lat="44.68572" lon="-0.23822">
        <ele>61.66</ele>
        <time>2017-11-28T12:48:05Z</time>
      </trkpt>
      <trkpt lat="44.68572" lon="-0.23825">
        <ele>61.66</ele>
        <time>2017-11-28T12:48:06Z</time>
      </trkpt>
      <trkpt lat="44.68572" lon="-0.23826">
        <ele>61.66</ele>
        <time>2017-11-28T12:48:07Z</time>
      </trkpt>
      <trkpt lat="44.68573" lon="-0.23828">
        <ele>61.66</ele>
        <time>2017-11-28T12:48:08Z</time>
      </trkpt>
      <trkpt lat="44.68574" lon="-0.2383">
        <ele>61.66</ele>
        <time>2017-11-28T12:48:09Z</time>
      </trkpt>
      <trkpt lat="44.68582" lon="-0.23855">
        <ele>61.66</ele>
        <time>2017-11-28T12:48:27Z</time>
      </trkpt>
      <trkpt lat="44.68591" lon="-0.23886">
        <ele>60.7</ele>
        <time>2017-11-28T12:48:46Z</time>
      </trkpt>
      <trkpt lat="44.68597" lon="-0.23899">
        <ele>59.74</ele>
        <time>2017-11-28T12:48:57Z</time>
      </trkpt>
      <trkpt lat="44.68598" lon="-0.23901">
        <ele>59.74</ele>
        <time>2017-11-28T12:48:58Z</time>
      </trkpt>
      <trkpt lat="44.68598" lon="-0.23903">
        <ele>59.74</ele>
        <time>2017-11-28T12:48:59Z</time>
      </trkpt>
      <trkpt lat="44.68608" lon="-0.23926">
        <ele>59.26</ele>
        <time>2017-11-28T12:49:14Z</time>
      </trkpt>
      <trkpt lat="44.68619" lon="-0.23952">
        <ele>58.78</ele>
        <time>2017-11-28T12:49:31Z</time>
      </trkpt>
      <trkpt lat="44.68621" lon="-0.2396">
        <ele>58.78</ele>
        <time>2017-11-28T12:49:37Z</time>
      </trkpt>
      <trkpt lat="44.68628" lon="-0.23977">
        <ele>57.82</ele>
        <time>2017-11-28T12:49:49Z</time>
      </trkpt>
      <trkpt lat="44.68628" lon="-0.23978">
        <ele>57.82</ele>
        <time>2017-11-28T12:49:50Z</time>
      </trkpt>
      <trkpt lat="44.68639" lon="-0.24005">
        <ele>57.34</ele>
        <time>2017-11-28T12:50:08Z</time>
      </trkpt>
      <trkpt lat="44.6865" lon="-0.24032">
        <ele>57.34</ele>
        <time>2017-11-28T12:50:23Z</time>
      </trkpt>
      <trkpt lat="44.68657" lon="-0.2405">
        <ele>57.34</ele>
        <time>2017-11-28T12:50:37Z</time>
      </trkpt>
      <trkpt lat="44.68666" lon="-0.24073">
        <ele>57.34</ele>
        <time>2017-11-28T12:50:53Z</time>
      </trkpt>
      <trkpt lat="44.68672" lon="-0.24082">
        <ele>56.86</ele>
        <time>2017-11-28T12:51:02Z</time>
      </trkpt>
      <trkpt lat="44.68672" lon="-0.24083">
        <ele>56.86</ele>
        <time>2017-11-28T12:51:15Z</time>
      </trkpt>
      <trkpt lat="44.68672" lon="-0.24084">
        <ele>57.82</ele>
        <time>2017-11-28T12:51:36Z</time>
      </trkpt>
      <trkpt lat="44.68671" lon="-0.24084">
        <ele>57.82</ele>
        <time>2017-11-28T12:52:05Z</time>
      </trkpt>
      <trkpt lat="44.68671" lon="-0.24081">
        <ele>57.82</ele>
        <time>2017-11-28T12:52:22Z</time>
      </trkpt>
      <trkpt lat="44.68668" lon="-0.24077">
        <ele>57.82</ele>
        <time>2017-11-28T12:52:36Z</time>
      </trkpt>
      <trkpt lat="44.68667" lon="-0.24073">
        <ele>57.82</ele>
        <time>2017-11-28T12:52:58Z</time>
      </trkpt>
      <trkpt lat="44.68663" lon="-0.24067">
        <ele>57.82</ele>
        <time>2017-11-28T12:53:11Z</time>
      </trkpt>
      <trkpt lat="44.68663" lon="-0.24064">
        <ele>57.82</ele>
        <time>2017-11-28T12:53:14Z</time>
      </trkpt>
      <trkpt lat="44.68661" lon="-0.24066">
        <ele>57.82</ele>
        <time>2017-11-28T12:53:22Z</time>
      </trkpt>
      <trkpt lat="44.68665" lon="-0.24071">
        <ele>57.82</ele>
        <time>2017-11-28T12:53:28Z</time>
      </trkpt>
      <trkpt lat="44.68666" lon="-0.24072">
        <ele>57.82</ele>
        <time>2017-11-28T12:53:29Z</time>
      </trkpt>
      <trkpt lat="44.68669" lon="-0.24077">
        <ele>57.82</ele>
        <time>2017-11-28T12:53:35Z</time>
      </trkpt>
      <trkpt lat="44.6867" lon="-0.24079">
        <ele>57.82</ele>
        <time>2017-11-28T12:53:37Z</time>
      </trkpt>
      <trkpt lat="44.68674" lon="-0.24083">
        <ele>57.82</ele>
        <time>2017-11-28T12:53:45Z</time>
      </trkpt>
      <trkpt lat="44.68679" lon="-0.24083">
        <ele>57.82</ele>
        <time>2017-11-28T12:53:50Z</time>
      </trkpt>
      <trkpt lat="44.68682" lon="-0.24081">
        <ele>57.82</ele>
        <time>2017-11-28T12:53:53Z</time>
      </trkpt>
      <trkpt lat="44.68686" lon="-0.24082">
        <ele>57.82</ele>
        <time>2017-11-28T12:53:58Z</time>
      </trkpt>
      <trkpt lat="44.68687" lon="-0.24083">
        <ele>57.82</ele>
        <time>2017-11-28T12:53:59Z</time>
      </trkpt>
      <trkpt lat="44.68688" lon="-0.24085">
        <ele>56.86</ele>
        <time>2017-11-28T12:54:00Z</time>
      </trkpt>
      <trkpt lat="44.68689" lon="-0.24087">
        <ele>56.86</ele>
        <time>2017-11-28T12:54:01Z</time>
      </trkpt>
      <trkpt lat="44.68697" lon="-0.24105">
        <ele>55.89</ele>
        <time>2017-11-28T12:54:15Z</time>
      </trkpt>
      <trkpt lat="44.68705" lon="-0.24126">
        <ele>55.89</ele>
        <time>2017-11-28T12:54:30Z</time>
      </trkpt>
      <trkpt lat="44.68713" lon="-0.24146">
        <ele>54.93</ele>
        <time>2017-11-28T12:54:46Z</time>
      </trkpt>
      <trkpt lat="44.68721" lon="-0.24167">
        <ele>54.93</ele>
        <time>2017-11-28T12:55:01Z</time>
      </trkpt>
      <trkpt lat="44.68729" lon="-0.2419">
        <ele>54.45</ele>
        <time>2017-11-28T12:55:17Z</time>
      </trkpt>
      <trkpt lat="44.68735" lon="-0.24213">
        <ele>54.45</ele>
        <time>2017-11-28T12:55:33Z</time>
      </trkpt>
      <trkpt lat="44.68741" lon="-0.24236">
        <ele>54.45</ele>
        <time>2017-11-28T12:55:48Z</time>
      </trkpt>
      <trkpt lat="44.68746" lon="-0.24257">
        <ele>54.45</ele>
        <time>2017-11-28T12:56:02Z</time>
      </trkpt>
      <trkpt lat="44.68753" lon="-0.24279">
        <ele>54.45</ele>
        <time>2017-11-28T12:56:17Z</time>
      </trkpt>
      <trkpt lat="44.6876" lon="-0.24301">
        <ele>53.97</ele>
        <time>2017-11-28T12:56:32Z</time>
      </trkpt>
      <trkpt lat="44.68759" lon="-0.24306">
        <ele>53.97</ele>
        <time>2017-11-28T12:56:36Z</time>
      </trkpt>
      <trkpt lat="44.68751" lon="-0.24324">
        <ele>53.97</ele>
        <time>2017-11-28T12:56:50Z</time>
      </trkpt>
      <trkpt lat="44.68751" lon="-0.24325">
        <ele>53.97</ele>
        <time>2017-11-28T12:56:51Z</time>
      </trkpt>
      <trkpt lat="44.68759" lon="-0.24345">
        <ele>53.97</ele>
        <time>2017-11-28T12:57:05Z</time>
      </trkpt>
      <trkpt lat="44.68769" lon="-0.2437">
        <ele>53.49</ele>
        <time>2017-11-28T12:57:23Z</time>
      </trkpt>
      <trkpt lat="44.68777" lon="-0.24394">
        <ele>53.49</ele>
        <time>2017-11-28T12:57:40Z</time>
      </trkpt>
      <trkpt lat="44.68785" lon="-0.24415">
        <ele>53.01</ele>
        <time>2017-11-28T12:57:54Z</time>
      </trkpt>
      <trkpt lat="44.68792" lon="-0.24436">
        <ele>53.01</ele>
        <time>2017-11-28T12:58:09Z</time>
      </trkpt>
      <trkpt lat="44.68798" lon="-0.24455">
        <ele>53.97</ele>
        <time>2017-11-28T12:58:23Z</time>
      </trkpt>
      <trkpt lat="44.68797" lon="-0.24469">
        <ele>53.97</ele>
        <time>2017-11-28T12:58:36Z</time>
      </trkpt>
      <trkpt lat="44.68797" lon="-0.24472">
        <ele>53.97</ele>
        <time>2017-11-28T12:58:38Z</time>
      </trkpt>
      <trkpt lat="44.68797" lon="-0.24479">
        <ele>53.97</ele>
        <time>2017-11-28T12:58:43Z</time>
      </trkpt>
      <trkpt lat="44.68795" lon="-0.24499">
        <ele>53.97</ele>
        <time>2017-11-28T12:58:58Z</time>
      </trkpt>
      <trkpt lat="44.68794" lon="-0.24517">
        <ele>53.49</ele>
        <time>2017-11-28T12:59:12Z</time>
      </trkpt>
      <trkpt lat="44.68795" lon="-0.24528">
        <ele>53.97</ele>
        <time>2017-11-28T12:59:24Z</time>
      </trkpt>
      <trkpt lat="44.68796" lon="-0.24537">
        <ele>53.97</ele>
        <time>2017-11-28T12:59:46Z</time>
      </trkpt>
      <trkpt lat="44.68806" lon="-0.24539">
        <ele>52.53</ele>
        <time>2017-11-28T13:00:00Z</time>
      </trkpt>
      <trkpt lat="44.68816" lon="-0.24548">
        <ele>51.09</ele>
        <time>2017-11-28T13:00:16Z</time>
      </trkpt>
      <trkpt lat="44.68819" lon="-0.24559">
        <ele>51.09</ele>
        <time>2017-11-28T13:00:24Z</time>
      </trkpt>
      <trkpt lat="44.68822" lon="-0.2457">
        <ele>51.09</ele>
        <time>2017-11-28T13:00:38Z</time>
      </trkpt>
      <trkpt lat="44.6882" lon="-0.24573">
        <ele>50.61</ele>
        <time>2017-11-28T13:01:03Z</time>
      </trkpt>
      <trkpt lat="44.68823" lon="-0.2458">
        <ele>50.61</ele>
        <time>2017-11-28T13:01:25Z</time>
      </trkpt>
      <trkpt lat="44.68822" lon="-0.24574">
        <ele>50.13</ele>
        <time>2017-11-28T13:01:56Z</time>
      </trkpt>
      <trkpt lat="44.68825" lon="-0.24571">
        <ele>50.13</ele>
        <time>2017-11-28T13:02:27Z</time>
      </trkpt>
      <trkpt lat="44.68828" lon="-0.24581">
        <ele>50.13</ele>
        <time>2017-11-28T13:02:43Z</time>
      </trkpt>
      <trkpt lat="44.68833" lon="-0.24595">
        <ele>49.65</ele>
        <time>2017-11-28T13:02:59Z</time>
      </trkpt>
      <trkpt lat="44.6884" lon="-0.24609">
        <ele>49.16</ele>
        <time>2017-11-28T13:03:14Z</time>
      </trkpt>
      <trkpt lat="44.68833" lon="-0.24626">
        <ele>49.16</ele>
        <time>2017-11-28T13:03:30Z</time>
      </trkpt>
      <trkpt lat="44.68831" lon="-0.24636">
        <ele>49.16</ele>
        <time>2017-11-28T13:03:40Z</time>
      </trkpt>
      <trkpt lat="44.68821" lon="-0.24646">
        <ele>51.57</ele>
        <time>2017-11-28T13:03:55Z</time>
      </trkpt>
      <trkpt lat="44.68812" lon="-0.24653">
        <ele>53.01</ele>
        <time>2017-11-28T13:04:08Z</time>
      </trkpt>
      <trkpt lat="44.68801" lon="-0.24662">
        <ele>53.01</ele>
        <time>2017-11-28T13:04:25Z</time>
      </trkpt>
      <trkpt lat="44.68796" lon="-0.24673">
        <ele>53.49</ele>
        <time>2017-11-28T13:04:41Z</time>
      </trkpt>
      <trkpt lat="44.68791" lon="-0.2468">
        <ele>53.49</ele>
        <time>2017-11-28T13:05:00Z</time>
      </trkpt>
      <trkpt lat="44.68789" lon="-0.24692">
        <ele>53.49</ele>
        <time>2017-11-28T13:05:12Z</time>
      </trkpt>
      <trkpt lat="44.68792" lon="-0.24709">
        <ele>52.05</ele>
        <time>2017-11-28T13:05:26Z</time>
      </trkpt>
      <trkpt lat="44.68803" lon="-0.24719">
        <ele>51.57</ele>
        <time>2017-11-28T13:05:43Z</time>
      </trkpt>
      <trkpt lat="44.68817" lon="-0.24728">
        <ele>50.13</ele>
        <time>2017-11-28T13:06:01Z</time>
      </trkpt>
      <trkpt lat="44.6883" lon="-0.24732">
        <ele>49.65</ele>
        <time>2017-11-28T13:06:16Z</time>
      </trkpt>
      <trkpt lat="44.68843" lon="-0.24736">
        <ele>48.68</ele>
        <time>2017-11-28T13:06:31Z</time>
      </trkpt>
      <trkpt lat="44.68855" lon="-0.24752">
        <ele>47.72</ele>
        <time>2017-11-28T13:06:49Z</time>
      </trkpt>
      <trkpt lat="44.68863" lon="-0.24763">
        <ele>47.72</ele>
        <time>2017-11-28T13:07:01Z</time>
      </trkpt>
      <trkpt lat="44.68869" lon="-0.24784">
        <ele>46.76</ele>
        <time>2017-11-28T13:07:18Z</time>
      </trkpt>
      <trkpt lat="44.68868" lon="-0.24798">
        <ele>47.72</ele>
        <time>2017-11-28T13:07:32Z</time>
      </trkpt>
      <trkpt lat="44.68867" lon="-0.24816">
        <ele>48.2</ele>
        <time>2017-11-28T13:07:46Z</time>
      </trkpt>
      <trkpt lat="44.68874" lon="-0.24835">
        <ele>48.2</ele>
        <time>2017-11-28T13:08:01Z</time>
      </trkpt>
      <trkpt lat="44.68883" lon="-0.2485">
        <ele>47.72</ele>
        <time>2017-11-28T13:08:17Z</time>
      </trkpt>
      <trkpt lat="44.68885" lon="-0.24866">
        <ele>47.72</ele>
        <time>2017-11-28T13:08:30Z</time>
      </trkpt>
      <trkpt lat="44.68886" lon="-0.24881">
        <ele>47.72</ele>
        <time>2017-11-28T13:08:43Z</time>
      </trkpt>
      <trkpt lat="44.68892" lon="-0.24897">
        <ele>47.72</ele>
        <time>2017-11-28T13:08:58Z</time>
      </trkpt>
      <trkpt lat="44.68896" lon="-0.24915">
        <ele>48.2</ele>
        <time>2017-11-28T13:09:13Z</time>
      </trkpt>
      <trkpt lat="44.68898" lon="-0.24924">
        <ele>48.68</ele>
        <time>2017-11-28T13:09:25Z</time>
      </trkpt>
      <trkpt lat="44.68898" lon="-0.24935">
        <ele>49.65</ele>
        <time>2017-11-28T13:09:44Z</time>
      </trkpt>
      <trkpt lat="44.68887" lon="-0.24947">
        <ele>49.65</ele>
        <time>2017-11-28T13:10:07Z</time>
      </trkpt>
      <trkpt lat="44.68877" lon="-0.24959">
        <ele>49.65</ele>
        <time>2017-11-28T13:10:23Z</time>
      </trkpt>
      <trkpt lat="44.68867" lon="-0.2497">
        <ele>49.65</ele>
        <time>2017-11-28T13:10:38Z</time>
      </trkpt>
      <trkpt lat="44.68858" lon="-0.24977">
        <ele>49.16</ele>
        <time>2017-11-28T13:10:53Z</time>
      </trkpt>
      <trkpt lat="44.68851" lon="-0.24984">
        <ele>49.16</ele>
        <time>2017-11-28T13:11:05Z</time>
      </trkpt>
      <trkpt lat="44.68845" lon="-0.2499">
        <ele>49.16</ele>
        <time>2017-11-28T13:11:19Z</time>
      </trkpt>
      <trkpt lat="44.68835" lon="-0.24993">
        <ele>49.65</ele>
        <time>2017-11-28T13:11:34Z</time>
      </trkpt>
      <trkpt lat="44.68824" lon="-0.25003">
        <ele>50.13</ele>
        <time>2017-11-28T13:11:49Z</time>
      </trkpt>
      <trkpt lat="44.68819" lon="-0.25007">
        <ele>50.61</ele>
        <time>2017-11-28T13:11:58Z</time>
      </trkpt>
      <trkpt lat="44.68807" lon="-0.25014">
        <ele>50.61</ele>
        <time>2017-11-28T13:12:12Z</time>
      </trkpt>
      <trkpt lat="44.68795" lon="-0.2502">
        <ele>51.09</ele>
        <time>2017-11-28T13:12:27Z</time>
      </trkpt>
      <trkpt lat="44.68782" lon="-0.25025">
        <ele>52.05</ele>
        <time>2017-11-28T13:12:41Z</time>
      </trkpt>
      <trkpt lat="44.68766" lon="-0.25031">
        <ele>53.01</ele>
        <time>2017-11-28T13:12:57Z</time>
      </trkpt>
      <trkpt lat="44.68754" lon="-0.25038">
        <ele>55.89</ele>
        <time>2017-11-28T13:13:12Z</time>
      </trkpt>
      <trkpt lat="44.68751" lon="-0.25044">
        <ele>55.41</ele>
        <time>2017-11-28T13:13:26Z</time>
      </trkpt>
      <trkpt lat="44.68752" lon="-0.25044">
        <ele>55.89</ele>
        <time>2017-11-28T13:13:51Z</time>
      </trkpt>
      <trkpt lat="44.68751" lon="-0.25046">
        <ele>55.89</ele>
        <time>2017-11-28T13:14:12Z</time>
      </trkpt>
      <trkpt lat="44.68753" lon="-0.25045">
        <ele>55.89</ele>
        <time>2017-11-28T13:14:30Z</time>
      </trkpt>
      <trkpt lat="44.68752" lon="-0.25046">
        <ele>55.89</ele>
        <time>2017-11-28T13:14:54Z</time>
      </trkpt>
      <trkpt lat="44.68753" lon="-0.25049">
        <ele>55.89</ele>
        <time>2017-11-28T13:15:21Z</time>
      </trkpt>
      <trkpt lat="44.68753" lon="-0.25053">
        <ele>55.89</ele>
        <time>2017-11-28T13:15:43Z</time>
      </trkpt>
      <trkpt lat="44.68752" lon="-0.25054">
        <ele>55.89</ele>
        <time>2017-11-28T13:16:10Z</time>
      </trkpt>
      <trkpt lat="44.68752" lon="-0.25052">
        <ele>55.89</ele>
        <time>2017-11-28T13:16:39Z</time>
      </trkpt>
      <trkpt lat="44.68752" lon="-0.25052">
        <ele>55.89</ele>
        <time>2017-11-28T13:16:40Z</time>
      </trkpt>
      <trkpt lat="44.68756" lon="-0.25063">
        <ele>55.89</ele>
        <time>2017-11-28T13:16:49Z</time>
      </trkpt>
      <trkpt lat="44.68764" lon="-0.25088">
        <ele>54.45</ele>
        <time>2017-11-28T13:17:06Z</time>
      </trkpt>
      <trkpt lat="44.68767" lon="-0.25099">
        <ele>53.97</ele>
        <time>2017-11-28T13:17:18Z</time>
      </trkpt>
      <trkpt lat="44.68771" lon="-0.25111">
        <ele>53.97</ele>
        <time>2017-11-28T13:17:28Z</time>
      </trkpt>
      <trkpt lat="44.68772" lon="-0.25115">
        <ele>53.97</ele>
        <time>2017-11-28T13:17:34Z</time>
      </trkpt>
      <trkpt lat="44.68777" lon="-0.25136">
        <ele>53.49</ele>
        <time>2017-11-28T13:17:48Z</time>
      </trkpt>
      <trkpt lat="44.68782" lon="-0.25152">
        <ele>52.53</ele>
        <time>2017-11-28T13:18:02Z</time>
      </trkpt>
      <trkpt lat="44.68786" lon="-0.25167">
        <ele>52.53</ele>
        <time>2017-11-28T13:18:15Z</time>
      </trkpt>
      <trkpt lat="44.68793" lon="-0.25192">
        <ele>52.05</ele>
        <time>2017-11-28T13:18:33Z</time>
      </trkpt>
      <trkpt lat="44.68798" lon="-0.2521">
        <ele>51.09</ele>
        <time>2017-11-28T13:18:46Z</time>
      </trkpt>
      <trkpt lat="44.68799" lon="-0.25212">
        <ele>51.09</ele>
        <time>2017-11-28T13:18:48Z</time>
      </trkpt>
      <trkpt lat="44.68809" lon="-0.25244">
        <ele>50.13</ele>
        <time>2017-11-28T13:19:07Z</time>
      </trkpt>
      <trkpt lat="44.68817" lon="-0.25269">
        <ele>49.16</ele>
        <time>2017-11-28T13:19:22Z</time>
      </trkpt>
      <trkpt lat="44.68821" lon="-0.25283">
        <ele>49.16</ele>
        <time>2017-11-28T13:19:31Z</time>
      </trkpt>
      <trkpt lat="44.68824" lon="-0.25293">
        <ele>49.16</ele>
        <time>2017-11-28T13:19:38Z</time>
      </trkpt>
      <trkpt lat="44.68831" lon="-0.2532">
        <ele>49.16</ele>
        <time>2017-11-28T13:19:55Z</time>
      </trkpt>
      <trkpt lat="44.68839" lon="-0.25346">
        <ele>49.16</ele>
        <time>2017-11-28T13:20:12Z</time>
      </trkpt>
      <trkpt lat="44.68847" lon="-0.25371">
        <ele>48.68</ele>
        <time>2017-11-28T13:20:29Z</time>
      </trkpt>
      <trkpt lat="44.68856" lon="-0.25398">
        <ele>48.68</ele>
        <time>2017-11-28T13:20:47Z</time>
      </trkpt>
      <trkpt lat="44.68863" lon="-0.25421">
        <ele>48.68</ele>
        <time>2017-11-28T13:21:01Z</time>
      </trkpt>
      <trkpt lat="44.68874" lon="-0.2545">
        <ele>48.68</ele>
        <time>2017-11-28T13:21:20Z</time>
      </trkpt>
      <trkpt lat="44.68878" lon="-0.25462">
        <ele>48.68</ele>
        <time>2017-11-28T13:21:28Z</time>
      </trkpt>
      <trkpt lat="44.68887" lon="-0.25485">
        <ele>48.2</ele>
        <time>2017-11-28T13:21:43Z</time>
      </trkpt>
      <trkpt lat="44.68896" lon="-0.25504">
        <ele>48.2</ele>
        <time>2017-11-28T13:21:55Z</time>
      </trkpt>
      <trkpt lat="44.68907" lon="-0.2553">
        <ele>46.76</ele>
        <time>2017-11-28T13:22:13Z</time>
      </trkpt>
      <trkpt lat="44.68915" lon="-0.25551">
        <ele>45.8</ele>
        <time>2017-11-28T13:22:27Z</time>
      </trkpt>
      <trkpt lat="44.68928" lon="-0.25579">
        <ele>45.32</ele>
        <time>2017-11-28T13:22:46Z</time>
      </trkpt>
      <trkpt lat="44.68939" lon="-0.25602">
        <ele>44.84</ele>
        <time>2017-11-28T13:23:02Z</time>
      </trkpt>
      <trkpt lat="44.68951" lon="-0.25623">
        <ele>44.84</ele>
        <time>2017-11-28T13:23:19Z</time>
      </trkpt>
      <trkpt lat="44.68961" lon="-0.25645">
        <ele>44.84</ele>
        <time>2017-11-28T13:23:34Z</time>
      </trkpt>
      <trkpt lat="44.68964" lon="-0.25653">
        <ele>44.36</ele>
        <time>2017-11-28T13:23:39Z</time>
      </trkpt>
      <trkpt lat="44.68978" lon="-0.25676">
        <ele>44.36</ele>
        <time>2017-11-28T13:23:57Z</time>
      </trkpt>
      <trkpt lat="44.68988" lon="-0.257">
        <ele>43.4</ele>
        <time>2017-11-28T13:24:14Z</time>
      </trkpt>
      <trkpt lat="44.68999" lon="-0.2573">
        <ele>42.92</ele>
        <time>2017-11-28T13:24:33Z</time>
      </trkpt>
      <trkpt lat="44.69007" lon="-0.25756">
        <ele>42.44</ele>
        <time>2017-11-28T13:24:49Z</time>
      </trkpt>
      <trkpt lat="44.69016" lon="-0.25776">
        <ele>41.47</ele>
        <time>2017-11-28T13:25:05Z</time>
      </trkpt>
      <trkpt lat="44.69019" lon="-0.25782">
        <ele>41.95</ele>
        <time>2017-11-28T13:25:10Z</time>
      </trkpt>
      <trkpt lat="44.69026" lon="-0.25799">
        <ele>41.47</ele>
        <time>2017-11-28T13:25:23Z</time>
      </trkpt>
      <trkpt lat="44.69032" lon="-0.25814">
        <ele>40.51</ele>
        <time>2017-11-28T13:25:37Z</time>
      </trkpt>
      <trkpt lat="44.69034" lon="-0.25819">
        <ele>40.03</ele>
        <time>2017-11-28T13:25:50Z</time>
      </trkpt>
      <trkpt lat="44.69032" lon="-0.2582">
        <ele>40.03</ele>
        <time>2017-11-28T13:26:08Z</time>
      </trkpt>
      <trkpt lat="44.69033" lon="-0.25817">
        <ele>40.03</ele>
        <time>2017-11-28T13:26:26Z</time>
      </trkpt>
      <trkpt lat="44.69034" lon="-0.25808">
        <ele>40.03</ele>
        <time>2017-11-28T13:26:35Z</time>
      </trkpt>
      <trkpt lat="44.69046" lon="-0.25796">
        <ele>40.03</ele>
        <time>2017-11-28T13:26:49Z</time>
      </trkpt>
      <trkpt lat="44.69055" lon="-0.25785">
        <ele>40.03</ele>
        <time>2017-11-28T13:27:00Z</time>
      </trkpt>
      <trkpt lat="44.69056" lon="-0.25785">
        <ele>40.03</ele>
        <time>2017-11-28T13:27:01Z</time>
      </trkpt>
      <trkpt lat="44.69068" lon="-0.25772">
        <ele>40.03</ele>
        <time>2017-11-28T13:27:15Z</time>
      </trkpt>
      <trkpt lat="44.6908" lon="-0.2576">
        <ele>39.55</ele>
        <time>2017-11-28T13:27:29Z</time>
      </trkpt>
      <trkpt lat="44.6909" lon="-0.2575">
        <ele>39.55</ele>
        <time>2017-11-28T13:27:41Z</time>
      </trkpt>
      <trkpt lat="44.69097" lon="-0.25743">
        <ele>39.55</ele>
        <time>2017-11-28T13:27:50Z</time>
      </trkpt>
      <trkpt lat="44.69108" lon="-0.25734">
        <ele>39.55</ele>
        <time>2017-11-28T13:28:02Z</time>
      </trkpt>
      <trkpt lat="44.69122" lon="-0.25727">
        <ele>39.55</ele>
        <time>2017-11-28T13:28:16Z</time>
      </trkpt>
      <trkpt lat="44.69126" lon="-0.25727">
        <ele>39.55</ele>
        <time>2017-11-28T13:28:24Z</time>
      </trkpt>
      <trkpt lat="44.6913" lon="-0.25725">
        <ele>39.55</ele>
        <time>2017-11-28T13:28:29Z</time>
      </trkpt>
      <trkpt lat="44.69134" lon="-0.25728">
        <ele>39.55</ele>
        <time>2017-11-28T13:28:34Z</time>
      </trkpt>
      <trkpt lat="44.69143" lon="-0.2574">
        <ele>39.55</ele>
        <time>2017-11-28T13:28:48Z</time>
      </trkpt>
      <trkpt lat="44.69148" lon="-0.25739">
        <ele>39.55</ele>
        <time>2017-11-28T13:28:57Z</time>
      </trkpt>
      <trkpt lat="44.69148" lon="-0.25739">
        <ele>39.55</ele>
        <time>2017-11-28T13:29:03Z</time>
      </trkpt>
      <trkpt lat="44.69153" lon="-0.25739">
        <ele>39.55</ele>
        <time>2017-11-28T13:29:07Z</time>
      </trkpt>
      <trkpt lat="44.69178" lon="-0.25737">
        <ele>39.07</ele>
        <time>2017-11-28T13:29:28Z</time>
      </trkpt>
      <trkpt lat="44.69203" lon="-0.25737">
        <ele>39.07</ele>
        <time>2017-11-28T13:29:49Z</time>
      </trkpt>
      <trkpt lat="44.69222" lon="-0.25741">
        <ele>39.07</ele>
        <time>2017-11-28T13:30:08Z</time>
      </trkpt>
      <trkpt lat="44.69248" lon="-0.25747">
        <ele>39.07</ele>
        <time>2017-11-28T13:30:25Z</time>
      </trkpt>
      <trkpt lat="44.69267" lon="-0.25754">
        <ele>38.59</ele>
        <time>2017-11-28T13:30:42Z</time>
      </trkpt>
      <trkpt lat="44.69293" lon="-0.25762">
        <ele>38.59</ele>
        <time>2017-11-28T13:31:02Z</time>
      </trkpt>
      <trkpt lat="44.69314" lon="-0.25767">
        <ele>38.11</ele>
        <time>2017-11-28T13:31:18Z</time>
      </trkpt>
      <trkpt lat="44.69321" lon="-0.2577">
        <ele>38.11</ele>
        <time>2017-11-28T13:31:27Z</time>
      </trkpt>
      <trkpt lat="44.69343" lon="-0.25779">
        <ele>38.11</ele>
        <time>2017-11-28T13:31:45Z</time>
      </trkpt>
      <trkpt lat="44.69351" lon="-0.25783">
        <ele>38.11</ele>
        <time>2017-11-28T13:31:55Z</time>
      </trkpt>
      <trkpt lat="44.69375" lon="-0.2579">
        <ele>38.11</ele>
        <time>2017-11-28T13:32:14Z</time>
      </trkpt>
      <trkpt lat="44.69403" lon="-0.258">
        <ele>38.11</ele>
        <time>2017-11-28T13:32:39Z</time>
      </trkpt>
      <trkpt lat="44.69427" lon="-0.25806">
        <ele>38.11</ele>
        <time>2017-11-28T13:33:00Z</time>
      </trkpt>
      <trkpt lat="44.69459" lon="-0.25811">
        <ele>38.11</ele>
        <time>2017-11-28T13:33:23Z</time>
      </trkpt>
      <trkpt lat="44.69482" lon="-0.25808">
        <ele>39.55</ele>
        <time>2017-11-28T13:33:42Z</time>
      </trkpt>
      <trkpt lat="44.69492" lon="-0.25807">
        <ele>39.55</ele>
        <time>2017-11-28T13:33:55Z</time>
      </trkpt>
      <trkpt lat="44.69504" lon="-0.258">
        <ele>39.55</ele>
        <time>2017-11-28T13:34:07Z</time>
      </trkpt>
      <trkpt lat="44.69524" lon="-0.25791">
        <ele>40.51</ele>
        <time>2017-11-28T13:34:24Z</time>
      </trkpt>
      <trkpt lat="44.69542" lon="-0.25784">
        <ele>39.07</ele>
        <time>2017-11-28T13:34:42Z</time>
      </trkpt>
      <trkpt lat="44.69565" lon="-0.25775">
        <ele>39.07</ele>
        <time>2017-11-28T13:35:02Z</time>
      </trkpt>
      <trkpt lat="44.69578" lon="-0.2577">
        <ele>39.07</ele>
        <time>2017-11-28T13:35:15Z</time>
      </trkpt>
      <trkpt lat="44.69599" lon="-0.2576">
        <ele>38.59</ele>
        <time>2017-11-28T13:35:35Z</time>
      </trkpt>
      <trkpt lat="44.69626" lon="-0.2575">
        <ele>38.11</ele>
        <time>2017-11-28T13:35:59Z</time>
      </trkpt>
      <trkpt lat="44.69644" lon="-0.25739">
        <ele>38.11</ele>
        <time>2017-11-28T13:36:14Z</time>
      </trkpt>
      <trkpt lat="44.69646" lon="-0.25732">
        <ele>39.55</ele>
        <time>2017-11-28T13:36:18Z</time>
      </trkpt>
      <trkpt lat="44.69648" lon="-0.25722">
        <ele>39.55</ele>
        <time>2017-11-28T13:36:25Z</time>
      </trkpt>
      <trkpt lat="44.69647" lon="-0.25689">
        <ele>40.03</ele>
        <time>2017-11-28T13:36:45Z</time>
      </trkpt>
      <trkpt lat="44.69647" lon="-0.25654">
        <ele>41.95</ele>
        <time>2017-11-28T13:37:06Z</time>
      </trkpt>
      <trkpt lat="44.69651" lon="-0.25621">
        <ele>41.95</ele>
        <time>2017-11-28T13:37:26Z</time>
      </trkpt>
      <trkpt lat="44.69669" lon="-0.25596">
        <ele>42.44</ele>
        <time>2017-11-28T13:37:47Z</time>
      </trkpt>
      <trkpt lat="44.69693" lon="-0.25568">
        <ele>42.92</ele>
        <time>2017-11-28T13:38:14Z</time>
      </trkpt>
      <trkpt lat="44.69702" lon="-0.25554">
        <ele>43.4</ele>
        <time>2017-11-28T13:38:32Z</time>
      </trkpt>
      <trkpt lat="44.69701" lon="-0.25557">
        <ele>43.4</ele>
        <time>2017-11-28T13:38:51Z</time>
      </trkpt>
      <trkpt lat="44.69717" lon="-0.25536">
        <ele>43.88</ele>
        <time>2017-11-28T13:39:09Z</time>
      </trkpt>
      <trkpt lat="44.69729" lon="-0.25525">
        <ele>43.88</ele>
        <time>2017-11-28T13:39:22Z</time>
      </trkpt>
      <trkpt lat="44.69741" lon="-0.25522">
        <ele>43.88</ele>
        <time>2017-11-28T13:39:34Z</time>
      </trkpt>
      <trkpt lat="44.69742" lon="-0.25522">
        <ele>43.88</ele>
        <time>2017-11-28T13:39:35Z</time>
      </trkpt>
      <trkpt lat="44.6976" lon="-0.25522">
        <ele>44.36</ele>
        <time>2017-11-28T13:39:52Z</time>
      </trkpt>
      <trkpt lat="44.69768" lon="-0.25523">
        <ele>44.36</ele>
        <time>2017-11-28T13:40:01Z</time>
      </trkpt>
      <trkpt lat="44.69787" lon="-0.25522">
        <ele>44.36</ele>
        <time>2017-11-28T13:40:20Z</time>
      </trkpt>
      <trkpt lat="44.69796" lon="-0.2552">
        <ele>45.8</ele>
        <time>2017-11-28T13:40:28Z</time>
      </trkpt>
      <trkpt lat="44.69811" lon="-0.25518">
        <ele>45.8</ele>
        <time>2017-11-28T13:40:41Z</time>
      </trkpt>
      <trkpt lat="44.69828" lon="-0.25516">
        <ele>46.28</ele>
        <time>2017-11-28T13:40:55Z</time>
      </trkpt>
      <trkpt lat="44.69844" lon="-0.25513">
        <ele>46.76</ele>
        <time>2017-11-28T13:41:10Z</time>
      </trkpt>
      <trkpt lat="44.69862" lon="-0.25511">
        <ele>47.24</ele>
        <time>2017-11-28T13:41:25Z</time>
      </trkpt>
      <trkpt lat="44.69877" lon="-0.25509">
        <ele>48.2</ele>
        <time>2017-11-28T13:41:40Z</time>
      </trkpt>
      <trkpt lat="44.69897" lon="-0.25506">
        <ele>48.2</ele>
        <time>2017-11-28T13:41:57Z</time>
      </trkpt>
      <trkpt lat="44.69917" lon="-0.25503">
        <ele>49.16</ele>
        <time>2017-11-28T13:42:14Z</time>
      </trkpt>
      <trkpt lat="44.69933" lon="-0.25502">
        <ele>49.65</ele>
        <time>2017-11-28T13:42:28Z</time>
      </trkpt>
      <trkpt lat="44.69939" lon="-0.25502">
        <ele>50.13</ele>
        <time>2017-11-28T13:42:33Z</time>
      </trkpt>
      <trkpt lat="44.69959" lon="-0.25499">
        <ele>51.57</ele>
        <time>2017-11-28T13:42:51Z</time>
      </trkpt>
      <trkpt lat="44.69967" lon="-0.25491">
        <ele>51.57</ele>
        <time>2017-11-28T13:43:00Z</time>
      </trkpt>
      <trkpt lat="44.69971" lon="-0.25465">
        <ele>52.05</ele>
        <time>2017-11-28T13:43:17Z</time>
      </trkpt>
      <trkpt lat="44.69974" lon="-0.25443">
        <ele>52.05</ele>
        <time>2017-11-28T13:43:32Z</time>
      </trkpt>
      <trkpt lat="44.69977" lon="-0.25415">
        <ele>52.05</ele>
        <time>2017-11-28T13:43:50Z</time>
      </trkpt>
      <trkpt lat="44.6998" lon="-0.25383">
        <ele>51.09</ele>
        <time>2017-11-28T13:44:09Z</time>
      </trkpt>
      <trkpt lat="44.69982" lon="-0.25356">
        <ele>51.09</ele>
        <time>2017-11-28T13:44:27Z</time>
      </trkpt>
      <trkpt lat="44.69982" lon="-0.25349">
        <ele>51.09</ele>
        <time>2017-11-28T13:44:32Z</time>
      </trkpt>
      <trkpt lat="44.69985" lon="-0.25326">
        <ele>50.61</ele>
        <time>2017-11-28T13:44:47Z</time>
      </trkpt>
      <trkpt lat="44.69987" lon="-0.25324">
        <ele>50.61</ele>
        <time>2017-11-28T13:44:50Z</time>
      </trkpt>
      <trkpt lat="44.7001" lon="-0.25313">
        <ele>50.61</ele>
        <time>2017-11-28T13:45:10Z</time>
      </trkpt>
      <trkpt lat="44.70032" lon="-0.25306">
        <ele>51.57</ele>
        <time>2017-11-28T13:45:30Z</time>
      </trkpt>
      <trkpt lat="44.70052" lon="-0.25298">
        <ele>52.53</ele>
        <time>2017-11-28T13:45:48Z</time>
      </trkpt>
      <trkpt lat="44.70071" lon="-0.25291">
        <ele>53.01</ele>
        <time>2017-11-28T13:46:05Z</time>
      </trkpt>
      <trkpt lat="44.70091" lon="-0.25283">
        <ele>53.97</ele>
        <time>2017-11-28T13:46:23Z</time>
      </trkpt>
      <trkpt lat="44.7011" lon="-0.25275">
        <ele>54.93</ele>
        <time>2017-11-28T13:46:41Z</time>
      </trkpt>
      <trkpt lat="44.70126" lon="-0.2527">
        <ele>55.41</ele>
        <time>2017-11-28T13:46:56Z</time>
      </trkpt>
      <trkpt lat="44.70143" lon="-0.25265">
        <ele>56.37</ele>
        <time>2017-11-28T13:47:11Z</time>
      </trkpt>
      <trkpt lat="44.70162" lon="-0.2526">
        <ele>56.86</ele>
        <time>2017-11-28T13:47:29Z</time>
      </trkpt>
      <trkpt lat="44.70177" lon="-0.2526">
        <ele>57.34</ele>
        <time>2017-11-28T13:47:44Z</time>
      </trkpt>
      <trkpt lat="44.70188" lon="-0.25265">
        <ele>58.3</ele>
        <time>2017-11-28T13:47:56Z</time>
      </trkpt>
      <trkpt lat="44.702" lon="-0.2527">
        <ele>59.26</ele>
        <time>2017-11-28T13:48:13Z</time>
      </trkpt>
      <trkpt lat="44.702" lon="-0.2527">
        <ele>59.26</ele>
        <time>2017-11-28T13:48:33Z</time>
      </trkpt>
      <trkpt lat="44.70198" lon="-0.25269">
        <ele>59.26</ele>
        <time>2017-11-28T13:49:00Z</time>
      </trkpt>
      <trkpt lat="44.702" lon="-0.25273">
        <ele>59.26</ele>
        <time>2017-11-28T13:49:28Z</time>
      </trkpt>
      <trkpt lat="44.70199" lon="-0.25271">
        <ele>59.26</ele>
        <time>2017-11-28T13:49:53Z</time>
      </trkpt>
      <trkpt lat="44.702" lon="-0.25274">
        <ele>59.26</ele>
        <time>2017-11-28T13:50:19Z</time>
      </trkpt>
      <trkpt lat="44.702" lon="-0.25274">
        <ele>59.26</ele>
        <time>2017-11-28T13:50:41Z</time>
      </trkpt>
      <trkpt lat="44.702" lon="-0.25273">
        <ele>59.26</ele>
        <time>2017-11-28T13:51:08Z</time>
      </trkpt>
      <trkpt lat="44.70199" lon="-0.25272">
        <ele>58.78</ele>
        <time>2017-11-28T13:51:46Z</time>
      </trkpt>
      <trkpt lat="44.70201" lon="-0.25272">
        <ele>58.78</ele>
        <time>2017-11-28T13:52:08Z</time>
      </trkpt>
      <trkpt lat="44.70195" lon="-0.25262">
        <ele>58.78</ele>
        <time>2017-11-28T13:52:23Z</time>
      </trkpt>
      <trkpt lat="44.70198" lon="-0.25252">
        <ele>58.78</ele>
        <time>2017-11-28T13:52:37Z</time>
      </trkpt>
      <trkpt lat="44.70205" lon="-0.25243">
        <ele>58.78</ele>
        <time>2017-11-28T13:52:46Z</time>
      </trkpt>
      <trkpt lat="44.70204" lon="-0.25233">
        <ele>57.82</ele>
        <time>2017-11-28T13:52:53Z</time>
      </trkpt>
      <trkpt lat="44.70201" lon="-0.2523">
        <ele>57.82</ele>
        <time>2017-11-28T13:53:05Z</time>
      </trkpt>
      <trkpt lat="44.70197" lon="-0.25215">
        <ele>57.34</ele>
        <time>2017-11-28T13:53:23Z</time>
      </trkpt>
      <trkpt lat="44.7019" lon="-0.25196">
        <ele>56.86</ele>
        <time>2017-11-28T13:53:38Z</time>
      </trkpt>
      <trkpt lat="44.70182" lon="-0.25179">
        <ele>56.37</ele>
        <time>2017-11-28T13:53:52Z</time>
      </trkpt>
      <trkpt lat="44.70171" lon="-0.25158">
        <ele>55.41</ele>
        <time>2017-11-28T13:54:08Z</time>
      </trkpt>
      <trkpt lat="44.70168" lon="-0.25152">
        <ele>55.41</ele>
        <time>2017-11-28T13:54:13Z</time>
      </trkpt>
      <trkpt lat="44.70168" lon="-0.2515">
        <ele>55.41</ele>
        <time>2017-11-28T13:54:15Z</time>
      </trkpt>
      <trkpt lat="44.70156" lon="-0.25127">
        <ele>54.93</ele>
        <time>2017-11-28T13:54:33Z</time>
      </trkpt>
      <trkpt lat="44.7015" lon="-0.2511">
        <ele>54.93</ele>
        <time>2017-11-28T13:54:47Z</time>
      </trkpt>
      <trkpt lat="44.70142" lon="-0.25092">
        <ele>54.93</ele>
        <time>2017-11-28T13:55:01Z</time>
      </trkpt>
      <trkpt lat="44.70138" lon="-0.25088">
        <ele>54.93</ele>
        <time>2017-11-28T13:55:06Z</time>
      </trkpt>
      <trkpt lat="44.70136" lon="-0.25082">
        <ele>54.93</ele>
        <time>2017-11-28T13:55:10Z</time>
      </trkpt>
      <trkpt lat="44.70133" lon="-0.25063">
        <ele>55.89</ele>
        <time>2017-11-28T13:55:23Z</time>
      </trkpt>
      <trkpt lat="44.70122" lon="-0.25042">
        <ele>55.89</ele>
        <time>2017-11-28T13:55:39Z</time>
      </trkpt>
      <trkpt lat="44.70113" lon="-0.2502">
        <ele>56.86</ele>
        <time>2017-11-28T13:55:55Z</time>
      </trkpt>
      <trkpt lat="44.70105" lon="-0.24993">
        <ele>56.37</ele>
        <time>2017-11-28T13:56:13Z</time>
      </trkpt>
      <trkpt lat="44.70104" lon="-0.24987">
        <ele>56.37</ele>
        <time>2017-11-28T13:56:16Z</time>
      </trkpt>
      <trkpt lat="44.701" lon="-0.2497">
        <ele>56.37</ele>
        <time>2017-11-28T13:56:27Z</time>
      </trkpt>
      <trkpt lat="44.701" lon="-0.24966">
        <ele>56.37</ele>
        <time>2017-11-28T13:56:30Z</time>
      </trkpt>
      <trkpt lat="44.70094" lon="-0.24945">
        <ele>56.37</ele>
        <time>2017-11-28T13:56:46Z</time>
      </trkpt>
      <trkpt lat="44.70092" lon="-0.24938">
        <ele>55.41</ele>
        <time>2017-11-28T13:56:53Z</time>
      </trkpt>
      <trkpt lat="44.70089" lon="-0.24912">
        <ele>54.93</ele>
        <time>2017-11-28T13:57:09Z</time>
      </trkpt>
      <trkpt lat="44.70086" lon="-0.24881">
        <ele>53.97</ele>
        <time>2017-11-28T13:57:27Z</time>
      </trkpt>
      <trkpt lat="44.70083" lon="-0.24868">
        <ele>53.01</ele>
        <time>2017-11-28T13:57:37Z</time>
      </trkpt>
      <trkpt lat="44.70077" lon="-0.24868">
        <ele>52.53</ele>
        <time>2017-11-28T13:57:44Z</time>
      </trkpt>
      <trkpt lat="44.7007" lon="-0.24868">
        <ele>52.53</ele>
        <time>2017-11-28T13:57:50Z</time>
      </trkpt>
      <trkpt lat="44.70063" lon="-0.24868">
        <ele>51.57</ele>
        <time>2017-11-28T13:57:57Z</time>
      </trkpt>
      <trkpt lat="44.70058" lon="-0.24867">
        <ele>51.09</ele>
        <time>2017-11-28T13:58:01Z</time>
      </trkpt>
      <trkpt lat="44.70033" lon="-0.24867">
        <ele>49.65</ele>
        <time>2017-11-28T13:58:21Z</time>
      </trkpt>
      <trkpt lat="44.7001" lon="-0.24864">
        <ele>48.2</ele>
        <time>2017-11-28T13:58:40Z</time>
      </trkpt>
      <trkpt lat="44.70007" lon="-0.24864">
        <ele>48.2</ele>
        <time>2017-11-28T13:58:43Z</time>
      </trkpt>
      <trkpt lat="44.70002" lon="-0.24862">
        <ele>48.2</ele>
        <time>2017-11-28T13:58:47Z</time>
      </trkpt>
      <trkpt lat="44.69977" lon="-0.24856">
        <ele>46.76</ele>
        <time>2017-11-28T13:59:07Z</time>
      </trkpt>
      <trkpt lat="44.69962" lon="-0.24845">
        <ele>45.32</ele>
        <time>2017-11-28T13:59:22Z</time>
      </trkpt>
      <trkpt lat="44.69947" lon="-0.24839">
        <ele>44.36</ele>
        <time>2017-11-28T13:59:37Z</time>
      </trkpt>
      <trkpt lat="44.69945" lon="-0.24815">
        <ele>43.88</ele>
        <time>2017-11-28T13:59:52Z</time>
      </trkpt>
      <trkpt lat="44.69944" lon="-0.24795">
        <ele>43.88</ele>
        <time>2017-11-28T14:00:05Z</time>
      </trkpt>
      <trkpt lat="44.69943" lon="-0.24771">
        <ele>43.88</ele>
        <time>2017-11-28T14:00:20Z</time>
      </trkpt>
      <trkpt lat="44.6994" lon="-0.24748">
        <ele>43.88</ele>
        <time>2017-11-28T14:00:34Z</time>
      </trkpt>
      <trkpt lat="44.69939" lon="-0.24731">
        <ele>43.88</ele>
        <time>2017-11-28T14:00:46Z</time>
      </trkpt>
      <trkpt lat="44.69932" lon="-0.24712">
        <ele>43.4</ele>
        <time>2017-11-28T14:01:01Z</time>
      </trkpt>
      <trkpt lat="44.69924" lon="-0.24705">
        <ele>42.44</ele>
        <time>2017-11-28T14:01:09Z</time>
      </trkpt>
      <trkpt lat="44.69923" lon="-0.24698">
        <ele>42.44</ele>
        <time>2017-11-28T14:01:15Z</time>
      </trkpt>
      <trkpt lat="44.69921" lon="-0.24696">
        <ele>42.44</ele>
        <time>2017-11-28T14:01:17Z</time>
      </trkpt>
      <trkpt lat="44.69918" lon="-0.24673">
        <ele>41.95</ele>
        <time>2017-11-28T14:01:33Z</time>
      </trkpt>
      <trkpt lat="44.69918" lon="-0.2465">
        <ele>41.95</ele>
        <time>2017-11-28T14:01:47Z</time>
      </trkpt>
      <trkpt lat="44.69918" lon="-0.2463">
        <ele>43.4</ele>
        <time>2017-11-28T14:02:00Z</time>
      </trkpt>
      <trkpt lat="44.69918" lon="-0.24606">
        <ele>43.4</ele>
        <time>2017-11-28T14:02:15Z</time>
      </trkpt>
      <trkpt lat="44.69921" lon="-0.24586">
        <ele>43.4</ele>
        <time>2017-11-28T14:02:28Z</time>
      </trkpt>
      <trkpt lat="44.6992" lon="-0.24563">
        <ele>43.88</ele>
        <time>2017-11-28T14:02:43Z</time>
      </trkpt>
      <trkpt lat="44.69921" lon="-0.24543">
        <ele>43.88</ele>
        <time>2017-11-28T14:02:57Z</time>
      </trkpt>
      <trkpt lat="44.69927" lon="-0.24532">
        <ele>44.36</ele>
        <time>2017-11-28T14:03:11Z</time>
      </trkpt>
      <trkpt lat="44.69942" lon="-0.2453">
        <ele>45.32</ele>
        <time>2017-11-28T14:03:24Z</time>
      </trkpt>
      <trkpt lat="44.6996" lon="-0.24528">
        <ele>46.28</ele>
        <time>2017-11-28T14:03:40Z</time>
      </trkpt>
      <trkpt lat="44.69974" lon="-0.24517">
        <ele>46.76</ele>
        <time>2017-11-28T14:03:56Z</time>
      </trkpt>
      <trkpt lat="44.69979" lon="-0.24493">
        <ele>46.76</ele>
        <time>2017-11-28T14:04:11Z</time>
      </trkpt>
      <trkpt lat="44.69981" lon="-0.24478">
        <ele>47.24</ele>
        <time>2017-11-28T14:04:22Z</time>
      </trkpt>
      <trkpt lat="44.69982" lon="-0.24445">
        <ele>46.28</ele>
        <time>2017-11-28T14:04:40Z</time>
      </trkpt>
      <trkpt lat="44.69983" lon="-0.24407">
        <ele>44.36</ele>
        <time>2017-11-28T14:05:01Z</time>
      </trkpt>
      <trkpt lat="44.69985" lon="-0.24381">
        <ele>43.4</ele>
        <time>2017-11-28T14:05:16Z</time>
      </trkpt>
      <trkpt lat="44.69996" lon="-0.24384">
        <ele>42.92</ele>
        <time>2017-11-28T14:05:27Z</time>
      </trkpt>
      <trkpt lat="44.70019" lon="-0.24393">
        <ele>42.92</ele>
        <time>2017-11-28T14:05:49Z</time>
      </trkpt>
      <trkpt lat="44.70019" lon="-0.24405">
        <ele>45.8</ele>
        <time>2017-11-28T14:06:04Z</time>
      </trkpt>
      <trkpt lat="44.70019" lon="-0.24406">
        <ele>46.28</ele>
        <time>2017-11-28T14:06:06Z</time>
      </trkpt>
      <trkpt lat="44.70011" lon="-0.24422">
        <ele>47.72</ele>
        <time>2017-11-28T14:06:21Z</time>
      </trkpt>
      <trkpt lat="44.7001" lon="-0.24424">
        <ele>47.72</ele>
        <time>2017-11-28T14:06:23Z</time>
      </trkpt>
      <trkpt lat="44.70006" lon="-0.24443">
        <ele>48.2</ele>
        <time>2017-11-28T14:06:38Z</time>
      </trkpt>
      <trkpt lat="44.70012" lon="-0.24451">
        <ele>48.2</ele>
        <time>2017-11-28T14:06:52Z</time>
      </trkpt>
      <trkpt lat="44.70013" lon="-0.24451">
        <ele>48.68</ele>
        <time>2017-11-28T14:07:07Z</time>
      </trkpt>
      <trkpt lat="44.70013" lon="-0.24453">
        <ele>48.68</ele>
        <time>2017-11-28T14:07:27Z</time>
      </trkpt>
      <trkpt lat="44.70012" lon="-0.24455">
        <ele>48.68</ele>
        <time>2017-11-28T14:07:54Z</time>
      </trkpt>
      <trkpt lat="44.70012" lon="-0.24454">
        <ele>48.68</ele>
        <time>2017-11-28T14:08:19Z</time>
      </trkpt>
      <trkpt lat="44.70015" lon="-0.2445">
        <ele>48.68</ele>
        <time>2017-11-28T14:08:38Z</time>
      </trkpt>
      <trkpt lat="44.70015" lon="-0.24452">
        <ele>48.68</ele>
        <time>2017-11-28T14:08:50Z</time>
      </trkpt>
      <trkpt lat="44.70015" lon="-0.24451">
        <ele>48.68</ele>
        <time>2017-11-28T14:09:07Z</time>
      </trkpt>
      <trkpt lat="44.70014" lon="-0.24451">
        <ele>48.2</ele>
        <time>2017-11-28T14:09:32Z</time>
      </trkpt>
      <trkpt lat="44.70012" lon="-0.24452">
        <ele>48.2</ele>
        <time>2017-11-28T14:09:56Z</time>
      </trkpt>
      <trkpt lat="44.70005" lon="-0.24447">
        <ele>48.2</ele>
        <time>2017-11-28T14:10:11Z</time>
      </trkpt>
      <trkpt lat="44.70005" lon="-0.24446">
        <ele>48.2</ele>
        <time>2017-11-28T14:10:27Z</time>
      </trkpt>
      <trkpt lat="44.70006" lon="-0.24442">
        <ele>48.2</ele>
        <time>2017-11-28T14:10:34Z</time>
      </trkpt>
      <trkpt lat="44.70006" lon="-0.24438">
        <ele>48.2</ele>
        <time>2017-11-28T14:10:37Z</time>
      </trkpt>
      <trkpt lat="44.70007" lon="-0.24427">
        <ele>48.2</ele>
        <time>2017-11-28T14:10:53Z</time>
      </trkpt>
      <trkpt lat="44.70013" lon="-0.2442">
        <ele>48.2</ele>
        <time>2017-11-28T14:11:09Z</time>
      </trkpt>
      <trkpt lat="44.70013" lon="-0.24422">
        <ele>47.72</ele>
        <time>2017-11-28T14:11:26Z</time>
      </trkpt>
      <trkpt lat="44.70008" lon="-0.24434">
        <ele>47.72</ele>
        <time>2017-11-28T14:11:41Z</time>
      </trkpt>
      <trkpt lat="44.70009" lon="-0.24449">
        <ele>47.72</ele>
        <time>2017-11-28T14:11:57Z</time>
      </trkpt>
      <trkpt lat="44.7001" lon="-0.24449">
        <ele>47.72</ele>
        <time>2017-11-28T14:12:15Z</time>
      </trkpt>
      <trkpt lat="44.70009" lon="-0.2445">
        <ele>48.68</ele>
        <time>2017-11-28T14:12:37Z</time>
      </trkpt>
      <trkpt lat="44.70009" lon="-0.24449">
        <ele>48.68</ele>
        <time>2017-11-28T14:12:51Z</time>
      </trkpt>
      <trkpt lat="44.70006" lon="-0.24448">
        <ele>48.68</ele>
        <time>2017-11-28T14:13:11Z</time>
      </trkpt>
      <trkpt lat="44.70002" lon="-0.24439">
        <ele>48.68</ele>
        <time>2017-11-28T14:13:27Z</time>
      </trkpt>
      <trkpt lat="44.70001" lon="-0.24432">
        <ele>48.68</ele>
        <time>2017-11-28T14:13:42Z</time>
      </trkpt>
      <trkpt lat="44.70008" lon="-0.24428">
        <ele>48.68</ele>
        <time>2017-11-28T14:13:55Z</time>
      </trkpt>
      <trkpt lat="44.70014" lon="-0.2442">
        <ele>48.68</ele>
        <time>2017-11-28T14:14:10Z</time>
      </trkpt>
      <trkpt lat="44.70015" lon="-0.24418">
        <ele>48.2</ele>
        <time>2017-11-28T14:14:28Z</time>
      </trkpt>
      <trkpt lat="44.70019" lon="-0.24411">
        <ele>47.24</ele>
        <time>2017-11-28T14:14:43Z</time>
      </trkpt>
      <trkpt lat="44.70018" lon="-0.24403">
        <ele>46.28</ele>
        <time>2017-11-28T14:14:59Z</time>
      </trkpt>
      <trkpt lat="44.70018" lon="-0.24399">
        <ele>44.84</ele>
        <time>2017-11-28T14:15:19Z</time>
      </trkpt>
      <trkpt lat="44.70018" lon="-0.24394">
        <ele>43.88</ele>
        <time>2017-11-28T14:15:31Z</time>
      </trkpt>
      <trkpt lat="44.70013" lon="-0.2439">
        <ele>43.88</ele>
        <time>2017-11-28T14:15:35Z</time>
      </trkpt>
      <trkpt lat="44.6999" lon="-0.24381">
        <ele>43.4</ele>
        <time>2017-11-28T14:15:56Z</time>
      </trkpt>
      <trkpt lat="44.69976" lon="-0.24373">
        <ele>42.92</ele>
        <time>2017-11-28T14:16:11Z</time>
      </trkpt>
      <trkpt lat="44.69968" lon="-0.24358">
        <ele>42.92</ele>
        <time>2017-11-28T14:16:22Z</time>
      </trkpt>
      <trkpt lat="44.69962" lon="-0.24342">
        <ele>42.92</ele>
        <time>2017-11-28T14:16:34Z</time>
      </trkpt>
      <trkpt lat="44.69962" lon="-0.24341">
        <ele>42.92</ele>
        <time>2017-11-28T14:16:35Z</time>
      </trkpt>
      <trkpt lat="44.6996" lon="-0.24326">
        <ele>42.92</ele>
        <time>2017-11-28T14:16:47Z</time>
      </trkpt>
      <trkpt lat="44.69952" lon="-0.24297">
        <ele>42.92</ele>
        <time>2017-11-28T14:17:03Z</time>
      </trkpt>
      <trkpt lat="44.69942" lon="-0.24259">
        <ele>42.44</ele>
        <time>2017-11-28T14:17:25Z</time>
      </trkpt>
      <trkpt lat="44.69937" lon="-0.24244">
        <ele>43.4</ele>
        <time>2017-11-28T14:17:34Z</time>
      </trkpt>
      <trkpt lat="44.69934" lon="-0.24234">
        <ele>42.92</ele>
        <time>2017-11-28T14:17:42Z</time>
      </trkpt>
      <trkpt lat="44.6993" lon="-0.24227">
        <ele>44.36</ele>
        <time>2017-11-28T14:17:50Z</time>
      </trkpt>
      <trkpt lat="44.69929" lon="-0.24224">
        <ele>43.4</ele>
        <time>2017-11-28T14:17:52Z</time>
      </trkpt>
      <trkpt lat="44.69916" lon="-0.24188">
        <ele>43.4</ele>
        <time>2017-11-28T14:18:15Z</time>
      </trkpt>
      <trkpt lat="44.69906" lon="-0.24166">
        <ele>43.4</ele>
        <time>2017-11-28T14:18:35Z</time>
      </trkpt>
      <trkpt lat="44.69898" lon="-0.24151">
        <ele>43.4</ele>
        <time>2017-11-28T14:18:54Z</time>
      </trkpt>
      <trkpt lat="44.69887" lon="-0.24141">
        <ele>43.4</ele>
        <time>2017-11-28T14:19:12Z</time>
      </trkpt>
      <trkpt lat="44.69873" lon="-0.24134">
        <ele>43.4</ele>
        <time>2017-11-28T14:19:31Z</time>
      </trkpt>
      <trkpt lat="44.69857" lon="-0.24127">
        <ele>43.4</ele>
        <time>2017-11-28T14:19:48Z</time>
      </trkpt>
      <trkpt lat="44.69855" lon="-0.24127">
        <ele>43.4</ele>
        <time>2017-11-28T14:19:49Z</time>
      </trkpt>
      <trkpt lat="44.69838" lon="-0.24125">
        <ele>43.4</ele>
        <time>2017-11-28T14:20:04Z</time>
      </trkpt>
      <trkpt lat="44.69816" lon="-0.24121">
        <ele>42.92</ele>
        <time>2017-11-28T14:20:20Z</time>
      </trkpt>
      <trkpt lat="44.69787" lon="-0.24113">
        <ele>42.92</ele>
        <time>2017-11-28T14:20:42Z</time>
      </trkpt>
      <trkpt lat="44.69768" lon="-0.2411">
        <ele>42.92</ele>
        <time>2017-11-28T14:20:57Z</time>
      </trkpt>
      <trkpt lat="44.69742" lon="-0.24111">
        <ele>45.8</ele>
        <time>2017-11-28T14:21:18Z</time>
      </trkpt>
      <trkpt lat="44.69734" lon="-0.24111">
        <ele>46.28</ele>
        <time>2017-11-28T14:21:26Z</time>
      </trkpt>
      <trkpt lat="44.69712" lon="-0.24113">
        <ele>47.72</ele>
        <time>2017-11-28T14:21:44Z</time>
      </trkpt>
      <trkpt lat="44.69689" lon="-0.24114">
        <ele>48.68</ele>
        <time>2017-11-28T14:22:03Z</time>
      </trkpt>
      <trkpt lat="44.69665" lon="-0.24114">
        <ele>48.68</ele>
        <time>2017-11-28T14:22:23Z</time>
      </trkpt>
      <trkpt lat="44.69641" lon="-0.24115">
        <ele>49.16</ele>
        <time>2017-11-28T14:22:43Z</time>
      </trkpt>
      <trkpt lat="44.69617" lon="-0.24114">
        <ele>49.65</ele>
        <time>2017-11-28T14:23:03Z</time>
      </trkpt>
      <trkpt lat="44.6959" lon="-0.24111">
        <ele>50.13</ele>
        <time>2017-11-28T14:23:25Z</time>
      </trkpt>
      <trkpt lat="44.69563" lon="-0.24108">
        <ele>50.61</ele>
        <time>2017-11-28T14:23:47Z</time>
      </trkpt>
      <trkpt lat="44.69538" lon="-0.24104">
        <ele>51.57</ele>
        <time>2017-11-28T14:24:08Z</time>
      </trkpt>
      <trkpt lat="44.69513" lon="-0.24098">
        <ele>52.53</ele>
        <time>2017-11-28T14:24:28Z</time>
      </trkpt>
      <trkpt lat="44.69481" lon="-0.24091">
        <ele>53.49</ele>
        <time>2017-11-28T14:24:54Z</time>
      </trkpt>
      <trkpt lat="44.69455" lon="-0.24085">
        <ele>54.93</ele>
        <time>2017-11-28T14:25:16Z</time>
      </trkpt>
      <trkpt lat="44.69431" lon="-0.24081">
        <ele>56.37</ele>
        <time>2017-11-28T14:25:37Z</time>
      </trkpt>
      <trkpt lat="44.69415" lon="-0.24077">
        <ele>57.82</ele>
        <time>2017-11-28T14:25:52Z</time>
      </trkpt>
      <trkpt lat="44.69393" lon="-0.24074">
        <ele>58.78</ele>
        <time>2017-11-28T14:26:09Z</time>
      </trkpt>
      <trkpt lat="44.69368" lon="-0.24073">
        <ele>59.74</ele>
        <time>2017-11-28T14:26:30Z</time>
      </trkpt>
      <trkpt lat="44.69342" lon="-0.24068">
        <ele>59.74</ele>
        <time>2017-11-28T14:26:52Z</time>
      </trkpt>
      <trkpt lat="44.69322" lon="-0.24044">
        <ele>58.3</ele>
        <time>2017-11-28T14:27:14Z</time>
      </trkpt>
      <trkpt lat="44.69308" lon="-0.24019">
        <ele>57.82</ele>
        <time>2017-11-28T14:27:35Z</time>
      </trkpt>
      <trkpt lat="44.69307" lon="-0.24019">
        <ele>57.82</ele>
        <time>2017-11-28T14:27:36Z</time>
      </trkpt>
      <trkpt lat="44.69302" lon="-0.24013">
        <ele>57.82</ele>
        <time>2017-11-28T14:27:48Z</time>
      </trkpt>
      <trkpt lat="44.693" lon="-0.2401">
        <ele>57.82</ele>
        <time>2017-11-28T14:27:51Z</time>
      </trkpt>
      <trkpt lat="44.69293" lon="-0.24009">
        <ele>57.82</ele>
        <time>2017-11-28T14:28:06Z</time>
      </trkpt>
      <trkpt lat="44.69295" lon="-0.24009">
        <ele>57.82</ele>
        <time>2017-11-28T14:28:41Z</time>
      </trkpt>
      <trkpt lat="44.69304" lon="-0.24014">
        <ele>57.82</ele>
        <time>2017-11-28T14:28:55Z</time>
      </trkpt>
      <trkpt lat="44.69312" lon="-0.24012">
        <ele>57.82</ele>
        <time>2017-11-28T14:29:08Z</time>
      </trkpt>
      <trkpt lat="44.69324" lon="-0.24002">
        <ele>57.82</ele>
        <time>2017-11-28T14:29:26Z</time>
      </trkpt>
      <trkpt lat="44.6933" lon="-0.23997">
        <ele>57.34</ele>
        <time>2017-11-28T14:29:34Z</time>
      </trkpt>
      <trkpt lat="44.69334" lon="-0.23993">
        <ele>57.34</ele>
        <time>2017-11-28T14:29:40Z</time>
      </trkpt>
      <trkpt lat="44.69349" lon="-0.2398">
        <ele>57.34</ele>
        <time>2017-11-28T14:29:58Z</time>
      </trkpt>
      <trkpt lat="44.69368" lon="-0.23967">
        <ele>59.74</ele>
        <time>2017-11-28T14:30:17Z</time>
      </trkpt>
      <trkpt lat="44.6939" lon="-0.23957">
        <ele>59.74</ele>
        <time>2017-11-28T14:30:38Z</time>
      </trkpt>
      <trkpt lat="44.69412" lon="-0.23948">
        <ele>58.78</ele>
        <time>2017-11-28T14:30:59Z</time>
      </trkpt>
      <trkpt lat="44.69438" lon="-0.23937">
        <ele>56.86</ele>
        <time>2017-11-28T14:31:20Z</time>
      </trkpt>
      <trkpt lat="44.69463" lon="-0.23918">
        <ele>56.86</ele>
        <time>2017-11-28T14:31:43Z</time>
      </trkpt>
      <trkpt lat="44.69484" lon="-0.23897">
        <ele>55.41</ele>
        <time>2017-11-28T14:32:05Z</time>
      </trkpt>
      <trkpt lat="44.69493" lon="-0.23891">
        <ele>55.41</ele>
        <time>2017-11-28T14:32:16Z</time>
      </trkpt>
      <trkpt lat="44.69505" lon="-0.23877">
        <ele>55.89</ele>
        <time>2017-11-28T14:32:32Z</time>
      </trkpt>
      <trkpt lat="44.69521" lon="-0.23862">
        <ele>54.93</ele>
        <time>2017-11-28T14:32:50Z</time>
      </trkpt>
      <trkpt lat="44.69539" lon="-0.2385">
        <ele>54.45</ele>
        <time>2017-11-28T14:33:08Z</time>
      </trkpt>
      <trkpt lat="44.69556" lon="-0.23828">
        <ele>54.45</ele>
        <time>2017-11-28T14:33:29Z</time>
      </trkpt>
      <trkpt lat="44.69569" lon="-0.23814">
        <ele>54.45</ele>
        <time>2017-11-28T14:33:43Z</time>
      </trkpt>
      <trkpt lat="44.69586" lon="-0.23798">
        <ele>54.45</ele>
        <time>2017-11-28T14:33:58Z</time>
      </trkpt>
      <trkpt lat="44.69604" lon="-0.23782">
        <ele>53.97</ele>
        <time>2017-11-28T14:34:20Z</time>
      </trkpt>
      <trkpt lat="44.6962" lon="-0.23768">
        <ele>53.49</ele>
        <time>2017-11-28T14:34:34Z</time>
      </trkpt>
      <trkpt lat="44.69635" lon="-0.23759">
        <ele>53.01</ele>
        <time>2017-11-28T14:34:49Z</time>
      </trkpt>
      <trkpt lat="44.69658" lon="-0.23741">
        <ele>52.53</ele>
        <time>2017-11-28T14:35:07Z</time>
      </trkpt>
      <trkpt lat="44.69676" lon="-0.23724">
        <ele>51.57</ele>
        <time>2017-11-28T14:35:20Z</time>
      </trkpt>
      <trkpt lat="44.6968" lon="-0.23721">
        <ele>51.57</ele>
        <time>2017-11-28T14:35:26Z</time>
      </trkpt>
      <trkpt lat="44.69688" lon="-0.23713">
        <ele>51.09</ele>
        <time>2017-11-28T14:35:40Z</time>
      </trkpt>
      <trkpt lat="44.69695" lon="-0.23712">
        <ele>51.09</ele>
        <time>2017-11-28T14:35:54Z</time>
      </trkpt>
      <trkpt lat="44.69702" lon="-0.23704">
        <ele>49.65</ele>
        <time>2017-11-28T14:36:09Z</time>
      </trkpt>
      <trkpt lat="44.69705" lon="-0.23701">
        <ele>49.16</ele>
        <time>2017-11-28T14:36:21Z</time>
      </trkpt>
      <trkpt lat="44.69713" lon="-0.23694">
        <ele>49.16</ele>
        <time>2017-11-28T14:36:35Z</time>
      </trkpt>
      <trkpt lat="44.69717" lon="-0.23689">
        <ele>48.68</ele>
        <time>2017-11-28T14:36:45Z</time>
      </trkpt>
      <trkpt lat="44.69718" lon="-0.23687">
        <ele>48.68</ele>
        <time>2017-11-28T14:36:46Z</time>
      </trkpt>
      <trkpt lat="44.69723" lon="-0.23682">
        <ele>48.2</ele>
        <time>2017-11-28T14:36:58Z</time>
      </trkpt>
      <trkpt lat="44.69729" lon="-0.23674">
        <ele>47.72</ele>
        <time>2017-11-28T14:37:13Z</time>
      </trkpt>
      <trkpt lat="44.69734" lon="-0.23666">
        <ele>47.72</ele>
        <time>2017-11-28T14:37:29Z</time>
      </trkpt>
      <trkpt lat="44.69732" lon="-0.23666">
        <ele>47.24</ele>
        <time>2017-11-28T14:37:58Z</time>
      </trkpt>
      <trkpt lat="44.69732" lon="-0.23663">
        <ele>47.24</ele>
        <time>2017-11-28T14:38:14Z</time>
      </trkpt>
      <trkpt lat="44.69736" lon="-0.23653">
        <ele>46.76</ele>
        <time>2017-11-28T14:38:34Z</time>
      </trkpt>
      <trkpt lat="44.69743" lon="-0.23636">
        <ele>45.8</ele>
        <time>2017-11-28T14:38:49Z</time>
      </trkpt>
      <trkpt lat="44.69752" lon="-0.23609">
        <ele>44.36</ele>
        <time>2017-11-28T14:39:08Z</time>
      </trkpt>
      <trkpt lat="44.69763" lon="-0.23575">
        <ele>43.88</ele>
        <time>2017-11-28T14:39:32Z</time>
      </trkpt>
      <trkpt lat="44.69774" lon="-0.23551">
        <ele>43.88</ele>
        <time>2017-11-28T14:39:48Z</time>
      </trkpt>
      <trkpt lat="44.6979" lon="-0.23522">
        <ele>43.88</ele>
        <time>2017-11-28T14:40:10Z</time>
      </trkpt>
      <trkpt lat="44.69791" lon="-0.2352">
        <ele>45.32</ele>
        <time>2017-11-28T14:40:12Z</time>
      </trkpt>
      <trkpt lat="44.69809" lon="-0.23493">
        <ele>45.8</ele>
        <time>2017-11-28T14:40:33Z</time>
      </trkpt>
      <trkpt lat="44.69831" lon="-0.23468">
        <ele>46.76</ele>
        <time>2017-11-28T14:40:56Z</time>
      </trkpt>
      <trkpt lat="44.69849" lon="-0.23446">
        <ele>47.72</ele>
        <time>2017-11-28T14:41:15Z</time>
      </trkpt>
      <trkpt lat="44.69867" lon="-0.23429">
        <ele>49.16</ele>
        <time>2017-11-28T14:41:34Z</time>
      </trkpt>
      <trkpt lat="44.69884" lon="-0.23412">
        <ele>50.13</ele>
        <time>2017-11-28T14:41:51Z</time>
      </trkpt>
      <trkpt lat="44.69899" lon="-0.23394">
        <ele>51.09</ele>
        <time>2017-11-28T14:42:09Z</time>
      </trkpt>
      <trkpt lat="44.699" lon="-0.23393">
        <ele>51.09</ele>
        <time>2017-11-28T14:42:10Z</time>
      </trkpt>
      <trkpt lat="44.69901" lon="-0.23391">
        <ele>51.09</ele>
        <time>2017-11-28T14:42:11Z</time>
      </trkpt>
      <trkpt lat="44.69902" lon="-0.2339">
        <ele>51.09</ele>
        <time>2017-11-28T14:42:12Z</time>
      </trkpt>
      <trkpt lat="44.69903" lon="-0.23389">
        <ele>51.09</ele>
        <time>2017-11-28T14:42:13Z</time>
      </trkpt>
      <trkpt lat="44.69904" lon="-0.23388">
        <ele>51.09</ele>
        <time>2017-11-28T14:42:14Z</time>
      </trkpt>
      <trkpt lat="44.69905" lon="-0.23387">
        <ele>51.57</ele>
        <time>2017-11-28T14:42:15Z</time>
      </trkpt>
      <trkpt lat="44.69922" lon="-0.2337">
        <ele>53.01</ele>
        <time>2017-11-28T14:42:32Z</time>
      </trkpt>
      <trkpt lat="44.69936" lon="-0.23357">
        <ele>53.97</ele>
        <time>2017-11-28T14:42:47Z</time>
      </trkpt>
      <trkpt lat="44.69936" lon="-0.23356">
        <ele>53.97</ele>
        <time>2017-11-28T14:42:48Z</time>
      </trkpt>
      <trkpt lat="44.69937" lon="-0.23355">
        <ele>53.97</ele>
        <time>2017-11-28T14:42:49Z</time>
      </trkpt>
      <trkpt lat="44.69946" lon="-0.23346">
        <ele>54.93</ele>
        <time>2017-11-28T14:42:58Z</time>
      </trkpt>
      <trkpt lat="44.69965" lon="-0.23314">
        <ele>56.86</ele>
        <time>2017-11-28T14:43:22Z</time>
      </trkpt>
      <trkpt lat="44.69982" lon="-0.23285">
        <ele>57.34</ele>
        <time>2017-11-28T14:43:45Z</time>
      </trkpt>
      <trkpt lat="44.69992" lon="-0.23272">
        <ele>55.89</ele>
        <time>2017-11-28T14:43:58Z</time>
      </trkpt>
      <trkpt lat="44.69993" lon="-0.23271">
        <ele>55.89</ele>
        <time>2017-11-28T14:43:59Z</time>
      </trkpt>
      <trkpt lat="44.69993" lon="-0.23269">
        <ele>55.41</ele>
        <time>2017-11-28T14:44:00Z</time>
      </trkpt>
      <trkpt lat="44.70006" lon="-0.23249">
        <ele>54.93</ele>
        <time>2017-11-28T14:44:18Z</time>
      </trkpt>
      <trkpt lat="44.70023" lon="-0.23221">
        <ele>53.97</ele>
        <time>2017-11-28T14:44:41Z</time>
      </trkpt>
      <trkpt lat="44.70039" lon="-0.23204">
        <ele>53.49</ele>
        <time>2017-11-28T14:44:56Z</time>
      </trkpt>
      <trkpt lat="44.70053" lon="-0.23186">
        <ele>53.01</ele>
        <time>2017-11-28T14:45:13Z</time>
      </trkpt>
      <trkpt lat="44.7007" lon="-0.23168">
        <ele>53.01</ele>
        <time>2017-11-28T14:45:31Z</time>
      </trkpt>
      <trkpt lat="44.70096" lon="-0.23144">
        <ele>53.01</ele>
        <time>2017-11-28T14:45:53Z</time>
      </trkpt>
      <trkpt lat="44.70109" lon="-0.23127">
        <ele>53.01</ele>
        <time>2017-11-28T14:46:10Z</time>
      </trkpt>
      <trkpt lat="44.70124" lon="-0.23109">
        <ele>53.01</ele>
        <time>2017-11-28T14:46:26Z</time>
      </trkpt>
      <trkpt lat="44.7014" lon="-0.23087">
        <ele>53.01</ele>
        <time>2017-11-28T14:46:43Z</time>
      </trkpt>
      <trkpt lat="44.70152" lon="-0.2307">
        <ele>54.93</ele>
        <time>2017-11-28T14:46:58Z</time>
      </trkpt>
      <trkpt lat="44.70169" lon="-0.2305">
        <ele>54.93</ele>
        <time>2017-11-28T14:47:16Z</time>
      </trkpt>
      <trkpt lat="44.70183" lon="-0.23036">
        <ele>55.41</ele>
        <time>2017-11-28T14:47:32Z</time>
      </trkpt>
      <trkpt lat="44.702" lon="-0.23027">
        <ele>55.41</ele>
        <time>2017-11-28T14:47:47Z</time>
      </trkpt>
      <trkpt lat="44.70202" lon="-0.23026">
        <ele>55.41</ele>
        <time>2017-11-28T14:47:49Z</time>
      </trkpt>
      <trkpt lat="44.70204" lon="-0.23025">
        <ele>55.41</ele>
        <time>2017-11-28T14:47:51Z</time>
      </trkpt>
      <trkpt lat="44.70221" lon="-0.23015">
        <ele>55.41</ele>
        <time>2017-11-28T14:48:06Z</time>
      </trkpt>
      <trkpt lat="44.70234" lon="-0.23007">
        <ele>55.41</ele>
        <time>2017-11-28T14:48:19Z</time>
      </trkpt>
      <trkpt lat="44.7025" lon="-0.22995">
        <ele>55.41</ele>
        <time>2017-11-28T14:48:35Z</time>
      </trkpt>
      <trkpt lat="44.70269" lon="-0.22982">
        <ele>55.41</ele>
        <time>2017-11-28T14:48:53Z</time>
      </trkpt>
      <trkpt lat="44.70285" lon="-0.2297">
        <ele>53.01</ele>
        <time>2017-11-28T14:49:10Z</time>
      </trkpt>
      <trkpt lat="44.70298" lon="-0.22955">
        <ele>52.05</ele>
        <time>2017-11-28T14:49:26Z</time>
      </trkpt>
      <trkpt lat="44.70309" lon="-0.22938">
        <ele>52.05</ele>
        <time>2017-11-28T14:49:41Z</time>
      </trkpt>
      <trkpt lat="44.70326" lon="-0.22919">
        <ele>50.61</ele>
        <time>2017-11-28T14:50:00Z</time>
      </trkpt>
      <trkpt lat="44.70345" lon="-0.22898">
        <ele>50.13</ele>
        <time>2017-11-28T14:50:17Z</time>
      </trkpt>
      <trkpt lat="44.70358" lon="-0.2288">
        <ele>49.65</ele>
        <time>2017-11-28T14:50:34Z</time>
      </trkpt>
      <trkpt lat="44.70375" lon="-0.22857">
        <ele>48.68</ele>
        <time>2017-11-28T14:50:54Z</time>
      </trkpt>
      <trkpt lat="44.70375" lon="-0.22855">
        <ele>48.68</ele>
        <time>2017-11-28T14:50:55Z</time>
      </trkpt>
      <trkpt lat="44.70374" lon="-0.2285">
        <ele>48.68</ele>
        <time>2017-11-28T14:50:59Z</time>
      </trkpt>
      <trkpt lat="44.70373" lon="-0.22849">
        <ele>48.68</ele>
        <time>2017-11-28T14:51:00Z</time>
      </trkpt>
      <trkpt lat="44.70373" lon="-0.22849">
        <ele>48.68</ele>
        <time>2017-11-28T14:51:13Z</time>
      </trkpt>
      <trkpt lat="44.70373" lon="-0.22849">
        <ele>50.13</ele>
        <time>2017-11-28T14:51:26Z</time>
      </trkpt>
      <trkpt lat="44.7037" lon="-0.22844">
        <ele>50.61</ele>
        <time>2017-11-28T14:51:45Z</time>
      </trkpt>
      <trkpt lat="44.70359" lon="-0.22832">
        <ele>50.61</ele>
        <time>2017-11-28T14:51:59Z</time>
      </trkpt>
      <trkpt lat="44.70345" lon="-0.22818">
        <ele>51.09</ele>
        <time>2017-11-28T14:52:17Z</time>
      </trkpt>
      <trkpt lat="44.70331" lon="-0.22804">
        <ele>51.57</ele>
        <time>2017-11-28T14:52:33Z</time>
      </trkpt>
      <trkpt lat="44.70311" lon="-0.22783">
        <ele>51.57</ele>
        <time>2017-11-28T14:52:55Z</time>
      </trkpt>
      <trkpt lat="44.70299" lon="-0.22764">
        <ele>52.05</ele>
        <time>2017-11-28T14:53:12Z</time>
      </trkpt>
      <trkpt lat="44.70292" lon="-0.22753">
        <ele>52.05</ele>
        <time>2017-11-28T14:53:21Z</time>
      </trkpt>
      <trkpt lat="44.70291" lon="-0.22751">
        <ele>52.05</ele>
        <time>2017-11-28T14:53:22Z</time>
      </trkpt>
      <trkpt lat="44.70286" lon="-0.22743">
        <ele>52.05</ele>
        <time>2017-11-28T14:53:29Z</time>
      </trkpt>
      <trkpt lat="44.70285" lon="-0.22741">
        <ele>52.05</ele>
        <time>2017-11-28T14:53:30Z</time>
      </trkpt>
      <trkpt lat="44.70274" lon="-0.22721">
        <ele>52.53</ele>
        <time>2017-11-28T14:53:47Z</time>
      </trkpt>
      <trkpt lat="44.70263" lon="-0.227">
        <ele>53.01</ele>
        <time>2017-11-28T14:54:04Z</time>
      </trkpt>
      <trkpt lat="44.70256" lon="-0.22697">
        <ele>53.01</ele>
        <time>2017-11-28T14:54:11Z</time>
      </trkpt>
      <trkpt lat="44.7024" lon="-0.22715">
        <ele>53.01</ele>
        <time>2017-11-28T14:54:29Z</time>
      </trkpt>
      <trkpt lat="44.70228" lon="-0.22728">
        <ele>53.49</ele>
        <time>2017-11-28T14:54:44Z</time>
      </trkpt>
      <trkpt lat="44.70224" lon="-0.2273">
        <ele>53.49</ele>
        <time>2017-11-28T14:54:49Z</time>
      </trkpt>
      <trkpt lat="44.70212" lon="-0.2273">
        <ele>53.97</ele>
        <time>2017-11-28T14:55:03Z</time>
      </trkpt>
      <trkpt lat="44.70203" lon="-0.22722">
        <ele>54.45</ele>
        <time>2017-11-28T14:55:13Z</time>
      </trkpt>
      <trkpt lat="44.70191" lon="-0.22709">
        <ele>54.45</ele>
        <time>2017-11-28T14:55:28Z</time>
      </trkpt>
      <trkpt lat="44.70186" lon="-0.227">
        <ele>54.45</ele>
        <time>2017-11-28T14:55:36Z</time>
      </trkpt>
      <trkpt lat="44.70182" lon="-0.22698">
        <ele>54.45</ele>
        <time>2017-11-28T14:55:40Z</time>
      </trkpt>
      <trkpt lat="44.70175" lon="-0.2269">
        <ele>54.93</ele>
        <time>2017-11-28T14:55:48Z</time>
      </trkpt>
      <trkpt lat="44.70163" lon="-0.22681">
        <ele>54.93</ele>
        <time>2017-11-28T14:56:01Z</time>
      </trkpt>
      <trkpt lat="44.7016" lon="-0.2268">
        <ele>54.93</ele>
        <time>2017-11-28T14:56:03Z</time>
      </trkpt>
      <trkpt lat="44.70157" lon="-0.22676">
        <ele>54.93</ele>
        <time>2017-11-28T14:56:08Z</time>
      </trkpt>
      <trkpt lat="44.70139" lon="-0.22664">
        <ele>54.93</ele>
        <time>2017-11-28T14:56:26Z</time>
      </trkpt>
      <trkpt lat="44.70122" lon="-0.22657">
        <ele>55.41</ele>
        <time>2017-11-28T14:56:42Z</time>
      </trkpt>
      <trkpt lat="44.70117" lon="-0.22655">
        <ele>55.41</ele>
        <time>2017-11-28T14:56:48Z</time>
      </trkpt>
      <trkpt lat="44.70103" lon="-0.22662">
        <ele>56.37</ele>
        <time>2017-11-28T14:57:02Z</time>
      </trkpt>
      <trkpt lat="44.70092" lon="-0.2266">
        <ele>56.37</ele>
        <time>2017-11-28T14:57:13Z</time>
      </trkpt>
      <trkpt lat="44.70082" lon="-0.22641">
        <ele>57.34</ele>
        <time>2017-11-28T14:57:28Z</time>
      </trkpt>
      <trkpt lat="44.70073" lon="-0.22624">
        <ele>58.3</ele>
        <time>2017-11-28T14:57:42Z</time>
      </trkpt>
      <trkpt lat="44.70069" lon="-0.22623">
        <ele>58.78</ele>
        <time>2017-11-28T14:57:54Z</time>
      </trkpt>
      <trkpt lat="44.7007" lon="-0.22625">
        <ele>58.78</ele>
        <time>2017-11-28T14:58:30Z</time>
      </trkpt>
      <trkpt lat="44.70068" lon="-0.22622">
        <ele>58.78</ele>
        <time>2017-11-28T14:58:58Z</time>
      </trkpt>
      <trkpt lat="44.70068" lon="-0.22622">
        <ele>57.34</ele>
        <time>2017-11-28T14:59:24Z</time>
      </trkpt>
      <trkpt lat="44.70068" lon="-0.22626">
        <ele>57.34</ele>
        <time>2017-11-28T14:59:49Z</time>
      </trkpt>
      <trkpt lat="44.70061" lon="-0.22632">
        <ele>57.34</ele>
        <time>2017-11-28T15:00:04Z</time>
      </trkpt>
      <trkpt lat="44.7006" lon="-0.22633">
        <ele>57.34</ele>
        <time>2017-11-28T15:00:10Z</time>
      </trkpt>
      <trkpt lat="44.70048" lon="-0.22647">
        <ele>59.74</ele>
        <time>2017-11-28T15:00:27Z</time>
      </trkpt>
      <trkpt lat="44.70037" lon="-0.22659">
        <ele>59.74</ele>
        <time>2017-11-28T15:00:40Z</time>
      </trkpt>
      <trkpt lat="44.70036" lon="-0.22662">
        <ele>59.74</ele>
        <time>2017-11-28T15:00:42Z</time>
      </trkpt>
      <trkpt lat="44.70026" lon="-0.22672">
        <ele>60.7</ele>
        <time>2017-11-28T15:00:54Z</time>
      </trkpt>
      <trkpt lat="44.70016" lon="-0.22687">
        <ele>62.14</ele>
        <time>2017-11-28T15:01:08Z</time>
      </trkpt>
      <trkpt lat="44.70019" lon="-0.22711">
        <ele>62.62</ele>
        <time>2017-11-28T15:01:24Z</time>
      </trkpt>
      <trkpt lat="44.70018" lon="-0.22717">
        <ele>62.62</ele>
        <time>2017-11-28T15:01:29Z</time>
      </trkpt>
      <trkpt lat="44.70009" lon="-0.2274">
        <ele>62.62</ele>
        <time>2017-11-28T15:01:46Z</time>
      </trkpt>
      <trkpt lat="44.70019" lon="-0.22765">
        <ele>63.1</ele>
        <time>2017-11-28T15:02:04Z</time>
      </trkpt>
      <trkpt lat="44.7003" lon="-0.22793">
        <ele>62.14</ele>
        <time>2017-11-28T15:02:24Z</time>
      </trkpt>
      <trkpt lat="44.70021" lon="-0.22811">
        <ele>61.18</ele>
        <time>2017-11-28T15:02:40Z</time>
      </trkpt>
      <trkpt lat="44.70018" lon="-0.22815">
        <ele>61.18</ele>
        <time>2017-11-28T15:02:43Z</time>
      </trkpt>
      <trkpt lat="44.70002" lon="-0.22829">
        <ele>61.18</ele>
        <time>2017-11-28T15:03:00Z</time>
      </trkpt>
      <trkpt lat="44.69985" lon="-0.22843">
        <ele>61.18</ele>
        <time>2017-11-28T15:03:17Z</time>
      </trkpt>
      <trkpt lat="44.69967" lon="-0.22854">
        <ele>61.18</ele>
        <time>2017-11-28T15:03:34Z</time>
      </trkpt>
      <trkpt lat="44.6995" lon="-0.22868">
        <ele>60.22</ele>
        <time>2017-11-28T15:03:51Z</time>
      </trkpt>
      <trkpt lat="44.69943" lon="-0.22876">
        <ele>60.22</ele>
        <time>2017-11-28T15:03:59Z</time>
      </trkpt>
      <trkpt lat="44.69935" lon="-0.22884">
        <ele>61.18</ele>
        <time>2017-11-28T15:04:08Z</time>
      </trkpt>
      <trkpt lat="44.69924" lon="-0.22897">
        <ele>61.18</ele>
        <time>2017-11-28T15:04:22Z</time>
      </trkpt>
      <trkpt lat="44.69923" lon="-0.22898">
        <ele>61.18</ele>
        <time>2017-11-28T15:04:24Z</time>
      </trkpt>
      <trkpt lat="44.69914" lon="-0.22914">
        <ele>61.66</ele>
        <time>2017-11-28T15:04:37Z</time>
      </trkpt>
      <trkpt lat="44.69899" lon="-0.22927">
        <ele>61.66</ele>
        <time>2017-11-28T15:04:54Z</time>
      </trkpt>
      <trkpt lat="44.69886" lon="-0.22943">
        <ele>61.66</ele>
        <time>2017-11-28T15:05:10Z</time>
      </trkpt>
      <trkpt lat="44.69877" lon="-0.22963">
        <ele>62.62</ele>
        <time>2017-11-28T15:05:27Z</time>
      </trkpt>
      <trkpt lat="44.69867" lon="-0.22989">
        <ele>61.18</ele>
        <time>2017-11-28T15:05:47Z</time>
      </trkpt>
      <trkpt lat="44.69859" lon="-0.23008">
        <ele>60.7</ele>
        <time>2017-11-28T15:06:01Z</time>
      </trkpt>
      <trkpt lat="44.69847" lon="-0.23035">
        <ele>59.26</ele>
        <time>2017-11-28T15:06:22Z</time>
      </trkpt>
      <trkpt lat="44.69839" lon="-0.23055">
        <ele>57.82</ele>
        <time>2017-11-28T15:06:36Z</time>
      </trkpt>
      <trkpt lat="44.6982" lon="-0.23076">
        <ele>56.86</ele>
        <time>2017-11-28T15:06:58Z</time>
      </trkpt>
      <trkpt lat="44.69803" lon="-0.23097">
        <ele>56.37</ele>
        <time>2017-11-28T15:07:17Z</time>
      </trkpt>
      <trkpt lat="44.69782" lon="-0.23122">
        <ele>55.89</ele>
        <time>2017-11-28T15:07:39Z</time>
      </trkpt>
      <trkpt lat="44.69762" lon="-0.23144">
        <ele>54.93</ele>
        <time>2017-11-28T15:08:01Z</time>
      </trkpt>
      <trkpt lat="44.69744" lon="-0.23162">
        <ele>54.45</ele>
        <time>2017-11-28T15:08:20Z</time>
      </trkpt>
      <trkpt lat="44.69729" lon="-0.23179">
        <ele>54.93</ele>
        <time>2017-11-28T15:08:37Z</time>
      </trkpt>
      <trkpt lat="44.69718" lon="-0.23185">
        <ele>54.45</ele>
        <time>2017-11-28T15:08:49Z</time>
      </trkpt>
      <trkpt lat="44.69714" lon="-0.23181">
        <ele>54.45</ele>
        <time>2017-11-28T15:08:53Z</time>
      </trkpt>
      <trkpt lat="44.69698" lon="-0.23152">
        <ele>54.45</ele>
        <time>2017-11-28T15:09:17Z</time>
      </trkpt>
      <trkpt lat="44.69683" lon="-0.23125">
        <ele>54.45</ele>
        <time>2017-11-28T15:09:39Z</time>
      </trkpt>
      <trkpt lat="44.69669" lon="-0.231">
        <ele>52.53</ele>
        <time>2017-11-28T15:09:59Z</time>
      </trkpt>
      <trkpt lat="44.69651" lon="-0.23074">
        <ele>51.09</ele>
        <time>2017-11-28T15:10:21Z</time>
      </trkpt>
      <trkpt lat="44.69635" lon="-0.23072">
        <ele>49.65</ele>
        <time>2017-11-28T15:10:37Z</time>
      </trkpt>
      <trkpt lat="44.69615" lon="-0.23082">
        <ele>48.68</ele>
        <time>2017-11-28T15:10:53Z</time>
      </trkpt>
      <trkpt lat="44.69612" lon="-0.23085">
        <ele>48.68</ele>
        <time>2017-11-28T15:10:57Z</time>
      </trkpt>
      <trkpt lat="44.69606" lon="-0.23088">
        <ele>48.2</ele>
        <time>2017-11-28T15:11:02Z</time>
      </trkpt>
      <trkpt lat="44.69582" lon="-0.23098">
        <ele>47.24</ele>
        <time>2017-11-28T15:11:21Z</time>
      </trkpt>
      <trkpt lat="44.69566" lon="-0.23108">
        <ele>45.8</ele>
        <time>2017-11-28T15:11:38Z</time>
      </trkpt>
      <trkpt lat="44.69544" lon="-0.23118">
        <ele>44.36</ele>
        <time>2017-11-28T15:11:58Z</time>
      </trkpt>
      <trkpt lat="44.69543" lon="-0.23118">
        <ele>44.36</ele>
        <time>2017-11-28T15:12:20Z</time>
      </trkpt>
      <trkpt lat="44.69534" lon="-0.23128">
        <ele>43.88</ele>
        <time>2017-11-28T15:12:37Z</time>
      </trkpt>
      <trkpt lat="44.69511" lon="-0.23135">
        <ele>43.88</ele>
        <time>2017-11-28T15:12:58Z</time>
      </trkpt>
      <trkpt lat="44.69493" lon="-0.23144">
        <ele>43.88</ele>
        <time>2017-11-28T15:13:15Z</time>
      </trkpt>
      <trkpt lat="44.69465" lon="-0.2316">
        <ele>45.32</ele>
        <time>2017-11-28T15:13:38Z</time>
      </trkpt>
      <trkpt lat="44.69437" lon="-0.23174">
        <ele>46.28</ele>
        <time>2017-11-28T15:13:56Z</time>
      </trkpt>
      <trkpt lat="44.69415" lon="-0.2319">
        <ele>47.72</ele>
        <time>2017-11-28T15:14:17Z</time>
      </trkpt>
      <trkpt lat="44.69393" lon="-0.23205">
        <ele>49.16</ele>
        <time>2017-11-28T15:14:38Z</time>
      </trkpt>
      <trkpt lat="44.69379" lon="-0.23215">
        <ele>50.13</ele>
        <time>2017-11-28T15:14:54Z</time>
      </trkpt>
      <trkpt lat="44.69363" lon="-0.2322">
        <ele>50.13</ele>
        <time>2017-11-28T15:15:13Z</time>
      </trkpt>
      <trkpt lat="44.69359" lon="-0.23214">
        <ele>50.13</ele>
        <time>2017-11-28T15:15:19Z</time>
      </trkpt>
      <trkpt lat="44.69355" lon="-0.23209">
        <ele>50.13</ele>
        <time>2017-11-28T15:15:24Z</time>
      </trkpt>
      <trkpt lat="44.69338" lon="-0.23177">
        <ele>50.61</ele>
        <time>2017-11-28T15:15:47Z</time>
      </trkpt>
      <trkpt lat="44.69323" lon="-0.23149">
        <ele>51.09</ele>
        <time>2017-11-28T15:16:08Z</time>
      </trkpt>
      <trkpt lat="44.69307" lon="-0.23113">
        <ele>51.09</ele>
        <time>2017-11-28T15:16:34Z</time>
      </trkpt>
      <trkpt lat="44.69292" lon="-0.23086">
        <ele>49.65</ele>
        <time>2017-11-28T15:16:54Z</time>
      </trkpt>
      <trkpt lat="44.69279" lon="-0.23063">
        <ele>49.65</ele>
        <time>2017-11-28T15:17:12Z</time>
      </trkpt>
      <trkpt lat="44.69263" lon="-0.23047">
        <ele>49.65</ele>
        <time>2017-11-28T15:17:28Z</time>
      </trkpt>
      <trkpt lat="44.6926" lon="-0.23047">
        <ele>49.65</ele>
        <time>2017-11-28T15:17:31Z</time>
      </trkpt>
      <trkpt lat="44.69249" lon="-0.23054">
        <ele>50.61</ele>
        <time>2017-11-28T15:17:42Z</time>
      </trkpt>
      <trkpt lat="44.69236" lon="-0.23062">
        <ele>51.09</ele>
        <time>2017-11-28T15:17:58Z</time>
      </trkpt>
      <trkpt lat="44.6923" lon="-0.23066">
        <ele>51.09</ele>
        <time>2017-11-28T15:18:12Z</time>
      </trkpt>
      <trkpt lat="44.69229" lon="-0.23067">
        <ele>50.61</ele>
        <time>2017-11-28T15:18:23Z</time>
      </trkpt>
    </trkseg>
  </trk>
  <trk>
    <name><![CDATA[Traces DPT 33_16]]></name>
    <extensions>
      <line xmlns="http://www.topografix.com/GPX/gpx_style/0/2">
        <color>00FFFF</color>
        <width>4</width>
      </line>
    </extensions>
    <trkseg>
      <trkpt lat="44.89363" lon="-0.15659">
        <ele>79.6</ele>
      </trkpt>
      <trkpt lat="44.8936" lon="-0.15671">
        <ele>80</ele>
      </trkpt>
      <trkpt lat="44.89359" lon="-0.15676">
        <ele>80</ele>
      </trkpt>
      <trkpt lat="44.89359" lon="-0.15682">
        <ele>80.3</ele>
      </trkpt>
      <trkpt lat="44.89359" lon="-0.15689">
        <ele>80.6</ele>
      </trkpt>
      <trkpt lat="44.89361" lon="-0.15689">
        <ele>80.8</ele>
      </trkpt>
      <trkpt lat="44.89362" lon="-0.15688">
        <ele>80.8</ele>
      </trkpt>
      <trkpt lat="44.89364" lon="-0.15689">
        <ele>80.9</ele>
      </trkpt>
      <trkpt lat="44.89365" lon="-0.1569">
        <ele>81</ele>
      </trkpt>
      <trkpt lat="44.89382" lon="-0.15705">
        <ele>80.6</ele>
      </trkpt>
      <trkpt lat="44.89387" lon="-0.1571">
        <ele>80.3</ele>
      </trkpt>
      <trkpt lat="44.89392" lon="-0.15716">
        <ele>79.8</ele>
      </trkpt>
      <trkpt lat="44.89396" lon="-0.15725">
        <ele>79.7</ele>
      </trkpt>
      <trkpt lat="44.89402" lon="-0.1574">
        <ele>80.9</ele>
      </trkpt>
      <trkpt lat="44.89314" lon="-0.15816">
        <ele>80.6</ele>
      </trkpt>
      <trkpt lat="44.89304" lon="-0.15825">
        <ele>81.4</ele>
      </trkpt>
      <trkpt lat="44.89295" lon="-0.15836">
        <ele>82.4</ele>
      </trkpt>
      <trkpt lat="44.8929" lon="-0.15846">
        <ele>82.6</ele>
      </trkpt>
      <trkpt lat="44.89286" lon="-0.15855">
        <ele>82.9</ele>
      </trkpt>
      <trkpt lat="44.89283" lon="-0.15863">
        <ele>83.3</ele>
      </trkpt>
      <trkpt lat="44.89278" lon="-0.15863">
        <ele>83.1</ele>
      </trkpt>
      <trkpt lat="44.89273" lon="-0.15864">
        <ele>83.1</ele>
      </trkpt>
      <trkpt lat="44.89261" lon="-0.15865">
        <ele>83.1</ele>
      </trkpt>
      <trkpt lat="44.89252" lon="-0.15865">
        <ele>83.1</ele>
      </trkpt>
      <trkpt lat="44.89242" lon="-0.15862">
        <ele>83.3</ele>
      </trkpt>
      <trkpt lat="44.89233" lon="-0.15857">
        <ele>83.1</ele>
      </trkpt>
      <trkpt lat="44.89216" lon="-0.15845">
        <ele>82</ele>
      </trkpt>
      <trkpt lat="44.89213" lon="-0.15843">
        <ele>81.9</ele>
      </trkpt>
      <trkpt lat="44.89204" lon="-0.15836">
        <ele>82.1</ele>
      </trkpt>
      <trkpt lat="44.892" lon="-0.15836">
        <ele>82.5</ele>
      </trkpt>
      <trkpt lat="44.89197" lon="-0.15836">
        <ele>82.8</ele>
      </trkpt>
      <trkpt lat="44.89192" lon="-0.15839">
        <ele>82.9</ele>
      </trkpt>
      <trkpt lat="44.89189" lon="-0.15843">
        <ele>82.8</ele>
      </trkpt>
      <trkpt lat="44.89188" lon="-0.15851">
        <ele>82.8</ele>
      </trkpt>
      <trkpt lat="44.89188" lon="-0.15859">
        <ele>82.8</ele>
      </trkpt>
      <trkpt lat="44.89188" lon="-0.15878">
        <ele>83.4</ele>
      </trkpt>
      <trkpt lat="44.89188" lon="-0.15934">
        <ele>84.6</ele>
      </trkpt>
      <trkpt lat="44.89187" lon="-0.15964">
        <ele>85.2</ele>
      </trkpt>
      <trkpt lat="44.89185" lon="-0.15988">
        <ele>85.1</ele>
      </trkpt>
      <trkpt lat="44.89182" lon="-0.16006">
        <ele>85</ele>
      </trkpt>
      <trkpt lat="44.89177" lon="-0.16018">
        <ele>85</ele>
      </trkpt>
      <trkpt lat="44.89171" lon="-0.16027">
        <ele>85</ele>
      </trkpt>
      <trkpt lat="44.89157" lon="-0.16041">
        <ele>84.5</ele>
      </trkpt>
      <trkpt lat="44.89143" lon="-0.16052">
        <ele>84.1</ele>
      </trkpt>
      <trkpt lat="44.89124" lon="-0.16063">
        <ele>84.4</ele>
      </trkpt>
      <trkpt lat="44.89103" lon="-0.16074">
        <ele>84.3</ele>
      </trkpt>
      <trkpt lat="44.89091" lon="-0.16081">
        <ele>84.1</ele>
      </trkpt>
      <trkpt lat="44.89052" lon="-0.16109">
        <ele>82.2</ele>
      </trkpt>
      <trkpt lat="44.89041" lon="-0.16116">
        <ele>81.8</ele>
      </trkpt>
      <trkpt lat="44.89028" lon="-0.1612">
        <ele>81.7</ele>
      </trkpt>
      <trkpt lat="44.88937" lon="-0.16137">
        <ele>77.8</ele>
      </trkpt>
      <trkpt lat="44.8892" lon="-0.16142">
        <ele>77</ele>
      </trkpt>
      <trkpt lat="44.88898" lon="-0.16151">
        <ele>75.9</ele>
      </trkpt>
      <trkpt lat="44.88892" lon="-0.16153">
        <ele>75.6</ele>
      </trkpt>
      <trkpt lat="44.88889" lon="-0.16156">
        <ele>75.4</ele>
      </trkpt>
      <trkpt lat="44.88888" lon="-0.16158">
        <ele>75.3</ele>
      </trkpt>
      <trkpt lat="44.88888" lon="-0.16158">
        <ele>75.3</ele>
      </trkpt>
      <trkpt lat="44.88887" lon="-0.16162">
        <ele>75.1</ele>
      </trkpt>
      <trkpt lat="44.88886" lon="-0.16166">
        <ele>74.9</ele>
      </trkpt>
      <trkpt lat="44.88886" lon="-0.1617">
        <ele>74.8</ele>
      </trkpt>
      <trkpt lat="44.88889" lon="-0.16181">
        <ele>74.5</ele>
      </trkpt>
      <trkpt lat="44.88867" lon="-0.16188">
        <ele>74</ele>
      </trkpt>
      <trkpt lat="44.88837" lon="-0.16191">
        <ele>71.6</ele>
      </trkpt>
      <trkpt lat="44.88806" lon="-0.16186">
        <ele>64.5</ele>
      </trkpt>
      <trkpt lat="44.88743" lon="-0.16174">
        <ele>56.3</ele>
      </trkpt>
      <trkpt lat="44.8868" lon="-0.16162">
        <ele>50.6</ele>
      </trkpt>
      <trkpt lat="44.88624" lon="-0.16149">
        <ele>44.9</ele>
      </trkpt>
      <trkpt lat="44.88595" lon="-0.16142">
        <ele>41.3</ele>
      </trkpt>
      <trkpt lat="44.88578" lon="-0.16138">
        <ele>39.6</ele>
      </trkpt>
      <trkpt lat="44.88509" lon="-0.16117">
        <ele>33.7</ele>
      </trkpt>
      <trkpt lat="44.88446" lon="-0.16098">
        <ele>29.6</ele>
      </trkpt>
      <trkpt lat="44.88393" lon="-0.16081">
        <ele>27.1</ele>
      </trkpt>
      <trkpt lat="44.88394" lon="-0.16072">
        <ele>26.9</ele>
      </trkpt>
      <trkpt lat="44.88394" lon="-0.16072">
        <ele>26.9</ele>
      </trkpt>
      <trkpt lat="44.88393" lon="-0.16081">
        <ele>27.1</ele>
      </trkpt>
      <trkpt lat="44.88387" lon="-0.16124">
        <ele>26.9</ele>
      </trkpt>
      <trkpt lat="44.88319" lon="-0.16224">
        <ele>23.5</ele>
      </trkpt>
      <trkpt lat="44.88292" lon="-0.16262">
        <ele>22.7</ele>
      </trkpt>
      <trkpt lat="44.88267" lon="-0.16294">
        <ele>22.1</ele>
      </trkpt>
      <trkpt lat="44.88233" lon="-0.16333">
        <ele>21</ele>
      </trkpt>
      <trkpt lat="44.88213" lon="-0.16357">
        <ele>20.4</ele>
      </trkpt>
      <trkpt lat="44.88205" lon="-0.16366">
        <ele>20.6</ele>
      </trkpt>
      <trkpt lat="44.88197" lon="-0.16374">
        <ele>20.9</ele>
      </trkpt>
      <trkpt lat="44.88136" lon="-0.16448">
        <ele>18.9</ele>
      </trkpt>
      <trkpt lat="44.88095" lon="-0.16499">
        <ele>18</ele>
      </trkpt>
      <trkpt lat="44.88084" lon="-0.16514">
        <ele>18</ele>
      </trkpt>
      <trkpt lat="44.88059" lon="-0.16548">
        <ele>17.3</ele>
      </trkpt>
      <trkpt lat="44.88027" lon="-0.16593">
        <ele>17</ele>
      </trkpt>
      <trkpt lat="44.87989" lon="-0.16642">
        <ele>17</ele>
      </trkpt>
      <trkpt lat="44.87961" lon="-0.16678">
        <ele>17</ele>
      </trkpt>
      <trkpt lat="44.87959" lon="-0.1668">
        <ele>17</ele>
      </trkpt>
      <trkpt lat="44.87951" lon="-0.16691">
        <ele>17</ele>
      </trkpt>
      <trkpt lat="44.87933" lon="-0.16712">
        <ele>16.2</ele>
      </trkpt>
      <trkpt lat="44.87927" lon="-0.16722">
        <ele>16</ele>
      </trkpt>
      <trkpt lat="44.87896" lon="-0.16761">
        <ele>16</ele>
      </trkpt>
      <trkpt lat="44.87859" lon="-0.16808">
        <ele>16</ele>
      </trkpt>
      <trkpt lat="44.87807" lon="-0.16875">
        <ele>15</ele>
      </trkpt>
      <trkpt lat="44.87785" lon="-0.16905">
        <ele>15</ele>
      </trkpt>
      <trkpt lat="44.87762" lon="-0.16937">
        <ele>15</ele>
      </trkpt>
      <trkpt lat="44.87756" lon="-0.16948">
        <ele>14.9</ele>
      </trkpt>
      <trkpt lat="44.8774" lon="-0.16974">
        <ele>13.7</ele>
      </trkpt>
      <trkpt lat="44.87735" lon="-0.16984">
        <ele>13.7</ele>
      </trkpt>
      <trkpt lat="44.87714" lon="-0.1702">
        <ele>14</ele>
      </trkpt>
      <trkpt lat="44.87713" lon="-0.17022">
        <ele>14</ele>
      </trkpt>
      <trkpt lat="44.87664" lon="-0.17104">
        <ele>14</ele>
      </trkpt>
      <trkpt lat="44.87638" lon="-0.17147">
        <ele>14</ele>
      </trkpt>
      <trkpt lat="44.87594" lon="-0.17216">
        <ele>13.6</ele>
      </trkpt>
      <trkpt lat="44.87592" lon="-0.1722">
        <ele>13.7</ele>
      </trkpt>
      <trkpt lat="44.87575" lon="-0.17255">
        <ele>14</ele>
      </trkpt>
      <trkpt lat="44.87548" lon="-0.17318">
        <ele>14</ele>
      </trkpt>
      <trkpt lat="44.87522" lon="-0.17379">
        <ele>14</ele>
      </trkpt>
      <trkpt lat="44.87506" lon="-0.17418">
        <ele>14</ele>
      </trkpt>
      <trkpt lat="44.87499" lon="-0.17435">
        <ele>14</ele>
      </trkpt>
      <trkpt lat="44.87468" lon="-0.17516">
        <ele>14</ele>
      </trkpt>
      <trkpt lat="44.8745" lon="-0.17566">
        <ele>14</ele>
      </trkpt>
      <trkpt lat="44.87439" lon="-0.17597">
        <ele>14</ele>
      </trkpt>
      <trkpt lat="44.87437" lon="-0.17607">
        <ele>14</ele>
      </trkpt>
      <trkpt lat="44.87431" lon="-0.17626">
        <ele>14</ele>
      </trkpt>
      <trkpt lat="44.87422" lon="-0.17656">
        <ele>14</ele>
      </trkpt>
      <trkpt lat="44.87413" lon="-0.17692">
        <ele>13.9</ele>
      </trkpt>
      <trkpt lat="44.87404" lon="-0.17728">
        <ele>13.4</ele>
      </trkpt>
      <trkpt lat="44.87398" lon="-0.17766">
        <ele>13</ele>
      </trkpt>
      <trkpt lat="44.87395" lon="-0.17795">
        <ele>13</ele>
      </trkpt>
      <trkpt lat="44.87386" lon="-0.17855">
        <ele>13</ele>
      </trkpt>
      <trkpt lat="44.87377" lon="-0.17915">
        <ele>12</ele>
      </trkpt>
      <trkpt lat="44.87365" lon="-0.17983">
        <ele>12</ele>
      </trkpt>
      <trkpt lat="44.87354" lon="-0.18042">
        <ele>12</ele>
      </trkpt>
      <trkpt lat="44.87347" lon="-0.1808">
        <ele>12</ele>
      </trkpt>
      <trkpt lat="44.87338" lon="-0.18119">
        <ele>12</ele>
      </trkpt>
      <trkpt lat="44.8733" lon="-0.18169">
        <ele>12</ele>
      </trkpt>
      <trkpt lat="44.87317" lon="-0.18228">
        <ele>12</ele>
      </trkpt>
      <trkpt lat="44.87311" lon="-0.1826">
        <ele>12</ele>
      </trkpt>
      <trkpt lat="44.8731" lon="-0.18266">
        <ele>12</ele>
      </trkpt>
      <trkpt lat="44.87309" lon="-0.18272">
        <ele>12</ele>
      </trkpt>
      <trkpt lat="44.87308" lon="-0.18282">
        <ele>11.8</ele>
      </trkpt>
      <trkpt lat="44.87299" lon="-0.18298">
        <ele>11.4</ele>
      </trkpt>
      <trkpt lat="44.8729" lon="-0.18311">
        <ele>11.6</ele>
      </trkpt>
      <trkpt lat="44.87254" lon="-0.18363">
        <ele>12</ele>
      </trkpt>
      <trkpt lat="44.87227" lon="-0.18397">
        <ele>11.4</ele>
      </trkpt>
      <trkpt lat="44.87183" lon="-0.18442">
        <ele>11</ele>
      </trkpt>
      <trkpt lat="44.87113" lon="-0.18515">
        <ele>10</ele>
      </trkpt>
      <trkpt lat="44.87081" lon="-0.18545">
        <ele>9</ele>
      </trkpt>
      <trkpt lat="44.87064" lon="-0.18566">
        <ele>9</ele>
      </trkpt>
      <trkpt lat="44.87046" lon="-0.18588">
        <ele>8.5</ele>
      </trkpt>
      <trkpt lat="44.87029" lon="-0.18613">
        <ele>8</ele>
      </trkpt>
      <trkpt lat="44.87009" lon="-0.18648">
        <ele>7.2</ele>
      </trkpt>
      <trkpt lat="44.8699" lon="-0.18689">
        <ele>7</ele>
      </trkpt>
      <trkpt lat="44.86967" lon="-0.18742">
        <ele>7</ele>
      </trkpt>
      <trkpt lat="44.86962" lon="-0.18754">
        <ele>7</ele>
      </trkpt>
      <trkpt lat="44.86957" lon="-0.18763">
        <ele>7</ele>
      </trkpt>
      <trkpt lat="44.86955" lon="-0.18773">
        <ele>7</ele>
      </trkpt>
      <trkpt lat="44.86954" lon="-0.18776">
        <ele>7</ele>
      </trkpt>
      <trkpt lat="44.86949" lon="-0.18794">
        <ele>7</ele>
      </trkpt>
      <trkpt lat="44.8694" lon="-0.18814">
        <ele>7</ele>
      </trkpt>
      <trkpt lat="44.86921" lon="-0.18854">
        <ele>7</ele>
      </trkpt>
      <trkpt lat="44.86897" lon="-0.18907">
        <ele>6.3</ele>
      </trkpt>
      <trkpt lat="44.8687" lon="-0.18967">
        <ele>6</ele>
      </trkpt>
      <trkpt lat="44.86863" lon="-0.18982">
        <ele>6</ele>
      </trkpt>
      <trkpt lat="44.86853" lon="-0.19003">
        <ele>6</ele>
      </trkpt>
      <trkpt lat="44.86849" lon="-0.19012">
        <ele>6</ele>
      </trkpt>
      <trkpt lat="44.86836" lon="-0.19039">
        <ele>6</ele>
      </trkpt>
      <trkpt lat="44.86834" lon="-0.19044">
        <ele>6</ele>
      </trkpt>
      <trkpt lat="44.8682" lon="-0.19079">
        <ele>6</ele>
      </trkpt>
      <trkpt lat="44.86807" lon="-0.1911">
        <ele>5.1</ele>
      </trkpt>
      <trkpt lat="44.86795" lon="-0.19142">
        <ele>5.6</ele>
      </trkpt>
      <trkpt lat="44.86786" lon="-0.19168">
        <ele>5.3</ele>
      </trkpt>
      <trkpt lat="44.86786" lon="-0.1917">
        <ele>5.4</ele>
      </trkpt>
      <trkpt lat="44.86785" lon="-0.19173">
        <ele>5.4</ele>
      </trkpt>
      <trkpt lat="44.86782" lon="-0.19185">
        <ele>5.7</ele>
      </trkpt>
      <trkpt lat="44.86781" lon="-0.19192">
        <ele>5.9</ele>
      </trkpt>
      <trkpt lat="44.86776" lon="-0.19223">
        <ele>5.1</ele>
      </trkpt>
      <trkpt lat="44.86772" lon="-0.19245">
        <ele>5</ele>
      </trkpt>
      <trkpt lat="44.86769" lon="-0.19264">
        <ele>5</ele>
      </trkpt>
      <trkpt lat="44.86768" lon="-0.19279">
        <ele>5</ele>
      </trkpt>
      <trkpt lat="44.86766" lon="-0.19294">
        <ele>5.3</ele>
      </trkpt>
      <trkpt lat="44.86763" lon="-0.19312">
        <ele>5.5</ele>
      </trkpt>
      <trkpt lat="44.86761" lon="-0.19328">
        <ele>5.4</ele>
      </trkpt>
      <trkpt lat="44.86757" lon="-0.19344">
        <ele>5.3</ele>
      </trkpt>
      <trkpt lat="44.86753" lon="-0.19357">
        <ele>5.1</ele>
      </trkpt>
      <trkpt lat="44.86749" lon="-0.19368">
        <ele>5</ele>
      </trkpt>
      <trkpt lat="44.86744" lon="-0.19379">
        <ele>5</ele>
      </trkpt>
      <trkpt lat="44.86739" lon="-0.19388">
        <ele>5</ele>
      </trkpt>
      <trkpt lat="44.86723" lon="-0.19402">
        <ele>5</ele>
      </trkpt>
      <trkpt lat="44.86706" lon="-0.19415">
        <ele>5</ele>
      </trkpt>
      <trkpt lat="44.86699" lon="-0.19421">
        <ele>5</ele>
      </trkpt>
      <trkpt lat="44.86689" lon="-0.19432">
        <ele>5</ele>
      </trkpt>
      <trkpt lat="44.86675" lon="-0.19454">
        <ele>5.2</ele>
      </trkpt>
      <trkpt lat="44.8666" lon="-0.19482">
        <ele>5.8</ele>
      </trkpt>
      <trkpt lat="44.86645" lon="-0.1951">
        <ele>5.1</ele>
      </trkpt>
      <trkpt lat="44.8664" lon="-0.19517">
        <ele>5</ele>
      </trkpt>
      <trkpt lat="44.86618" lon="-0.19553">
        <ele>5.3</ele>
      </trkpt>
      <trkpt lat="44.86597" lon="-0.19587">
        <ele>5</ele>
      </trkpt>
      <trkpt lat="44.86564" lon="-0.19634">
        <ele>5</ele>
      </trkpt>
      <trkpt lat="44.86561" lon="-0.19638">
        <ele>5</ele>
      </trkpt>
      <trkpt lat="44.8655" lon="-0.19656">
        <ele>5</ele>
      </trkpt>
      <trkpt lat="44.86544" lon="-0.19664">
        <ele>5</ele>
      </trkpt>
      <trkpt lat="44.86523" lon="-0.19696">
        <ele>5</ele>
      </trkpt>
      <trkpt lat="44.86496" lon="-0.19732">
        <ele>5</ele>
      </trkpt>
      <trkpt lat="44.86472" lon="-0.19767">
        <ele>5</ele>
      </trkpt>
      <trkpt lat="44.8644" lon="-0.19804">
        <ele>5</ele>
      </trkpt>
      <trkpt lat="44.86413" lon="-0.19836">
        <ele>5</ele>
      </trkpt>
      <trkpt lat="44.86389" lon="-0.19861">
        <ele>5</ele>
      </trkpt>
      <trkpt lat="44.86375" lon="-0.19877">
        <ele>5.3</ele>
      </trkpt>
      <trkpt lat="44.86368" lon="-0.19885">
        <ele>5.2</ele>
      </trkpt>
      <trkpt lat="44.86366" lon="-0.19887">
        <ele>5.2</ele>
      </trkpt>
      <trkpt lat="44.86365" lon="-0.1989">
        <ele>5.1</ele>
      </trkpt>
      <trkpt lat="44.86364" lon="-0.19892">
        <ele>5.1</ele>
      </trkpt>
      <trkpt lat="44.86364" lon="-0.19895">
        <ele>5.1</ele>
      </trkpt>
      <trkpt lat="44.86361" lon="-0.19896">
        <ele>5</ele>
      </trkpt>
      <trkpt lat="44.86359" lon="-0.19896">
        <ele>5</ele>
      </trkpt>
      <trkpt lat="44.86358" lon="-0.19897">
        <ele>5</ele>
      </trkpt>
      <trkpt lat="44.86356" lon="-0.19898">
        <ele>4.9</ele>
      </trkpt>
      <trkpt lat="44.86358" lon="-0.19897">
        <ele>5</ele>
      </trkpt>
      <trkpt lat="44.86359" lon="-0.19896">
        <ele>5</ele>
      </trkpt>
      <trkpt lat="44.86361" lon="-0.19896">
        <ele>5</ele>
      </trkpt>
      <trkpt lat="44.86364" lon="-0.19895">
        <ele>5.1</ele>
      </trkpt>
      <trkpt lat="44.86364" lon="-0.199">
        <ele>5.1</ele>
      </trkpt>
      <trkpt lat="44.86365" lon="-0.19903">
        <ele>5.1</ele>
      </trkpt>
      <trkpt lat="44.86368" lon="-0.1991">
        <ele>5.1</ele>
      </trkpt>
      <trkpt lat="44.86377" lon="-0.19924">
        <ele>5</ele>
      </trkpt>
      <trkpt lat="44.86397" lon="-0.19956">
        <ele>5</ele>
      </trkpt>
      <trkpt lat="44.86417" lon="-0.19989">
        <ele>5</ele>
      </trkpt>
      <trkpt lat="44.86423" lon="-0.20002">
        <ele>5</ele>
      </trkpt>
      <trkpt lat="44.86428" lon="-0.20017">
        <ele>5</ele>
      </trkpt>
      <trkpt lat="44.86433" lon="-0.20035">
        <ele>5</ele>
      </trkpt>
      <trkpt lat="44.86438" lon="-0.20056">
        <ele>5</ele>
      </trkpt>
      <trkpt lat="44.86442" lon="-0.20077">
        <ele>5</ele>
      </trkpt>
      <trkpt lat="44.86447" lon="-0.20095">
        <ele>5</ele>
      </trkpt>
      <trkpt lat="44.86451" lon="-0.20111">
        <ele>5</ele>
      </trkpt>
      <trkpt lat="44.86457" lon="-0.20131">
        <ele>4.6</ele>
      </trkpt>
      <trkpt lat="44.86463" lon="-0.20144">
        <ele>4.7</ele>
      </trkpt>
      <trkpt lat="44.86466" lon="-0.2015">
        <ele>4.8</ele>
      </trkpt>
      <trkpt lat="44.8647" lon="-0.20155">
        <ele>4.9</ele>
      </trkpt>
      <trkpt lat="44.86477" lon="-0.20166">
        <ele>4.8</ele>
      </trkpt>
      <trkpt lat="44.86485" lon="-0.20176">
        <ele>4.5</ele>
      </trkpt>
      <trkpt lat="44.86503" lon="-0.20197">
        <ele>4.8</ele>
      </trkpt>
      <trkpt lat="44.86512" lon="-0.20208">
        <ele>4.3</ele>
      </trkpt>
      <trkpt lat="44.86517" lon="-0.20213">
        <ele>4.1</ele>
      </trkpt>
      <trkpt lat="44.86521" lon="-0.20217">
        <ele>4</ele>
      </trkpt>
      <trkpt lat="44.86529" lon="-0.20224">
        <ele>4</ele>
      </trkpt>
      <trkpt lat="44.86529" lon="-0.20225">
        <ele>4</ele>
      </trkpt>
      <trkpt lat="44.86531" lon="-0.20227">
        <ele>4</ele>
      </trkpt>
      <trkpt lat="44.8653" lon="-0.2023">
        <ele>4</ele>
      </trkpt>
      <trkpt lat="44.8653" lon="-0.20233">
        <ele>4</ele>
      </trkpt>
      <trkpt lat="44.8653" lon="-0.20236">
        <ele>4</ele>
      </trkpt>
      <trkpt lat="44.8653" lon="-0.20238">
        <ele>4</ele>
      </trkpt>
      <trkpt lat="44.86531" lon="-0.20244">
        <ele>4</ele>
      </trkpt>
      <trkpt lat="44.86533" lon="-0.20254">
        <ele>4</ele>
      </trkpt>
      <trkpt lat="44.86534" lon="-0.20266">
        <ele>4</ele>
      </trkpt>
      <trkpt lat="44.86534" lon="-0.20276">
        <ele>4</ele>
      </trkpt>
      <trkpt lat="44.86534" lon="-0.20286">
        <ele>4</ele>
      </trkpt>
      <trkpt lat="44.86534" lon="-0.20294">
        <ele>4</ele>
      </trkpt>
      <trkpt lat="44.86532" lon="-0.20303">
        <ele>4</ele>
      </trkpt>
      <trkpt lat="44.86529" lon="-0.20312">
        <ele>4</ele>
      </trkpt>
      <trkpt lat="44.86525" lon="-0.20315">
        <ele>4</ele>
      </trkpt>
      <trkpt lat="44.86522" lon="-0.20317">
        <ele>3.9</ele>
      </trkpt>
      <trkpt lat="44.86518" lon="-0.20321">
        <ele>3.8</ele>
      </trkpt>
      <trkpt lat="44.86513" lon="-0.20323">
        <ele>3.7</ele>
      </trkpt>
      <trkpt lat="44.86507" lon="-0.20325">
        <ele>3.5</ele>
      </trkpt>
      <trkpt lat="44.86502" lon="-0.20326">
        <ele>3.3</ele>
      </trkpt>
      <trkpt lat="44.86496" lon="-0.20326">
        <ele>3.3</ele>
      </trkpt>
      <trkpt lat="44.86491" lon="-0.20326">
        <ele>3.3</ele>
      </trkpt>
      <trkpt lat="44.86484" lon="-0.20326">
        <ele>3.3</ele>
      </trkpt>
      <trkpt lat="44.86477" lon="-0.20326">
        <ele>3.3</ele>
      </trkpt>
      <trkpt lat="44.86471" lon="-0.20326">
        <ele>3.3</ele>
      </trkpt>
      <trkpt lat="44.86465" lon="-0.20326">
        <ele>3.5</ele>
      </trkpt>
      <trkpt lat="44.86458" lon="-0.20327">
        <ele>3.6</ele>
      </trkpt>
      <trkpt lat="44.86451" lon="-0.20328">
        <ele>3.8</ele>
      </trkpt>
      <trkpt lat="44.86446" lon="-0.20331">
        <ele>3.9</ele>
      </trkpt>
      <trkpt lat="44.86439" lon="-0.20334">
        <ele>4</ele>
      </trkpt>
      <trkpt lat="44.86434" lon="-0.20336">
        <ele>4</ele>
      </trkpt>
      <trkpt lat="44.86429" lon="-0.20339">
        <ele>4</ele>
      </trkpt>
      <trkpt lat="44.86424" lon="-0.20341">
        <ele>4</ele>
      </trkpt>
      <trkpt lat="44.86418" lon="-0.20343">
        <ele>4</ele>
      </trkpt>
      <trkpt lat="44.86412" lon="-0.20344">
        <ele>4</ele>
      </trkpt>
      <trkpt lat="44.86407" lon="-0.20344">
        <ele>4</ele>
      </trkpt>
      <trkpt lat="44.86402" lon="-0.20344">
        <ele>4</ele>
      </trkpt>
      <trkpt lat="44.86397" lon="-0.20344">
        <ele>4</ele>
      </trkpt>
      <trkpt lat="44.86391" lon="-0.20343">
        <ele>4</ele>
      </trkpt>
      <trkpt lat="44.86386" lon="-0.20343">
        <ele>3.9</ele>
      </trkpt>
      <trkpt lat="44.86383" lon="-0.20344">
        <ele>3.9</ele>
      </trkpt>
      <trkpt lat="44.8638" lon="-0.20346">
        <ele>3.8</ele>
      </trkpt>
      <trkpt lat="44.86378" lon="-0.20348">
        <ele>3.8</ele>
      </trkpt>
      <trkpt lat="44.86376" lon="-0.20352">
        <ele>3.8</ele>
      </trkpt>
      <trkpt lat="44.86374" lon="-0.20357">
        <ele>3.9</ele>
      </trkpt>
      <trkpt lat="44.86371" lon="-0.20367">
        <ele>4.1</ele>
      </trkpt>
      <trkpt lat="44.86361" lon="-0.20396">
        <ele>3.7</ele>
      </trkpt>
      <trkpt lat="44.86341" lon="-0.20462">
        <ele>3.5</ele>
      </trkpt>
      <trkpt lat="44.86313" lon="-0.2055">
        <ele>4</ele>
      </trkpt>
      <trkpt lat="44.86301" lon="-0.20591">
        <ele>3.3</ele>
      </trkpt>
      <trkpt lat="44.86281" lon="-0.20659">
        <ele>4</ele>
      </trkpt>
      <trkpt lat="44.86276" lon="-0.2067">
        <ele>4</ele>
      </trkpt>
      <trkpt lat="44.86273" lon="-0.20674">
        <ele>4</ele>
      </trkpt>
      <trkpt lat="44.86268" lon="-0.2068">
        <ele>4</ele>
      </trkpt>
      <trkpt lat="44.86242" lon="-0.20704">
        <ele>3.9</ele>
      </trkpt>
      <trkpt lat="44.86192" lon="-0.20744">
        <ele>4</ele>
      </trkpt>
      <trkpt lat="44.86128" lon="-0.20795">
        <ele>4</ele>
      </trkpt>
      <trkpt lat="44.86074" lon="-0.20834">
        <ele>4</ele>
      </trkpt>
      <trkpt lat="44.86029" lon="-0.20864">
        <ele>4</ele>
      </trkpt>
      <trkpt lat="44.86015" lon="-0.20873">
        <ele>4</ele>
      </trkpt>
      <trkpt lat="44.86008" lon="-0.20877">
        <ele>4</ele>
      </trkpt>
      <trkpt lat="44.85985" lon="-0.20892">
        <ele>4</ele>
      </trkpt>
      <trkpt lat="44.8596" lon="-0.20908">
        <ele>4</ele>
      </trkpt>
      <trkpt lat="44.8591" lon="-0.20935">
        <ele>3.7</ele>
      </trkpt>
      <trkpt lat="44.85873" lon="-0.20952">
        <ele>4</ele>
      </trkpt>
      <trkpt lat="44.85847" lon="-0.20963">
        <ele>4</ele>
      </trkpt>
      <trkpt lat="44.85826" lon="-0.2097">
        <ele>4</ele>
      </trkpt>
      <trkpt lat="44.85815" lon="-0.20973">
        <ele>4</ele>
      </trkpt>
      <trkpt lat="44.85806" lon="-0.20975">
        <ele>4</ele>
      </trkpt>
      <trkpt lat="44.85801" lon="-0.20975">
        <ele>3.9</ele>
      </trkpt>
      <trkpt lat="44.8579" lon="-0.20974">
        <ele>3.5</ele>
      </trkpt>
      <trkpt lat="44.8578" lon="-0.20973">
        <ele>3.1</ele>
      </trkpt>
      <trkpt lat="44.8579" lon="-0.20974">
        <ele>3.5</ele>
      </trkpt>
      <trkpt lat="44.8579" lon="-0.20974">
        <ele>3.5</ele>
      </trkpt>
      <trkpt lat="44.85788" lon="-0.20991">
        <ele>3.8</ele>
      </trkpt>
      <trkpt lat="44.85786" lon="-0.20998">
        <ele>3.9</ele>
      </trkpt>
      <trkpt lat="44.85784" lon="-0.21011">
        <ele>4</ele>
      </trkpt>
      <trkpt lat="44.8578" lon="-0.21028">
        <ele>4</ele>
      </trkpt>
      <trkpt lat="44.85771" lon="-0.2107">
        <ele>4</ele>
      </trkpt>
      <trkpt lat="44.85766" lon="-0.21101">
        <ele>4</ele>
      </trkpt>
      <trkpt lat="44.8576" lon="-0.21128">
        <ele>4</ele>
      </trkpt>
      <trkpt lat="44.85757" lon="-0.21136">
        <ele>4</ele>
      </trkpt>
      <trkpt lat="44.85754" lon="-0.21142">
        <ele>4</ele>
      </trkpt>
      <trkpt lat="44.85752" lon="-0.21145">
        <ele>4</ele>
      </trkpt>
      <trkpt lat="44.8575" lon="-0.21147">
        <ele>4</ele>
      </trkpt>
      <trkpt lat="44.85748" lon="-0.21149">
        <ele>4</ele>
      </trkpt>
      <trkpt lat="44.85745" lon="-0.21151">
        <ele>4</ele>
      </trkpt>
      <trkpt lat="44.85741" lon="-0.21153">
        <ele>4</ele>
      </trkpt>
      <trkpt lat="44.85736" lon="-0.21155">
        <ele>4</ele>
      </trkpt>
      <trkpt lat="44.85705" lon="-0.2116">
        <ele>4</ele>
      </trkpt>
      <trkpt lat="44.85677" lon="-0.21166">
        <ele>4</ele>
      </trkpt>
      <trkpt lat="44.85671" lon="-0.21169">
        <ele>4</ele>
      </trkpt>
      <trkpt lat="44.85663" lon="-0.21176">
        <ele>4</ele>
      </trkpt>
      <trkpt lat="44.85648" lon="-0.21191">
        <ele>4</ele>
      </trkpt>
      <trkpt lat="44.85631" lon="-0.21208">
        <ele>4</ele>
      </trkpt>
      <trkpt lat="44.8561" lon="-0.21223">
        <ele>4</ele>
      </trkpt>
      <trkpt lat="44.85556" lon="-0.21263">
        <ele>4</ele>
      </trkpt>
      <trkpt lat="44.85552" lon="-0.21267">
        <ele>4</ele>
      </trkpt>
      <trkpt lat="44.85547" lon="-0.21276">
        <ele>4</ele>
      </trkpt>
      <trkpt lat="44.85528" lon="-0.21316">
        <ele>4</ele>
      </trkpt>
      <trkpt lat="44.85525" lon="-0.21322">
        <ele>4</ele>
      </trkpt>
      <trkpt lat="44.85486" lon="-0.21391">
        <ele>4</ele>
      </trkpt>
      <trkpt lat="44.85445" lon="-0.21465">
        <ele>4</ele>
      </trkpt>
      <trkpt lat="44.85423" lon="-0.21505">
        <ele>4.9</ele>
      </trkpt>
      <trkpt lat="44.85414" lon="-0.21528">
        <ele>4.1</ele>
      </trkpt>
      <trkpt lat="44.85395" lon="-0.21577">
        <ele>4.8</ele>
      </trkpt>
      <trkpt lat="44.85387" lon="-0.21601">
        <ele>5</ele>
      </trkpt>
      <trkpt lat="44.85383" lon="-0.21623">
        <ele>5</ele>
      </trkpt>
      <trkpt lat="44.8538" lon="-0.2165">
        <ele>5</ele>
      </trkpt>
      <trkpt lat="44.85379" lon="-0.21678">
        <ele>5</ele>
      </trkpt>
      <trkpt lat="44.85378" lon="-0.21697">
        <ele>5</ele>
      </trkpt>
      <trkpt lat="44.85377" lon="-0.21715">
        <ele>5</ele>
      </trkpt>
      <trkpt lat="44.85375" lon="-0.21729">
        <ele>5.1</ele>
      </trkpt>
      <trkpt lat="44.8537" lon="-0.21744">
        <ele>5.3</ele>
      </trkpt>
      <trkpt lat="44.85362" lon="-0.21764">
        <ele>5</ele>
      </trkpt>
      <trkpt lat="44.85357" lon="-0.21769">
        <ele>4.8</ele>
      </trkpt>
      <trkpt lat="44.85367" lon="-0.21776">
        <ele>5</ele>
      </trkpt>
      <trkpt lat="44.85367" lon="-0.21776">
        <ele>5</ele>
      </trkpt>
      <trkpt lat="44.85357" lon="-0.21769">
        <ele>4.8</ele>
      </trkpt>
      <trkpt lat="44.85308" lon="-0.21715">
        <ele>5</ele>
      </trkpt>
      <trkpt lat="44.85272" lon="-0.21666">
        <ele>4.4</ele>
      </trkpt>
      <trkpt lat="44.85216" lon="-0.21567">
        <ele>4.9</ele>
      </trkpt>
      <trkpt lat="44.85197" lon="-0.21517">
        <ele>4.5</ele>
      </trkpt>
      <trkpt lat="44.85177" lon="-0.21464">
        <ele>3</ele>
      </trkpt>
      <trkpt lat="44.85162" lon="-0.21422">
        <ele>4.8</ele>
      </trkpt>
      <trkpt lat="44.85151" lon="-0.21387">
        <ele>4.9</ele>
      </trkpt>
      <trkpt lat="44.85121" lon="-0.21284">
        <ele>3.5</ele>
      </trkpt>
      <trkpt lat="44.85101" lon="-0.21207">
        <ele>3.5</ele>
      </trkpt>
      <trkpt lat="44.85084" lon="-0.21144">
        <ele>4.6</ele>
      </trkpt>
      <trkpt lat="44.85074" lon="-0.21105">
        <ele>3.7</ele>
      </trkpt>
      <trkpt lat="44.85065" lon="-0.21081">
        <ele>3.2</ele>
      </trkpt>
      <trkpt lat="44.85052" lon="-0.21046">
        <ele>4.5</ele>
      </trkpt>
      <trkpt lat="44.85037" lon="-0.21008">
        <ele>3.3</ele>
      </trkpt>
      <trkpt lat="44.85024" lon="-0.20978">
        <ele>4.1</ele>
      </trkpt>
      <trkpt lat="44.84998" lon="-0.20922">
        <ele>4.2</ele>
      </trkpt>
      <trkpt lat="44.84974" lon="-0.20875">
        <ele>4.1</ele>
      </trkpt>
      <trkpt lat="44.84953" lon="-0.20833">
        <ele>4.3</ele>
      </trkpt>
      <trkpt lat="44.84946" lon="-0.20821">
        <ele>4.5</ele>
      </trkpt>
      <trkpt lat="44.84927" lon="-0.20788">
        <ele>3.7</ele>
      </trkpt>
      <trkpt lat="44.84905" lon="-0.20752">
        <ele>3.3</ele>
      </trkpt>
      <trkpt lat="44.84884" lon="-0.20716">
        <ele>4.4</ele>
      </trkpt>
      <trkpt lat="44.84855" lon="-0.20676">
        <ele>3.9</ele>
      </trkpt>
      <trkpt lat="44.84838" lon="-0.20652">
        <ele>3.3</ele>
      </trkpt>
      <trkpt lat="44.8482" lon="-0.20628">
        <ele>3.8</ele>
      </trkpt>
      <trkpt lat="44.84811" lon="-0.2062">
        <ele>4</ele>
      </trkpt>
      <trkpt lat="44.84796" lon="-0.20608">
        <ele>3.8</ele>
      </trkpt>
      <trkpt lat="44.84766" lon="-0.20576">
        <ele>3.8</ele>
      </trkpt>
      <trkpt lat="44.84732" lon="-0.20538">
        <ele>4</ele>
      </trkpt>
      <trkpt lat="44.84692" lon="-0.20497">
        <ele>4.7</ele>
      </trkpt>
      <trkpt lat="44.84656" lon="-0.20462">
        <ele>4</ele>
      </trkpt>
      <trkpt lat="44.8461" lon="-0.20426">
        <ele>4</ele>
      </trkpt>
      <trkpt lat="44.8459" lon="-0.20412">
        <ele>4.4</ele>
      </trkpt>
      <trkpt lat="44.84536" lon="-0.20371">
        <ele>4</ele>
      </trkpt>
      <trkpt lat="44.84494" lon="-0.20338">
        <ele>4.5</ele>
      </trkpt>
      <trkpt lat="44.84446" lon="-0.20302">
        <ele>5.8</ele>
      </trkpt>
      <trkpt lat="44.84421" lon="-0.20281">
        <ele>5.4</ele>
      </trkpt>
      <trkpt lat="44.84388" lon="-0.2025">
        <ele>5.9</ele>
      </trkpt>
      <trkpt lat="44.84368" lon="-0.20231">
        <ele>5.5</ele>
      </trkpt>
      <trkpt lat="44.8435" lon="-0.20211">
        <ele>5.4</ele>
      </trkpt>
      <trkpt lat="44.84339" lon="-0.20203">
        <ele>5</ele>
      </trkpt>
      <trkpt lat="44.84324" lon="-0.20193">
        <ele>4.7</ele>
      </trkpt>
      <trkpt lat="44.8431" lon="-0.20184">
        <ele>4.5</ele>
      </trkpt>
      <trkpt lat="44.8426" lon="-0.20143">
        <ele>4.6</ele>
      </trkpt>
      <trkpt lat="44.84239" lon="-0.20124">
        <ele>4.3</ele>
      </trkpt>
      <trkpt lat="44.84195" lon="-0.20079">
        <ele>5</ele>
      </trkpt>
      <trkpt lat="44.84101" lon="-0.19985">
        <ele>4.7</ele>
      </trkpt>
      <trkpt lat="44.84081" lon="-0.19962">
        <ele>4.8</ele>
      </trkpt>
      <trkpt lat="44.84058" lon="-0.19935">
        <ele>5</ele>
      </trkpt>
      <trkpt lat="44.83923" lon="-0.19769">
        <ele>5</ele>
      </trkpt>
      <trkpt lat="44.83841" lon="-0.19666">
        <ele>5</ele>
      </trkpt>
      <trkpt lat="44.83775" lon="-0.1958">
        <ele>5</ele>
      </trkpt>
      <trkpt lat="44.83749" lon="-0.19549">
        <ele>6</ele>
      </trkpt>
      <trkpt lat="44.83722" lon="-0.19513">
        <ele>5.5</ele>
      </trkpt>
      <trkpt lat="44.83681" lon="-0.19451">
        <ele>5.2</ele>
      </trkpt>
      <trkpt lat="44.83661" lon="-0.19425">
        <ele>4.8</ele>
      </trkpt>
      <trkpt lat="44.83649" lon="-0.19413">
        <ele>5</ele>
      </trkpt>
      <trkpt lat="44.83631" lon="-0.19398">
        <ele>4.6</ele>
      </trkpt>
      <trkpt lat="44.83616" lon="-0.19386">
        <ele>5</ele>
      </trkpt>
      <trkpt lat="44.83603" lon="-0.19373">
        <ele>4.8</ele>
      </trkpt>
      <trkpt lat="44.83587" lon="-0.19352">
        <ele>4.4</ele>
      </trkpt>
      <trkpt lat="44.83564" lon="-0.1932">
        <ele>4.2</ele>
      </trkpt>
      <trkpt lat="44.8354" lon="-0.19283">
        <ele>5</ele>
      </trkpt>
      <trkpt lat="44.83518" lon="-0.19244">
        <ele>4.4</ele>
      </trkpt>
      <trkpt lat="44.83467" lon="-0.19146">
        <ele>5</ele>
      </trkpt>
      <trkpt lat="44.83423" lon="-0.19042">
        <ele>4.7</ele>
      </trkpt>
      <trkpt lat="44.83396" lon="-0.18962">
        <ele>5.3</ele>
      </trkpt>
      <trkpt lat="44.8339" lon="-0.1894">
        <ele>5.2</ele>
      </trkpt>
      <trkpt lat="44.83378" lon="-0.18904">
        <ele>4.6</ele>
      </trkpt>
      <trkpt lat="44.83367" lon="-0.1886">
        <ele>5.2</ele>
      </trkpt>
      <trkpt lat="44.83353" lon="-0.18796">
        <ele>4.5</ele>
      </trkpt>
      <trkpt lat="44.83335" lon="-0.18715">
        <ele>5</ele>
      </trkpt>
      <trkpt lat="44.83323" lon="-0.18662">
        <ele>4.6</ele>
      </trkpt>
      <trkpt lat="44.83318" lon="-0.18636">
        <ele>4.5</ele>
      </trkpt>
      <trkpt lat="44.83316" lon="-0.18621">
        <ele>4.9</ele>
      </trkpt>
      <trkpt lat="44.83316" lon="-0.18612">
        <ele>5.2</ele>
      </trkpt>
      <trkpt lat="44.83315" lon="-0.18572">
        <ele>4.2</ele>
      </trkpt>
      <trkpt lat="44.83316" lon="-0.18562">
        <ele>4.3</ele>
      </trkpt>
      <trkpt lat="44.83317" lon="-0.18553">
        <ele>4.4</ele>
      </trkpt>
      <trkpt lat="44.83321" lon="-0.18547">
        <ele>4.6</ele>
      </trkpt>
      <trkpt lat="44.83326" lon="-0.18542">
        <ele>5</ele>
      </trkpt>
      <trkpt lat="44.83343" lon="-0.18534">
        <ele>5.9</ele>
      </trkpt>
      <trkpt lat="44.8337" lon="-0.18521">
        <ele>5.7</ele>
      </trkpt>
      <trkpt lat="44.83416" lon="-0.185">
        <ele>6</ele>
      </trkpt>
      <trkpt lat="44.83435" lon="-0.18493">
        <ele>5.3</ele>
      </trkpt>
      <trkpt lat="44.83447" lon="-0.18486">
        <ele>5</ele>
      </trkpt>
      <trkpt lat="44.8348" lon="-0.18465">
        <ele>5</ele>
      </trkpt>
      <trkpt lat="44.83487" lon="-0.18461">
        <ele>5</ele>
      </trkpt>
      <trkpt lat="44.83497" lon="-0.18457">
        <ele>5</ele>
      </trkpt>
      <trkpt lat="44.83506" lon="-0.18454">
        <ele>5.1</ele>
      </trkpt>
      <trkpt lat="44.83513" lon="-0.18455">
        <ele>5.3</ele>
      </trkpt>
      <trkpt lat="44.83437" lon="-0.18523">
        <ele>5.7</ele>
      </trkpt>
      <trkpt lat="44.83414" lon="-0.18545">
        <ele>6.2</ele>
      </trkpt>
      <trkpt lat="44.83368" lon="-0.1859">
        <ele>7.8</ele>
      </trkpt>
      <trkpt lat="44.83361" lon="-0.18596">
        <ele>8</ele>
      </trkpt>
      <trkpt lat="44.83356" lon="-0.18601">
        <ele>8</ele>
      </trkpt>
      <trkpt lat="44.83351" lon="-0.18604">
        <ele>8.1</ele>
      </trkpt>
      <trkpt lat="44.83346" lon="-0.18607">
        <ele>8.3</ele>
      </trkpt>
      <trkpt lat="44.8334" lon="-0.18609">
        <ele>8.6</ele>
      </trkpt>
      <trkpt lat="44.83335" lon="-0.18611">
        <ele>8.9</ele>
      </trkpt>
      <trkpt lat="44.83331" lon="-0.18611">
        <ele>8.5</ele>
      </trkpt>
      <trkpt lat="44.83326" lon="-0.18612">
        <ele>7.3</ele>
      </trkpt>
      <trkpt lat="44.83315" lon="-0.18612">
        <ele>5</ele>
      </trkpt>
      <trkpt lat="44.83304" lon="-0.18612">
        <ele>3</ele>
      </trkpt>
      <trkpt lat="44.83293" lon="-0.18612">
        <ele>3</ele>
      </trkpt>
      <trkpt lat="44.83182" lon="-0.18614">
        <ele>4.6</ele>
      </trkpt>
      <trkpt lat="44.83181" lon="-0.18614">
        <ele>4.8</ele>
      </trkpt>
      <trkpt lat="44.83178" lon="-0.18614">
        <ele>5.6</ele>
      </trkpt>
      <trkpt lat="44.83173" lon="-0.18614">
        <ele>7</ele>
      </trkpt>
      <trkpt lat="44.83167" lon="-0.18613">
        <ele>8.7</ele>
      </trkpt>
      <trkpt lat="44.83162" lon="-0.18612">
        <ele>8.9</ele>
      </trkpt>
      <trkpt lat="44.83158" lon="-0.1861">
        <ele>8.9</ele>
      </trkpt>
      <trkpt lat="44.83152" lon="-0.18607">
        <ele>8.7</ele>
      </trkpt>
      <trkpt lat="44.83153" lon="-0.186">
        <ele>8.2</ele>
      </trkpt>
      <trkpt lat="44.83153" lon="-0.186">
        <ele>8.2</ele>
      </trkpt>
      <trkpt lat="44.83162" lon="-0.18565">
        <ele>6.2</ele>
      </trkpt>
      <trkpt lat="44.83168" lon="-0.18535">
        <ele>5.8</ele>
      </trkpt>
      <trkpt lat="44.83178" lon="-0.1848">
        <ele>5.3</ele>
      </trkpt>
      <trkpt lat="44.83189" lon="-0.18436">
        <ele>7.2</ele>
      </trkpt>
      <trkpt lat="44.83211" lon="-0.18354">
        <ele>5.2</ele>
      </trkpt>
      <trkpt lat="44.8323" lon="-0.1827">
        <ele>5.5</ele>
      </trkpt>
      <trkpt lat="44.83239" lon="-0.18234">
        <ele>5.3</ele>
      </trkpt>
      <trkpt lat="44.83264" lon="-0.18151">
        <ele>5.8</ele>
      </trkpt>
      <trkpt lat="44.83268" lon="-0.18137">
        <ele>6</ele>
      </trkpt>
      <trkpt lat="44.83271" lon="-0.1812">
        <ele>6</ele>
      </trkpt>
      <trkpt lat="44.83272" lon="-0.18112">
        <ele>6</ele>
      </trkpt>
      <trkpt lat="44.83272" lon="-0.18105">
        <ele>5.8</ele>
      </trkpt>
      <trkpt lat="44.83271" lon="-0.18097">
        <ele>5.6</ele>
      </trkpt>
      <trkpt lat="44.8327" lon="-0.1809">
        <ele>5.5</ele>
      </trkpt>
      <trkpt lat="44.83258" lon="-0.18045">
        <ele>4.9</ele>
      </trkpt>
      <trkpt lat="44.8325" lon="-0.18012">
        <ele>5</ele>
      </trkpt>
      <trkpt lat="44.83246" lon="-0.1799">
        <ele>4.8</ele>
      </trkpt>
      <trkpt lat="44.83241" lon="-0.17967">
        <ele>4.6</ele>
      </trkpt>
      <trkpt lat="44.83225" lon="-0.17861">
        <ele>4.9</ele>
      </trkpt>
      <trkpt lat="44.83224" lon="-0.1785">
        <ele>4.9</ele>
      </trkpt>
      <trkpt lat="44.83223" lon="-0.17839">
        <ele>5</ele>
      </trkpt>
      <trkpt lat="44.83223" lon="-0.17815">
        <ele>5</ele>
      </trkpt>
      <trkpt lat="44.83224" lon="-0.17793">
        <ele>4.9</ele>
      </trkpt>
      <trkpt lat="44.83229" lon="-0.17748">
        <ele>4.8</ele>
      </trkpt>
      <trkpt lat="44.83239" lon="-0.17676">
        <ele>5</ele>
      </trkpt>
      <trkpt lat="44.83241" lon="-0.17656">
        <ele>5</ele>
      </trkpt>
      <trkpt lat="44.83241" lon="-0.17647">
        <ele>5</ele>
      </trkpt>
      <trkpt lat="44.8324" lon="-0.17638">
        <ele>5</ele>
      </trkpt>
      <trkpt lat="44.83238" lon="-0.17629">
        <ele>4.8</ele>
      </trkpt>
      <trkpt lat="44.83236" lon="-0.1762">
        <ele>4.7</ele>
      </trkpt>
      <trkpt lat="44.83232" lon="-0.17613">
        <ele>4.7</ele>
      </trkpt>
      <trkpt lat="44.83228" lon="-0.17605">
        <ele>4.7</ele>
      </trkpt>
      <trkpt lat="44.83222" lon="-0.17598">
        <ele>5</ele>
      </trkpt>
      <trkpt lat="44.83211" lon="-0.17586">
        <ele>5.4</ele>
      </trkpt>
      <trkpt lat="44.83191" lon="-0.17567">
        <ele>6.1</ele>
      </trkpt>
      <trkpt lat="44.83184" lon="-0.17561">
        <ele>6.4</ele>
      </trkpt>
      <trkpt lat="44.83165" lon="-0.17541">
        <ele>7</ele>
      </trkpt>
      <trkpt lat="44.83159" lon="-0.17534">
        <ele>7.1</ele>
      </trkpt>
      <trkpt lat="44.83152" lon="-0.17524">
        <ele>7</ele>
      </trkpt>
      <trkpt lat="44.83148" lon="-0.17516">
        <ele>7</ele>
      </trkpt>
      <trkpt lat="44.83142" lon="-0.175">
        <ele>7</ele>
      </trkpt>
      <trkpt lat="44.83138" lon="-0.17484">
        <ele>7.1</ele>
      </trkpt>
      <trkpt lat="44.83136" lon="-0.17471">
        <ele>7.4</ele>
      </trkpt>
      <trkpt lat="44.83136" lon="-0.17452">
        <ele>7.6</ele>
      </trkpt>
      <trkpt lat="44.83136" lon="-0.17421">
        <ele>7.7</ele>
      </trkpt>
      <trkpt lat="44.83137" lon="-0.17386">
        <ele>8.2</ele>
      </trkpt>
      <trkpt lat="44.83135" lon="-0.17361">
        <ele>7.7</ele>
      </trkpt>
      <trkpt lat="44.83132" lon="-0.17342">
        <ele>7.4</ele>
      </trkpt>
      <trkpt lat="44.83129" lon="-0.17328">
        <ele>7.5</ele>
      </trkpt>
      <trkpt lat="44.83126" lon="-0.17316">
        <ele>8.2</ele>
      </trkpt>
      <trkpt lat="44.8312" lon="-0.17295">
        <ele>8.8</ele>
      </trkpt>
      <trkpt lat="44.83111" lon="-0.1727">
        <ele>8.7</ele>
      </trkpt>
      <trkpt lat="44.83082" lon="-0.17194">
        <ele>9.2</ele>
      </trkpt>
      <trkpt lat="44.83049" lon="-0.17116">
        <ele>9.6</ele>
      </trkpt>
      <trkpt lat="44.83031" lon="-0.17073">
        <ele>9.5</ele>
      </trkpt>
      <trkpt lat="44.83003" lon="-0.16994">
        <ele>9.7</ele>
      </trkpt>
      <trkpt lat="44.82993" lon="-0.16969">
        <ele>9.3</ele>
      </trkpt>
      <trkpt lat="44.82982" lon="-0.16947">
        <ele>9.6</ele>
      </trkpt>
      <trkpt lat="44.82974" lon="-0.16932">
        <ele>9.5</ele>
      </trkpt>
      <trkpt lat="44.82962" lon="-0.1691">
        <ele>9.6</ele>
      </trkpt>
      <trkpt lat="44.82952" lon="-0.16889">
        <ele>10.2</ele>
      </trkpt>
      <trkpt lat="44.82941" lon="-0.1687">
        <ele>9.8</ele>
      </trkpt>
      <trkpt lat="44.82932" lon="-0.16858">
        <ele>9.8</ele>
      </trkpt>
      <trkpt lat="44.82921" lon="-0.16846">
        <ele>10.6</ele>
      </trkpt>
      <trkpt lat="44.82914" lon="-0.1684">
        <ele>11.1</ele>
      </trkpt>
      <trkpt lat="44.82906" lon="-0.16836">
        <ele>11.4</ele>
      </trkpt>
      <trkpt lat="44.82906" lon="-0.16836">
        <ele>11.4</ele>
      </trkpt>
      <trkpt lat="44.82914" lon="-0.1684">
        <ele>11.1</ele>
      </trkpt>
      <trkpt lat="44.82918" lon="-0.16826">
        <ele>10.6</ele>
      </trkpt>
      <trkpt lat="44.82918" lon="-0.16817">
        <ele>10.3</ele>
      </trkpt>
      <trkpt lat="44.82918" lon="-0.16806">
        <ele>9.9</ele>
      </trkpt>
      <trkpt lat="44.82916" lon="-0.16795">
        <ele>9.7</ele>
      </trkpt>
      <trkpt lat="44.82904" lon="-0.16767">
        <ele>9.7</ele>
      </trkpt>
      <trkpt lat="44.82898" lon="-0.16747">
        <ele>9.6</ele>
      </trkpt>
      <trkpt lat="44.82897" lon="-0.16737">
        <ele>9.4</ele>
      </trkpt>
      <trkpt lat="44.82897" lon="-0.16729">
        <ele>9.2</ele>
      </trkpt>
      <trkpt lat="44.82899" lon="-0.16724">
        <ele>9</ele>
      </trkpt>
      <trkpt lat="44.82903" lon="-0.1672">
        <ele>9.1</ele>
      </trkpt>
      <trkpt lat="44.82958" lon="-0.16704">
        <ele>8</ele>
      </trkpt>
      <trkpt lat="44.82983" lon="-0.16696">
        <ele>8</ele>
      </trkpt>
      <trkpt lat="44.82994" lon="-0.1669">
        <ele>8</ele>
      </trkpt>
      <trkpt lat="44.83004" lon="-0.16682">
        <ele>7.9</ele>
      </trkpt>
      <trkpt lat="44.8301" lon="-0.16674">
        <ele>7.6</ele>
      </trkpt>
      <trkpt lat="44.83026" lon="-0.16651">
        <ele>7</ele>
      </trkpt>
      <trkpt lat="44.83027" lon="-0.1662">
        <ele>7</ele>
      </trkpt>
      <trkpt lat="44.83032" lon="-0.166">
        <ele>6.8</ele>
      </trkpt>
      <trkpt lat="44.83036" lon="-0.16578">
        <ele>6.7</ele>
      </trkpt>
      <trkpt lat="44.83042" lon="-0.1655">
        <ele>6.5</ele>
      </trkpt>
      <trkpt lat="44.8305" lon="-0.16526">
        <ele>6.8</ele>
      </trkpt>
      <trkpt lat="44.83055" lon="-0.16511">
        <ele>6.4</ele>
      </trkpt>
      <trkpt lat="44.83061" lon="-0.16492">
        <ele>6</ele>
      </trkpt>
      <trkpt lat="44.83063" lon="-0.16474">
        <ele>6</ele>
      </trkpt>
      <trkpt lat="44.83063" lon="-0.16455">
        <ele>6</ele>
      </trkpt>
      <trkpt lat="44.83056" lon="-0.16407">
        <ele>6</ele>
      </trkpt>
      <trkpt lat="44.83049" lon="-0.16382">
        <ele>6</ele>
      </trkpt>
      <trkpt lat="44.83042" lon="-0.16366">
        <ele>6</ele>
      </trkpt>
      <trkpt lat="44.83039" lon="-0.16362">
        <ele>6</ele>
      </trkpt>
      <trkpt lat="44.8303" lon="-0.16354">
        <ele>6</ele>
      </trkpt>
      <trkpt lat="44.8302" lon="-0.16349">
        <ele>6</ele>
      </trkpt>
      <trkpt lat="44.83006" lon="-0.16345">
        <ele>6</ele>
      </trkpt>
      <trkpt lat="44.8299" lon="-0.16339">
        <ele>6</ele>
      </trkpt>
      <trkpt lat="44.82983" lon="-0.16334">
        <ele>6</ele>
      </trkpt>
      <trkpt lat="44.82977" lon="-0.16328">
        <ele>6</ele>
      </trkpt>
      <trkpt lat="44.82964" lon="-0.16312">
        <ele>6</ele>
      </trkpt>
      <trkpt lat="44.82951" lon="-0.16294">
        <ele>6</ele>
      </trkpt>
      <trkpt lat="44.82941" lon="-0.16282">
        <ele>6</ele>
      </trkpt>
      <trkpt lat="44.82923" lon="-0.16263">
        <ele>6</ele>
      </trkpt>
      <trkpt lat="44.82906" lon="-0.16244">
        <ele>6</ele>
      </trkpt>
      <trkpt lat="44.82894" lon="-0.16224">
        <ele>6</ele>
      </trkpt>
      <trkpt lat="44.82884" lon="-0.16201">
        <ele>6</ele>
      </trkpt>
      <trkpt lat="44.82872" lon="-0.16166">
        <ele>6</ele>
      </trkpt>
      <trkpt lat="44.82857" lon="-0.16119">
        <ele>6</ele>
      </trkpt>
      <trkpt lat="44.82852" lon="-0.16091">
        <ele>6</ele>
      </trkpt>
      <trkpt lat="44.82847" lon="-0.1607">
        <ele>6</ele>
      </trkpt>
      <trkpt lat="44.82843" lon="-0.16056">
        <ele>6</ele>
      </trkpt>
      <trkpt lat="44.82838" lon="-0.16042">
        <ele>6</ele>
      </trkpt>
      <trkpt lat="44.82822" lon="-0.16009">
        <ele>6.1</ele>
      </trkpt>
      <trkpt lat="44.82811" lon="-0.1599">
        <ele>6</ele>
      </trkpt>
      <trkpt lat="44.82765" lon="-0.15908">
        <ele>6.5</ele>
      </trkpt>
      <trkpt lat="44.82757" lon="-0.15894">
        <ele>6.3</ele>
      </trkpt>
      <trkpt lat="44.82745" lon="-0.15868">
        <ele>6.2</ele>
      </trkpt>
      <trkpt lat="44.82731" lon="-0.15844">
        <ele>6.3</ele>
      </trkpt>
      <trkpt lat="44.82721" lon="-0.15827">
        <ele>5.6</ele>
      </trkpt>
      <trkpt lat="44.82711" lon="-0.15814">
        <ele>5.2</ele>
      </trkpt>
      <trkpt lat="44.82705" lon="-0.15808">
        <ele>5.3</ele>
      </trkpt>
      <trkpt lat="44.82695" lon="-0.15797">
        <ele>4.7</ele>
      </trkpt>
      <trkpt lat="44.82687" lon="-0.15791">
        <ele>4.5</ele>
      </trkpt>
      <trkpt lat="44.82678" lon="-0.15785">
        <ele>4.5</ele>
      </trkpt>
      <trkpt lat="44.82635" lon="-0.15762">
        <ele>5</ele>
      </trkpt>
      <trkpt lat="44.82611" lon="-0.15747">
        <ele>5.6</ele>
      </trkpt>
      <trkpt lat="44.8258" lon="-0.15731">
        <ele>5.7</ele>
      </trkpt>
      <trkpt lat="44.82551" lon="-0.15709">
        <ele>5.4</ele>
      </trkpt>
      <trkpt lat="44.82514" lon="-0.15678">
        <ele>6.1</ele>
      </trkpt>
      <trkpt lat="44.82479" lon="-0.15644">
        <ele>6.3</ele>
      </trkpt>
      <trkpt lat="44.82459" lon="-0.1562">
        <ele>5.9</ele>
      </trkpt>
      <trkpt lat="44.82445" lon="-0.156">
        <ele>5.7</ele>
      </trkpt>
      <trkpt lat="44.82409" lon="-0.15549">
        <ele>6.2</ele>
      </trkpt>
      <trkpt lat="44.82376" lon="-0.15504">
        <ele>5.7</ele>
      </trkpt>
      <trkpt lat="44.82245" lon="-0.15335">
        <ele>8.5</ele>
      </trkpt>
      <trkpt lat="44.8223" lon="-0.1532">
        <ele>8</ele>
      </trkpt>
      <trkpt lat="44.82214" lon="-0.15311">
        <ele>7.2</ele>
      </trkpt>
      <trkpt lat="44.82195" lon="-0.15308">
        <ele>6.6</ele>
      </trkpt>
      <trkpt lat="44.82138" lon="-0.15307">
        <ele>7.5</ele>
      </trkpt>
      <trkpt lat="44.82088" lon="-0.15304">
        <ele>7.1</ele>
      </trkpt>
      <trkpt lat="44.82062" lon="-0.15301">
        <ele>6.8</ele>
      </trkpt>
      <trkpt lat="44.82038" lon="-0.15295">
        <ele>8.2</ele>
      </trkpt>
      <trkpt lat="44.82007" lon="-0.15283">
        <ele>8.7</ele>
      </trkpt>
      <trkpt lat="44.81948" lon="-0.15251">
        <ele>8.8</ele>
      </trkpt>
      <trkpt lat="44.81923" lon="-0.15243">
        <ele>10.7</ele>
      </trkpt>
      <trkpt lat="44.8191" lon="-0.15242">
        <ele>10.9</ele>
      </trkpt>
      <trkpt lat="44.81901" lon="-0.15243">
        <ele>10.6</ele>
      </trkpt>
      <trkpt lat="44.81896" lon="-0.15243">
        <ele>10.4</ele>
      </trkpt>
      <trkpt lat="44.81881" lon="-0.1525">
        <ele>11</ele>
      </trkpt>
      <trkpt lat="44.81832" lon="-0.15155">
        <ele>8.3</ele>
      </trkpt>
      <trkpt lat="44.81814" lon="-0.15122">
        <ele>8.7</ele>
      </trkpt>
      <trkpt lat="44.81802" lon="-0.151">
        <ele>8.8</ele>
      </trkpt>
      <trkpt lat="44.81675" lon="-0.14901">
        <ele>6.7</ele>
      </trkpt>
      <trkpt lat="44.81656" lon="-0.14872">
        <ele>7</ele>
      </trkpt>
      <trkpt lat="44.81629" lon="-0.14829">
        <ele>6.7</ele>
      </trkpt>
      <trkpt lat="44.81604" lon="-0.14789">
        <ele>6.7</ele>
      </trkpt>
      <trkpt lat="44.81584" lon="-0.14755">
        <ele>7.6</ele>
      </trkpt>
      <trkpt lat="44.81578" lon="-0.14744">
        <ele>7.7</ele>
      </trkpt>
      <trkpt lat="44.81573" lon="-0.14731">
        <ele>7.8</ele>
      </trkpt>
      <trkpt lat="44.81569" lon="-0.14722">
        <ele>8</ele>
      </trkpt>
      <trkpt lat="44.81566" lon="-0.1471">
        <ele>6</ele>
      </trkpt>
      <trkpt lat="44.81562" lon="-0.14686">
        <ele>4.8</ele>
      </trkpt>
      <trkpt lat="44.8156" lon="-0.14672">
        <ele>7.5</ele>
      </trkpt>
      <trkpt lat="44.81557" lon="-0.1466">
        <ele>8.6</ele>
      </trkpt>
      <trkpt lat="44.81553" lon="-0.14648">
        <ele>8.2</ele>
      </trkpt>
      <trkpt lat="44.81542" lon="-0.14613">
        <ele>7.5</ele>
      </trkpt>
      <trkpt lat="44.81533" lon="-0.14587">
        <ele>7.1</ele>
      </trkpt>
      <trkpt lat="44.8151" lon="-0.1452">
        <ele>7.3</ele>
      </trkpt>
      <trkpt lat="44.81498" lon="-0.14485">
        <ele>8</ele>
      </trkpt>
      <trkpt lat="44.81493" lon="-0.1447">
        <ele>8.3</ele>
      </trkpt>
      <trkpt lat="44.81489" lon="-0.14458">
        <ele>8.7</ele>
      </trkpt>
      <trkpt lat="44.81452" lon="-0.14351">
        <ele>10.5</ele>
      </trkpt>
      <trkpt lat="44.81437" lon="-0.14308">
        <ele>12.4</ele>
      </trkpt>
      <trkpt lat="44.81419" lon="-0.14268">
        <ele>12.9</ele>
      </trkpt>
      <trkpt lat="44.81404" lon="-0.14236">
        <ele>13.4</ele>
      </trkpt>
      <trkpt lat="44.81394" lon="-0.1422">
        <ele>13.6</ele>
      </trkpt>
      <trkpt lat="44.8138" lon="-0.142">
        <ele>13.5</ele>
      </trkpt>
      <trkpt lat="44.81374" lon="-0.14191">
        <ele>13.5</ele>
      </trkpt>
      <trkpt lat="44.81371" lon="-0.14185">
        <ele>13.6</ele>
      </trkpt>
      <trkpt lat="44.8137" lon="-0.14181">
        <ele>13.7</ele>
      </trkpt>
      <trkpt lat="44.81368" lon="-0.14178">
        <ele>13.8</ele>
      </trkpt>
      <trkpt lat="44.81367" lon="-0.14171">
        <ele>13.8</ele>
      </trkpt>
      <trkpt lat="44.81364" lon="-0.14163">
        <ele>13.9</ele>
      </trkpt>
      <trkpt lat="44.81367" lon="-0.14158">
        <ele>13.7</ele>
      </trkpt>
      <trkpt lat="44.81369" lon="-0.14153">
        <ele>13.6</ele>
      </trkpt>
      <trkpt lat="44.81371" lon="-0.14146">
        <ele>13.4</ele>
      </trkpt>
      <trkpt lat="44.81372" lon="-0.14141">
        <ele>13.2</ele>
      </trkpt>
      <trkpt lat="44.81373" lon="-0.14136">
        <ele>13.2</ele>
      </trkpt>
      <trkpt lat="44.81375" lon="-0.14129">
        <ele>13</ele>
      </trkpt>
      <trkpt lat="44.81377" lon="-0.14122">
        <ele>12.8</ele>
      </trkpt>
      <trkpt lat="44.81379" lon="-0.14114">
        <ele>12.5</ele>
      </trkpt>
      <trkpt lat="44.8138" lon="-0.14107">
        <ele>12</ele>
      </trkpt>
      <trkpt lat="44.81381" lon="-0.141">
        <ele>11.4</ele>
      </trkpt>
      <trkpt lat="44.81381" lon="-0.14092">
        <ele>11</ele>
      </trkpt>
      <trkpt lat="44.81381" lon="-0.1408">
        <ele>10.4</ele>
      </trkpt>
      <trkpt lat="44.8138" lon="-0.1407">
        <ele>10.4</ele>
      </trkpt>
      <trkpt lat="44.81379" lon="-0.14059">
        <ele>10.5</ele>
      </trkpt>
      <trkpt lat="44.81376" lon="-0.1404">
        <ele>9.8</ele>
      </trkpt>
      <trkpt lat="44.81374" lon="-0.14024">
        <ele>8.9</ele>
      </trkpt>
      <trkpt lat="44.81371" lon="-0.14011">
        <ele>8.5</ele>
      </trkpt>
      <trkpt lat="44.81368" lon="-0.13996">
        <ele>8</ele>
      </trkpt>
      <trkpt lat="44.81366" lon="-0.13989">
        <ele>7.9</ele>
      </trkpt>
      <trkpt lat="44.81364" lon="-0.13982">
        <ele>7.8</ele>
      </trkpt>
      <trkpt lat="44.81359" lon="-0.13965">
        <ele>7.6</ele>
      </trkpt>
      <trkpt lat="44.81352" lon="-0.13941">
        <ele>6.8</ele>
      </trkpt>
      <trkpt lat="44.8135" lon="-0.13928">
        <ele>6.8</ele>
      </trkpt>
      <trkpt lat="44.81349" lon="-0.13922">
        <ele>6.8</ele>
      </trkpt>
      <trkpt lat="44.81349" lon="-0.13917">
        <ele>6.6</ele>
      </trkpt>
      <trkpt lat="44.81349" lon="-0.13914">
        <ele>6.5</ele>
      </trkpt>
      <trkpt lat="44.8135" lon="-0.13912">
        <ele>6.1</ele>
      </trkpt>
      <trkpt lat="44.81352" lon="-0.13909">
        <ele>5.5</ele>
      </trkpt>
      <trkpt lat="44.81355" lon="-0.13906">
        <ele>4.6</ele>
      </trkpt>
      <trkpt lat="44.81357" lon="-0.13905">
        <ele>4.1</ele>
      </trkpt>
      <trkpt lat="44.81362" lon="-0.13902">
        <ele>2.9</ele>
      </trkpt>
      <trkpt lat="44.81405" lon="-0.13883">
        <ele>2</ele>
      </trkpt>
      <trkpt lat="44.81458" lon="-0.13854">
        <ele>2</ele>
      </trkpt>
      <trkpt lat="44.81482" lon="-0.1384">
        <ele>3.9</ele>
      </trkpt>
      <trkpt lat="44.81507" lon="-0.13825">
        <ele>7.4</ele>
      </trkpt>
      <trkpt lat="44.81523" lon="-0.13814">
        <ele>7.4</ele>
      </trkpt>
      <trkpt lat="44.81556" lon="-0.1379">
        <ele>7</ele>
      </trkpt>
      <trkpt lat="44.81587" lon="-0.13762">
        <ele>7.3</ele>
      </trkpt>
      <trkpt lat="44.81622" lon="-0.13727">
        <ele>6.9</ele>
      </trkpt>
      <trkpt lat="44.81632" lon="-0.13714">
        <ele>6.9</ele>
      </trkpt>
      <trkpt lat="44.81637" lon="-0.13706">
        <ele>7</ele>
      </trkpt>
      <trkpt lat="44.81643" lon="-0.13693">
        <ele>7</ele>
      </trkpt>
      <trkpt lat="44.81656" lon="-0.13667">
        <ele>7</ele>
      </trkpt>
      <trkpt lat="44.8166" lon="-0.13663">
        <ele>7</ele>
      </trkpt>
      <trkpt lat="44.81664" lon="-0.1366">
        <ele>7</ele>
      </trkpt>
      <trkpt lat="44.81672" lon="-0.13654">
        <ele>7</ele>
      </trkpt>
      <trkpt lat="44.8169" lon="-0.13646">
        <ele>7</ele>
      </trkpt>
      <trkpt lat="44.81725" lon="-0.13632">
        <ele>7</ele>
      </trkpt>
      <trkpt lat="44.81731" lon="-0.13629">
        <ele>7</ele>
      </trkpt>
      <trkpt lat="44.81761" lon="-0.13618">
        <ele>7</ele>
      </trkpt>
      <trkpt lat="44.81763" lon="-0.13617">
        <ele>7</ele>
      </trkpt>
      <trkpt lat="44.8178" lon="-0.13612">
        <ele>7</ele>
      </trkpt>
      <trkpt lat="44.81794" lon="-0.13608">
        <ele>7</ele>
      </trkpt>
      <trkpt lat="44.81811" lon="-0.13602">
        <ele>7</ele>
      </trkpt>
      <trkpt lat="44.81822" lon="-0.13597">
        <ele>7</ele>
      </trkpt>
      <trkpt lat="44.81832" lon="-0.13591">
        <ele>7</ele>
      </trkpt>
      <trkpt lat="44.81839" lon="-0.13588">
        <ele>7</ele>
      </trkpt>
      <trkpt lat="44.81847" lon="-0.13586">
        <ele>7</ele>
      </trkpt>
      <trkpt lat="44.81878" lon="-0.13574">
        <ele>7</ele>
      </trkpt>
      <trkpt lat="44.81897" lon="-0.13567">
        <ele>7</ele>
      </trkpt>
      <trkpt lat="44.8192" lon="-0.1356">
        <ele>7</ele>
      </trkpt>
      <trkpt lat="44.8193" lon="-0.13558">
        <ele>7</ele>
      </trkpt>
      <trkpt lat="44.81938" lon="-0.13556">
        <ele>7</ele>
      </trkpt>
      <trkpt lat="44.81946" lon="-0.13555">
        <ele>7</ele>
      </trkpt>
      <trkpt lat="44.81952" lon="-0.13552">
        <ele>7</ele>
      </trkpt>
      <trkpt lat="44.8196" lon="-0.13547">
        <ele>7.2</ele>
      </trkpt>
      <trkpt lat="44.81966" lon="-0.13544">
        <ele>7.3</ele>
      </trkpt>
      <trkpt lat="44.81973" lon="-0.13542">
        <ele>7.5</ele>
      </trkpt>
      <trkpt lat="44.81986" lon="-0.1354">
        <ele>7.6</ele>
      </trkpt>
      <trkpt lat="44.81994" lon="-0.1354">
        <ele>7.6</ele>
      </trkpt>
      <trkpt lat="44.81995" lon="-0.1354">
        <ele>7.6</ele>
      </trkpt>
      <trkpt lat="44.82" lon="-0.13541">
        <ele>7.5</ele>
      </trkpt>
      <trkpt lat="44.82004" lon="-0.13541">
        <ele>7.4</ele>
      </trkpt>
      <trkpt lat="44.82012" lon="-0.13541">
        <ele>7.3</ele>
      </trkpt>
      <trkpt lat="44.82012" lon="-0.13517">
        <ele>7.3</ele>
      </trkpt>
      <trkpt lat="44.82012" lon="-0.13497">
        <ele>7</ele>
      </trkpt>
      <trkpt lat="44.82012" lon="-0.13493">
        <ele>7</ele>
      </trkpt>
      <trkpt lat="44.8201" lon="-0.1345">
        <ele>7</ele>
      </trkpt>
      <trkpt lat="44.82011" lon="-0.13422">
        <ele>7</ele>
      </trkpt>
      <trkpt lat="44.82012" lon="-0.13405">
        <ele>7</ele>
      </trkpt>
      <trkpt lat="44.82013" lon="-0.13391">
        <ele>7</ele>
      </trkpt>
      <trkpt lat="44.82018" lon="-0.13368">
        <ele>7</ele>
      </trkpt>
      <trkpt lat="44.82023" lon="-0.13339">
        <ele>7</ele>
      </trkpt>
      <trkpt lat="44.82033" lon="-0.13294">
        <ele>7.3</ele>
      </trkpt>
      <trkpt lat="44.82038" lon="-0.13267">
        <ele>7.4</ele>
      </trkpt>
      <trkpt lat="44.82043" lon="-0.13246">
        <ele>7.1</ele>
      </trkpt>
      <trkpt lat="44.82053" lon="-0.13197">
        <ele>6.3</ele>
      </trkpt>
      <trkpt lat="44.82061" lon="-0.13163">
        <ele>6.9</ele>
      </trkpt>
      <trkpt lat="44.82063" lon="-0.13155">
        <ele>6.7</ele>
      </trkpt>
      <trkpt lat="44.82067" lon="-0.13148">
        <ele>6.6</ele>
      </trkpt>
      <trkpt lat="44.82074" lon="-0.13136">
        <ele>6.4</ele>
      </trkpt>
      <trkpt lat="44.82079" lon="-0.13128">
        <ele>5.9</ele>
      </trkpt>
      <trkpt lat="44.82086" lon="-0.1312">
        <ele>5.8</ele>
      </trkpt>
      <trkpt lat="44.821" lon="-0.13107">
        <ele>5.8</ele>
      </trkpt>
      <trkpt lat="44.82112" lon="-0.13097">
        <ele>6</ele>
      </trkpt>
      <trkpt lat="44.82135" lon="-0.13079">
        <ele>5.5</ele>
      </trkpt>
      <trkpt lat="44.82144" lon="-0.13071">
        <ele>5.3</ele>
      </trkpt>
      <trkpt lat="44.82158" lon="-0.13058">
        <ele>5.4</ele>
      </trkpt>
      <trkpt lat="44.82171" lon="-0.13046">
        <ele>5.5</ele>
      </trkpt>
      <trkpt lat="44.82183" lon="-0.1303">
        <ele>5.8</ele>
      </trkpt>
      <trkpt lat="44.82202" lon="-0.13005">
        <ele>6.4</ele>
      </trkpt>
      <trkpt lat="44.82216" lon="-0.12986">
        <ele>6</ele>
      </trkpt>
      <trkpt lat="44.82245" lon="-0.12938">
        <ele>6.4</ele>
      </trkpt>
      <trkpt lat="44.82264" lon="-0.12908">
        <ele>5.8</ele>
      </trkpt>
      <trkpt lat="44.82277" lon="-0.12881">
        <ele>6.6</ele>
      </trkpt>
      <trkpt lat="44.82288" lon="-0.12855">
        <ele>6.2</ele>
      </trkpt>
      <trkpt lat="44.82299" lon="-0.12824">
        <ele>6</ele>
      </trkpt>
      <trkpt lat="44.82306" lon="-0.12807">
        <ele>6.1</ele>
      </trkpt>
      <trkpt lat="44.82316" lon="-0.1278">
        <ele>6.3</ele>
      </trkpt>
      <trkpt lat="44.82325" lon="-0.12757">
        <ele>5.7</ele>
      </trkpt>
      <trkpt lat="44.82341" lon="-0.12721">
        <ele>6</ele>
      </trkpt>
      <trkpt lat="44.82358" lon="-0.12683">
        <ele>5.7</ele>
      </trkpt>
      <trkpt lat="44.82359" lon="-0.12681">
        <ele>5.8</ele>
      </trkpt>
      <trkpt lat="44.82379" lon="-0.12638">
        <ele>6</ele>
      </trkpt>
      <trkpt lat="44.82397" lon="-0.12588">
        <ele>6.3</ele>
      </trkpt>
      <trkpt lat="44.82407" lon="-0.12556">
        <ele>6</ele>
      </trkpt>
      <trkpt lat="44.82417" lon="-0.12525">
        <ele>6</ele>
      </trkpt>
      <trkpt lat="44.82425" lon="-0.12491">
        <ele>6</ele>
      </trkpt>
      <trkpt lat="44.82439" lon="-0.1244">
        <ele>6.8</ele>
      </trkpt>
      <trkpt lat="44.82449" lon="-0.12391">
        <ele>7.2</ele>
      </trkpt>
      <trkpt lat="44.82456" lon="-0.12344">
        <ele>7.2</ele>
      </trkpt>
      <trkpt lat="44.82461" lon="-0.123">
        <ele>6.4</ele>
      </trkpt>
      <trkpt lat="44.82469" lon="-0.12237">
        <ele>7.4</ele>
      </trkpt>
      <trkpt lat="44.82474" lon="-0.12203">
        <ele>7.3</ele>
      </trkpt>
      <trkpt lat="44.82475" lon="-0.12199">
        <ele>7.1</ele>
      </trkpt>
      <trkpt lat="44.8248" lon="-0.12176">
        <ele>7.5</ele>
      </trkpt>
      <trkpt lat="44.82488" lon="-0.12153">
        <ele>7.4</ele>
      </trkpt>
      <trkpt lat="44.82495" lon="-0.1213">
        <ele>7.1</ele>
      </trkpt>
      <trkpt lat="44.82502" lon="-0.12113">
        <ele>7</ele>
      </trkpt>
      <trkpt lat="44.82508" lon="-0.121">
        <ele>7</ele>
      </trkpt>
      <trkpt lat="44.82515" lon="-0.12088">
        <ele>7</ele>
      </trkpt>
      <trkpt lat="44.82527" lon="-0.12065">
        <ele>7</ele>
      </trkpt>
      <trkpt lat="44.82548" lon="-0.12028">
        <ele>6.3</ele>
      </trkpt>
      <trkpt lat="44.8258" lon="-0.11968">
        <ele>6.1</ele>
      </trkpt>
      <trkpt lat="44.82605" lon="-0.11918">
        <ele>6</ele>
      </trkpt>
      <trkpt lat="44.82626" lon="-0.11877">
        <ele>6</ele>
      </trkpt>
      <trkpt lat="44.82633" lon="-0.11861">
        <ele>6</ele>
      </trkpt>
      <trkpt lat="44.82641" lon="-0.11838">
        <ele>6</ele>
      </trkpt>
      <trkpt lat="44.82654" lon="-0.11797">
        <ele>6</ele>
      </trkpt>
      <trkpt lat="44.82662" lon="-0.11772">
        <ele>6</ele>
      </trkpt>
      <trkpt lat="44.82667" lon="-0.11762">
        <ele>6</ele>
      </trkpt>
      <trkpt lat="44.82671" lon="-0.11754">
        <ele>6</ele>
      </trkpt>
      <trkpt lat="44.82677" lon="-0.11749">
        <ele>6</ele>
      </trkpt>
      <trkpt lat="44.82686" lon="-0.11745">
        <ele>6.1</ele>
      </trkpt>
      <trkpt lat="44.82697" lon="-0.11741">
        <ele>6</ele>
      </trkpt>
      <trkpt lat="44.82713" lon="-0.11737">
        <ele>6</ele>
      </trkpt>
      <trkpt lat="44.82725" lon="-0.11734">
        <ele>6.1</ele>
      </trkpt>
      <trkpt lat="44.82733" lon="-0.11732">
        <ele>6.3</ele>
      </trkpt>
      <trkpt lat="44.82741" lon="-0.1173">
        <ele>6.5</ele>
      </trkpt>
      <trkpt lat="44.82774" lon="-0.1172">
        <ele>7</ele>
      </trkpt>
      <trkpt lat="44.82811" lon="-0.11709">
        <ele>7.6</ele>
      </trkpt>
      <trkpt lat="44.82845" lon="-0.117">
        <ele>7.9</ele>
      </trkpt>
      <trkpt lat="44.82855" lon="-0.11698">
        <ele>7.9</ele>
      </trkpt>
      <trkpt lat="44.82855" lon="-0.11698">
        <ele>7.9</ele>
      </trkpt>
      <trkpt lat="44.82853" lon="-0.11687">
        <ele>7.8</ele>
      </trkpt>
      <trkpt lat="44.82853" lon="-0.11683">
        <ele>7.7</ele>
      </trkpt>
      <trkpt lat="44.82846" lon="-0.11652">
        <ele>7.8</ele>
      </trkpt>
      <trkpt lat="44.82838" lon="-0.11609">
        <ele>8</ele>
      </trkpt>
      <trkpt lat="44.82832" lon="-0.1157">
        <ele>8</ele>
      </trkpt>
      <trkpt lat="44.82822" lon="-0.11493">
        <ele>8</ele>
      </trkpt>
      <trkpt lat="44.82821" lon="-0.11469">
        <ele>8</ele>
      </trkpt>
      <trkpt lat="44.82818" lon="-0.11427">
        <ele>8</ele>
      </trkpt>
      <trkpt lat="44.82816" lon="-0.11375">
        <ele>8.2</ele>
      </trkpt>
      <trkpt lat="44.82817" lon="-0.11368">
        <ele>8.3</ele>
      </trkpt>
      <trkpt lat="44.82819" lon="-0.11361">
        <ele>8.5</ele>
      </trkpt>
      <trkpt lat="44.82822" lon="-0.11349">
        <ele>8.8</ele>
      </trkpt>
      <trkpt lat="44.82828" lon="-0.1135">
        <ele>8.9</ele>
      </trkpt>
      <trkpt lat="44.82845" lon="-0.11353">
        <ele>8.6</ele>
      </trkpt>
      <trkpt lat="44.82871" lon="-0.11356">
        <ele>8</ele>
      </trkpt>
      <trkpt lat="44.82912" lon="-0.11364">
        <ele>8</ele>
      </trkpt>
      <trkpt lat="44.82936" lon="-0.11367">
        <ele>7.3</ele>
      </trkpt>
      <trkpt lat="44.82942" lon="-0.11367">
        <ele>7.1</ele>
      </trkpt>
      <trkpt lat="44.82963" lon="-0.11368">
        <ele>7</ele>
      </trkpt>
      <trkpt lat="44.8299" lon="-0.11368">
        <ele>7</ele>
      </trkpt>
      <trkpt lat="44.83013" lon="-0.11366">
        <ele>7</ele>
      </trkpt>
      <trkpt lat="44.83031" lon="-0.11364">
        <ele>7</ele>
      </trkpt>
      <trkpt lat="44.83042" lon="-0.11362">
        <ele>7</ele>
      </trkpt>
      <trkpt lat="44.83063" lon="-0.11359">
        <ele>7</ele>
      </trkpt>
      <trkpt lat="44.83089" lon="-0.11354">
        <ele>7</ele>
      </trkpt>
      <trkpt lat="44.83121" lon="-0.11348">
        <ele>7</ele>
      </trkpt>
      <trkpt lat="44.83155" lon="-0.1134">
        <ele>7.1</ele>
      </trkpt>
      <trkpt lat="44.83184" lon="-0.11336">
        <ele>7</ele>
      </trkpt>
      <trkpt lat="44.83208" lon="-0.11334">
        <ele>7</ele>
      </trkpt>
      <trkpt lat="44.83222" lon="-0.11334">
        <ele>7</ele>
      </trkpt>
      <trkpt lat="44.83237" lon="-0.11337">
        <ele>7</ele>
      </trkpt>
      <trkpt lat="44.83246" lon="-0.11338">
        <ele>7</ele>
      </trkpt>
      <trkpt lat="44.83259" lon="-0.11342">
        <ele>7</ele>
      </trkpt>
      <trkpt lat="44.83282" lon="-0.11351">
        <ele>7</ele>
      </trkpt>
      <trkpt lat="44.83293" lon="-0.11354">
        <ele>7</ele>
      </trkpt>
      <trkpt lat="44.83296" lon="-0.11355">
        <ele>7</ele>
      </trkpt>
      <trkpt lat="44.83319" lon="-0.1136">
        <ele>7</ele>
      </trkpt>
      <trkpt lat="44.83348" lon="-0.11363">
        <ele>7</ele>
      </trkpt>
      <trkpt lat="44.83378" lon="-0.11366">
        <ele>7.1</ele>
      </trkpt>
      <trkpt lat="44.83401" lon="-0.11367">
        <ele>7.5</ele>
      </trkpt>
      <trkpt lat="44.83423" lon="-0.11368">
        <ele>7.6</ele>
      </trkpt>
      <trkpt lat="44.83449" lon="-0.11367">
        <ele>7.2</ele>
      </trkpt>
      <trkpt lat="44.83479" lon="-0.11366">
        <ele>7</ele>
      </trkpt>
      <trkpt lat="44.83501" lon="-0.11366">
        <ele>7.2</ele>
      </trkpt>
      <trkpt lat="44.83506" lon="-0.11365">
        <ele>7.1</ele>
      </trkpt>
      <trkpt lat="44.83517" lon="-0.11376">
        <ele>7.2</ele>
      </trkpt>
      <trkpt lat="44.83531" lon="-0.11397">
        <ele>7</ele>
      </trkpt>
      <trkpt lat="44.83541" lon="-0.11416">
        <ele>7</ele>
      </trkpt>
      <trkpt lat="44.83561" lon="-0.11458">
        <ele>7.1</ele>
      </trkpt>
      <trkpt lat="44.83561" lon="-0.11459">
        <ele>7.1</ele>
      </trkpt>
      <trkpt lat="44.83568" lon="-0.11474">
        <ele>7.4</ele>
      </trkpt>
      <trkpt lat="44.83574" lon="-0.11488">
        <ele>7.3</ele>
      </trkpt>
      <trkpt lat="44.83582" lon="-0.115">
        <ele>7</ele>
      </trkpt>
      <trkpt lat="44.83597" lon="-0.1152">
        <ele>7</ele>
      </trkpt>
      <trkpt lat="44.83616" lon="-0.1154">
        <ele>7</ele>
      </trkpt>
      <trkpt lat="44.83638" lon="-0.1156">
        <ele>7</ele>
      </trkpt>
      <trkpt lat="44.83652" lon="-0.1157">
        <ele>7</ele>
      </trkpt>
      <trkpt lat="44.83664" lon="-0.11575">
        <ele>7</ele>
      </trkpt>
      <trkpt lat="44.8368" lon="-0.1158">
        <ele>7</ele>
      </trkpt>
      <trkpt lat="44.83691" lon="-0.11584">
        <ele>7</ele>
      </trkpt>
      <trkpt lat="44.83703" lon="-0.11589">
        <ele>7.2</ele>
      </trkpt>
      <trkpt lat="44.83714" lon="-0.11596">
        <ele>7.4</ele>
      </trkpt>
      <trkpt lat="44.83726" lon="-0.11603">
        <ele>7.3</ele>
      </trkpt>
      <trkpt lat="44.83738" lon="-0.11613">
        <ele>7</ele>
      </trkpt>
      <trkpt lat="44.83751" lon="-0.11626">
        <ele>7</ele>
      </trkpt>
      <trkpt lat="44.83763" lon="-0.11641">
        <ele>7.5</ele>
      </trkpt>
      <trkpt lat="44.83768" lon="-0.11647">
        <ele>7.6</ele>
      </trkpt>
      <trkpt lat="44.83773" lon="-0.11654">
        <ele>7.5</ele>
      </trkpt>
      <trkpt lat="44.83781" lon="-0.1167">
        <ele>7.1</ele>
      </trkpt>
      <trkpt lat="44.83786" lon="-0.11676">
        <ele>7.3</ele>
      </trkpt>
      <trkpt lat="44.83792" lon="-0.1168">
        <ele>7.5</ele>
      </trkpt>
      <trkpt lat="44.83798" lon="-0.11681">
        <ele>7.5</ele>
      </trkpt>
      <trkpt lat="44.83824" lon="-0.11681">
        <ele>7.2</ele>
      </trkpt>
      <trkpt lat="44.83842" lon="-0.11683">
        <ele>7</ele>
      </trkpt>
      <trkpt lat="44.83854" lon="-0.11685">
        <ele>7</ele>
      </trkpt>
      <trkpt lat="44.83867" lon="-0.11687">
        <ele>7</ele>
      </trkpt>
      <trkpt lat="44.83881" lon="-0.1169">
        <ele>7</ele>
      </trkpt>
      <trkpt lat="44.83893" lon="-0.11694">
        <ele>7</ele>
      </trkpt>
      <trkpt lat="44.83908" lon="-0.117">
        <ele>7.1</ele>
      </trkpt>
      <trkpt lat="44.83924" lon="-0.11707">
        <ele>7</ele>
      </trkpt>
      <trkpt lat="44.8395" lon="-0.11719">
        <ele>7</ele>
      </trkpt>
      <trkpt lat="44.83987" lon="-0.11736">
        <ele>7.5</ele>
      </trkpt>
      <trkpt lat="44.84006" lon="-0.11744">
        <ele>8</ele>
      </trkpt>
      <trkpt lat="44.84014" lon="-0.11747">
        <ele>8</ele>
      </trkpt>
      <trkpt lat="44.84039" lon="-0.11753">
        <ele>8</ele>
      </trkpt>
      <trkpt lat="44.84085" lon="-0.11765">
        <ele>8</ele>
      </trkpt>
      <trkpt lat="44.84127" lon="-0.11775">
        <ele>8</ele>
      </trkpt>
      <trkpt lat="44.84153" lon="-0.11782">
        <ele>7.9</ele>
      </trkpt>
      <trkpt lat="44.84177" lon="-0.11789">
        <ele>7.7</ele>
      </trkpt>
      <trkpt lat="44.84202" lon="-0.11795">
        <ele>8</ele>
      </trkpt>
      <trkpt lat="44.84211" lon="-0.11797">
        <ele>8</ele>
      </trkpt>
      <trkpt lat="44.84217" lon="-0.11797">
        <ele>8</ele>
      </trkpt>
      <trkpt lat="44.84223" lon="-0.11796">
        <ele>8</ele>
      </trkpt>
      <trkpt lat="44.84231" lon="-0.11794">
        <ele>8</ele>
      </trkpt>
      <trkpt lat="44.8424" lon="-0.1179">
        <ele>8</ele>
      </trkpt>
      <trkpt lat="44.84264" lon="-0.1177">
        <ele>8</ele>
      </trkpt>
      <trkpt lat="44.84278" lon="-0.11758">
        <ele>8</ele>
      </trkpt>
      <trkpt lat="44.84287" lon="-0.11752">
        <ele>8</ele>
      </trkpt>
      <trkpt lat="44.84294" lon="-0.11748">
        <ele>8</ele>
      </trkpt>
      <trkpt lat="44.84302" lon="-0.11746">
        <ele>8</ele>
      </trkpt>
      <trkpt lat="44.84309" lon="-0.11746">
        <ele>8.1</ele>
      </trkpt>
      <trkpt lat="44.84318" lon="-0.11747">
        <ele>8.4</ele>
      </trkpt>
      <trkpt lat="44.84327" lon="-0.11751">
        <ele>8.7</ele>
      </trkpt>
      <trkpt lat="44.84337" lon="-0.11756">
        <ele>8.7</ele>
      </trkpt>
      <trkpt lat="44.84341" lon="-0.11759">
        <ele>8.6</ele>
      </trkpt>
      <trkpt lat="44.84349" lon="-0.11764">
        <ele>8.5</ele>
      </trkpt>
      <trkpt lat="44.84375" lon="-0.11787">
        <ele>8.3</ele>
      </trkpt>
      <trkpt lat="44.84402" lon="-0.11816">
        <ele>8</ele>
      </trkpt>
      <trkpt lat="44.84411" lon="-0.11825">
        <ele>8</ele>
      </trkpt>
      <trkpt lat="44.84418" lon="-0.11834">
        <ele>8</ele>
      </trkpt>
      <trkpt lat="44.84428" lon="-0.11852">
        <ele>8.1</ele>
      </trkpt>
      <trkpt lat="44.84448" lon="-0.11892">
        <ele>8.1</ele>
      </trkpt>
      <trkpt lat="44.84464" lon="-0.11925">
        <ele>8</ele>
      </trkpt>
      <trkpt lat="44.84474" lon="-0.11943">
        <ele>8</ele>
      </trkpt>
      <trkpt lat="44.84483" lon="-0.11956">
        <ele>8</ele>
      </trkpt>
      <trkpt lat="44.84491" lon="-0.11965">
        <ele>8</ele>
      </trkpt>
      <trkpt lat="44.84499" lon="-0.11971">
        <ele>8</ele>
      </trkpt>
      <trkpt lat="44.84508" lon="-0.11976">
        <ele>8</ele>
      </trkpt>
      <trkpt lat="44.84517" lon="-0.11979">
        <ele>8.1</ele>
      </trkpt>
      <trkpt lat="44.84528" lon="-0.11978">
        <ele>8.2</ele>
      </trkpt>
      <trkpt lat="44.84543" lon="-0.11975">
        <ele>8.1</ele>
      </trkpt>
      <trkpt lat="44.84562" lon="-0.11971">
        <ele>8</ele>
      </trkpt>
      <trkpt lat="44.84569" lon="-0.11971">
        <ele>8</ele>
      </trkpt>
      <trkpt lat="44.84572" lon="-0.11972">
        <ele>8</ele>
      </trkpt>
      <trkpt lat="44.84575" lon="-0.11974">
        <ele>8</ele>
      </trkpt>
      <trkpt lat="44.84579" lon="-0.11979">
        <ele>8</ele>
      </trkpt>
      <trkpt lat="44.84582" lon="-0.1199">
        <ele>8</ele>
      </trkpt>
      <trkpt lat="44.84587" lon="-0.12011">
        <ele>8.1</ele>
      </trkpt>
      <trkpt lat="44.84595" lon="-0.12042">
        <ele>8.7</ele>
      </trkpt>
      <trkpt lat="44.84599" lon="-0.12059">
        <ele>8.9</ele>
      </trkpt>
      <trkpt lat="44.84623" lon="-0.12134">
        <ele>8.1</ele>
      </trkpt>
      <trkpt lat="44.84642" lon="-0.12195">
        <ele>8</ele>
      </trkpt>
      <trkpt lat="44.8465" lon="-0.1222">
        <ele>8.4</ele>
      </trkpt>
      <trkpt lat="44.84664" lon="-0.12255">
        <ele>8.1</ele>
      </trkpt>
      <trkpt lat="44.84681" lon="-0.12291">
        <ele>8</ele>
      </trkpt>
      <trkpt lat="44.84692" lon="-0.12309">
        <ele>8</ele>
      </trkpt>
      <trkpt lat="44.84704" lon="-0.1233">
        <ele>8</ele>
      </trkpt>
      <trkpt lat="44.84726" lon="-0.1236">
        <ele>9</ele>
      </trkpt>
      <trkpt lat="44.84789" lon="-0.1243">
        <ele>9</ele>
      </trkpt>
      <trkpt lat="44.84848" lon="-0.12485">
        <ele>9</ele>
      </trkpt>
      <trkpt lat="44.84884" lon="-0.12516">
        <ele>8.2</ele>
      </trkpt>
      <trkpt lat="44.8489" lon="-0.12523">
        <ele>8</ele>
      </trkpt>
      <trkpt lat="44.84928" lon="-0.12534">
        <ele>8</ele>
      </trkpt>
      <trkpt lat="44.84961" lon="-0.12544">
        <ele>8.6</ele>
      </trkpt>
      <trkpt lat="44.84991" lon="-0.12544">
        <ele>9</ele>
      </trkpt>
      <trkpt lat="44.85036" lon="-0.12545">
        <ele>9</ele>
      </trkpt>
      <trkpt lat="44.85071" lon="-0.12547">
        <ele>9</ele>
      </trkpt>
      <trkpt lat="44.85126" lon="-0.12555">
        <ele>10</ele>
      </trkpt>
      <trkpt lat="44.85196" lon="-0.12564">
        <ele>10</ele>
      </trkpt>
      <trkpt lat="44.85261" lon="-0.12574">
        <ele>10</ele>
      </trkpt>
      <trkpt lat="44.85339" lon="-0.12587">
        <ele>10</ele>
      </trkpt>
      <trkpt lat="44.85404" lon="-0.12598">
        <ele>10.3</ele>
      </trkpt>
      <trkpt lat="44.85413" lon="-0.126">
        <ele>10.5</ele>
      </trkpt>
      <trkpt lat="44.85423" lon="-0.12599">
        <ele>10.4</ele>
      </trkpt>
      <trkpt lat="44.85419" lon="-0.12613">
        <ele>10.9</ele>
      </trkpt>
      <trkpt lat="44.85419" lon="-0.12613">
        <ele>10.9</ele>
      </trkpt>
      <trkpt lat="44.85427" lon="-0.12624">
        <ele>10.3</ele>
      </trkpt>
      <trkpt lat="44.85442" lon="-0.12652">
        <ele>10</ele>
      </trkpt>
      <trkpt lat="44.85459" lon="-0.12691">
        <ele>10</ele>
      </trkpt>
      <trkpt lat="44.85471" lon="-0.12722">
        <ele>10</ele>
      </trkpt>
      <trkpt lat="44.85477" lon="-0.12756">
        <ele>9.8</ele>
      </trkpt>
      <trkpt lat="44.8548" lon="-0.12799">
        <ele>9.7</ele>
      </trkpt>
      <trkpt lat="44.85482" lon="-0.12826">
        <ele>9.2</ele>
      </trkpt>
      <trkpt lat="44.85486" lon="-0.12847">
        <ele>9.2</ele>
      </trkpt>
      <trkpt lat="44.85491" lon="-0.12863">
        <ele>9.7</ele>
      </trkpt>
      <trkpt lat="44.85523" lon="-0.12934">
        <ele>10</ele>
      </trkpt>
      <trkpt lat="44.85544" lon="-0.12976">
        <ele>10</ele>
      </trkpt>
      <trkpt lat="44.85551" lon="-0.12992">
        <ele>10</ele>
      </trkpt>
      <trkpt lat="44.85568" lon="-0.13038">
        <ele>10</ele>
      </trkpt>
      <trkpt lat="44.85586" lon="-0.13094">
        <ele>10</ele>
      </trkpt>
      <trkpt lat="44.85609" lon="-0.13165">
        <ele>10</ele>
      </trkpt>
      <trkpt lat="44.85641" lon="-0.13263">
        <ele>10</ele>
      </trkpt>
      <trkpt lat="44.8565" lon="-0.13286">
        <ele>10</ele>
      </trkpt>
      <trkpt lat="44.85675" lon="-0.13339">
        <ele>10</ele>
      </trkpt>
      <trkpt lat="44.85696" lon="-0.13382">
        <ele>10</ele>
      </trkpt>
      <trkpt lat="44.85699" lon="-0.13387">
        <ele>10</ele>
      </trkpt>
      <trkpt lat="44.85702" lon="-0.13391">
        <ele>10</ele>
      </trkpt>
      <trkpt lat="44.85704" lon="-0.13395">
        <ele>10</ele>
      </trkpt>
      <trkpt lat="44.85699" lon="-0.13395">
        <ele>10</ele>
      </trkpt>
      <trkpt lat="44.85699" lon="-0.13395">
        <ele>10</ele>
      </trkpt>
      <trkpt lat="44.85683" lon="-0.13395">
        <ele>10</ele>
      </trkpt>
      <trkpt lat="44.85661" lon="-0.13399">
        <ele>10</ele>
      </trkpt>
      <trkpt lat="44.85634" lon="-0.13404">
        <ele>10</ele>
      </trkpt>
      <trkpt lat="44.8561" lon="-0.13412">
        <ele>10</ele>
      </trkpt>
      <trkpt lat="44.85589" lon="-0.13421">
        <ele>10</ele>
      </trkpt>
      <trkpt lat="44.85564" lon="-0.13433">
        <ele>9.6</ele>
      </trkpt>
      <trkpt lat="44.85518" lon="-0.13461">
        <ele>9</ele>
      </trkpt>
      <trkpt lat="44.85499" lon="-0.13472">
        <ele>9</ele>
      </trkpt>
      <trkpt lat="44.8549" lon="-0.13476">
        <ele>9.4</ele>
      </trkpt>
      <trkpt lat="44.85499" lon="-0.13472">
        <ele>9</ele>
      </trkpt>
      <trkpt lat="44.85499" lon="-0.13472">
        <ele>9</ele>
      </trkpt>
      <trkpt lat="44.85501" lon="-0.13486">
        <ele>9</ele>
      </trkpt>
      <trkpt lat="44.85503" lon="-0.13517">
        <ele>9</ele>
      </trkpt>
      <trkpt lat="44.85504" lon="-0.13519">
        <ele>9</ele>
      </trkpt>
      <trkpt lat="44.85507" lon="-0.13545">
        <ele>9</ele>
      </trkpt>
      <trkpt lat="44.85507" lon="-0.13546">
        <ele>9</ele>
      </trkpt>
      <trkpt lat="44.85511" lon="-0.13561">
        <ele>9</ele>
      </trkpt>
      <trkpt lat="44.85517" lon="-0.13582">
        <ele>9</ele>
      </trkpt>
      <trkpt lat="44.85524" lon="-0.13599">
        <ele>9</ele>
      </trkpt>
      <trkpt lat="44.85542" lon="-0.13638">
        <ele>9.5</ele>
      </trkpt>
      <trkpt lat="44.8558" lon="-0.13711">
        <ele>9.1</ele>
      </trkpt>
      <trkpt lat="44.85594" lon="-0.13739">
        <ele>9</ele>
      </trkpt>
      <trkpt lat="44.85594" lon="-0.1374">
        <ele>9</ele>
      </trkpt>
      <trkpt lat="44.85613" lon="-0.13777">
        <ele>9</ele>
      </trkpt>
      <trkpt lat="44.85621" lon="-0.13794">
        <ele>9</ele>
      </trkpt>
      <trkpt lat="44.85625" lon="-0.1381">
        <ele>9.2</ele>
      </trkpt>
      <trkpt lat="44.85625" lon="-0.13829">
        <ele>9.8</ele>
      </trkpt>
      <trkpt lat="44.85627" lon="-0.13842">
        <ele>10</ele>
      </trkpt>
      <trkpt lat="44.85627" lon="-0.13849">
        <ele>10</ele>
      </trkpt>
      <trkpt lat="44.85628" lon="-0.13857">
        <ele>10</ele>
      </trkpt>
      <trkpt lat="44.85628" lon="-0.1389">
        <ele>10</ele>
      </trkpt>
      <trkpt lat="44.85625" lon="-0.13952">
        <ele>10</ele>
      </trkpt>
      <trkpt lat="44.85624" lon="-0.13994">
        <ele>9.6</ele>
      </trkpt>
      <trkpt lat="44.85624" lon="-0.14015">
        <ele>9.5</ele>
      </trkpt>
      <trkpt lat="44.85625" lon="-0.14041">
        <ele>9.7</ele>
      </trkpt>
      <trkpt lat="44.85633" lon="-0.14112">
        <ele>10</ele>
      </trkpt>
      <trkpt lat="44.85643" lon="-0.14209">
        <ele>9.6</ele>
      </trkpt>
      <trkpt lat="44.85648" lon="-0.14239">
        <ele>10</ele>
      </trkpt>
      <trkpt lat="44.8565" lon="-0.1425">
        <ele>10</ele>
      </trkpt>
      <trkpt lat="44.85663" lon="-0.14312">
        <ele>9.2</ele>
      </trkpt>
      <trkpt lat="44.85672" lon="-0.14358">
        <ele>10</ele>
      </trkpt>
      <trkpt lat="44.85688" lon="-0.14431">
        <ele>10</ele>
      </trkpt>
      <trkpt lat="44.85703" lon="-0.14497">
        <ele>9.7</ele>
      </trkpt>
      <trkpt lat="44.85709" lon="-0.1452">
        <ele>9.9</ele>
      </trkpt>
      <trkpt lat="44.85716" lon="-0.14537">
        <ele>10</ele>
      </trkpt>
      <trkpt lat="44.85726" lon="-0.14557">
        <ele>10</ele>
      </trkpt>
      <trkpt lat="44.85741" lon="-0.1458">
        <ele>9.4</ele>
      </trkpt>
      <trkpt lat="44.8575" lon="-0.14599">
        <ele>9</ele>
      </trkpt>
      <trkpt lat="44.8576" lon="-0.14623">
        <ele>9.4</ele>
      </trkpt>
      <trkpt lat="44.85774" lon="-0.14662">
        <ele>9.9</ele>
      </trkpt>
      <trkpt lat="44.8579" lon="-0.14712">
        <ele>10</ele>
      </trkpt>
      <trkpt lat="44.85795" lon="-0.14726">
        <ele>10</ele>
      </trkpt>
      <trkpt lat="44.85798" lon="-0.14735">
        <ele>10</ele>
      </trkpt>
      <trkpt lat="44.85798" lon="-0.14735">
        <ele>10</ele>
      </trkpt>
      <trkpt lat="44.85809" lon="-0.14721">
        <ele>10</ele>
      </trkpt>
      <trkpt lat="44.85823" lon="-0.14703">
        <ele>10</ele>
      </trkpt>
      <trkpt lat="44.85841" lon="-0.14682">
        <ele>9.7</ele>
      </trkpt>
      <trkpt lat="44.8585" lon="-0.14678">
        <ele>9.8</ele>
      </trkpt>
      <trkpt lat="44.85857" lon="-0.14676">
        <ele>9.9</ele>
      </trkpt>
      <trkpt lat="44.85864" lon="-0.14675">
        <ele>10</ele>
      </trkpt>
      <trkpt lat="44.8587" lon="-0.14675">
        <ele>10</ele>
      </trkpt>
      <trkpt lat="44.85878" lon="-0.14676">
        <ele>10</ele>
      </trkpt>
      <trkpt lat="44.85886" lon="-0.14677">
        <ele>10</ele>
      </trkpt>
      <trkpt lat="44.85892" lon="-0.14678">
        <ele>10</ele>
      </trkpt>
      <trkpt lat="44.859" lon="-0.14678">
        <ele>10</ele>
      </trkpt>
      <trkpt lat="44.85908" lon="-0.14676">
        <ele>10</ele>
      </trkpt>
      <trkpt lat="44.85916" lon="-0.14672">
        <ele>10</ele>
      </trkpt>
      <trkpt lat="44.85923" lon="-0.14666">
        <ele>10</ele>
      </trkpt>
      <trkpt lat="44.85929" lon="-0.14657">
        <ele>9.8</ele>
      </trkpt>
      <trkpt lat="44.85934" lon="-0.14646">
        <ele>9.5</ele>
      </trkpt>
      <trkpt lat="44.85939" lon="-0.1463">
        <ele>9.5</ele>
      </trkpt>
      <trkpt lat="44.85942" lon="-0.14614">
        <ele>9.9</ele>
      </trkpt>
      <trkpt lat="44.85945" lon="-0.146">
        <ele>10</ele>
      </trkpt>
      <trkpt lat="44.85948" lon="-0.14588">
        <ele>10</ele>
      </trkpt>
      <trkpt lat="44.85952" lon="-0.1458">
        <ele>10</ele>
      </trkpt>
      <trkpt lat="44.85959" lon="-0.14572">
        <ele>10</ele>
      </trkpt>
      <trkpt lat="44.85965" lon="-0.14566">
        <ele>10</ele>
      </trkpt>
      <trkpt lat="44.8597" lon="-0.14564">
        <ele>10</ele>
      </trkpt>
      <trkpt lat="44.85977" lon="-0.14562">
        <ele>10</ele>
      </trkpt>
      <trkpt lat="44.85991" lon="-0.14562">
        <ele>10</ele>
      </trkpt>
      <trkpt lat="44.86051" lon="-0.14565">
        <ele>10</ele>
      </trkpt>
      <trkpt lat="44.8606" lon="-0.14565">
        <ele>10</ele>
      </trkpt>
      <trkpt lat="44.86119" lon="-0.14566">
        <ele>11</ele>
      </trkpt>
      <trkpt lat="44.86171" lon="-0.14561">
        <ele>11</ele>
      </trkpt>
      <trkpt lat="44.86264" lon="-0.14551">
        <ele>12</ele>
      </trkpt>
      <trkpt lat="44.86323" lon="-0.14545">
        <ele>13</ele>
      </trkpt>
      <trkpt lat="44.86328" lon="-0.14544">
        <ele>13</ele>
      </trkpt>
      <trkpt lat="44.86332" lon="-0.14544">
        <ele>13</ele>
      </trkpt>
      <trkpt lat="44.86345" lon="-0.14546">
        <ele>13.4</ele>
      </trkpt>
      <trkpt lat="44.86373" lon="-0.14554">
        <ele>14</ele>
      </trkpt>
      <trkpt lat="44.8639" lon="-0.14562">
        <ele>14</ele>
      </trkpt>
      <trkpt lat="44.86404" lon="-0.14567">
        <ele>14</ele>
      </trkpt>
      <trkpt lat="44.8645" lon="-0.14594">
        <ele>14</ele>
      </trkpt>
      <trkpt lat="44.86468" lon="-0.14601">
        <ele>14</ele>
      </trkpt>
      <trkpt lat="44.86478" lon="-0.14604">
        <ele>14</ele>
      </trkpt>
      <trkpt lat="44.86487" lon="-0.14604">
        <ele>14</ele>
      </trkpt>
      <trkpt lat="44.86494" lon="-0.14603">
        <ele>14</ele>
      </trkpt>
      <trkpt lat="44.86525" lon="-0.14593">
        <ele>14</ele>
      </trkpt>
      <trkpt lat="44.86556" lon="-0.14583">
        <ele>14</ele>
      </trkpt>
      <trkpt lat="44.86587" lon="-0.14575">
        <ele>14</ele>
      </trkpt>
      <trkpt lat="44.86614" lon="-0.14567">
        <ele>14.5</ele>
      </trkpt>
      <trkpt lat="44.86633" lon="-0.14563">
        <ele>14.2</ele>
      </trkpt>
      <trkpt lat="44.8665" lon="-0.1456">
        <ele>14.1</ele>
      </trkpt>
      <trkpt lat="44.86668" lon="-0.14558">
        <ele>14.1</ele>
      </trkpt>
      <trkpt lat="44.86682" lon="-0.14554">
        <ele>14.6</ele>
      </trkpt>
      <trkpt lat="44.86694" lon="-0.1455">
        <ele>15</ele>
      </trkpt>
      <trkpt lat="44.86695" lon="-0.1455">
        <ele>15</ele>
      </trkpt>
      <trkpt lat="44.86713" lon="-0.1454">
        <ele>15</ele>
      </trkpt>
      <trkpt lat="44.8672" lon="-0.14536">
        <ele>15</ele>
      </trkpt>
      <trkpt lat="44.86783" lon="-0.14496">
        <ele>15</ele>
      </trkpt>
      <trkpt lat="44.86815" lon="-0.14472">
        <ele>15.3</ele>
      </trkpt>
      <trkpt lat="44.86822" lon="-0.14467">
        <ele>15.6</ele>
      </trkpt>
      <trkpt lat="44.86831" lon="-0.14461">
        <ele>15.6</ele>
      </trkpt>
      <trkpt lat="44.86843" lon="-0.14451">
        <ele>15.2</ele>
      </trkpt>
      <trkpt lat="44.86887" lon="-0.14412">
        <ele>15.2</ele>
      </trkpt>
      <trkpt lat="44.86915" lon="-0.14389">
        <ele>16</ele>
      </trkpt>
      <trkpt lat="44.86941" lon="-0.14364">
        <ele>16</ele>
      </trkpt>
      <trkpt lat="44.8696" lon="-0.14346">
        <ele>16</ele>
      </trkpt>
      <trkpt lat="44.86965" lon="-0.14345">
        <ele>16</ele>
      </trkpt>
      <trkpt lat="44.86969" lon="-0.14344">
        <ele>16</ele>
      </trkpt>
      <trkpt lat="44.86972" lon="-0.14345">
        <ele>16</ele>
      </trkpt>
      <trkpt lat="44.86974" lon="-0.14345">
        <ele>16</ele>
      </trkpt>
      <trkpt lat="44.86975" lon="-0.14345">
        <ele>16</ele>
      </trkpt>
      <trkpt lat="44.8698" lon="-0.14347">
        <ele>16</ele>
      </trkpt>
      <trkpt lat="44.86985" lon="-0.14349">
        <ele>16</ele>
      </trkpt>
      <trkpt lat="44.8699" lon="-0.14352">
        <ele>16</ele>
      </trkpt>
      <trkpt lat="44.87001" lon="-0.14362">
        <ele>16</ele>
      </trkpt>
      <trkpt lat="44.87037" lon="-0.14396">
        <ele>16</ele>
      </trkpt>
      <trkpt lat="44.87065" lon="-0.14419">
        <ele>16</ele>
      </trkpt>
      <trkpt lat="44.87087" lon="-0.14432">
        <ele>16.1</ele>
      </trkpt>
      <trkpt lat="44.87122" lon="-0.14449">
        <ele>16.8</ele>
      </trkpt>
      <trkpt lat="44.87162" lon="-0.14469">
        <ele>16.8</ele>
      </trkpt>
      <trkpt lat="44.87199" lon="-0.14488">
        <ele>17</ele>
      </trkpt>
      <trkpt lat="44.87222" lon="-0.14498">
        <ele>17</ele>
      </trkpt>
      <trkpt lat="44.87246" lon="-0.14504">
        <ele>17</ele>
      </trkpt>
      <trkpt lat="44.87264" lon="-0.14507">
        <ele>17</ele>
      </trkpt>
      <trkpt lat="44.87284" lon="-0.1451">
        <ele>17</ele>
      </trkpt>
      <trkpt lat="44.87312" lon="-0.14514">
        <ele>17</ele>
      </trkpt>
      <trkpt lat="44.8734" lon="-0.14522">
        <ele>17.2</ele>
      </trkpt>
      <trkpt lat="44.87373" lon="-0.14532">
        <ele>17.8</ele>
      </trkpt>
      <trkpt lat="44.87408" lon="-0.14546">
        <ele>17.8</ele>
      </trkpt>
      <trkpt lat="44.8744" lon="-0.1456">
        <ele>18</ele>
      </trkpt>
      <trkpt lat="44.87471" lon="-0.14575">
        <ele>18</ele>
      </trkpt>
      <trkpt lat="44.87487" lon="-0.14584">
        <ele>18.5</ele>
      </trkpt>
      <trkpt lat="44.87525" lon="-0.14612">
        <ele>18.9</ele>
      </trkpt>
      <trkpt lat="44.87553" lon="-0.14634">
        <ele>18.8</ele>
      </trkpt>
      <trkpt lat="44.8758" lon="-0.14649">
        <ele>18.6</ele>
      </trkpt>
      <trkpt lat="44.87598" lon="-0.14659">
        <ele>18.7</ele>
      </trkpt>
      <trkpt lat="44.87616" lon="-0.14666">
        <ele>19</ele>
      </trkpt>
      <trkpt lat="44.87622" lon="-0.14668">
        <ele>19</ele>
      </trkpt>
      <trkpt lat="44.87634" lon="-0.14672">
        <ele>19</ele>
      </trkpt>
      <trkpt lat="44.87648" lon="-0.14676">
        <ele>19</ele>
      </trkpt>
      <trkpt lat="44.8767" lon="-0.14682">
        <ele>19</ele>
      </trkpt>
      <trkpt lat="44.87717" lon="-0.14696">
        <ele>19.8</ele>
      </trkpt>
      <trkpt lat="44.8777" lon="-0.14707">
        <ele>20</ele>
      </trkpt>
      <trkpt lat="44.87805" lon="-0.1471">
        <ele>20.5</ele>
      </trkpt>
      <trkpt lat="44.87863" lon="-0.14716">
        <ele>22</ele>
      </trkpt>
      <trkpt lat="44.87865" lon="-0.14716">
        <ele>22</ele>
      </trkpt>
      <trkpt lat="44.8787" lon="-0.14717">
        <ele>22</ele>
      </trkpt>
      <trkpt lat="44.87876" lon="-0.14717">
        <ele>22</ele>
      </trkpt>
      <trkpt lat="44.87917" lon="-0.14718">
        <ele>23</ele>
      </trkpt>
      <trkpt lat="44.87932" lon="-0.14719">
        <ele>23.6</ele>
      </trkpt>
      <trkpt lat="44.87963" lon="-0.14701">
        <ele>24.7</ele>
      </trkpt>
      <trkpt lat="44.87995" lon="-0.14682">
        <ele>25.8</ele>
      </trkpt>
      <trkpt lat="44.88041" lon="-0.14653">
        <ele>28</ele>
      </trkpt>
      <trkpt lat="44.88056" lon="-0.14645">
        <ele>28.8</ele>
      </trkpt>
      <trkpt lat="44.88064" lon="-0.14641">
        <ele>29.5</ele>
      </trkpt>
      <trkpt lat="44.88068" lon="-0.14639">
        <ele>29.9</ele>
      </trkpt>
      <trkpt lat="44.88068" lon="-0.14642">
        <ele>29.8</ele>
      </trkpt>
      <trkpt lat="44.88074" lon="-0.14663">
        <ele>29.5</ele>
      </trkpt>
      <trkpt lat="44.88087" lon="-0.14718">
        <ele>28.4</ele>
      </trkpt>
      <trkpt lat="44.88097" lon="-0.14776">
        <ele>29</ele>
      </trkpt>
      <trkpt lat="44.88109" lon="-0.14841">
        <ele>27.7</ele>
      </trkpt>
      <trkpt lat="44.88111" lon="-0.14857">
        <ele>27.1</ele>
      </trkpt>
      <trkpt lat="44.88112" lon="-0.14871">
        <ele>27.1</ele>
      </trkpt>
      <trkpt lat="44.88115" lon="-0.14884">
        <ele>27.4</ele>
      </trkpt>
      <trkpt lat="44.88116" lon="-0.14887">
        <ele>27.5</ele>
      </trkpt>
      <trkpt lat="44.88129" lon="-0.14934">
        <ele>28.1</ele>
      </trkpt>
      <trkpt lat="44.88145" lon="-0.14983">
        <ele>27.4</ele>
      </trkpt>
      <trkpt lat="44.88147" lon="-0.14986">
        <ele>27.4</ele>
      </trkpt>
      <trkpt lat="44.88167" lon="-0.15036">
        <ele>27</ele>
      </trkpt>
      <trkpt lat="44.88182" lon="-0.15068">
        <ele>27.4</ele>
      </trkpt>
      <trkpt lat="44.88198" lon="-0.15101">
        <ele>26.6</ele>
      </trkpt>
      <trkpt lat="44.88216" lon="-0.15132">
        <ele>27</ele>
      </trkpt>
      <trkpt lat="44.88237" lon="-0.15167">
        <ele>26.5</ele>
      </trkpt>
      <trkpt lat="44.88241" lon="-0.15174">
        <ele>26.5</ele>
      </trkpt>
      <trkpt lat="44.88249" lon="-0.15191">
        <ele>26.1</ele>
      </trkpt>
      <trkpt lat="44.88271" lon="-0.1523">
        <ele>26.5</ele>
      </trkpt>
      <trkpt lat="44.88292" lon="-0.15271">
        <ele>27</ele>
      </trkpt>
      <trkpt lat="44.88312" lon="-0.15307">
        <ele>26.7</ele>
      </trkpt>
      <trkpt lat="44.88336" lon="-0.15355">
        <ele>27.4</ele>
      </trkpt>
      <trkpt lat="44.8836" lon="-0.15399">
        <ele>27.6</ele>
      </trkpt>
      <trkpt lat="44.8838" lon="-0.15439">
        <ele>27.9</ele>
      </trkpt>
      <trkpt lat="44.88399" lon="-0.15478">
        <ele>28.5</ele>
      </trkpt>
      <trkpt lat="44.88413" lon="-0.1551">
        <ele>28.4</ele>
      </trkpt>
      <trkpt lat="44.88451" lon="-0.15571">
        <ele>28.2</ele>
      </trkpt>
      <trkpt lat="44.8846" lon="-0.15584">
        <ele>28.5</ele>
      </trkpt>
      <trkpt lat="44.88473" lon="-0.15599">
        <ele>28.5</ele>
      </trkpt>
      <trkpt lat="44.88488" lon="-0.15617">
        <ele>28.6</ele>
      </trkpt>
      <trkpt lat="44.88506" lon="-0.15635">
        <ele>29.2</ele>
      </trkpt>
      <trkpt lat="44.8852" lon="-0.15648">
        <ele>29.7</ele>
      </trkpt>
      <trkpt lat="44.8853" lon="-0.15656">
        <ele>30.1</ele>
      </trkpt>
      <trkpt lat="44.88541" lon="-0.15666">
        <ele>30.5</ele>
      </trkpt>
      <trkpt lat="44.88549" lon="-0.15675">
        <ele>30.9</ele>
      </trkpt>
      <trkpt lat="44.88549" lon="-0.15675">
        <ele>30.9</ele>
      </trkpt>
      <trkpt lat="44.88558" lon="-0.15656">
        <ele>31.2</ele>
      </trkpt>
      <trkpt lat="44.88574" lon="-0.15634">
        <ele>32.2</ele>
      </trkpt>
      <trkpt lat="44.88632" lon="-0.1558">
        <ele>35.4</ele>
      </trkpt>
      <trkpt lat="44.88661" lon="-0.15556">
        <ele>35.8</ele>
      </trkpt>
      <trkpt lat="44.88682" lon="-0.15542">
        <ele>36.8</ele>
      </trkpt>
      <trkpt lat="44.88697" lon="-0.15534">
        <ele>37.1</ele>
      </trkpt>
      <trkpt lat="44.88718" lon="-0.1553">
        <ele>37.9</ele>
      </trkpt>
      <trkpt lat="44.88737" lon="-0.15528">
        <ele>38.5</ele>
      </trkpt>
      <trkpt lat="44.88761" lon="-0.15527">
        <ele>39.4</ele>
      </trkpt>
      <trkpt lat="44.88782" lon="-0.15526">
        <ele>40.4</ele>
      </trkpt>
      <trkpt lat="44.888" lon="-0.15522">
        <ele>42.2</ele>
      </trkpt>
      <trkpt lat="44.88837" lon="-0.1551">
        <ele>44.4</ele>
      </trkpt>
      <trkpt lat="44.88882" lon="-0.15491">
        <ele>46.1</ele>
      </trkpt>
      <trkpt lat="44.88918" lon="-0.15479">
        <ele>47.6</ele>
      </trkpt>
      <trkpt lat="44.88938" lon="-0.15474">
        <ele>47.9</ele>
      </trkpt>
      <trkpt lat="44.88962" lon="-0.15469">
        <ele>48.2</ele>
      </trkpt>
      <trkpt lat="44.88989" lon="-0.15467">
        <ele>49.1</ele>
      </trkpt>
      <trkpt lat="44.89" lon="-0.15468">
        <ele>49.7</ele>
      </trkpt>
      <trkpt lat="44.89018" lon="-0.15472">
        <ele>50.6</ele>
      </trkpt>
      <trkpt lat="44.89037" lon="-0.15475">
        <ele>51.3</ele>
      </trkpt>
      <trkpt lat="44.89052" lon="-0.15486">
        <ele>51.9</ele>
      </trkpt>
      <trkpt lat="44.89078" lon="-0.15499">
        <ele>53.6</ele>
      </trkpt>
      <trkpt lat="44.89084" lon="-0.15499">
        <ele>54</ele>
      </trkpt>
      <trkpt lat="44.89089" lon="-0.15498">
        <ele>53.9</ele>
      </trkpt>
      <trkpt lat="44.89099" lon="-0.15492">
        <ele>53.9</ele>
      </trkpt>
      <trkpt lat="44.89104" lon="-0.15486">
        <ele>53.9</ele>
      </trkpt>
      <trkpt lat="44.89109" lon="-0.15477">
        <ele>53.9</ele>
      </trkpt>
      <trkpt lat="44.89114" lon="-0.15469">
        <ele>54.1</ele>
      </trkpt>
      <trkpt lat="44.89125" lon="-0.15448">
        <ele>55.4</ele>
      </trkpt>
      <trkpt lat="44.89132" lon="-0.15437">
        <ele>56.2</ele>
      </trkpt>
      <trkpt lat="44.89138" lon="-0.1543">
        <ele>56.3</ele>
      </trkpt>
      <trkpt lat="44.89144" lon="-0.15426">
        <ele>56.7</ele>
      </trkpt>
      <trkpt lat="44.8915" lon="-0.15425">
        <ele>57.4</ele>
      </trkpt>
      <trkpt lat="44.89153" lon="-0.15424">
        <ele>57.8</ele>
      </trkpt>
      <trkpt lat="44.89158" lon="-0.15424">
        <ele>58.5</ele>
      </trkpt>
      <trkpt lat="44.89163" lon="-0.15424">
        <ele>59.2</ele>
      </trkpt>
      <trkpt lat="44.89168" lon="-0.15425">
        <ele>60</ele>
      </trkpt>
      <trkpt lat="44.89174" lon="-0.15428">
        <ele>61.3</ele>
      </trkpt>
      <trkpt lat="44.89178" lon="-0.15431">
        <ele>61.9</ele>
      </trkpt>
      <trkpt lat="44.89183" lon="-0.15434">
        <ele>62.6</ele>
      </trkpt>
      <trkpt lat="44.89229" lon="-0.15486">
        <ele>65</ele>
      </trkpt>
      <trkpt lat="44.89246" lon="-0.15505">
        <ele>66.6</ele>
      </trkpt>
      <trkpt lat="44.89261" lon="-0.15523">
        <ele>67.1</ele>
      </trkpt>
      <trkpt lat="44.89269" lon="-0.15531">
        <ele>67.5</ele>
      </trkpt>
      <trkpt lat="44.89273" lon="-0.15537">
        <ele>67.6</ele>
      </trkpt>
      <trkpt lat="44.89278" lon="-0.15542">
        <ele>68</ele>
      </trkpt>
      <trkpt lat="44.89284" lon="-0.15546">
        <ele>68.3</ele>
      </trkpt>
      <trkpt lat="44.89293" lon="-0.15548">
        <ele>68.9</ele>
      </trkpt>
      <trkpt lat="44.89298" lon="-0.15547">
        <ele>69.5</ele>
      </trkpt>
      <trkpt lat="44.89305" lon="-0.15545">
        <ele>70.5</ele>
      </trkpt>
      <trkpt lat="44.89312" lon="-0.15542">
        <ele>71.5</ele>
      </trkpt>
      <trkpt lat="44.89324" lon="-0.15537">
        <ele>73.2</ele>
      </trkpt>
      <trkpt lat="44.89345" lon="-0.15528">
        <ele>76.2</ele>
      </trkpt>
      <trkpt lat="44.8937" lon="-0.15516">
        <ele>79.7</ele>
      </trkpt>
      <trkpt lat="44.89378" lon="-0.15513">
        <ele>80.6</ele>
      </trkpt>
      <trkpt lat="44.89385" lon="-0.15512">
        <ele>81.2</ele>
      </trkpt>
      <trkpt lat="44.89389" lon="-0.1556">
        <ele>80</ele>
      </trkpt>
      <trkpt lat="44.89389" lon="-0.15568">
        <ele>80</ele>
      </trkpt>
      <trkpt lat="44.89388" lon="-0.15572">
        <ele>79.9</ele>
      </trkpt>
      <trkpt lat="44.89387" lon="-0.15576">
        <ele>79.7</ele>
      </trkpt>
      <trkpt lat="44.89386" lon="-0.15581">
        <ele>79.5</ele>
      </trkpt>
      <trkpt lat="44.89381" lon="-0.15597">
        <ele>79.1</ele>
      </trkpt>
      <trkpt lat="44.89366" lon="-0.15649">
        <ele>79.3</ele>
      </trkpt>
      <trkpt lat="44.89363" lon="-0.15659">
        <ele>79.6</ele>
      </trkpt>
    </trkseg>
  </trk>
  <trk>
    <name><![CDATA[Traces DPT 33_17]]></name>
    <extensions>
      <line xmlns="http://www.topografix.com/GPX/gpx_style/0/2">
        <color>FFFF00</color>
        <width>4</width>
      </line>
    </extensions>
    <trkseg>
      <trkpt lat="44.82012" lon="-0.13537">
        <ele>7.4</ele>
      </trkpt>
      <trkpt lat="44.82012" lon="-0.13517">
        <ele>7.3</ele>
      </trkpt>
      <trkpt lat="44.82012" lon="-0.13497">
        <ele>7</ele>
      </trkpt>
      <trkpt lat="44.82012" lon="-0.13493">
        <ele>7</ele>
      </trkpt>
      <trkpt lat="44.8201" lon="-0.1345">
        <ele>7</ele>
      </trkpt>
      <trkpt lat="44.82011" lon="-0.13422">
        <ele>7</ele>
      </trkpt>
      <trkpt lat="44.82012" lon="-0.13405">
        <ele>7</ele>
      </trkpt>
      <trkpt lat="44.82013" lon="-0.13391">
        <ele>7</ele>
      </trkpt>
      <trkpt lat="44.82018" lon="-0.13368">
        <ele>7</ele>
      </trkpt>
      <trkpt lat="44.82023" lon="-0.13339">
        <ele>7</ele>
      </trkpt>
      <trkpt lat="44.82033" lon="-0.13294">
        <ele>7.3</ele>
      </trkpt>
      <trkpt lat="44.82038" lon="-0.13267">
        <ele>7.4</ele>
      </trkpt>
      <trkpt lat="44.82043" lon="-0.13246">
        <ele>7.1</ele>
      </trkpt>
      <trkpt lat="44.82053" lon="-0.13197">
        <ele>6.3</ele>
      </trkpt>
      <trkpt lat="44.82061" lon="-0.13163">
        <ele>6.9</ele>
      </trkpt>
      <trkpt lat="44.82063" lon="-0.13155">
        <ele>6.7</ele>
      </trkpt>
      <trkpt lat="44.82067" lon="-0.13148">
        <ele>6.6</ele>
      </trkpt>
      <trkpt lat="44.82074" lon="-0.13136">
        <ele>6.4</ele>
      </trkpt>
      <trkpt lat="44.82079" lon="-0.13128">
        <ele>5.9</ele>
      </trkpt>
      <trkpt lat="44.82086" lon="-0.1312">
        <ele>5.8</ele>
      </trkpt>
      <trkpt lat="44.821" lon="-0.13107">
        <ele>5.8</ele>
      </trkpt>
      <trkpt lat="44.82112" lon="-0.13097">
        <ele>6</ele>
      </trkpt>
      <trkpt lat="44.82135" lon="-0.13079">
        <ele>5.5</ele>
      </trkpt>
      <trkpt lat="44.82144" lon="-0.13071">
        <ele>5.3</ele>
      </trkpt>
      <trkpt lat="44.82158" lon="-0.13058">
        <ele>5.4</ele>
      </trkpt>
      <trkpt lat="44.82171" lon="-0.13046">
        <ele>5.5</ele>
      </trkpt>
      <trkpt lat="44.82183" lon="-0.1303">
        <ele>5.8</ele>
      </trkpt>
      <trkpt lat="44.82202" lon="-0.13005">
        <ele>6.4</ele>
      </trkpt>
      <trkpt lat="44.82216" lon="-0.12986">
        <ele>6</ele>
      </trkpt>
      <trkpt lat="44.82245" lon="-0.12938">
        <ele>6.4</ele>
      </trkpt>
      <trkpt lat="44.82264" lon="-0.12908">
        <ele>5.8</ele>
      </trkpt>
      <trkpt lat="44.82277" lon="-0.12881">
        <ele>6.6</ele>
      </trkpt>
      <trkpt lat="44.82288" lon="-0.12855">
        <ele>6.2</ele>
      </trkpt>
      <trkpt lat="44.82299" lon="-0.12824">
        <ele>6</ele>
      </trkpt>
      <trkpt lat="44.82306" lon="-0.12807">
        <ele>6.1</ele>
      </trkpt>
      <trkpt lat="44.82316" lon="-0.1278">
        <ele>6.3</ele>
      </trkpt>
      <trkpt lat="44.82325" lon="-0.12757">
        <ele>5.7</ele>
      </trkpt>
      <trkpt lat="44.82341" lon="-0.12721">
        <ele>6</ele>
      </trkpt>
      <trkpt lat="44.82358" lon="-0.12683">
        <ele>5.7</ele>
      </trkpt>
      <trkpt lat="44.82359" lon="-0.12681">
        <ele>5.8</ele>
      </trkpt>
      <trkpt lat="44.82379" lon="-0.12638">
        <ele>6</ele>
      </trkpt>
      <trkpt lat="44.82397" lon="-0.12588">
        <ele>6.3</ele>
      </trkpt>
      <trkpt lat="44.82407" lon="-0.12556">
        <ele>6</ele>
      </trkpt>
      <trkpt lat="44.82417" lon="-0.12525">
        <ele>6</ele>
      </trkpt>
      <trkpt lat="44.82425" lon="-0.12491">
        <ele>6</ele>
      </trkpt>
      <trkpt lat="44.82439" lon="-0.1244">
        <ele>6.8</ele>
      </trkpt>
      <trkpt lat="44.82449" lon="-0.12391">
        <ele>7.2</ele>
      </trkpt>
      <trkpt lat="44.82456" lon="-0.12344">
        <ele>7.2</ele>
      </trkpt>
      <trkpt lat="44.82461" lon="-0.123">
        <ele>6.4</ele>
      </trkpt>
      <trkpt lat="44.82469" lon="-0.12237">
        <ele>7.4</ele>
      </trkpt>
      <trkpt lat="44.82474" lon="-0.12203">
        <ele>7.3</ele>
      </trkpt>
      <trkpt lat="44.82475" lon="-0.12199">
        <ele>7.1</ele>
      </trkpt>
      <trkpt lat="44.8248" lon="-0.12176">
        <ele>7.5</ele>
      </trkpt>
      <trkpt lat="44.82488" lon="-0.12153">
        <ele>7.4</ele>
      </trkpt>
      <trkpt lat="44.82495" lon="-0.1213">
        <ele>7.1</ele>
      </trkpt>
      <trkpt lat="44.82502" lon="-0.12113">
        <ele>7</ele>
      </trkpt>
      <trkpt lat="44.82508" lon="-0.121">
        <ele>7</ele>
      </trkpt>
      <trkpt lat="44.82515" lon="-0.12088">
        <ele>7</ele>
      </trkpt>
      <trkpt lat="44.82527" lon="-0.12065">
        <ele>7</ele>
      </trkpt>
      <trkpt lat="44.82548" lon="-0.12028">
        <ele>6.3</ele>
      </trkpt>
      <trkpt lat="44.8258" lon="-0.11968">
        <ele>6.1</ele>
      </trkpt>
      <trkpt lat="44.82605" lon="-0.11918">
        <ele>6</ele>
      </trkpt>
      <trkpt lat="44.82626" lon="-0.11877">
        <ele>6</ele>
      </trkpt>
      <trkpt lat="44.82633" lon="-0.11861">
        <ele>6</ele>
      </trkpt>
      <trkpt lat="44.82641" lon="-0.11838">
        <ele>6</ele>
      </trkpt>
      <trkpt lat="44.82654" lon="-0.11797">
        <ele>6</ele>
      </trkpt>
      <trkpt lat="44.82662" lon="-0.11772">
        <ele>6</ele>
      </trkpt>
      <trkpt lat="44.82667" lon="-0.11762">
        <ele>6</ele>
      </trkpt>
      <trkpt lat="44.82671" lon="-0.11754">
        <ele>6</ele>
      </trkpt>
      <trkpt lat="44.82677" lon="-0.11749">
        <ele>6</ele>
      </trkpt>
      <trkpt lat="44.82686" lon="-0.11745">
        <ele>6.1</ele>
      </trkpt>
      <trkpt lat="44.82697" lon="-0.11741">
        <ele>6</ele>
      </trkpt>
      <trkpt lat="44.82713" lon="-0.11737">
        <ele>6</ele>
      </trkpt>
      <trkpt lat="44.82725" lon="-0.11734">
        <ele>6.1</ele>
      </trkpt>
      <trkpt lat="44.82733" lon="-0.11732">
        <ele>6.3</ele>
      </trkpt>
      <trkpt lat="44.82741" lon="-0.1173">
        <ele>6.5</ele>
      </trkpt>
      <trkpt lat="44.82774" lon="-0.1172">
        <ele>7</ele>
      </trkpt>
      <trkpt lat="44.82811" lon="-0.11709">
        <ele>7.6</ele>
      </trkpt>
      <trkpt lat="44.82855" lon="-0.11698">
        <ele>7.9</ele>
      </trkpt>
      <trkpt lat="44.82853" lon="-0.11687">
        <ele>7.8</ele>
      </trkpt>
      <trkpt lat="44.82853" lon="-0.11683">
        <ele>7.7</ele>
      </trkpt>
      <trkpt lat="44.82846" lon="-0.11652">
        <ele>7.8</ele>
      </trkpt>
      <trkpt lat="44.82838" lon="-0.11609">
        <ele>8</ele>
      </trkpt>
      <trkpt lat="44.82832" lon="-0.1157">
        <ele>8</ele>
      </trkpt>
      <trkpt lat="44.82822" lon="-0.11493">
        <ele>8</ele>
      </trkpt>
      <trkpt lat="44.82821" lon="-0.11469">
        <ele>8</ele>
      </trkpt>
      <trkpt lat="44.82818" lon="-0.11427">
        <ele>8</ele>
      </trkpt>
      <trkpt lat="44.82816" lon="-0.11375">
        <ele>8.2</ele>
      </trkpt>
      <trkpt lat="44.82817" lon="-0.11368">
        <ele>8.3</ele>
      </trkpt>
      <trkpt lat="44.82819" lon="-0.11361">
        <ele>8.5</ele>
      </trkpt>
      <trkpt lat="44.82822" lon="-0.11349">
        <ele>8.8</ele>
      </trkpt>
      <trkpt lat="44.82824" lon="-0.11344">
        <ele>8.9</ele>
      </trkpt>
      <trkpt lat="44.82829" lon="-0.11324">
        <ele>8.9</ele>
      </trkpt>
      <trkpt lat="44.82831" lon="-0.11317">
        <ele>9</ele>
      </trkpt>
      <trkpt lat="44.82839" lon="-0.1128">
        <ele>8.8</ele>
      </trkpt>
      <trkpt lat="44.82842" lon="-0.11259">
        <ele>8.2</ele>
      </trkpt>
      <trkpt lat="44.82844" lon="-0.11236">
        <ele>8</ele>
      </trkpt>
      <trkpt lat="44.82843" lon="-0.11216">
        <ele>8</ele>
      </trkpt>
      <trkpt lat="44.82841" lon="-0.11191">
        <ele>8</ele>
      </trkpt>
      <trkpt lat="44.82839" lon="-0.11163">
        <ele>8</ele>
      </trkpt>
      <trkpt lat="44.82837" lon="-0.11141">
        <ele>8</ele>
      </trkpt>
      <trkpt lat="44.82833" lon="-0.11118">
        <ele>8</ele>
      </trkpt>
      <trkpt lat="44.8283" lon="-0.11103">
        <ele>8</ele>
      </trkpt>
      <trkpt lat="44.82827" lon="-0.11093">
        <ele>7.9</ele>
      </trkpt>
      <trkpt lat="44.82822" lon="-0.11076">
        <ele>7.5</ele>
      </trkpt>
      <trkpt lat="44.82816" lon="-0.1106">
        <ele>6.9</ele>
      </trkpt>
      <trkpt lat="44.82806" lon="-0.11038">
        <ele>6</ele>
      </trkpt>
      <trkpt lat="44.82802" lon="-0.11029">
        <ele>6</ele>
      </trkpt>
      <trkpt lat="44.828" lon="-0.11021">
        <ele>6</ele>
      </trkpt>
      <trkpt lat="44.82798" lon="-0.11009">
        <ele>6</ele>
      </trkpt>
      <trkpt lat="44.82795" lon="-0.10989">
        <ele>6</ele>
      </trkpt>
      <trkpt lat="44.82791" lon="-0.10961">
        <ele>5.8</ele>
      </trkpt>
      <trkpt lat="44.82786" lon="-0.10927">
        <ele>5.7</ele>
      </trkpt>
      <trkpt lat="44.82781" lon="-0.10894">
        <ele>6</ele>
      </trkpt>
      <trkpt lat="44.82778" lon="-0.1086">
        <ele>6</ele>
      </trkpt>
      <trkpt lat="44.82775" lon="-0.10821">
        <ele>6</ele>
      </trkpt>
      <trkpt lat="44.82775" lon="-0.10786">
        <ele>6</ele>
      </trkpt>
      <trkpt lat="44.82775" lon="-0.10773">
        <ele>6</ele>
      </trkpt>
      <trkpt lat="44.82776" lon="-0.10762">
        <ele>6</ele>
      </trkpt>
      <trkpt lat="44.82779" lon="-0.10723">
        <ele>6</ele>
      </trkpt>
      <trkpt lat="44.8278" lon="-0.10711">
        <ele>6</ele>
      </trkpt>
      <trkpt lat="44.8278" lon="-0.107">
        <ele>6</ele>
      </trkpt>
      <trkpt lat="44.82779" lon="-0.10676">
        <ele>5.4</ele>
      </trkpt>
      <trkpt lat="44.82777" lon="-0.10643">
        <ele>5.9</ele>
      </trkpt>
      <trkpt lat="44.82766" lon="-0.10541">
        <ele>6</ele>
      </trkpt>
      <trkpt lat="44.82763" lon="-0.10504">
        <ele>6</ele>
      </trkpt>
      <trkpt lat="44.82747" lon="-0.10333">
        <ele>6</ele>
      </trkpt>
      <trkpt lat="44.82744" lon="-0.10296">
        <ele>6</ele>
      </trkpt>
      <trkpt lat="44.82742" lon="-0.10266">
        <ele>6</ele>
      </trkpt>
      <trkpt lat="44.82742" lon="-0.10262">
        <ele>6</ele>
      </trkpt>
      <trkpt lat="44.8274" lon="-0.10222">
        <ele>6</ele>
      </trkpt>
      <trkpt lat="44.82739" lon="-0.102">
        <ele>6</ele>
      </trkpt>
      <trkpt lat="44.82737" lon="-0.10179">
        <ele>6.3</ele>
      </trkpt>
      <trkpt lat="44.82736" lon="-0.10154">
        <ele>6.7</ele>
      </trkpt>
      <trkpt lat="44.82736" lon="-0.1013">
        <ele>7</ele>
      </trkpt>
      <trkpt lat="44.82736" lon="-0.10112">
        <ele>7</ele>
      </trkpt>
      <trkpt lat="44.82737" lon="-0.10096">
        <ele>7</ele>
      </trkpt>
      <trkpt lat="44.82738" lon="-0.10074">
        <ele>7</ele>
      </trkpt>
      <trkpt lat="44.82741" lon="-0.10048">
        <ele>7</ele>
      </trkpt>
      <trkpt lat="44.82748" lon="-0.10001">
        <ele>7</ele>
      </trkpt>
      <trkpt lat="44.82758" lon="-0.09943">
        <ele>7.7</ele>
      </trkpt>
      <trkpt lat="44.8277" lon="-0.09884">
        <ele>8</ele>
      </trkpt>
      <trkpt lat="44.82781" lon="-0.09836">
        <ele>7.9</ele>
      </trkpt>
      <trkpt lat="44.82786" lon="-0.09813">
        <ele>7.7</ele>
      </trkpt>
      <trkpt lat="44.82789" lon="-0.09793">
        <ele>7.8</ele>
      </trkpt>
      <trkpt lat="44.82791" lon="-0.09777">
        <ele>8</ele>
      </trkpt>
      <trkpt lat="44.82792" lon="-0.0976">
        <ele>7.1</ele>
      </trkpt>
      <trkpt lat="44.82793" lon="-0.09745">
        <ele>6.4</ele>
      </trkpt>
      <trkpt lat="44.82794" lon="-0.09739">
        <ele>6.3</ele>
      </trkpt>
      <trkpt lat="44.82795" lon="-0.09738">
        <ele>6.4</ele>
      </trkpt>
      <trkpt lat="44.82798" lon="-0.09727">
        <ele>6.5</ele>
      </trkpt>
      <trkpt lat="44.82803" lon="-0.09715">
        <ele>6.5</ele>
      </trkpt>
      <trkpt lat="44.8281" lon="-0.09705">
        <ele>5.8</ele>
      </trkpt>
      <trkpt lat="44.82821" lon="-0.0969">
        <ele>5.4</ele>
      </trkpt>
      <trkpt lat="44.82827" lon="-0.09682">
        <ele>5.7</ele>
      </trkpt>
      <trkpt lat="44.82865" lon="-0.09635">
        <ele>5.8</ele>
      </trkpt>
      <trkpt lat="44.82898" lon="-0.09591">
        <ele>5.1</ele>
      </trkpt>
      <trkpt lat="44.82935" lon="-0.09537">
        <ele>6</ele>
      </trkpt>
      <trkpt lat="44.82966" lon="-0.0949">
        <ele>6.1</ele>
      </trkpt>
      <trkpt lat="44.82986" lon="-0.09455">
        <ele>5.9</ele>
      </trkpt>
      <trkpt lat="44.83001" lon="-0.09422">
        <ele>6.2</ele>
      </trkpt>
      <trkpt lat="44.8302" lon="-0.09387">
        <ele>6.1</ele>
      </trkpt>
      <trkpt lat="44.83043" lon="-0.09337">
        <ele>6.8</ele>
      </trkpt>
      <trkpt lat="44.83065" lon="-0.09289">
        <ele>6.6</ele>
      </trkpt>
      <trkpt lat="44.83071" lon="-0.09275">
        <ele>6.6</ele>
      </trkpt>
      <trkpt lat="44.83083" lon="-0.09245">
        <ele>7.6</ele>
      </trkpt>
      <trkpt lat="44.83097" lon="-0.09201">
        <ele>6.5</ele>
      </trkpt>
      <trkpt lat="44.8311" lon="-0.09159">
        <ele>7.5</ele>
      </trkpt>
      <trkpt lat="44.83128" lon="-0.09112">
        <ele>6.5</ele>
      </trkpt>
      <trkpt lat="44.83155" lon="-0.09051">
        <ele>6</ele>
      </trkpt>
      <trkpt lat="44.8316" lon="-0.09036">
        <ele>6</ele>
      </trkpt>
      <trkpt lat="44.83177" lon="-0.08991">
        <ele>6.6</ele>
      </trkpt>
      <trkpt lat="44.83204" lon="-0.08918">
        <ele>6.4</ele>
      </trkpt>
      <trkpt lat="44.83214" lon="-0.08886">
        <ele>5.6</ele>
      </trkpt>
      <trkpt lat="44.8323" lon="-0.08826">
        <ele>6.6</ele>
      </trkpt>
      <trkpt lat="44.83251" lon="-0.08753">
        <ele>7.1</ele>
      </trkpt>
      <trkpt lat="44.83263" lon="-0.08716">
        <ele>5.2</ele>
      </trkpt>
      <trkpt lat="44.83282" lon="-0.08663">
        <ele>6.7</ele>
      </trkpt>
      <trkpt lat="44.83303" lon="-0.08604">
        <ele>7</ele>
      </trkpt>
      <trkpt lat="44.83319" lon="-0.08563">
        <ele>5.5</ele>
      </trkpt>
      <trkpt lat="44.83327" lon="-0.08545">
        <ele>6.6</ele>
      </trkpt>
      <trkpt lat="44.83336" lon="-0.08521">
        <ele>7.3</ele>
      </trkpt>
      <trkpt lat="44.83347" lon="-0.08499">
        <ele>5.9</ele>
      </trkpt>
      <trkpt lat="44.83363" lon="-0.0847">
        <ele>6.8</ele>
      </trkpt>
      <trkpt lat="44.83383" lon="-0.08436">
        <ele>6.2</ele>
      </trkpt>
      <trkpt lat="44.83406" lon="-0.08382">
        <ele>6</ele>
      </trkpt>
      <trkpt lat="44.83428" lon="-0.0834">
        <ele>6.6</ele>
      </trkpt>
      <trkpt lat="44.8344" lon="-0.08346">
        <ele>7.3</ele>
      </trkpt>
      <trkpt lat="44.83468" lon="-0.0836">
        <ele>7.1</ele>
      </trkpt>
      <trkpt lat="44.83492" lon="-0.08372">
        <ele>7.1</ele>
      </trkpt>
      <trkpt lat="44.83528" lon="-0.08391">
        <ele>7</ele>
      </trkpt>
      <trkpt lat="44.83552" lon="-0.08404">
        <ele>7</ele>
      </trkpt>
      <trkpt lat="44.83576" lon="-0.08418">
        <ele>7</ele>
      </trkpt>
      <trkpt lat="44.83598" lon="-0.08431">
        <ele>7.2</ele>
      </trkpt>
      <trkpt lat="44.83622" lon="-0.08443">
        <ele>7</ele>
      </trkpt>
      <trkpt lat="44.83645" lon="-0.08455">
        <ele>7</ele>
      </trkpt>
      <trkpt lat="44.83687" lon="-0.08472">
        <ele>7</ele>
      </trkpt>
      <trkpt lat="44.83713" lon="-0.08481">
        <ele>7</ele>
      </trkpt>
      <trkpt lat="44.83713" lon="-0.08488">
        <ele>7</ele>
      </trkpt>
      <trkpt lat="44.83713" lon="-0.08488">
        <ele>7</ele>
      </trkpt>
      <trkpt lat="44.83713" lon="-0.08481">
        <ele>7</ele>
      </trkpt>
      <trkpt lat="44.83714" lon="-0.08442">
        <ele>7</ele>
      </trkpt>
      <trkpt lat="44.83718" lon="-0.08359">
        <ele>7</ele>
      </trkpt>
      <trkpt lat="44.83723" lon="-0.08297">
        <ele>7</ele>
      </trkpt>
      <trkpt lat="44.83738" lon="-0.08132">
        <ele>7</ele>
      </trkpt>
      <trkpt lat="44.8374" lon="-0.08112">
        <ele>7</ele>
      </trkpt>
      <trkpt lat="44.83742" lon="-0.08063">
        <ele>7</ele>
      </trkpt>
      <trkpt lat="44.83744" lon="-0.07986">
        <ele>7</ele>
      </trkpt>
      <trkpt lat="44.83748" lon="-0.07891">
        <ele>7</ele>
      </trkpt>
      <trkpt lat="44.83755" lon="-0.07809">
        <ele>7</ele>
      </trkpt>
      <trkpt lat="44.83767" lon="-0.0768">
        <ele>7</ele>
      </trkpt>
      <trkpt lat="44.83775" lon="-0.0759">
        <ele>7</ele>
      </trkpt>
      <trkpt lat="44.83777" lon="-0.07562">
        <ele>7</ele>
      </trkpt>
      <trkpt lat="44.83778" lon="-0.07538">
        <ele>7</ele>
      </trkpt>
      <trkpt lat="44.83778" lon="-0.07515">
        <ele>7</ele>
      </trkpt>
      <trkpt lat="44.83778" lon="-0.07513">
        <ele>7</ele>
      </trkpt>
      <trkpt lat="44.83778" lon="-0.07488">
        <ele>7</ele>
      </trkpt>
      <trkpt lat="44.83778" lon="-0.07461">
        <ele>7</ele>
      </trkpt>
      <trkpt lat="44.83777" lon="-0.07434">
        <ele>7</ele>
      </trkpt>
      <trkpt lat="44.83777" lon="-0.07405">
        <ele>7</ele>
      </trkpt>
      <trkpt lat="44.83776" lon="-0.07363">
        <ele>6.9</ele>
      </trkpt>
      <trkpt lat="44.83777" lon="-0.07349">
        <ele>6.9</ele>
      </trkpt>
      <trkpt lat="44.83778" lon="-0.07336">
        <ele>7</ele>
      </trkpt>
      <trkpt lat="44.83781" lon="-0.07328">
        <ele>6.9</ele>
      </trkpt>
      <trkpt lat="44.83783" lon="-0.07321">
        <ele>6.8</ele>
      </trkpt>
      <trkpt lat="44.83795" lon="-0.07291">
        <ele>6.8</ele>
      </trkpt>
      <trkpt lat="44.83801" lon="-0.07264">
        <ele>6.8</ele>
      </trkpt>
      <trkpt lat="44.83812" lon="-0.07224">
        <ele>6.5</ele>
      </trkpt>
      <trkpt lat="44.83822" lon="-0.07198">
        <ele>6.1</ele>
      </trkpt>
      <trkpt lat="44.83832" lon="-0.07174">
        <ele>7</ele>
      </trkpt>
      <trkpt lat="44.8384" lon="-0.07158">
        <ele>6.5</ele>
      </trkpt>
      <trkpt lat="44.8385" lon="-0.07144">
        <ele>6.6</ele>
      </trkpt>
      <trkpt lat="44.83861" lon="-0.07131">
        <ele>7.7</ele>
      </trkpt>
      <trkpt lat="44.83871" lon="-0.07122">
        <ele>7.6</ele>
      </trkpt>
      <trkpt lat="44.83882" lon="-0.07115">
        <ele>7.8</ele>
      </trkpt>
      <trkpt lat="44.83892" lon="-0.0711">
        <ele>8.2</ele>
      </trkpt>
      <trkpt lat="44.83908" lon="-0.07105">
        <ele>9.5</ele>
      </trkpt>
      <trkpt lat="44.8393" lon="-0.07098">
        <ele>11.4</ele>
      </trkpt>
      <trkpt lat="44.83945" lon="-0.07091">
        <ele>12.7</ele>
      </trkpt>
      <trkpt lat="44.83954" lon="-0.07078">
        <ele>13</ele>
      </trkpt>
      <trkpt lat="44.83962" lon="-0.07064">
        <ele>13</ele>
      </trkpt>
      <trkpt lat="44.8397" lon="-0.07035">
        <ele>13.7</ele>
      </trkpt>
      <trkpt lat="44.83984" lon="-0.06989">
        <ele>14.2</ele>
      </trkpt>
      <trkpt lat="44.83999" lon="-0.06945">
        <ele>14.9</ele>
      </trkpt>
      <trkpt lat="44.84014" lon="-0.06906">
        <ele>15</ele>
      </trkpt>
      <trkpt lat="44.84029" lon="-0.06869">
        <ele>15</ele>
      </trkpt>
      <trkpt lat="44.84045" lon="-0.06839">
        <ele>14.7</ele>
      </trkpt>
      <trkpt lat="44.84064" lon="-0.06808">
        <ele>14.1</ele>
      </trkpt>
      <trkpt lat="44.84085" lon="-0.06769">
        <ele>13.9</ele>
      </trkpt>
      <trkpt lat="44.84104" lon="-0.06734">
        <ele>14</ele>
      </trkpt>
      <trkpt lat="44.84114" lon="-0.06708">
        <ele>14.5</ele>
      </trkpt>
      <trkpt lat="44.84125" lon="-0.06677">
        <ele>14.5</ele>
      </trkpt>
      <trkpt lat="44.84136" lon="-0.06644">
        <ele>14.1</ele>
      </trkpt>
      <trkpt lat="44.84144" lon="-0.06626">
        <ele>13.6</ele>
      </trkpt>
      <trkpt lat="44.84156" lon="-0.06604">
        <ele>13.7</ele>
      </trkpt>
      <trkpt lat="44.84184" lon="-0.06562">
        <ele>14</ele>
      </trkpt>
      <trkpt lat="44.84219" lon="-0.06515">
        <ele>13.9</ele>
      </trkpt>
      <trkpt lat="44.84248" lon="-0.06471">
        <ele>14</ele>
      </trkpt>
      <trkpt lat="44.84284" lon="-0.06419">
        <ele>15.2</ele>
      </trkpt>
      <trkpt lat="44.84296" lon="-0.06402">
        <ele>15.8</ele>
      </trkpt>
      <trkpt lat="44.84308" lon="-0.06385">
        <ele>16</ele>
      </trkpt>
      <trkpt lat="44.84333" lon="-0.06354">
        <ele>16</ele>
      </trkpt>
      <trkpt lat="44.84349" lon="-0.06333">
        <ele>16</ele>
      </trkpt>
      <trkpt lat="44.84383" lon="-0.06288">
        <ele>16</ele>
      </trkpt>
      <trkpt lat="44.84435" lon="-0.06218">
        <ele>16</ele>
      </trkpt>
      <trkpt lat="44.84475" lon="-0.06164">
        <ele>16</ele>
      </trkpt>
      <trkpt lat="44.84497" lon="-0.06136">
        <ele>16</ele>
      </trkpt>
      <trkpt lat="44.84516" lon="-0.0611">
        <ele>16</ele>
      </trkpt>
      <trkpt lat="44.84542" lon="-0.06081">
        <ele>16</ele>
      </trkpt>
      <trkpt lat="44.84581" lon="-0.06042">
        <ele>16</ele>
      </trkpt>
      <trkpt lat="44.84607" lon="-0.06016">
        <ele>16</ele>
      </trkpt>
      <trkpt lat="44.84642" lon="-0.05972">
        <ele>17</ele>
      </trkpt>
      <trkpt lat="44.84673" lon="-0.05932">
        <ele>17</ele>
      </trkpt>
      <trkpt lat="44.8468" lon="-0.05923">
        <ele>17</ele>
      </trkpt>
      <trkpt lat="44.84695" lon="-0.05903">
        <ele>17</ele>
      </trkpt>
      <trkpt lat="44.84705" lon="-0.05889">
        <ele>17</ele>
      </trkpt>
      <trkpt lat="44.84708" lon="-0.05886">
        <ele>17</ele>
      </trkpt>
      <trkpt lat="44.84711" lon="-0.05883">
        <ele>17</ele>
      </trkpt>
      <trkpt lat="44.84714" lon="-0.05882">
        <ele>17</ele>
      </trkpt>
      <trkpt lat="44.84716" lon="-0.05882">
        <ele>17</ele>
      </trkpt>
      <trkpt lat="44.84719" lon="-0.05882">
        <ele>17</ele>
      </trkpt>
      <trkpt lat="44.84731" lon="-0.05854">
        <ele>17</ele>
      </trkpt>
      <trkpt lat="44.84755" lon="-0.05807">
        <ele>17.2</ele>
      </trkpt>
      <trkpt lat="44.84773" lon="-0.05772">
        <ele>17</ele>
      </trkpt>
      <trkpt lat="44.84787" lon="-0.05741">
        <ele>17</ele>
      </trkpt>
      <trkpt lat="44.84793" lon="-0.05728">
        <ele>17</ele>
      </trkpt>
      <trkpt lat="44.84799" lon="-0.05712">
        <ele>17</ele>
      </trkpt>
      <trkpt lat="44.84805" lon="-0.05697">
        <ele>17</ele>
      </trkpt>
      <trkpt lat="44.84829" lon="-0.05631">
        <ele>17</ele>
      </trkpt>
      <trkpt lat="44.84847" lon="-0.05577">
        <ele>17</ele>
      </trkpt>
      <trkpt lat="44.84852" lon="-0.05561">
        <ele>17</ele>
      </trkpt>
      <trkpt lat="44.84863" lon="-0.05531">
        <ele>17</ele>
      </trkpt>
      <trkpt lat="44.84868" lon="-0.05518">
        <ele>17</ele>
      </trkpt>
      <trkpt lat="44.84872" lon="-0.05508">
        <ele>17</ele>
      </trkpt>
      <trkpt lat="44.84873" lon="-0.05505">
        <ele>17</ele>
      </trkpt>
      <trkpt lat="44.84879" lon="-0.05491">
        <ele>17</ele>
      </trkpt>
      <trkpt lat="44.84895" lon="-0.0545">
        <ele>17.2</ele>
      </trkpt>
      <trkpt lat="44.84898" lon="-0.05443">
        <ele>17.3</ele>
      </trkpt>
      <trkpt lat="44.8491" lon="-0.05411">
        <ele>17</ele>
      </trkpt>
      <trkpt lat="44.8492" lon="-0.05378">
        <ele>17.1</ele>
      </trkpt>
      <trkpt lat="44.84939" lon="-0.05313">
        <ele>17.8</ele>
      </trkpt>
      <trkpt lat="44.84941" lon="-0.05304">
        <ele>17.9</ele>
      </trkpt>
      <trkpt lat="44.84944" lon="-0.05295">
        <ele>18</ele>
      </trkpt>
      <trkpt lat="44.84944" lon="-0.05295">
        <ele>18</ele>
      </trkpt>
      <trkpt lat="44.84933" lon="-0.05291">
        <ele>17.8</ele>
      </trkpt>
      <trkpt lat="44.8492" lon="-0.05285">
        <ele>17.8</ele>
      </trkpt>
      <trkpt lat="44.84904" lon="-0.05276">
        <ele>17.9</ele>
      </trkpt>
      <trkpt lat="44.84895" lon="-0.0527">
        <ele>17.7</ele>
      </trkpt>
      <trkpt lat="44.84884" lon="-0.05263">
        <ele>17.4</ele>
      </trkpt>
      <trkpt lat="44.84873" lon="-0.05256">
        <ele>17.1</ele>
      </trkpt>
      <trkpt lat="44.84863" lon="-0.05248">
        <ele>17</ele>
      </trkpt>
      <trkpt lat="44.84848" lon="-0.05236">
        <ele>16.8</ele>
      </trkpt>
      <trkpt lat="44.84834" lon="-0.05221">
        <ele>16</ele>
      </trkpt>
      <trkpt lat="44.84825" lon="-0.05211">
        <ele>16.1</ele>
      </trkpt>
      <trkpt lat="44.84824" lon="-0.05209">
        <ele>16</ele>
      </trkpt>
      <trkpt lat="44.84814" lon="-0.05198">
        <ele>15.5</ele>
      </trkpt>
      <trkpt lat="44.84803" lon="-0.05184">
        <ele>13.2</ele>
      </trkpt>
      <trkpt lat="44.8479" lon="-0.05167">
        <ele>7</ele>
      </trkpt>
      <trkpt lat="44.84755" lon="-0.05125">
        <ele>2</ele>
      </trkpt>
      <trkpt lat="44.8472" lon="-0.05083">
        <ele>2</ele>
      </trkpt>
      <trkpt lat="44.84696" lon="-0.05053">
        <ele>2</ele>
      </trkpt>
      <trkpt lat="44.84672" lon="-0.05023">
        <ele>7.9</ele>
      </trkpt>
      <trkpt lat="44.84657" lon="-0.05005">
        <ele>9.8</ele>
      </trkpt>
      <trkpt lat="44.84656" lon="-0.05004">
        <ele>9.8</ele>
      </trkpt>
      <trkpt lat="44.84613" lon="-0.0495">
        <ele>9.7</ele>
      </trkpt>
      <trkpt lat="44.84582" lon="-0.04909">
        <ele>8.7</ele>
      </trkpt>
      <trkpt lat="44.84573" lon="-0.04915">
        <ele>8.6</ele>
      </trkpt>
      <trkpt lat="44.84566" lon="-0.0492">
        <ele>8.3</ele>
      </trkpt>
      <trkpt lat="44.84559" lon="-0.04927">
        <ele>8.1</ele>
      </trkpt>
      <trkpt lat="44.84554" lon="-0.04932">
        <ele>8</ele>
      </trkpt>
      <trkpt lat="44.84549" lon="-0.04937">
        <ele>8</ele>
      </trkpt>
      <trkpt lat="44.84546" lon="-0.04942">
        <ele>8</ele>
      </trkpt>
      <trkpt lat="44.84543" lon="-0.04949">
        <ele>8</ele>
      </trkpt>
      <trkpt lat="44.84537" lon="-0.04966">
        <ele>8</ele>
      </trkpt>
      <trkpt lat="44.84537" lon="-0.04967">
        <ele>8</ele>
      </trkpt>
      <trkpt lat="44.84527" lon="-0.05004">
        <ele>8</ele>
      </trkpt>
      <trkpt lat="44.8451" lon="-0.05079">
        <ele>8</ele>
      </trkpt>
      <trkpt lat="44.845" lon="-0.05128">
        <ele>8</ele>
      </trkpt>
      <trkpt lat="44.84497" lon="-0.05151">
        <ele>8</ele>
      </trkpt>
      <trkpt lat="44.84497" lon="-0.0516">
        <ele>8</ele>
      </trkpt>
      <trkpt lat="44.84496" lon="-0.05169">
        <ele>8</ele>
      </trkpt>
      <trkpt lat="44.84497" lon="-0.05183">
        <ele>8</ele>
      </trkpt>
      <trkpt lat="44.84497" lon="-0.05195">
        <ele>8</ele>
      </trkpt>
      <trkpt lat="44.84496" lon="-0.05203">
        <ele>7.8</ele>
      </trkpt>
      <trkpt lat="44.84491" lon="-0.05214">
        <ele>7.8</ele>
      </trkpt>
      <trkpt lat="44.84483" lon="-0.05226">
        <ele>8.1</ele>
      </trkpt>
      <trkpt lat="44.84455" lon="-0.05263">
        <ele>8.2</ele>
      </trkpt>
      <trkpt lat="44.84426" lon="-0.053">
        <ele>8</ele>
      </trkpt>
      <trkpt lat="44.84408" lon="-0.05327">
        <ele>8</ele>
      </trkpt>
      <trkpt lat="44.84389" lon="-0.05357">
        <ele>8</ele>
      </trkpt>
      <trkpt lat="44.84368" lon="-0.05393">
        <ele>7.2</ele>
      </trkpt>
      <trkpt lat="44.84349" lon="-0.0543">
        <ele>7.5</ele>
      </trkpt>
      <trkpt lat="44.84323" lon="-0.05482">
        <ele>7.3</ele>
      </trkpt>
      <trkpt lat="44.84299" lon="-0.05535">
        <ele>6.6</ele>
      </trkpt>
      <trkpt lat="44.84269" lon="-0.056">
        <ele>5.9</ele>
      </trkpt>
      <trkpt lat="44.84237" lon="-0.05653">
        <ele>6.4</ele>
      </trkpt>
      <trkpt lat="44.84197" lon="-0.05709">
        <ele>7.2</ele>
      </trkpt>
      <trkpt lat="44.84157" lon="-0.05771">
        <ele>7</ele>
      </trkpt>
      <trkpt lat="44.84141" lon="-0.05799">
        <ele>7.1</ele>
      </trkpt>
      <trkpt lat="44.84134" lon="-0.05813">
        <ele>6.8</ele>
      </trkpt>
      <trkpt lat="44.84129" lon="-0.05826">
        <ele>6.8</ele>
      </trkpt>
      <trkpt lat="44.84122" lon="-0.05851">
        <ele>6.7</ele>
      </trkpt>
      <trkpt lat="44.84114" lon="-0.05882">
        <ele>7.4</ele>
      </trkpt>
      <trkpt lat="44.84106" lon="-0.05913">
        <ele>6.6</ele>
      </trkpt>
      <trkpt lat="44.841" lon="-0.05931">
        <ele>5.6</ele>
      </trkpt>
      <trkpt lat="44.84094" lon="-0.05947">
        <ele>5.6</ele>
      </trkpt>
      <trkpt lat="44.84088" lon="-0.05962">
        <ele>6.5</ele>
      </trkpt>
      <trkpt lat="44.84081" lon="-0.05977">
        <ele>6.5</ele>
      </trkpt>
      <trkpt lat="44.84066" lon="-0.06009">
        <ele>5.8</ele>
      </trkpt>
      <trkpt lat="44.84034" lon="-0.06072">
        <ele>6.4</ele>
      </trkpt>
      <trkpt lat="44.83995" lon="-0.06154">
        <ele>6.7</ele>
      </trkpt>
      <trkpt lat="44.8396" lon="-0.06229">
        <ele>5.9</ele>
      </trkpt>
      <trkpt lat="44.83943" lon="-0.06271">
        <ele>7.3</ele>
      </trkpt>
      <trkpt lat="44.83913" lon="-0.06346">
        <ele>6.4</ele>
      </trkpt>
      <trkpt lat="44.83893" lon="-0.06403">
        <ele>6.7</ele>
      </trkpt>
      <trkpt lat="44.83879" lon="-0.06439">
        <ele>4.8</ele>
      </trkpt>
      <trkpt lat="44.83869" lon="-0.06464">
        <ele>5.8</ele>
      </trkpt>
      <trkpt lat="44.83853" lon="-0.06499">
        <ele>5.6</ele>
      </trkpt>
      <trkpt lat="44.83834" lon="-0.06537">
        <ele>6.2</ele>
      </trkpt>
      <trkpt lat="44.8382" lon="-0.06568">
        <ele>5.7</ele>
      </trkpt>
      <trkpt lat="44.83803" lon="-0.06604">
        <ele>7.3</ele>
      </trkpt>
      <trkpt lat="44.83781" lon="-0.06652">
        <ele>6.9</ele>
      </trkpt>
      <trkpt lat="44.83773" lon="-0.06666">
        <ele>7.2</ele>
      </trkpt>
      <trkpt lat="44.83767" lon="-0.06679">
        <ele>6.6</ele>
      </trkpt>
      <trkpt lat="44.83758" lon="-0.06693">
        <ele>6.9</ele>
      </trkpt>
      <trkpt lat="44.83749" lon="-0.06705">
        <ele>6.5</ele>
      </trkpt>
      <trkpt lat="44.83729" lon="-0.06724">
        <ele>6.8</ele>
      </trkpt>
      <trkpt lat="44.83713" lon="-0.06743">
        <ele>6</ele>
      </trkpt>
      <trkpt lat="44.83709" lon="-0.06748">
        <ele>6.1</ele>
      </trkpt>
      <trkpt lat="44.83701" lon="-0.06758">
        <ele>6.6</ele>
      </trkpt>
      <trkpt lat="44.83689" lon="-0.06777">
        <ele>6.4</ele>
      </trkpt>
      <trkpt lat="44.83676" lon="-0.06801">
        <ele>6.8</ele>
      </trkpt>
      <trkpt lat="44.83666" lon="-0.06822">
        <ele>7.4</ele>
      </trkpt>
      <trkpt lat="44.83656" lon="-0.0685">
        <ele>5.9</ele>
      </trkpt>
      <trkpt lat="44.83644" lon="-0.06891">
        <ele>7</ele>
      </trkpt>
      <trkpt lat="44.83632" lon="-0.06943">
        <ele>5.1</ele>
      </trkpt>
      <trkpt lat="44.83624" lon="-0.06978">
        <ele>5.2</ele>
      </trkpt>
      <trkpt lat="44.83619" lon="-0.06997">
        <ele>6.3</ele>
      </trkpt>
      <trkpt lat="44.83611" lon="-0.07016">
        <ele>6.9</ele>
      </trkpt>
      <trkpt lat="44.83604" lon="-0.07032">
        <ele>6.5</ele>
      </trkpt>
      <trkpt lat="44.836" lon="-0.0704">
        <ele>6.8</ele>
      </trkpt>
      <trkpt lat="44.83587" lon="-0.07062">
        <ele>7.6</ele>
      </trkpt>
      <trkpt lat="44.83567" lon="-0.07096">
        <ele>8</ele>
      </trkpt>
      <trkpt lat="44.83553" lon="-0.0712">
        <ele>8</ele>
      </trkpt>
      <trkpt lat="44.83537" lon="-0.07146">
        <ele>7.3</ele>
      </trkpt>
      <trkpt lat="44.83521" lon="-0.07173">
        <ele>7.4</ele>
      </trkpt>
      <trkpt lat="44.83513" lon="-0.07184">
        <ele>7.5</ele>
      </trkpt>
      <trkpt lat="44.83503" lon="-0.07199">
        <ele>7.1</ele>
      </trkpt>
      <trkpt lat="44.83489" lon="-0.07219">
        <ele>7.4</ele>
      </trkpt>
      <trkpt lat="44.83462" lon="-0.07259">
        <ele>7</ele>
      </trkpt>
      <trkpt lat="44.83437" lon="-0.07298">
        <ele>7.1</ele>
      </trkpt>
      <trkpt lat="44.83416" lon="-0.07332">
        <ele>7</ele>
      </trkpt>
      <trkpt lat="44.83397" lon="-0.07368">
        <ele>7</ele>
      </trkpt>
      <trkpt lat="44.83348" lon="-0.07465">
        <ele>7.5</ele>
      </trkpt>
      <trkpt lat="44.8331" lon="-0.07538">
        <ele>7</ele>
      </trkpt>
      <trkpt lat="44.83298" lon="-0.07562">
        <ele>7</ele>
      </trkpt>
      <trkpt lat="44.83285" lon="-0.07591">
        <ele>7</ele>
      </trkpt>
      <trkpt lat="44.83264" lon="-0.07641">
        <ele>7</ele>
      </trkpt>
      <trkpt lat="44.83235" lon="-0.07715">
        <ele>7</ele>
      </trkpt>
      <trkpt lat="44.83216" lon="-0.0776">
        <ele>6.8</ele>
      </trkpt>
      <trkpt lat="44.8321" lon="-0.07774">
        <ele>6.9</ele>
      </trkpt>
      <trkpt lat="44.83206" lon="-0.07783">
        <ele>7.1</ele>
      </trkpt>
      <trkpt lat="44.83202" lon="-0.0779">
        <ele>7.3</ele>
      </trkpt>
      <trkpt lat="44.83198" lon="-0.07797">
        <ele>7.2</ele>
      </trkpt>
      <trkpt lat="44.83191" lon="-0.07806">
        <ele>7.1</ele>
      </trkpt>
      <trkpt lat="44.83187" lon="-0.07812">
        <ele>7.3</ele>
      </trkpt>
      <trkpt lat="44.8318" lon="-0.07818">
        <ele>7.5</ele>
      </trkpt>
      <trkpt lat="44.83175" lon="-0.07823">
        <ele>7.7</ele>
      </trkpt>
      <trkpt lat="44.83168" lon="-0.07827">
        <ele>8</ele>
      </trkpt>
      <trkpt lat="44.83154" lon="-0.07836">
        <ele>7.6</ele>
      </trkpt>
      <trkpt lat="44.83143" lon="-0.07843">
        <ele>7.4</ele>
      </trkpt>
      <trkpt lat="44.83139" lon="-0.07847">
        <ele>7.5</ele>
      </trkpt>
      <trkpt lat="44.83137" lon="-0.07849">
        <ele>7.6</ele>
      </trkpt>
      <trkpt lat="44.83134" lon="-0.07852">
        <ele>7.7</ele>
      </trkpt>
      <trkpt lat="44.83131" lon="-0.07857">
        <ele>7.9</ele>
      </trkpt>
      <trkpt lat="44.83128" lon="-0.07863">
        <ele>8</ele>
      </trkpt>
      <trkpt lat="44.83124" lon="-0.07874">
        <ele>8</ele>
      </trkpt>
      <trkpt lat="44.8312" lon="-0.07888">
        <ele>7.7</ele>
      </trkpt>
      <trkpt lat="44.83116" lon="-0.07913">
        <ele>8.4</ele>
      </trkpt>
      <trkpt lat="44.83111" lon="-0.0794">
        <ele>8</ele>
      </trkpt>
      <trkpt lat="44.8311" lon="-0.07948">
        <ele>8</ele>
      </trkpt>
      <trkpt lat="44.83104" lon="-0.07998">
        <ele>7.3</ele>
      </trkpt>
      <trkpt lat="44.83102" lon="-0.08017">
        <ele>7.7</ele>
      </trkpt>
      <trkpt lat="44.83101" lon="-0.08039">
        <ele>8</ele>
      </trkpt>
      <trkpt lat="44.83099" lon="-0.08068">
        <ele>8</ele>
      </trkpt>
      <trkpt lat="44.83097" lon="-0.08094">
        <ele>7.8</ele>
      </trkpt>
      <trkpt lat="44.83094" lon="-0.08117">
        <ele>7.3</ele>
      </trkpt>
      <trkpt lat="44.83093" lon="-0.08131">
        <ele>6.7</ele>
      </trkpt>
      <trkpt lat="44.83091" lon="-0.08145">
        <ele>6.4</ele>
      </trkpt>
      <trkpt lat="44.8309" lon="-0.08152">
        <ele>6.3</ele>
      </trkpt>
      <trkpt lat="44.83089" lon="-0.08159">
        <ele>6.3</ele>
      </trkpt>
      <trkpt lat="44.83082" lon="-0.08179">
        <ele>6.2</ele>
      </trkpt>
      <trkpt lat="44.83079" lon="-0.08188">
        <ele>5.9</ele>
      </trkpt>
      <trkpt lat="44.83076" lon="-0.08197">
        <ele>5.7</ele>
      </trkpt>
      <trkpt lat="44.83063" lon="-0.08225">
        <ele>6.4</ele>
      </trkpt>
      <trkpt lat="44.83052" lon="-0.08251">
        <ele>5.4</ele>
      </trkpt>
      <trkpt lat="44.8305" lon="-0.08249">
        <ele>5.7</ele>
      </trkpt>
      <trkpt lat="44.8305" lon="-0.08249">
        <ele>5.7</ele>
      </trkpt>
      <trkpt lat="44.83052" lon="-0.08251">
        <ele>5.4</ele>
      </trkpt>
      <trkpt lat="44.83037" lon="-0.08294">
        <ele>5.9</ele>
      </trkpt>
      <trkpt lat="44.83026" lon="-0.08331">
        <ele>5.3</ele>
      </trkpt>
      <trkpt lat="44.83017" lon="-0.08361">
        <ele>4.9</ele>
      </trkpt>
      <trkpt lat="44.83006" lon="-0.08387">
        <ele>6.7</ele>
      </trkpt>
      <trkpt lat="44.82994" lon="-0.08416">
        <ele>4.9</ele>
      </trkpt>
      <trkpt lat="44.82982" lon="-0.08446">
        <ele>5.8</ele>
      </trkpt>
      <trkpt lat="44.82978" lon="-0.0846">
        <ele>6.2</ele>
      </trkpt>
      <trkpt lat="44.82973" lon="-0.08477">
        <ele>6.5</ele>
      </trkpt>
      <trkpt lat="44.82966" lon="-0.08513">
        <ele>4.4</ele>
      </trkpt>
      <trkpt lat="44.8296" lon="-0.08553">
        <ele>4.2</ele>
      </trkpt>
      <trkpt lat="44.82956" lon="-0.0859">
        <ele>5.1</ele>
      </trkpt>
      <trkpt lat="44.82953" lon="-0.08628">
        <ele>5.5</ele>
      </trkpt>
      <trkpt lat="44.8295" lon="-0.08664">
        <ele>5.8</ele>
      </trkpt>
      <trkpt lat="44.82948" lon="-0.08692">
        <ele>6.2</ele>
      </trkpt>
      <trkpt lat="44.82946" lon="-0.08716">
        <ele>6</ele>
      </trkpt>
      <trkpt lat="44.82946" lon="-0.0874">
        <ele>5.8</ele>
      </trkpt>
      <trkpt lat="44.82946" lon="-0.0876">
        <ele>5.8</ele>
      </trkpt>
      <trkpt lat="44.82945" lon="-0.08778">
        <ele>5.9</ele>
      </trkpt>
      <trkpt lat="44.82945" lon="-0.08795">
        <ele>5.9</ele>
      </trkpt>
      <trkpt lat="44.82944" lon="-0.08809">
        <ele>5.9</ele>
      </trkpt>
      <trkpt lat="44.82942" lon="-0.08825">
        <ele>5.5</ele>
      </trkpt>
      <trkpt lat="44.8294" lon="-0.08843">
        <ele>5.5</ele>
      </trkpt>
      <trkpt lat="44.8294" lon="-0.0886">
        <ele>5.5</ele>
      </trkpt>
      <trkpt lat="44.8294" lon="-0.08893">
        <ele>4.8</ele>
      </trkpt>
      <trkpt lat="44.8294" lon="-0.08913">
        <ele>5.4</ele>
      </trkpt>
      <trkpt lat="44.82939" lon="-0.08932">
        <ele>5.1</ele>
      </trkpt>
      <trkpt lat="44.82938" lon="-0.08952">
        <ele>4.7</ele>
      </trkpt>
      <trkpt lat="44.82934" lon="-0.08975">
        <ele>4.8</ele>
      </trkpt>
      <trkpt lat="44.82928" lon="-0.0901">
        <ele>4.8</ele>
      </trkpt>
      <trkpt lat="44.82921" lon="-0.09041">
        <ele>5.7</ele>
      </trkpt>
      <trkpt lat="44.82914" lon="-0.09064">
        <ele>5.5</ele>
      </trkpt>
      <trkpt lat="44.82908" lon="-0.09078">
        <ele>5.2</ele>
      </trkpt>
      <trkpt lat="44.829" lon="-0.09096">
        <ele>5.4</ele>
      </trkpt>
      <trkpt lat="44.82889" lon="-0.0912">
        <ele>6</ele>
      </trkpt>
      <trkpt lat="44.82884" lon="-0.09131">
        <ele>5.2</ele>
      </trkpt>
      <trkpt lat="44.82879" lon="-0.09142">
        <ele>4.9</ele>
      </trkpt>
      <trkpt lat="44.82867" lon="-0.0916">
        <ele>6</ele>
      </trkpt>
      <trkpt lat="44.82836" lon="-0.09202">
        <ele>5.4</ele>
      </trkpt>
      <trkpt lat="44.82799" lon="-0.09245">
        <ele>5.7</ele>
      </trkpt>
      <trkpt lat="44.82777" lon="-0.09275">
        <ele>7</ele>
      </trkpt>
      <trkpt lat="44.82767" lon="-0.09288">
        <ele>6.3</ele>
      </trkpt>
      <trkpt lat="44.82751" lon="-0.09315">
        <ele>6.8</ele>
      </trkpt>
      <trkpt lat="44.82739" lon="-0.09338">
        <ele>5.8</ele>
      </trkpt>
      <trkpt lat="44.82725" lon="-0.09364">
        <ele>6.1</ele>
      </trkpt>
      <trkpt lat="44.82715" lon="-0.09381">
        <ele>4.9</ele>
      </trkpt>
      <trkpt lat="44.82703" lon="-0.09404">
        <ele>5.4</ele>
      </trkpt>
      <trkpt lat="44.8269" lon="-0.09425">
        <ele>5.5</ele>
      </trkpt>
      <trkpt lat="44.82682" lon="-0.09439">
        <ele>4.7</ele>
      </trkpt>
      <trkpt lat="44.82676" lon="-0.09448">
        <ele>5.4</ele>
      </trkpt>
      <trkpt lat="44.82659" lon="-0.09474">
        <ele>5.4</ele>
      </trkpt>
      <trkpt lat="44.82638" lon="-0.09502">
        <ele>6.7</ele>
      </trkpt>
      <trkpt lat="44.82618" lon="-0.09526">
        <ele>5.9</ele>
      </trkpt>
      <trkpt lat="44.82597" lon="-0.09549">
        <ele>5.5</ele>
      </trkpt>
      <trkpt lat="44.82583" lon="-0.09566">
        <ele>5.9</ele>
      </trkpt>
      <trkpt lat="44.82568" lon="-0.09585">
        <ele>5.6</ele>
      </trkpt>
      <trkpt lat="44.82556" lon="-0.096">
        <ele>6.3</ele>
      </trkpt>
      <trkpt lat="44.82542" lon="-0.09623">
        <ele>5.9</ele>
      </trkpt>
      <trkpt lat="44.82531" lon="-0.09641">
        <ele>6.2</ele>
      </trkpt>
      <trkpt lat="44.82501" lon="-0.09691">
        <ele>6.8</ele>
      </trkpt>
      <trkpt lat="44.82491" lon="-0.09705">
        <ele>6.3</ele>
      </trkpt>
      <trkpt lat="44.82479" lon="-0.09722">
        <ele>6.8</ele>
      </trkpt>
      <trkpt lat="44.82449" lon="-0.09765">
        <ele>7.3</ele>
      </trkpt>
      <trkpt lat="44.82438" lon="-0.09782">
        <ele>7</ele>
      </trkpt>
      <trkpt lat="44.82416" lon="-0.09821">
        <ele>7</ele>
      </trkpt>
      <trkpt lat="44.824" lon="-0.09851">
        <ele>6.6</ele>
      </trkpt>
      <trkpt lat="44.82387" lon="-0.09876">
        <ele>7.5</ele>
      </trkpt>
      <trkpt lat="44.82375" lon="-0.09902">
        <ele>6.8</ele>
      </trkpt>
      <trkpt lat="44.82363" lon="-0.09924">
        <ele>7.4</ele>
      </trkpt>
      <trkpt lat="44.82354" lon="-0.09942">
        <ele>7.1</ele>
      </trkpt>
      <trkpt lat="44.82346" lon="-0.09956">
        <ele>6.2</ele>
      </trkpt>
      <trkpt lat="44.82331" lon="-0.0998">
        <ele>6.8</ele>
      </trkpt>
      <trkpt lat="44.82312" lon="-0.10009">
        <ele>6.5</ele>
      </trkpt>
      <trkpt lat="44.82297" lon="-0.10034">
        <ele>7</ele>
      </trkpt>
      <trkpt lat="44.82284" lon="-0.10053">
        <ele>7</ele>
      </trkpt>
      <trkpt lat="44.82272" lon="-0.10073">
        <ele>7</ele>
      </trkpt>
      <trkpt lat="44.82264" lon="-0.10087">
        <ele>7</ele>
      </trkpt>
      <trkpt lat="44.82257" lon="-0.10101">
        <ele>7</ele>
      </trkpt>
      <trkpt lat="44.82249" lon="-0.10118">
        <ele>6.8</ele>
      </trkpt>
      <trkpt lat="44.82234" lon="-0.10159">
        <ele>6.6</ele>
      </trkpt>
      <trkpt lat="44.82217" lon="-0.10208">
        <ele>6.7</ele>
      </trkpt>
      <trkpt lat="44.82203" lon="-0.10251">
        <ele>6.3</ele>
      </trkpt>
      <trkpt lat="44.82198" lon="-0.10267">
        <ele>6.1</ele>
      </trkpt>
      <trkpt lat="44.82188" lon="-0.10301">
        <ele>6.2</ele>
      </trkpt>
      <trkpt lat="44.82178" lon="-0.10341">
        <ele>6</ele>
      </trkpt>
      <trkpt lat="44.82166" lon="-0.104">
        <ele>6.6</ele>
      </trkpt>
      <trkpt lat="44.82156" lon="-0.10462">
        <ele>4.7</ele>
      </trkpt>
      <trkpt lat="44.82146" lon="-0.10523">
        <ele>5.7</ele>
      </trkpt>
      <trkpt lat="44.8214" lon="-0.10587">
        <ele>6.8</ele>
      </trkpt>
      <trkpt lat="44.82125" lon="-0.10743">
        <ele>5.9</ele>
      </trkpt>
      <trkpt lat="44.82108" lon="-0.10915">
        <ele>6.1</ele>
      </trkpt>
      <trkpt lat="44.82106" lon="-0.10936">
        <ele>5.6</ele>
      </trkpt>
      <trkpt lat="44.82103" lon="-0.10964">
        <ele>5.8</ele>
      </trkpt>
      <trkpt lat="44.82099" lon="-0.10999">
        <ele>5.2</ele>
      </trkpt>
      <trkpt lat="44.82096" lon="-0.11031">
        <ele>5.2</ele>
      </trkpt>
      <trkpt lat="44.82094" lon="-0.11059">
        <ele>5.1</ele>
      </trkpt>
      <trkpt lat="44.82094" lon="-0.11085">
        <ele>5.1</ele>
      </trkpt>
      <trkpt lat="44.82095" lon="-0.11112">
        <ele>4.9</ele>
      </trkpt>
      <trkpt lat="44.82098" lon="-0.11146">
        <ele>4.4</ele>
      </trkpt>
      <trkpt lat="44.82101" lon="-0.11183">
        <ele>4.2</ele>
      </trkpt>
      <trkpt lat="44.82107" lon="-0.11219">
        <ele>3.6</ele>
      </trkpt>
      <trkpt lat="44.82116" lon="-0.11273">
        <ele>6</ele>
      </trkpt>
      <trkpt lat="44.82145" lon="-0.11459">
        <ele>5.2</ele>
      </trkpt>
      <trkpt lat="44.82162" lon="-0.11592">
        <ele>3.6</ele>
      </trkpt>
      <trkpt lat="44.82206" lon="-0.12068">
        <ele>4.9</ele>
      </trkpt>
      <trkpt lat="44.82222" lon="-0.12215">
        <ele>4.8</ele>
      </trkpt>
      <trkpt lat="44.82227" lon="-0.1227">
        <ele>5.3</ele>
      </trkpt>
      <trkpt lat="44.82229" lon="-0.1229">
        <ele>5.4</ele>
      </trkpt>
      <trkpt lat="44.82229" lon="-0.12308">
        <ele>5.8</ele>
      </trkpt>
      <trkpt lat="44.8223" lon="-0.12326">
        <ele>5.6</ele>
      </trkpt>
      <trkpt lat="44.82228" lon="-0.12348">
        <ele>5.5</ele>
      </trkpt>
      <trkpt lat="44.82226" lon="-0.12368">
        <ele>5.5</ele>
      </trkpt>
      <trkpt lat="44.82224" lon="-0.12381">
        <ele>5.7</ele>
      </trkpt>
      <trkpt lat="44.82222" lon="-0.12392">
        <ele>5.7</ele>
      </trkpt>
      <trkpt lat="44.82214" lon="-0.12422">
        <ele>4.2</ele>
      </trkpt>
      <trkpt lat="44.82204" lon="-0.12455">
        <ele>5.5</ele>
      </trkpt>
      <trkpt lat="44.82191" lon="-0.12497">
        <ele>5.4</ele>
      </trkpt>
      <trkpt lat="44.82187" lon="-0.12506">
        <ele>5.4</ele>
      </trkpt>
      <trkpt lat="44.82183" lon="-0.12513">
        <ele>5.5</ele>
      </trkpt>
      <trkpt lat="44.82177" lon="-0.12522">
        <ele>6</ele>
      </trkpt>
      <trkpt lat="44.8217" lon="-0.12531">
        <ele>6.5</ele>
      </trkpt>
      <trkpt lat="44.82155" lon="-0.12548">
        <ele>6.8</ele>
      </trkpt>
      <trkpt lat="44.82123" lon="-0.12583">
        <ele>6.6</ele>
      </trkpt>
      <trkpt lat="44.82048" lon="-0.12663">
        <ele>6.7</ele>
      </trkpt>
      <trkpt lat="44.81969" lon="-0.12747">
        <ele>6.8</ele>
      </trkpt>
      <trkpt lat="44.81922" lon="-0.12797">
        <ele>6</ele>
      </trkpt>
      <trkpt lat="44.81907" lon="-0.12812">
        <ele>6.2</ele>
      </trkpt>
      <trkpt lat="44.81893" lon="-0.12824">
        <ele>6.1</ele>
      </trkpt>
      <trkpt lat="44.81888" lon="-0.12828">
        <ele>6</ele>
      </trkpt>
      <trkpt lat="44.81882" lon="-0.12833">
        <ele>6</ele>
      </trkpt>
      <trkpt lat="44.81873" lon="-0.1284">
        <ele>6</ele>
      </trkpt>
      <trkpt lat="44.8186" lon="-0.12847">
        <ele>6</ele>
      </trkpt>
      <trkpt lat="44.81746" lon="-0.12902">
        <ele>6</ele>
      </trkpt>
      <trkpt lat="44.81715" lon="-0.12916">
        <ele>5.7</ele>
      </trkpt>
      <trkpt lat="44.81653" lon="-0.12944">
        <ele>6</ele>
      </trkpt>
      <trkpt lat="44.81615" lon="-0.12961">
        <ele>6</ele>
      </trkpt>
      <trkpt lat="44.81564" lon="-0.12984">
        <ele>5.6</ele>
      </trkpt>
      <trkpt lat="44.81495" lon="-0.13016">
        <ele>5.7</ele>
      </trkpt>
      <trkpt lat="44.81433" lon="-0.13045">
        <ele>6</ele>
      </trkpt>
      <trkpt lat="44.81389" lon="-0.13067">
        <ele>6</ele>
      </trkpt>
      <trkpt lat="44.81379" lon="-0.13073">
        <ele>6</ele>
      </trkpt>
      <trkpt lat="44.81372" lon="-0.13079">
        <ele>6</ele>
      </trkpt>
      <trkpt lat="44.81366" lon="-0.13087">
        <ele>6</ele>
      </trkpt>
      <trkpt lat="44.81363" lon="-0.13093">
        <ele>6</ele>
      </trkpt>
      <trkpt lat="44.8136" lon="-0.13098">
        <ele>6</ele>
      </trkpt>
      <trkpt lat="44.81359" lon="-0.13106">
        <ele>6.1</ele>
      </trkpt>
      <trkpt lat="44.81357" lon="-0.13116">
        <ele>6.1</ele>
      </trkpt>
      <trkpt lat="44.81357" lon="-0.13126">
        <ele>6.1</ele>
      </trkpt>
      <trkpt lat="44.81358" lon="-0.13138">
        <ele>6.1</ele>
      </trkpt>
      <trkpt lat="44.81359" lon="-0.13154">
        <ele>6.1</ele>
      </trkpt>
      <trkpt lat="44.8136" lon="-0.1317">
        <ele>6</ele>
      </trkpt>
      <trkpt lat="44.81359" lon="-0.13183">
        <ele>6.1</ele>
      </trkpt>
      <trkpt lat="44.81356" lon="-0.13205">
        <ele>6.2</ele>
      </trkpt>
      <trkpt lat="44.81352" lon="-0.13223">
        <ele>6.3</ele>
      </trkpt>
      <trkpt lat="44.81345" lon="-0.1325">
        <ele>5.7</ele>
      </trkpt>
      <trkpt lat="44.81338" lon="-0.13285">
        <ele>6.1</ele>
      </trkpt>
      <trkpt lat="44.81332" lon="-0.13317">
        <ele>5.3</ele>
      </trkpt>
      <trkpt lat="44.81327" lon="-0.13336">
        <ele>4.8</ele>
      </trkpt>
      <trkpt lat="44.81324" lon="-0.13348">
        <ele>5</ele>
      </trkpt>
      <trkpt lat="44.8132" lon="-0.13361">
        <ele>5.4</ele>
      </trkpt>
      <trkpt lat="44.81311" lon="-0.13386">
        <ele>7</ele>
      </trkpt>
      <trkpt lat="44.81306" lon="-0.13404">
        <ele>7.4</ele>
      </trkpt>
      <trkpt lat="44.813" lon="-0.13429">
        <ele>9.2</ele>
      </trkpt>
      <trkpt lat="44.81297" lon="-0.1345">
        <ele>10.6</ele>
      </trkpt>
      <trkpt lat="44.81295" lon="-0.13469">
        <ele>11.7</ele>
      </trkpt>
      <trkpt lat="44.81295" lon="-0.13493">
        <ele>12.2</ele>
      </trkpt>
      <trkpt lat="44.81295" lon="-0.13523">
        <ele>13.5</ele>
      </trkpt>
      <trkpt lat="44.81297" lon="-0.13564">
        <ele>16.5</ele>
      </trkpt>
      <trkpt lat="44.81298" lon="-0.13603">
        <ele>17.3</ele>
      </trkpt>
      <trkpt lat="44.81298" lon="-0.13634">
        <ele>19.5</ele>
      </trkpt>
      <trkpt lat="44.81298" lon="-0.13649">
        <ele>19.9</ele>
      </trkpt>
      <trkpt lat="44.81297" lon="-0.13671">
        <ele>20.1</ele>
      </trkpt>
      <trkpt lat="44.81296" lon="-0.13685">
        <ele>20.6</ele>
      </trkpt>
      <trkpt lat="44.81294" lon="-0.13691">
        <ele>21.3</ele>
      </trkpt>
      <trkpt lat="44.81292" lon="-0.137">
        <ele>21.4</ele>
      </trkpt>
      <trkpt lat="44.81289" lon="-0.13706">
        <ele>21.7</ele>
      </trkpt>
      <trkpt lat="44.81285" lon="-0.13712">
        <ele>22.2</ele>
      </trkpt>
      <trkpt lat="44.81281" lon="-0.13718">
        <ele>22.6</ele>
      </trkpt>
      <trkpt lat="44.81273" lon="-0.13726">
        <ele>23.5</ele>
      </trkpt>
      <trkpt lat="44.81265" lon="-0.13734">
        <ele>24</ele>
      </trkpt>
      <trkpt lat="44.81259" lon="-0.1374">
        <ele>24.2</ele>
      </trkpt>
      <trkpt lat="44.81253" lon="-0.13746">
        <ele>24.2</ele>
      </trkpt>
      <trkpt lat="44.8125" lon="-0.13751">
        <ele>24</ele>
      </trkpt>
      <trkpt lat="44.81247" lon="-0.13757">
        <ele>24</ele>
      </trkpt>
      <trkpt lat="44.81244" lon="-0.13766">
        <ele>23.9</ele>
      </trkpt>
      <trkpt lat="44.81243" lon="-0.13773">
        <ele>23.7</ele>
      </trkpt>
      <trkpt lat="44.81242" lon="-0.13785">
        <ele>23.1</ele>
      </trkpt>
      <trkpt lat="44.81242" lon="-0.13798">
        <ele>22.1</ele>
      </trkpt>
      <trkpt lat="44.81243" lon="-0.13827">
        <ele>20.7</ele>
      </trkpt>
      <trkpt lat="44.81244" lon="-0.13833">
        <ele>20.4</ele>
      </trkpt>
      <trkpt lat="44.81245" lon="-0.1384">
        <ele>20.4</ele>
      </trkpt>
      <trkpt lat="44.81246" lon="-0.13847">
        <ele>20.3</ele>
      </trkpt>
      <trkpt lat="44.81248" lon="-0.13855">
        <ele>20.1</ele>
      </trkpt>
      <trkpt lat="44.8125" lon="-0.13861">
        <ele>20</ele>
      </trkpt>
      <trkpt lat="44.81253" lon="-0.13872">
        <ele>19.7</ele>
      </trkpt>
      <trkpt lat="44.81255" lon="-0.13879">
        <ele>19.6</ele>
      </trkpt>
      <trkpt lat="44.81255" lon="-0.1388">
        <ele>19.6</ele>
      </trkpt>
      <trkpt lat="44.81256" lon="-0.13886">
        <ele>19.5</ele>
      </trkpt>
      <trkpt lat="44.81257" lon="-0.13893">
        <ele>19.6</ele>
      </trkpt>
      <trkpt lat="44.81258" lon="-0.13897">
        <ele>19.7</ele>
      </trkpt>
      <trkpt lat="44.81277" lon="-0.13898">
        <ele>18.4</ele>
      </trkpt>
      <trkpt lat="44.81287" lon="-0.13899">
        <ele>17</ele>
      </trkpt>
      <trkpt lat="44.81292" lon="-0.139">
        <ele>16.4</ele>
      </trkpt>
      <trkpt lat="44.81297" lon="-0.13901">
        <ele>15.7</ele>
      </trkpt>
      <trkpt lat="44.81312" lon="-0.13904">
        <ele>13.4</ele>
      </trkpt>
      <trkpt lat="44.81332" lon="-0.13909">
        <ele>10</ele>
      </trkpt>
      <trkpt lat="44.81344" lon="-0.13912">
        <ele>7.5</ele>
      </trkpt>
      <trkpt lat="44.81345" lon="-0.13913">
        <ele>7.3</ele>
      </trkpt>
      <trkpt lat="44.81346" lon="-0.13913">
        <ele>7.1</ele>
      </trkpt>
      <trkpt lat="44.81349" lon="-0.13917">
        <ele>6.6</ele>
      </trkpt>
      <trkpt lat="44.81349" lon="-0.13914">
        <ele>6.5</ele>
      </trkpt>
      <trkpt lat="44.8135" lon="-0.13912">
        <ele>6.1</ele>
      </trkpt>
      <trkpt lat="44.81352" lon="-0.13909">
        <ele>5.5</ele>
      </trkpt>
      <trkpt lat="44.81355" lon="-0.13906">
        <ele>4.6</ele>
      </trkpt>
      <trkpt lat="44.81362" lon="-0.13902">
        <ele>2.9</ele>
      </trkpt>
      <trkpt lat="44.81405" lon="-0.13883">
        <ele>2</ele>
      </trkpt>
      <trkpt lat="44.81458" lon="-0.13854">
        <ele>2</ele>
      </trkpt>
      <trkpt lat="44.81482" lon="-0.1384">
        <ele>3.9</ele>
      </trkpt>
      <trkpt lat="44.81507" lon="-0.13825">
        <ele>7.4</ele>
      </trkpt>
      <trkpt lat="44.81523" lon="-0.13814">
        <ele>7.4</ele>
      </trkpt>
      <trkpt lat="44.81556" lon="-0.1379">
        <ele>7</ele>
      </trkpt>
      <trkpt lat="44.81587" lon="-0.13762">
        <ele>7.3</ele>
      </trkpt>
      <trkpt lat="44.81622" lon="-0.13727">
        <ele>6.9</ele>
      </trkpt>
      <trkpt lat="44.81632" lon="-0.13714">
        <ele>6.9</ele>
      </trkpt>
      <trkpt lat="44.81637" lon="-0.13706">
        <ele>7</ele>
      </trkpt>
      <trkpt lat="44.81643" lon="-0.13693">
        <ele>7</ele>
      </trkpt>
      <trkpt lat="44.81656" lon="-0.13667">
        <ele>7</ele>
      </trkpt>
      <trkpt lat="44.8166" lon="-0.13663">
        <ele>7</ele>
      </trkpt>
      <trkpt lat="44.81664" lon="-0.1366">
        <ele>7</ele>
      </trkpt>
      <trkpt lat="44.81672" lon="-0.13654">
        <ele>7</ele>
      </trkpt>
      <trkpt lat="44.8169" lon="-0.13646">
        <ele>7</ele>
      </trkpt>
      <trkpt lat="44.81725" lon="-0.13632">
        <ele>7</ele>
      </trkpt>
      <trkpt lat="44.81731" lon="-0.13629">
        <ele>7</ele>
      </trkpt>
      <trkpt lat="44.81761" lon="-0.13618">
        <ele>7</ele>
      </trkpt>
      <trkpt lat="44.81763" lon="-0.13617">
        <ele>7</ele>
      </trkpt>
      <trkpt lat="44.8178" lon="-0.13612">
        <ele>7</ele>
      </trkpt>
      <trkpt lat="44.81794" lon="-0.13608">
        <ele>7</ele>
      </trkpt>
      <trkpt lat="44.81811" lon="-0.13602">
        <ele>7</ele>
      </trkpt>
      <trkpt lat="44.81822" lon="-0.13597">
        <ele>7</ele>
      </trkpt>
      <trkpt lat="44.81832" lon="-0.13591">
        <ele>7</ele>
      </trkpt>
      <trkpt lat="44.81839" lon="-0.13588">
        <ele>7</ele>
      </trkpt>
      <trkpt lat="44.81847" lon="-0.13586">
        <ele>7</ele>
      </trkpt>
      <trkpt lat="44.81878" lon="-0.13574">
        <ele>7</ele>
      </trkpt>
      <trkpt lat="44.81897" lon="-0.13567">
        <ele>7</ele>
      </trkpt>
      <trkpt lat="44.8192" lon="-0.1356">
        <ele>7</ele>
      </trkpt>
      <trkpt lat="44.8193" lon="-0.13558">
        <ele>7</ele>
      </trkpt>
      <trkpt lat="44.81938" lon="-0.13556">
        <ele>7</ele>
      </trkpt>
      <trkpt lat="44.81946" lon="-0.13555">
        <ele>7</ele>
      </trkpt>
      <trkpt lat="44.81952" lon="-0.13552">
        <ele>7</ele>
      </trkpt>
      <trkpt lat="44.8196" lon="-0.13547">
        <ele>7.2</ele>
      </trkpt>
      <trkpt lat="44.81966" lon="-0.13544">
        <ele>7.3</ele>
      </trkpt>
      <trkpt lat="44.81973" lon="-0.13542">
        <ele>7.5</ele>
      </trkpt>
      <trkpt lat="44.81986" lon="-0.1354">
        <ele>7.6</ele>
      </trkpt>
      <trkpt lat="44.81994" lon="-0.1354">
        <ele>7.6</ele>
      </trkpt>
      <trkpt lat="44.82" lon="-0.13541">
        <ele>7.5</ele>
      </trkpt>
      <trkpt lat="44.82004" lon="-0.13541">
        <ele>7.4</ele>
      </trkpt>
      <trkpt lat="44.82008" lon="-0.13541">
        <ele>7.4</ele>
      </trkpt>
      <trkpt lat="44.82012" lon="-0.13541">
        <ele>7.3</ele>
      </trkpt>
      <trkpt lat="44.82012" lon="-0.13537">
        <ele>7.4</ele>
      </trkpt>
    </trkseg>
  </trk>
  <trk>
    <name><![CDATA[NewTrack]]></name>
    <desc><![CDATA[Total: 4.9km]]></desc>
    <extensions>
      <line xmlns="http://www.topografix.com/GPX/gpx_style/0/2">
        <color>FF00FF</color>
        <width>4</width>
      </line>
    </extensions>
    <trkseg>
      <trkpt lat="44.76527" lon="-0.17074">
        <ele>58</ele>
        <time>2016-09-27T08:42:22Z</time>
      </trkpt>
      <trkpt lat="44.7655" lon="-0.17065">
        <ele>57.2</ele>
        <time>2016-09-27T08:42:37Z</time>
      </trkpt>
      <trkpt lat="44.76567" lon="-0.17077">
        <ele>56.6</ele>
        <time>2016-09-27T08:42:50Z</time>
      </trkpt>
      <trkpt lat="44.76592" lon="-0.17078">
        <ele>55.7</ele>
        <time>2016-09-27T08:43:07Z</time>
      </trkpt>
      <trkpt lat="44.76619" lon="-0.17073">
        <ele>54.7</ele>
        <time>2016-09-27T08:43:25Z</time>
      </trkpt>
      <trkpt lat="44.76587" lon="-0.16964">
        <ele>56.3</ele>
        <time>2016-09-27T08:44:21Z</time>
      </trkpt>
      <trkpt lat="44.76561" lon="-0.16899">
        <ele>56.5</ele>
        <time>2016-09-27T08:44:56Z</time>
      </trkpt>
      <trkpt lat="44.76525" lon="-0.16845">
        <ele>58.2</ele>
        <time>2016-09-27T08:45:32Z</time>
      </trkpt>
      <trkpt lat="44.7649" lon="-0.16853">
        <ele>60.6</ele>
        <time>2016-09-27T08:45:55Z</time>
      </trkpt>
      <trkpt lat="44.76441" lon="-0.16861">
        <ele>63.1</ele>
        <time>2016-09-27T08:46:28Z</time>
      </trkpt>
      <trkpt lat="44.76431" lon="-0.16859">
        <ele>63.5</ele>
        <time>2016-09-27T08:46:35Z</time>
      </trkpt>
      <trkpt lat="44.7642" lon="-0.16853">
        <ele>63.9</ele>
        <time>2016-09-27T08:46:42Z</time>
      </trkpt>
      <trkpt lat="44.7632" lon="-0.16724">
        <ele>63.5</ele>
        <time>2016-09-27T08:48:13Z</time>
      </trkpt>
      <trkpt lat="44.76157" lon="-0.16588">
        <ele>61.5</ele>
        <time>2016-09-27T08:50:19Z</time>
      </trkpt>
      <trkpt lat="44.76155" lon="-0.16515">
        <ele>64</ele>
        <time>2016-09-27T08:50:54Z</time>
      </trkpt>
      <trkpt lat="44.76158" lon="-0.16446">
        <ele>66.3</ele>
        <time>2016-09-27T08:51:27Z</time>
      </trkpt>
      <trkpt lat="44.76165" lon="-0.16394">
        <ele>66.9</ele>
        <time>2016-09-27T08:51:52Z</time>
      </trkpt>
      <trkpt lat="44.76197" lon="-0.16378">
        <ele>67.7</ele>
        <time>2016-09-27T08:52:14Z</time>
      </trkpt>
      <trkpt lat="44.7621" lon="-0.16368">
        <ele>67.8</ele>
        <time>2016-09-27T08:52:25Z</time>
      </trkpt>
      <trkpt lat="44.76225" lon="-0.16348">
        <ele>68.1</ele>
        <time>2016-09-27T08:52:38Z</time>
      </trkpt>
      <trkpt lat="44.76247" lon="-0.16297">
        <ele>68.5</ele>
        <time>2016-09-27T08:53:07Z</time>
      </trkpt>
      <trkpt lat="44.76255" lon="-0.16286">
        <ele>68.4</ele>
        <time>2016-09-27T08:53:14Z</time>
      </trkpt>
      <trkpt lat="44.76266" lon="-0.16293">
        <ele>68.8</ele>
        <time>2016-09-27T08:53:22Z</time>
      </trkpt>
      <trkpt lat="44.76303" lon="-0.1628">
        <ele>69</ele>
        <time>2016-09-27T08:53:48Z</time>
      </trkpt>
      <trkpt lat="44.7634" lon="-0.16255">
        <ele>69</ele>
        <time>2016-09-27T08:54:15Z</time>
      </trkpt>
      <trkpt lat="44.76397" lon="-0.16227">
        <ele>68.5</ele>
        <time>2016-09-27T08:54:55Z</time>
      </trkpt>
      <trkpt lat="44.76446" lon="-0.16195">
        <ele>68.9</ele>
        <time>2016-09-27T08:55:31Z</time>
      </trkpt>
      <trkpt lat="44.76499" lon="-0.16169">
        <ele>68.8</ele>
        <time>2016-09-27T08:56:09Z</time>
      </trkpt>
      <trkpt lat="44.76509" lon="-0.16161">
        <ele>68.7</ele>
        <time>2016-09-27T08:56:16Z</time>
      </trkpt>
      <trkpt lat="44.76517" lon="-0.16146">
        <ele>68.8</ele>
        <time>2016-09-27T08:56:25Z</time>
      </trkpt>
      <trkpt lat="44.76522" lon="-0.16128">
        <ele>69.1</ele>
        <time>2016-09-27T08:56:34Z</time>
      </trkpt>
      <trkpt lat="44.76522" lon="-0.16109">
        <ele>69.3</ele>
        <time>2016-09-27T08:56:43Z</time>
      </trkpt>
      <trkpt lat="44.76524" lon="-0.16042">
        <ele>70.6</ele>
        <time>2016-09-27T08:57:15Z</time>
      </trkpt>
      <trkpt lat="44.76529" lon="-0.16022">
        <ele>71.2</ele>
        <time>2016-09-27T08:57:25Z</time>
      </trkpt>
      <trkpt lat="44.76536" lon="-0.16004">
        <ele>71.9</ele>
        <time>2016-09-27T08:57:35Z</time>
      </trkpt>
      <trkpt lat="44.76545" lon="-0.1599">
        <ele>72</ele>
        <time>2016-09-27T08:57:44Z</time>
      </trkpt>
      <trkpt lat="44.76556" lon="-0.15978">
        <ele>72</ele>
        <time>2016-09-27T08:57:53Z</time>
      </trkpt>
      <trkpt lat="44.76576" lon="-0.15959">
        <ele>72.9</ele>
        <time>2016-09-27T08:58:09Z</time>
      </trkpt>
      <trkpt lat="44.76591" lon="-0.15948">
        <ele>72.7</ele>
        <time>2016-09-27T08:58:21Z</time>
      </trkpt>
      <trkpt lat="44.76624" lon="-0.15928">
        <ele>72.1</ele>
        <time>2016-09-27T08:58:44Z</time>
      </trkpt>
      <trkpt lat="44.76648" lon="-0.1591">
        <ele>70.7</ele>
        <time>2016-09-27T08:59:03Z</time>
      </trkpt>
      <trkpt lat="44.7666" lon="-0.15897">
        <ele>70.3</ele>
        <time>2016-09-27T08:59:13Z</time>
      </trkpt>
      <trkpt lat="44.76682" lon="-0.15864">
        <ele>68.9</ele>
        <time>2016-09-27T08:59:34Z</time>
      </trkpt>
      <trkpt lat="44.76726" lon="-0.15847">
        <ele>67.3</ele>
        <time>2016-09-27T09:00:05Z</time>
      </trkpt>
      <trkpt lat="44.76688" lon="-0.16029">
        <ele>69.2</ele>
        <time>2016-09-27T09:01:35Z</time>
      </trkpt>
      <trkpt lat="44.76686" lon="-0.16057">
        <ele>69.3</ele>
        <time>2016-09-27T09:01:48Z</time>
      </trkpt>
      <trkpt lat="44.76692" lon="-0.16255">
        <ele>66.7</ele>
        <time>2016-09-27T09:03:23Z</time>
      </trkpt>
      <trkpt lat="44.76697" lon="-0.16316">
        <ele>64.6</ele>
        <time>2016-09-27T09:03:52Z</time>
      </trkpt>
      <trkpt lat="44.76685" lon="-0.16469">
        <ele>58.9</ele>
        <time>2016-09-27T09:05:05Z</time>
      </trkpt>
      <trkpt lat="44.76748" lon="-0.16502">
        <ele>60.9</ele>
        <time>2016-09-27T09:05:49Z</time>
      </trkpt>
      <trkpt lat="44.76758" lon="-0.16515">
        <ele>60.5</ele>
        <time>2016-09-27T09:05:59Z</time>
      </trkpt>
      <trkpt lat="44.76759" lon="-0.1654">
        <ele>60</ele>
        <time>2016-09-27T09:06:10Z</time>
      </trkpt>
      <trkpt lat="44.76762" lon="-0.16594">
        <ele>59</ele>
        <time>2016-09-27T09:06:36Z</time>
      </trkpt>
      <trkpt lat="44.76771" lon="-0.16614">
        <ele>58.9</ele>
        <time>2016-09-27T09:06:48Z</time>
      </trkpt>
      <trkpt lat="44.76782" lon="-0.1662">
        <ele>58.6</ele>
        <time>2016-09-27T09:06:55Z</time>
      </trkpt>
      <trkpt lat="44.76797" lon="-0.16626">
        <ele>58.1</ele>
        <time>2016-09-27T09:07:06Z</time>
      </trkpt>
      <trkpt lat="44.76914" lon="-0.16653">
        <ele>59.7</ele>
        <time>2016-09-27T09:08:25Z</time>
      </trkpt>
      <trkpt lat="44.7693" lon="-0.16654">
        <ele>60.5</ele>
        <time>2016-09-27T09:08:35Z</time>
      </trkpt>
      <trkpt lat="44.76941" lon="-0.16648">
        <ele>60.9</ele>
        <time>2016-09-27T09:08:44Z</time>
      </trkpt>
      <trkpt lat="44.76952" lon="-0.16634">
        <ele>61.4</ele>
        <time>2016-09-27T09:08:53Z</time>
      </trkpt>
      <trkpt lat="44.77011" lon="-0.1655">
        <ele>63</ele>
        <time>2016-09-27T09:09:49Z</time>
      </trkpt>
      <trkpt lat="44.77019" lon="-0.1655">
        <ele>63</ele>
        <time>2016-09-27T09:09:55Z</time>
      </trkpt>
      <trkpt lat="44.77027" lon="-0.16555">
        <ele>63</ele>
        <time>2016-09-27T09:10:00Z</time>
      </trkpt>
      <trkpt lat="44.77047" lon="-0.16577">
        <ele>62.8</ele>
        <time>2016-09-27T09:10:18Z</time>
      </trkpt>
      <trkpt lat="44.77064" lon="-0.16589">
        <ele>63</ele>
        <time>2016-09-27T09:10:30Z</time>
      </trkpt>
      <trkpt lat="44.77075" lon="-0.16592">
        <ele>63</ele>
        <time>2016-09-27T09:10:38Z</time>
      </trkpt>
      <trkpt lat="44.77091" lon="-0.16592">
        <ele>62.8</ele>
        <time>2016-09-27T09:10:48Z</time>
      </trkpt>
      <trkpt lat="44.77121" lon="-0.16591">
        <ele>61.9</ele>
        <time>2016-09-27T09:11:09Z</time>
      </trkpt>
      <trkpt lat="44.77147" lon="-0.16595">
        <ele>60.8</ele>
        <time>2016-09-27T09:11:26Z</time>
      </trkpt>
      <trkpt lat="44.77173" lon="-0.16605">
        <ele>59.5</ele>
        <time>2016-09-27T09:11:44Z</time>
      </trkpt>
      <trkpt lat="44.77186" lon="-0.16617">
        <ele>59.5</ele>
        <time>2016-09-27T09:11:54Z</time>
      </trkpt>
      <trkpt lat="44.7722" lon="-0.16671">
        <ele>58.2</ele>
        <time>2016-09-27T09:12:28Z</time>
      </trkpt>
      <trkpt lat="44.77225" lon="-0.16689">
        <ele>57.9</ele>
        <time>2016-09-27T09:12:38Z</time>
      </trkpt>
      <trkpt lat="44.77226" lon="-0.16709">
        <ele>57.8</ele>
        <time>2016-09-27T09:12:47Z</time>
      </trkpt>
      <trkpt lat="44.77222" lon="-0.16737">
        <ele>57.5</ele>
        <time>2016-09-27T09:13:01Z</time>
      </trkpt>
      <trkpt lat="44.77201" lon="-0.16803">
        <ele>56.6</ele>
        <time>2016-09-27T09:13:35Z</time>
      </trkpt>
      <trkpt lat="44.77203" lon="-0.16824">
        <ele>56.4</ele>
        <time>2016-09-27T09:13:45Z</time>
      </trkpt>
      <trkpt lat="44.77218" lon="-0.16863">
        <ele>56.3</ele>
        <time>2016-09-27T09:14:06Z</time>
      </trkpt>
      <trkpt lat="44.77225" lon="-0.1687">
        <ele>55.8</ele>
        <time>2016-09-27T09:14:12Z</time>
      </trkpt>
      <trkpt lat="44.77237" lon="-0.16874">
        <ele>54.9</ele>
        <time>2016-09-27T09:14:20Z</time>
      </trkpt>
      <trkpt lat="44.77249" lon="-0.16871">
        <ele>54.1</ele>
        <time>2016-09-27T09:14:28Z</time>
      </trkpt>
      <trkpt lat="44.77259" lon="-0.16866">
        <ele>52.9</ele>
        <time>2016-09-27T09:14:36Z</time>
      </trkpt>
      <trkpt lat="44.77283" lon="-0.1684">
        <ele>51.5</ele>
        <time>2016-09-27T09:14:55Z</time>
      </trkpt>
      <trkpt lat="44.77291" lon="-0.16837">
        <ele>51.3</ele>
        <time>2016-09-27T09:15:01Z</time>
      </trkpt>
      <trkpt lat="44.77299" lon="-0.16839">
        <ele>50.7</ele>
        <time>2016-09-27T09:15:07Z</time>
      </trkpt>
      <trkpt lat="44.77309" lon="-0.16845">
        <ele>49.6</ele>
        <time>2016-09-27T09:15:14Z</time>
      </trkpt>
      <trkpt lat="44.77327" lon="-0.16862">
        <ele>46.3</ele>
        <time>2016-09-27T09:15:28Z</time>
      </trkpt>
      <trkpt lat="44.77347" lon="-0.16881">
        <ele>41.9</ele>
        <time>2016-09-27T09:15:44Z</time>
      </trkpt>
      <trkpt lat="44.77358" lon="-0.16888">
        <ele>39.5</ele>
        <time>2016-09-27T09:15:53Z</time>
      </trkpt>
      <trkpt lat="44.77385" lon="-0.16898">
        <ele>36</ele>
        <time>2016-09-27T09:16:11Z</time>
      </trkpt>
      <trkpt lat="44.77396" lon="-0.16903">
        <ele>34.2</ele>
        <time>2016-09-27T09:16:19Z</time>
      </trkpt>
      <trkpt lat="44.77485" lon="-0.16976">
        <ele>18.9</ele>
        <time>2016-09-27T09:17:27Z</time>
      </trkpt>
      <trkpt lat="44.77416" lon="-0.17063">
        <ele>19.8</ele>
        <time>2016-09-27T09:18:29Z</time>
      </trkpt>
      <trkpt lat="44.77343" lon="-0.17155">
        <ele>22.8</ele>
        <time>2016-09-27T09:19:35Z</time>
      </trkpt>
      <trkpt lat="44.77328" lon="-0.17166">
        <ele>23.9</ele>
        <time>2016-09-27T09:19:46Z</time>
      </trkpt>
      <trkpt lat="44.77291" lon="-0.17178">
        <ele>26.2</ele>
        <time>2016-09-27T09:20:11Z</time>
      </trkpt>
      <trkpt lat="44.77253" lon="-0.17188">
        <ele>27.4</ele>
        <time>2016-09-27T09:20:37Z</time>
      </trkpt>
      <trkpt lat="44.77228" lon="-0.17189">
        <ele>28.9</ele>
        <time>2016-09-27T09:20:54Z</time>
      </trkpt>
      <trkpt lat="44.77199" lon="-0.17184">
        <ele>31.6</ele>
        <time>2016-09-27T09:21:13Z</time>
      </trkpt>
      <trkpt lat="44.77133" lon="-0.17165">
        <ele>34</ele>
        <time>2016-09-27T09:21:58Z</time>
      </trkpt>
      <trkpt lat="44.77109" lon="-0.17166">
        <ele>32.2</ele>
        <time>2016-09-27T09:22:14Z</time>
      </trkpt>
      <trkpt lat="44.77014" lon="-0.17179">
        <ele>26.8</ele>
        <time>2016-09-27T09:23:18Z</time>
      </trkpt>
      <trkpt lat="44.7699" lon="-0.17178">
        <ele>25.4</ele>
        <time>2016-09-27T09:23:34Z</time>
      </trkpt>
      <trkpt lat="44.76964" lon="-0.17174">
        <ele>23.7</ele>
        <time>2016-09-27T09:23:51Z</time>
      </trkpt>
      <trkpt lat="44.7695" lon="-0.17176">
        <ele>22.7</ele>
        <time>2016-09-27T09:24:00Z</time>
      </trkpt>
      <trkpt lat="44.76938" lon="-0.17183">
        <ele>22</ele>
        <time>2016-09-27T09:24:09Z</time>
      </trkpt>
      <trkpt lat="44.76927" lon="-0.17192">
        <ele>22.3</ele>
        <time>2016-09-27T09:24:18Z</time>
      </trkpt>
      <trkpt lat="44.76868" lon="-0.17251">
        <ele>26.8</ele>
        <time>2016-09-27T09:25:06Z</time>
      </trkpt>
      <trkpt lat="44.76854" lon="-0.17259">
        <ele>26.5</ele>
        <time>2016-09-27T09:25:16Z</time>
      </trkpt>
      <trkpt lat="44.76839" lon="-0.17262">
        <ele>26.7</ele>
        <time>2016-09-27T09:25:26Z</time>
      </trkpt>
      <trkpt lat="44.76819" lon="-0.17258">
        <ele>27.8</ele>
        <time>2016-09-27T09:25:40Z</time>
      </trkpt>
      <trkpt lat="44.76791" lon="-0.17248">
        <ele>28.2</ele>
        <time>2016-09-27T09:25:59Z</time>
      </trkpt>
      <trkpt lat="44.76789" lon="-0.17238">
        <ele>29.1</ele>
        <time>2016-09-27T09:26:04Z</time>
      </trkpt>
      <trkpt lat="44.76839" lon="-0.17247">
        <ele>30.4</ele>
        <time>2016-09-27T09:26:38Z</time>
      </trkpt>
      <trkpt lat="44.76854" lon="-0.17242">
        <ele>30.5</ele>
        <time>2016-09-27T09:26:48Z</time>
      </trkpt>
      <trkpt lat="44.76863" lon="-0.17234">
        <ele>31.7</ele>
        <time>2016-09-27T09:26:55Z</time>
      </trkpt>
      <trkpt lat="44.76869" lon="-0.17217">
        <ele>33.2</ele>
        <time>2016-09-27T09:27:04Z</time>
      </trkpt>
      <trkpt lat="44.76868" lon="-0.17201">
        <ele>33.9</ele>
        <time>2016-09-27T09:27:12Z</time>
      </trkpt>
      <trkpt lat="44.76861" lon="-0.17179">
        <ele>35</ele>
        <time>2016-09-27T09:27:23Z</time>
      </trkpt>
      <trkpt lat="44.7685" lon="-0.1716">
        <ele>34.9</ele>
        <time>2016-09-27T09:27:35Z</time>
      </trkpt>
      <trkpt lat="44.76829" lon="-0.17129">
        <ele>36.5</ele>
        <time>2016-09-27T09:27:55Z</time>
      </trkpt>
      <trkpt lat="44.76817" lon="-0.17117">
        <ele>37.4</ele>
        <time>2016-09-27T09:28:05Z</time>
      </trkpt>
      <trkpt lat="44.76772" lon="-0.17132">
        <ele>41.5</ele>
        <time>2016-09-27T09:28:36Z</time>
      </trkpt>
      <trkpt lat="44.76761" lon="-0.17131">
        <ele>42.4</ele>
        <time>2016-09-27T09:28:43Z</time>
      </trkpt>
      <trkpt lat="44.76703" lon="-0.171">
        <ele>49.7</ele>
        <time>2016-09-27T09:29:24Z</time>
      </trkpt>
      <trkpt lat="44.76665" lon="-0.17087">
        <ele>52.8</ele>
        <time>2016-09-27T09:29:50Z</time>
      </trkpt>
      <trkpt lat="44.76645" lon="-0.17087">
        <ele>53.6</ele>
        <time>2016-09-27T09:30:04Z</time>
      </trkpt>
      <trkpt lat="44.76619" lon="-0.17073">
        <ele>54.7</ele>
        <time>2016-09-27T09:30:23Z</time>
      </trkpt>
      <trkpt lat="44.76592" lon="-0.17078">
        <ele>55.7</ele>
        <time>2016-09-27T09:30:40Z</time>
      </trkpt>
      <trkpt lat="44.76567" lon="-0.17077">
        <ele>56.6</ele>
        <time>2016-09-27T09:30:57Z</time>
      </trkpt>
      <trkpt lat="44.7655" lon="-0.17065">
        <ele>57.2</ele>
        <time>2016-09-27T09:31:10Z</time>
      </trkpt>
      <trkpt lat="44.76528" lon="-0.17074">
        <ele>58</ele>
        <time>2016-09-27T09:31:25Z</time>
      </trkpt>
    </trkseg>
  </trk>
  <trk>
    <name><![CDATA[Boucle des Gabariers à Cabara]]></name>
    <extensions>
      <line xmlns="http://www.topografix.com/GPX/gpx_style/0/2">
        <color>0000FF</color>
        <width>4</width>
      </line>
    </extensions>
    <trkseg>
      <trkpt lat="44.82714" lon="-0.1581">
        <ele>4.8</ele>
      </trkpt>
      <trkpt lat="44.82719" lon="-0.15829">
        <ele>5.7</ele>
      </trkpt>
      <trkpt lat="44.82754" lon="-0.15891">
        <ele>6.2</ele>
      </trkpt>
      <trkpt lat="44.82741" lon="-0.15913">
        <ele>6.9</ele>
      </trkpt>
      <trkpt lat="44.82725" lon="-0.15942">
        <ele>7</ele>
      </trkpt>
      <trkpt lat="44.8271" lon="-0.15975">
        <ele>7</ele>
      </trkpt>
      <trkpt lat="44.8276" lon="-0.1607">
        <ele>6.8</ele>
      </trkpt>
      <trkpt lat="44.82754" lon="-0.16079">
        <ele>6.9</ele>
      </trkpt>
      <trkpt lat="44.82753" lon="-0.16087">
        <ele>7</ele>
      </trkpt>
      <trkpt lat="44.8279" lon="-0.16165">
        <ele>6.6</ele>
      </trkpt>
      <trkpt lat="44.82851" lon="-0.16124">
        <ele>6</ele>
      </trkpt>
      <trkpt lat="44.82889" lon="-0.16222">
        <ele>6</ele>
      </trkpt>
      <trkpt lat="44.82901" lon="-0.16243">
        <ele>6</ele>
      </trkpt>
      <trkpt lat="44.82916" lon="-0.16262">
        <ele>6</ele>
      </trkpt>
      <trkpt lat="44.82944" lon="-0.16292">
        <ele>6</ele>
      </trkpt>
      <trkpt lat="44.8298" lon="-0.16338">
        <ele>6</ele>
      </trkpt>
      <trkpt lat="44.82992" lon="-0.16344">
        <ele>6</ele>
      </trkpt>
      <trkpt lat="44.83033" lon="-0.16362">
        <ele>6</ele>
      </trkpt>
      <trkpt lat="44.83039" lon="-0.16369">
        <ele>6</ele>
      </trkpt>
      <trkpt lat="44.83046" lon="-0.16385">
        <ele>6</ele>
      </trkpt>
      <trkpt lat="44.83059" lon="-0.16451">
        <ele>6</ele>
      </trkpt>
      <trkpt lat="44.83059" lon="-0.16483">
        <ele>6</ele>
      </trkpt>
      <trkpt lat="44.83054" lon="-0.16503">
        <ele>6.1</ele>
      </trkpt>
      <trkpt lat="44.83033" lon="-0.16564">
        <ele>6.8</ele>
      </trkpt>
      <trkpt lat="44.83016" lon="-0.16643">
        <ele>7.1</ele>
      </trkpt>
      <trkpt lat="44.83004" lon="-0.16666">
        <ele>7.8</ele>
      </trkpt>
      <trkpt lat="44.82987" lon="-0.16682">
        <ele>8</ele>
      </trkpt>
      <trkpt lat="44.82964" lon="-0.16693">
        <ele>8</ele>
      </trkpt>
      <trkpt lat="44.82892" lon="-0.16714">
        <ele>9.6</ele>
      </trkpt>
      <trkpt lat="44.82884" lon="-0.16715">
        <ele>9.9</ele>
      </trkpt>
      <trkpt lat="44.82851" lon="-0.16723">
        <ele>11.4</ele>
      </trkpt>
      <trkpt lat="44.8282" lon="-0.16731">
        <ele>12.8</ele>
      </trkpt>
      <trkpt lat="44.8279" lon="-0.16742">
        <ele>14.3</ele>
      </trkpt>
      <trkpt lat="44.82752" lon="-0.16762">
        <ele>16</ele>
      </trkpt>
      <trkpt lat="44.82742" lon="-0.1677">
        <ele>16.5</ele>
      </trkpt>
      <trkpt lat="44.82753" lon="-0.16778">
        <ele>14.9</ele>
      </trkpt>
      <trkpt lat="44.82757" lon="-0.16786">
        <ele>14.7</ele>
      </trkpt>
      <trkpt lat="44.82774" lon="-0.16792">
        <ele>15</ele>
      </trkpt>
      <trkpt lat="44.82774" lon="-0.168">
        <ele>15.4</ele>
      </trkpt>
      <trkpt lat="44.82764" lon="-0.16802">
        <ele>14.9</ele>
      </trkpt>
      <trkpt lat="44.82698" lon="-0.16808">
        <ele>16.8</ele>
      </trkpt>
      <trkpt lat="44.82681" lon="-0.16813">
        <ele>16.9</ele>
      </trkpt>
      <trkpt lat="44.82654" lon="-0.16831">
        <ele>17.5</ele>
      </trkpt>
      <trkpt lat="44.82627" lon="-0.1684">
        <ele>18.7</ele>
      </trkpt>
      <trkpt lat="44.82506" lon="-0.16825">
        <ele>22.1</ele>
      </trkpt>
      <trkpt lat="44.82477" lon="-0.16819">
        <ele>22.9</ele>
      </trkpt>
      <trkpt lat="44.82415" lon="-0.168">
        <ele>24.4</ele>
      </trkpt>
      <trkpt lat="44.82375" lon="-0.16787">
        <ele>25.8</ele>
      </trkpt>
      <trkpt lat="44.82344" lon="-0.16758">
        <ele>26.8</ele>
      </trkpt>
      <trkpt lat="44.82331" lon="-0.16748">
        <ele>27.2</ele>
      </trkpt>
      <trkpt lat="44.82269" lon="-0.16729">
        <ele>30.6</ele>
      </trkpt>
      <trkpt lat="44.82255" lon="-0.16736">
        <ele>31.3</ele>
      </trkpt>
      <trkpt lat="44.82191" lon="-0.16773">
        <ele>34.1</ele>
      </trkpt>
      <trkpt lat="44.82156" lon="-0.16801">
        <ele>36.3</ele>
      </trkpt>
      <trkpt lat="44.82119" lon="-0.16834">
        <ele>39</ele>
      </trkpt>
      <trkpt lat="44.82095" lon="-0.16848">
        <ele>42</ele>
      </trkpt>
      <trkpt lat="44.82069" lon="-0.16861">
        <ele>44.5</ele>
      </trkpt>
      <trkpt lat="44.82056" lon="-0.16869">
        <ele>46.1</ele>
      </trkpt>
      <trkpt lat="44.82036" lon="-0.16888">
        <ele>49.7</ele>
      </trkpt>
      <trkpt lat="44.81994" lon="-0.16928">
        <ele>56.3</ele>
      </trkpt>
      <trkpt lat="44.81983" lon="-0.1693">
        <ele>57.5</ele>
      </trkpt>
      <trkpt lat="44.8197" lon="-0.16925">
        <ele>58.5</ele>
      </trkpt>
      <trkpt lat="44.81929" lon="-0.16844">
        <ele>61.9</ele>
      </trkpt>
      <trkpt lat="44.81917" lon="-0.16823">
        <ele>62.4</ele>
      </trkpt>
      <trkpt lat="44.8192" lon="-0.1678">
        <ele>62.2</ele>
      </trkpt>
      <trkpt lat="44.81934" lon="-0.16744">
        <ele>61.9</ele>
      </trkpt>
      <trkpt lat="44.81998" lon="-0.1665">
        <ele>60</ele>
      </trkpt>
      <trkpt lat="44.81951" lon="-0.16573">
        <ele>56.1</ele>
      </trkpt>
      <trkpt lat="44.81937" lon="-0.16542">
        <ele>54</ele>
      </trkpt>
      <trkpt lat="44.81907" lon="-0.16494">
        <ele>49.7</ele>
      </trkpt>
      <trkpt lat="44.81876" lon="-0.16436">
        <ele>45.1</ele>
      </trkpt>
      <trkpt lat="44.81864" lon="-0.1641">
        <ele>43.8</ele>
      </trkpt>
      <trkpt lat="44.81809" lon="-0.16313">
        <ele>40.4</ele>
      </trkpt>
      <trkpt lat="44.81808" lon="-0.16302">
        <ele>40</ele>
      </trkpt>
      <trkpt lat="44.81818" lon="-0.16235">
        <ele>34.8</ele>
      </trkpt>
      <trkpt lat="44.81835" lon="-0.16193">
        <ele>32.2</ele>
      </trkpt>
      <trkpt lat="44.81865" lon="-0.16143">
        <ele>34.6</ele>
      </trkpt>
      <trkpt lat="44.81898" lon="-0.16104">
        <ele>36.9</ele>
      </trkpt>
      <trkpt lat="44.81924" lon="-0.16075">
        <ele>38.8</ele>
      </trkpt>
      <trkpt lat="44.8199" lon="-0.15958">
        <ele>37.8</ele>
      </trkpt>
      <trkpt lat="44.82008" lon="-0.15926">
        <ele>38.9</ele>
      </trkpt>
      <trkpt lat="44.82027" lon="-0.15918">
        <ele>39.9</ele>
      </trkpt>
      <trkpt lat="44.82044" lon="-0.15915">
        <ele>40.6</ele>
      </trkpt>
      <trkpt lat="44.82051" lon="-0.15917">
        <ele>40.8</ele>
      </trkpt>
      <trkpt lat="44.82074" lon="-0.15959">
        <ele>42.8</ele>
      </trkpt>
      <trkpt lat="44.82102" lon="-0.16013">
        <ele>45.5</ele>
      </trkpt>
      <trkpt lat="44.82151" lon="-0.1609">
        <ele>48.9</ele>
      </trkpt>
      <trkpt lat="44.82189" lon="-0.16177">
        <ele>51.6</ele>
      </trkpt>
      <trkpt lat="44.82197" lon="-0.16187">
        <ele>51.7</ele>
      </trkpt>
      <trkpt lat="44.82209" lon="-0.1619">
        <ele>51.9</ele>
      </trkpt>
      <trkpt lat="44.82234" lon="-0.16188">
        <ele>52</ele>
      </trkpt>
      <trkpt lat="44.82298" lon="-0.16139">
        <ele>52</ele>
      </trkpt>
      <trkpt lat="44.82308" lon="-0.16155">
        <ele>52</ele>
      </trkpt>
      <trkpt lat="44.82338" lon="-0.16122">
        <ele>50.9</ele>
      </trkpt>
      <trkpt lat="44.8246" lon="-0.15988">
        <ele>43.2</ele>
      </trkpt>
      <trkpt lat="44.82475" lon="-0.15961">
        <ele>40.4</ele>
      </trkpt>
      <trkpt lat="44.82477" lon="-0.15937">
        <ele>38.4</ele>
      </trkpt>
      <trkpt lat="44.82471" lon="-0.15918">
        <ele>38.3</ele>
      </trkpt>
      <trkpt lat="44.82454" lon="-0.15879">
        <ele>38.7</ele>
      </trkpt>
      <trkpt lat="44.82455" lon="-0.15865">
        <ele>38</ele>
      </trkpt>
      <trkpt lat="44.82464" lon="-0.15856">
        <ele>34.9</ele>
      </trkpt>
      <trkpt lat="44.82474" lon="-0.15854">
        <ele>31.5</ele>
      </trkpt>
      <trkpt lat="44.82483" lon="-0.15864">
        <ele>29.2</ele>
      </trkpt>
      <trkpt lat="44.8252" lon="-0.15896">
        <ele>20.1</ele>
      </trkpt>
      <trkpt lat="44.82535" lon="-0.15908">
        <ele>16.4</ele>
      </trkpt>
      <trkpt lat="44.82553" lon="-0.15911">
        <ele>12.5</ele>
      </trkpt>
      <trkpt lat="44.82595" lon="-0.15858">
        <ele>8.5</ele>
      </trkpt>
      <trkpt lat="44.82611" lon="-0.15837">
        <ele>8</ele>
      </trkpt>
      <trkpt lat="44.82616" lon="-0.15815">
        <ele>7.8</ele>
      </trkpt>
      <trkpt lat="44.82636" lon="-0.15766">
        <ele>5.4</ele>
      </trkpt>
      <trkpt lat="44.82689" lon="-0.15793">
        <ele>4.5</ele>
      </trkpt>
      <trkpt lat="44.82714" lon="-0.1581">
        <ele>4.8</ele>
      </trkpt>
    </trkseg>
  </trk>
  <trk>
    <name><![CDATA[Track 19 mai 2016 09:42]]></name>
    <extensions>
      <line xmlns="http://www.topografix.com/GPX/gpx_style/0/2">
        <color>008800</color>
        <width>4</width>
      </line>
    </extensions>
    <trkseg>
      <trkpt lat="44.76177" lon="0.04549">
        <ele>80</ele>
        <time>2016-05-19T07:42:51Z</time>
      </trkpt>
      <trkpt lat="44.76187" lon="0.04523">
        <ele>80</ele>
        <time>2016-05-19T07:43:43Z</time>
      </trkpt>
      <trkpt lat="44.76184" lon="0.04473">
        <ele>79</ele>
        <time>2016-05-19T07:44:30Z</time>
      </trkpt>
      <trkpt lat="44.76231" lon="0.04347">
        <ele>80</ele>
        <time>2016-05-19T07:44:41Z</time>
      </trkpt>
      <trkpt lat="44.76278" lon="0.04153">
        <ele>82</ele>
        <time>2016-05-19T07:44:54Z</time>
      </trkpt>
      <trkpt lat="44.7631" lon="0.04015">
        <ele>85</ele>
        <time>2016-05-19T07:45:05Z</time>
      </trkpt>
      <trkpt lat="44.76316" lon="0.03925">
        <ele>87</ele>
        <time>2016-05-19T07:45:15Z</time>
      </trkpt>
      <trkpt lat="44.76308" lon="0.0385">
        <ele>88</ele>
        <time>2016-05-19T07:45:27Z</time>
      </trkpt>
      <trkpt lat="44.76292" lon="0.03783">
        <ele>90</ele>
        <time>2016-05-19T07:45:38Z</time>
      </trkpt>
      <trkpt lat="44.76292" lon="0.03702">
        <ele>95</ele>
        <time>2016-05-19T07:45:49Z</time>
      </trkpt>
      <trkpt lat="44.76381" lon="0.03606">
        <ele>98</ele>
        <time>2016-05-19T07:46:00Z</time>
      </trkpt>
      <trkpt lat="44.76392" lon="0.03563">
        <ele>103</ele>
        <time>2016-05-19T07:46:10Z</time>
      </trkpt>
      <trkpt lat="44.76339" lon="0.03448">
        <ele>110</ele>
        <time>2016-05-19T07:46:28Z</time>
      </trkpt>
      <trkpt lat="44.76316" lon="0.03401">
        <ele>111</ele>
        <time>2016-05-19T07:46:40Z</time>
      </trkpt>
      <trkpt lat="44.76276" lon="0.03323">
        <ele>113</ele>
        <time>2016-05-19T07:46:50Z</time>
      </trkpt>
      <trkpt lat="44.762" lon="0.03211">
        <ele>111</ele>
        <time>2016-05-19T07:47:01Z</time>
      </trkpt>
      <trkpt lat="44.76195" lon="0.03237">
        <ele>114</ele>
        <time>2016-05-19T07:47:58Z</time>
      </trkpt>
      <trkpt lat="44.76181" lon="0.03213">
        <ele>113</ele>
        <time>2016-05-19T07:48:28Z</time>
      </trkpt>
      <trkpt lat="44.76154" lon="0.03122">
        <ele>113</ele>
        <time>2016-05-19T07:48:39Z</time>
      </trkpt>
      <trkpt lat="44.76143" lon="0.03006">
        <ele>112</ele>
        <time>2016-05-19T07:48:51Z</time>
      </trkpt>
      <trkpt lat="44.76124" lon="0.02903">
        <ele>113</ele>
        <time>2016-05-19T07:49:02Z</time>
      </trkpt>
      <trkpt lat="44.76111" lon="0.02792">
        <ele>113</ele>
        <time>2016-05-19T07:49:13Z</time>
      </trkpt>
      <trkpt lat="44.76084" lon="0.02718">
        <ele>113</ele>
        <time>2016-05-19T07:49:23Z</time>
      </trkpt>
      <trkpt lat="44.76068" lon="0.02781">
        <ele>112</ele>
        <time>2016-05-19T07:49:34Z</time>
      </trkpt>
      <trkpt lat="44.76049" lon="0.02769">
        <ele>111</ele>
        <time>2016-05-19T07:49:44Z</time>
      </trkpt>
      <trkpt lat="44.76024" lon="0.02735">
        <ele>112</ele>
        <time>2016-05-19T07:49:56Z</time>
      </trkpt>
      <trkpt lat="44.76006" lon="0.02703">
        <ele>112</ele>
        <time>2016-05-19T07:50:07Z</time>
      </trkpt>
      <trkpt lat="44.75962" lon="0.02665">
        <ele>113</ele>
        <time>2016-05-19T07:50:19Z</time>
      </trkpt>
      <trkpt lat="44.75921" lon="0.02637">
        <ele>113</ele>
        <time>2016-05-19T07:50:52Z</time>
      </trkpt>
      <trkpt lat="44.75909" lon="0.02675">
        <ele>112</ele>
        <time>2016-05-19T07:51:12Z</time>
      </trkpt>
      <trkpt lat="44.75862" lon="0.02606">
        <ele>111</ele>
        <time>2016-05-19T07:51:24Z</time>
      </trkpt>
      <trkpt lat="44.75843" lon="0.02603">
        <ele>111</ele>
        <time>2016-05-19T07:51:34Z</time>
      </trkpt>
      <trkpt lat="44.75825" lon="0.02591">
        <ele>112</ele>
        <time>2016-05-19T07:51:45Z</time>
      </trkpt>
      <trkpt lat="44.7581" lon="0.02569">
        <ele>112</ele>
        <time>2016-05-19T07:51:55Z</time>
      </trkpt>
      <trkpt lat="44.75779" lon="0.02542">
        <ele>112</ele>
        <time>2016-05-19T07:52:09Z</time>
      </trkpt>
      <trkpt lat="44.75738" lon="0.02518">
        <ele>112</ele>
        <time>2016-05-19T07:52:19Z</time>
      </trkpt>
      <trkpt lat="44.75708" lon="0.02494">
        <ele>113</ele>
        <time>2016-05-19T07:52:29Z</time>
      </trkpt>
      <trkpt lat="44.75675" lon="0.02456">
        <ele>113</ele>
        <time>2016-05-19T07:52:42Z</time>
      </trkpt>
      <trkpt lat="44.75669" lon="0.02429">
        <ele>113</ele>
        <time>2016-05-19T07:52:54Z</time>
      </trkpt>
      <trkpt lat="44.75675" lon="0.02337">
        <ele>113</ele>
        <time>2016-05-19T07:53:22Z</time>
      </trkpt>
      <trkpt lat="44.75686" lon="0.02278">
        <ele>113</ele>
        <time>2016-05-19T07:53:35Z</time>
      </trkpt>
      <trkpt lat="44.75665" lon="0.02249">
        <ele>113</ele>
        <time>2016-05-19T07:53:45Z</time>
      </trkpt>
      <trkpt lat="44.75638" lon="0.02251">
        <ele>113</ele>
        <time>2016-05-19T07:53:59Z</time>
      </trkpt>
      <trkpt lat="44.75616" lon="0.02197">
        <ele>113</ele>
        <time>2016-05-19T07:55:41Z</time>
      </trkpt>
      <trkpt lat="44.75574" lon="0.02151">
        <ele>112</ele>
        <time>2016-05-19T07:55:58Z</time>
      </trkpt>
      <trkpt lat="44.75381" lon="0.02255">
        <ele>125</ele>
        <time>2016-05-19T07:57:43Z</time>
      </trkpt>
      <trkpt lat="44.7536" lon="0.02267">
        <ele>101</ele>
        <time>2016-05-19T07:57:54Z</time>
      </trkpt>
      <trkpt lat="44.75332" lon="0.02286">
        <ele>101</ele>
        <time>2016-05-19T07:58:04Z</time>
      </trkpt>
      <trkpt lat="44.75322" lon="0.02328">
        <ele>98</ele>
        <time>2016-05-19T07:58:18Z</time>
      </trkpt>
      <trkpt lat="44.75349" lon="0.02371">
        <ele>97</ele>
        <time>2016-05-19T07:58:30Z</time>
      </trkpt>
      <trkpt lat="44.75443" lon="0.02519">
        <ele>109</ele>
        <time>2016-05-19T07:59:16Z</time>
      </trkpt>
      <trkpt lat="44.75464" lon="0.02578">
        <ele>109</ele>
        <time>2016-05-19T07:59:26Z</time>
      </trkpt>
      <trkpt lat="44.75475" lon="0.02604">
        <ele>107</ele>
        <time>2016-05-19T07:59:51Z</time>
      </trkpt>
      <trkpt lat="44.75489" lon="0.0262">
        <ele>107</ele>
        <time>2016-05-19T08:00:16Z</time>
      </trkpt>
      <trkpt lat="44.75505" lon="0.0264">
        <ele>107</ele>
        <time>2016-05-19T08:00:34Z</time>
      </trkpt>
      <trkpt lat="44.75529" lon="0.02658">
        <ele>107</ele>
        <time>2016-05-19T08:01:07Z</time>
      </trkpt>
      <trkpt lat="44.75545" lon="0.02673">
        <ele>107</ele>
        <time>2016-05-19T08:01:24Z</time>
      </trkpt>
      <trkpt lat="44.75558" lon="0.02691">
        <ele>107</ele>
        <time>2016-05-19T08:02:35Z</time>
      </trkpt>
      <trkpt lat="44.75581" lon="0.02703">
        <ele>107</ele>
        <time>2016-05-19T08:03:18Z</time>
      </trkpt>
      <trkpt lat="44.75613" lon="0.02725">
        <ele>106</ele>
        <time>2016-05-19T08:03:28Z</time>
      </trkpt>
      <trkpt lat="44.7566" lon="0.02748">
        <ele>103</ele>
        <time>2016-05-19T08:03:40Z</time>
      </trkpt>
      <trkpt lat="44.75689" lon="0.02768">
        <ele>102</ele>
        <time>2016-05-19T08:03:50Z</time>
      </trkpt>
      <trkpt lat="44.75724" lon="0.02803">
        <ele>101</ele>
        <time>2016-05-19T08:04:02Z</time>
      </trkpt>
      <trkpt lat="44.7576" lon="0.02828">
        <ele>101</ele>
        <time>2016-05-19T08:04:13Z</time>
      </trkpt>
      <trkpt lat="44.75824" lon="0.02819">
        <ele>104</ele>
        <time>2016-05-19T08:04:25Z</time>
      </trkpt>
      <trkpt lat="44.75853" lon="0.02862">
        <ele>102</ele>
        <time>2016-05-19T08:04:35Z</time>
      </trkpt>
      <trkpt lat="44.75886" lon="0.02869">
        <ele>102</ele>
        <time>2016-05-19T08:04:49Z</time>
      </trkpt>
      <trkpt lat="44.75923" lon="0.02907">
        <ele>102</ele>
        <time>2016-05-19T08:05:00Z</time>
      </trkpt>
      <trkpt lat="44.75966" lon="0.02955">
        <ele>105</ele>
        <time>2016-05-19T08:05:12Z</time>
      </trkpt>
      <trkpt lat="44.75982" lon="0.03028">
        <ele>106</ele>
        <time>2016-05-19T08:05:23Z</time>
      </trkpt>
      <trkpt lat="44.75934" lon="0.03111">
        <ele>109</ele>
        <time>2016-05-19T08:05:34Z</time>
      </trkpt>
      <trkpt lat="44.75897" lon="0.03193">
        <ele>108</ele>
        <time>2016-05-19T08:05:45Z</time>
      </trkpt>
      <trkpt lat="44.75879" lon="0.03242">
        <ele>104</ele>
        <time>2016-05-19T08:05:55Z</time>
      </trkpt>
      <trkpt lat="44.75854" lon="0.03285">
        <ele>99</ele>
        <time>2016-05-19T08:06:05Z</time>
      </trkpt>
      <trkpt lat="44.75844" lon="0.03346">
        <ele>96</ele>
        <time>2016-05-19T08:06:17Z</time>
      </trkpt>
      <trkpt lat="44.75835" lon="0.03405">
        <ele>94</ele>
        <time>2016-05-19T08:06:30Z</time>
      </trkpt>
      <trkpt lat="44.75827" lon="0.03451">
        <ele>90</ele>
        <time>2016-05-19T08:06:42Z</time>
      </trkpt>
      <trkpt lat="44.758" lon="0.03506">
        <ele>87</ele>
        <time>2016-05-19T08:06:54Z</time>
      </trkpt>
      <trkpt lat="44.75783" lon="0.03552">
        <ele>83</ele>
        <time>2016-05-19T08:07:12Z</time>
      </trkpt>
      <trkpt lat="44.75775" lon="0.0361">
        <ele>80</ele>
        <time>2016-05-19T08:07:24Z</time>
      </trkpt>
      <trkpt lat="44.75795" lon="0.03701">
        <ele>79</ele>
        <time>2016-05-19T08:07:39Z</time>
      </trkpt>
      <trkpt lat="44.75768" lon="0.03729">
        <ele>76</ele>
        <time>2016-05-19T08:07:49Z</time>
      </trkpt>
      <trkpt lat="44.75746" lon="0.0379">
        <ele>75</ele>
        <time>2016-05-19T08:08:00Z</time>
      </trkpt>
      <trkpt lat="44.75711" lon="0.03865">
        <ele>72</ele>
        <time>2016-05-19T08:08:11Z</time>
      </trkpt>
      <trkpt lat="44.75685" lon="0.03957">
        <ele>69</ele>
        <time>2016-05-19T08:08:22Z</time>
      </trkpt>
      <trkpt lat="44.75659" lon="0.04001">
        <ele>67</ele>
        <time>2016-05-19T08:08:41Z</time>
      </trkpt>
      <trkpt lat="44.75688" lon="0.04009">
        <ele>71</ele>
        <time>2016-05-19T08:08:53Z</time>
      </trkpt>
      <trkpt lat="44.75731" lon="0.04023">
        <ele>76</ele>
        <time>2016-05-19T08:09:05Z</time>
      </trkpt>
      <trkpt lat="44.75772" lon="0.04042">
        <ele>78</ele>
        <time>2016-05-19T08:09:16Z</time>
      </trkpt>
      <trkpt lat="44.7581" lon="0.04053">
        <ele>81</ele>
        <time>2016-05-19T08:09:26Z</time>
      </trkpt>
      <trkpt lat="44.75875" lon="0.04062">
        <ele>89</ele>
        <time>2016-05-19T08:09:38Z</time>
      </trkpt>
      <trkpt lat="44.75918" lon="0.04063">
        <ele>94</ele>
        <time>2016-05-19T08:09:54Z</time>
      </trkpt>
      <trkpt lat="44.75932" lon="0.04084">
        <ele>96</ele>
        <time>2016-05-19T08:13:14Z</time>
      </trkpt>
      <trkpt lat="44.75969" lon="0.0412">
        <ele>94</ele>
        <time>2016-05-19T08:13:26Z</time>
      </trkpt>
      <trkpt lat="44.75975" lon="0.04086">
        <ele>92</ele>
        <time>2016-05-19T08:13:37Z</time>
      </trkpt>
      <trkpt lat="44.75988" lon="0.04029">
        <ele>97</ele>
        <time>2016-05-19T08:13:47Z</time>
      </trkpt>
      <trkpt lat="44.75989" lon="0.03985">
        <ele>99</ele>
        <time>2016-05-19T08:13:58Z</time>
      </trkpt>
      <trkpt lat="44.76094" lon="0.03609">
        <ele>105</ele>
        <time>2016-05-19T08:15:31Z</time>
      </trkpt>
      <trkpt lat="44.76095" lon="0.03554">
        <ele>105</ele>
        <time>2016-05-19T08:15:42Z</time>
      </trkpt>
      <trkpt lat="44.76102" lon="0.03525">
        <ele>106</ele>
        <time>2016-05-19T08:15:58Z</time>
      </trkpt>
      <trkpt lat="44.76143" lon="0.03441">
        <ele>108</ele>
        <time>2016-05-19T08:16:09Z</time>
      </trkpt>
      <trkpt lat="44.76152" lon="0.03416">
        <ele>110</ele>
        <time>2016-05-19T08:16:34Z</time>
      </trkpt>
      <trkpt lat="44.76164" lon="0.03346">
        <ele>111</ele>
        <time>2016-05-19T08:16:44Z</time>
      </trkpt>
      <trkpt lat="44.76181" lon="0.03249">
        <ele>113</ele>
        <time>2016-05-19T08:16:56Z</time>
      </trkpt>
      <trkpt lat="44.762" lon="0.0325">
        <ele>114</ele>
        <time>2016-05-19T08:17:06Z</time>
      </trkpt>
      <trkpt lat="44.76255" lon="0.03306">
        <ele>112</ele>
        <time>2016-05-19T08:17:17Z</time>
      </trkpt>
      <trkpt lat="44.76298" lon="0.03385">
        <ele>110</ele>
        <time>2016-05-19T08:17:27Z</time>
      </trkpt>
      <trkpt lat="44.76323" lon="0.03483">
        <ele>108</ele>
        <time>2016-05-19T08:17:37Z</time>
      </trkpt>
      <trkpt lat="44.76379" lon="0.03578">
        <ele>103</ele>
        <time>2016-05-19T08:17:48Z</time>
      </trkpt>
      <trkpt lat="44.76373" lon="0.03632">
        <ele>99</ele>
        <time>2016-05-19T08:17:59Z</time>
      </trkpt>
      <trkpt lat="44.76322" lon="0.03672">
        <ele>96</ele>
        <time>2016-05-19T08:18:09Z</time>
      </trkpt>
      <trkpt lat="44.76316" lon="0.04001">
        <ele>85</ele>
        <time>2016-05-19T08:18:44Z</time>
      </trkpt>
      <trkpt lat="44.76273" lon="0.04128">
        <ele>82</ele>
        <time>2016-05-19T08:18:55Z</time>
      </trkpt>
      <trkpt lat="44.76242" lon="0.04239">
        <ele>79</ele>
        <time>2016-05-19T08:19:06Z</time>
      </trkpt>
      <trkpt lat="44.76183" lon="0.04346">
        <ele>75</ele>
        <time>2016-05-19T08:19:17Z</time>
      </trkpt>
      <trkpt lat="44.76148" lon="0.04464">
        <ele>73</ele>
        <time>2016-05-19T08:19:28Z</time>
      </trkpt>
      <trkpt lat="44.7616" lon="0.04504">
        <ele>74</ele>
        <time>2016-05-19T08:19:39Z</time>
      </trkpt>
      <trkpt lat="44.76171" lon="0.04535">
        <ele>79</ele>
        <time>2016-05-19T08:19:50Z</time>
      </trkpt>
    </trkseg>
  </trk>
  <trk>
    <name><![CDATA[randogps33-764]]></name>
    <extensions>
      <line xmlns="http://www.topografix.com/GPX/gpx_style/0/2">
        <color>0000FF</color>
        <width>4</width>
      </line>
    </extensions>
    <trkseg>
      <trkpt lat="44.77106" lon="-0.22787">
        <ele>79</ele>
        <time>2017-05-23T09:37:07Z</time>
      </trkpt>
      <trkpt lat="44.77102" lon="-0.22795">
        <ele>77</ele>
        <time>2017-05-23T09:37:07Z</time>
      </trkpt>
      <trkpt lat="44.77095" lon="-0.22799">
        <ele>77</ele>
        <time>2017-05-23T09:37:07Z</time>
      </trkpt>
      <trkpt lat="44.77092" lon="-0.228">
        <ele>77</ele>
        <time>2017-05-23T09:37:07Z</time>
      </trkpt>
      <trkpt lat="44.77088" lon="-0.22799">
        <ele>77</ele>
        <time>2017-05-23T09:37:31Z</time>
      </trkpt>
      <trkpt lat="44.77087" lon="-0.22803">
        <ele>77</ele>
        <time>2017-05-23T09:37:31Z</time>
      </trkpt>
      <trkpt lat="44.77092" lon="-0.22805">
        <ele>77</ele>
        <time>2017-05-23T09:37:31Z</time>
      </trkpt>
      <trkpt lat="44.77099" lon="-0.22811">
        <ele>77</ele>
        <time>2017-05-23T09:37:31Z</time>
      </trkpt>
      <trkpt lat="44.77098" lon="-0.22822">
        <ele>77</ele>
        <time>2017-05-23T09:37:47Z</time>
      </trkpt>
      <trkpt lat="44.771" lon="-0.22832">
        <ele>77</ele>
        <time>2017-05-23T09:37:47Z</time>
      </trkpt>
      <trkpt lat="44.77101" lon="-0.22838">
        <ele>77</ele>
        <time>2017-05-23T09:37:47Z</time>
      </trkpt>
      <trkpt lat="44.77103" lon="-0.22845">
        <ele>77</ele>
        <time>2017-05-23T09:38:03Z</time>
      </trkpt>
      <trkpt lat="44.77109" lon="-0.22853">
        <ele>77</ele>
        <time>2017-05-23T09:38:03Z</time>
      </trkpt>
      <trkpt lat="44.77111" lon="-0.22864">
        <ele>77</ele>
        <time>2017-05-23T09:38:03Z</time>
      </trkpt>
      <trkpt lat="44.77109" lon="-0.22872">
        <ele>77</ele>
        <time>2017-05-23T09:38:03Z</time>
      </trkpt>
      <trkpt lat="44.77111" lon="-0.22878">
        <ele>78</ele>
        <time>2017-05-23T09:38:19Z</time>
      </trkpt>
      <trkpt lat="44.7711" lon="-0.22885">
        <ele>78</ele>
        <time>2017-05-23T09:38:19Z</time>
      </trkpt>
      <trkpt lat="44.77104" lon="-0.22896">
        <ele>78</ele>
        <time>2017-05-23T09:38:19Z</time>
      </trkpt>
      <trkpt lat="44.77098" lon="-0.229">
        <ele>78</ele>
        <time>2017-05-23T09:38:35Z</time>
      </trkpt>
      <trkpt lat="44.77079" lon="-0.22907">
        <ele>78</ele>
        <time>2017-05-23T09:38:35Z</time>
      </trkpt>
      <trkpt lat="44.7707" lon="-0.22913">
        <ele>78</ele>
        <time>2017-05-23T09:38:51Z</time>
      </trkpt>
      <trkpt lat="44.77063" lon="-0.22913">
        <ele>78</ele>
        <time>2017-05-23T09:38:51Z</time>
      </trkpt>
      <trkpt lat="44.77059" lon="-0.22914">
        <ele>78</ele>
        <time>2017-05-23T09:38:51Z</time>
      </trkpt>
      <trkpt lat="44.77045" lon="-0.22928">
        <ele>78</ele>
        <time>2017-05-23T09:39:07Z</time>
      </trkpt>
      <trkpt lat="44.77041" lon="-0.22933">
        <ele>75</ele>
        <time>2017-05-23T09:39:23Z</time>
      </trkpt>
      <trkpt lat="44.77037" lon="-0.22946">
        <ele>75</ele>
        <time>2017-05-23T09:39:23Z</time>
      </trkpt>
      <trkpt lat="44.77035" lon="-0.22951">
        <ele>75</ele>
        <time>2017-05-23T09:39:23Z</time>
      </trkpt>
      <trkpt lat="44.77031" lon="-0.22963">
        <ele>74</ele>
        <time>2017-05-23T09:39:39Z</time>
      </trkpt>
      <trkpt lat="44.7703" lon="-0.2297">
        <ele>74</ele>
        <time>2017-05-23T09:39:39Z</time>
      </trkpt>
      <trkpt lat="44.77028" lon="-0.22975">
        <ele>74</ele>
        <time>2017-05-23T09:39:39Z</time>
      </trkpt>
      <trkpt lat="44.77027" lon="-0.22981">
        <ele>74</ele>
        <time>2017-05-23T09:39:55Z</time>
      </trkpt>
      <trkpt lat="44.77023" lon="-0.22994">
        <ele>74</ele>
        <time>2017-05-23T09:39:56Z</time>
      </trkpt>
      <trkpt lat="44.77023" lon="-0.22999">
        <ele>74</ele>
        <time>2017-05-23T09:39:56Z</time>
      </trkpt>
      <trkpt lat="44.7702" lon="-0.23004">
        <ele>74</ele>
        <time>2017-05-23T09:40:11Z</time>
      </trkpt>
      <trkpt lat="44.7702" lon="-0.23012">
        <ele>74</ele>
        <time>2017-05-23T09:40:11Z</time>
      </trkpt>
      <trkpt lat="44.77018" lon="-0.23018">
        <ele>74</ele>
        <time>2017-05-23T09:40:11Z</time>
      </trkpt>
      <trkpt lat="44.77018" lon="-0.23026">
        <ele>74</ele>
        <time>2017-05-23T09:40:11Z</time>
      </trkpt>
      <trkpt lat="44.77015" lon="-0.2304">
        <ele>74</ele>
        <time>2017-05-23T09:40:27Z</time>
      </trkpt>
      <trkpt lat="44.77014" lon="-0.23048">
        <ele>75</ele>
        <time>2017-05-23T09:40:27Z</time>
      </trkpt>
      <trkpt lat="44.77012" lon="-0.23055">
        <ele>75</ele>
        <time>2017-05-23T09:40:27Z</time>
      </trkpt>
      <trkpt lat="44.77012" lon="-0.23061">
        <ele>75</ele>
        <time>2017-05-23T09:40:43Z</time>
      </trkpt>
      <trkpt lat="44.77006" lon="-0.23081">
        <ele>75</ele>
        <time>2017-05-23T09:40:43Z</time>
      </trkpt>
      <trkpt lat="44.77004" lon="-0.23087">
        <ele>75</ele>
        <time>2017-05-23T09:40:59Z</time>
      </trkpt>
      <trkpt lat="44.77005" lon="-0.23101">
        <ele>75</ele>
        <time>2017-05-23T09:40:59Z</time>
      </trkpt>
      <trkpt lat="44.77004" lon="-0.23115">
        <ele>75</ele>
        <time>2017-05-23T09:41:15Z</time>
      </trkpt>
      <trkpt lat="44.77" lon="-0.2312">
        <ele>75</ele>
        <time>2017-05-23T09:41:15Z</time>
      </trkpt>
      <trkpt lat="44.77001" lon="-0.23128">
        <ele>76</ele>
        <time>2017-05-23T09:41:15Z</time>
      </trkpt>
      <trkpt lat="44.77001" lon="-0.23135">
        <ele>76</ele>
        <time>2017-05-23T09:41:15Z</time>
      </trkpt>
      <trkpt lat="44.76996" lon="-0.23148">
        <ele>76</ele>
        <time>2017-05-23T09:41:31Z</time>
      </trkpt>
      <trkpt lat="44.76997" lon="-0.23156">
        <ele>76</ele>
        <time>2017-05-23T09:41:31Z</time>
      </trkpt>
      <trkpt lat="44.76996" lon="-0.2317">
        <ele>76</ele>
        <time>2017-05-23T09:41:47Z</time>
      </trkpt>
      <trkpt lat="44.7699" lon="-0.23196">
        <ele>76</ele>
        <time>2017-05-23T09:42:03Z</time>
      </trkpt>
      <trkpt lat="44.76979" lon="-0.23223">
        <ele>77</ele>
        <time>2017-05-23T09:42:19Z</time>
      </trkpt>
      <trkpt lat="44.76974" lon="-0.23227">
        <ele>77</ele>
        <time>2017-05-23T09:42:19Z</time>
      </trkpt>
      <trkpt lat="44.76969" lon="-0.23239">
        <ele>77</ele>
        <time>2017-05-23T09:42:19Z</time>
      </trkpt>
      <trkpt lat="44.76964" lon="-0.23252">
        <ele>77</ele>
        <time>2017-05-23T09:42:35Z</time>
      </trkpt>
      <trkpt lat="44.76958" lon="-0.23263">
        <ele>79</ele>
        <time>2017-05-23T09:42:35Z</time>
      </trkpt>
      <trkpt lat="44.76954" lon="-0.23281">
        <ele>79</ele>
        <time>2017-05-23T09:42:51Z</time>
      </trkpt>
      <trkpt lat="44.7695" lon="-0.23286">
        <ele>79</ele>
        <time>2017-05-23T09:42:51Z</time>
      </trkpt>
      <trkpt lat="44.76946" lon="-0.23291">
        <ele>79</ele>
        <time>2017-05-23T09:43:07Z</time>
      </trkpt>
      <trkpt lat="44.76933" lon="-0.23327">
        <ele>79</ele>
        <time>2017-05-23T09:43:23Z</time>
      </trkpt>
      <trkpt lat="44.76933" lon="-0.23334">
        <ele>79</ele>
        <time>2017-05-23T09:43:23Z</time>
      </trkpt>
      <trkpt lat="44.76931" lon="-0.23339">
        <ele>79</ele>
        <time>2017-05-23T09:43:39Z</time>
      </trkpt>
      <trkpt lat="44.76926" lon="-0.23344">
        <ele>79</ele>
        <time>2017-05-23T09:43:39Z</time>
      </trkpt>
      <trkpt lat="44.76925" lon="-0.23352">
        <ele>79</ele>
        <time>2017-05-23T09:43:39Z</time>
      </trkpt>
      <trkpt lat="44.76921" lon="-0.23365">
        <ele>79</ele>
        <time>2017-05-23T09:43:55Z</time>
      </trkpt>
      <trkpt lat="44.76918" lon="-0.23379">
        <ele>78</ele>
        <time>2017-05-23T09:43:55Z</time>
      </trkpt>
      <trkpt lat="44.7692" lon="-0.23384">
        <ele>78</ele>
        <time>2017-05-23T09:43:55Z</time>
      </trkpt>
      <trkpt lat="44.76913" lon="-0.23399">
        <ele>78</ele>
        <time>2017-05-23T09:44:11Z</time>
      </trkpt>
      <trkpt lat="44.76915" lon="-0.2341">
        <ele>78</ele>
        <time>2017-05-23T09:44:27Z</time>
      </trkpt>
      <trkpt lat="44.76921" lon="-0.23428">
        <ele>78</ele>
        <time>2017-05-23T09:44:43Z</time>
      </trkpt>
      <trkpt lat="44.76921" lon="-0.23431">
        <ele>78</ele>
        <time>2017-05-23T09:44:43Z</time>
      </trkpt>
      <trkpt lat="44.76924" lon="-0.23437">
        <ele>78</ele>
        <time>2017-05-23T09:44:43Z</time>
      </trkpt>
      <trkpt lat="44.76928" lon="-0.23445">
        <ele>78</ele>
        <time>2017-05-23T09:44:43Z</time>
      </trkpt>
      <trkpt lat="44.76937" lon="-0.23465">
        <ele>77</ele>
        <time>2017-05-23T09:44:59Z</time>
      </trkpt>
      <trkpt lat="44.76945" lon="-0.23476">
        <ele>77</ele>
        <time>2017-05-23T09:45:15Z</time>
      </trkpt>
      <trkpt lat="44.76949" lon="-0.23486">
        <ele>77</ele>
        <time>2017-05-23T09:45:15Z</time>
      </trkpt>
      <trkpt lat="44.76952" lon="-0.23495">
        <ele>77</ele>
        <time>2017-05-23T09:45:31Z</time>
      </trkpt>
      <trkpt lat="44.76961" lon="-0.23515">
        <ele>73</ele>
        <time>2017-05-23T09:45:31Z</time>
      </trkpt>
      <trkpt lat="44.76971" lon="-0.23535">
        <ele>73</ele>
        <time>2017-05-23T09:45:47Z</time>
      </trkpt>
      <trkpt lat="44.76979" lon="-0.23547">
        <ele>74</ele>
        <time>2017-05-23T09:46:03Z</time>
      </trkpt>
      <trkpt lat="44.76988" lon="-0.23558">
        <ele>74</ele>
        <time>2017-05-23T09:46:03Z</time>
      </trkpt>
      <trkpt lat="44.76992" lon="-0.23568">
        <ele>74</ele>
        <time>2017-05-23T09:46:19Z</time>
      </trkpt>
      <trkpt lat="44.76994" lon="-0.23584">
        <ele>74</ele>
        <time>2017-05-23T09:46:19Z</time>
      </trkpt>
      <trkpt lat="44.76997" lon="-0.23589">
        <ele>74</ele>
        <time>2017-05-23T09:46:19Z</time>
      </trkpt>
      <trkpt lat="44.76994" lon="-0.23594">
        <ele>74</ele>
        <time>2017-05-23T09:48:15Z</time>
      </trkpt>
      <trkpt lat="44.7699" lon="-0.23593">
        <ele>74</ele>
        <time>2017-05-23T09:48:15Z</time>
      </trkpt>
      <trkpt lat="44.76989" lon="-0.23596">
        <ele>74</ele>
        <time>2017-05-23T09:48:15Z</time>
      </trkpt>
      <trkpt lat="44.76987" lon="-0.23599">
        <ele>74</ele>
        <time>2017-05-23T09:48:15Z</time>
      </trkpt>
      <trkpt lat="44.76992" lon="-0.23612">
        <ele>74</ele>
        <time>2017-05-23T09:48:31Z</time>
      </trkpt>
      <trkpt lat="44.7699" lon="-0.23618">
        <ele>74</ele>
        <time>2017-05-23T09:48:31Z</time>
      </trkpt>
      <trkpt lat="44.76991" lon="-0.23629">
        <ele>73</ele>
        <time>2017-05-23T09:48:47Z</time>
      </trkpt>
      <trkpt lat="44.76996" lon="-0.23639">
        <ele>73</ele>
        <time>2017-05-23T09:48:47Z</time>
      </trkpt>
      <trkpt lat="44.76998" lon="-0.23646">
        <ele>73</ele>
        <time>2017-05-23T09:48:47Z</time>
      </trkpt>
      <trkpt lat="44.77001" lon="-0.23649">
        <ele>73</ele>
        <time>2017-05-23T09:49:03Z</time>
      </trkpt>
      <trkpt lat="44.77008" lon="-0.23695">
        <ele>73</ele>
        <time>2017-05-23T09:49:19Z</time>
      </trkpt>
      <trkpt lat="44.77006" lon="-0.23709">
        <ele>72</ele>
        <time>2017-05-23T09:49:35Z</time>
      </trkpt>
      <trkpt lat="44.77003" lon="-0.23717">
        <ele>72</ele>
        <time>2017-05-23T09:49:35Z</time>
      </trkpt>
      <trkpt lat="44.77002" lon="-0.23726">
        <ele>72</ele>
        <time>2017-05-23T09:49:35Z</time>
      </trkpt>
      <trkpt lat="44.77" lon="-0.23754">
        <ele>72</ele>
        <time>2017-05-23T09:49:51Z</time>
      </trkpt>
      <trkpt lat="44.76997" lon="-0.23756">
        <ele>72</ele>
        <time>2017-05-23T09:50:19Z</time>
      </trkpt>
      <trkpt lat="44.76998" lon="-0.23765">
        <ele>72</ele>
        <time>2017-05-23T09:50:19Z</time>
      </trkpt>
      <trkpt lat="44.76998" lon="-0.23771">
        <ele>72</ele>
        <time>2017-05-23T09:50:19Z</time>
      </trkpt>
      <trkpt lat="44.76996" lon="-0.23778">
        <ele>72</ele>
        <time>2017-05-23T09:50:35Z</time>
      </trkpt>
      <trkpt lat="44.76996" lon="-0.23782">
        <ele>72</ele>
        <time>2017-05-23T09:50:35Z</time>
      </trkpt>
      <trkpt lat="44.76999" lon="-0.238">
        <ele>71</ele>
        <time>2017-05-23T09:50:35Z</time>
      </trkpt>
      <trkpt lat="44.77004" lon="-0.23815">
        <ele>71</ele>
        <time>2017-05-23T09:50:51Z</time>
      </trkpt>
      <trkpt lat="44.77006" lon="-0.2382">
        <ele>71</ele>
        <time>2017-05-23T09:50:51Z</time>
      </trkpt>
      <trkpt lat="44.77009" lon="-0.23832">
        <ele>71</ele>
        <time>2017-05-23T09:51:07Z</time>
      </trkpt>
      <trkpt lat="44.77009" lon="-0.23838">
        <ele>71</ele>
        <time>2017-05-23T09:51:07Z</time>
      </trkpt>
      <trkpt lat="44.77008" lon="-0.23847">
        <ele>71</ele>
        <time>2017-05-23T09:51:07Z</time>
      </trkpt>
      <trkpt lat="44.77007" lon="-0.2385">
        <ele>71</ele>
        <time>2017-05-23T09:51:23Z</time>
      </trkpt>
      <trkpt lat="44.77002" lon="-0.23856">
        <ele>71</ele>
        <time>2017-05-23T09:51:23Z</time>
      </trkpt>
      <trkpt lat="44.76995" lon="-0.23866">
        <ele>71</ele>
        <time>2017-05-23T09:51:23Z</time>
      </trkpt>
      <trkpt lat="44.76995" lon="-0.23866">
        <ele>71</ele>
        <time>2017-05-23T09:51:55Z</time>
      </trkpt>
      <trkpt lat="44.76991" lon="-0.2387">
        <ele>71</ele>
        <time>2017-05-23T09:51:55Z</time>
      </trkpt>
      <trkpt lat="44.76985" lon="-0.23872">
        <ele>71</ele>
        <time>2017-05-23T09:51:55Z</time>
      </trkpt>
      <trkpt lat="44.76978" lon="-0.23885">
        <ele>69</ele>
        <time>2017-05-23T09:52:11Z</time>
      </trkpt>
      <trkpt lat="44.76977" lon="-0.23892">
        <ele>69</ele>
        <time>2017-05-23T09:52:11Z</time>
      </trkpt>
      <trkpt lat="44.76974" lon="-0.23899">
        <ele>69</ele>
        <time>2017-05-23T09:52:11Z</time>
      </trkpt>
      <trkpt lat="44.76967" lon="-0.23906">
        <ele>69</ele>
        <time>2017-05-23T09:52:27Z</time>
      </trkpt>
      <trkpt lat="44.76964" lon="-0.23911">
        <ele>69</ele>
        <time>2017-05-23T09:52:27Z</time>
      </trkpt>
      <trkpt lat="44.76962" lon="-0.23918">
        <ele>69</ele>
        <time>2017-05-23T09:52:27Z</time>
      </trkpt>
      <trkpt lat="44.76959" lon="-0.23923">
        <ele>69</ele>
        <time>2017-05-23T09:52:27Z</time>
      </trkpt>
      <trkpt lat="44.76954" lon="-0.23927">
        <ele>67</ele>
        <time>2017-05-23T09:52:43Z</time>
      </trkpt>
      <trkpt lat="44.76952" lon="-0.23931">
        <ele>67</ele>
        <time>2017-05-23T09:52:43Z</time>
      </trkpt>
      <trkpt lat="44.76945" lon="-0.23949">
        <ele>67</ele>
        <time>2017-05-23T09:52:59Z</time>
      </trkpt>
      <trkpt lat="44.76945" lon="-0.23962">
        <ele>66</ele>
        <time>2017-05-23T09:52:59Z</time>
      </trkpt>
      <trkpt lat="44.76942" lon="-0.23966">
        <ele>66</ele>
        <time>2017-05-23T09:52:59Z</time>
      </trkpt>
      <trkpt lat="44.76931" lon="-0.23971">
        <ele>66</ele>
        <time>2017-05-23T09:53:15Z</time>
      </trkpt>
      <trkpt lat="44.76922" lon="-0.2398">
        <ele>66</ele>
        <time>2017-05-23T09:53:15Z</time>
      </trkpt>
      <trkpt lat="44.76913" lon="-0.23996">
        <ele>66</ele>
        <time>2017-05-23T09:53:31Z</time>
      </trkpt>
      <trkpt lat="44.76903" lon="-0.24006">
        <ele>66</ele>
        <time>2017-05-23T09:53:47Z</time>
      </trkpt>
      <trkpt lat="44.76892" lon="-0.24019">
        <ele>66</ele>
        <time>2017-05-23T09:53:47Z</time>
      </trkpt>
      <trkpt lat="44.76886" lon="-0.2403">
        <ele>66</ele>
        <time>2017-05-23T09:54:03Z</time>
      </trkpt>
      <trkpt lat="44.76878" lon="-0.24047">
        <ele>65</ele>
        <time>2017-05-23T09:54:19Z</time>
      </trkpt>
      <trkpt lat="44.76872" lon="-0.24055">
        <ele>68</ele>
        <time>2017-05-23T09:54:19Z</time>
      </trkpt>
      <trkpt lat="44.76868" lon="-0.24062">
        <ele>68</ele>
        <time>2017-05-23T09:54:19Z</time>
      </trkpt>
      <trkpt lat="44.76868" lon="-0.2406">
        <ele>68</ele>
        <time>2017-05-23T09:54:39Z</time>
      </trkpt>
      <trkpt lat="44.76871" lon="-0.24061">
        <ele>68</ele>
        <time>2017-05-23T09:54:39Z</time>
      </trkpt>
      <trkpt lat="44.7687" lon="-0.24064">
        <ele>68</ele>
        <time>2017-05-23T09:54:39Z</time>
      </trkpt>
      <trkpt lat="44.76873" lon="-0.2407">
        <ele>68</ele>
        <time>2017-05-23T09:54:39Z</time>
      </trkpt>
      <trkpt lat="44.76876" lon="-0.24091">
        <ele>65</ele>
        <time>2017-05-23T09:54:55Z</time>
      </trkpt>
      <trkpt lat="44.76876" lon="-0.24105">
        <ele>65</ele>
        <time>2017-05-23T09:55:11Z</time>
      </trkpt>
      <trkpt lat="44.76873" lon="-0.24111">
        <ele>68</ele>
        <time>2017-05-23T09:55:11Z</time>
      </trkpt>
      <trkpt lat="44.76871" lon="-0.24119">
        <ele>68</ele>
        <time>2017-05-23T09:55:11Z</time>
      </trkpt>
      <trkpt lat="44.76871" lon="-0.24133">
        <ele>72</ele>
        <time>2017-05-23T09:55:27Z</time>
      </trkpt>
      <trkpt lat="44.76869" lon="-0.24139">
        <ele>72</ele>
        <time>2017-05-23T09:55:27Z</time>
      </trkpt>
      <trkpt lat="44.76869" lon="-0.24145">
        <ele>72</ele>
        <time>2017-05-23T09:55:27Z</time>
      </trkpt>
      <trkpt lat="44.76866" lon="-0.24153">
        <ele>72</ele>
        <time>2017-05-23T09:55:27Z</time>
      </trkpt>
      <trkpt lat="44.76862" lon="-0.2416">
        <ele>72</ele>
        <time>2017-05-23T09:55:43Z</time>
      </trkpt>
      <trkpt lat="44.76859" lon="-0.24175">
        <ele>72</ele>
        <time>2017-05-23T09:55:43Z</time>
      </trkpt>
      <trkpt lat="44.76857" lon="-0.24196">
        <ele>72</ele>
        <time>2017-05-23T09:55:59Z</time>
      </trkpt>
      <trkpt lat="44.76854" lon="-0.24205">
        <ele>72</ele>
        <time>2017-05-23T09:55:59Z</time>
      </trkpt>
      <trkpt lat="44.7685" lon="-0.24211">
        <ele>73</ele>
        <time>2017-05-23T09:56:15Z</time>
      </trkpt>
      <trkpt lat="44.76847" lon="-0.24219">
        <ele>73</ele>
        <time>2017-05-23T09:56:15Z</time>
      </trkpt>
      <trkpt lat="44.76847" lon="-0.24224">
        <ele>73</ele>
        <time>2017-05-23T09:56:15Z</time>
      </trkpt>
      <trkpt lat="44.76841" lon="-0.24236">
        <ele>73</ele>
        <time>2017-05-23T09:56:31Z</time>
      </trkpt>
      <trkpt lat="44.76839" lon="-0.24249">
        <ele>73</ele>
        <time>2017-05-23T09:56:31Z</time>
      </trkpt>
      <trkpt lat="44.76838" lon="-0.24257">
        <ele>73</ele>
        <time>2017-05-23T09:56:31Z</time>
      </trkpt>
      <trkpt lat="44.76837" lon="-0.24267">
        <ele>73</ele>
        <time>2017-05-23T09:56:47Z</time>
      </trkpt>
      <trkpt lat="44.7683" lon="-0.24276">
        <ele>73</ele>
        <time>2017-05-23T09:56:47Z</time>
      </trkpt>
      <trkpt lat="44.76818" lon="-0.24289">
        <ele>73</ele>
        <time>2017-05-23T09:57:03Z</time>
      </trkpt>
      <trkpt lat="44.7682" lon="-0.24295">
        <ele>78</ele>
        <time>2017-05-23T09:57:03Z</time>
      </trkpt>
      <trkpt lat="44.76821" lon="-0.24303">
        <ele>78</ele>
        <time>2017-05-23T09:57:03Z</time>
      </trkpt>
      <trkpt lat="44.76819" lon="-0.24319">
        <ele>78</ele>
        <time>2017-05-23T09:57:19Z</time>
      </trkpt>
      <trkpt lat="44.76819" lon="-0.24334">
        <ele>78</ele>
        <time>2017-05-23T09:57:35Z</time>
      </trkpt>
      <trkpt lat="44.76806" lon="-0.24349">
        <ele>78</ele>
        <time>2017-05-23T09:57:35Z</time>
      </trkpt>
      <trkpt lat="44.76799" lon="-0.24355">
        <ele>78</ele>
        <time>2017-05-23T09:57:51Z</time>
      </trkpt>
      <trkpt lat="44.7679" lon="-0.24367">
        <ele>80</ele>
        <time>2017-05-23T09:57:51Z</time>
      </trkpt>
      <trkpt lat="44.76786" lon="-0.24369">
        <ele>80</ele>
        <time>2017-05-23T09:58:07Z</time>
      </trkpt>
      <trkpt lat="44.76785" lon="-0.24376">
        <ele>80</ele>
        <time>2017-05-23T09:58:07Z</time>
      </trkpt>
      <trkpt lat="44.76779" lon="-0.24388">
        <ele>80</ele>
        <time>2017-05-23T09:58:07Z</time>
      </trkpt>
      <trkpt lat="44.76773" lon="-0.24392">
        <ele>80</ele>
        <time>2017-05-23T09:58:23Z</time>
      </trkpt>
      <trkpt lat="44.76771" lon="-0.24398">
        <ele>80</ele>
        <time>2017-05-23T09:58:23Z</time>
      </trkpt>
      <trkpt lat="44.76763" lon="-0.24413">
        <ele>80</ele>
        <time>2017-05-23T09:58:39Z</time>
      </trkpt>
      <trkpt lat="44.76757" lon="-0.24419">
        <ele>80</ele>
        <time>2017-05-23T09:58:39Z</time>
      </trkpt>
      <trkpt lat="44.7675" lon="-0.2442">
        <ele>80</ele>
        <time>2017-05-23T09:58:39Z</time>
      </trkpt>
      <trkpt lat="44.7674" lon="-0.24424">
        <ele>80</ele>
        <time>2017-05-23T09:59:03Z</time>
      </trkpt>
      <trkpt lat="44.76736" lon="-0.24428">
        <ele>80</ele>
        <time>2017-05-23T09:59:03Z</time>
      </trkpt>
      <trkpt lat="44.76733" lon="-0.24439">
        <ele>80</ele>
        <time>2017-05-23T09:59:19Z</time>
      </trkpt>
      <trkpt lat="44.76727" lon="-0.24445">
        <ele>80</ele>
        <time>2017-05-23T09:59:19Z</time>
      </trkpt>
      <trkpt lat="44.76723" lon="-0.24448">
        <ele>80</ele>
        <time>2017-05-23T09:59:19Z</time>
      </trkpt>
      <trkpt lat="44.76717" lon="-0.24455">
        <ele>80</ele>
        <time>2017-05-23T09:59:19Z</time>
      </trkpt>
      <trkpt lat="44.76702" lon="-0.24468">
        <ele>85</ele>
        <time>2017-05-23T09:59:35Z</time>
      </trkpt>
      <trkpt lat="44.76695" lon="-0.24478">
        <ele>85</ele>
        <time>2017-05-23T09:59:51Z</time>
      </trkpt>
      <trkpt lat="44.76684" lon="-0.2449">
        <ele>85</ele>
        <time>2017-05-23T09:59:51Z</time>
      </trkpt>
      <trkpt lat="44.76682" lon="-0.24498">
        <ele>85</ele>
        <time>2017-05-23T10:00:07Z</time>
      </trkpt>
      <trkpt lat="44.76679" lon="-0.24502">
        <ele>85</ele>
        <time>2017-05-23T10:00:07Z</time>
      </trkpt>
      <trkpt lat="44.76679" lon="-0.24516">
        <ele>85</ele>
        <time>2017-05-23T10:00:07Z</time>
      </trkpt>
      <trkpt lat="44.76682" lon="-0.24529">
        <ele>85</ele>
        <time>2017-05-23T10:00:23Z</time>
      </trkpt>
      <trkpt lat="44.76683" lon="-0.24536">
        <ele>85</ele>
        <time>2017-05-23T10:00:23Z</time>
      </trkpt>
      <trkpt lat="44.76679" lon="-0.24565">
        <ele>83</ele>
        <time>2017-05-23T10:00:39Z</time>
      </trkpt>
      <trkpt lat="44.76676" lon="-0.24571">
        <ele>83</ele>
        <time>2017-05-23T10:00:55Z</time>
      </trkpt>
      <trkpt lat="44.76675" lon="-0.24576">
        <ele>83</ele>
        <time>2017-05-23T10:00:55Z</time>
      </trkpt>
      <trkpt lat="44.76677" lon="-0.2459">
        <ele>83</ele>
        <time>2017-05-23T10:00:55Z</time>
      </trkpt>
      <trkpt lat="44.76675" lon="-0.24599">
        <ele>83</ele>
        <time>2017-05-23T10:01:27Z</time>
      </trkpt>
      <trkpt lat="44.76673" lon="-0.246">
        <ele>83</ele>
        <time>2017-05-23T10:01:27Z</time>
      </trkpt>
      <trkpt lat="44.76677" lon="-0.24604">
        <ele>83</ele>
        <time>2017-05-23T10:01:27Z</time>
      </trkpt>
      <trkpt lat="44.76674" lon="-0.24606">
        <ele>83</ele>
        <time>2017-05-23T10:01:27Z</time>
      </trkpt>
      <trkpt lat="44.76684" lon="-0.24623">
        <ele>83</ele>
        <time>2017-05-23T10:01:43Z</time>
      </trkpt>
      <trkpt lat="44.76686" lon="-0.2463">
        <ele>85</ele>
        <time>2017-05-23T10:01:43Z</time>
      </trkpt>
      <trkpt lat="44.76685" lon="-0.24634">
        <ele>85</ele>
        <time>2017-05-23T10:01:59Z</time>
      </trkpt>
      <trkpt lat="44.76689" lon="-0.24644">
        <ele>85</ele>
        <time>2017-05-23T10:01:59Z</time>
      </trkpt>
      <trkpt lat="44.76692" lon="-0.24649">
        <ele>85</ele>
        <time>2017-05-23T10:01:59Z</time>
      </trkpt>
      <trkpt lat="44.76693" lon="-0.24655">
        <ele>85</ele>
        <time>2017-05-23T10:01:59Z</time>
      </trkpt>
      <trkpt lat="44.76691" lon="-0.24658">
        <ele>85</ele>
        <time>2017-05-23T10:02:15Z</time>
      </trkpt>
      <trkpt lat="44.76696" lon="-0.24663">
        <ele>85</ele>
        <time>2017-05-23T10:02:15Z</time>
      </trkpt>
      <trkpt lat="44.76695" lon="-0.24668">
        <ele>85</ele>
        <time>2017-05-23T10:02:15Z</time>
      </trkpt>
      <trkpt lat="44.76689" lon="-0.24674">
        <ele>85</ele>
        <time>2017-05-23T10:02:15Z</time>
      </trkpt>
      <trkpt lat="44.7669" lon="-0.24679">
        <ele>85</ele>
        <time>2017-05-23T10:02:39Z</time>
      </trkpt>
      <trkpt lat="44.76691" lon="-0.24679">
        <ele>85</ele>
        <time>2017-05-23T10:02:39Z</time>
      </trkpt>
      <trkpt lat="44.76689" lon="-0.24686">
        <ele>85</ele>
        <time>2017-05-23T10:02:39Z</time>
      </trkpt>
      <trkpt lat="44.76697" lon="-0.24698">
        <ele>85</ele>
        <time>2017-05-23T10:02:55Z</time>
      </trkpt>
      <trkpt lat="44.76694" lon="-0.24701">
        <ele>85</ele>
        <time>2017-05-23T10:02:55Z</time>
      </trkpt>
      <trkpt lat="44.76699" lon="-0.24706">
        <ele>85</ele>
        <time>2017-05-23T10:02:55Z</time>
      </trkpt>
      <trkpt lat="44.76694" lon="-0.2471">
        <ele>84</ele>
        <time>2017-05-23T10:02:55Z</time>
      </trkpt>
      <trkpt lat="44.76691" lon="-0.24716">
        <ele>84</ele>
        <time>2017-05-23T10:03:11Z</time>
      </trkpt>
      <trkpt lat="44.76684" lon="-0.24725">
        <ele>84</ele>
        <time>2017-05-23T10:03:11Z</time>
      </trkpt>
      <trkpt lat="44.76681" lon="-0.2473">
        <ele>84</ele>
        <time>2017-05-23T10:03:11Z</time>
      </trkpt>
      <trkpt lat="44.76695" lon="-0.2475">
        <ele>84</ele>
        <time>2017-05-23T10:03:43Z</time>
      </trkpt>
      <trkpt lat="44.76688" lon="-0.24761">
        <ele>84</ele>
        <time>2017-05-23T10:03:43Z</time>
      </trkpt>
      <trkpt lat="44.76688" lon="-0.24766">
        <ele>84</ele>
        <time>2017-05-23T10:03:43Z</time>
      </trkpt>
      <trkpt lat="44.76682" lon="-0.2477">
        <ele>84</ele>
        <time>2017-05-23T10:03:43Z</time>
      </trkpt>
      <trkpt lat="44.76676" lon="-0.24776">
        <ele>84</ele>
        <time>2017-05-23T10:03:43Z</time>
      </trkpt>
      <trkpt lat="44.76658" lon="-0.2479">
        <ele>84</ele>
        <time>2017-05-23T10:03:59Z</time>
      </trkpt>
      <trkpt lat="44.76656" lon="-0.24806">
        <ele>83</ele>
        <time>2017-05-23T10:03:59Z</time>
      </trkpt>
      <trkpt lat="44.76653" lon="-0.24816">
        <ele>83</ele>
        <time>2017-05-23T10:04:15Z</time>
      </trkpt>
      <trkpt lat="44.76655" lon="-0.2482">
        <ele>83</ele>
        <time>2017-05-23T10:04:15Z</time>
      </trkpt>
      <trkpt lat="44.76655" lon="-0.24825">
        <ele>83</ele>
        <time>2017-05-23T10:04:15Z</time>
      </trkpt>
      <trkpt lat="44.7665" lon="-0.24831">
        <ele>83</ele>
        <time>2017-05-23T10:04:31Z</time>
      </trkpt>
      <trkpt lat="44.76643" lon="-0.24839">
        <ele>83</ele>
        <time>2017-05-23T10:04:31Z</time>
      </trkpt>
      <trkpt lat="44.7664" lon="-0.24844">
        <ele>83</ele>
        <time>2017-05-23T10:04:31Z</time>
      </trkpt>
      <trkpt lat="44.76639" lon="-0.24849">
        <ele>83</ele>
        <time>2017-05-23T10:04:47Z</time>
      </trkpt>
      <trkpt lat="44.76639" lon="-0.24855">
        <ele>83</ele>
        <time>2017-05-23T10:04:47Z</time>
      </trkpt>
      <trkpt lat="44.76637" lon="-0.24859">
        <ele>83</ele>
        <time>2017-05-23T10:04:47Z</time>
      </trkpt>
      <trkpt lat="44.76635" lon="-0.24868">
        <ele>83</ele>
        <time>2017-05-23T10:05:03Z</time>
      </trkpt>
      <trkpt lat="44.76638" lon="-0.2487">
        <ele>83</ele>
        <time>2017-05-23T10:05:03Z</time>
      </trkpt>
      <trkpt lat="44.7664" lon="-0.24874">
        <ele>83</ele>
        <time>2017-05-23T10:05:03Z</time>
      </trkpt>
      <trkpt lat="44.76643" lon="-0.24882">
        <ele>82</ele>
        <time>2017-05-23T10:05:03Z</time>
      </trkpt>
      <trkpt lat="44.76639" lon="-0.24886">
        <ele>82</ele>
        <time>2017-05-23T10:05:19Z</time>
      </trkpt>
      <trkpt lat="44.76625" lon="-0.24895">
        <ele>91</ele>
        <time>2017-05-23T10:05:19Z</time>
      </trkpt>
      <trkpt lat="44.76603" lon="-0.24913">
        <ele>91</ele>
        <time>2017-05-23T10:05:19Z</time>
      </trkpt>
      <trkpt lat="44.76598" lon="-0.24921">
        <ele>91</ele>
        <time>2017-05-23T10:05:35Z</time>
      </trkpt>
      <trkpt lat="44.766" lon="-0.24928">
        <ele>91</ele>
        <time>2017-05-23T10:05:35Z</time>
      </trkpt>
      <trkpt lat="44.76599" lon="-0.24934">
        <ele>91</ele>
        <time>2017-05-23T10:05:35Z</time>
      </trkpt>
      <trkpt lat="44.76594" lon="-0.24943">
        <ele>91</ele>
        <time>2017-05-23T10:05:35Z</time>
      </trkpt>
      <trkpt lat="44.7658" lon="-0.24961">
        <ele>88</ele>
        <time>2017-05-23T10:06:15Z</time>
      </trkpt>
      <trkpt lat="44.76578" lon="-0.24968">
        <ele>88</ele>
        <time>2017-05-23T10:06:15Z</time>
      </trkpt>
      <trkpt lat="44.7658" lon="-0.24973">
        <ele>88</ele>
        <time>2017-05-23T10:06:15Z</time>
      </trkpt>
      <trkpt lat="44.76578" lon="-0.24975">
        <ele>88</ele>
        <time>2017-05-23T10:06:15Z</time>
      </trkpt>
      <trkpt lat="44.76582" lon="-0.24983">
        <ele>88</ele>
        <time>2017-05-23T10:07:03Z</time>
      </trkpt>
      <trkpt lat="44.76586" lon="-0.24982">
        <ele>88</ele>
        <time>2017-05-23T10:07:03Z</time>
      </trkpt>
      <trkpt lat="44.76593" lon="-0.24985">
        <ele>88</ele>
        <time>2017-05-23T10:07:03Z</time>
      </trkpt>
      <trkpt lat="44.76598" lon="-0.24993">
        <ele>88</ele>
        <time>2017-05-23T10:07:19Z</time>
      </trkpt>
      <trkpt lat="44.76617" lon="-0.24997">
        <ele>88</ele>
        <time>2017-05-23T10:07:19Z</time>
      </trkpt>
      <trkpt lat="44.76626" lon="-0.25002">
        <ele>81</ele>
        <time>2017-05-23T10:07:19Z</time>
      </trkpt>
      <trkpt lat="44.76639" lon="-0.25015">
        <ele>81</ele>
        <time>2017-05-23T10:07:35Z</time>
      </trkpt>
      <trkpt lat="44.76642" lon="-0.25021">
        <ele>81</ele>
        <time>2017-05-23T10:07:35Z</time>
      </trkpt>
      <trkpt lat="44.76643" lon="-0.25026">
        <ele>81</ele>
        <time>2017-05-23T10:07:35Z</time>
      </trkpt>
      <trkpt lat="44.7665" lon="-0.25038">
        <ele>81</ele>
        <time>2017-05-23T10:07:35Z</time>
      </trkpt>
      <trkpt lat="44.76655" lon="-0.25052">
        <ele>82</ele>
        <time>2017-05-23T10:07:51Z</time>
      </trkpt>
      <trkpt lat="44.76661" lon="-0.25058">
        <ele>82</ele>
        <time>2017-05-23T10:07:51Z</time>
      </trkpt>
      <trkpt lat="44.76669" lon="-0.25075">
        <ele>82</ele>
        <time>2017-05-23T10:08:07Z</time>
      </trkpt>
      <trkpt lat="44.76677" lon="-0.25081">
        <ele>82</ele>
        <time>2017-05-23T10:08:07Z</time>
      </trkpt>
      <trkpt lat="44.76684" lon="-0.25089">
        <ele>82</ele>
        <time>2017-05-23T10:08:23Z</time>
      </trkpt>
      <trkpt lat="44.76686" lon="-0.25097">
        <ele>82</ele>
        <time>2017-05-23T10:08:23Z</time>
      </trkpt>
      <trkpt lat="44.76697" lon="-0.25122">
        <ele>82</ele>
        <time>2017-05-23T10:08:39Z</time>
      </trkpt>
      <trkpt lat="44.76703" lon="-0.25133">
        <ele>81</ele>
        <time>2017-05-23T10:08:39Z</time>
      </trkpt>
      <trkpt lat="44.76705" lon="-0.25138">
        <ele>81</ele>
        <time>2017-05-23T10:08:55Z</time>
      </trkpt>
      <trkpt lat="44.76714" lon="-0.25155">
        <ele>78</ele>
        <time>2017-05-23T10:09:11Z</time>
      </trkpt>
      <trkpt lat="44.76727" lon="-0.2517">
        <ele>78</ele>
        <time>2017-05-23T10:09:11Z</time>
      </trkpt>
      <trkpt lat="44.7673" lon="-0.25175">
        <ele>78</ele>
        <time>2017-05-23T10:09:27Z</time>
      </trkpt>
      <trkpt lat="44.76731" lon="-0.25181">
        <ele>78</ele>
        <time>2017-05-23T10:09:27Z</time>
      </trkpt>
      <trkpt lat="44.76734" lon="-0.25183">
        <ele>78</ele>
        <time>2017-05-23T10:09:27Z</time>
      </trkpt>
      <trkpt lat="44.76742" lon="-0.25195">
        <ele>78</ele>
        <time>2017-05-23T10:09:47Z</time>
      </trkpt>
      <trkpt lat="44.76745" lon="-0.25196">
        <ele>78</ele>
        <time>2017-05-23T10:09:47Z</time>
      </trkpt>
      <trkpt lat="44.76745" lon="-0.25199">
        <ele>78</ele>
        <time>2017-05-23T10:09:47Z</time>
      </trkpt>
      <trkpt lat="44.76742" lon="-0.25202">
        <ele>78</ele>
        <time>2017-05-23T10:09:47Z</time>
      </trkpt>
      <trkpt lat="44.76739" lon="-0.25208">
        <ele>78</ele>
        <time>2017-05-23T10:09:47Z</time>
      </trkpt>
      <trkpt lat="44.76744" lon="-0.2521">
        <ele>75</ele>
        <time>2017-05-23T10:10:03Z</time>
      </trkpt>
      <trkpt lat="44.76749" lon="-0.25216">
        <ele>75</ele>
        <time>2017-05-23T10:10:03Z</time>
      </trkpt>
      <trkpt lat="44.76754" lon="-0.25219">
        <ele>75</ele>
        <time>2017-05-23T10:10:03Z</time>
      </trkpt>
      <trkpt lat="44.76764" lon="-0.25223">
        <ele>75</ele>
        <time>2017-05-23T10:10:19Z</time>
      </trkpt>
      <trkpt lat="44.76769" lon="-0.25229">
        <ele>75</ele>
        <time>2017-05-23T10:10:19Z</time>
      </trkpt>
      <trkpt lat="44.76788" lon="-0.25264">
        <ele>75</ele>
        <time>2017-05-23T10:10:35Z</time>
      </trkpt>
      <trkpt lat="44.76803" lon="-0.25283">
        <ele>71</ele>
        <time>2017-05-23T10:10:51Z</time>
      </trkpt>
      <trkpt lat="44.76806" lon="-0.25289">
        <ele>71</ele>
        <time>2017-05-23T10:10:51Z</time>
      </trkpt>
      <trkpt lat="44.76815" lon="-0.25299">
        <ele>72</ele>
        <time>2017-05-23T10:11:07Z</time>
      </trkpt>
      <trkpt lat="44.76818" lon="-0.25304">
        <ele>72</ele>
        <time>2017-05-23T10:11:07Z</time>
      </trkpt>
      <trkpt lat="44.76829" lon="-0.2532">
        <ele>72</ele>
        <time>2017-05-23T10:11:23Z</time>
      </trkpt>
      <trkpt lat="44.76833" lon="-0.25326">
        <ele>72</ele>
        <time>2017-05-23T10:11:23Z</time>
      </trkpt>
      <trkpt lat="44.76836" lon="-0.25334">
        <ele>72</ele>
        <time>2017-05-23T10:11:23Z</time>
      </trkpt>
      <trkpt lat="44.7685" lon="-0.25357">
        <ele>72</ele>
        <time>2017-05-23T10:11:39Z</time>
      </trkpt>
      <trkpt lat="44.76865" lon="-0.25378">
        <ele>75</ele>
        <time>2017-05-23T10:11:55Z</time>
      </trkpt>
      <trkpt lat="44.76873" lon="-0.25385">
        <ele>75</ele>
        <time>2017-05-23T10:12:11Z</time>
      </trkpt>
      <trkpt lat="44.7688" lon="-0.25398">
        <ele>72</ele>
        <time>2017-05-23T10:12:11Z</time>
      </trkpt>
      <trkpt lat="44.76889" lon="-0.25419">
        <ele>72</ele>
        <time>2017-05-23T10:12:27Z</time>
      </trkpt>
      <trkpt lat="44.76898" lon="-0.25436">
        <ele>72</ele>
        <time>2017-05-23T10:12:43Z</time>
      </trkpt>
      <trkpt lat="44.76901" lon="-0.25447">
        <ele>72</ele>
        <time>2017-05-23T10:12:43Z</time>
      </trkpt>
      <trkpt lat="44.76901" lon="-0.2546">
        <ele>73</ele>
        <time>2017-05-23T10:12:43Z</time>
      </trkpt>
      <trkpt lat="44.76902" lon="-0.25464">
        <ele>73</ele>
        <time>2017-05-23T10:12:43Z</time>
      </trkpt>
      <trkpt lat="44.76902" lon="-0.25466">
        <ele>73</ele>
        <time>2017-05-23T10:12:59Z</time>
      </trkpt>
      <trkpt lat="44.769" lon="-0.25466">
        <ele>73</ele>
        <time>2017-05-23T10:12:59Z</time>
      </trkpt>
      <trkpt lat="44.76895" lon="-0.25469">
        <ele>73</ele>
        <time>2017-05-23T10:12:59Z</time>
      </trkpt>
      <trkpt lat="44.76878" lon="-0.25485">
        <ele>73</ele>
        <time>2017-05-23T10:13:15Z</time>
      </trkpt>
      <trkpt lat="44.76876" lon="-0.25489">
        <ele>73</ele>
        <time>2017-05-23T10:13:15Z</time>
      </trkpt>
      <trkpt lat="44.76876" lon="-0.255">
        <ele>73</ele>
        <time>2017-05-23T10:13:15Z</time>
      </trkpt>
      <trkpt lat="44.76882" lon="-0.25512">
        <ele>73</ele>
        <time>2017-05-23T10:13:43Z</time>
      </trkpt>
      <trkpt lat="44.76894" lon="-0.25518">
        <ele>73</ele>
        <time>2017-05-23T10:13:43Z</time>
      </trkpt>
      <trkpt lat="44.76897" lon="-0.25522">
        <ele>73</ele>
        <time>2017-05-23T10:13:43Z</time>
      </trkpt>
      <trkpt lat="44.76902" lon="-0.25526">
        <ele>73</ele>
        <time>2017-05-23T10:13:43Z</time>
      </trkpt>
      <trkpt lat="44.76911" lon="-0.25523">
        <ele>73</ele>
        <time>2017-05-23T10:14:19Z</time>
      </trkpt>
      <trkpt lat="44.76904" lon="-0.25512">
        <ele>73</ele>
        <time>2017-05-23T10:14:19Z</time>
      </trkpt>
      <trkpt lat="44.76902" lon="-0.2551">
        <ele>73</ele>
        <time>2017-05-23T10:14:35Z</time>
      </trkpt>
      <trkpt lat="44.76905" lon="-0.25514">
        <ele>73</ele>
        <time>2017-05-23T10:14:35Z</time>
      </trkpt>
      <trkpt lat="44.76902" lon="-0.25523">
        <ele>73</ele>
        <time>2017-05-23T10:14:35Z</time>
      </trkpt>
      <trkpt lat="44.76906" lon="-0.25526">
        <ele>73</ele>
        <time>2017-05-23T10:14:55Z</time>
      </trkpt>
      <trkpt lat="44.76911" lon="-0.2554">
        <ele>73</ele>
        <time>2017-05-23T10:15:19Z</time>
      </trkpt>
      <trkpt lat="44.76911" lon="-0.25547">
        <ele>73</ele>
        <time>2017-05-23T10:15:19Z</time>
      </trkpt>
      <trkpt lat="44.76911" lon="-0.25548">
        <ele>73</ele>
        <time>2017-05-23T10:15:19Z</time>
      </trkpt>
      <trkpt lat="44.76913" lon="-0.25562">
        <ele>73</ele>
        <time>2017-05-23T10:15:19Z</time>
      </trkpt>
      <trkpt lat="44.76912" lon="-0.2558">
        <ele>73</ele>
        <time>2017-05-23T10:15:35Z</time>
      </trkpt>
      <trkpt lat="44.76914" lon="-0.25588">
        <ele>73</ele>
        <time>2017-05-23T10:15:35Z</time>
      </trkpt>
      <trkpt lat="44.76914" lon="-0.25596">
        <ele>73</ele>
        <time>2017-05-23T10:15:51Z</time>
      </trkpt>
      <trkpt lat="44.76913" lon="-0.25598">
        <ele>73</ele>
        <time>2017-05-23T10:15:51Z</time>
      </trkpt>
      <trkpt lat="44.76916" lon="-0.25605">
        <ele>73</ele>
        <time>2017-05-23T10:15:51Z</time>
      </trkpt>
      <trkpt lat="44.76918" lon="-0.25617">
        <ele>73</ele>
        <time>2017-05-23T10:15:51Z</time>
      </trkpt>
      <trkpt lat="44.7692" lon="-0.25625">
        <ele>72</ele>
        <time>2017-05-23T10:16:15Z</time>
      </trkpt>
      <trkpt lat="44.7692" lon="-0.25629">
        <ele>72</ele>
        <time>2017-05-23T10:16:15Z</time>
      </trkpt>
      <trkpt lat="44.76921" lon="-0.25632">
        <ele>72</ele>
        <time>2017-05-23T10:16:15Z</time>
      </trkpt>
      <trkpt lat="44.7692" lon="-0.25635">
        <ele>72</ele>
        <time>2017-05-23T10:16:15Z</time>
      </trkpt>
      <trkpt lat="44.76921" lon="-0.25649">
        <ele>72</ele>
        <time>2017-05-23T10:16:31Z</time>
      </trkpt>
      <trkpt lat="44.7692" lon="-0.25655">
        <ele>72</ele>
        <time>2017-05-23T10:16:31Z</time>
      </trkpt>
      <trkpt lat="44.76917" lon="-0.2567">
        <ele>72</ele>
        <time>2017-05-23T10:16:31Z</time>
      </trkpt>
      <trkpt lat="44.76917" lon="-0.25683">
        <ele>72</ele>
        <time>2017-05-23T10:16:47Z</time>
      </trkpt>
      <trkpt lat="44.76914" lon="-0.25697">
        <ele>72</ele>
        <time>2017-05-23T10:16:47Z</time>
      </trkpt>
      <trkpt lat="44.76914" lon="-0.25704">
        <ele>72</ele>
        <time>2017-05-23T10:16:47Z</time>
      </trkpt>
      <trkpt lat="44.76911" lon="-0.25724">
        <ele>72</ele>
        <time>2017-05-23T10:17:03Z</time>
      </trkpt>
      <trkpt lat="44.76912" lon="-0.25728">
        <ele>72</ele>
        <time>2017-05-23T10:17:03Z</time>
      </trkpt>
      <trkpt lat="44.76908" lon="-0.25741">
        <ele>72</ele>
        <time>2017-05-23T10:17:19Z</time>
      </trkpt>
      <trkpt lat="44.76905" lon="-0.25762">
        <ele>72</ele>
        <time>2017-05-23T10:17:35Z</time>
      </trkpt>
      <trkpt lat="44.76901" lon="-0.25776">
        <ele>72</ele>
        <time>2017-05-23T10:17:35Z</time>
      </trkpt>
      <trkpt lat="44.76897" lon="-0.25804">
        <ele>69</ele>
        <time>2017-05-23T10:17:51Z</time>
      </trkpt>
      <trkpt lat="44.76894" lon="-0.25816">
        <ele>69</ele>
        <time>2017-05-23T10:18:07Z</time>
      </trkpt>
      <trkpt lat="44.76893" lon="-0.25834">
        <ele>69</ele>
        <time>2017-05-23T10:18:07Z</time>
      </trkpt>
      <trkpt lat="44.76891" lon="-0.25838">
        <ele>69</ele>
        <time>2017-05-23T10:18:07Z</time>
      </trkpt>
      <trkpt lat="44.76888" lon="-0.25864">
        <ele>69</ele>
        <time>2017-05-23T10:18:23Z</time>
      </trkpt>
      <trkpt lat="44.76885" lon="-0.25874">
        <ele>69</ele>
        <time>2017-05-23T10:18:39Z</time>
      </trkpt>
      <trkpt lat="44.76885" lon="-0.25881">
        <ele>67</ele>
        <time>2017-05-23T10:18:39Z</time>
      </trkpt>
      <trkpt lat="44.76882" lon="-0.25893">
        <ele>67</ele>
        <time>2017-05-23T10:18:39Z</time>
      </trkpt>
      <trkpt lat="44.76882" lon="-0.25898">
        <ele>67</ele>
        <time>2017-05-23T10:18:55Z</time>
      </trkpt>
      <trkpt lat="44.76878" lon="-0.25923">
        <ele>67</ele>
        <time>2017-05-23T10:19:11Z</time>
      </trkpt>
      <trkpt lat="44.76879" lon="-0.25928">
        <ele>67</ele>
        <time>2017-05-23T10:19:11Z</time>
      </trkpt>
      <trkpt lat="44.76875" lon="-0.25944">
        <ele>68</ele>
        <time>2017-05-23T10:19:11Z</time>
      </trkpt>
      <trkpt lat="44.76871" lon="-0.25952">
        <ele>68</ele>
        <time>2017-05-23T10:19:27Z</time>
      </trkpt>
      <trkpt lat="44.76871" lon="-0.25969">
        <ele>66</ele>
        <time>2017-05-23T10:19:27Z</time>
      </trkpt>
      <trkpt lat="44.76873" lon="-0.25993">
        <ele>66</ele>
        <time>2017-05-23T10:19:43Z</time>
      </trkpt>
      <trkpt lat="44.76869" lon="-0.26008">
        <ele>66</ele>
        <time>2017-05-23T10:19:43Z</time>
      </trkpt>
      <trkpt lat="44.76869" lon="-0.26012">
        <ele>66</ele>
        <time>2017-05-23T10:19:59Z</time>
      </trkpt>
      <trkpt lat="44.76864" lon="-0.26027">
        <ele>66</ele>
        <time>2017-05-23T10:19:59Z</time>
      </trkpt>
      <trkpt lat="44.76853" lon="-0.26055">
        <ele>63</ele>
        <time>2017-05-23T10:20:15Z</time>
      </trkpt>
      <trkpt lat="44.7685" lon="-0.2606">
        <ele>63</ele>
        <time>2017-05-23T10:20:15Z</time>
      </trkpt>
      <trkpt lat="44.76846" lon="-0.26072">
        <ele>63</ele>
        <time>2017-05-23T10:20:31Z</time>
      </trkpt>
      <trkpt lat="44.76846" lon="-0.2608">
        <ele>63</ele>
        <time>2017-05-23T10:20:31Z</time>
      </trkpt>
      <trkpt lat="44.76844" lon="-0.26091">
        <ele>63</ele>
        <time>2017-05-23T10:20:31Z</time>
      </trkpt>
      <trkpt lat="44.76843" lon="-0.26108">
        <ele>63</ele>
        <time>2017-05-23T10:20:47Z</time>
      </trkpt>
      <trkpt lat="44.76844" lon="-0.2612">
        <ele>63</ele>
        <time>2017-05-23T10:20:47Z</time>
      </trkpt>
      <trkpt lat="44.76846" lon="-0.26127">
        <ele>62</ele>
        <time>2017-05-23T10:21:03Z</time>
      </trkpt>
      <trkpt lat="44.76844" lon="-0.26141">
        <ele>62</ele>
        <time>2017-05-23T10:21:03Z</time>
      </trkpt>
      <trkpt lat="44.76845" lon="-0.26147">
        <ele>62</ele>
        <time>2017-05-23T10:21:19Z</time>
      </trkpt>
      <trkpt lat="44.76844" lon="-0.26156">
        <ele>62</ele>
        <time>2017-05-23T10:21:19Z</time>
      </trkpt>
      <trkpt lat="44.76841" lon="-0.26162">
        <ele>62</ele>
        <time>2017-05-23T10:21:19Z</time>
      </trkpt>
      <trkpt lat="44.76838" lon="-0.26177">
        <ele>62</ele>
        <time>2017-05-23T10:21:35Z</time>
      </trkpt>
      <trkpt lat="44.76835" lon="-0.26183">
        <ele>62</ele>
        <time>2017-05-23T10:21:35Z</time>
      </trkpt>
      <trkpt lat="44.76836" lon="-0.26191">
        <ele>62</ele>
        <time>2017-05-23T10:21:35Z</time>
      </trkpt>
      <trkpt lat="44.76835" lon="-0.26199">
        <ele>62</ele>
        <time>2017-05-23T10:21:35Z</time>
      </trkpt>
      <trkpt lat="44.76833" lon="-0.26204">
        <ele>62</ele>
        <time>2017-05-23T10:21:51Z</time>
      </trkpt>
      <trkpt lat="44.76831" lon="-0.26223">
        <ele>64</ele>
        <time>2017-05-23T10:21:51Z</time>
      </trkpt>
      <trkpt lat="44.7683" lon="-0.26225">
        <ele>64</ele>
        <time>2017-05-23T10:22:07Z</time>
      </trkpt>
      <trkpt lat="44.76828" lon="-0.2623">
        <ele>64</ele>
        <time>2017-05-23T10:22:07Z</time>
      </trkpt>
      <trkpt lat="44.76827" lon="-0.26245">
        <ele>64</ele>
        <time>2017-05-23T10:22:23Z</time>
      </trkpt>
      <trkpt lat="44.76824" lon="-0.26258">
        <ele>64</ele>
        <time>2017-05-23T10:22:23Z</time>
      </trkpt>
      <trkpt lat="44.76821" lon="-0.26262">
        <ele>64</ele>
        <time>2017-05-23T10:22:23Z</time>
      </trkpt>
      <trkpt lat="44.76827" lon="-0.26283">
        <ele>64</ele>
        <time>2017-05-23T10:22:39Z</time>
      </trkpt>
      <trkpt lat="44.76828" lon="-0.263">
        <ele>70</ele>
        <time>2017-05-23T10:22:39Z</time>
      </trkpt>
      <trkpt lat="44.76826" lon="-0.26308">
        <ele>70</ele>
        <time>2017-05-23T10:22:39Z</time>
      </trkpt>
      <trkpt lat="44.76818" lon="-0.26312">
        <ele>70</ele>
        <time>2017-05-23T10:22:55Z</time>
      </trkpt>
      <trkpt lat="44.76812" lon="-0.26311">
        <ele>70</ele>
        <time>2017-05-23T10:22:55Z</time>
      </trkpt>
      <trkpt lat="44.76803" lon="-0.26313">
        <ele>70</ele>
        <time>2017-05-23T10:23:11Z</time>
      </trkpt>
      <trkpt lat="44.76793" lon="-0.26317">
        <ele>70</ele>
        <time>2017-05-23T10:23:11Z</time>
      </trkpt>
      <trkpt lat="44.76775" lon="-0.26312">
        <ele>70</ele>
        <time>2017-05-23T10:23:27Z</time>
      </trkpt>
      <trkpt lat="44.7677" lon="-0.26313">
        <ele>70</ele>
        <time>2017-05-23T10:23:27Z</time>
      </trkpt>
      <trkpt lat="44.7677" lon="-0.26314">
        <ele>70</ele>
        <time>2017-05-23T10:23:27Z</time>
      </trkpt>
      <trkpt lat="44.76768" lon="-0.26314">
        <ele>70</ele>
        <time>2017-05-23T10:23:43Z</time>
      </trkpt>
      <trkpt lat="44.76757" lon="-0.2631">
        <ele>70</ele>
        <time>2017-05-23T10:23:43Z</time>
      </trkpt>
      <trkpt lat="44.76752" lon="-0.26311">
        <ele>70</ele>
        <time>2017-05-23T10:24:03Z</time>
      </trkpt>
      <trkpt lat="44.76752" lon="-0.2631">
        <ele>70</ele>
        <time>2017-05-23T10:24:03Z</time>
      </trkpt>
      <trkpt lat="44.76744" lon="-0.26308">
        <ele>70</ele>
        <time>2017-05-23T10:24:03Z</time>
      </trkpt>
      <trkpt lat="44.76737" lon="-0.2631">
        <ele>70</ele>
        <time>2017-05-23T10:24:03Z</time>
      </trkpt>
      <trkpt lat="44.76729" lon="-0.26315">
        <ele>70</ele>
        <time>2017-05-23T10:24:19Z</time>
      </trkpt>
      <trkpt lat="44.76725" lon="-0.26314">
        <ele>70</ele>
        <time>2017-05-23T10:24:19Z</time>
      </trkpt>
      <trkpt lat="44.76718" lon="-0.26315">
        <ele>70</ele>
        <time>2017-05-23T10:24:19Z</time>
      </trkpt>
      <trkpt lat="44.7671" lon="-0.26311">
        <ele>70</ele>
        <time>2017-05-23T10:24:35Z</time>
      </trkpt>
      <trkpt lat="44.76694" lon="-0.26312">
        <ele>67</ele>
        <time>2017-05-23T10:24:51Z</time>
      </trkpt>
      <trkpt lat="44.7669" lon="-0.26314">
        <ele>67</ele>
        <time>2017-05-23T10:24:51Z</time>
      </trkpt>
      <trkpt lat="44.76681" lon="-0.26319">
        <ele>67</ele>
        <time>2017-05-23T10:25:11Z</time>
      </trkpt>
      <trkpt lat="44.76678" lon="-0.26319">
        <ele>67</ele>
        <time>2017-05-23T10:25:11Z</time>
      </trkpt>
      <trkpt lat="44.76674" lon="-0.26314">
        <ele>67</ele>
        <time>2017-05-23T10:25:11Z</time>
      </trkpt>
      <trkpt lat="44.76673" lon="-0.2631">
        <ele>67</ele>
        <time>2017-05-23T10:25:11Z</time>
      </trkpt>
      <trkpt lat="44.76665" lon="-0.26303">
        <ele>67</ele>
        <time>2017-05-23T10:25:47Z</time>
      </trkpt>
      <trkpt lat="44.76663" lon="-0.26304">
        <ele>67</ele>
        <time>2017-05-23T10:25:47Z</time>
      </trkpt>
      <trkpt lat="44.7666" lon="-0.26309">
        <ele>67</ele>
        <time>2017-05-23T10:25:47Z</time>
      </trkpt>
      <trkpt lat="44.76659" lon="-0.26304">
        <ele>67</ele>
        <time>2017-05-23T10:25:47Z</time>
      </trkpt>
      <trkpt lat="44.76656" lon="-0.26289">
        <ele>64</ele>
        <time>2017-05-23T10:26:27Z</time>
      </trkpt>
      <trkpt lat="44.76651" lon="-0.26293">
        <ele>67</ele>
        <time>2017-05-23T10:26:27Z</time>
      </trkpt>
      <trkpt lat="44.76649" lon="-0.26287">
        <ele>64</ele>
        <time>2017-05-23T10:26:43Z</time>
      </trkpt>
      <trkpt lat="44.7665" lon="-0.26282">
        <ele>64</ele>
        <time>2017-05-23T10:26:43Z</time>
      </trkpt>
      <trkpt lat="44.76648" lon="-0.2628">
        <ele>64</ele>
        <time>2017-05-23T10:26:43Z</time>
      </trkpt>
      <trkpt lat="44.76641" lon="-0.26281">
        <ele>64</ele>
        <time>2017-05-23T10:26:43Z</time>
      </trkpt>
      <trkpt lat="44.76632" lon="-0.26285">
        <ele>64</ele>
        <time>2017-05-23T10:26:59Z</time>
      </trkpt>
      <trkpt lat="44.76622" lon="-0.26288">
        <ele>65</ele>
        <time>2017-05-23T10:27:15Z</time>
      </trkpt>
      <trkpt lat="44.76616" lon="-0.26288">
        <ele>65</ele>
        <time>2017-05-23T10:27:15Z</time>
      </trkpt>
      <trkpt lat="44.76614" lon="-0.26275">
        <ele>65</ele>
        <time>2017-05-23T10:29:07Z</time>
      </trkpt>
      <trkpt lat="44.76611" lon="-0.26273">
        <ele>65</ele>
        <time>2017-05-23T10:29:07Z</time>
      </trkpt>
      <trkpt lat="44.76606" lon="-0.26273">
        <ele>65</ele>
        <time>2017-05-23T10:29:07Z</time>
      </trkpt>
      <trkpt lat="44.766" lon="-0.26274">
        <ele>65</ele>
        <time>2017-05-23T10:29:07Z</time>
      </trkpt>
      <trkpt lat="44.76591" lon="-0.26267">
        <ele>65</ele>
        <time>2017-05-23T10:29:23Z</time>
      </trkpt>
      <trkpt lat="44.7658" lon="-0.26261">
        <ele>65</ele>
        <time>2017-05-23T10:29:23Z</time>
      </trkpt>
      <trkpt lat="44.76574" lon="-0.26262">
        <ele>65</ele>
        <time>2017-05-23T10:29:39Z</time>
      </trkpt>
      <trkpt lat="44.76551" lon="-0.26262">
        <ele>65</ele>
        <time>2017-05-23T10:29:55Z</time>
      </trkpt>
      <trkpt lat="44.76542" lon="-0.26257">
        <ele>65</ele>
        <time>2017-05-23T10:29:55Z</time>
      </trkpt>
      <trkpt lat="44.76529" lon="-0.26257">
        <ele>66</ele>
        <time>2017-05-23T10:30:11Z</time>
      </trkpt>
      <trkpt lat="44.76523" lon="-0.26255">
        <ele>66</ele>
        <time>2017-05-23T10:30:11Z</time>
      </trkpt>
      <trkpt lat="44.76503" lon="-0.26255">
        <ele>66</ele>
        <time>2017-05-23T10:30:27Z</time>
      </trkpt>
      <trkpt lat="44.76494" lon="-0.26251">
        <ele>66</ele>
        <time>2017-05-23T10:30:43Z</time>
      </trkpt>
      <trkpt lat="44.7648" lon="-0.26249">
        <ele>66</ele>
        <time>2017-05-23T10:30:59Z</time>
      </trkpt>
      <trkpt lat="44.76474" lon="-0.26245">
        <ele>66</ele>
        <time>2017-05-23T10:30:59Z</time>
      </trkpt>
      <trkpt lat="44.7646" lon="-0.2624">
        <ele>66</ele>
        <time>2017-05-23T10:31:15Z</time>
      </trkpt>
      <trkpt lat="44.76445" lon="-0.2624">
        <ele>68</ele>
        <time>2017-05-23T10:31:15Z</time>
      </trkpt>
      <trkpt lat="44.76435" lon="-0.26245">
        <ele>68</ele>
        <time>2017-05-23T10:31:31Z</time>
      </trkpt>
      <trkpt lat="44.76396" lon="-0.26247">
        <ele>68</ele>
        <time>2017-05-23T10:32:03Z</time>
      </trkpt>
      <trkpt lat="44.76386" lon="-0.2625">
        <ele>68</ele>
        <time>2017-05-23T10:32:03Z</time>
      </trkpt>
      <trkpt lat="44.76382" lon="-0.2625">
        <ele>68</ele>
        <time>2017-05-23T10:32:19Z</time>
      </trkpt>
      <trkpt lat="44.76368" lon="-0.26245">
        <ele>68</ele>
        <time>2017-05-23T10:32:19Z</time>
      </trkpt>
      <trkpt lat="44.76354" lon="-0.26242">
        <ele>68</ele>
        <time>2017-05-23T10:32:35Z</time>
      </trkpt>
      <trkpt lat="44.76344" lon="-0.26245">
        <ele>68</ele>
        <time>2017-05-23T10:32:51Z</time>
      </trkpt>
      <trkpt lat="44.76339" lon="-0.26243">
        <ele>68</ele>
        <time>2017-05-23T10:32:51Z</time>
      </trkpt>
      <trkpt lat="44.7633" lon="-0.26232">
        <ele>68</ele>
        <time>2017-05-23T10:32:51Z</time>
      </trkpt>
      <trkpt lat="44.76321" lon="-0.26211">
        <ele>68</ele>
        <time>2017-05-23T10:33:07Z</time>
      </trkpt>
      <trkpt lat="44.7632" lon="-0.26198">
        <ele>69</ele>
        <time>2017-05-23T10:33:23Z</time>
      </trkpt>
      <trkpt lat="44.76317" lon="-0.26185">
        <ele>69</ele>
        <time>2017-05-23T10:33:23Z</time>
      </trkpt>
      <trkpt lat="44.76316" lon="-0.26184">
        <ele>69</ele>
        <time>2017-05-23T10:33:23Z</time>
      </trkpt>
      <trkpt lat="44.76315" lon="-0.26181">
        <ele>69</ele>
        <time>2017-05-23T10:33:59Z</time>
      </trkpt>
      <trkpt lat="44.76305" lon="-0.26184">
        <ele>69</ele>
        <time>2017-05-23T10:33:59Z</time>
      </trkpt>
      <trkpt lat="44.763" lon="-0.26187">
        <ele>69</ele>
        <time>2017-05-23T10:33:59Z</time>
      </trkpt>
      <trkpt lat="44.76294" lon="-0.26187">
        <ele>69</ele>
        <time>2017-05-23T10:33:59Z</time>
      </trkpt>
      <trkpt lat="44.76274" lon="-0.2619">
        <ele>70</ele>
        <time>2017-05-23T10:34:15Z</time>
      </trkpt>
      <trkpt lat="44.76245" lon="-0.26201">
        <ele>70</ele>
        <time>2017-05-23T10:34:51Z</time>
      </trkpt>
      <trkpt lat="44.76232" lon="-0.26201">
        <ele>70</ele>
        <time>2017-05-23T10:34:51Z</time>
      </trkpt>
      <trkpt lat="44.76226" lon="-0.26204">
        <ele>70</ele>
        <time>2017-05-23T10:35:07Z</time>
      </trkpt>
      <trkpt lat="44.76217" lon="-0.26205">
        <ele>70</ele>
        <time>2017-05-23T10:35:07Z</time>
      </trkpt>
      <trkpt lat="44.76211" lon="-0.26205">
        <ele>70</ele>
        <time>2017-05-23T10:35:07Z</time>
      </trkpt>
      <trkpt lat="44.76206" lon="-0.26206">
        <ele>72</ele>
        <time>2017-05-23T10:35:23Z</time>
      </trkpt>
      <trkpt lat="44.76203" lon="-0.26209">
        <ele>71</ele>
        <time>2017-05-23T10:35:23Z</time>
      </trkpt>
      <trkpt lat="44.76196" lon="-0.26205">
        <ele>72</ele>
        <time>2017-05-23T10:35:43Z</time>
      </trkpt>
      <trkpt lat="44.76193" lon="-0.26209">
        <ele>71</ele>
        <time>2017-05-23T10:35:43Z</time>
      </trkpt>
      <trkpt lat="44.76181" lon="-0.26215">
        <ele>71</ele>
        <time>2017-05-23T10:35:59Z</time>
      </trkpt>
      <trkpt lat="44.76166" lon="-0.26217">
        <ele>71</ele>
        <time>2017-05-23T10:35:59Z</time>
      </trkpt>
      <trkpt lat="44.76158" lon="-0.26222">
        <ele>71</ele>
        <time>2017-05-23T10:36:19Z</time>
      </trkpt>
      <trkpt lat="44.76154" lon="-0.26222">
        <ele>71</ele>
        <time>2017-05-23T10:36:19Z</time>
      </trkpt>
      <trkpt lat="44.76124" lon="-0.26229">
        <ele>76</ele>
        <time>2017-05-23T10:36:51Z</time>
      </trkpt>
      <trkpt lat="44.7612" lon="-0.26229">
        <ele>76</ele>
        <time>2017-05-23T10:36:51Z</time>
      </trkpt>
      <trkpt lat="44.76101" lon="-0.26237">
        <ele>76</ele>
        <time>2017-05-23T10:37:07Z</time>
      </trkpt>
      <trkpt lat="44.7609" lon="-0.26237">
        <ele>76</ele>
        <time>2017-05-23T10:37:07Z</time>
      </trkpt>
      <trkpt lat="44.76086" lon="-0.2624">
        <ele>76</ele>
        <time>2017-05-23T10:37:23Z</time>
      </trkpt>
      <trkpt lat="44.76081" lon="-0.2624">
        <ele>76</ele>
        <time>2017-05-23T10:37:23Z</time>
      </trkpt>
      <trkpt lat="44.76063" lon="-0.2625">
        <ele>76</ele>
        <time>2017-05-23T10:37:39Z</time>
      </trkpt>
      <trkpt lat="44.76055" lon="-0.26253">
        <ele>76</ele>
        <time>2017-05-23T10:37:39Z</time>
      </trkpt>
      <trkpt lat="44.76048" lon="-0.26255">
        <ele>76</ele>
        <time>2017-05-23T10:37:39Z</time>
      </trkpt>
      <trkpt lat="44.76032" lon="-0.26263">
        <ele>76</ele>
        <time>2017-05-23T10:37:55Z</time>
      </trkpt>
      <trkpt lat="44.76016" lon="-0.26266">
        <ele>76</ele>
        <time>2017-05-23T10:38:11Z</time>
      </trkpt>
      <trkpt lat="44.76011" lon="-0.26269">
        <ele>76</ele>
        <time>2017-05-23T10:38:11Z</time>
      </trkpt>
      <trkpt lat="44.75999" lon="-0.26271">
        <ele>76</ele>
        <time>2017-05-23T10:38:11Z</time>
      </trkpt>
      <trkpt lat="44.75995" lon="-0.26275">
        <ele>76</ele>
        <time>2017-05-23T10:38:27Z</time>
      </trkpt>
      <trkpt lat="44.75964" lon="-0.26286">
        <ele>76</ele>
        <time>2017-05-23T10:38:43Z</time>
      </trkpt>
      <trkpt lat="44.75954" lon="-0.26289">
        <ele>83</ele>
        <time>2017-05-23T10:38:59Z</time>
      </trkpt>
      <trkpt lat="44.75948" lon="-0.26289">
        <ele>83</ele>
        <time>2017-05-23T10:38:59Z</time>
      </trkpt>
      <trkpt lat="44.75943" lon="-0.26287">
        <ele>83</ele>
        <time>2017-05-23T10:38:59Z</time>
      </trkpt>
      <trkpt lat="44.75918" lon="-0.26293">
        <ele>77</ele>
        <time>2017-05-23T10:39:15Z</time>
      </trkpt>
      <trkpt lat="44.75904" lon="-0.26294">
        <ele>77</ele>
        <time>2017-05-23T10:39:31Z</time>
      </trkpt>
      <trkpt lat="44.75894" lon="-0.26298">
        <ele>77</ele>
        <time>2017-05-23T10:39:47Z</time>
      </trkpt>
      <trkpt lat="44.7589" lon="-0.26302">
        <ele>77</ele>
        <time>2017-05-23T10:39:47Z</time>
      </trkpt>
      <trkpt lat="44.7588" lon="-0.26306">
        <ele>77</ele>
        <time>2017-05-23T10:39:47Z</time>
      </trkpt>
      <trkpt lat="44.75858" lon="-0.26311">
        <ele>85</ele>
        <time>2017-05-23T10:40:19Z</time>
      </trkpt>
      <trkpt lat="44.75846" lon="-0.26315">
        <ele>85</ele>
        <time>2017-05-23T10:40:19Z</time>
      </trkpt>
      <trkpt lat="44.75844" lon="-0.26314">
        <ele>85</ele>
        <time>2017-05-23T10:40:35Z</time>
      </trkpt>
      <trkpt lat="44.75804" lon="-0.26326">
        <ele>85</ele>
        <time>2017-05-23T10:41:07Z</time>
      </trkpt>
      <trkpt lat="44.75789" lon="-0.26335">
        <ele>89</ele>
        <time>2017-05-23T10:41:07Z</time>
      </trkpt>
      <trkpt lat="44.75781" lon="-0.26337">
        <ele>89</ele>
        <time>2017-05-23T10:41:23Z</time>
      </trkpt>
      <trkpt lat="44.75776" lon="-0.26343">
        <ele>89</ele>
        <time>2017-05-23T10:41:23Z</time>
      </trkpt>
      <trkpt lat="44.75775" lon="-0.26347">
        <ele>89</ele>
        <time>2017-05-23T10:41:39Z</time>
      </trkpt>
      <trkpt lat="44.75772" lon="-0.2635">
        <ele>89</ele>
        <time>2017-05-23T10:41:39Z</time>
      </trkpt>
      <trkpt lat="44.75767" lon="-0.26354">
        <ele>89</ele>
        <time>2017-05-23T10:41:39Z</time>
      </trkpt>
      <trkpt lat="44.75763" lon="-0.2636">
        <ele>89</ele>
        <time>2017-05-23T10:41:55Z</time>
      </trkpt>
      <trkpt lat="44.75752" lon="-0.26364">
        <ele>89</ele>
        <time>2017-05-23T10:41:55Z</time>
      </trkpt>
      <trkpt lat="44.75743" lon="-0.26372">
        <ele>89</ele>
        <time>2017-05-23T10:42:11Z</time>
      </trkpt>
      <trkpt lat="44.75737" lon="-0.26374">
        <ele>89</ele>
        <time>2017-05-23T10:42:11Z</time>
      </trkpt>
      <trkpt lat="44.75735" lon="-0.26384">
        <ele>82</ele>
        <time>2017-05-23T10:42:27Z</time>
      </trkpt>
      <trkpt lat="44.75732" lon="-0.2639">
        <ele>82</ele>
        <time>2017-05-23T10:42:27Z</time>
      </trkpt>
      <trkpt lat="44.75718" lon="-0.26396">
        <ele>82</ele>
        <time>2017-05-23T10:42:27Z</time>
      </trkpt>
      <trkpt lat="44.75715" lon="-0.26399">
        <ele>82</ele>
        <time>2017-05-23T10:42:27Z</time>
      </trkpt>
      <trkpt lat="44.75714" lon="-0.26404">
        <ele>82</ele>
        <time>2017-05-23T10:42:43Z</time>
      </trkpt>
      <trkpt lat="44.75717" lon="-0.26411">
        <ele>82</ele>
        <time>2017-05-23T10:42:43Z</time>
      </trkpt>
      <trkpt lat="44.75716" lon="-0.26417">
        <ele>82</ele>
        <time>2017-05-23T10:42:43Z</time>
      </trkpt>
      <trkpt lat="44.75716" lon="-0.2642">
        <ele>82</ele>
        <time>2017-05-23T10:42:59Z</time>
      </trkpt>
      <trkpt lat="44.75712" lon="-0.26425">
        <ele>82</ele>
        <time>2017-05-23T10:42:59Z</time>
      </trkpt>
      <trkpt lat="44.75709" lon="-0.26425">
        <ele>82</ele>
        <time>2017-05-23T10:42:59Z</time>
      </trkpt>
      <trkpt lat="44.75704" lon="-0.26429">
        <ele>84</ele>
        <time>2017-05-23T10:42:59Z</time>
      </trkpt>
      <trkpt lat="44.75702" lon="-0.26434">
        <ele>84</ele>
        <time>2017-05-23T10:43:15Z</time>
      </trkpt>
      <trkpt lat="44.75698" lon="-0.26437">
        <ele>84</ele>
        <time>2017-05-23T10:43:15Z</time>
      </trkpt>
      <trkpt lat="44.75694" lon="-0.2644">
        <ele>84</ele>
        <time>2017-05-23T10:43:15Z</time>
      </trkpt>
      <trkpt lat="44.7569" lon="-0.26448">
        <ele>84</ele>
        <time>2017-05-23T10:43:15Z</time>
      </trkpt>
      <trkpt lat="44.75689" lon="-0.26454">
        <ele>84</ele>
        <time>2017-05-23T10:43:31Z</time>
      </trkpt>
      <trkpt lat="44.75686" lon="-0.2646">
        <ele>89</ele>
        <time>2017-05-23T10:43:31Z</time>
      </trkpt>
      <trkpt lat="44.75683" lon="-0.26472">
        <ele>89</ele>
        <time>2017-05-23T10:43:31Z</time>
      </trkpt>
      <trkpt lat="44.75675" lon="-0.26475">
        <ele>89</ele>
        <time>2017-05-23T10:43:47Z</time>
      </trkpt>
      <trkpt lat="44.7567" lon="-0.26482">
        <ele>89</ele>
        <time>2017-05-23T10:43:47Z</time>
      </trkpt>
      <trkpt lat="44.75655" lon="-0.26494">
        <ele>89</ele>
        <time>2017-05-23T10:44:03Z</time>
      </trkpt>
      <trkpt lat="44.75648" lon="-0.26498">
        <ele>89</ele>
        <time>2017-05-23T10:44:03Z</time>
      </trkpt>
      <trkpt lat="44.7563" lon="-0.26502">
        <ele>89</ele>
        <time>2017-05-23T10:44:19Z</time>
      </trkpt>
      <trkpt lat="44.75624" lon="-0.26504">
        <ele>95</ele>
        <time>2017-05-23T10:44:19Z</time>
      </trkpt>
      <trkpt lat="44.75617" lon="-0.26508">
        <ele>95</ele>
        <time>2017-05-23T10:44:19Z</time>
      </trkpt>
      <trkpt lat="44.75609" lon="-0.26512">
        <ele>95</ele>
        <time>2017-05-23T10:44:19Z</time>
      </trkpt>
      <trkpt lat="44.75603" lon="-0.26512">
        <ele>95</ele>
        <time>2017-05-23T10:44:35Z</time>
      </trkpt>
      <trkpt lat="44.75598" lon="-0.26514">
        <ele>95</ele>
        <time>2017-05-23T10:44:35Z</time>
      </trkpt>
      <trkpt lat="44.75595" lon="-0.26513">
        <ele>95</ele>
        <time>2017-05-23T10:44:35Z</time>
      </trkpt>
      <trkpt lat="44.75582" lon="-0.26515">
        <ele>95</ele>
        <time>2017-05-23T10:44:51Z</time>
      </trkpt>
      <trkpt lat="44.75579" lon="-0.26515">
        <ele>95</ele>
        <time>2017-05-23T10:44:51Z</time>
      </trkpt>
      <trkpt lat="44.75572" lon="-0.26509">
        <ele>95</ele>
        <time>2017-05-23T10:44:51Z</time>
      </trkpt>
      <trkpt lat="44.75563" lon="-0.26508">
        <ele>95</ele>
        <time>2017-05-23T10:45:07Z</time>
      </trkpt>
      <trkpt lat="44.75536" lon="-0.26511">
        <ele>103</ele>
        <time>2017-05-23T10:45:23Z</time>
      </trkpt>
      <trkpt lat="44.75521" lon="-0.26509">
        <ele>103</ele>
        <time>2017-05-23T10:45:23Z</time>
      </trkpt>
      <trkpt lat="44.75512" lon="-0.26506">
        <ele>103</ele>
        <time>2017-05-23T10:45:39Z</time>
      </trkpt>
      <trkpt lat="44.755" lon="-0.26508">
        <ele>103</ele>
        <time>2017-05-23T10:45:55Z</time>
      </trkpt>
      <trkpt lat="44.75488" lon="-0.26502">
        <ele>103</ele>
        <time>2017-05-23T10:45:55Z</time>
      </trkpt>
      <trkpt lat="44.7548" lon="-0.265">
        <ele>103</ele>
        <time>2017-05-23T10:46:11Z</time>
      </trkpt>
      <trkpt lat="44.75475" lon="-0.26502">
        <ele>103</ele>
        <time>2017-05-23T10:46:11Z</time>
      </trkpt>
      <trkpt lat="44.75461" lon="-0.26504">
        <ele>103</ele>
        <time>2017-05-23T10:46:35Z</time>
      </trkpt>
      <trkpt lat="44.75459" lon="-0.26502">
        <ele>103</ele>
        <time>2017-05-23T10:46:35Z</time>
      </trkpt>
      <trkpt lat="44.75462" lon="-0.26498">
        <ele>103</ele>
        <time>2017-05-23T10:46:35Z</time>
      </trkpt>
      <trkpt lat="44.7546" lon="-0.26493">
        <ele>103</ele>
        <time>2017-05-23T10:46:35Z</time>
      </trkpt>
      <trkpt lat="44.75459" lon="-0.26479">
        <ele>103</ele>
        <time>2017-05-23T10:46:51Z</time>
      </trkpt>
      <trkpt lat="44.75461" lon="-0.26465">
        <ele>103</ele>
        <time>2017-05-23T10:46:51Z</time>
      </trkpt>
      <trkpt lat="44.75459" lon="-0.26457">
        <ele>101</ele>
        <time>2017-05-23T10:47:11Z</time>
      </trkpt>
      <trkpt lat="44.75457" lon="-0.26454">
        <ele>109</ele>
        <time>2017-05-23T10:47:11Z</time>
      </trkpt>
      <trkpt lat="44.75455" lon="-0.26433">
        <ele>109</ele>
        <time>2017-05-23T10:47:27Z</time>
      </trkpt>
      <trkpt lat="44.75455" lon="-0.26424">
        <ele>109</ele>
        <time>2017-05-23T10:47:27Z</time>
      </trkpt>
      <trkpt lat="44.75453" lon="-0.26421">
        <ele>109</ele>
        <time>2017-05-23T10:47:43Z</time>
      </trkpt>
      <trkpt lat="44.75453" lon="-0.26412">
        <ele>109</ele>
        <time>2017-05-23T10:47:43Z</time>
      </trkpt>
      <trkpt lat="44.75458" lon="-0.26375">
        <ele>107</ele>
        <time>2017-05-23T10:47:59Z</time>
      </trkpt>
      <trkpt lat="44.75459" lon="-0.26371">
        <ele>100</ele>
        <time>2017-05-23T10:48:15Z</time>
      </trkpt>
      <trkpt lat="44.75463" lon="-0.26366">
        <ele>100</ele>
        <time>2017-05-23T10:48:15Z</time>
      </trkpt>
      <trkpt lat="44.75472" lon="-0.26333">
        <ele>100</ele>
        <time>2017-05-23T10:48:31Z</time>
      </trkpt>
      <trkpt lat="44.75472" lon="-0.26321">
        <ele>100</ele>
        <time>2017-05-23T10:48:47Z</time>
      </trkpt>
      <trkpt lat="44.7547" lon="-0.26314">
        <ele>100</ele>
        <time>2017-05-23T10:48:47Z</time>
      </trkpt>
      <trkpt lat="44.75474" lon="-0.26303">
        <ele>100</ele>
        <time>2017-05-23T10:49:03Z</time>
      </trkpt>
      <trkpt lat="44.75475" lon="-0.26291">
        <ele>103</ele>
        <time>2017-05-23T10:49:03Z</time>
      </trkpt>
      <trkpt lat="44.75478" lon="-0.26286">
        <ele>103</ele>
        <time>2017-05-23T10:49:03Z</time>
      </trkpt>
      <trkpt lat="44.75489" lon="-0.26278">
        <ele>103</ele>
        <time>2017-05-23T10:49:35Z</time>
      </trkpt>
      <trkpt lat="44.75489" lon="-0.26277">
        <ele>103</ele>
        <time>2017-05-23T10:49:35Z</time>
      </trkpt>
      <trkpt lat="44.75488" lon="-0.26272">
        <ele>103</ele>
        <time>2017-05-23T10:49:35Z</time>
      </trkpt>
      <trkpt lat="44.75492" lon="-0.26254">
        <ele>103</ele>
        <time>2017-05-23T10:49:51Z</time>
      </trkpt>
      <trkpt lat="44.75499" lon="-0.26239">
        <ele>103</ele>
        <time>2017-05-23T10:49:51Z</time>
      </trkpt>
      <trkpt lat="44.75501" lon="-0.26227">
        <ele>103</ele>
        <time>2017-05-23T10:50:07Z</time>
      </trkpt>
      <trkpt lat="44.75503" lon="-0.26214">
        <ele>103</ele>
        <time>2017-05-23T10:50:23Z</time>
      </trkpt>
      <trkpt lat="44.75513" lon="-0.26193">
        <ele>105</ele>
        <time>2017-05-23T10:50:39Z</time>
      </trkpt>
      <trkpt lat="44.75535" lon="-0.26142">
        <ele>105</ele>
        <time>2017-05-23T10:51:11Z</time>
      </trkpt>
      <trkpt lat="44.75547" lon="-0.26126">
        <ele>99</ele>
        <time>2017-05-23T10:51:27Z</time>
      </trkpt>
      <trkpt lat="44.75555" lon="-0.26106">
        <ele>104</ele>
        <time>2017-05-23T10:51:27Z</time>
      </trkpt>
      <trkpt lat="44.75576" lon="-0.26069">
        <ele>104</ele>
        <time>2017-05-23T10:51:59Z</time>
      </trkpt>
      <trkpt lat="44.75587" lon="-0.26052">
        <ele>104</ele>
        <time>2017-05-23T10:52:15Z</time>
      </trkpt>
      <trkpt lat="44.75599" lon="-0.26021">
        <ele>108</ele>
        <time>2017-05-23T10:52:31Z</time>
      </trkpt>
      <trkpt lat="44.75604" lon="-0.26014">
        <ele>108</ele>
        <time>2017-05-23T10:52:47Z</time>
      </trkpt>
      <trkpt lat="44.75606" lon="-0.26001">
        <ele>108</ele>
        <time>2017-05-23T10:52:47Z</time>
      </trkpt>
      <trkpt lat="44.75619" lon="-0.25981">
        <ele>108</ele>
        <time>2017-05-23T10:53:03Z</time>
      </trkpt>
      <trkpt lat="44.75622" lon="-0.25974">
        <ele>108</ele>
        <time>2017-05-23T10:53:31Z</time>
      </trkpt>
      <trkpt lat="44.75624" lon="-0.25972">
        <ele>108</ele>
        <time>2017-05-23T10:53:31Z</time>
      </trkpt>
      <trkpt lat="44.75624" lon="-0.25971">
        <ele>108</ele>
        <time>2017-05-23T10:53:31Z</time>
      </trkpt>
      <trkpt lat="44.75626" lon="-0.25969">
        <ele>100</ele>
        <time>2017-05-23T10:53:31Z</time>
      </trkpt>
      <trkpt lat="44.75634" lon="-0.2595">
        <ele>103</ele>
        <time>2017-05-23T10:53:47Z</time>
      </trkpt>
      <trkpt lat="44.75636" lon="-0.25944">
        <ele>103</ele>
        <time>2017-05-23T10:54:03Z</time>
      </trkpt>
      <trkpt lat="44.75644" lon="-0.25928">
        <ele>103</ele>
        <time>2017-05-23T10:54:03Z</time>
      </trkpt>
      <trkpt lat="44.75659" lon="-0.25918">
        <ele>103</ele>
        <time>2017-05-23T10:54:55Z</time>
      </trkpt>
      <trkpt lat="44.75663" lon="-0.2592">
        <ele>103</ele>
        <time>2017-05-23T10:54:55Z</time>
      </trkpt>
      <trkpt lat="44.75663" lon="-0.25909">
        <ele>103</ele>
        <time>2017-05-23T10:54:55Z</time>
      </trkpt>
      <trkpt lat="44.75661" lon="-0.25895">
        <ele>103</ele>
        <time>2017-05-23T10:54:55Z</time>
      </trkpt>
      <trkpt lat="44.75668" lon="-0.25886">
        <ele>103</ele>
        <time>2017-05-23T10:55:15Z</time>
      </trkpt>
      <trkpt lat="44.75669" lon="-0.25879">
        <ele>103</ele>
        <time>2017-05-23T10:55:15Z</time>
      </trkpt>
      <trkpt lat="44.75664" lon="-0.25873">
        <ele>102</ele>
        <time>2017-05-23T10:55:15Z</time>
      </trkpt>
      <trkpt lat="44.75666" lon="-0.25866">
        <ele>102</ele>
        <time>2017-05-23T10:55:31Z</time>
      </trkpt>
      <trkpt lat="44.75672" lon="-0.25857">
        <ele>102</ele>
        <time>2017-05-23T10:55:31Z</time>
      </trkpt>
      <trkpt lat="44.75682" lon="-0.25848">
        <ele>102</ele>
        <time>2017-05-23T10:55:47Z</time>
      </trkpt>
      <trkpt lat="44.75693" lon="-0.25843">
        <ele>102</ele>
        <time>2017-05-23T10:55:47Z</time>
      </trkpt>
      <trkpt lat="44.75703" lon="-0.25838">
        <ele>102</ele>
        <time>2017-05-23T10:56:07Z</time>
      </trkpt>
      <trkpt lat="44.75706" lon="-0.25834">
        <ele>102</ele>
        <time>2017-05-23T10:56:07Z</time>
      </trkpt>
      <trkpt lat="44.75703" lon="-0.25831">
        <ele>102</ele>
        <time>2017-05-23T10:56:07Z</time>
      </trkpt>
      <trkpt lat="44.75686" lon="-0.25819">
        <ele>102</ele>
        <time>2017-05-23T10:56:23Z</time>
      </trkpt>
      <trkpt lat="44.75671" lon="-0.25815">
        <ele>102</ele>
        <time>2017-05-23T10:56:55Z</time>
      </trkpt>
      <trkpt lat="44.75669" lon="-0.25811">
        <ele>102</ele>
        <time>2017-05-23T10:56:55Z</time>
      </trkpt>
      <trkpt lat="44.75665" lon="-0.25809">
        <ele>102</ele>
        <time>2017-05-23T10:56:55Z</time>
      </trkpt>
      <trkpt lat="44.75659" lon="-0.25805">
        <ele>102</ele>
        <time>2017-05-23T10:56:55Z</time>
      </trkpt>
      <trkpt lat="44.75641" lon="-0.25797">
        <ele>102</ele>
        <time>2017-05-23T10:57:11Z</time>
      </trkpt>
      <trkpt lat="44.75638" lon="-0.25797">
        <ele>102</ele>
        <time>2017-05-23T10:57:11Z</time>
      </trkpt>
      <trkpt lat="44.75635" lon="-0.25798">
        <ele>102</ele>
        <time>2017-05-23T10:57:43Z</time>
      </trkpt>
      <trkpt lat="44.75633" lon="-0.25792">
        <ele>101</ele>
        <time>2017-05-23T10:57:43Z</time>
      </trkpt>
      <trkpt lat="44.75628" lon="-0.25786">
        <ele>101</ele>
        <time>2017-05-23T10:57:43Z</time>
      </trkpt>
      <trkpt lat="44.75618" lon="-0.25782">
        <ele>101</ele>
        <time>2017-05-23T10:57:59Z</time>
      </trkpt>
      <trkpt lat="44.75612" lon="-0.25785">
        <ele>101</ele>
        <time>2017-05-23T10:57:59Z</time>
      </trkpt>
      <trkpt lat="44.75605" lon="-0.2578">
        <ele>101</ele>
        <time>2017-05-23T10:58:15Z</time>
      </trkpt>
      <trkpt lat="44.75605" lon="-0.25772">
        <ele>101</ele>
        <time>2017-05-23T10:58:15Z</time>
      </trkpt>
      <trkpt lat="44.75599" lon="-0.25766">
        <ele>101</ele>
        <time>2017-05-23T10:59:03Z</time>
      </trkpt>
      <trkpt lat="44.75598" lon="-0.25749">
        <ele>101</ele>
        <time>2017-05-23T10:59:03Z</time>
      </trkpt>
      <trkpt lat="44.75599" lon="-0.25743">
        <ele>101</ele>
        <time>2017-05-23T11:00:07Z</time>
      </trkpt>
      <trkpt lat="44.75593" lon="-0.25734">
        <ele>101</ele>
        <time>2017-05-23T11:00:07Z</time>
      </trkpt>
      <trkpt lat="44.75593" lon="-0.2573">
        <ele>101</ele>
        <time>2017-05-23T11:00:07Z</time>
      </trkpt>
      <trkpt lat="44.75585" lon="-0.25732">
        <ele>101</ele>
        <time>2017-05-23T11:00:23Z</time>
      </trkpt>
      <trkpt lat="44.7558" lon="-0.25726">
        <ele>101</ele>
        <time>2017-05-23T11:00:23Z</time>
      </trkpt>
      <trkpt lat="44.75578" lon="-0.2572">
        <ele>101</ele>
        <time>2017-05-23T11:00:23Z</time>
      </trkpt>
      <trkpt lat="44.75572" lon="-0.25716">
        <ele>101</ele>
        <time>2017-05-23T11:00:39Z</time>
      </trkpt>
      <trkpt lat="44.75567" lon="-0.25708">
        <ele>98</ele>
        <time>2017-05-23T11:00:39Z</time>
      </trkpt>
      <trkpt lat="44.75566" lon="-0.25701">
        <ele>98</ele>
        <time>2017-05-23T11:00:55Z</time>
      </trkpt>
      <trkpt lat="44.75563" lon="-0.25694">
        <ele>98</ele>
        <time>2017-05-23T11:00:55Z</time>
      </trkpt>
      <trkpt lat="44.75559" lon="-0.25687">
        <ele>98</ele>
        <time>2017-05-23T11:00:55Z</time>
      </trkpt>
      <trkpt lat="44.7555" lon="-0.2568">
        <ele>98</ele>
        <time>2017-05-23T11:01:11Z</time>
      </trkpt>
      <trkpt lat="44.75546" lon="-0.25674">
        <ele>98</ele>
        <time>2017-05-23T11:01:11Z</time>
      </trkpt>
      <trkpt lat="44.75547" lon="-0.25668">
        <ele>98</ele>
        <time>2017-05-23T11:01:11Z</time>
      </trkpt>
      <trkpt lat="44.75543" lon="-0.25666">
        <ele>98</ele>
        <time>2017-05-23T11:01:11Z</time>
      </trkpt>
      <trkpt lat="44.75525" lon="-0.25648">
        <ele>111</ele>
        <time>2017-05-23T11:01:43Z</time>
      </trkpt>
      <trkpt lat="44.7552" lon="-0.25645">
        <ele>111</ele>
        <time>2017-05-23T11:01:43Z</time>
      </trkpt>
      <trkpt lat="44.75515" lon="-0.25644">
        <ele>111</ele>
        <time>2017-05-23T11:01:43Z</time>
      </trkpt>
      <trkpt lat="44.75507" lon="-0.25639">
        <ele>111</ele>
        <time>2017-05-23T11:01:59Z</time>
      </trkpt>
      <trkpt lat="44.75497" lon="-0.25638">
        <ele>111</ele>
        <time>2017-05-23T11:01:59Z</time>
      </trkpt>
      <trkpt lat="44.75496" lon="-0.25635">
        <ele>111</ele>
        <time>2017-05-23T11:01:59Z</time>
      </trkpt>
      <trkpt lat="44.75492" lon="-0.25632">
        <ele>111</ele>
        <time>2017-05-23T11:02:47Z</time>
      </trkpt>
      <trkpt lat="44.75487" lon="-0.25626">
        <ele>111</ele>
        <time>2017-05-23T11:02:47Z</time>
      </trkpt>
      <trkpt lat="44.75481" lon="-0.25623">
        <ele>106</ele>
        <time>2017-05-23T11:02:47Z</time>
      </trkpt>
      <trkpt lat="44.75477" lon="-0.25619">
        <ele>106</ele>
        <time>2017-05-23T11:02:47Z</time>
      </trkpt>
      <trkpt lat="44.75473" lon="-0.25619">
        <ele>106</ele>
        <time>2017-05-23T11:02:47Z</time>
      </trkpt>
      <trkpt lat="44.75465" lon="-0.25614">
        <ele>106</ele>
        <time>2017-05-23T11:03:11Z</time>
      </trkpt>
      <trkpt lat="44.7546" lon="-0.25609">
        <ele>106</ele>
        <time>2017-05-23T11:03:11Z</time>
      </trkpt>
      <trkpt lat="44.75438" lon="-0.25607">
        <ele>112</ele>
        <time>2017-05-23T11:03:27Z</time>
      </trkpt>
      <trkpt lat="44.75411" lon="-0.256">
        <ele>112</ele>
        <time>2017-05-23T11:03:43Z</time>
      </trkpt>
      <trkpt lat="44.75386" lon="-0.2557">
        <ele>112</ele>
        <time>2017-05-23T11:04:15Z</time>
      </trkpt>
      <trkpt lat="44.75384" lon="-0.25561">
        <ele>112</ele>
        <time>2017-05-23T11:04:15Z</time>
      </trkpt>
      <trkpt lat="44.75381" lon="-0.25554">
        <ele>112</ele>
        <time>2017-05-23T11:04:15Z</time>
      </trkpt>
      <trkpt lat="44.75382" lon="-0.25548">
        <ele>112</ele>
        <time>2017-05-23T11:04:15Z</time>
      </trkpt>
      <trkpt lat="44.75376" lon="-0.25525">
        <ele>103</ele>
        <time>2017-05-23T11:04:31Z</time>
      </trkpt>
      <trkpt lat="44.75371" lon="-0.25516">
        <ele>108</ele>
        <time>2017-05-23T11:04:47Z</time>
      </trkpt>
      <trkpt lat="44.75367" lon="-0.2549">
        <ele>108</ele>
        <time>2017-05-23T11:05:03Z</time>
      </trkpt>
      <trkpt lat="44.75368" lon="-0.25472">
        <ele>108</ele>
        <time>2017-05-23T11:05:03Z</time>
      </trkpt>
      <trkpt lat="44.75366" lon="-0.25464">
        <ele>108</ele>
        <time>2017-05-23T11:05:03Z</time>
      </trkpt>
      <trkpt lat="44.75363" lon="-0.25458">
        <ele>107</ele>
        <time>2017-05-23T11:05:19Z</time>
      </trkpt>
      <trkpt lat="44.75363" lon="-0.2545">
        <ele>107</ele>
        <time>2017-05-23T11:05:19Z</time>
      </trkpt>
      <trkpt lat="44.75361" lon="-0.25444">
        <ele>107</ele>
        <time>2017-05-23T11:05:19Z</time>
      </trkpt>
      <trkpt lat="44.75359" lon="-0.25439">
        <ele>107</ele>
        <time>2017-05-23T11:05:19Z</time>
      </trkpt>
      <trkpt lat="44.75356" lon="-0.25437">
        <ele>107</ele>
        <time>2017-05-23T11:05:35Z</time>
      </trkpt>
      <trkpt lat="44.75354" lon="-0.25432">
        <ele>107</ele>
        <time>2017-05-23T11:05:35Z</time>
      </trkpt>
      <trkpt lat="44.75354" lon="-0.25424">
        <ele>107</ele>
        <time>2017-05-23T11:05:35Z</time>
      </trkpt>
      <trkpt lat="44.75346" lon="-0.25391">
        <ele>107</ele>
        <time>2017-05-23T11:05:51Z</time>
      </trkpt>
      <trkpt lat="44.75346" lon="-0.25386">
        <ele>107</ele>
        <time>2017-05-23T11:06:07Z</time>
      </trkpt>
      <trkpt lat="44.75347" lon="-0.25377">
        <ele>107</ele>
        <time>2017-05-23T11:06:07Z</time>
      </trkpt>
      <trkpt lat="44.75346" lon="-0.25371">
        <ele>104</ele>
        <time>2017-05-23T11:06:07Z</time>
      </trkpt>
      <trkpt lat="44.75343" lon="-0.25356">
        <ele>104</ele>
        <time>2017-05-23T11:06:23Z</time>
      </trkpt>
      <trkpt lat="44.75346" lon="-0.2534">
        <ele>104</ele>
        <time>2017-05-23T11:06:23Z</time>
      </trkpt>
      <trkpt lat="44.75345" lon="-0.25334">
        <ele>104</ele>
        <time>2017-05-23T11:06:23Z</time>
      </trkpt>
      <trkpt lat="44.7534" lon="-0.25315">
        <ele>104</ele>
        <time>2017-05-23T11:06:39Z</time>
      </trkpt>
      <trkpt lat="44.75341" lon="-0.25311">
        <ele>104</ele>
        <time>2017-05-23T11:06:39Z</time>
      </trkpt>
      <trkpt lat="44.75336" lon="-0.25303">
        <ele>104</ele>
        <time>2017-05-23T11:07:03Z</time>
      </trkpt>
      <trkpt lat="44.75329" lon="-0.25305">
        <ele>104</ele>
        <time>2017-05-23T11:07:03Z</time>
      </trkpt>
      <trkpt lat="44.75327" lon="-0.25307">
        <ele>104</ele>
        <time>2017-05-23T11:07:03Z</time>
      </trkpt>
      <trkpt lat="44.75322" lon="-0.25307">
        <ele>104</ele>
        <time>2017-05-23T11:07:19Z</time>
      </trkpt>
      <trkpt lat="44.75317" lon="-0.25309">
        <ele>104</ele>
        <time>2017-05-23T11:07:19Z</time>
      </trkpt>
      <trkpt lat="44.75308" lon="-0.25309">
        <ele>104</ele>
        <time>2017-05-23T11:07:19Z</time>
      </trkpt>
      <trkpt lat="44.75302" lon="-0.25313">
        <ele>104</ele>
        <time>2017-05-23T11:07:39Z</time>
      </trkpt>
      <trkpt lat="44.75288" lon="-0.25314">
        <ele>108</ele>
        <time>2017-05-23T11:07:55Z</time>
      </trkpt>
      <trkpt lat="44.75278" lon="-0.25316">
        <ele>108</ele>
        <time>2017-05-23T11:07:55Z</time>
      </trkpt>
      <trkpt lat="44.75273" lon="-0.25314">
        <ele>108</ele>
        <time>2017-05-23T11:08:11Z</time>
      </trkpt>
      <trkpt lat="44.75262" lon="-0.25316">
        <ele>108</ele>
        <time>2017-05-23T11:08:11Z</time>
      </trkpt>
      <trkpt lat="44.75248" lon="-0.25323">
        <ele>108</ele>
        <time>2017-05-23T11:08:27Z</time>
      </trkpt>
      <trkpt lat="44.75243" lon="-0.25324">
        <ele>108</ele>
        <time>2017-05-23T11:08:27Z</time>
      </trkpt>
      <trkpt lat="44.75239" lon="-0.25327">
        <ele>108</ele>
        <time>2017-05-23T11:08:27Z</time>
      </trkpt>
      <trkpt lat="44.75212" lon="-0.25335">
        <ele>108</ele>
        <time>2017-05-23T11:09:03Z</time>
      </trkpt>
      <trkpt lat="44.75194" lon="-0.25343">
        <ele>104</ele>
        <time>2017-05-23T11:09:19Z</time>
      </trkpt>
      <trkpt lat="44.75174" lon="-0.25354">
        <ele>104</ele>
        <time>2017-05-23T11:09:19Z</time>
      </trkpt>
      <trkpt lat="44.75164" lon="-0.25358">
        <ele>104</ele>
        <time>2017-05-23T11:09:35Z</time>
      </trkpt>
      <trkpt lat="44.75148" lon="-0.25369">
        <ele>104</ele>
        <time>2017-05-23T11:10:15Z</time>
      </trkpt>
      <trkpt lat="44.75131" lon="-0.25384">
        <ele>106</ele>
        <time>2017-05-23T11:10:31Z</time>
      </trkpt>
      <trkpt lat="44.75123" lon="-0.25396">
        <ele>100</ele>
        <time>2017-05-23T11:10:31Z</time>
      </trkpt>
      <trkpt lat="44.75121" lon="-0.25407">
        <ele>100</ele>
        <time>2017-05-23T11:10:47Z</time>
      </trkpt>
      <trkpt lat="44.75118" lon="-0.25411">
        <ele>100</ele>
        <time>2017-05-23T11:10:47Z</time>
      </trkpt>
      <trkpt lat="44.75114" lon="-0.25413">
        <ele>100</ele>
        <time>2017-05-23T11:10:47Z</time>
      </trkpt>
      <trkpt lat="44.75112" lon="-0.25417">
        <ele>100</ele>
        <time>2017-05-23T11:11:03Z</time>
      </trkpt>
      <trkpt lat="44.75099" lon="-0.25423">
        <ele>100</ele>
        <time>2017-05-23T11:11:03Z</time>
      </trkpt>
      <trkpt lat="44.75088" lon="-0.25432">
        <ele>100</ele>
        <time>2017-05-23T11:11:19Z</time>
      </trkpt>
      <trkpt lat="44.75082" lon="-0.25439">
        <ele>100</ele>
        <time>2017-05-23T11:11:19Z</time>
      </trkpt>
      <trkpt lat="44.7507" lon="-0.25445">
        <ele>100</ele>
        <time>2017-05-23T11:11:35Z</time>
      </trkpt>
      <trkpt lat="44.75053" lon="-0.25449">
        <ele>100</ele>
        <time>2017-05-23T11:11:51Z</time>
      </trkpt>
      <trkpt lat="44.75042" lon="-0.25456">
        <ele>100</ele>
        <time>2017-05-23T11:11:51Z</time>
      </trkpt>
      <trkpt lat="44.75038" lon="-0.2546">
        <ele>95</ele>
        <time>2017-05-23T11:12:07Z</time>
      </trkpt>
      <trkpt lat="44.75026" lon="-0.2546">
        <ele>95</ele>
        <time>2017-05-23T11:12:07Z</time>
      </trkpt>
      <trkpt lat="44.75019" lon="-0.25463">
        <ele>95</ele>
        <time>2017-05-23T11:12:23Z</time>
      </trkpt>
      <trkpt lat="44.75008" lon="-0.25466">
        <ele>95</ele>
        <time>2017-05-23T11:12:23Z</time>
      </trkpt>
      <trkpt lat="44.7499" lon="-0.25465">
        <ele>95</ele>
        <time>2017-05-23T11:12:39Z</time>
      </trkpt>
      <trkpt lat="44.74977" lon="-0.25458">
        <ele>94</ele>
        <time>2017-05-23T11:12:39Z</time>
      </trkpt>
      <trkpt lat="44.74968" lon="-0.2545">
        <ele>94</ele>
        <time>2017-05-23T11:12:55Z</time>
      </trkpt>
      <trkpt lat="44.74963" lon="-0.25439">
        <ele>94</ele>
        <time>2017-05-23T11:12:55Z</time>
      </trkpt>
      <trkpt lat="44.7496" lon="-0.25417">
        <ele>94</ele>
        <time>2017-05-23T11:13:11Z</time>
      </trkpt>
      <trkpt lat="44.7496" lon="-0.25407">
        <ele>94</ele>
        <time>2017-05-23T11:13:11Z</time>
      </trkpt>
      <trkpt lat="44.74958" lon="-0.25403">
        <ele>91</ele>
        <time>2017-05-23T11:13:11Z</time>
      </trkpt>
      <trkpt lat="44.74951" lon="-0.25399">
        <ele>91</ele>
        <time>2017-05-23T11:13:27Z</time>
      </trkpt>
      <trkpt lat="44.7494" lon="-0.25404">
        <ele>91</ele>
        <time>2017-05-23T11:13:43Z</time>
      </trkpt>
      <trkpt lat="44.74935" lon="-0.25408">
        <ele>91</ele>
        <time>2017-05-23T11:13:43Z</time>
      </trkpt>
      <trkpt lat="44.74931" lon="-0.25407">
        <ele>91</ele>
        <time>2017-05-23T11:13:43Z</time>
      </trkpt>
      <trkpt lat="44.74922" lon="-0.25397">
        <ele>91</ele>
        <time>2017-05-23T11:13:59Z</time>
      </trkpt>
      <trkpt lat="44.74919" lon="-0.25385">
        <ele>91</ele>
        <time>2017-05-23T11:13:59Z</time>
      </trkpt>
      <trkpt lat="44.74919" lon="-0.25378">
        <ele>91</ele>
        <time>2017-05-23T11:13:59Z</time>
      </trkpt>
      <trkpt lat="44.74917" lon="-0.25372">
        <ele>92</ele>
        <time>2017-05-23T11:14:15Z</time>
      </trkpt>
      <trkpt lat="44.74917" lon="-0.25365">
        <ele>92</ele>
        <time>2017-05-23T11:14:15Z</time>
      </trkpt>
      <trkpt lat="44.7492" lon="-0.25356">
        <ele>92</ele>
        <time>2017-05-23T11:14:35Z</time>
      </trkpt>
      <trkpt lat="44.74915" lon="-0.25349">
        <ele>92</ele>
        <time>2017-05-23T11:14:35Z</time>
      </trkpt>
      <trkpt lat="44.74909" lon="-0.25349">
        <ele>92</ele>
        <time>2017-05-23T11:14:35Z</time>
      </trkpt>
      <trkpt lat="44.74901" lon="-0.25351">
        <ele>92</ele>
        <time>2017-05-23T11:14:51Z</time>
      </trkpt>
      <trkpt lat="44.74893" lon="-0.25349">
        <ele>92</ele>
        <time>2017-05-23T11:14:51Z</time>
      </trkpt>
      <trkpt lat="44.74886" lon="-0.25349">
        <ele>92</ele>
        <time>2017-05-23T11:15:23Z</time>
      </trkpt>
      <trkpt lat="44.74885" lon="-0.25348">
        <ele>92</ele>
        <time>2017-05-23T11:15:23Z</time>
      </trkpt>
      <trkpt lat="44.74882" lon="-0.2535">
        <ele>92</ele>
        <time>2017-05-23T11:15:23Z</time>
      </trkpt>
      <trkpt lat="44.7488" lon="-0.25365">
        <ele>92</ele>
        <time>2017-05-23T11:15:43Z</time>
      </trkpt>
      <trkpt lat="44.74874" lon="-0.25367">
        <ele>88</ele>
        <time>2017-05-23T11:15:43Z</time>
      </trkpt>
      <trkpt lat="44.74872" lon="-0.2537">
        <ele>88</ele>
        <time>2017-05-23T11:15:43Z</time>
      </trkpt>
      <trkpt lat="44.74866" lon="-0.25372">
        <ele>88</ele>
        <time>2017-05-23T11:15:43Z</time>
      </trkpt>
      <trkpt lat="44.7486" lon="-0.25368">
        <ele>88</ele>
        <time>2017-05-23T11:15:59Z</time>
      </trkpt>
      <trkpt lat="44.74854" lon="-0.25377">
        <ele>89</ele>
        <time>2017-05-23T11:15:59Z</time>
      </trkpt>
      <trkpt lat="44.74851" lon="-0.25384">
        <ele>89</ele>
        <time>2017-05-23T11:15:59Z</time>
      </trkpt>
      <trkpt lat="44.7485" lon="-0.25388">
        <ele>89</ele>
        <time>2017-05-23T11:16:15Z</time>
      </trkpt>
      <trkpt lat="44.74848" lon="-0.25392">
        <ele>89</ele>
        <time>2017-05-23T11:16:15Z</time>
      </trkpt>
      <trkpt lat="44.74845" lon="-0.25393">
        <ele>89</ele>
        <time>2017-05-23T11:16:15Z</time>
      </trkpt>
      <trkpt lat="44.74836" lon="-0.25394">
        <ele>89</ele>
        <time>2017-05-23T11:16:31Z</time>
      </trkpt>
      <trkpt lat="44.74834" lon="-0.25399">
        <ele>89</ele>
        <time>2017-05-23T11:16:31Z</time>
      </trkpt>
      <trkpt lat="44.74819" lon="-0.25411">
        <ele>89</ele>
        <time>2017-05-23T11:16:47Z</time>
      </trkpt>
      <trkpt lat="44.74813" lon="-0.25419">
        <ele>89</ele>
        <time>2017-05-23T11:16:47Z</time>
      </trkpt>
      <trkpt lat="44.74806" lon="-0.25425">
        <ele>89</ele>
        <time>2017-05-23T11:17:03Z</time>
      </trkpt>
      <trkpt lat="44.74801" lon="-0.25435">
        <ele>89</ele>
        <time>2017-05-23T11:17:03Z</time>
      </trkpt>
      <trkpt lat="44.74797" lon="-0.25438">
        <ele>89</ele>
        <time>2017-05-23T11:17:03Z</time>
      </trkpt>
      <trkpt lat="44.74797" lon="-0.2545">
        <ele>89</ele>
        <time>2017-05-23T11:17:19Z</time>
      </trkpt>
      <trkpt lat="44.74794" lon="-0.25458">
        <ele>89</ele>
        <time>2017-05-23T11:17:19Z</time>
      </trkpt>
      <trkpt lat="44.74789" lon="-0.25462">
        <ele>87</ele>
        <time>2017-05-23T11:17:35Z</time>
      </trkpt>
      <trkpt lat="44.74787" lon="-0.25467">
        <ele>87</ele>
        <time>2017-05-23T11:17:35Z</time>
      </trkpt>
      <trkpt lat="44.74787" lon="-0.25484">
        <ele>87</ele>
        <time>2017-05-23T11:17:51Z</time>
      </trkpt>
      <trkpt lat="44.74792" lon="-0.25505">
        <ele>90</ele>
        <time>2017-05-23T11:17:51Z</time>
      </trkpt>
      <trkpt lat="44.74794" lon="-0.2551">
        <ele>90</ele>
        <time>2017-05-23T11:18:07Z</time>
      </trkpt>
      <trkpt lat="44.74796" lon="-0.25546">
        <ele>87</ele>
        <time>2017-05-23T11:18:23Z</time>
      </trkpt>
      <trkpt lat="44.74798" lon="-0.25553">
        <ele>87</ele>
        <time>2017-05-23T11:18:23Z</time>
      </trkpt>
      <trkpt lat="44.748" lon="-0.25579">
        <ele>87</ele>
        <time>2017-05-23T11:18:39Z</time>
      </trkpt>
      <trkpt lat="44.74803" lon="-0.25592">
        <ele>87</ele>
        <time>2017-05-23T11:18:55Z</time>
      </trkpt>
      <trkpt lat="44.74806" lon="-0.25612">
        <ele>87</ele>
        <time>2017-05-23T11:18:55Z</time>
      </trkpt>
      <trkpt lat="44.74805" lon="-0.25626">
        <ele>83</ele>
        <time>2017-05-23T11:19:11Z</time>
      </trkpt>
      <trkpt lat="44.74808" lon="-0.25656">
        <ele>83</ele>
        <time>2017-05-23T11:19:27Z</time>
      </trkpt>
      <trkpt lat="44.74812" lon="-0.25659">
        <ele>83</ele>
        <time>2017-05-23T11:19:27Z</time>
      </trkpt>
      <trkpt lat="44.74815" lon="-0.25664">
        <ele>83</ele>
        <time>2017-05-23T11:19:27Z</time>
      </trkpt>
      <trkpt lat="44.74816" lon="-0.2567">
        <ele>83</ele>
        <time>2017-05-23T11:19:43Z</time>
      </trkpt>
      <trkpt lat="44.74815" lon="-0.25682">
        <ele>83</ele>
        <time>2017-05-23T11:19:43Z</time>
      </trkpt>
      <trkpt lat="44.74812" lon="-0.25684">
        <ele>83</ele>
        <time>2017-05-23T11:19:43Z</time>
      </trkpt>
      <trkpt lat="44.7481" lon="-0.25688">
        <ele>83</ele>
        <time>2017-05-23T11:20:03Z</time>
      </trkpt>
      <trkpt lat="44.7481" lon="-0.25697">
        <ele>83</ele>
        <time>2017-05-23T11:20:03Z</time>
      </trkpt>
      <trkpt lat="44.74808" lon="-0.257">
        <ele>83</ele>
        <time>2017-05-23T11:20:03Z</time>
      </trkpt>
      <trkpt lat="44.74805" lon="-0.25703">
        <ele>83</ele>
        <time>2017-05-23T11:20:03Z</time>
      </trkpt>
      <trkpt lat="44.74799" lon="-0.25704">
        <ele>83</ele>
        <time>2017-05-23T11:20:19Z</time>
      </trkpt>
      <trkpt lat="44.74793" lon="-0.25709">
        <ele>84</ele>
        <time>2017-05-23T11:20:19Z</time>
      </trkpt>
      <trkpt lat="44.74787" lon="-0.25717">
        <ele>78</ele>
        <time>2017-05-23T11:20:35Z</time>
      </trkpt>
      <trkpt lat="44.74775" lon="-0.25724">
        <ele>78</ele>
        <time>2017-05-23T11:20:35Z</time>
      </trkpt>
      <trkpt lat="44.74768" lon="-0.25743">
        <ele>78</ele>
        <time>2017-05-23T11:20:51Z</time>
      </trkpt>
      <trkpt lat="44.74769" lon="-0.25745">
        <ele>78</ele>
        <time>2017-05-23T11:21:07Z</time>
      </trkpt>
      <trkpt lat="44.74768" lon="-0.25757">
        <ele>78</ele>
        <time>2017-05-23T11:21:07Z</time>
      </trkpt>
      <trkpt lat="44.74765" lon="-0.2576">
        <ele>78</ele>
        <time>2017-05-23T11:21:07Z</time>
      </trkpt>
      <trkpt lat="44.7476" lon="-0.25767">
        <ele>78</ele>
        <time>2017-05-23T11:21:23Z</time>
      </trkpt>
      <trkpt lat="44.74759" lon="-0.25774">
        <ele>78</ele>
        <time>2017-05-23T11:21:23Z</time>
      </trkpt>
      <trkpt lat="44.74746" lon="-0.2578">
        <ele>78</ele>
        <time>2017-05-23T11:21:51Z</time>
      </trkpt>
      <trkpt lat="44.74743" lon="-0.25789">
        <ele>78</ele>
        <time>2017-05-23T11:22:07Z</time>
      </trkpt>
      <trkpt lat="44.74729" lon="-0.25784">
        <ele>78</ele>
        <time>2017-05-23T11:22:31Z</time>
      </trkpt>
      <trkpt lat="44.74729" lon="-0.25785">
        <ele>78</ele>
        <time>2017-05-23T11:22:31Z</time>
      </trkpt>
      <trkpt lat="44.74715" lon="-0.25785">
        <ele>78</ele>
        <time>2017-05-23T11:22:59Z</time>
      </trkpt>
      <trkpt lat="44.74713" lon="-0.25784">
        <ele>78</ele>
        <time>2017-05-23T11:22:59Z</time>
      </trkpt>
      <trkpt lat="44.74708" lon="-0.25784">
        <ele>71</ele>
        <time>2017-05-23T11:22:59Z</time>
      </trkpt>
      <trkpt lat="44.74702" lon="-0.2579">
        <ele>71</ele>
        <time>2017-05-23T11:23:59Z</time>
      </trkpt>
      <trkpt lat="44.74699" lon="-0.25785">
        <ele>71</ele>
        <time>2017-05-23T11:23:59Z</time>
      </trkpt>
      <trkpt lat="44.7469" lon="-0.25794">
        <ele>72</ele>
        <time>2017-05-23T11:25:27Z</time>
      </trkpt>
      <trkpt lat="44.74686" lon="-0.25797">
        <ele>72</ele>
        <time>2017-05-23T11:25:27Z</time>
      </trkpt>
      <trkpt lat="44.74683" lon="-0.25796">
        <ele>72</ele>
        <time>2017-05-23T11:25:27Z</time>
      </trkpt>
      <trkpt lat="44.74681" lon="-0.25791">
        <ele>71</ele>
        <time>2017-05-23T11:25:59Z</time>
      </trkpt>
      <trkpt lat="44.7468" lon="-0.25792">
        <ele>72</ele>
        <time>2017-05-23T11:25:59Z</time>
      </trkpt>
      <trkpt lat="44.74679" lon="-0.25801">
        <ele>72</ele>
        <time>2017-05-23T11:25:59Z</time>
      </trkpt>
      <trkpt lat="44.74677" lon="-0.25803">
        <ele>72</ele>
        <time>2017-05-23T11:25:59Z</time>
      </trkpt>
      <trkpt lat="44.74669" lon="-0.25802">
        <ele>72</ele>
        <time>2017-05-23T11:26:15Z</time>
      </trkpt>
      <trkpt lat="44.74656" lon="-0.25807">
        <ele>72</ele>
        <time>2017-05-23T11:26:31Z</time>
      </trkpt>
      <trkpt lat="44.74632" lon="-0.25813">
        <ele>72</ele>
        <time>2017-05-23T11:26:47Z</time>
      </trkpt>
      <trkpt lat="44.74599" lon="-0.25824">
        <ele>70</ele>
        <time>2017-05-23T11:27:27Z</time>
      </trkpt>
      <trkpt lat="44.74587" lon="-0.2583">
        <ele>70</ele>
        <time>2017-05-23T11:27:43Z</time>
      </trkpt>
      <trkpt lat="44.74582" lon="-0.2583">
        <ele>70</ele>
        <time>2017-05-23T11:27:43Z</time>
      </trkpt>
      <trkpt lat="44.74576" lon="-0.25833">
        <ele>70</ele>
        <time>2017-05-23T11:27:43Z</time>
      </trkpt>
      <trkpt lat="44.74573" lon="-0.25837">
        <ele>70</ele>
        <time>2017-05-23T11:27:43Z</time>
      </trkpt>
      <trkpt lat="44.74563" lon="-0.2584">
        <ele>70</ele>
        <time>2017-05-23T11:27:59Z</time>
      </trkpt>
      <trkpt lat="44.74551" lon="-0.25841">
        <ele>70</ele>
        <time>2017-05-23T11:27:59Z</time>
      </trkpt>
      <trkpt lat="44.74546" lon="-0.25847">
        <ele>70</ele>
        <time>2017-05-23T11:28:15Z</time>
      </trkpt>
      <trkpt lat="44.74539" lon="-0.25872">
        <ele>68</ele>
        <time>2017-05-23T11:28:31Z</time>
      </trkpt>
      <trkpt lat="44.74537" lon="-0.25882">
        <ele>68</ele>
        <time>2017-05-23T11:28:31Z</time>
      </trkpt>
      <trkpt lat="44.74535" lon="-0.25909">
        <ele>68</ele>
        <time>2017-05-23T11:28:47Z</time>
      </trkpt>
      <trkpt lat="44.74537" lon="-0.25922">
        <ele>68</ele>
        <time>2017-05-23T11:29:03Z</time>
      </trkpt>
      <trkpt lat="44.74536" lon="-0.25928">
        <ele>68</ele>
        <time>2017-05-23T11:29:03Z</time>
      </trkpt>
      <trkpt lat="44.74537" lon="-0.25934">
        <ele>68</ele>
        <time>2017-05-23T11:29:03Z</time>
      </trkpt>
      <trkpt lat="44.74535" lon="-0.2596">
        <ele>71</ele>
        <time>2017-05-23T11:29:19Z</time>
      </trkpt>
      <trkpt lat="44.74535" lon="-0.25967">
        <ele>71</ele>
        <time>2017-05-23T11:29:19Z</time>
      </trkpt>
      <trkpt lat="44.74537" lon="-0.25983">
        <ele>71</ele>
        <time>2017-05-23T11:29:35Z</time>
      </trkpt>
      <trkpt lat="44.74532" lon="-0.26013">
        <ele>71</ele>
        <time>2017-05-23T11:29:51Z</time>
      </trkpt>
      <trkpt lat="44.74533" lon="-0.26026">
        <ele>71</ele>
        <time>2017-05-23T11:30:07Z</time>
      </trkpt>
      <trkpt lat="44.7453" lon="-0.2604">
        <ele>71</ele>
        <time>2017-05-23T11:30:07Z</time>
      </trkpt>
      <trkpt lat="44.74528" lon="-0.2606">
        <ele>72</ele>
        <time>2017-05-23T11:30:23Z</time>
      </trkpt>
      <trkpt lat="44.74527" lon="-0.2608">
        <ele>72</ele>
        <time>2017-05-23T11:30:39Z</time>
      </trkpt>
      <trkpt lat="44.74524" lon="-0.26104">
        <ele>72</ele>
        <time>2017-05-23T11:30:39Z</time>
      </trkpt>
      <trkpt lat="44.74523" lon="-0.26111">
        <ele>72</ele>
        <time>2017-05-23T11:30:55Z</time>
      </trkpt>
      <trkpt lat="44.74521" lon="-0.26126">
        <ele>73</ele>
        <time>2017-05-23T11:30:55Z</time>
      </trkpt>
      <trkpt lat="44.74515" lon="-0.2619">
        <ele>73</ele>
        <time>2017-05-23T11:31:27Z</time>
      </trkpt>
      <trkpt lat="44.74514" lon="-0.26195">
        <ele>73</ele>
        <time>2017-05-23T11:31:43Z</time>
      </trkpt>
      <trkpt lat="44.74514" lon="-0.26201">
        <ele>73</ele>
        <time>2017-05-23T11:31:43Z</time>
      </trkpt>
      <trkpt lat="44.74512" lon="-0.26225">
        <ele>73</ele>
        <time>2017-05-23T11:31:59Z</time>
      </trkpt>
      <trkpt lat="44.74504" lon="-0.26246">
        <ele>73</ele>
        <time>2017-05-23T11:31:59Z</time>
      </trkpt>
      <trkpt lat="44.74504" lon="-0.26261">
        <ele>73</ele>
        <time>2017-05-23T11:32:15Z</time>
      </trkpt>
      <trkpt lat="44.74501" lon="-0.26267">
        <ele>73</ele>
        <time>2017-05-23T11:32:15Z</time>
      </trkpt>
      <trkpt lat="44.74498" lon="-0.26273">
        <ele>73</ele>
        <time>2017-05-23T11:32:15Z</time>
      </trkpt>
      <trkpt lat="44.74494" lon="-0.26286">
        <ele>73</ele>
        <time>2017-05-23T11:32:35Z</time>
      </trkpt>
      <trkpt lat="44.7449" lon="-0.26287">
        <ele>73</ele>
        <time>2017-05-23T11:32:35Z</time>
      </trkpt>
      <trkpt lat="44.74489" lon="-0.26291">
        <ele>73</ele>
        <time>2017-05-23T11:32:35Z</time>
      </trkpt>
      <trkpt lat="44.74476" lon="-0.26301">
        <ele>74</ele>
        <time>2017-05-23T11:32:51Z</time>
      </trkpt>
      <trkpt lat="44.74473" lon="-0.26313">
        <ele>74</ele>
        <time>2017-05-23T11:33:07Z</time>
      </trkpt>
      <trkpt lat="44.74466" lon="-0.2632">
        <ele>74</ele>
        <time>2017-05-23T11:33:07Z</time>
      </trkpt>
      <trkpt lat="44.74462" lon="-0.26323">
        <ele>74</ele>
        <time>2017-05-23T11:33:07Z</time>
      </trkpt>
      <trkpt lat="44.74447" lon="-0.26327">
        <ele>78</ele>
        <time>2017-05-23T11:33:23Z</time>
      </trkpt>
      <trkpt lat="44.74431" lon="-0.26327">
        <ele>78</ele>
        <time>2017-05-23T11:33:39Z</time>
      </trkpt>
      <trkpt lat="44.74405" lon="-0.26324">
        <ele>78</ele>
        <time>2017-05-23T11:33:55Z</time>
      </trkpt>
      <trkpt lat="44.74364" lon="-0.26313">
        <ele>81</ele>
        <time>2017-05-23T11:34:11Z</time>
      </trkpt>
      <trkpt lat="44.74343" lon="-0.26312">
        <ele>81</ele>
        <time>2017-05-23T11:34:27Z</time>
      </trkpt>
      <trkpt lat="44.74324" lon="-0.26308">
        <ele>81</ele>
        <time>2017-05-23T11:34:43Z</time>
      </trkpt>
      <trkpt lat="44.74313" lon="-0.26308">
        <ele>81</ele>
        <time>2017-05-23T11:34:59Z</time>
      </trkpt>
      <trkpt lat="44.74297" lon="-0.26302">
        <ele>81</ele>
        <time>2017-05-23T11:34:59Z</time>
      </trkpt>
      <trkpt lat="44.74263" lon="-0.26294">
        <ele>83</ele>
        <time>2017-05-23T11:35:31Z</time>
      </trkpt>
      <trkpt lat="44.74247" lon="-0.26286">
        <ele>81</ele>
        <time>2017-05-23T11:35:47Z</time>
      </trkpt>
      <trkpt lat="44.74237" lon="-0.26278">
        <ele>81</ele>
        <time>2017-05-23T11:35:47Z</time>
      </trkpt>
      <trkpt lat="44.74238" lon="-0.26278">
        <ele>81</ele>
        <time>2017-05-23T11:36:07Z</time>
      </trkpt>
      <trkpt lat="44.74221" lon="-0.26269">
        <ele>81</ele>
        <time>2017-05-23T11:36:23Z</time>
      </trkpt>
      <trkpt lat="44.74215" lon="-0.26269">
        <ele>81</ele>
        <time>2017-05-23T11:36:23Z</time>
      </trkpt>
      <trkpt lat="44.74211" lon="-0.26266">
        <ele>81</ele>
        <time>2017-05-23T11:36:23Z</time>
      </trkpt>
      <trkpt lat="44.7421" lon="-0.26263">
        <ele>81</ele>
        <time>2017-05-23T11:36:23Z</time>
      </trkpt>
      <trkpt lat="44.74211" lon="-0.26261">
        <ele>81</ele>
        <time>2017-05-23T11:36:39Z</time>
      </trkpt>
      <trkpt lat="44.74206" lon="-0.26267">
        <ele>83</ele>
        <time>2017-05-23T11:36:39Z</time>
      </trkpt>
      <trkpt lat="44.74201" lon="-0.26268">
        <ele>83</ele>
        <time>2017-05-23T11:36:39Z</time>
      </trkpt>
      <trkpt lat="44.74195" lon="-0.26269">
        <ele>83</ele>
        <time>2017-05-23T11:36:55Z</time>
      </trkpt>
      <trkpt lat="44.74189" lon="-0.26268">
        <ele>83</ele>
        <time>2017-05-23T11:36:55Z</time>
      </trkpt>
      <trkpt lat="44.74169" lon="-0.2627">
        <ele>83</ele>
        <time>2017-05-23T11:37:11Z</time>
      </trkpt>
      <trkpt lat="44.74159" lon="-0.26274">
        <ele>83</ele>
        <time>2017-05-23T11:37:11Z</time>
      </trkpt>
      <trkpt lat="44.74154" lon="-0.26279">
        <ele>83</ele>
        <time>2017-05-23T11:37:27Z</time>
      </trkpt>
      <trkpt lat="44.74141" lon="-0.26286">
        <ele>83</ele>
        <time>2017-05-23T11:37:27Z</time>
      </trkpt>
      <trkpt lat="44.74132" lon="-0.26294">
        <ele>83</ele>
        <time>2017-05-23T11:37:43Z</time>
      </trkpt>
      <trkpt lat="44.74119" lon="-0.26303">
        <ele>76</ele>
        <time>2017-05-23T11:37:59Z</time>
      </trkpt>
      <trkpt lat="44.74108" lon="-0.26308">
        <ele>76</ele>
        <time>2017-05-23T11:37:59Z</time>
      </trkpt>
      <trkpt lat="44.74102" lon="-0.26309">
        <ele>76</ele>
        <time>2017-05-23T11:37:59Z</time>
      </trkpt>
      <trkpt lat="44.74084" lon="-0.26309">
        <ele>76</ele>
        <time>2017-05-23T11:38:15Z</time>
      </trkpt>
      <trkpt lat="44.74077" lon="-0.26307">
        <ele>76</ele>
        <time>2017-05-23T11:38:15Z</time>
      </trkpt>
      <trkpt lat="44.74049" lon="-0.26294">
        <ele>76</ele>
        <time>2017-05-23T11:38:51Z</time>
      </trkpt>
      <trkpt lat="44.74049" lon="-0.26291">
        <ele>76</ele>
        <time>2017-05-23T11:38:51Z</time>
      </trkpt>
      <trkpt lat="44.74046" lon="-0.26288">
        <ele>76</ele>
        <time>2017-05-23T11:38:51Z</time>
      </trkpt>
      <trkpt lat="44.74041" lon="-0.26288">
        <ele>71</ele>
        <time>2017-05-23T11:38:51Z</time>
      </trkpt>
      <trkpt lat="44.74022" lon="-0.2628">
        <ele>71</ele>
        <time>2017-05-23T11:39:07Z</time>
      </trkpt>
      <trkpt lat="44.73999" lon="-0.26274">
        <ele>71</ele>
        <time>2017-05-23T11:39:23Z</time>
      </trkpt>
      <trkpt lat="44.73991" lon="-0.26274">
        <ele>71</ele>
        <time>2017-05-23T11:39:39Z</time>
      </trkpt>
      <trkpt lat="44.73981" lon="-0.26268">
        <ele>71</ele>
        <time>2017-05-23T11:39:39Z</time>
      </trkpt>
      <trkpt lat="44.73977" lon="-0.26267">
        <ele>71</ele>
        <time>2017-05-23T11:39:55Z</time>
      </trkpt>
      <trkpt lat="44.73953" lon="-0.26265">
        <ele>67</ele>
        <time>2017-05-23T11:40:11Z</time>
      </trkpt>
      <trkpt lat="44.73938" lon="-0.26273">
        <ele>67</ele>
        <time>2017-05-23T11:40:27Z</time>
      </trkpt>
      <trkpt lat="44.73931" lon="-0.26279">
        <ele>67</ele>
        <time>2017-05-23T11:40:27Z</time>
      </trkpt>
      <trkpt lat="44.73918" lon="-0.26295">
        <ele>70</ele>
        <time>2017-05-23T11:40:43Z</time>
      </trkpt>
      <trkpt lat="44.73913" lon="-0.26298">
        <ele>70</ele>
        <time>2017-05-23T11:40:59Z</time>
      </trkpt>
      <trkpt lat="44.73908" lon="-0.26298">
        <ele>70</ele>
        <time>2017-05-23T11:40:59Z</time>
      </trkpt>
      <trkpt lat="44.73903" lon="-0.26295">
        <ele>70</ele>
        <time>2017-05-23T11:40:59Z</time>
      </trkpt>
      <trkpt lat="44.73898" lon="-0.26291">
        <ele>67</ele>
        <time>2017-05-23T11:40:59Z</time>
      </trkpt>
      <trkpt lat="44.73893" lon="-0.26288">
        <ele>67</ele>
        <time>2017-05-23T11:41:15Z</time>
      </trkpt>
      <trkpt lat="44.7388" lon="-0.26276">
        <ele>67</ele>
        <time>2017-05-23T11:41:31Z</time>
      </trkpt>
      <trkpt lat="44.73876" lon="-0.26274">
        <ele>67</ele>
        <time>2017-05-23T11:41:31Z</time>
      </trkpt>
      <trkpt lat="44.73864" lon="-0.26259">
        <ele>63</ele>
        <time>2017-05-23T11:41:47Z</time>
      </trkpt>
      <trkpt lat="44.7386" lon="-0.26257">
        <ele>63</ele>
        <time>2017-05-23T11:41:47Z</time>
      </trkpt>
      <trkpt lat="44.73842" lon="-0.26244">
        <ele>63</ele>
        <time>2017-05-23T11:42:03Z</time>
      </trkpt>
      <trkpt lat="44.73836" lon="-0.26238">
        <ele>63</ele>
        <time>2017-05-23T11:42:03Z</time>
      </trkpt>
      <trkpt lat="44.73821" lon="-0.26232">
        <ele>63</ele>
        <time>2017-05-23T11:42:19Z</time>
      </trkpt>
      <trkpt lat="44.7381" lon="-0.26221">
        <ele>63</ele>
        <time>2017-05-23T11:42:35Z</time>
      </trkpt>
      <trkpt lat="44.73801" lon="-0.26208">
        <ele>62</ele>
        <time>2017-05-23T11:42:35Z</time>
      </trkpt>
      <trkpt lat="44.73792" lon="-0.26201">
        <ele>62</ele>
        <time>2017-05-23T11:42:51Z</time>
      </trkpt>
      <trkpt lat="44.73785" lon="-0.26192">
        <ele>61</ele>
        <time>2017-05-23T11:42:51Z</time>
      </trkpt>
      <trkpt lat="44.73774" lon="-0.26185">
        <ele>61</ele>
        <time>2017-05-23T11:43:07Z</time>
      </trkpt>
      <trkpt lat="44.73767" lon="-0.26175">
        <ele>61</ele>
        <time>2017-05-23T11:43:07Z</time>
      </trkpt>
      <trkpt lat="44.73764" lon="-0.26173">
        <ele>61</ele>
        <time>2017-05-23T11:43:23Z</time>
      </trkpt>
      <trkpt lat="44.73761" lon="-0.26168">
        <ele>61</ele>
        <time>2017-05-23T11:43:23Z</time>
      </trkpt>
      <trkpt lat="44.7376" lon="-0.2616">
        <ele>61</ele>
        <time>2017-05-23T11:43:23Z</time>
      </trkpt>
      <trkpt lat="44.73758" lon="-0.26154">
        <ele>61</ele>
        <time>2017-05-23T11:43:23Z</time>
      </trkpt>
      <trkpt lat="44.73755" lon="-0.2615">
        <ele>61</ele>
        <time>2017-05-23T11:43:39Z</time>
      </trkpt>
      <trkpt lat="44.73745" lon="-0.26142">
        <ele>61</ele>
        <time>2017-05-23T11:43:39Z</time>
      </trkpt>
      <trkpt lat="44.73742" lon="-0.26142">
        <ele>61</ele>
        <time>2017-05-23T11:43:55Z</time>
      </trkpt>
      <trkpt lat="44.73738" lon="-0.26129">
        <ele>61</ele>
        <time>2017-05-23T11:43:55Z</time>
      </trkpt>
      <trkpt lat="44.73732" lon="-0.26119">
        <ele>60</ele>
        <time>2017-05-23T11:44:11Z</time>
      </trkpt>
      <trkpt lat="44.7372" lon="-0.26103">
        <ele>60</ele>
        <time>2017-05-23T11:44:39Z</time>
      </trkpt>
      <trkpt lat="44.73718" lon="-0.26095">
        <ele>60</ele>
        <time>2017-05-23T11:44:39Z</time>
      </trkpt>
      <trkpt lat="44.73714" lon="-0.26089">
        <ele>60</ele>
        <time>2017-05-23T11:44:59Z</time>
      </trkpt>
      <trkpt lat="44.73711" lon="-0.26088">
        <ele>60</ele>
        <time>2017-05-23T11:44:59Z</time>
      </trkpt>
      <trkpt lat="44.73707" lon="-0.26086">
        <ele>60</ele>
        <time>2017-05-23T11:44:59Z</time>
      </trkpt>
      <trkpt lat="44.73702" lon="-0.26084">
        <ele>60</ele>
        <time>2017-05-23T11:44:59Z</time>
      </trkpt>
      <trkpt lat="44.73693" lon="-0.26078">
        <ele>60</ele>
        <time>2017-05-23T11:45:15Z</time>
      </trkpt>
      <trkpt lat="44.73682" lon="-0.26082">
        <ele>60</ele>
        <time>2017-05-23T11:45:15Z</time>
      </trkpt>
      <trkpt lat="44.73674" lon="-0.26082">
        <ele>60</ele>
        <time>2017-05-23T11:45:31Z</time>
      </trkpt>
      <trkpt lat="44.73671" lon="-0.26083">
        <ele>60</ele>
        <time>2017-05-23T11:45:31Z</time>
      </trkpt>
      <trkpt lat="44.73664" lon="-0.26082">
        <ele>60</ele>
        <time>2017-05-23T11:45:31Z</time>
      </trkpt>
      <trkpt lat="44.73659" lon="-0.26083">
        <ele>60</ele>
        <time>2017-05-23T11:45:47Z</time>
      </trkpt>
      <trkpt lat="44.73644" lon="-0.26083">
        <ele>60</ele>
        <time>2017-05-23T11:45:47Z</time>
      </trkpt>
      <trkpt lat="44.73637" lon="-0.26079">
        <ele>60</ele>
        <time>2017-05-23T11:46:07Z</time>
      </trkpt>
      <trkpt lat="44.73633" lon="-0.2608">
        <ele>60</ele>
        <time>2017-05-23T11:46:07Z</time>
      </trkpt>
      <trkpt lat="44.73629" lon="-0.26084">
        <ele>60</ele>
        <time>2017-05-23T11:46:07Z</time>
      </trkpt>
      <trkpt lat="44.73622" lon="-0.26084">
        <ele>59</ele>
        <time>2017-05-23T11:46:23Z</time>
      </trkpt>
      <trkpt lat="44.73616" lon="-0.26081">
        <ele>59</ele>
        <time>2017-05-23T11:46:23Z</time>
      </trkpt>
      <trkpt lat="44.73611" lon="-0.26082">
        <ele>59</ele>
        <time>2017-05-23T11:46:23Z</time>
      </trkpt>
      <trkpt lat="44.73609" lon="-0.26075">
        <ele>59</ele>
        <time>2017-05-23T11:46:23Z</time>
      </trkpt>
      <trkpt lat="44.7359" lon="-0.26073">
        <ele>59</ele>
        <time>2017-05-23T11:46:39Z</time>
      </trkpt>
      <trkpt lat="44.73575" lon="-0.2606">
        <ele>59</ele>
        <time>2017-05-23T11:46:55Z</time>
      </trkpt>
      <trkpt lat="44.73566" lon="-0.26056">
        <ele>59</ele>
        <time>2017-05-23T11:46:55Z</time>
      </trkpt>
      <trkpt lat="44.73539" lon="-0.26027">
        <ele>63</ele>
        <time>2017-05-23T11:47:27Z</time>
      </trkpt>
      <trkpt lat="44.73524" lon="-0.26016">
        <ele>63</ele>
        <time>2017-05-23T11:47:43Z</time>
      </trkpt>
      <trkpt lat="44.7352" lon="-0.26012">
        <ele>63</ele>
        <time>2017-05-23T11:47:43Z</time>
      </trkpt>
      <trkpt lat="44.73513" lon="-0.26005">
        <ele>63</ele>
        <time>2017-05-23T11:47:43Z</time>
      </trkpt>
      <trkpt lat="44.73508" lon="-0.26004">
        <ele>63</ele>
        <time>2017-05-23T11:47:59Z</time>
      </trkpt>
      <trkpt lat="44.73499" lon="-0.25998">
        <ele>63</ele>
        <time>2017-05-23T11:47:59Z</time>
      </trkpt>
      <trkpt lat="44.73495" lon="-0.25993">
        <ele>63</ele>
        <time>2017-05-23T11:47:59Z</time>
      </trkpt>
      <trkpt lat="44.73485" lon="-0.2599">
        <ele>63</ele>
        <time>2017-05-23T11:48:15Z</time>
      </trkpt>
      <trkpt lat="44.73478" lon="-0.2598">
        <ele>63</ele>
        <time>2017-05-23T11:48:15Z</time>
      </trkpt>
      <trkpt lat="44.73474" lon="-0.25977">
        <ele>63</ele>
        <time>2017-05-23T11:48:31Z</time>
      </trkpt>
      <trkpt lat="44.73465" lon="-0.25971">
        <ele>63</ele>
        <time>2017-05-23T11:48:31Z</time>
      </trkpt>
      <trkpt lat="44.73453" lon="-0.2596">
        <ele>64</ele>
        <time>2017-05-23T11:48:47Z</time>
      </trkpt>
      <trkpt lat="44.73447" lon="-0.25952">
        <ele>67</ele>
        <time>2017-05-23T11:48:47Z</time>
      </trkpt>
      <trkpt lat="44.73447" lon="-0.25935">
        <ele>67</ele>
        <time>2017-05-23T11:49:03Z</time>
      </trkpt>
      <trkpt lat="44.73446" lon="-0.25929">
        <ele>67</ele>
        <time>2017-05-23T11:49:03Z</time>
      </trkpt>
      <trkpt lat="44.73447" lon="-0.25923">
        <ele>67</ele>
        <time>2017-05-23T11:49:03Z</time>
      </trkpt>
      <trkpt lat="44.73451" lon="-0.25919">
        <ele>67</ele>
        <time>2017-05-23T11:49:19Z</time>
      </trkpt>
      <trkpt lat="44.73457" lon="-0.25908">
        <ele>67</ele>
        <time>2017-05-23T11:49:19Z</time>
      </trkpt>
      <trkpt lat="44.73458" lon="-0.25901">
        <ele>67</ele>
        <time>2017-05-23T11:49:19Z</time>
      </trkpt>
      <trkpt lat="44.73456" lon="-0.25893">
        <ele>67</ele>
        <time>2017-05-23T11:49:35Z</time>
      </trkpt>
      <trkpt lat="44.73456" lon="-0.25871">
        <ele>69</ele>
        <time>2017-05-23T11:49:35Z</time>
      </trkpt>
      <trkpt lat="44.73459" lon="-0.25858">
        <ele>65</ele>
        <time>2017-05-23T11:49:51Z</time>
      </trkpt>
      <trkpt lat="44.73462" lon="-0.25849">
        <ele>65</ele>
        <time>2017-05-23T11:49:51Z</time>
      </trkpt>
      <trkpt lat="44.73462" lon="-0.25841">
        <ele>65</ele>
        <time>2017-05-23T11:49:51Z</time>
      </trkpt>
      <trkpt lat="44.73461" lon="-0.25835">
        <ele>65</ele>
        <time>2017-05-23T11:50:07Z</time>
      </trkpt>
      <trkpt lat="44.73466" lon="-0.25821">
        <ele>65</ele>
        <time>2017-05-23T11:50:07Z</time>
      </trkpt>
      <trkpt lat="44.73466" lon="-0.25814">
        <ele>65</ele>
        <time>2017-05-23T11:50:07Z</time>
      </trkpt>
      <trkpt lat="44.73469" lon="-0.25798">
        <ele>65</ele>
        <time>2017-05-23T11:50:23Z</time>
      </trkpt>
      <trkpt lat="44.73471" lon="-0.25791">
        <ele>67</ele>
        <time>2017-05-23T11:50:23Z</time>
      </trkpt>
      <trkpt lat="44.73471" lon="-0.25776">
        <ele>67</ele>
        <time>2017-05-23T11:50:39Z</time>
      </trkpt>
      <trkpt lat="44.73473" lon="-0.2576">
        <ele>67</ele>
        <time>2017-05-23T11:50:39Z</time>
      </trkpt>
      <trkpt lat="44.73472" lon="-0.25754">
        <ele>67</ele>
        <time>2017-05-23T11:50:39Z</time>
      </trkpt>
      <trkpt lat="44.73466" lon="-0.25743">
        <ele>67</ele>
        <time>2017-05-23T11:50:55Z</time>
      </trkpt>
      <trkpt lat="44.73461" lon="-0.25721">
        <ele>67</ele>
        <time>2017-05-23T11:51:11Z</time>
      </trkpt>
      <trkpt lat="44.73459" lon="-0.25697">
        <ele>68</ele>
        <time>2017-05-23T11:51:11Z</time>
      </trkpt>
      <trkpt lat="44.73459" lon="-0.2566">
        <ele>68</ele>
        <time>2017-05-23T11:51:43Z</time>
      </trkpt>
      <trkpt lat="44.7346" lon="-0.25648">
        <ele>68</ele>
        <time>2017-05-23T11:51:43Z</time>
      </trkpt>
      <trkpt lat="44.73458" lon="-0.25645">
        <ele>68</ele>
        <time>2017-05-23T11:51:43Z</time>
      </trkpt>
      <trkpt lat="44.73454" lon="-0.2559">
        <ele>69</ele>
        <time>2017-05-23T11:52:15Z</time>
      </trkpt>
      <trkpt lat="44.73452" lon="-0.25553">
        <ele>69</ele>
        <time>2017-05-23T11:52:31Z</time>
      </trkpt>
      <trkpt lat="44.73451" lon="-0.25547">
        <ele>69</ele>
        <time>2017-05-23T11:52:47Z</time>
      </trkpt>
      <trkpt lat="44.73452" lon="-0.25521">
        <ele>71</ele>
        <time>2017-05-23T11:52:47Z</time>
      </trkpt>
      <trkpt lat="44.73447" lon="-0.25488">
        <ele>71</ele>
        <time>2017-05-23T11:53:19Z</time>
      </trkpt>
      <trkpt lat="44.73444" lon="-0.25475">
        <ele>71</ele>
        <time>2017-05-23T11:53:19Z</time>
      </trkpt>
      <trkpt lat="44.73443" lon="-0.25461">
        <ele>71</ele>
        <time>2017-05-23T11:53:35Z</time>
      </trkpt>
      <trkpt lat="44.73442" lon="-0.25453">
        <ele>72</ele>
        <time>2017-05-23T11:53:35Z</time>
      </trkpt>
      <trkpt lat="44.73432" lon="-0.25414">
        <ele>72</ele>
        <time>2017-05-23T11:53:51Z</time>
      </trkpt>
      <trkpt lat="44.73426" lon="-0.25403">
        <ele>72</ele>
        <time>2017-05-23T11:54:07Z</time>
      </trkpt>
      <trkpt lat="44.73422" lon="-0.25392">
        <ele>72</ele>
        <time>2017-05-23T11:54:07Z</time>
      </trkpt>
      <trkpt lat="44.73418" lon="-0.25387">
        <ele>72</ele>
        <time>2017-05-23T11:54:23Z</time>
      </trkpt>
      <trkpt lat="44.73419" lon="-0.25379">
        <ele>72</ele>
        <time>2017-05-23T11:54:23Z</time>
      </trkpt>
      <trkpt lat="44.73422" lon="-0.25374">
        <ele>70</ele>
        <time>2017-05-23T11:54:23Z</time>
      </trkpt>
      <trkpt lat="44.73435" lon="-0.25361">
        <ele>70</ele>
        <time>2017-05-23T11:54:39Z</time>
      </trkpt>
      <trkpt lat="44.73448" lon="-0.25352">
        <ele>70</ele>
        <time>2017-05-23T11:54:39Z</time>
      </trkpt>
      <trkpt lat="44.73467" lon="-0.25321">
        <ele>71</ele>
        <time>2017-05-23T11:55:11Z</time>
      </trkpt>
      <trkpt lat="44.73472" lon="-0.25316">
        <ele>71</ele>
        <time>2017-05-23T11:55:11Z</time>
      </trkpt>
      <trkpt lat="44.73478" lon="-0.25307">
        <ele>71</ele>
        <time>2017-05-23T11:55:27Z</time>
      </trkpt>
      <trkpt lat="44.73497" lon="-0.25291">
        <ele>74</ele>
        <time>2017-05-23T11:55:43Z</time>
      </trkpt>
      <trkpt lat="44.73502" lon="-0.25287">
        <ele>74</ele>
        <time>2017-05-23T11:55:43Z</time>
      </trkpt>
      <trkpt lat="44.73517" lon="-0.25272">
        <ele>74</ele>
        <time>2017-05-23T11:55:59Z</time>
      </trkpt>
      <trkpt lat="44.73544" lon="-0.25253">
        <ele>76</ele>
        <time>2017-05-23T11:56:15Z</time>
      </trkpt>
      <trkpt lat="44.73551" lon="-0.2525">
        <ele>76</ele>
        <time>2017-05-23T11:56:31Z</time>
      </trkpt>
      <trkpt lat="44.73569" lon="-0.25237">
        <ele>76</ele>
        <time>2017-05-23T11:56:47Z</time>
      </trkpt>
      <trkpt lat="44.73595" lon="-0.25214">
        <ele>76</ele>
        <time>2017-05-23T11:57:03Z</time>
      </trkpt>
      <trkpt lat="44.73612" lon="-0.25188">
        <ele>78</ele>
        <time>2017-05-23T11:57:19Z</time>
      </trkpt>
      <trkpt lat="44.73615" lon="-0.25181">
        <ele>78</ele>
        <time>2017-05-23T11:57:35Z</time>
      </trkpt>
      <trkpt lat="44.73631" lon="-0.25165">
        <ele>81</ele>
        <time>2017-05-23T11:57:55Z</time>
      </trkpt>
      <trkpt lat="44.7364" lon="-0.25158">
        <ele>81</ele>
        <time>2017-05-23T11:57:55Z</time>
      </trkpt>
      <trkpt lat="44.73667" lon="-0.25146">
        <ele>81</ele>
        <time>2017-05-23T11:58:27Z</time>
      </trkpt>
      <trkpt lat="44.73689" lon="-0.25145">
        <ele>81</ele>
        <time>2017-05-23T11:58:43Z</time>
      </trkpt>
      <trkpt lat="44.73694" lon="-0.25143">
        <ele>81</ele>
        <time>2017-05-23T11:58:43Z</time>
      </trkpt>
      <trkpt lat="44.73703" lon="-0.25137">
        <ele>81</ele>
        <time>2017-05-23T11:58:59Z</time>
      </trkpt>
      <trkpt lat="44.7371" lon="-0.2513">
        <ele>84</ele>
        <time>2017-05-23T11:58:59Z</time>
      </trkpt>
      <trkpt lat="44.73715" lon="-0.2512">
        <ele>89</ele>
        <time>2017-05-23T11:59:15Z</time>
      </trkpt>
      <trkpt lat="44.73721" lon="-0.25078">
        <ele>89</ele>
        <time>2017-05-23T11:59:31Z</time>
      </trkpt>
      <trkpt lat="44.73721" lon="-0.25072">
        <ele>89</ele>
        <time>2017-05-23T11:59:31Z</time>
      </trkpt>
      <trkpt lat="44.73723" lon="-0.25048">
        <ele>89</ele>
        <time>2017-05-23T11:59:47Z</time>
      </trkpt>
      <trkpt lat="44.73724" lon="-0.25048">
        <ele>89</ele>
        <time>2017-05-23T12:00:39Z</time>
      </trkpt>
      <trkpt lat="44.73721" lon="-0.25045">
        <ele>89</ele>
        <time>2017-05-23T12:00:39Z</time>
      </trkpt>
      <trkpt lat="44.73721" lon="-0.25033">
        <ele>90</ele>
        <time>2017-05-23T12:00:39Z</time>
      </trkpt>
      <trkpt lat="44.73719" lon="-0.25018">
        <ele>90</ele>
        <time>2017-05-23T12:00:55Z</time>
      </trkpt>
      <trkpt lat="44.7372" lon="-0.25">
        <ele>90</ele>
        <time>2017-05-23T12:01:11Z</time>
      </trkpt>
      <trkpt lat="44.73719" lon="-0.24993">
        <ele>90</ele>
        <time>2017-05-23T12:01:11Z</time>
      </trkpt>
      <trkpt lat="44.7372" lon="-0.24985">
        <ele>90</ele>
        <time>2017-05-23T12:01:11Z</time>
      </trkpt>
      <trkpt lat="44.73725" lon="-0.24979">
        <ele>90</ele>
        <time>2017-05-23T12:01:27Z</time>
      </trkpt>
      <trkpt lat="44.73729" lon="-0.24966">
        <ele>90</ele>
        <time>2017-05-23T12:01:27Z</time>
      </trkpt>
      <trkpt lat="44.73729" lon="-0.24958">
        <ele>91</ele>
        <time>2017-05-23T12:01:27Z</time>
      </trkpt>
      <trkpt lat="44.73733" lon="-0.24927">
        <ele>91</ele>
        <time>2017-05-23T12:01:43Z</time>
      </trkpt>
      <trkpt lat="44.73732" lon="-0.24914">
        <ele>91</ele>
        <time>2017-05-23T12:01:59Z</time>
      </trkpt>
      <trkpt lat="44.73734" lon="-0.24901">
        <ele>91</ele>
        <time>2017-05-23T12:01:59Z</time>
      </trkpt>
      <trkpt lat="44.73734" lon="-0.24885">
        <ele>91</ele>
        <time>2017-05-23T12:02:15Z</time>
      </trkpt>
      <trkpt lat="44.73738" lon="-0.24852">
        <ele>93</ele>
        <time>2017-05-23T12:02:31Z</time>
      </trkpt>
      <trkpt lat="44.73739" lon="-0.24844">
        <ele>93</ele>
        <time>2017-05-23T12:02:31Z</time>
      </trkpt>
      <trkpt lat="44.73742" lon="-0.24828">
        <ele>93</ele>
        <time>2017-05-23T12:02:47Z</time>
      </trkpt>
      <trkpt lat="44.73744" lon="-0.24814">
        <ele>93</ele>
        <time>2017-05-23T12:02:47Z</time>
      </trkpt>
      <trkpt lat="44.73752" lon="-0.24786">
        <ele>98</ele>
        <time>2017-05-23T12:03:03Z</time>
      </trkpt>
      <trkpt lat="44.73753" lon="-0.24777">
        <ele>98</ele>
        <time>2017-05-23T12:03:19Z</time>
      </trkpt>
      <trkpt lat="44.73762" lon="-0.24753">
        <ele>98</ele>
        <time>2017-05-23T12:03:35Z</time>
      </trkpt>
      <trkpt lat="44.7376" lon="-0.24739">
        <ele>98</ele>
        <time>2017-05-23T12:03:35Z</time>
      </trkpt>
      <trkpt lat="44.73761" lon="-0.24728">
        <ele>98</ele>
        <time>2017-05-23T12:03:51Z</time>
      </trkpt>
      <trkpt lat="44.73763" lon="-0.24714">
        <ele>98</ele>
        <time>2017-05-23T12:03:51Z</time>
      </trkpt>
      <trkpt lat="44.73763" lon="-0.24684">
        <ele>101</ele>
        <time>2017-05-23T12:04:07Z</time>
      </trkpt>
      <trkpt lat="44.73766" lon="-0.24669">
        <ele>101</ele>
        <time>2017-05-23T12:04:23Z</time>
      </trkpt>
      <trkpt lat="44.73765" lon="-0.24656">
        <ele>101</ele>
        <time>2017-05-23T12:04:23Z</time>
      </trkpt>
      <trkpt lat="44.73765" lon="-0.24651">
        <ele>101</ele>
        <time>2017-05-23T12:04:23Z</time>
      </trkpt>
      <trkpt lat="44.73764" lon="-0.24631">
        <ele>101</ele>
        <time>2017-05-23T12:04:39Z</time>
      </trkpt>
      <trkpt lat="44.7377" lon="-0.24596">
        <ele>105</ele>
        <time>2017-05-23T12:04:55Z</time>
      </trkpt>
      <trkpt lat="44.7377" lon="-0.24589">
        <ele>105</ele>
        <time>2017-05-23T12:05:11Z</time>
      </trkpt>
      <trkpt lat="44.73775" lon="-0.24576">
        <ele>105</ele>
        <time>2017-05-23T12:05:11Z</time>
      </trkpt>
      <trkpt lat="44.73776" lon="-0.24572">
        <ele>105</ele>
        <time>2017-05-23T12:05:11Z</time>
      </trkpt>
      <trkpt lat="44.73775" lon="-0.24565">
        <ele>105</ele>
        <time>2017-05-23T12:05:27Z</time>
      </trkpt>
      <trkpt lat="44.73776" lon="-0.24553">
        <ele>105</ele>
        <time>2017-05-23T12:05:27Z</time>
      </trkpt>
      <trkpt lat="44.73773" lon="-0.24541">
        <ele>110</ele>
        <time>2017-05-23T12:05:43Z</time>
      </trkpt>
      <trkpt lat="44.73775" lon="-0.24536">
        <ele>110</ele>
        <time>2017-05-23T12:05:43Z</time>
      </trkpt>
      <trkpt lat="44.73778" lon="-0.24502">
        <ele>110</ele>
        <time>2017-05-23T12:05:59Z</time>
      </trkpt>
      <trkpt lat="44.7378" lon="-0.24486">
        <ele>110</ele>
        <time>2017-05-23T12:06:15Z</time>
      </trkpt>
      <trkpt lat="44.73785" lon="-0.24474">
        <ele>110</ele>
        <time>2017-05-23T12:06:15Z</time>
      </trkpt>
      <trkpt lat="44.73789" lon="-0.24469">
        <ele>110</ele>
        <time>2017-05-23T12:06:31Z</time>
      </trkpt>
      <trkpt lat="44.7379" lon="-0.24463">
        <ele>110</ele>
        <time>2017-05-23T12:06:31Z</time>
      </trkpt>
      <trkpt lat="44.73795" lon="-0.24453">
        <ele>113</ele>
        <time>2017-05-23T12:06:31Z</time>
      </trkpt>
      <trkpt lat="44.73798" lon="-0.2445">
        <ele>113</ele>
        <time>2017-05-23T12:06:47Z</time>
      </trkpt>
      <trkpt lat="44.73805" lon="-0.24437">
        <ele>113</ele>
        <time>2017-05-23T12:06:47Z</time>
      </trkpt>
      <trkpt lat="44.73818" lon="-0.24425">
        <ele>113</ele>
        <time>2017-05-23T12:07:03Z</time>
      </trkpt>
      <trkpt lat="44.73824" lon="-0.24419">
        <ele>113</ele>
        <time>2017-05-23T12:07:03Z</time>
      </trkpt>
      <trkpt lat="44.73829" lon="-0.24411">
        <ele>113</ele>
        <time>2017-05-23T12:07:03Z</time>
      </trkpt>
      <trkpt lat="44.73834" lon="-0.24405">
        <ele>113</ele>
        <time>2017-05-23T12:07:19Z</time>
      </trkpt>
      <trkpt lat="44.7384" lon="-0.24394">
        <ele>113</ele>
        <time>2017-05-23T12:07:19Z</time>
      </trkpt>
      <trkpt lat="44.73847" lon="-0.24371">
        <ele>112</ele>
        <time>2017-05-23T12:07:35Z</time>
      </trkpt>
      <trkpt lat="44.73847" lon="-0.24365">
        <ele>112</ele>
        <time>2017-05-23T12:07:35Z</time>
      </trkpt>
      <trkpt lat="44.7385" lon="-0.24358">
        <ele>112</ele>
        <time>2017-05-23T12:07:51Z</time>
      </trkpt>
      <trkpt lat="44.73852" lon="-0.24351">
        <ele>112</ele>
        <time>2017-05-23T12:07:51Z</time>
      </trkpt>
      <trkpt lat="44.73855" lon="-0.24343">
        <ele>112</ele>
        <time>2017-05-23T12:07:51Z</time>
      </trkpt>
      <trkpt lat="44.73857" lon="-0.24331">
        <ele>112</ele>
        <time>2017-05-23T12:08:07Z</time>
      </trkpt>
      <trkpt lat="44.73857" lon="-0.24324">
        <ele>112</ele>
        <time>2017-05-23T12:08:07Z</time>
      </trkpt>
      <trkpt lat="44.7386" lon="-0.24317">
        <ele>112</ele>
        <time>2017-05-23T12:08:07Z</time>
      </trkpt>
      <trkpt lat="44.73864" lon="-0.24314">
        <ele>112</ele>
        <time>2017-05-23T12:08:07Z</time>
      </trkpt>
      <trkpt lat="44.73869" lon="-0.243">
        <ele>112</ele>
        <time>2017-05-23T12:08:23Z</time>
      </trkpt>
      <trkpt lat="44.73869" lon="-0.24284">
        <ele>113</ele>
        <time>2017-05-23T12:08:23Z</time>
      </trkpt>
      <trkpt lat="44.73867" lon="-0.24279">
        <ele>113</ele>
        <time>2017-05-23T12:08:39Z</time>
      </trkpt>
      <trkpt lat="44.7387" lon="-0.24258">
        <ele>113</ele>
        <time>2017-05-23T12:08:39Z</time>
      </trkpt>
      <trkpt lat="44.73872" lon="-0.24252">
        <ele>113</ele>
        <time>2017-05-23T12:08:55Z</time>
      </trkpt>
      <trkpt lat="44.73872" lon="-0.24243">
        <ele>113</ele>
        <time>2017-05-23T12:08:55Z</time>
      </trkpt>
      <trkpt lat="44.73875" lon="-0.24225">
        <ele>113</ele>
        <time>2017-05-23T12:08:55Z</time>
      </trkpt>
      <trkpt lat="44.73878" lon="-0.2422">
        <ele>116</ele>
        <time>2017-05-23T12:09:11Z</time>
      </trkpt>
      <trkpt lat="44.73884" lon="-0.24184">
        <ele>116</ele>
        <time>2017-05-23T12:09:27Z</time>
      </trkpt>
      <trkpt lat="44.73888" lon="-0.24175">
        <ele>116</ele>
        <time>2017-05-23T12:09:27Z</time>
      </trkpt>
      <trkpt lat="44.73888" lon="-0.24167">
        <ele>116</ele>
        <time>2017-05-23T12:09:43Z</time>
      </trkpt>
      <trkpt lat="44.73891" lon="-0.24162">
        <ele>116</ele>
        <time>2017-05-23T12:09:43Z</time>
      </trkpt>
      <trkpt lat="44.73895" lon="-0.24157">
        <ele>116</ele>
        <time>2017-05-23T12:09:43Z</time>
      </trkpt>
      <trkpt lat="44.73899" lon="-0.24156">
        <ele>116</ele>
        <time>2017-05-23T12:09:43Z</time>
      </trkpt>
      <trkpt lat="44.73913" lon="-0.24152">
        <ele>116</ele>
        <time>2017-05-23T12:09:59Z</time>
      </trkpt>
      <trkpt lat="44.73925" lon="-0.24151">
        <ele>116</ele>
        <time>2017-05-23T12:10:15Z</time>
      </trkpt>
      <trkpt lat="44.73929" lon="-0.24153">
        <ele>116</ele>
        <time>2017-05-23T12:10:15Z</time>
      </trkpt>
      <trkpt lat="44.73933" lon="-0.24152">
        <ele>116</ele>
        <time>2017-05-23T12:10:15Z</time>
      </trkpt>
      <trkpt lat="44.7394" lon="-0.24149">
        <ele>116</ele>
        <time>2017-05-23T12:10:31Z</time>
      </trkpt>
      <trkpt lat="44.73955" lon="-0.24148">
        <ele>116</ele>
        <time>2017-05-23T12:10:31Z</time>
      </trkpt>
      <trkpt lat="44.73965" lon="-0.24149">
        <ele>120</ele>
        <time>2017-05-23T12:10:55Z</time>
      </trkpt>
      <trkpt lat="44.73968" lon="-0.24148">
        <ele>120</ele>
        <time>2017-05-23T12:10:55Z</time>
      </trkpt>
      <trkpt lat="44.73979" lon="-0.24163">
        <ele>120</ele>
        <time>2017-05-23T12:10:55Z</time>
      </trkpt>
      <trkpt lat="44.73982" lon="-0.24156">
        <ele>120</ele>
        <time>2017-05-23T12:11:15Z</time>
      </trkpt>
      <trkpt lat="44.7398" lon="-0.24152">
        <ele>120</ele>
        <time>2017-05-23T12:11:15Z</time>
      </trkpt>
      <trkpt lat="44.73984" lon="-0.24145">
        <ele>120</ele>
        <time>2017-05-23T12:11:15Z</time>
      </trkpt>
      <trkpt lat="44.73984" lon="-0.24139">
        <ele>120</ele>
        <time>2017-05-23T12:11:31Z</time>
      </trkpt>
      <trkpt lat="44.73989" lon="-0.24122">
        <ele>117</ele>
        <time>2017-05-23T12:11:31Z</time>
      </trkpt>
      <trkpt lat="44.7399" lon="-0.24116">
        <ele>117</ele>
        <time>2017-05-23T12:11:31Z</time>
      </trkpt>
      <trkpt lat="44.73994" lon="-0.24101">
        <ele>117</ele>
        <time>2017-05-23T12:12:15Z</time>
      </trkpt>
      <trkpt lat="44.73993" lon="-0.24099">
        <ele>117</ele>
        <time>2017-05-23T12:12:15Z</time>
      </trkpt>
      <trkpt lat="44.73994" lon="-0.24096">
        <ele>117</ele>
        <time>2017-05-23T12:12:15Z</time>
      </trkpt>
      <trkpt lat="44.73986" lon="-0.24085">
        <ele>117</ele>
        <time>2017-05-23T12:12:31Z</time>
      </trkpt>
      <trkpt lat="44.73987" lon="-0.24085">
        <ele>117</ele>
        <time>2017-05-23T12:12:31Z</time>
      </trkpt>
      <trkpt lat="44.73988" lon="-0.24078">
        <ele>117</ele>
        <time>2017-05-23T12:12:31Z</time>
      </trkpt>
      <trkpt lat="44.73992" lon="-0.24074">
        <ele>117</ele>
        <time>2017-05-23T12:12:31Z</time>
      </trkpt>
      <trkpt lat="44.73993" lon="-0.24064">
        <ele>117</ele>
        <time>2017-05-23T12:12:51Z</time>
      </trkpt>
      <trkpt lat="44.73991" lon="-0.2406">
        <ele>117</ele>
        <time>2017-05-23T12:12:51Z</time>
      </trkpt>
      <trkpt lat="44.73999" lon="-0.24037">
        <ele>114</ele>
        <time>2017-05-23T12:13:07Z</time>
      </trkpt>
      <trkpt lat="44.73998" lon="-0.24032">
        <ele>114</ele>
        <time>2017-05-23T12:13:07Z</time>
      </trkpt>
      <trkpt lat="44.74" lon="-0.2402">
        <ele>114</ele>
        <time>2017-05-23T12:13:23Z</time>
      </trkpt>
      <trkpt lat="44.74002" lon="-0.24014">
        <ele>114</ele>
        <time>2017-05-23T12:13:23Z</time>
      </trkpt>
      <trkpt lat="44.74004" lon="-0.23994">
        <ele>114</ele>
        <time>2017-05-23T12:13:39Z</time>
      </trkpt>
      <trkpt lat="44.74011" lon="-0.23973">
        <ele>114</ele>
        <time>2017-05-23T12:13:55Z</time>
      </trkpt>
      <trkpt lat="44.74014" lon="-0.23959">
        <ele>114</ele>
        <time>2017-05-23T12:13:55Z</time>
      </trkpt>
      <trkpt lat="44.74022" lon="-0.23946">
        <ele>114</ele>
        <time>2017-05-23T12:14:11Z</time>
      </trkpt>
      <trkpt lat="44.74022" lon="-0.2394">
        <ele>114</ele>
        <time>2017-05-23T12:14:11Z</time>
      </trkpt>
      <trkpt lat="44.74021" lon="-0.23935">
        <ele>114</ele>
        <time>2017-05-23T12:14:11Z</time>
      </trkpt>
      <trkpt lat="44.74022" lon="-0.23931">
        <ele>114</ele>
        <time>2017-05-23T12:14:11Z</time>
      </trkpt>
      <trkpt lat="44.74025" lon="-0.23925">
        <ele>114</ele>
        <time>2017-05-23T12:14:27Z</time>
      </trkpt>
      <trkpt lat="44.74027" lon="-0.23902">
        <ele>114</ele>
        <time>2017-05-23T12:14:27Z</time>
      </trkpt>
      <trkpt lat="44.74025" lon="-0.23894">
        <ele>114</ele>
        <time>2017-05-23T12:14:43Z</time>
      </trkpt>
      <trkpt lat="44.74025" lon="-0.23887">
        <ele>114</ele>
        <time>2017-05-23T12:14:43Z</time>
      </trkpt>
      <trkpt lat="44.74029" lon="-0.23877">
        <ele>114</ele>
        <time>2017-05-23T12:14:43Z</time>
      </trkpt>
      <trkpt lat="44.74024" lon="-0.23876">
        <ele>114</ele>
        <time>2017-05-23T12:32:46Z</time>
      </trkpt>
      <trkpt lat="44.74021" lon="-0.23882">
        <ele>114</ele>
        <time>2017-05-23T12:32:46Z</time>
      </trkpt>
      <trkpt lat="44.74016" lon="-0.23874">
        <ele>112</ele>
        <time>2017-05-23T12:32:46Z</time>
      </trkpt>
      <trkpt lat="44.7402" lon="-0.23857">
        <ele>112</ele>
        <time>2017-05-23T12:32:46Z</time>
      </trkpt>
      <trkpt lat="44.74035" lon="-0.23842">
        <ele>112</ele>
        <time>2017-05-23T12:32:46Z</time>
      </trkpt>
      <trkpt lat="44.74043" lon="-0.23858">
        <ele>98</ele>
        <time>2017-05-23T12:33:06Z</time>
      </trkpt>
      <trkpt lat="44.74038" lon="-0.23862">
        <ele>112</ele>
        <time>2017-05-23T12:33:06Z</time>
      </trkpt>
      <trkpt lat="44.74041" lon="-0.2385">
        <ele>112</ele>
        <time>2017-05-23T12:33:06Z</time>
      </trkpt>
      <trkpt lat="44.74044" lon="-0.23849">
        <ele>98</ele>
        <time>2017-05-23T12:33:06Z</time>
      </trkpt>
      <trkpt lat="44.7405" lon="-0.23841">
        <ele>98</ele>
        <time>2017-05-23T12:33:06Z</time>
      </trkpt>
      <trkpt lat="44.74036" lon="-0.23835">
        <ele>112</ele>
        <time>2017-05-23T12:33:50Z</time>
      </trkpt>
      <trkpt lat="44.74032" lon="-0.23815">
        <ele>112</ele>
        <time>2017-05-23T12:33:50Z</time>
      </trkpt>
      <trkpt lat="44.74038" lon="-0.23814">
        <ele>112</ele>
        <time>2017-05-23T12:34:10Z</time>
      </trkpt>
      <trkpt lat="44.7404" lon="-0.23811">
        <ele>112</ele>
        <time>2017-05-23T12:34:10Z</time>
      </trkpt>
      <trkpt lat="44.74044" lon="-0.23802">
        <ele>98</ele>
        <time>2017-05-23T12:34:10Z</time>
      </trkpt>
      <trkpt lat="44.74043" lon="-0.23796">
        <ele>98</ele>
        <time>2017-05-23T12:34:30Z</time>
      </trkpt>
      <trkpt lat="44.74044" lon="-0.23793">
        <ele>98</ele>
        <time>2017-05-23T12:34:30Z</time>
      </trkpt>
      <trkpt lat="44.74043" lon="-0.23788">
        <ele>98</ele>
        <time>2017-05-23T12:34:30Z</time>
      </trkpt>
      <trkpt lat="44.74046" lon="-0.2377">
        <ele>98</ele>
        <time>2017-05-23T12:34:46Z</time>
      </trkpt>
      <trkpt lat="44.74051" lon="-0.23759">
        <ele>98</ele>
        <time>2017-05-23T12:34:46Z</time>
      </trkpt>
      <trkpt lat="44.74049" lon="-0.23752">
        <ele>98</ele>
        <time>2017-05-23T12:35:02Z</time>
      </trkpt>
      <trkpt lat="44.7405" lon="-0.23747">
        <ele>98</ele>
        <time>2017-05-23T12:35:02Z</time>
      </trkpt>
      <trkpt lat="44.74051" lon="-0.23739">
        <ele>98</ele>
        <time>2017-05-23T12:35:02Z</time>
      </trkpt>
      <trkpt lat="44.74061" lon="-0.23727">
        <ele>98</ele>
        <time>2017-05-23T12:35:18Z</time>
      </trkpt>
      <trkpt lat="44.74068" lon="-0.23722">
        <ele>98</ele>
        <time>2017-05-23T12:35:18Z</time>
      </trkpt>
      <trkpt lat="44.74072" lon="-0.23718">
        <ele>98</ele>
        <time>2017-05-23T12:35:18Z</time>
      </trkpt>
      <trkpt lat="44.74073" lon="-0.23714">
        <ele>98</ele>
        <time>2017-05-23T12:35:18Z</time>
      </trkpt>
      <trkpt lat="44.74076" lon="-0.23711">
        <ele>98</ele>
        <time>2017-05-23T12:35:34Z</time>
      </trkpt>
      <trkpt lat="44.74077" lon="-0.23708">
        <ele>98</ele>
        <time>2017-05-23T12:35:34Z</time>
      </trkpt>
      <trkpt lat="44.74073" lon="-0.23694">
        <ele>98</ele>
        <time>2017-05-23T12:35:34Z</time>
      </trkpt>
      <trkpt lat="44.74074" lon="-0.23688">
        <ele>98</ele>
        <time>2017-05-23T12:35:50Z</time>
      </trkpt>
      <trkpt lat="44.74078" lon="-0.2368">
        <ele>98</ele>
        <time>2017-05-23T12:35:50Z</time>
      </trkpt>
      <trkpt lat="44.74079" lon="-0.23666">
        <ele>98</ele>
        <time>2017-05-23T12:36:06Z</time>
      </trkpt>
      <trkpt lat="44.74084" lon="-0.23649">
        <ele>98</ele>
        <time>2017-05-23T12:36:06Z</time>
      </trkpt>
      <trkpt lat="44.74087" lon="-0.23646">
        <ele>98</ele>
        <time>2017-05-23T12:36:22Z</time>
      </trkpt>
      <trkpt lat="44.7409" lon="-0.2363">
        <ele>98</ele>
        <time>2017-05-23T12:36:22Z</time>
      </trkpt>
      <trkpt lat="44.74091" lon="-0.2362">
        <ele>95</ele>
        <time>2017-05-23T12:36:22Z</time>
      </trkpt>
      <trkpt lat="44.74101" lon="-0.23611">
        <ele>95</ele>
        <time>2017-05-23T12:36:38Z</time>
      </trkpt>
      <trkpt lat="44.74109" lon="-0.23598">
        <ele>95</ele>
        <time>2017-05-23T12:36:38Z</time>
      </trkpt>
      <trkpt lat="44.7411" lon="-0.23594">
        <ele>95</ele>
        <time>2017-05-23T12:36:54Z</time>
      </trkpt>
      <trkpt lat="44.74109" lon="-0.23588">
        <ele>95</ele>
        <time>2017-05-23T12:36:54Z</time>
      </trkpt>
      <trkpt lat="44.74112" lon="-0.23581">
        <ele>95</ele>
        <time>2017-05-23T12:36:54Z</time>
      </trkpt>
      <trkpt lat="44.74117" lon="-0.23575">
        <ele>95</ele>
        <time>2017-05-23T12:36:54Z</time>
      </trkpt>
      <trkpt lat="44.74122" lon="-0.23568">
        <ele>95</ele>
        <time>2017-05-23T12:37:10Z</time>
      </trkpt>
      <trkpt lat="44.74126" lon="-0.23553">
        <ele>88</ele>
        <time>2017-05-23T12:37:10Z</time>
      </trkpt>
      <trkpt lat="44.74133" lon="-0.23542">
        <ele>88</ele>
        <time>2017-05-23T12:37:26Z</time>
      </trkpt>
      <trkpt lat="44.74135" lon="-0.23537">
        <ele>89</ele>
        <time>2017-05-23T12:37:26Z</time>
      </trkpt>
      <trkpt lat="44.74138" lon="-0.23531">
        <ele>89</ele>
        <time>2017-05-23T12:37:42Z</time>
      </trkpt>
      <trkpt lat="44.7415" lon="-0.23526">
        <ele>89</ele>
        <time>2017-05-23T12:37:42Z</time>
      </trkpt>
      <trkpt lat="44.74156" lon="-0.23518">
        <ele>89</ele>
        <time>2017-05-23T12:37:42Z</time>
      </trkpt>
      <trkpt lat="44.74169" lon="-0.23507">
        <ele>89</ele>
        <time>2017-05-23T12:37:58Z</time>
      </trkpt>
      <trkpt lat="44.74171" lon="-0.235">
        <ele>89</ele>
        <time>2017-05-23T12:37:58Z</time>
      </trkpt>
      <trkpt lat="44.74181" lon="-0.23482">
        <ele>89</ele>
        <time>2017-05-23T12:38:14Z</time>
      </trkpt>
      <trkpt lat="44.74197" lon="-0.23457">
        <ele>94</ele>
        <time>2017-05-23T12:38:30Z</time>
      </trkpt>
      <trkpt lat="44.74228" lon="-0.23421">
        <ele>90</ele>
        <time>2017-05-23T12:39:02Z</time>
      </trkpt>
      <trkpt lat="44.7425" lon="-0.23406">
        <ele>90</ele>
        <time>2017-05-23T12:39:18Z</time>
      </trkpt>
      <trkpt lat="44.74254" lon="-0.23401">
        <ele>90</ele>
        <time>2017-05-23T12:39:18Z</time>
      </trkpt>
      <trkpt lat="44.74263" lon="-0.23394">
        <ele>90</ele>
        <time>2017-05-23T12:39:34Z</time>
      </trkpt>
      <trkpt lat="44.74275" lon="-0.23373">
        <ele>89</ele>
        <time>2017-05-23T12:39:50Z</time>
      </trkpt>
      <trkpt lat="44.74278" lon="-0.23361">
        <ele>89</ele>
        <time>2017-05-23T12:39:50Z</time>
      </trkpt>
      <trkpt lat="44.74288" lon="-0.23337">
        <ele>89</ele>
        <time>2017-05-23T12:40:06Z</time>
      </trkpt>
      <trkpt lat="44.74307" lon="-0.23314">
        <ele>81</ele>
        <time>2017-05-23T12:40:38Z</time>
      </trkpt>
      <trkpt lat="44.74314" lon="-0.233">
        <ele>81</ele>
        <time>2017-05-23T12:40:38Z</time>
      </trkpt>
      <trkpt lat="44.74318" lon="-0.23295">
        <ele>81</ele>
        <time>2017-05-23T12:40:38Z</time>
      </trkpt>
      <trkpt lat="44.74323" lon="-0.23294">
        <ele>81</ele>
        <time>2017-05-23T12:40:54Z</time>
      </trkpt>
      <trkpt lat="44.74327" lon="-0.2329">
        <ele>79</ele>
        <time>2017-05-23T12:40:54Z</time>
      </trkpt>
      <trkpt lat="44.74331" lon="-0.23283">
        <ele>79</ele>
        <time>2017-05-23T12:40:54Z</time>
      </trkpt>
      <trkpt lat="44.74337" lon="-0.23278">
        <ele>79</ele>
        <time>2017-05-23T12:40:54Z</time>
      </trkpt>
      <trkpt lat="44.7434" lon="-0.23272">
        <ele>79</ele>
        <time>2017-05-23T12:41:10Z</time>
      </trkpt>
      <trkpt lat="44.74351" lon="-0.2325">
        <ele>79</ele>
        <time>2017-05-23T12:41:10Z</time>
      </trkpt>
      <trkpt lat="44.74351" lon="-0.23245">
        <ele>79</ele>
        <time>2017-05-23T12:41:26Z</time>
      </trkpt>
      <trkpt lat="44.74349" lon="-0.2324">
        <ele>79</ele>
        <time>2017-05-23T12:41:26Z</time>
      </trkpt>
      <trkpt lat="44.74353" lon="-0.23221">
        <ele>79</ele>
        <time>2017-05-23T12:41:42Z</time>
      </trkpt>
      <trkpt lat="44.74363" lon="-0.23186">
        <ele>74</ele>
        <time>2017-05-23T12:41:58Z</time>
      </trkpt>
      <trkpt lat="44.74364" lon="-0.23173">
        <ele>74</ele>
        <time>2017-05-23T12:41:58Z</time>
      </trkpt>
      <trkpt lat="44.74368" lon="-0.2316">
        <ele>74</ele>
        <time>2017-05-23T12:42:14Z</time>
      </trkpt>
      <trkpt lat="44.74374" lon="-0.23134">
        <ele>74</ele>
        <time>2017-05-23T12:42:30Z</time>
      </trkpt>
      <trkpt lat="44.74382" lon="-0.23108">
        <ele>67</ele>
        <time>2017-05-23T12:42:46Z</time>
      </trkpt>
      <trkpt lat="44.74394" lon="-0.23073">
        <ele>67</ele>
        <time>2017-05-23T12:43:02Z</time>
      </trkpt>
      <trkpt lat="44.74399" lon="-0.23045">
        <ele>67</ele>
        <time>2017-05-23T12:43:18Z</time>
      </trkpt>
      <trkpt lat="44.74408" lon="-0.23019">
        <ele>69</ele>
        <time>2017-05-23T12:43:34Z</time>
      </trkpt>
      <trkpt lat="44.74409" lon="-0.23012">
        <ele>69</ele>
        <time>2017-05-23T12:43:34Z</time>
      </trkpt>
      <trkpt lat="44.74408" lon="-0.2299">
        <ele>69</ele>
        <time>2017-05-23T12:43:50Z</time>
      </trkpt>
      <trkpt lat="44.74417" lon="-0.22949">
        <ele>69</ele>
        <time>2017-05-23T12:44:22Z</time>
      </trkpt>
      <trkpt lat="44.7442" lon="-0.22935">
        <ele>69</ele>
        <time>2017-05-23T12:44:22Z</time>
      </trkpt>
      <trkpt lat="44.74424" lon="-0.22915">
        <ele>69</ele>
        <time>2017-05-23T12:44:38Z</time>
      </trkpt>
      <trkpt lat="44.74424" lon="-0.22907">
        <ele>69</ele>
        <time>2017-05-23T12:44:38Z</time>
      </trkpt>
      <trkpt lat="44.74429" lon="-0.22873">
        <ele>70</ele>
        <time>2017-05-23T12:45:10Z</time>
      </trkpt>
      <trkpt lat="44.74429" lon="-0.22848">
        <ele>70</ele>
        <time>2017-05-23T12:45:26Z</time>
      </trkpt>
      <trkpt lat="44.74431" lon="-0.2281">
        <ele>70</ele>
        <time>2017-05-23T12:45:42Z</time>
      </trkpt>
      <trkpt lat="44.74432" lon="-0.22773">
        <ele>72</ele>
        <time>2017-05-23T12:45:58Z</time>
      </trkpt>
      <trkpt lat="44.7443" lon="-0.22755">
        <ele>72</ele>
        <time>2017-05-23T12:46:14Z</time>
      </trkpt>
      <trkpt lat="44.7443" lon="-0.22732">
        <ele>72</ele>
        <time>2017-05-23T12:46:30Z</time>
      </trkpt>
      <trkpt lat="44.74428" lon="-0.22711">
        <ele>72</ele>
        <time>2017-05-23T12:46:30Z</time>
      </trkpt>
      <trkpt lat="44.74425" lon="-0.22699">
        <ele>74</ele>
        <time>2017-05-23T12:46:46Z</time>
      </trkpt>
      <trkpt lat="44.74419" lon="-0.22677">
        <ele>74</ele>
        <time>2017-05-23T12:47:02Z</time>
      </trkpt>
      <trkpt lat="44.74419" lon="-0.22662">
        <ele>74</ele>
        <time>2017-05-23T12:47:02Z</time>
      </trkpt>
      <trkpt lat="44.74418" lon="-0.22648">
        <ele>74</ele>
        <time>2017-05-23T12:47:18Z</time>
      </trkpt>
      <trkpt lat="44.74418" lon="-0.22641">
        <ele>74</ele>
        <time>2017-05-23T12:47:18Z</time>
      </trkpt>
      <trkpt lat="44.7442" lon="-0.22634">
        <ele>74</ele>
        <time>2017-05-23T12:47:18Z</time>
      </trkpt>
      <trkpt lat="44.74424" lon="-0.22629">
        <ele>74</ele>
        <time>2017-05-23T12:47:18Z</time>
      </trkpt>
      <trkpt lat="44.74426" lon="-0.22623">
        <ele>72</ele>
        <time>2017-05-23T12:47:34Z</time>
      </trkpt>
      <trkpt lat="44.74424" lon="-0.22587">
        <ele>72</ele>
        <time>2017-05-23T12:47:50Z</time>
      </trkpt>
      <trkpt lat="44.74422" lon="-0.22573">
        <ele>72</ele>
        <time>2017-05-23T12:47:50Z</time>
      </trkpt>
      <trkpt lat="44.74425" lon="-0.22568">
        <ele>72</ele>
        <time>2017-05-23T12:48:06Z</time>
      </trkpt>
      <trkpt lat="44.7443" lon="-0.22565">
        <ele>72</ele>
        <time>2017-05-23T12:48:06Z</time>
      </trkpt>
      <trkpt lat="44.7444" lon="-0.22563">
        <ele>72</ele>
        <time>2017-05-23T12:48:06Z</time>
      </trkpt>
      <trkpt lat="44.7445" lon="-0.22557">
        <ele>72</ele>
        <time>2017-05-23T12:48:22Z</time>
      </trkpt>
      <trkpt lat="44.74454" lon="-0.22553">
        <ele>72</ele>
        <time>2017-05-23T12:48:22Z</time>
      </trkpt>
      <trkpt lat="44.74459" lon="-0.22543">
        <ele>71</ele>
        <time>2017-05-23T12:48:38Z</time>
      </trkpt>
      <trkpt lat="44.74463" lon="-0.22539">
        <ele>71</ele>
        <time>2017-05-23T12:48:38Z</time>
      </trkpt>
      <trkpt lat="44.74472" lon="-0.22525">
        <ele>71</ele>
        <time>2017-05-23T12:48:54Z</time>
      </trkpt>
      <trkpt lat="44.74477" lon="-0.22512">
        <ele>71</ele>
        <time>2017-05-23T12:48:54Z</time>
      </trkpt>
      <trkpt lat="44.74485" lon="-0.22496">
        <ele>71</ele>
        <time>2017-05-23T12:49:10Z</time>
      </trkpt>
      <trkpt lat="44.74509" lon="-0.22445">
        <ele>70</ele>
        <time>2017-05-23T12:49:42Z</time>
      </trkpt>
      <trkpt lat="44.74523" lon="-0.22409">
        <ele>70</ele>
        <time>2017-05-23T12:50:14Z</time>
      </trkpt>
      <trkpt lat="44.74537" lon="-0.22365">
        <ele>70</ele>
        <time>2017-05-23T12:50:30Z</time>
      </trkpt>
      <trkpt lat="44.74539" lon="-0.2236">
        <ele>70</ele>
        <time>2017-05-23T12:50:46Z</time>
      </trkpt>
      <trkpt lat="44.74554" lon="-0.22312">
        <ele>77</ele>
        <time>2017-05-23T12:51:18Z</time>
      </trkpt>
      <trkpt lat="44.74563" lon="-0.22277">
        <ele>73</ele>
        <time>2017-05-23T12:51:34Z</time>
      </trkpt>
      <trkpt lat="44.74565" lon="-0.22251">
        <ele>73</ele>
        <time>2017-05-23T12:51:50Z</time>
      </trkpt>
      <trkpt lat="44.74568" lon="-0.22246">
        <ele>73</ele>
        <time>2017-05-23T12:51:50Z</time>
      </trkpt>
      <trkpt lat="44.74568" lon="-0.22241">
        <ele>73</ele>
        <time>2017-05-23T12:52:06Z</time>
      </trkpt>
      <trkpt lat="44.74576" lon="-0.22229">
        <ele>73</ele>
        <time>2017-05-23T12:52:06Z</time>
      </trkpt>
      <trkpt lat="44.74579" lon="-0.22229">
        <ele>73</ele>
        <time>2017-05-23T12:52:06Z</time>
      </trkpt>
      <trkpt lat="44.74581" lon="-0.22227">
        <ele>73</ele>
        <time>2017-05-23T12:52:38Z</time>
      </trkpt>
      <trkpt lat="44.7458" lon="-0.22224">
        <ele>73</ele>
        <time>2017-05-23T12:52:38Z</time>
      </trkpt>
      <trkpt lat="44.74585" lon="-0.22214">
        <ele>73</ele>
        <time>2017-05-23T12:52:38Z</time>
      </trkpt>
      <trkpt lat="44.74589" lon="-0.2221">
        <ele>73</ele>
        <time>2017-05-23T12:52:58Z</time>
      </trkpt>
      <trkpt lat="44.74588" lon="-0.22205">
        <ele>64</ele>
        <time>2017-05-23T12:52:58Z</time>
      </trkpt>
      <trkpt lat="44.74584" lon="-0.22203">
        <ele>64</ele>
        <time>2017-05-23T12:52:58Z</time>
      </trkpt>
      <trkpt lat="44.74581" lon="-0.22191">
        <ele>64</ele>
        <time>2017-05-23T12:53:14Z</time>
      </trkpt>
      <trkpt lat="44.74579" lon="-0.22186">
        <ele>64</ele>
        <time>2017-05-23T12:53:14Z</time>
      </trkpt>
      <trkpt lat="44.74578" lon="-0.22185">
        <ele>64</ele>
        <time>2017-05-23T12:53:14Z</time>
      </trkpt>
      <trkpt lat="44.74573" lon="-0.22177">
        <ele>64</ele>
        <time>2017-05-23T12:53:34Z</time>
      </trkpt>
      <trkpt lat="44.74572" lon="-0.22167">
        <ele>64</ele>
        <time>2017-05-23T12:53:34Z</time>
      </trkpt>
      <trkpt lat="44.74576" lon="-0.22154">
        <ele>64</ele>
        <time>2017-05-23T12:53:50Z</time>
      </trkpt>
      <trkpt lat="44.74584" lon="-0.22144">
        <ele>64</ele>
        <time>2017-05-23T12:53:50Z</time>
      </trkpt>
      <trkpt lat="44.74592" lon="-0.22139">
        <ele>64</ele>
        <time>2017-05-23T12:54:06Z</time>
      </trkpt>
      <trkpt lat="44.74597" lon="-0.22138">
        <ele>64</ele>
        <time>2017-05-23T12:54:06Z</time>
      </trkpt>
      <trkpt lat="44.74607" lon="-0.22131">
        <ele>64</ele>
        <time>2017-05-23T12:54:06Z</time>
      </trkpt>
      <trkpt lat="44.74618" lon="-0.22127">
        <ele>64</ele>
        <time>2017-05-23T12:54:22Z</time>
      </trkpt>
      <trkpt lat="44.74622" lon="-0.22127">
        <ele>64</ele>
        <time>2017-05-23T12:54:22Z</time>
      </trkpt>
      <trkpt lat="44.74626" lon="-0.22129">
        <ele>70</ele>
        <time>2017-05-23T12:54:38Z</time>
      </trkpt>
      <trkpt lat="44.74632" lon="-0.22134">
        <ele>70</ele>
        <time>2017-05-23T12:54:38Z</time>
      </trkpt>
      <trkpt lat="44.74636" lon="-0.22134">
        <ele>70</ele>
        <time>2017-05-23T12:54:38Z</time>
      </trkpt>
      <trkpt lat="44.7464" lon="-0.2213">
        <ele>70</ele>
        <time>2017-05-23T12:54:38Z</time>
      </trkpt>
      <trkpt lat="44.74645" lon="-0.2213">
        <ele>70</ele>
        <time>2017-05-23T12:54:54Z</time>
      </trkpt>
      <trkpt lat="44.74651" lon="-0.22132">
        <ele>70</ele>
        <time>2017-05-23T12:54:54Z</time>
      </trkpt>
      <trkpt lat="44.74656" lon="-0.22133">
        <ele>70</ele>
        <time>2017-05-23T12:54:54Z</time>
      </trkpt>
      <trkpt lat="44.74664" lon="-0.22129">
        <ele>70</ele>
        <time>2017-05-23T12:55:10Z</time>
      </trkpt>
      <trkpt lat="44.74669" lon="-0.22118">
        <ele>63</ele>
        <time>2017-05-23T12:55:10Z</time>
      </trkpt>
      <trkpt lat="44.74677" lon="-0.22121">
        <ele>63</ele>
        <time>2017-05-23T12:55:26Z</time>
      </trkpt>
      <trkpt lat="44.74681" lon="-0.22122">
        <ele>63</ele>
        <time>2017-05-23T12:55:26Z</time>
      </trkpt>
      <trkpt lat="44.74682" lon="-0.22119">
        <ele>63</ele>
        <time>2017-05-23T12:55:26Z</time>
      </trkpt>
      <trkpt lat="44.74687" lon="-0.22128">
        <ele>70</ele>
        <time>2017-05-23T12:55:26Z</time>
      </trkpt>
      <trkpt lat="44.7468" lon="-0.22123">
        <ele>63</ele>
        <time>2017-05-23T12:55:42Z</time>
      </trkpt>
      <trkpt lat="44.74676" lon="-0.22114">
        <ele>63</ele>
        <time>2017-05-23T12:55:42Z</time>
      </trkpt>
      <trkpt lat="44.74675" lon="-0.22106">
        <ele>63</ele>
        <time>2017-05-23T12:55:58Z</time>
      </trkpt>
      <trkpt lat="44.74677" lon="-0.22091">
        <ele>63</ele>
        <time>2017-05-23T12:55:58Z</time>
      </trkpt>
      <trkpt lat="44.74676" lon="-0.22089">
        <ele>63</ele>
        <time>2017-05-23T12:56:14Z</time>
      </trkpt>
      <trkpt lat="44.74678" lon="-0.22076">
        <ele>63</ele>
        <time>2017-05-23T12:56:14Z</time>
      </trkpt>
      <trkpt lat="44.74681" lon="-0.22071">
        <ele>63</ele>
        <time>2017-05-23T12:56:30Z</time>
      </trkpt>
      <trkpt lat="44.74686" lon="-0.22058">
        <ele>63</ele>
        <time>2017-05-23T12:56:30Z</time>
      </trkpt>
      <trkpt lat="44.74695" lon="-0.22047">
        <ele>63</ele>
        <time>2017-05-23T12:56:30Z</time>
      </trkpt>
      <trkpt lat="44.747" lon="-0.22043">
        <ele>63</ele>
        <time>2017-05-23T12:56:46Z</time>
      </trkpt>
      <trkpt lat="44.74715" lon="-0.22036">
        <ele>64</ele>
        <time>2017-05-23T12:56:46Z</time>
      </trkpt>
      <trkpt lat="44.74717" lon="-0.22038">
        <ele>64</ele>
        <time>2017-05-23T12:57:14Z</time>
      </trkpt>
      <trkpt lat="44.74717" lon="-0.22035">
        <ele>64</ele>
        <time>2017-05-23T12:57:14Z</time>
      </trkpt>
      <trkpt lat="44.74716" lon="-0.22033">
        <ele>64</ele>
        <time>2017-05-23T12:57:14Z</time>
      </trkpt>
      <trkpt lat="44.74714" lon="-0.22027">
        <ele>64</ele>
        <time>2017-05-23T12:57:14Z</time>
      </trkpt>
      <trkpt lat="44.74711" lon="-0.22015">
        <ele>64</ele>
        <time>2017-05-23T12:57:30Z</time>
      </trkpt>
      <trkpt lat="44.74707" lon="-0.22005">
        <ele>62</ele>
        <time>2017-05-23T12:57:30Z</time>
      </trkpt>
      <trkpt lat="44.74701" lon="-0.21976">
        <ele>62</ele>
        <time>2017-05-23T12:58:02Z</time>
      </trkpt>
      <trkpt lat="44.747" lon="-0.21968">
        <ele>62</ele>
        <time>2017-05-23T12:58:02Z</time>
      </trkpt>
      <trkpt lat="44.74705" lon="-0.21957">
        <ele>64</ele>
        <time>2017-05-23T12:58:18Z</time>
      </trkpt>
      <trkpt lat="44.74706" lon="-0.21951">
        <ele>64</ele>
        <time>2017-05-23T12:58:18Z</time>
      </trkpt>
      <trkpt lat="44.74709" lon="-0.21945">
        <ele>66</ele>
        <time>2017-05-23T12:58:18Z</time>
      </trkpt>
      <trkpt lat="44.74708" lon="-0.21944">
        <ele>64</ele>
        <time>2017-05-23T12:58:54Z</time>
      </trkpt>
      <trkpt lat="44.74708" lon="-0.21937">
        <ele>64</ele>
        <time>2017-05-23T12:58:54Z</time>
      </trkpt>
      <trkpt lat="44.7471" lon="-0.21932">
        <ele>66</ele>
        <time>2017-05-23T12:58:54Z</time>
      </trkpt>
      <trkpt lat="44.74714" lon="-0.21933">
        <ele>66</ele>
        <time>2017-05-23T12:59:18Z</time>
      </trkpt>
      <trkpt lat="44.74719" lon="-0.21928">
        <ele>66</ele>
        <time>2017-05-23T12:59:18Z</time>
      </trkpt>
      <trkpt lat="44.74722" lon="-0.21915">
        <ele>66</ele>
        <time>2017-05-23T12:59:34Z</time>
      </trkpt>
      <trkpt lat="44.74732" lon="-0.21888">
        <ele>66</ele>
        <time>2017-05-23T12:59:50Z</time>
      </trkpt>
      <trkpt lat="44.74737" lon="-0.21881">
        <ele>66</ele>
        <time>2017-05-23T13:00:06Z</time>
      </trkpt>
      <trkpt lat="44.7474" lon="-0.21875">
        <ele>67</ele>
        <time>2017-05-23T13:00:06Z</time>
      </trkpt>
      <trkpt lat="44.74739" lon="-0.21871">
        <ele>67</ele>
        <time>2017-05-23T13:00:06Z</time>
      </trkpt>
      <trkpt lat="44.74742" lon="-0.21863">
        <ele>67</ele>
        <time>2017-05-23T13:00:22Z</time>
      </trkpt>
      <trkpt lat="44.74745" lon="-0.21855">
        <ele>67</ele>
        <time>2017-05-23T13:00:22Z</time>
      </trkpt>
      <trkpt lat="44.74752" lon="-0.21835">
        <ele>67</ele>
        <time>2017-05-23T13:00:42Z</time>
      </trkpt>
      <trkpt lat="44.74756" lon="-0.21832">
        <ele>67</ele>
        <time>2017-05-23T13:00:42Z</time>
      </trkpt>
      <trkpt lat="44.74758" lon="-0.21828">
        <ele>67</ele>
        <time>2017-05-23T13:00:58Z</time>
      </trkpt>
      <trkpt lat="44.74759" lon="-0.21815">
        <ele>67</ele>
        <time>2017-05-23T13:00:58Z</time>
      </trkpt>
      <trkpt lat="44.74763" lon="-0.21808">
        <ele>67</ele>
        <time>2017-05-23T13:00:58Z</time>
      </trkpt>
      <trkpt lat="44.74768" lon="-0.21794">
        <ele>67</ele>
        <time>2017-05-23T13:01:14Z</time>
      </trkpt>
      <trkpt lat="44.74769" lon="-0.21787">
        <ele>67</ele>
        <time>2017-05-23T13:01:34Z</time>
      </trkpt>
      <trkpt lat="44.74771" lon="-0.21779">
        <ele>67</ele>
        <time>2017-05-23T13:01:34Z</time>
      </trkpt>
      <trkpt lat="44.74772" lon="-0.21773">
        <ele>67</ele>
        <time>2017-05-23T13:01:34Z</time>
      </trkpt>
      <trkpt lat="44.74773" lon="-0.21773">
        <ele>67</ele>
        <time>2017-05-23T13:02:02Z</time>
      </trkpt>
      <trkpt lat="44.74774" lon="-0.21772">
        <ele>67</ele>
        <time>2017-05-23T13:02:02Z</time>
      </trkpt>
      <trkpt lat="44.74776" lon="-0.21772">
        <ele>67</ele>
        <time>2017-05-23T13:02:02Z</time>
      </trkpt>
      <trkpt lat="44.74778" lon="-0.21763">
        <ele>67</ele>
        <time>2017-05-23T13:02:02Z</time>
      </trkpt>
      <trkpt lat="44.74777" lon="-0.21758">
        <ele>67</ele>
        <time>2017-05-23T13:02:02Z</time>
      </trkpt>
      <trkpt lat="44.74781" lon="-0.21757">
        <ele>67</ele>
        <time>2017-05-23T13:03:54Z</time>
      </trkpt>
      <trkpt lat="44.7478" lon="-0.21746">
        <ele>67</ele>
        <time>2017-05-23T13:03:54Z</time>
      </trkpt>
      <trkpt lat="44.74786" lon="-0.21736">
        <ele>67</ele>
        <time>2017-05-23T13:04:58Z</time>
      </trkpt>
      <trkpt lat="44.74785" lon="-0.21728">
        <ele>67</ele>
        <time>2017-05-23T13:04:58Z</time>
      </trkpt>
      <trkpt lat="44.74786" lon="-0.21721">
        <ele>67</ele>
        <time>2017-05-23T13:05:38Z</time>
      </trkpt>
      <trkpt lat="44.74785" lon="-0.21716">
        <ele>67</ele>
        <time>2017-05-23T13:05:38Z</time>
      </trkpt>
      <trkpt lat="44.74787" lon="-0.2171">
        <ele>67</ele>
        <time>2017-05-23T13:05:38Z</time>
      </trkpt>
      <trkpt lat="44.74786" lon="-0.21707">
        <ele>63</ele>
        <time>2017-05-23T13:05:38Z</time>
      </trkpt>
      <trkpt lat="44.74781" lon="-0.21701">
        <ele>63</ele>
        <time>2017-05-23T13:05:54Z</time>
      </trkpt>
      <trkpt lat="44.74772" lon="-0.21699">
        <ele>63</ele>
        <time>2017-05-23T13:05:54Z</time>
      </trkpt>
      <trkpt lat="44.74768" lon="-0.21696">
        <ele>63</ele>
        <time>2017-05-23T13:05:54Z</time>
      </trkpt>
      <trkpt lat="44.74761" lon="-0.21689">
        <ele>63</ele>
        <time>2017-05-23T13:06:10Z</time>
      </trkpt>
      <trkpt lat="44.74753" lon="-0.21682">
        <ele>63</ele>
        <time>2017-05-23T13:06:10Z</time>
      </trkpt>
      <trkpt lat="44.74746" lon="-0.21674">
        <ele>63</ele>
        <time>2017-05-23T13:06:26Z</time>
      </trkpt>
      <trkpt lat="44.74741" lon="-0.21671">
        <ele>63</ele>
        <time>2017-05-23T13:06:26Z</time>
      </trkpt>
      <trkpt lat="44.74737" lon="-0.21667">
        <ele>63</ele>
        <time>2017-05-23T13:06:26Z</time>
      </trkpt>
      <trkpt lat="44.74728" lon="-0.21662">
        <ele>63</ele>
        <time>2017-05-23T13:06:42Z</time>
      </trkpt>
      <trkpt lat="44.74718" lon="-0.21659">
        <ele>63</ele>
        <time>2017-05-23T13:06:42Z</time>
      </trkpt>
      <trkpt lat="44.74706" lon="-0.21657">
        <ele>66</ele>
        <time>2017-05-23T13:06:58Z</time>
      </trkpt>
      <trkpt lat="44.747" lon="-0.21658">
        <ele>66</ele>
        <time>2017-05-23T13:06:58Z</time>
      </trkpt>
      <trkpt lat="44.74689" lon="-0.21662">
        <ele>66</ele>
        <time>2017-05-23T13:07:14Z</time>
      </trkpt>
      <trkpt lat="44.74665" lon="-0.21664">
        <ele>66</ele>
        <time>2017-05-23T13:07:30Z</time>
      </trkpt>
      <trkpt lat="44.74634" lon="-0.21656">
        <ele>66</ele>
        <time>2017-05-23T13:08:02Z</time>
      </trkpt>
      <trkpt lat="44.74629" lon="-0.21654">
        <ele>66</ele>
        <time>2017-05-23T13:08:02Z</time>
      </trkpt>
      <trkpt lat="44.74624" lon="-0.21654">
        <ele>68</ele>
        <time>2017-05-23T13:08:02Z</time>
      </trkpt>
      <trkpt lat="44.74614" lon="-0.21647">
        <ele>68</ele>
        <time>2017-05-23T13:08:18Z</time>
      </trkpt>
      <trkpt lat="44.74597" lon="-0.21641">
        <ele>68</ele>
        <time>2017-05-23T13:08:18Z</time>
      </trkpt>
      <trkpt lat="44.74592" lon="-0.2164">
        <ele>68</ele>
        <time>2017-05-23T13:08:34Z</time>
      </trkpt>
      <trkpt lat="44.74577" lon="-0.21634">
        <ele>68</ele>
        <time>2017-05-23T13:08:34Z</time>
      </trkpt>
      <trkpt lat="44.74571" lon="-0.21635">
        <ele>68</ele>
        <time>2017-05-23T13:08:50Z</time>
      </trkpt>
      <trkpt lat="44.74557" lon="-0.2163">
        <ele>68</ele>
        <time>2017-05-23T13:08:50Z</time>
      </trkpt>
      <trkpt lat="44.74546" lon="-0.21631">
        <ele>68</ele>
        <time>2017-05-23T13:09:06Z</time>
      </trkpt>
      <trkpt lat="44.7454" lon="-0.2163">
        <ele>71</ele>
        <time>2017-05-23T13:09:06Z</time>
      </trkpt>
      <trkpt lat="44.74532" lon="-0.21623">
        <ele>72</ele>
        <time>2017-05-23T13:09:22Z</time>
      </trkpt>
      <trkpt lat="44.74532" lon="-0.21616">
        <ele>72</ele>
        <time>2017-05-23T13:09:22Z</time>
      </trkpt>
      <trkpt lat="44.74536" lon="-0.21597">
        <ele>72</ele>
        <time>2017-05-23T13:09:38Z</time>
      </trkpt>
      <trkpt lat="44.74539" lon="-0.2159">
        <ele>72</ele>
        <time>2017-05-23T13:09:38Z</time>
      </trkpt>
      <trkpt lat="44.74541" lon="-0.21588">
        <ele>72</ele>
        <time>2017-05-23T13:09:38Z</time>
      </trkpt>
      <trkpt lat="44.74544" lon="-0.21582">
        <ele>68</ele>
        <time>2017-05-23T13:09:38Z</time>
      </trkpt>
      <trkpt lat="44.74548" lon="-0.21578">
        <ele>68</ele>
        <time>2017-05-23T13:09:54Z</time>
      </trkpt>
      <trkpt lat="44.74546" lon="-0.21574">
        <ele>68</ele>
        <time>2017-05-23T13:09:54Z</time>
      </trkpt>
      <trkpt lat="44.7455" lon="-0.21564">
        <ele>68</ele>
        <time>2017-05-23T13:09:54Z</time>
      </trkpt>
      <trkpt lat="44.74554" lon="-0.21557">
        <ele>68</ele>
        <time>2017-05-23T13:10:10Z</time>
      </trkpt>
      <trkpt lat="44.74557" lon="-0.21548">
        <ele>68</ele>
        <time>2017-05-23T13:10:10Z</time>
      </trkpt>
      <trkpt lat="44.74556" lon="-0.21542">
        <ele>68</ele>
        <time>2017-05-23T13:10:26Z</time>
      </trkpt>
      <trkpt lat="44.74558" lon="-0.21537">
        <ele>66</ele>
        <time>2017-05-23T13:10:26Z</time>
      </trkpt>
      <trkpt lat="44.74567" lon="-0.21527">
        <ele>66</ele>
        <time>2017-05-23T13:10:26Z</time>
      </trkpt>
      <trkpt lat="44.74577" lon="-0.2151">
        <ele>66</ele>
        <time>2017-05-23T13:10:42Z</time>
      </trkpt>
      <trkpt lat="44.74582" lon="-0.21508">
        <ele>66</ele>
        <time>2017-05-23T13:10:42Z</time>
      </trkpt>
      <trkpt lat="44.74584" lon="-0.21505">
        <ele>66</ele>
        <time>2017-05-23T13:10:42Z</time>
      </trkpt>
      <trkpt lat="44.74584" lon="-0.21502">
        <ele>66</ele>
        <time>2017-05-23T13:10:58Z</time>
      </trkpt>
      <trkpt lat="44.74604" lon="-0.21473">
        <ele>66</ele>
        <time>2017-05-23T13:11:14Z</time>
      </trkpt>
      <trkpt lat="44.74607" lon="-0.21466">
        <ele>66</ele>
        <time>2017-05-23T13:11:14Z</time>
      </trkpt>
      <trkpt lat="44.74612" lon="-0.2146">
        <ele>66</ele>
        <time>2017-05-23T13:11:14Z</time>
      </trkpt>
      <trkpt lat="44.74617" lon="-0.21447">
        <ele>64</ele>
        <time>2017-05-23T13:11:30Z</time>
      </trkpt>
      <trkpt lat="44.74626" lon="-0.21437">
        <ele>62</ele>
        <time>2017-05-23T13:11:30Z</time>
      </trkpt>
      <trkpt lat="44.74642" lon="-0.21413">
        <ele>62</ele>
        <time>2017-05-23T13:12:02Z</time>
      </trkpt>
      <trkpt lat="44.74652" lon="-0.214">
        <ele>62</ele>
        <time>2017-05-23T13:12:02Z</time>
      </trkpt>
      <trkpt lat="44.74667" lon="-0.21392">
        <ele>62</ele>
        <time>2017-05-23T13:12:18Z</time>
      </trkpt>
      <trkpt lat="44.7467" lon="-0.21388">
        <ele>62</ele>
        <time>2017-05-23T13:12:18Z</time>
      </trkpt>
      <trkpt lat="44.74677" lon="-0.21376">
        <ele>62</ele>
        <time>2017-05-23T13:12:34Z</time>
      </trkpt>
      <trkpt lat="44.74687" lon="-0.21364">
        <ele>62</ele>
        <time>2017-05-23T13:12:50Z</time>
      </trkpt>
      <trkpt lat="44.74689" lon="-0.2136">
        <ele>62</ele>
        <time>2017-05-23T13:12:50Z</time>
      </trkpt>
      <trkpt lat="44.74696" lon="-0.21353">
        <ele>62</ele>
        <time>2017-05-23T13:13:06Z</time>
      </trkpt>
      <trkpt lat="44.747" lon="-0.21346">
        <ele>62</ele>
        <time>2017-05-23T13:13:06Z</time>
      </trkpt>
      <trkpt lat="44.74706" lon="-0.21339">
        <ele>62</ele>
        <time>2017-05-23T13:13:22Z</time>
      </trkpt>
      <trkpt lat="44.74706" lon="-0.21337">
        <ele>62</ele>
        <time>2017-05-23T13:13:22Z</time>
      </trkpt>
      <trkpt lat="44.74711" lon="-0.2133">
        <ele>62</ele>
        <time>2017-05-23T13:13:22Z</time>
      </trkpt>
      <trkpt lat="44.74716" lon="-0.21318">
        <ele>62</ele>
        <time>2017-05-23T13:13:38Z</time>
      </trkpt>
      <trkpt lat="44.74718" lon="-0.21314">
        <ele>62</ele>
        <time>2017-05-23T13:13:38Z</time>
      </trkpt>
      <trkpt lat="44.74734" lon="-0.213">
        <ele>62</ele>
        <time>2017-05-23T13:13:54Z</time>
      </trkpt>
      <trkpt lat="44.74737" lon="-0.21295">
        <ele>62</ele>
        <time>2017-05-23T13:13:54Z</time>
      </trkpt>
      <trkpt lat="44.74736" lon="-0.21291">
        <ele>62</ele>
        <time>2017-05-23T13:13:54Z</time>
      </trkpt>
      <trkpt lat="44.74744" lon="-0.21283">
        <ele>62</ele>
        <time>2017-05-23T13:14:10Z</time>
      </trkpt>
      <trkpt lat="44.74747" lon="-0.21276">
        <ele>62</ele>
        <time>2017-05-23T13:14:10Z</time>
      </trkpt>
      <trkpt lat="44.74751" lon="-0.21271">
        <ele>62</ele>
        <time>2017-05-23T13:14:10Z</time>
      </trkpt>
      <trkpt lat="44.74755" lon="-0.21261">
        <ele>62</ele>
        <time>2017-05-23T13:14:26Z</time>
      </trkpt>
      <trkpt lat="44.74761" lon="-0.21258">
        <ele>62</ele>
        <time>2017-05-23T13:14:26Z</time>
      </trkpt>
      <trkpt lat="44.74764" lon="-0.21249">
        <ele>62</ele>
        <time>2017-05-23T13:14:42Z</time>
      </trkpt>
      <trkpt lat="44.74763" lon="-0.21243">
        <ele>62</ele>
        <time>2017-05-23T13:14:42Z</time>
      </trkpt>
      <trkpt lat="44.74764" lon="-0.21238">
        <ele>62</ele>
        <time>2017-05-23T13:14:42Z</time>
      </trkpt>
      <trkpt lat="44.74768" lon="-0.21221">
        <ele>62</ele>
        <time>2017-05-23T13:14:58Z</time>
      </trkpt>
      <trkpt lat="44.748" lon="-0.21189">
        <ele>62</ele>
        <time>2017-05-23T13:15:14Z</time>
      </trkpt>
      <trkpt lat="44.74814" lon="-0.21183">
        <ele>62</ele>
        <time>2017-05-23T13:15:54Z</time>
      </trkpt>
      <trkpt lat="44.74813" lon="-0.21188">
        <ele>62</ele>
        <time>2017-05-23T13:15:54Z</time>
      </trkpt>
      <trkpt lat="44.74814" lon="-0.21193">
        <ele>62</ele>
        <time>2017-05-23T13:15:54Z</time>
      </trkpt>
      <trkpt lat="44.7482" lon="-0.21201">
        <ele>62</ele>
        <time>2017-05-23T13:15:54Z</time>
      </trkpt>
      <trkpt lat="44.74821" lon="-0.21198">
        <ele>62</ele>
        <time>2017-05-23T13:16:10Z</time>
      </trkpt>
      <trkpt lat="44.74832" lon="-0.21202">
        <ele>62</ele>
        <time>2017-05-23T13:16:10Z</time>
      </trkpt>
      <trkpt lat="44.74838" lon="-0.21206">
        <ele>62</ele>
        <time>2017-05-23T13:16:30Z</time>
      </trkpt>
      <trkpt lat="44.74839" lon="-0.21209">
        <ele>61</ele>
        <time>2017-05-23T13:16:30Z</time>
      </trkpt>
      <trkpt lat="44.74844" lon="-0.21213">
        <ele>61</ele>
        <time>2017-05-23T13:16:30Z</time>
      </trkpt>
      <trkpt lat="44.74848" lon="-0.21222">
        <ele>61</ele>
        <time>2017-05-23T13:16:46Z</time>
      </trkpt>
      <trkpt lat="44.74861" lon="-0.21233">
        <ele>61</ele>
        <time>2017-05-23T13:17:02Z</time>
      </trkpt>
      <trkpt lat="44.74869" lon="-0.21243">
        <ele>61</ele>
        <time>2017-05-23T13:17:02Z</time>
      </trkpt>
      <trkpt lat="44.74871" lon="-0.21246">
        <ele>61</ele>
        <time>2017-05-23T13:17:22Z</time>
      </trkpt>
      <trkpt lat="44.74873" lon="-0.21247">
        <ele>61</ele>
        <time>2017-05-23T13:17:22Z</time>
      </trkpt>
      <trkpt lat="44.74886" lon="-0.21262">
        <ele>61</ele>
        <time>2017-05-23T13:17:38Z</time>
      </trkpt>
      <trkpt lat="44.7489" lon="-0.21273">
        <ele>61</ele>
        <time>2017-05-23T13:17:38Z</time>
      </trkpt>
      <trkpt lat="44.74893" lon="-0.21278">
        <ele>61</ele>
        <time>2017-05-23T13:17:38Z</time>
      </trkpt>
      <trkpt lat="44.74899" lon="-0.2128">
        <ele>61</ele>
        <time>2017-05-23T13:17:38Z</time>
      </trkpt>
      <trkpt lat="44.74902" lon="-0.21282">
        <ele>61</ele>
        <time>2017-05-23T13:17:54Z</time>
      </trkpt>
      <trkpt lat="44.74912" lon="-0.21299">
        <ele>60</ele>
        <time>2017-05-23T13:17:54Z</time>
      </trkpt>
      <trkpt lat="44.74918" lon="-0.21318">
        <ele>60</ele>
        <time>2017-05-23T13:18:10Z</time>
      </trkpt>
      <trkpt lat="44.74937" lon="-0.21349">
        <ele>60</ele>
        <time>2017-05-23T13:18:26Z</time>
      </trkpt>
      <trkpt lat="44.74941" lon="-0.21353">
        <ele>60</ele>
        <time>2017-05-23T13:18:26Z</time>
      </trkpt>
      <trkpt lat="44.74956" lon="-0.21378">
        <ele>59</ele>
        <time>2017-05-23T13:18:58Z</time>
      </trkpt>
      <trkpt lat="44.74967" lon="-0.21398">
        <ele>59</ele>
        <time>2017-05-23T13:19:26Z</time>
      </trkpt>
      <trkpt lat="44.74973" lon="-0.21407">
        <ele>59</ele>
        <time>2017-05-23T13:19:26Z</time>
      </trkpt>
      <trkpt lat="44.74971" lon="-0.21419">
        <ele>59</ele>
        <time>2017-05-23T13:19:26Z</time>
      </trkpt>
      <trkpt lat="44.74975" lon="-0.21431">
        <ele>59</ele>
        <time>2017-05-23T13:19:46Z</time>
      </trkpt>
      <trkpt lat="44.74971" lon="-0.21452">
        <ele>59</ele>
        <time>2017-05-23T13:20:02Z</time>
      </trkpt>
      <trkpt lat="44.74971" lon="-0.21473">
        <ele>58</ele>
        <time>2017-05-23T13:20:18Z</time>
      </trkpt>
      <trkpt lat="44.74969" lon="-0.21481">
        <ele>58</ele>
        <time>2017-05-23T13:20:18Z</time>
      </trkpt>
      <trkpt lat="44.74966" lon="-0.21489">
        <ele>58</ele>
        <time>2017-05-23T13:20:18Z</time>
      </trkpt>
      <trkpt lat="44.74962" lon="-0.21497">
        <ele>58</ele>
        <time>2017-05-23T13:20:18Z</time>
      </trkpt>
      <trkpt lat="44.74958" lon="-0.21511">
        <ele>60</ele>
        <time>2017-05-23T13:20:34Z</time>
      </trkpt>
      <trkpt lat="44.74956" lon="-0.21524">
        <ele>60</ele>
        <time>2017-05-23T13:20:34Z</time>
      </trkpt>
      <trkpt lat="44.74956" lon="-0.21538">
        <ele>60</ele>
        <time>2017-05-23T13:20:50Z</time>
      </trkpt>
      <trkpt lat="44.74958" lon="-0.21544">
        <ele>60</ele>
        <time>2017-05-23T13:20:50Z</time>
      </trkpt>
      <trkpt lat="44.74962" lon="-0.21553">
        <ele>57</ele>
        <time>2017-05-23T13:21:06Z</time>
      </trkpt>
      <trkpt lat="44.74969" lon="-0.2157">
        <ele>57</ele>
        <time>2017-05-23T13:21:22Z</time>
      </trkpt>
      <trkpt lat="44.74979" lon="-0.21582">
        <ele>57</ele>
        <time>2017-05-23T13:21:22Z</time>
      </trkpt>
      <trkpt lat="44.74987" lon="-0.21588">
        <ele>57</ele>
        <time>2017-05-23T13:21:38Z</time>
      </trkpt>
      <trkpt lat="44.74994" lon="-0.21588">
        <ele>57</ele>
        <time>2017-05-23T13:21:38Z</time>
      </trkpt>
      <trkpt lat="44.75006" lon="-0.2158">
        <ele>57</ele>
        <time>2017-05-23T13:21:54Z</time>
      </trkpt>
      <trkpt lat="44.75025" lon="-0.21572">
        <ele>57</ele>
        <time>2017-05-23T13:22:10Z</time>
      </trkpt>
      <trkpt lat="44.75038" lon="-0.21565">
        <ele>57</ele>
        <time>2017-05-23T13:22:26Z</time>
      </trkpt>
      <trkpt lat="44.75051" lon="-0.21555">
        <ele>56</ele>
        <time>2017-05-23T13:22:42Z</time>
      </trkpt>
      <trkpt lat="44.75055" lon="-0.21558">
        <ele>56</ele>
        <time>2017-05-23T13:22:42Z</time>
      </trkpt>
      <trkpt lat="44.75057" lon="-0.21562">
        <ele>56</ele>
        <time>2017-05-23T13:22:42Z</time>
      </trkpt>
      <trkpt lat="44.75067" lon="-0.21567">
        <ele>56</ele>
        <time>2017-05-23T13:22:58Z</time>
      </trkpt>
      <trkpt lat="44.75084" lon="-0.21581">
        <ele>56</ele>
        <time>2017-05-23T13:23:14Z</time>
      </trkpt>
      <trkpt lat="44.75088" lon="-0.21587">
        <ele>56</ele>
        <time>2017-05-23T13:23:14Z</time>
      </trkpt>
      <trkpt lat="44.75091" lon="-0.21589">
        <ele>56</ele>
        <time>2017-05-23T13:23:14Z</time>
      </trkpt>
      <trkpt lat="44.75097" lon="-0.21589">
        <ele>56</ele>
        <time>2017-05-23T13:23:30Z</time>
      </trkpt>
      <trkpt lat="44.75099" lon="-0.21592">
        <ele>56</ele>
        <time>2017-05-23T13:23:30Z</time>
      </trkpt>
      <trkpt lat="44.75107" lon="-0.21594">
        <ele>56</ele>
        <time>2017-05-23T13:23:30Z</time>
      </trkpt>
      <trkpt lat="44.75125" lon="-0.21611">
        <ele>55</ele>
        <time>2017-05-23T13:23:46Z</time>
      </trkpt>
      <trkpt lat="44.75137" lon="-0.21626">
        <ele>54</ele>
        <time>2017-05-23T13:24:02Z</time>
      </trkpt>
      <trkpt lat="44.75139" lon="-0.21631">
        <ele>54</ele>
        <time>2017-05-23T13:24:02Z</time>
      </trkpt>
      <trkpt lat="44.75147" lon="-0.2164">
        <ele>54</ele>
        <time>2017-05-23T13:24:18Z</time>
      </trkpt>
      <trkpt lat="44.75165" lon="-0.21663">
        <ele>54</ele>
        <time>2017-05-23T13:24:34Z</time>
      </trkpt>
      <trkpt lat="44.75178" lon="-0.2169">
        <ele>54</ele>
        <time>2017-05-23T13:24:50Z</time>
      </trkpt>
      <trkpt lat="44.7518" lon="-0.21699">
        <ele>54</ele>
        <time>2017-05-23T13:25:10Z</time>
      </trkpt>
      <trkpt lat="44.75182" lon="-0.21701">
        <ele>54</ele>
        <time>2017-05-23T13:25:10Z</time>
      </trkpt>
      <trkpt lat="44.75191" lon="-0.21693">
        <ele>54</ele>
        <time>2017-05-23T13:25:10Z</time>
      </trkpt>
      <trkpt lat="44.75194" lon="-0.21686">
        <ele>54</ele>
        <time>2017-05-23T13:25:26Z</time>
      </trkpt>
      <trkpt lat="44.75199" lon="-0.21682">
        <ele>54</ele>
        <time>2017-05-23T13:25:26Z</time>
      </trkpt>
      <trkpt lat="44.752" lon="-0.21679">
        <ele>54</ele>
        <time>2017-05-23T13:25:46Z</time>
      </trkpt>
      <trkpt lat="44.75202" lon="-0.21679">
        <ele>54</ele>
        <time>2017-05-23T13:25:46Z</time>
      </trkpt>
      <trkpt lat="44.75205" lon="-0.21676">
        <ele>54</ele>
        <time>2017-05-23T13:25:46Z</time>
      </trkpt>
      <trkpt lat="44.75206" lon="-0.21672">
        <ele>54</ele>
        <time>2017-05-23T13:25:46Z</time>
      </trkpt>
      <trkpt lat="44.75211" lon="-0.21665">
        <ele>54</ele>
        <time>2017-05-23T13:26:06Z</time>
      </trkpt>
      <trkpt lat="44.75213" lon="-0.21659">
        <ele>54</ele>
        <time>2017-05-23T13:26:06Z</time>
      </trkpt>
      <trkpt lat="44.75213" lon="-0.21656">
        <ele>54</ele>
        <time>2017-05-23T13:26:06Z</time>
      </trkpt>
      <trkpt lat="44.7522" lon="-0.21652">
        <ele>54</ele>
        <time>2017-05-23T13:26:06Z</time>
      </trkpt>
      <trkpt lat="44.75224" lon="-0.21641">
        <ele>54</ele>
        <time>2017-05-23T13:26:22Z</time>
      </trkpt>
      <trkpt lat="44.75229" lon="-0.21636">
        <ele>54</ele>
        <time>2017-05-23T13:26:22Z</time>
      </trkpt>
      <trkpt lat="44.75245" lon="-0.21629">
        <ele>54</ele>
        <time>2017-05-23T13:26:38Z</time>
      </trkpt>
      <trkpt lat="44.75248" lon="-0.21626">
        <ele>54</ele>
        <time>2017-05-23T13:26:38Z</time>
      </trkpt>
      <trkpt lat="44.7525" lon="-0.21629">
        <ele>54</ele>
        <time>2017-05-23T13:26:38Z</time>
      </trkpt>
      <trkpt lat="44.75254" lon="-0.21629">
        <ele>54</ele>
        <time>2017-05-23T13:26:38Z</time>
      </trkpt>
      <trkpt lat="44.75265" lon="-0.21624">
        <ele>58</ele>
        <time>2017-05-23T13:26:54Z</time>
      </trkpt>
      <trkpt lat="44.75273" lon="-0.21625">
        <ele>58</ele>
        <time>2017-05-23T13:26:54Z</time>
      </trkpt>
      <trkpt lat="44.7528" lon="-0.21621">
        <ele>58</ele>
        <time>2017-05-23T13:27:10Z</time>
      </trkpt>
      <trkpt lat="44.75298" lon="-0.21625">
        <ele>63</ele>
        <time>2017-05-23T13:27:10Z</time>
      </trkpt>
      <trkpt lat="44.75302" lon="-0.21628">
        <ele>61</ele>
        <time>2017-05-23T13:27:26Z</time>
      </trkpt>
      <trkpt lat="44.75319" lon="-0.21636">
        <ele>61</ele>
        <time>2017-05-23T13:27:42Z</time>
      </trkpt>
      <trkpt lat="44.75327" lon="-0.21634">
        <ele>61</ele>
        <time>2017-05-23T13:27:42Z</time>
      </trkpt>
      <trkpt lat="44.75335" lon="-0.21615">
        <ele>63</ele>
        <time>2017-05-23T13:27:58Z</time>
      </trkpt>
      <trkpt lat="44.75336" lon="-0.21608">
        <ele>63</ele>
        <time>2017-05-23T13:27:58Z</time>
      </trkpt>
      <trkpt lat="44.7534" lon="-0.21597">
        <ele>63</ele>
        <time>2017-05-23T13:28:14Z</time>
      </trkpt>
      <trkpt lat="44.75347" lon="-0.21587">
        <ele>63</ele>
        <time>2017-05-23T13:28:14Z</time>
      </trkpt>
      <trkpt lat="44.7535" lon="-0.21586">
        <ele>63</ele>
        <time>2017-05-23T13:28:30Z</time>
      </trkpt>
      <trkpt lat="44.75355" lon="-0.21576">
        <ele>63</ele>
        <time>2017-05-23T13:28:30Z</time>
      </trkpt>
      <trkpt lat="44.75359" lon="-0.21573">
        <ele>63</ele>
        <time>2017-05-23T13:28:30Z</time>
      </trkpt>
      <trkpt lat="44.75365" lon="-0.21547">
        <ele>63</ele>
        <time>2017-05-23T13:28:46Z</time>
      </trkpt>
      <trkpt lat="44.75368" lon="-0.21543">
        <ele>63</ele>
        <time>2017-05-23T13:29:02Z</time>
      </trkpt>
      <trkpt lat="44.75371" lon="-0.21538">
        <ele>60</ele>
        <time>2017-05-23T13:29:02Z</time>
      </trkpt>
      <trkpt lat="44.75376" lon="-0.21535">
        <ele>59</ele>
        <time>2017-05-23T13:29:02Z</time>
      </trkpt>
      <trkpt lat="44.75379" lon="-0.21529">
        <ele>59</ele>
        <time>2017-05-23T13:29:02Z</time>
      </trkpt>
      <trkpt lat="44.75393" lon="-0.21519">
        <ele>59</ele>
        <time>2017-05-23T13:29:26Z</time>
      </trkpt>
      <trkpt lat="44.75393" lon="-0.21517">
        <ele>59</ele>
        <time>2017-05-23T13:29:26Z</time>
      </trkpt>
      <trkpt lat="44.75395" lon="-0.21518">
        <ele>59</ele>
        <time>2017-05-23T13:29:26Z</time>
      </trkpt>
      <trkpt lat="44.75392" lon="-0.21521">
        <ele>59</ele>
        <time>2017-05-23T13:30:14Z</time>
      </trkpt>
      <trkpt lat="44.75393" lon="-0.21512">
        <ele>59</ele>
        <time>2017-05-23T13:30:14Z</time>
      </trkpt>
      <trkpt lat="44.75404" lon="-0.21516">
        <ele>59</ele>
        <time>2017-05-23T13:30:14Z</time>
      </trkpt>
      <trkpt lat="44.75408" lon="-0.21516">
        <ele>59</ele>
        <time>2017-05-23T13:30:14Z</time>
      </trkpt>
      <trkpt lat="44.75411" lon="-0.21511">
        <ele>59</ele>
        <time>2017-05-23T13:30:30Z</time>
      </trkpt>
      <trkpt lat="44.75415" lon="-0.21503">
        <ele>59</ele>
        <time>2017-05-23T13:30:30Z</time>
      </trkpt>
      <trkpt lat="44.75417" lon="-0.21493">
        <ele>59</ele>
        <time>2017-05-23T13:30:30Z</time>
      </trkpt>
      <trkpt lat="44.75416" lon="-0.21481">
        <ele>59</ele>
        <time>2017-05-23T13:30:30Z</time>
      </trkpt>
      <trkpt lat="44.75413" lon="-0.21467">
        <ele>59</ele>
        <time>2017-05-23T13:30:46Z</time>
      </trkpt>
      <trkpt lat="44.75411" lon="-0.21461">
        <ele>59</ele>
        <time>2017-05-23T13:30:46Z</time>
      </trkpt>
      <trkpt lat="44.75411" lon="-0.21455">
        <ele>59</ele>
        <time>2017-05-23T13:30:46Z</time>
      </trkpt>
      <trkpt lat="44.75417" lon="-0.2145">
        <ele>59</ele>
        <time>2017-05-23T13:30:46Z</time>
      </trkpt>
      <trkpt lat="44.75427" lon="-0.21446">
        <ele>59</ele>
        <time>2017-05-23T13:31:02Z</time>
      </trkpt>
      <trkpt lat="44.75431" lon="-0.21442">
        <ele>59</ele>
        <time>2017-05-23T13:31:02Z</time>
      </trkpt>
      <trkpt lat="44.75432" lon="-0.21435">
        <ele>59</ele>
        <time>2017-05-23T13:31:02Z</time>
      </trkpt>
      <trkpt lat="44.75438" lon="-0.2142">
        <ele>59</ele>
        <time>2017-05-23T13:31:18Z</time>
      </trkpt>
      <trkpt lat="44.75439" lon="-0.21415">
        <ele>59</ele>
        <time>2017-05-23T13:31:18Z</time>
      </trkpt>
      <trkpt lat="44.75442" lon="-0.21411">
        <ele>59</ele>
        <time>2017-05-23T13:31:18Z</time>
      </trkpt>
      <trkpt lat="44.75443" lon="-0.21407">
        <ele>59</ele>
        <time>2017-05-23T13:31:34Z</time>
      </trkpt>
      <trkpt lat="44.7545" lon="-0.21398">
        <ele>59</ele>
        <time>2017-05-23T13:31:34Z</time>
      </trkpt>
      <trkpt lat="44.75454" lon="-0.21395">
        <ele>59</ele>
        <time>2017-05-23T13:31:34Z</time>
      </trkpt>
      <trkpt lat="44.75456" lon="-0.21391">
        <ele>59</ele>
        <time>2017-05-23T13:31:50Z</time>
      </trkpt>
      <trkpt lat="44.75464" lon="-0.2138">
        <ele>55</ele>
        <time>2017-05-23T13:31:50Z</time>
      </trkpt>
      <trkpt lat="44.75471" lon="-0.21377">
        <ele>55</ele>
        <time>2017-05-23T13:31:50Z</time>
      </trkpt>
      <trkpt lat="44.75486" lon="-0.21362">
        <ele>56</ele>
        <time>2017-05-23T13:32:06Z</time>
      </trkpt>
      <trkpt lat="44.75495" lon="-0.21351">
        <ele>56</ele>
        <time>2017-05-23T13:32:22Z</time>
      </trkpt>
      <trkpt lat="44.75512" lon="-0.21336">
        <ele>56</ele>
        <time>2017-05-23T13:32:38Z</time>
      </trkpt>
      <trkpt lat="44.75516" lon="-0.21331">
        <ele>56</ele>
        <time>2017-05-23T13:32:38Z</time>
      </trkpt>
      <trkpt lat="44.75531" lon="-0.21322">
        <ele>56</ele>
        <time>2017-05-23T13:32:54Z</time>
      </trkpt>
      <trkpt lat="44.75534" lon="-0.21318">
        <ele>56</ele>
        <time>2017-05-23T13:32:54Z</time>
      </trkpt>
      <trkpt lat="44.75539" lon="-0.21316">
        <ele>56</ele>
        <time>2017-05-23T13:32:54Z</time>
      </trkpt>
      <trkpt lat="44.75544" lon="-0.21315">
        <ele>55</ele>
        <time>2017-05-23T13:32:54Z</time>
      </trkpt>
      <trkpt lat="44.75557" lon="-0.21309">
        <ele>55</ele>
        <time>2017-05-23T13:33:10Z</time>
      </trkpt>
      <trkpt lat="44.75563" lon="-0.21309">
        <ele>55</ele>
        <time>2017-05-23T13:33:10Z</time>
      </trkpt>
      <trkpt lat="44.75577" lon="-0.21303">
        <ele>55</ele>
        <time>2017-05-23T13:33:26Z</time>
      </trkpt>
      <trkpt lat="44.75579" lon="-0.21297">
        <ele>55</ele>
        <time>2017-05-23T13:33:26Z</time>
      </trkpt>
      <trkpt lat="44.75587" lon="-0.2129">
        <ele>56</ele>
        <time>2017-05-23T13:33:42Z</time>
      </trkpt>
      <trkpt lat="44.7559" lon="-0.21285">
        <ele>56</ele>
        <time>2017-05-23T13:33:42Z</time>
      </trkpt>
      <trkpt lat="44.75603" lon="-0.21272">
        <ele>56</ele>
        <time>2017-05-23T13:33:58Z</time>
      </trkpt>
      <trkpt lat="44.75608" lon="-0.21269">
        <ele>56</ele>
        <time>2017-05-23T13:33:58Z</time>
      </trkpt>
      <trkpt lat="44.75613" lon="-0.21257">
        <ele>56</ele>
        <time>2017-05-23T13:34:14Z</time>
      </trkpt>
      <trkpt lat="44.75617" lon="-0.21256">
        <ele>56</ele>
        <time>2017-05-23T13:34:14Z</time>
      </trkpt>
      <trkpt lat="44.75622" lon="-0.21249">
        <ele>56</ele>
        <time>2017-05-23T13:34:14Z</time>
      </trkpt>
      <trkpt lat="44.75632" lon="-0.2124">
        <ele>55</ele>
        <time>2017-05-23T13:34:30Z</time>
      </trkpt>
      <trkpt lat="44.75634" lon="-0.21236">
        <ele>55</ele>
        <time>2017-05-23T13:34:30Z</time>
      </trkpt>
      <trkpt lat="44.75639" lon="-0.21231">
        <ele>55</ele>
        <time>2017-05-23T13:34:46Z</time>
      </trkpt>
      <trkpt lat="44.75647" lon="-0.21216">
        <ele>55</ele>
        <time>2017-05-23T13:34:46Z</time>
      </trkpt>
      <trkpt lat="44.75652" lon="-0.21215">
        <ele>55</ele>
        <time>2017-05-23T13:35:02Z</time>
      </trkpt>
      <trkpt lat="44.75653" lon="-0.21209">
        <ele>55</ele>
        <time>2017-05-23T13:35:02Z</time>
      </trkpt>
      <trkpt lat="44.75661" lon="-0.21194">
        <ele>55</ele>
        <time>2017-05-23T13:35:18Z</time>
      </trkpt>
      <trkpt lat="44.7567" lon="-0.21186">
        <ele>55</ele>
        <time>2017-05-23T13:35:18Z</time>
      </trkpt>
      <trkpt lat="44.75677" lon="-0.21177">
        <ele>55</ele>
        <time>2017-05-23T13:35:34Z</time>
      </trkpt>
      <trkpt lat="44.75687" lon="-0.2117">
        <ele>55</ele>
        <time>2017-05-23T13:35:34Z</time>
      </trkpt>
      <trkpt lat="44.75696" lon="-0.21162">
        <ele>55</ele>
        <time>2017-05-23T13:35:50Z</time>
      </trkpt>
      <trkpt lat="44.75721" lon="-0.21129">
        <ele>54</ele>
        <time>2017-05-23T13:36:06Z</time>
      </trkpt>
      <trkpt lat="44.75728" lon="-0.21124">
        <ele>54</ele>
        <time>2017-05-23T13:36:22Z</time>
      </trkpt>
      <trkpt lat="44.75732" lon="-0.2112">
        <ele>54</ele>
        <time>2017-05-23T13:36:22Z</time>
      </trkpt>
      <trkpt lat="44.7574" lon="-0.21108">
        <ele>54</ele>
        <time>2017-05-23T13:36:38Z</time>
      </trkpt>
      <trkpt lat="44.75742" lon="-0.21102">
        <ele>54</ele>
        <time>2017-05-23T13:36:38Z</time>
      </trkpt>
      <trkpt lat="44.75751" lon="-0.21094">
        <ele>54</ele>
        <time>2017-05-23T13:36:38Z</time>
      </trkpt>
      <trkpt lat="44.75768" lon="-0.21066">
        <ele>54</ele>
        <time>2017-05-23T13:37:10Z</time>
      </trkpt>
      <trkpt lat="44.75773" lon="-0.21062">
        <ele>54</ele>
        <time>2017-05-23T13:37:10Z</time>
      </trkpt>
      <trkpt lat="44.75777" lon="-0.21061">
        <ele>54</ele>
        <time>2017-05-23T13:37:10Z</time>
      </trkpt>
      <trkpt lat="44.7578" lon="-0.21056">
        <ele>54</ele>
        <time>2017-05-23T13:37:10Z</time>
      </trkpt>
      <trkpt lat="44.75785" lon="-0.21058">
        <ele>54</ele>
        <time>2017-05-23T13:37:26Z</time>
      </trkpt>
      <trkpt lat="44.75794" lon="-0.2107">
        <ele>58</ele>
        <time>2017-05-23T13:37:26Z</time>
      </trkpt>
      <trkpt lat="44.75799" lon="-0.21074">
        <ele>58</ele>
        <time>2017-05-23T13:37:42Z</time>
      </trkpt>
      <trkpt lat="44.75815" lon="-0.21096">
        <ele>58</ele>
        <time>2017-05-23T13:37:42Z</time>
      </trkpt>
      <trkpt lat="44.75823" lon="-0.21105">
        <ele>58</ele>
        <time>2017-05-23T13:38:42Z</time>
      </trkpt>
      <trkpt lat="44.75852" lon="-0.21127">
        <ele>54</ele>
        <time>2017-05-23T13:38:42Z</time>
      </trkpt>
      <trkpt lat="44.75855" lon="-0.21136">
        <ele>54</ele>
        <time>2017-05-23T13:38:58Z</time>
      </trkpt>
      <trkpt lat="44.75863" lon="-0.21155">
        <ele>54</ele>
        <time>2017-05-23T13:38:58Z</time>
      </trkpt>
      <trkpt lat="44.75866" lon="-0.21165">
        <ele>54</ele>
        <time>2017-05-23T13:39:58Z</time>
      </trkpt>
      <trkpt lat="44.75894" lon="-0.21203">
        <ele>40</ele>
        <time>2017-05-23T13:39:58Z</time>
      </trkpt>
      <trkpt lat="44.759" lon="-0.21203">
        <ele>40</ele>
        <time>2017-05-23T13:39:58Z</time>
      </trkpt>
      <trkpt lat="44.75903" lon="-0.21201">
        <ele>40</ele>
        <time>2017-05-23T13:40:14Z</time>
      </trkpt>
      <trkpt lat="44.75907" lon="-0.21201">
        <ele>40</ele>
        <time>2017-05-23T13:40:14Z</time>
      </trkpt>
      <trkpt lat="44.7592" lon="-0.21208">
        <ele>40</ele>
        <time>2017-05-23T13:40:30Z</time>
      </trkpt>
      <trkpt lat="44.75923" lon="-0.21208">
        <ele>40</ele>
        <time>2017-05-23T13:40:30Z</time>
      </trkpt>
      <trkpt lat="44.75926" lon="-0.21207">
        <ele>40</ele>
        <time>2017-05-23T13:40:30Z</time>
      </trkpt>
      <trkpt lat="44.75929" lon="-0.21207">
        <ele>40</ele>
        <time>2017-05-23T13:40:30Z</time>
      </trkpt>
      <trkpt lat="44.75935" lon="-0.21213">
        <ele>33</ele>
        <time>2017-05-23T13:40:46Z</time>
      </trkpt>
      <trkpt lat="44.75939" lon="-0.21214">
        <ele>33</ele>
        <time>2017-05-23T13:40:46Z</time>
      </trkpt>
      <trkpt lat="44.75948" lon="-0.21228">
        <ele>33</ele>
        <time>2017-05-23T13:40:46Z</time>
      </trkpt>
      <trkpt lat="44.75948" lon="-0.21234">
        <ele>33</ele>
        <time>2017-05-23T13:41:14Z</time>
      </trkpt>
      <trkpt lat="44.75949" lon="-0.21238">
        <ele>33</ele>
        <time>2017-05-23T13:41:14Z</time>
      </trkpt>
      <trkpt lat="44.75951" lon="-0.2124">
        <ele>33</ele>
        <time>2017-05-23T13:41:14Z</time>
      </trkpt>
      <trkpt lat="44.75957" lon="-0.21241">
        <ele>33</ele>
        <time>2017-05-23T13:41:34Z</time>
      </trkpt>
      <trkpt lat="44.75958" lon="-0.21238">
        <ele>33</ele>
        <time>2017-05-23T13:41:34Z</time>
      </trkpt>
      <trkpt lat="44.75963" lon="-0.21241">
        <ele>31</ele>
        <time>2017-05-23T13:41:34Z</time>
      </trkpt>
      <trkpt lat="44.75964" lon="-0.21245">
        <ele>31</ele>
        <time>2017-05-23T13:41:34Z</time>
      </trkpt>
      <trkpt lat="44.75972" lon="-0.21256">
        <ele>31</ele>
        <time>2017-05-23T13:41:54Z</time>
      </trkpt>
      <trkpt lat="44.75972" lon="-0.21261">
        <ele>31</ele>
        <time>2017-05-23T13:41:54Z</time>
      </trkpt>
      <trkpt lat="44.75969" lon="-0.21268">
        <ele>31</ele>
        <time>2017-05-23T13:41:54Z</time>
      </trkpt>
      <trkpt lat="44.75968" lon="-0.21277">
        <ele>31</ele>
        <time>2017-05-23T13:42:10Z</time>
      </trkpt>
      <trkpt lat="44.75968" lon="-0.21282">
        <ele>31</ele>
        <time>2017-05-23T13:42:10Z</time>
      </trkpt>
      <trkpt lat="44.75967" lon="-0.21288">
        <ele>31</ele>
        <time>2017-05-23T13:42:10Z</time>
      </trkpt>
      <trkpt lat="44.7597" lon="-0.21301">
        <ele>31</ele>
        <time>2017-05-23T13:42:26Z</time>
      </trkpt>
      <trkpt lat="44.7597" lon="-0.21308">
        <ele>31</ele>
        <time>2017-05-23T13:42:26Z</time>
      </trkpt>
      <trkpt lat="44.75971" lon="-0.21316">
        <ele>31</ele>
        <time>2017-05-23T13:42:26Z</time>
      </trkpt>
      <trkpt lat="44.75972" lon="-0.21321">
        <ele>31</ele>
        <time>2017-05-23T13:42:42Z</time>
      </trkpt>
      <trkpt lat="44.75977" lon="-0.21326">
        <ele>31</ele>
        <time>2017-05-23T13:42:42Z</time>
      </trkpt>
      <trkpt lat="44.75979" lon="-0.21333">
        <ele>31</ele>
        <time>2017-05-23T13:42:42Z</time>
      </trkpt>
      <trkpt lat="44.75981" lon="-0.21346">
        <ele>31</ele>
        <time>2017-05-23T13:42:58Z</time>
      </trkpt>
      <trkpt lat="44.75986" lon="-0.21361">
        <ele>31</ele>
        <time>2017-05-23T13:42:58Z</time>
      </trkpt>
      <trkpt lat="44.75989" lon="-0.21367">
        <ele>31</ele>
        <time>2017-05-23T13:43:14Z</time>
      </trkpt>
      <trkpt lat="44.7599" lon="-0.21373">
        <ele>31</ele>
        <time>2017-05-23T13:43:14Z</time>
      </trkpt>
      <trkpt lat="44.75988" lon="-0.2138">
        <ele>30</ele>
        <time>2017-05-23T13:43:14Z</time>
      </trkpt>
      <trkpt lat="44.75987" lon="-0.21387">
        <ele>30</ele>
        <time>2017-05-23T13:43:14Z</time>
      </trkpt>
      <trkpt lat="44.75974" lon="-0.21411">
        <ele>30</ele>
        <time>2017-05-23T13:43:30Z</time>
      </trkpt>
      <trkpt lat="44.7597" lon="-0.2143">
        <ele>30</ele>
        <time>2017-05-23T13:43:46Z</time>
      </trkpt>
      <trkpt lat="44.75972" lon="-0.21436">
        <ele>30</ele>
        <time>2017-05-23T13:43:46Z</time>
      </trkpt>
      <trkpt lat="44.75971" lon="-0.21443">
        <ele>30</ele>
        <time>2017-05-23T13:43:46Z</time>
      </trkpt>
      <trkpt lat="44.75965" lon="-0.21466">
        <ele>31</ele>
        <time>2017-05-23T13:44:02Z</time>
      </trkpt>
      <trkpt lat="44.75965" lon="-0.21468">
        <ele>31</ele>
        <time>2017-05-23T13:44:22Z</time>
      </trkpt>
      <trkpt lat="44.75961" lon="-0.21478">
        <ele>31</ele>
        <time>2017-05-23T13:44:22Z</time>
      </trkpt>
      <trkpt lat="44.75959" lon="-0.21482">
        <ele>31</ele>
        <time>2017-05-23T13:44:22Z</time>
      </trkpt>
      <trkpt lat="44.75963" lon="-0.21487">
        <ele>31</ele>
        <time>2017-05-23T13:44:38Z</time>
      </trkpt>
      <trkpt lat="44.75968" lon="-0.21506">
        <ele>31</ele>
        <time>2017-05-23T13:44:54Z</time>
      </trkpt>
      <trkpt lat="44.75976" lon="-0.21515">
        <ele>31</ele>
        <time>2017-05-23T13:44:54Z</time>
      </trkpt>
      <trkpt lat="44.75981" lon="-0.21519">
        <ele>31</ele>
        <time>2017-05-23T13:45:10Z</time>
      </trkpt>
      <trkpt lat="44.75991" lon="-0.2153">
        <ele>31</ele>
        <time>2017-05-23T13:45:10Z</time>
      </trkpt>
      <trkpt lat="44.75994" lon="-0.21536">
        <ele>31</ele>
        <time>2017-05-23T13:45:10Z</time>
      </trkpt>
      <trkpt lat="44.75999" lon="-0.21542">
        <ele>31</ele>
        <time>2017-05-23T13:45:26Z</time>
      </trkpt>
      <trkpt lat="44.76005" lon="-0.21554">
        <ele>33</ele>
        <time>2017-05-23T13:45:26Z</time>
      </trkpt>
      <trkpt lat="44.76008" lon="-0.21551">
        <ele>33</ele>
        <time>2017-05-23T13:45:50Z</time>
      </trkpt>
      <trkpt lat="44.76013" lon="-0.21549">
        <ele>33</ele>
        <time>2017-05-23T13:45:50Z</time>
      </trkpt>
      <trkpt lat="44.76015" lon="-0.21546">
        <ele>33</ele>
        <time>2017-05-23T13:45:50Z</time>
      </trkpt>
      <trkpt lat="44.76023" lon="-0.21545">
        <ele>33</ele>
        <time>2017-05-23T13:46:06Z</time>
      </trkpt>
      <trkpt lat="44.76033" lon="-0.21535">
        <ele>31</ele>
        <time>2017-05-23T13:46:06Z</time>
      </trkpt>
      <trkpt lat="44.76035" lon="-0.21531">
        <ele>31</ele>
        <time>2017-05-23T13:46:22Z</time>
      </trkpt>
      <trkpt lat="44.76045" lon="-0.21527">
        <ele>32</ele>
        <time>2017-05-23T13:46:22Z</time>
      </trkpt>
      <trkpt lat="44.76052" lon="-0.21526">
        <ele>32</ele>
        <time>2017-05-23T13:46:22Z</time>
      </trkpt>
      <trkpt lat="44.76055" lon="-0.21523">
        <ele>32</ele>
        <time>2017-05-23T13:46:38Z</time>
      </trkpt>
      <trkpt lat="44.76063" lon="-0.21523">
        <ele>32</ele>
        <time>2017-05-23T13:46:38Z</time>
      </trkpt>
      <trkpt lat="44.76068" lon="-0.21525">
        <ele>32</ele>
        <time>2017-05-23T13:46:38Z</time>
      </trkpt>
      <trkpt lat="44.76073" lon="-0.21531">
        <ele>32</ele>
        <time>2017-05-23T13:46:54Z</time>
      </trkpt>
      <trkpt lat="44.76085" lon="-0.21555">
        <ele>36</ele>
        <time>2017-05-23T13:46:54Z</time>
      </trkpt>
      <trkpt lat="44.76087" lon="-0.21567">
        <ele>36</ele>
        <time>2017-05-23T13:48:10Z</time>
      </trkpt>
      <trkpt lat="44.76083" lon="-0.21566">
        <ele>36</ele>
        <time>2017-05-23T13:48:10Z</time>
      </trkpt>
      <trkpt lat="44.76089" lon="-0.21579">
        <ele>36</ele>
        <time>2017-05-23T13:48:26Z</time>
      </trkpt>
      <trkpt lat="44.76094" lon="-0.21591">
        <ele>36</ele>
        <time>2017-05-23T13:48:26Z</time>
      </trkpt>
      <trkpt lat="44.761" lon="-0.21602">
        <ele>36</ele>
        <time>2017-05-23T13:48:42Z</time>
      </trkpt>
      <trkpt lat="44.76107" lon="-0.21625">
        <ele>36</ele>
        <time>2017-05-23T13:49:02Z</time>
      </trkpt>
      <trkpt lat="44.76106" lon="-0.21624">
        <ele>36</ele>
        <time>2017-05-23T13:49:02Z</time>
      </trkpt>
      <trkpt lat="44.76105" lon="-0.21621">
        <ele>36</ele>
        <time>2017-05-23T13:49:02Z</time>
      </trkpt>
      <trkpt lat="44.76107" lon="-0.21605">
        <ele>36</ele>
        <time>2017-05-23T13:49:22Z</time>
      </trkpt>
      <trkpt lat="44.7611" lon="-0.21605">
        <ele>36</ele>
        <time>2017-05-23T13:49:22Z</time>
      </trkpt>
      <trkpt lat="44.76116" lon="-0.21594">
        <ele>36</ele>
        <time>2017-05-23T13:49:22Z</time>
      </trkpt>
      <trkpt lat="44.7612" lon="-0.2159">
        <ele>36</ele>
        <time>2017-05-23T13:49:38Z</time>
      </trkpt>
      <trkpt lat="44.76125" lon="-0.2159">
        <ele>36</ele>
        <time>2017-05-23T13:49:38Z</time>
      </trkpt>
      <trkpt lat="44.76135" lon="-0.21587">
        <ele>47</ele>
        <time>2017-05-23T13:49:38Z</time>
      </trkpt>
      <trkpt lat="44.76137" lon="-0.21585">
        <ele>47</ele>
        <time>2017-05-23T13:49:54Z</time>
      </trkpt>
      <trkpt lat="44.76143" lon="-0.21584">
        <ele>47</ele>
        <time>2017-05-23T13:49:54Z</time>
      </trkpt>
      <trkpt lat="44.76148" lon="-0.21582">
        <ele>47</ele>
        <time>2017-05-23T13:49:54Z</time>
      </trkpt>
      <trkpt lat="44.7615" lon="-0.21583">
        <ele>47</ele>
        <time>2017-05-23T13:50:18Z</time>
      </trkpt>
      <trkpt lat="44.76136" lon="-0.21587">
        <ele>47</ele>
        <time>2017-05-23T13:50:34Z</time>
      </trkpt>
      <trkpt lat="44.76168" lon="-0.21582">
        <ele>47</ele>
        <time>2017-05-23T13:50:34Z</time>
      </trkpt>
      <trkpt lat="44.76172" lon="-0.21583">
        <ele>47</ele>
        <time>2017-05-23T13:50:34Z</time>
      </trkpt>
      <trkpt lat="44.7618" lon="-0.21578">
        <ele>47</ele>
        <time>2017-05-23T13:50:50Z</time>
      </trkpt>
      <trkpt lat="44.76183" lon="-0.21573">
        <ele>47</ele>
        <time>2017-05-23T13:50:50Z</time>
      </trkpt>
      <trkpt lat="44.76184" lon="-0.21572">
        <ele>47</ele>
        <time>2017-05-23T13:50:50Z</time>
      </trkpt>
      <trkpt lat="44.76183" lon="-0.21569">
        <ele>47</ele>
        <time>2017-05-23T13:51:06Z</time>
      </trkpt>
      <trkpt lat="44.76186" lon="-0.21573">
        <ele>47</ele>
        <time>2017-05-23T13:51:06Z</time>
      </trkpt>
      <trkpt lat="44.762" lon="-0.2158">
        <ele>47</ele>
        <time>2017-05-23T13:51:22Z</time>
      </trkpt>
      <trkpt lat="44.76212" lon="-0.21572">
        <ele>53</ele>
        <time>2017-05-23T13:51:22Z</time>
      </trkpt>
      <trkpt lat="44.76213" lon="-0.21568">
        <ele>53</ele>
        <time>2017-05-23T13:51:38Z</time>
      </trkpt>
      <trkpt lat="44.76221" lon="-0.21555">
        <ele>53</ele>
        <time>2017-05-23T13:51:38Z</time>
      </trkpt>
      <trkpt lat="44.76227" lon="-0.21548">
        <ele>53</ele>
        <time>2017-05-23T13:51:38Z</time>
      </trkpt>
      <trkpt lat="44.76227" lon="-0.21542">
        <ele>53</ele>
        <time>2017-05-23T13:51:54Z</time>
      </trkpt>
      <trkpt lat="44.76232" lon="-0.21537">
        <ele>51</ele>
        <time>2017-05-23T13:51:54Z</time>
      </trkpt>
      <trkpt lat="44.76235" lon="-0.21532">
        <ele>51</ele>
        <time>2017-05-23T13:51:54Z</time>
      </trkpt>
      <trkpt lat="44.76242" lon="-0.21528">
        <ele>51</ele>
        <time>2017-05-23T13:52:10Z</time>
      </trkpt>
      <trkpt lat="44.76244" lon="-0.21534">
        <ele>51</ele>
        <time>2017-05-23T13:52:10Z</time>
      </trkpt>
      <trkpt lat="44.7625" lon="-0.21534">
        <ele>51</ele>
        <time>2017-05-23T13:52:10Z</time>
      </trkpt>
      <trkpt lat="44.76255" lon="-0.21531">
        <ele>51</ele>
        <time>2017-05-23T13:52:26Z</time>
      </trkpt>
      <trkpt lat="44.7626" lon="-0.21529">
        <ele>51</ele>
        <time>2017-05-23T13:52:26Z</time>
      </trkpt>
      <trkpt lat="44.76268" lon="-0.21515">
        <ele>51</ele>
        <time>2017-05-23T13:52:26Z</time>
      </trkpt>
      <trkpt lat="44.76273" lon="-0.2151">
        <ele>51</ele>
        <time>2017-05-23T13:52:42Z</time>
      </trkpt>
      <trkpt lat="44.76281" lon="-0.21505">
        <ele>51</ele>
        <time>2017-05-23T13:52:42Z</time>
      </trkpt>
      <trkpt lat="44.7629" lon="-0.2149">
        <ele>51</ele>
        <time>2017-05-23T13:52:58Z</time>
      </trkpt>
      <trkpt lat="44.76304" lon="-0.21478">
        <ele>52</ele>
        <time>2017-05-23T13:52:58Z</time>
      </trkpt>
      <trkpt lat="44.76308" lon="-0.21472">
        <ele>52</ele>
        <time>2017-05-23T13:53:14Z</time>
      </trkpt>
      <trkpt lat="44.76312" lon="-0.2147">
        <ele>52</ele>
        <time>2017-05-23T13:53:14Z</time>
      </trkpt>
      <trkpt lat="44.76317" lon="-0.21463">
        <ele>52</ele>
        <time>2017-05-23T13:53:14Z</time>
      </trkpt>
      <trkpt lat="44.7633" lon="-0.21457">
        <ele>43</ele>
        <time>2017-05-23T13:53:30Z</time>
      </trkpt>
      <trkpt lat="44.76332" lon="-0.21453">
        <ele>43</ele>
        <time>2017-05-23T13:53:30Z</time>
      </trkpt>
      <trkpt lat="44.76342" lon="-0.21442">
        <ele>43</ele>
        <time>2017-05-23T13:53:46Z</time>
      </trkpt>
      <trkpt lat="44.76345" lon="-0.2144">
        <ele>43</ele>
        <time>2017-05-23T13:53:46Z</time>
      </trkpt>
      <trkpt lat="44.76349" lon="-0.21439">
        <ele>43</ele>
        <time>2017-05-23T13:53:46Z</time>
      </trkpt>
      <trkpt lat="44.76353" lon="-0.21441">
        <ele>43</ele>
        <time>2017-05-23T13:54:02Z</time>
      </trkpt>
      <trkpt lat="44.76359" lon="-0.21439">
        <ele>43</ele>
        <time>2017-05-23T13:54:02Z</time>
      </trkpt>
      <trkpt lat="44.76367" lon="-0.21429">
        <ele>43</ele>
        <time>2017-05-23T13:54:02Z</time>
      </trkpt>
      <trkpt lat="44.76372" lon="-0.21419">
        <ele>43</ele>
        <time>2017-05-23T13:54:18Z</time>
      </trkpt>
      <trkpt lat="44.76383" lon="-0.21406">
        <ele>41</ele>
        <time>2017-05-23T13:54:34Z</time>
      </trkpt>
      <trkpt lat="44.76386" lon="-0.21398">
        <ele>41</ele>
        <time>2017-05-23T13:54:34Z</time>
      </trkpt>
      <trkpt lat="44.76391" lon="-0.21391">
        <ele>41</ele>
        <time>2017-05-23T13:54:34Z</time>
      </trkpt>
      <trkpt lat="44.76394" lon="-0.21382">
        <ele>41</ele>
        <time>2017-05-23T13:54:50Z</time>
      </trkpt>
      <trkpt lat="44.764" lon="-0.2138">
        <ele>41</ele>
        <time>2017-05-23T13:54:50Z</time>
      </trkpt>
      <trkpt lat="44.76408" lon="-0.21381">
        <ele>41</ele>
        <time>2017-05-23T13:54:50Z</time>
      </trkpt>
      <trkpt lat="44.76419" lon="-0.21387">
        <ele>41</ele>
        <time>2017-05-23T13:55:06Z</time>
      </trkpt>
      <trkpt lat="44.76422" lon="-0.21387">
        <ele>41</ele>
        <time>2017-05-23T13:55:06Z</time>
      </trkpt>
      <trkpt lat="44.76431" lon="-0.21396">
        <ele>41</ele>
        <time>2017-05-23T13:55:22Z</time>
      </trkpt>
      <trkpt lat="44.76437" lon="-0.21411">
        <ele>41</ele>
        <time>2017-05-23T13:55:38Z</time>
      </trkpt>
      <trkpt lat="44.76442" lon="-0.21418">
        <ele>41</ele>
        <time>2017-05-23T13:55:38Z</time>
      </trkpt>
      <trkpt lat="44.76449" lon="-0.21425">
        <ele>41</ele>
        <time>2017-05-23T13:55:54Z</time>
      </trkpt>
      <trkpt lat="44.76451" lon="-0.21433">
        <ele>41</ele>
        <time>2017-05-23T13:55:54Z</time>
      </trkpt>
      <trkpt lat="44.76456" lon="-0.21438">
        <ele>41</ele>
        <time>2017-05-23T13:56:10Z</time>
      </trkpt>
      <trkpt lat="44.76464" lon="-0.21452">
        <ele>54</ele>
        <time>2017-05-23T13:56:10Z</time>
      </trkpt>
      <trkpt lat="44.76474" lon="-0.21463">
        <ele>50</ele>
        <time>2017-05-23T13:56:26Z</time>
      </trkpt>
      <trkpt lat="44.7648" lon="-0.21475">
        <ele>50</ele>
        <time>2017-05-23T13:56:26Z</time>
      </trkpt>
      <trkpt lat="44.76483" lon="-0.21486">
        <ele>50</ele>
        <time>2017-05-23T13:56:26Z</time>
      </trkpt>
      <trkpt lat="44.76485" lon="-0.21497">
        <ele>50</ele>
        <time>2017-05-23T13:56:26Z</time>
      </trkpt>
      <trkpt lat="44.76484" lon="-0.21516">
        <ele>50</ele>
        <time>2017-05-23T13:56:42Z</time>
      </trkpt>
      <trkpt lat="44.76482" lon="-0.21523">
        <ele>50</ele>
        <time>2017-05-23T13:56:42Z</time>
      </trkpt>
      <trkpt lat="44.7648" lon="-0.21531">
        <ele>50</ele>
        <time>2017-05-23T13:56:58Z</time>
      </trkpt>
      <trkpt lat="44.76481" lon="-0.21536">
        <ele>50</ele>
        <time>2017-05-23T13:56:58Z</time>
      </trkpt>
      <trkpt lat="44.76481" lon="-0.21542">
        <ele>51</ele>
        <time>2017-05-23T13:56:58Z</time>
      </trkpt>
      <trkpt lat="44.76483" lon="-0.21546">
        <ele>51</ele>
        <time>2017-05-23T13:56:58Z</time>
      </trkpt>
      <trkpt lat="44.76487" lon="-0.21551">
        <ele>51</ele>
        <time>2017-05-23T13:57:18Z</time>
      </trkpt>
      <trkpt lat="44.76487" lon="-0.21554">
        <ele>51</ele>
        <time>2017-05-23T13:57:18Z</time>
      </trkpt>
      <trkpt lat="44.76494" lon="-0.21563">
        <ele>51</ele>
        <time>2017-05-23T13:57:34Z</time>
      </trkpt>
      <trkpt lat="44.7651" lon="-0.21577">
        <ele>51</ele>
        <time>2017-05-23T13:57:34Z</time>
      </trkpt>
      <trkpt lat="44.76514" lon="-0.21582">
        <ele>51</ele>
        <time>2017-05-23T13:57:50Z</time>
      </trkpt>
      <trkpt lat="44.76521" lon="-0.21587">
        <ele>51</ele>
        <time>2017-05-23T13:57:50Z</time>
      </trkpt>
      <trkpt lat="44.76539" lon="-0.21595">
        <ele>51</ele>
        <time>2017-05-23T13:58:06Z</time>
      </trkpt>
      <trkpt lat="44.76544" lon="-0.21594">
        <ele>58</ele>
        <time>2017-05-23T13:58:06Z</time>
      </trkpt>
      <trkpt lat="44.76548" lon="-0.21591">
        <ele>58</ele>
        <time>2017-05-23T13:58:22Z</time>
      </trkpt>
      <trkpt lat="44.76555" lon="-0.21583">
        <ele>58</ele>
        <time>2017-05-23T13:58:22Z</time>
      </trkpt>
      <trkpt lat="44.7656" lon="-0.21567">
        <ele>58</ele>
        <time>2017-05-23T13:58:38Z</time>
      </trkpt>
      <trkpt lat="44.76568" lon="-0.21558">
        <ele>58</ele>
        <time>2017-05-23T13:58:38Z</time>
      </trkpt>
      <trkpt lat="44.76579" lon="-0.21548">
        <ele>58</ele>
        <time>2017-05-23T13:58:54Z</time>
      </trkpt>
      <trkpt lat="44.76583" lon="-0.21544">
        <ele>58</ele>
        <time>2017-05-23T13:58:54Z</time>
      </trkpt>
      <trkpt lat="44.76587" lon="-0.21543">
        <ele>58</ele>
        <time>2017-05-23T13:59:10Z</time>
      </trkpt>
      <trkpt lat="44.76608" lon="-0.21523">
        <ele>57</ele>
        <time>2017-05-23T13:59:26Z</time>
      </trkpt>
      <trkpt lat="44.76622" lon="-0.21512">
        <ele>57</ele>
        <time>2017-05-23T13:59:42Z</time>
      </trkpt>
      <trkpt lat="44.7663" lon="-0.21502">
        <ele>61</ele>
        <time>2017-05-23T13:59:42Z</time>
      </trkpt>
      <trkpt lat="44.76635" lon="-0.21497">
        <ele>61</ele>
        <time>2017-05-23T13:59:58Z</time>
      </trkpt>
      <trkpt lat="44.76637" lon="-0.2149">
        <ele>61</ele>
        <time>2017-05-23T13:59:58Z</time>
      </trkpt>
      <trkpt lat="44.76642" lon="-0.21487">
        <ele>61</ele>
        <time>2017-05-23T13:59:58Z</time>
      </trkpt>
      <trkpt lat="44.76646" lon="-0.21482">
        <ele>61</ele>
        <time>2017-05-23T13:59:58Z</time>
      </trkpt>
      <trkpt lat="44.76648" lon="-0.2148">
        <ele>61</ele>
        <time>2017-05-23T14:00:14Z</time>
      </trkpt>
      <trkpt lat="44.76652" lon="-0.21476">
        <ele>61</ele>
        <time>2017-05-23T14:00:14Z</time>
      </trkpt>
      <trkpt lat="44.76654" lon="-0.21469">
        <ele>61</ele>
        <time>2017-05-23T14:00:14Z</time>
      </trkpt>
      <trkpt lat="44.76668" lon="-0.21463">
        <ele>61</ele>
        <time>2017-05-23T14:00:30Z</time>
      </trkpt>
      <trkpt lat="44.76671" lon="-0.21458">
        <ele>61</ele>
        <time>2017-05-23T14:00:30Z</time>
      </trkpt>
      <trkpt lat="44.76676" lon="-0.21456">
        <ele>61</ele>
        <time>2017-05-23T14:00:30Z</time>
      </trkpt>
      <trkpt lat="44.76692" lon="-0.21446">
        <ele>61</ele>
        <time>2017-05-23T14:00:46Z</time>
      </trkpt>
      <trkpt lat="44.76697" lon="-0.21442">
        <ele>61</ele>
        <time>2017-05-23T14:00:46Z</time>
      </trkpt>
      <trkpt lat="44.76707" lon="-0.21435">
        <ele>61</ele>
        <time>2017-05-23T14:01:02Z</time>
      </trkpt>
      <trkpt lat="44.76711" lon="-0.2143">
        <ele>64</ele>
        <time>2017-05-23T14:01:02Z</time>
      </trkpt>
      <trkpt lat="44.76716" lon="-0.21427">
        <ele>64</ele>
        <time>2017-05-23T14:01:02Z</time>
      </trkpt>
      <trkpt lat="44.76721" lon="-0.21425">
        <ele>64</ele>
        <time>2017-05-23T14:01:18Z</time>
      </trkpt>
      <trkpt lat="44.76725" lon="-0.2142">
        <ele>64</ele>
        <time>2017-05-23T14:01:18Z</time>
      </trkpt>
      <trkpt lat="44.7673" lon="-0.21418">
        <ele>64</ele>
        <time>2017-05-23T14:01:18Z</time>
      </trkpt>
      <trkpt lat="44.76734" lon="-0.21412">
        <ele>64</ele>
        <time>2017-05-23T14:01:18Z</time>
      </trkpt>
      <trkpt lat="44.76739" lon="-0.21409">
        <ele>64</ele>
        <time>2017-05-23T14:01:34Z</time>
      </trkpt>
      <trkpt lat="44.76742" lon="-0.21405">
        <ele>64</ele>
        <time>2017-05-23T14:01:34Z</time>
      </trkpt>
      <trkpt lat="44.76745" lon="-0.21404">
        <ele>64</ele>
        <time>2017-05-23T14:01:34Z</time>
      </trkpt>
      <trkpt lat="44.76759" lon="-0.2139">
        <ele>64</ele>
        <time>2017-05-23T14:01:50Z</time>
      </trkpt>
      <trkpt lat="44.76767" lon="-0.21386">
        <ele>64</ele>
        <time>2017-05-23T14:01:50Z</time>
      </trkpt>
      <trkpt lat="44.76771" lon="-0.21379">
        <ele>64</ele>
        <time>2017-05-23T14:02:06Z</time>
      </trkpt>
      <trkpt lat="44.76785" lon="-0.21376">
        <ele>64</ele>
        <time>2017-05-23T14:02:06Z</time>
      </trkpt>
      <trkpt lat="44.7679" lon="-0.21371">
        <ele>66</ele>
        <time>2017-05-23T14:02:06Z</time>
      </trkpt>
      <trkpt lat="44.76794" lon="-0.21363">
        <ele>71</ele>
        <time>2017-05-23T14:02:22Z</time>
      </trkpt>
      <trkpt lat="44.768" lon="-0.21366">
        <ele>71</ele>
        <time>2017-05-23T14:02:22Z</time>
      </trkpt>
      <trkpt lat="44.76805" lon="-0.21366">
        <ele>71</ele>
        <time>2017-05-23T14:02:22Z</time>
      </trkpt>
      <trkpt lat="44.76816" lon="-0.21368">
        <ele>71</ele>
        <time>2017-05-23T14:02:38Z</time>
      </trkpt>
      <trkpt lat="44.7682" lon="-0.21362">
        <ele>71</ele>
        <time>2017-05-23T14:02:38Z</time>
      </trkpt>
      <trkpt lat="44.76825" lon="-0.21361">
        <ele>71</ele>
        <time>2017-05-23T14:02:38Z</time>
      </trkpt>
      <trkpt lat="44.76836" lon="-0.21351">
        <ele>71</ele>
        <time>2017-05-23T14:02:54Z</time>
      </trkpt>
      <trkpt lat="44.76841" lon="-0.21355">
        <ele>71</ele>
        <time>2017-05-23T14:02:54Z</time>
      </trkpt>
      <trkpt lat="44.76861" lon="-0.21348">
        <ele>71</ele>
        <time>2017-05-23T14:03:10Z</time>
      </trkpt>
      <trkpt lat="44.76865" lon="-0.21349">
        <ele>71</ele>
        <time>2017-05-23T14:03:26Z</time>
      </trkpt>
      <trkpt lat="44.76868" lon="-0.21345">
        <ele>71</ele>
        <time>2017-05-23T14:03:26Z</time>
      </trkpt>
      <trkpt lat="44.76873" lon="-0.21344">
        <ele>71</ele>
        <time>2017-05-23T14:03:26Z</time>
      </trkpt>
      <trkpt lat="44.76881" lon="-0.21347">
        <ele>75</ele>
        <time>2017-05-23T14:03:26Z</time>
      </trkpt>
      <trkpt lat="44.76892" lon="-0.21356">
        <ele>75</ele>
        <time>2017-05-23T14:03:42Z</time>
      </trkpt>
      <trkpt lat="44.76908" lon="-0.21365">
        <ele>75</ele>
        <time>2017-05-23T14:03:58Z</time>
      </trkpt>
      <trkpt lat="44.76913" lon="-0.21366">
        <ele>75</ele>
        <time>2017-05-23T14:03:58Z</time>
      </trkpt>
      <trkpt lat="44.76921" lon="-0.21364">
        <ele>75</ele>
        <time>2017-05-23T14:03:58Z</time>
      </trkpt>
      <trkpt lat="44.7693" lon="-0.2136">
        <ele>75</ele>
        <time>2017-05-23T14:04:14Z</time>
      </trkpt>
      <trkpt lat="44.76934" lon="-0.21356">
        <ele>75</ele>
        <time>2017-05-23T14:04:14Z</time>
      </trkpt>
      <trkpt lat="44.76958" lon="-0.21352">
        <ele>75</ele>
        <time>2017-05-23T14:04:30Z</time>
      </trkpt>
      <trkpt lat="44.76969" lon="-0.21346">
        <ele>76</ele>
        <time>2017-05-23T14:04:46Z</time>
      </trkpt>
      <trkpt lat="44.76987" lon="-0.21331">
        <ele>76</ele>
        <time>2017-05-23T14:05:02Z</time>
      </trkpt>
      <trkpt lat="44.76997" lon="-0.21326">
        <ele>76</ele>
        <time>2017-05-23T14:05:02Z</time>
      </trkpt>
      <trkpt lat="44.77006" lon="-0.21319">
        <ele>76</ele>
        <time>2017-05-23T14:05:18Z</time>
      </trkpt>
      <trkpt lat="44.77015" lon="-0.21316">
        <ele>76</ele>
        <time>2017-05-23T14:05:18Z</time>
      </trkpt>
      <trkpt lat="44.7702" lon="-0.21312">
        <ele>76</ele>
        <time>2017-05-23T14:05:18Z</time>
      </trkpt>
      <trkpt lat="44.77038" lon="-0.21304">
        <ele>76</ele>
        <time>2017-05-23T14:05:34Z</time>
      </trkpt>
      <trkpt lat="44.77041" lon="-0.21298">
        <ele>76</ele>
        <time>2017-05-23T14:05:50Z</time>
      </trkpt>
      <trkpt lat="44.77044" lon="-0.21293">
        <ele>77</ele>
        <time>2017-05-23T14:05:50Z</time>
      </trkpt>
      <trkpt lat="44.77046" lon="-0.21287">
        <ele>73</ele>
        <time>2017-05-23T14:05:50Z</time>
      </trkpt>
      <trkpt lat="44.77046" lon="-0.21281">
        <ele>73</ele>
        <time>2017-05-23T14:05:50Z</time>
      </trkpt>
      <trkpt lat="44.77037" lon="-0.21261">
        <ele>78</ele>
        <time>2017-05-23T14:06:06Z</time>
      </trkpt>
      <trkpt lat="44.77035" lon="-0.21255">
        <ele>78</ele>
        <time>2017-05-23T14:06:22Z</time>
      </trkpt>
      <trkpt lat="44.77029" lon="-0.21246">
        <ele>78</ele>
        <time>2017-05-23T14:06:22Z</time>
      </trkpt>
      <trkpt lat="44.77028" lon="-0.21239">
        <ele>78</ele>
        <time>2017-05-23T14:06:22Z</time>
      </trkpt>
      <trkpt lat="44.7703" lon="-0.21231">
        <ele>78</ele>
        <time>2017-05-23T14:06:38Z</time>
      </trkpt>
      <trkpt lat="44.77028" lon="-0.21206">
        <ele>77</ele>
        <time>2017-05-23T14:06:54Z</time>
      </trkpt>
      <trkpt lat="44.77032" lon="-0.21194">
        <ele>77</ele>
        <time>2017-05-23T14:06:54Z</time>
      </trkpt>
      <trkpt lat="44.77035" lon="-0.2119">
        <ele>77</ele>
        <time>2017-05-23T14:06:54Z</time>
      </trkpt>
      <trkpt lat="44.77047" lon="-0.21187">
        <ele>71</ele>
        <time>2017-05-23T14:07:10Z</time>
      </trkpt>
      <trkpt lat="44.77051" lon="-0.21188">
        <ele>71</ele>
        <time>2017-05-23T14:07:10Z</time>
      </trkpt>
      <trkpt lat="44.77059" lon="-0.21194">
        <ele>71</ele>
        <time>2017-05-23T14:07:30Z</time>
      </trkpt>
      <trkpt lat="44.77061" lon="-0.21194">
        <ele>71</ele>
        <time>2017-05-23T14:07:30Z</time>
      </trkpt>
      <trkpt lat="44.77078" lon="-0.21213">
        <ele>73</ele>
        <time>2017-05-23T14:07:46Z</time>
      </trkpt>
      <trkpt lat="44.77094" lon="-0.21228">
        <ele>73</ele>
        <time>2017-05-23T14:08:02Z</time>
      </trkpt>
      <trkpt lat="44.771" lon="-0.21237">
        <ele>73</ele>
        <time>2017-05-23T14:08:18Z</time>
      </trkpt>
      <trkpt lat="44.77104" lon="-0.21245">
        <ele>73</ele>
        <time>2017-05-23T14:08:18Z</time>
      </trkpt>
      <trkpt lat="44.77116" lon="-0.21262">
        <ele>73</ele>
        <time>2017-05-23T14:08:34Z</time>
      </trkpt>
      <trkpt lat="44.7713" lon="-0.21284">
        <ele>73</ele>
        <time>2017-05-23T14:08:50Z</time>
      </trkpt>
      <trkpt lat="44.77134" lon="-0.21289">
        <ele>73</ele>
        <time>2017-05-23T14:08:50Z</time>
      </trkpt>
      <trkpt lat="44.7714" lon="-0.21299">
        <ele>76</ele>
        <time>2017-05-23T14:08:50Z</time>
      </trkpt>
      <trkpt lat="44.77141" lon="-0.21303">
        <ele>76</ele>
        <time>2017-05-23T14:09:06Z</time>
      </trkpt>
      <trkpt lat="44.77152" lon="-0.21318">
        <ele>76</ele>
        <time>2017-05-23T14:09:06Z</time>
      </trkpt>
      <trkpt lat="44.77161" lon="-0.21338">
        <ele>76</ele>
        <time>2017-05-23T14:09:22Z</time>
      </trkpt>
      <trkpt lat="44.77167" lon="-0.21342">
        <ele>76</ele>
        <time>2017-05-23T14:09:58Z</time>
      </trkpt>
      <trkpt lat="44.7717" lon="-0.21348">
        <ele>76</ele>
        <time>2017-05-23T14:09:58Z</time>
      </trkpt>
      <trkpt lat="44.77175" lon="-0.21353">
        <ele>76</ele>
        <time>2017-05-23T14:09:58Z</time>
      </trkpt>
      <trkpt lat="44.77186" lon="-0.21371">
        <ele>76</ele>
        <time>2017-05-23T14:09:58Z</time>
      </trkpt>
      <trkpt lat="44.77192" lon="-0.21384">
        <ele>79</ele>
        <time>2017-05-23T14:10:14Z</time>
      </trkpt>
      <trkpt lat="44.77193" lon="-0.2139">
        <ele>79</ele>
        <time>2017-05-23T14:10:14Z</time>
      </trkpt>
      <trkpt lat="44.77195" lon="-0.21393">
        <ele>79</ele>
        <time>2017-05-23T14:10:14Z</time>
      </trkpt>
      <trkpt lat="44.77198" lon="-0.21395">
        <ele>79</ele>
        <time>2017-05-23T14:10:30Z</time>
      </trkpt>
      <trkpt lat="44.77201" lon="-0.214">
        <ele>79</ele>
        <time>2017-05-23T14:10:30Z</time>
      </trkpt>
      <trkpt lat="44.77209" lon="-0.21422">
        <ele>75</ele>
        <time>2017-05-23T14:10:46Z</time>
      </trkpt>
      <trkpt lat="44.77212" lon="-0.21424">
        <ele>75</ele>
        <time>2017-05-23T14:10:46Z</time>
      </trkpt>
      <trkpt lat="44.77221" lon="-0.2145">
        <ele>75</ele>
        <time>2017-05-23T14:11:02Z</time>
      </trkpt>
      <trkpt lat="44.77227" lon="-0.21456">
        <ele>75</ele>
        <time>2017-05-23T14:11:18Z</time>
      </trkpt>
      <trkpt lat="44.77236" lon="-0.21475">
        <ele>81</ele>
        <time>2017-05-23T14:11:18Z</time>
      </trkpt>
      <trkpt lat="44.77238" lon="-0.21481">
        <ele>81</ele>
        <time>2017-05-23T14:11:38Z</time>
      </trkpt>
      <trkpt lat="44.77241" lon="-0.21485">
        <ele>81</ele>
        <time>2017-05-23T14:11:38Z</time>
      </trkpt>
      <trkpt lat="44.7724" lon="-0.21488">
        <ele>81</ele>
        <time>2017-05-23T14:11:38Z</time>
      </trkpt>
      <trkpt lat="44.77238" lon="-0.21488">
        <ele>81</ele>
        <time>2017-05-23T14:11:38Z</time>
      </trkpt>
      <trkpt lat="44.77242" lon="-0.21494">
        <ele>81</ele>
        <time>2017-05-23T14:11:38Z</time>
      </trkpt>
      <trkpt lat="44.77249" lon="-0.21501">
        <ele>81</ele>
        <time>2017-05-23T14:11:54Z</time>
      </trkpt>
      <trkpt lat="44.77253" lon="-0.2151">
        <ele>81</ele>
        <time>2017-05-23T14:11:54Z</time>
      </trkpt>
      <trkpt lat="44.77258" lon="-0.21526">
        <ele>81</ele>
        <time>2017-05-23T14:11:54Z</time>
      </trkpt>
      <trkpt lat="44.77252" lon="-0.21543">
        <ele>81</ele>
        <time>2017-05-23T14:12:10Z</time>
      </trkpt>
      <trkpt lat="44.7725" lon="-0.21555">
        <ele>81</ele>
        <time>2017-05-23T14:12:10Z</time>
      </trkpt>
      <trkpt lat="44.77244" lon="-0.21566">
        <ele>81</ele>
        <time>2017-05-23T14:12:26Z</time>
      </trkpt>
      <trkpt lat="44.7724" lon="-0.21569">
        <ele>81</ele>
        <time>2017-05-23T14:12:26Z</time>
      </trkpt>
      <trkpt lat="44.7724" lon="-0.21575">
        <ele>81</ele>
        <time>2017-05-23T14:12:26Z</time>
      </trkpt>
      <trkpt lat="44.77237" lon="-0.21581">
        <ele>81</ele>
        <time>2017-05-23T14:12:26Z</time>
      </trkpt>
      <trkpt lat="44.77232" lon="-0.21585">
        <ele>81</ele>
        <time>2017-05-23T14:12:42Z</time>
      </trkpt>
      <trkpt lat="44.77227" lon="-0.21592">
        <ele>81</ele>
        <time>2017-05-23T14:12:42Z</time>
      </trkpt>
      <trkpt lat="44.77227" lon="-0.21597">
        <ele>81</ele>
        <time>2017-05-23T14:12:42Z</time>
      </trkpt>
      <trkpt lat="44.77223" lon="-0.21603">
        <ele>81</ele>
        <time>2017-05-23T14:12:42Z</time>
      </trkpt>
      <trkpt lat="44.77212" lon="-0.21608">
        <ele>81</ele>
        <time>2017-05-23T14:12:58Z</time>
      </trkpt>
      <trkpt lat="44.77201" lon="-0.21611">
        <ele>81</ele>
        <time>2017-05-23T14:12:58Z</time>
      </trkpt>
      <trkpt lat="44.77185" lon="-0.21627">
        <ele>80</ele>
        <time>2017-05-23T14:13:14Z</time>
      </trkpt>
      <trkpt lat="44.77183" lon="-0.21634">
        <ele>80</ele>
        <time>2017-05-23T14:13:30Z</time>
      </trkpt>
      <trkpt lat="44.77174" lon="-0.21647">
        <ele>80</ele>
        <time>2017-05-23T14:13:30Z</time>
      </trkpt>
      <trkpt lat="44.77172" lon="-0.21651">
        <ele>80</ele>
        <time>2017-05-23T14:13:46Z</time>
      </trkpt>
      <trkpt lat="44.77174" lon="-0.21658">
        <ele>80</ele>
        <time>2017-05-23T14:13:46Z</time>
      </trkpt>
      <trkpt lat="44.77182" lon="-0.21669">
        <ele>80</ele>
        <time>2017-05-23T14:13:46Z</time>
      </trkpt>
      <trkpt lat="44.77184" lon="-0.21676">
        <ele>80</ele>
        <time>2017-05-23T14:14:02Z</time>
      </trkpt>
      <trkpt lat="44.77193" lon="-0.21684">
        <ele>80</ele>
        <time>2017-05-23T14:14:02Z</time>
      </trkpt>
      <trkpt lat="44.77197" lon="-0.2169">
        <ele>80</ele>
        <time>2017-05-23T14:14:02Z</time>
      </trkpt>
      <trkpt lat="44.772" lon="-0.21702">
        <ele>80</ele>
        <time>2017-05-23T14:14:18Z</time>
      </trkpt>
      <trkpt lat="44.77199" lon="-0.21708">
        <ele>80</ele>
        <time>2017-05-23T14:14:18Z</time>
      </trkpt>
      <trkpt lat="44.772" lon="-0.21714">
        <ele>80</ele>
        <time>2017-05-23T14:14:18Z</time>
      </trkpt>
      <trkpt lat="44.77202" lon="-0.21719">
        <ele>80</ele>
        <time>2017-05-23T14:14:34Z</time>
      </trkpt>
      <trkpt lat="44.77208" lon="-0.21725">
        <ele>80</ele>
        <time>2017-05-23T14:14:34Z</time>
      </trkpt>
      <trkpt lat="44.77212" lon="-0.21733">
        <ele>84</ele>
        <time>2017-05-23T14:14:34Z</time>
      </trkpt>
      <trkpt lat="44.77215" lon="-0.21742">
        <ele>84</ele>
        <time>2017-05-23T14:14:50Z</time>
      </trkpt>
      <trkpt lat="44.77218" lon="-0.2176">
        <ele>84</ele>
        <time>2017-05-23T14:14:50Z</time>
      </trkpt>
      <trkpt lat="44.77222" lon="-0.21766">
        <ele>84</ele>
        <time>2017-05-23T14:15:06Z</time>
      </trkpt>
      <trkpt lat="44.77228" lon="-0.21786">
        <ele>84</ele>
        <time>2017-05-23T14:15:06Z</time>
      </trkpt>
      <trkpt lat="44.7723" lon="-0.21808">
        <ele>82</ele>
        <time>2017-05-23T14:15:22Z</time>
      </trkpt>
      <trkpt lat="44.77241" lon="-0.21825">
        <ele>82</ele>
        <time>2017-05-23T14:15:38Z</time>
      </trkpt>
      <trkpt lat="44.77247" lon="-0.21837">
        <ele>82</ele>
        <time>2017-05-23T14:15:54Z</time>
      </trkpt>
      <trkpt lat="44.77275" lon="-0.21884">
        <ele>79</ele>
        <time>2017-05-23T14:16:26Z</time>
      </trkpt>
      <trkpt lat="44.77279" lon="-0.21894">
        <ele>79</ele>
        <time>2017-05-23T14:16:26Z</time>
      </trkpt>
      <trkpt lat="44.77288" lon="-0.21908">
        <ele>79</ele>
        <time>2017-05-23T14:16:42Z</time>
      </trkpt>
      <trkpt lat="44.77296" lon="-0.21917">
        <ele>85</ele>
        <time>2017-05-23T14:16:58Z</time>
      </trkpt>
      <trkpt lat="44.77301" lon="-0.21929">
        <ele>85</ele>
        <time>2017-05-23T14:16:58Z</time>
      </trkpt>
      <trkpt lat="44.77303" lon="-0.21937">
        <ele>85</ele>
        <time>2017-05-23T14:16:58Z</time>
      </trkpt>
      <trkpt lat="44.77303" lon="-0.2195">
        <ele>85</ele>
        <time>2017-05-23T14:17:14Z</time>
      </trkpt>
      <trkpt lat="44.7731" lon="-0.21968">
        <ele>85</ele>
        <time>2017-05-23T14:17:30Z</time>
      </trkpt>
      <trkpt lat="44.7731" lon="-0.21974">
        <ele>85</ele>
        <time>2017-05-23T14:17:30Z</time>
      </trkpt>
      <trkpt lat="44.77311" lon="-0.2198">
        <ele>85</ele>
        <time>2017-05-23T14:17:30Z</time>
      </trkpt>
      <trkpt lat="44.77318" lon="-0.21994">
        <ele>85</ele>
        <time>2017-05-23T14:17:46Z</time>
      </trkpt>
      <trkpt lat="44.77319" lon="-0.22001">
        <ele>85</ele>
        <time>2017-05-23T14:17:46Z</time>
      </trkpt>
      <trkpt lat="44.77322" lon="-0.22008">
        <ele>85</ele>
        <time>2017-05-23T14:17:46Z</time>
      </trkpt>
      <trkpt lat="44.77329" lon="-0.22018">
        <ele>85</ele>
        <time>2017-05-23T14:18:22Z</time>
      </trkpt>
      <trkpt lat="44.77335" lon="-0.22012">
        <ele>85</ele>
        <time>2017-05-23T14:18:22Z</time>
      </trkpt>
      <trkpt lat="44.77341" lon="-0.22014">
        <ele>85</ele>
        <time>2017-05-23T14:18:22Z</time>
      </trkpt>
      <trkpt lat="44.77353" lon="-0.22039">
        <ele>85</ele>
        <time>2017-05-23T14:18:54Z</time>
      </trkpt>
      <trkpt lat="44.77356" lon="-0.2206">
        <ele>85</ele>
        <time>2017-05-23T14:18:54Z</time>
      </trkpt>
      <trkpt lat="44.77358" lon="-0.22066">
        <ele>85</ele>
        <time>2017-05-23T14:19:14Z</time>
      </trkpt>
      <trkpt lat="44.77356" lon="-0.22069">
        <ele>85</ele>
        <time>2017-05-23T14:19:14Z</time>
      </trkpt>
      <trkpt lat="44.77356" lon="-0.22075">
        <ele>85</ele>
        <time>2017-05-23T14:19:14Z</time>
      </trkpt>
      <trkpt lat="44.77358" lon="-0.22081">
        <ele>85</ele>
        <time>2017-05-23T14:19:14Z</time>
      </trkpt>
      <trkpt lat="44.77357" lon="-0.22088">
        <ele>85</ele>
        <time>2017-05-23T14:19:30Z</time>
      </trkpt>
      <trkpt lat="44.77364" lon="-0.22094">
        <ele>85</ele>
        <time>2017-05-23T14:19:30Z</time>
      </trkpt>
      <trkpt lat="44.77367" lon="-0.22101">
        <ele>85</ele>
        <time>2017-05-23T14:19:30Z</time>
      </trkpt>
      <trkpt lat="44.77369" lon="-0.2211">
        <ele>85</ele>
        <time>2017-05-23T14:19:30Z</time>
      </trkpt>
      <trkpt lat="44.77368" lon="-0.22119">
        <ele>85</ele>
        <time>2017-05-23T14:19:46Z</time>
      </trkpt>
      <trkpt lat="44.77364" lon="-0.22124">
        <ele>85</ele>
        <time>2017-05-23T14:19:46Z</time>
      </trkpt>
      <trkpt lat="44.77364" lon="-0.22133">
        <ele>89</ele>
        <time>2017-05-23T14:19:46Z</time>
      </trkpt>
      <trkpt lat="44.77366" lon="-0.22141">
        <ele>89</ele>
        <time>2017-05-23T14:20:02Z</time>
      </trkpt>
      <trkpt lat="44.77364" lon="-0.22151">
        <ele>89</ele>
        <time>2017-05-23T14:20:02Z</time>
      </trkpt>
      <trkpt lat="44.77366" lon="-0.22172">
        <ele>89</ele>
        <time>2017-05-23T14:20:18Z</time>
      </trkpt>
      <trkpt lat="44.77363" lon="-0.22176">
        <ele>89</ele>
        <time>2017-05-23T14:20:18Z</time>
      </trkpt>
      <trkpt lat="44.77364" lon="-0.22187">
        <ele>89</ele>
        <time>2017-05-23T14:20:18Z</time>
      </trkpt>
      <trkpt lat="44.77361" lon="-0.22197">
        <ele>89</ele>
        <time>2017-05-23T14:20:42Z</time>
      </trkpt>
      <trkpt lat="44.77364" lon="-0.222">
        <ele>89</ele>
        <time>2017-05-23T14:20:43Z</time>
      </trkpt>
      <trkpt lat="44.77362" lon="-0.22208">
        <ele>89</ele>
        <time>2017-05-23T14:20:43Z</time>
      </trkpt>
      <trkpt lat="44.77362" lon="-0.22232">
        <ele>91</ele>
        <time>2017-05-23T14:20:58Z</time>
      </trkpt>
      <trkpt lat="44.77369" lon="-0.22253">
        <ele>91</ele>
        <time>2017-05-23T14:21:30Z</time>
      </trkpt>
      <trkpt lat="44.77361" lon="-0.22258">
        <ele>91</ele>
        <time>2017-05-23T14:21:30Z</time>
      </trkpt>
      <trkpt lat="44.7736" lon="-0.22262">
        <ele>91</ele>
        <time>2017-05-23T14:21:30Z</time>
      </trkpt>
      <trkpt lat="44.77356" lon="-0.22266">
        <ele>91</ele>
        <time>2017-05-23T14:21:46Z</time>
      </trkpt>
      <trkpt lat="44.77354" lon="-0.22271">
        <ele>91</ele>
        <time>2017-05-23T14:21:46Z</time>
      </trkpt>
      <trkpt lat="44.7735" lon="-0.22274">
        <ele>91</ele>
        <time>2017-05-23T14:21:46Z</time>
      </trkpt>
      <trkpt lat="44.77337" lon="-0.22279">
        <ele>91</ele>
        <time>2017-05-23T14:22:02Z</time>
      </trkpt>
      <trkpt lat="44.77332" lon="-0.22283">
        <ele>91</ele>
        <time>2017-05-23T14:22:02Z</time>
      </trkpt>
      <trkpt lat="44.77321" lon="-0.22286">
        <ele>91</ele>
        <time>2017-05-23T14:22:02Z</time>
      </trkpt>
      <trkpt lat="44.77319" lon="-0.22291">
        <ele>91</ele>
        <time>2017-05-23T14:22:02Z</time>
      </trkpt>
      <trkpt lat="44.773" lon="-0.22299">
        <ele>91</ele>
        <time>2017-05-23T14:22:18Z</time>
      </trkpt>
      <trkpt lat="44.77295" lon="-0.22304">
        <ele>91</ele>
        <time>2017-05-23T14:22:18Z</time>
      </trkpt>
      <trkpt lat="44.77291" lon="-0.22304">
        <ele>81</ele>
        <time>2017-05-23T14:22:34Z</time>
      </trkpt>
      <trkpt lat="44.77286" lon="-0.22308">
        <ele>81</ele>
        <time>2017-05-23T14:22:34Z</time>
      </trkpt>
      <trkpt lat="44.77281" lon="-0.22309">
        <ele>81</ele>
        <time>2017-05-23T14:22:34Z</time>
      </trkpt>
      <trkpt lat="44.77276" lon="-0.22314">
        <ele>81</ele>
        <time>2017-05-23T14:22:34Z</time>
      </trkpt>
      <trkpt lat="44.77265" lon="-0.22317">
        <ele>81</ele>
        <time>2017-05-23T14:22:50Z</time>
      </trkpt>
      <trkpt lat="44.77252" lon="-0.22323">
        <ele>81</ele>
        <time>2017-05-23T14:22:50Z</time>
      </trkpt>
      <trkpt lat="44.77241" lon="-0.22331">
        <ele>81</ele>
        <time>2017-05-23T14:23:06Z</time>
      </trkpt>
      <trkpt lat="44.77235" lon="-0.22333">
        <ele>81</ele>
        <time>2017-05-23T14:23:06Z</time>
      </trkpt>
      <trkpt lat="44.77227" lon="-0.22338">
        <ele>81</ele>
        <time>2017-05-23T14:23:22Z</time>
      </trkpt>
      <trkpt lat="44.77223" lon="-0.22343">
        <ele>81</ele>
        <time>2017-05-23T14:23:22Z</time>
      </trkpt>
      <trkpt lat="44.77213" lon="-0.2235">
        <ele>81</ele>
        <time>2017-05-23T14:23:22Z</time>
      </trkpt>
      <trkpt lat="44.77204" lon="-0.2236">
        <ele>76</ele>
        <time>2017-05-23T14:23:38Z</time>
      </trkpt>
      <trkpt lat="44.772" lon="-0.22369">
        <ele>76</ele>
        <time>2017-05-23T14:23:38Z</time>
      </trkpt>
      <trkpt lat="44.77202" lon="-0.22401">
        <ele>78</ele>
        <time>2017-05-23T14:24:10Z</time>
      </trkpt>
      <trkpt lat="44.77205" lon="-0.22418">
        <ele>78</ele>
        <time>2017-05-23T14:24:10Z</time>
      </trkpt>
      <trkpt lat="44.77214" lon="-0.22446">
        <ele>82</ele>
        <time>2017-05-23T14:24:26Z</time>
      </trkpt>
      <trkpt lat="44.77224" lon="-0.22462">
        <ele>82</ele>
        <time>2017-05-23T14:24:42Z</time>
      </trkpt>
      <trkpt lat="44.77225" lon="-0.22469">
        <ele>82</ele>
        <time>2017-05-23T14:24:42Z</time>
      </trkpt>
      <trkpt lat="44.77228" lon="-0.22472">
        <ele>82</ele>
        <time>2017-05-23T14:24:58Z</time>
      </trkpt>
      <trkpt lat="44.7724" lon="-0.22496">
        <ele>82</ele>
        <time>2017-05-23T14:25:14Z</time>
      </trkpt>
      <trkpt lat="44.77249" lon="-0.22511">
        <ele>82</ele>
        <time>2017-05-23T14:25:14Z</time>
      </trkpt>
      <trkpt lat="44.77254" lon="-0.22526">
        <ele>82</ele>
        <time>2017-05-23T14:25:30Z</time>
      </trkpt>
      <trkpt lat="44.77258" lon="-0.22532">
        <ele>82</ele>
        <time>2017-05-23T14:25:30Z</time>
      </trkpt>
      <trkpt lat="44.77265" lon="-0.22549">
        <ele>80</ele>
        <time>2017-05-23T14:25:46Z</time>
      </trkpt>
      <trkpt lat="44.77266" lon="-0.22555">
        <ele>80</ele>
        <time>2017-05-23T14:25:46Z</time>
      </trkpt>
      <trkpt lat="44.77266" lon="-0.22562">
        <ele>80</ele>
        <time>2017-05-23T14:25:46Z</time>
      </trkpt>
      <trkpt lat="44.77263" lon="-0.22569">
        <ele>80</ele>
        <time>2017-05-23T14:26:02Z</time>
      </trkpt>
      <trkpt lat="44.77259" lon="-0.22573">
        <ele>80</ele>
        <time>2017-05-23T14:26:02Z</time>
      </trkpt>
      <trkpt lat="44.7725" lon="-0.22579">
        <ele>80</ele>
        <time>2017-05-23T14:26:02Z</time>
      </trkpt>
      <trkpt lat="44.77247" lon="-0.22584">
        <ele>80</ele>
        <time>2017-05-23T14:26:18Z</time>
      </trkpt>
      <trkpt lat="44.77237" lon="-0.22594">
        <ele>80</ele>
        <time>2017-05-23T14:26:18Z</time>
      </trkpt>
      <trkpt lat="44.7723" lon="-0.22603">
        <ele>80</ele>
        <time>2017-05-23T14:26:34Z</time>
      </trkpt>
      <trkpt lat="44.77218" lon="-0.22616">
        <ele>80</ele>
        <time>2017-05-23T14:26:50Z</time>
      </trkpt>
      <trkpt lat="44.77209" lon="-0.22622">
        <ele>80</ele>
        <time>2017-05-23T14:26:50Z</time>
      </trkpt>
      <trkpt lat="44.77206" lon="-0.22626">
        <ele>78</ele>
        <time>2017-05-23T14:26:50Z</time>
      </trkpt>
      <trkpt lat="44.77202" lon="-0.2263">
        <ele>78</ele>
        <time>2017-05-23T14:27:06Z</time>
      </trkpt>
      <trkpt lat="44.77194" lon="-0.22634">
        <ele>78</ele>
        <time>2017-05-23T14:27:06Z</time>
      </trkpt>
      <trkpt lat="44.77184" lon="-0.2264">
        <ele>78</ele>
        <time>2017-05-23T14:27:22Z</time>
      </trkpt>
      <trkpt lat="44.77179" lon="-0.22642">
        <ele>78</ele>
        <time>2017-05-23T14:27:22Z</time>
      </trkpt>
      <trkpt lat="44.77175" lon="-0.22647">
        <ele>78</ele>
        <time>2017-05-23T14:27:22Z</time>
      </trkpt>
      <trkpt lat="44.77156" lon="-0.22658">
        <ele>78</ele>
        <time>2017-05-23T14:27:38Z</time>
      </trkpt>
      <trkpt lat="44.7714" lon="-0.2266">
        <ele>78</ele>
        <time>2017-05-23T14:27:54Z</time>
      </trkpt>
      <trkpt lat="44.77137" lon="-0.22663">
        <ele>78</ele>
        <time>2017-05-23T14:27:54Z</time>
      </trkpt>
      <trkpt lat="44.77134" lon="-0.22673">
        <ele>78</ele>
        <time>2017-05-23T14:27:54Z</time>
      </trkpt>
      <trkpt lat="44.77134" lon="-0.2268">
        <ele>78</ele>
        <time>2017-05-23T14:28:10Z</time>
      </trkpt>
      <trkpt lat="44.77135" lon="-0.22696">
        <ele>78</ele>
        <time>2017-05-23T14:28:10Z</time>
      </trkpt>
      <trkpt lat="44.77134" lon="-0.22713">
        <ele>79</ele>
        <time>2017-05-23T14:28:26Z</time>
      </trkpt>
      <trkpt lat="44.77132" lon="-0.22719">
        <ele>79</ele>
        <time>2017-05-23T14:28:26Z</time>
      </trkpt>
      <trkpt lat="44.77132" lon="-0.22726">
        <ele>79</ele>
        <time>2017-05-23T14:28:26Z</time>
      </trkpt>
      <trkpt lat="44.77134" lon="-0.22734">
        <ele>79</ele>
        <time>2017-05-23T14:28:26Z</time>
      </trkpt>
      <trkpt lat="44.77135" lon="-0.22748">
        <ele>79</ele>
        <time>2017-05-23T14:28:42Z</time>
      </trkpt>
      <trkpt lat="44.77134" lon="-0.22756">
        <ele>79</ele>
        <time>2017-05-23T14:28:42Z</time>
      </trkpt>
      <trkpt lat="44.77128" lon="-0.2276">
        <ele>79</ele>
        <time>2017-05-23T14:28:42Z</time>
      </trkpt>
      <trkpt lat="44.77128" lon="-0.22782">
        <ele>79</ele>
        <time>2017-05-23T14:28:58Z</time>
      </trkpt>
      <trkpt lat="44.77124" lon="-0.22804">
        <ele>77</ele>
        <time>2017-05-23T14:29:14Z</time>
      </trkpt>
      <trkpt lat="44.7712" lon="-0.22809">
        <ele>77</ele>
        <time>2017-05-23T14:29:14Z</time>
      </trkpt>
      <trkpt lat="44.77116" lon="-0.2281">
        <ele>77</ele>
        <time>2017-05-23T14:29:14Z</time>
      </trkpt>
    </trkseg>
  </trk>
  <trk>
    <name><![CDATA[randogps33-968]]></name>
    <extensions>
      <line xmlns="http://www.topografix.com/GPX/gpx_style/0/2">
        <color>008888</color>
        <width>4</width>
      </line>
    </extensions>
    <trkseg>
      <trkpt lat="44.87547" lon="-0.13347">
        <ele>40</ele>
        <time>2021-05-01T07:45:27.499Z</time>
      </trkpt>
      <trkpt lat="44.87551" lon="-0.13324">
        <ele>38</ele>
        <time>2021-05-01T07:45:29.500Z</time>
      </trkpt>
      <trkpt lat="44.87556" lon="-0.13313">
        <ele>37</ele>
        <time>2021-05-01T07:45:34.500Z</time>
      </trkpt>
      <trkpt lat="44.87552" lon="-0.13313">
        <ele>38</ele>
        <time>2021-05-01T07:45:36.500Z</time>
      </trkpt>
      <trkpt lat="44.87548" lon="-0.13311">
        <ele>38</ele>
        <time>2021-05-01T07:45:38.499Z</time>
      </trkpt>
      <trkpt lat="44.87544" lon="-0.133">
        <ele>36</ele>
        <time>2021-05-01T07:45:44.500Z</time>
      </trkpt>
      <trkpt lat="44.87542" lon="-0.1329">
        <ele>34</ele>
        <time>2021-05-01T07:45:49.500Z</time>
      </trkpt>
      <trkpt lat="44.87533" lon="-0.13254">
        <ele>31</ele>
        <time>2021-05-01T07:46:07.500Z</time>
      </trkpt>
      <trkpt lat="44.87533" lon="-0.1325">
        <ele>31</ele>
        <time>2021-05-01T07:46:09.500Z</time>
      </trkpt>
      <trkpt lat="44.87535" lon="-0.13239">
        <ele>32</ele>
        <time>2021-05-01T07:46:15.499Z</time>
      </trkpt>
      <trkpt lat="44.87545" lon="-0.13227">
        <ele>29</ele>
        <time>2021-05-01T07:46:26.499Z</time>
      </trkpt>
      <trkpt lat="44.87553" lon="-0.13224">
        <ele>28</ele>
        <time>2021-05-01T07:46:33.500Z</time>
      </trkpt>
      <trkpt lat="44.87558" lon="-0.1322">
        <ele>27</ele>
        <time>2021-05-01T07:46:38.499Z</time>
      </trkpt>
      <trkpt lat="44.87565" lon="-0.13221">
        <ele>26</ele>
        <time>2021-05-01T07:46:43.500Z</time>
      </trkpt>
      <trkpt lat="44.87568" lon="-0.13217">
        <ele>26</ele>
        <time>2021-05-01T07:46:46.500Z</time>
      </trkpt>
      <trkpt lat="44.87583" lon="-0.1321">
        <ele>24</ele>
        <time>2021-05-01T07:46:56.500Z</time>
      </trkpt>
      <trkpt lat="44.87587" lon="-0.13206">
        <ele>23</ele>
        <time>2021-05-01T07:46:59.500Z</time>
      </trkpt>
      <trkpt lat="44.87591" lon="-0.13201">
        <ele>23</ele>
        <time>2021-05-01T07:47:04.499Z</time>
      </trkpt>
      <trkpt lat="44.87595" lon="-0.13199">
        <ele>23</ele>
        <time>2021-05-01T07:47:08.500Z</time>
      </trkpt>
      <trkpt lat="44.87597" lon="-0.13196">
        <ele>22</ele>
        <time>2021-05-01T07:47:11.500Z</time>
      </trkpt>
      <trkpt lat="44.87602" lon="-0.13193">
        <ele>22</ele>
        <time>2021-05-01T07:47:15.500Z</time>
      </trkpt>
      <trkpt lat="44.87614" lon="-0.13182">
        <ele>22</ele>
        <time>2021-05-01T07:47:24.499Z</time>
      </trkpt>
      <trkpt lat="44.8763" lon="-0.13177">
        <ele>22</ele>
        <time>2021-05-01T07:47:32.499Z</time>
      </trkpt>
      <trkpt lat="44.87635" lon="-0.13171">
        <ele>20</ele>
        <time>2021-05-01T07:47:36.500Z</time>
      </trkpt>
      <trkpt lat="44.8764" lon="-0.13162">
        <ele>21</ele>
        <time>2021-05-01T07:47:42.500Z</time>
      </trkpt>
      <trkpt lat="44.87649" lon="-0.13154">
        <ele>24</ele>
        <time>2021-05-01T07:47:49.500Z</time>
      </trkpt>
      <trkpt lat="44.8766" lon="-0.13146">
        <ele>24</ele>
        <time>2021-05-01T07:47:57.500Z</time>
      </trkpt>
      <trkpt lat="44.87665" lon="-0.13145">
        <ele>24</ele>
        <time>2021-05-01T07:48:00.500Z</time>
      </trkpt>
      <trkpt lat="44.87677" lon="-0.13135">
        <ele>21</ele>
        <time>2021-05-01T07:48:09.499Z</time>
      </trkpt>
      <trkpt lat="44.8768" lon="-0.13134">
        <ele>21</ele>
        <time>2021-05-01T07:48:12.500Z</time>
      </trkpt>
      <trkpt lat="44.87682" lon="-0.13138">
        <ele>20</ele>
        <time>2021-05-01T07:48:15.500Z</time>
      </trkpt>
      <trkpt lat="44.87683" lon="-0.13148">
        <ele>21</ele>
        <time>2021-05-01T07:48:22.500Z</time>
      </trkpt>
      <trkpt lat="44.87686" lon="-0.13154">
        <ele>21</ele>
        <time>2021-05-01T07:48:25.500Z</time>
      </trkpt>
      <trkpt lat="44.87687" lon="-0.13161">
        <ele>22</ele>
        <time>2021-05-01T07:48:30.500Z</time>
      </trkpt>
      <trkpt lat="44.87689" lon="-0.13166">
        <ele>24</ele>
        <time>2021-05-01T07:48:34.500Z</time>
      </trkpt>
      <trkpt lat="44.87701" lon="-0.13218">
        <ele>26</ele>
        <time>2021-05-01T07:49:01.500Z</time>
      </trkpt>
      <trkpt lat="44.87708" lon="-0.13244">
        <ele>24</ele>
        <time>2021-05-01T07:49:17.500Z</time>
      </trkpt>
      <trkpt lat="44.87708" lon="-0.13246">
        <ele>24</ele>
        <time>2021-05-01T07:49:19.500Z</time>
      </trkpt>
      <trkpt lat="44.87715" lon="-0.13278">
        <ele>21</ele>
        <time>2021-05-01T07:49:35.500Z</time>
      </trkpt>
      <trkpt lat="44.87723" lon="-0.13297">
        <ele>17</ele>
        <time>2021-05-01T07:49:46.500Z</time>
      </trkpt>
      <trkpt lat="44.87726" lon="-0.13311">
        <ele>18</ele>
        <time>2021-05-01T07:49:52.500Z</time>
      </trkpt>
      <trkpt lat="44.87735" lon="-0.13338">
        <ele>18</ele>
        <time>2021-05-01T07:50:06.499Z</time>
      </trkpt>
      <trkpt lat="44.87743" lon="-0.13365">
        <ele>19</ele>
        <time>2021-05-01T07:50:20.500Z</time>
      </trkpt>
      <trkpt lat="44.87753" lon="-0.13419">
        <ele>20</ele>
        <time>2021-05-01T07:50:49.500Z</time>
      </trkpt>
      <trkpt lat="44.87756" lon="-0.13429">
        <ele>22</ele>
        <time>2021-05-01T07:50:56.500Z</time>
      </trkpt>
      <trkpt lat="44.8776" lon="-0.13447">
        <ele>21</ele>
        <time>2021-05-01T07:51:12.500Z</time>
      </trkpt>
      <trkpt lat="44.87792" lon="-0.13408">
        <ele>21</ele>
        <time>2021-05-01T07:51:13.501Z</time>
      </trkpt>
      <trkpt lat="44.87799" lon="-0.13406">
        <ele>20</ele>
        <time>2021-05-01T07:51:19.501Z</time>
      </trkpt>
      <trkpt lat="44.87806" lon="-0.13401">
        <ele>21</ele>
        <time>2021-05-01T07:51:25.501Z</time>
      </trkpt>
      <trkpt lat="44.87822" lon="-0.13394">
        <ele>19</ele>
        <time>2021-05-01T07:51:36.501Z</time>
      </trkpt>
      <trkpt lat="44.87829" lon="-0.1339">
        <ele>22</ele>
        <time>2021-05-01T07:51:42.501Z</time>
      </trkpt>
      <trkpt lat="44.87875" lon="-0.13372">
        <ele>26</ele>
        <time>2021-05-01T07:52:19.501Z</time>
      </trkpt>
      <trkpt lat="44.87879" lon="-0.13368">
        <ele>25</ele>
        <time>2021-05-01T07:52:23.501Z</time>
      </trkpt>
      <trkpt lat="44.87891" lon="-0.13365">
        <ele>28</ele>
        <time>2021-05-01T07:52:32.501Z</time>
      </trkpt>
      <trkpt lat="44.87898" lon="-0.13358">
        <ele>27</ele>
        <time>2021-05-01T07:52:38.500Z</time>
      </trkpt>
      <trkpt lat="44.87903" lon="-0.13354">
        <ele>28</ele>
        <time>2021-05-01T07:52:43.500Z</time>
      </trkpt>
      <trkpt lat="44.87924" lon="-0.13346">
        <ele>26</ele>
        <time>2021-05-01T07:52:58.501Z</time>
      </trkpt>
      <trkpt lat="44.87926" lon="-0.13344">
        <ele>27</ele>
        <time>2021-05-01T07:53:00.501Z</time>
      </trkpt>
      <trkpt lat="44.87929" lon="-0.13337">
        <ele>27</ele>
        <time>2021-05-01T07:53:04.501Z</time>
      </trkpt>
      <trkpt lat="44.87928" lon="-0.13312">
        <ele>27</ele>
        <time>2021-05-01T07:53:17.501Z</time>
      </trkpt>
      <trkpt lat="44.87931" lon="-0.13304">
        <ele>27</ele>
        <time>2021-05-01T07:53:22.501Z</time>
      </trkpt>
      <trkpt lat="44.87929" lon="-0.13291">
        <ele>28</ele>
        <time>2021-05-01T07:53:29.501Z</time>
      </trkpt>
      <trkpt lat="44.87928" lon="-0.13284">
        <ele>27</ele>
        <time>2021-05-01T07:53:33.501Z</time>
      </trkpt>
      <trkpt lat="44.87924" lon="-0.13267">
        <ele>28</ele>
        <time>2021-05-01T07:53:42.500Z</time>
      </trkpt>
      <trkpt lat="44.87924" lon="-0.13262">
        <ele>28</ele>
        <time>2021-05-01T07:53:45.501Z</time>
      </trkpt>
      <trkpt lat="44.87916" lon="-0.13235">
        <ele>28</ele>
        <time>2021-05-01T07:54:00.501Z</time>
      </trkpt>
      <trkpt lat="44.87912" lon="-0.13226">
        <ele>26</ele>
        <time>2021-05-01T07:54:07.500Z</time>
      </trkpt>
      <trkpt lat="44.87912" lon="-0.13224">
        <ele>26</ele>
        <time>2021-05-01T07:54:08.501Z</time>
      </trkpt>
      <trkpt lat="44.87911" lon="-0.13216">
        <ele>26</ele>
        <time>2021-05-01T07:54:12.501Z</time>
      </trkpt>
      <trkpt lat="44.87907" lon="-0.13208">
        <ele>28</ele>
        <time>2021-05-01T07:54:17.501Z</time>
      </trkpt>
      <trkpt lat="44.87905" lon="-0.132">
        <ele>28</ele>
        <time>2021-05-01T07:54:20.501Z</time>
      </trkpt>
      <trkpt lat="44.87905" lon="-0.13169">
        <ele>29</ele>
        <time>2021-05-01T07:54:30.501Z</time>
      </trkpt>
      <trkpt lat="44.87903" lon="-0.13159">
        <ele>29</ele>
        <time>2021-05-01T07:54:34.502Z</time>
      </trkpt>
      <trkpt lat="44.87902" lon="-0.13146">
        <ele>28</ele>
        <time>2021-05-01T07:54:42.501Z</time>
      </trkpt>
      <trkpt lat="44.87904" lon="-0.1314">
        <ele>29</ele>
        <time>2021-05-01T07:54:45.502Z</time>
      </trkpt>
      <trkpt lat="44.87904" lon="-0.13131">
        <ele>29</ele>
        <time>2021-05-01T07:54:49.502Z</time>
      </trkpt>
      <trkpt lat="44.87906" lon="-0.13113">
        <ele>34</ele>
        <time>2021-05-01T07:54:58.502Z</time>
      </trkpt>
      <trkpt lat="44.87907" lon="-0.13097">
        <ele>35</ele>
        <time>2021-05-01T07:55:06.502Z</time>
      </trkpt>
      <trkpt lat="44.87906" lon="-0.13088">
        <ele>35</ele>
        <time>2021-05-01T07:55:10.502Z</time>
      </trkpt>
      <trkpt lat="44.87907" lon="-0.13073">
        <ele>34</ele>
        <time>2021-05-01T07:55:17.501Z</time>
      </trkpt>
      <trkpt lat="44.87907" lon="-0.13063">
        <ele>35</ele>
        <time>2021-05-01T07:55:22.501Z</time>
      </trkpt>
      <trkpt lat="44.87908" lon="-0.1305">
        <ele>34</ele>
        <time>2021-05-01T07:55:28.502Z</time>
      </trkpt>
      <trkpt lat="44.87913" lon="-0.13037">
        <ele>34</ele>
        <time>2021-05-01T07:55:35.502Z</time>
      </trkpt>
      <trkpt lat="44.87918" lon="-0.13016">
        <ele>32</ele>
        <time>2021-05-01T07:55:46.502Z</time>
      </trkpt>
      <trkpt lat="44.87918" lon="-0.13009">
        <ele>31</ele>
        <time>2021-05-01T07:55:49.502Z</time>
      </trkpt>
      <trkpt lat="44.87923" lon="-0.12991">
        <ele>29</ele>
        <time>2021-05-01T07:55:58.502Z</time>
      </trkpt>
      <trkpt lat="44.87924" lon="-0.12983">
        <ele>29</ele>
        <time>2021-05-01T07:56:02.502Z</time>
      </trkpt>
      <trkpt lat="44.87925" lon="-0.12976">
        <ele>28</ele>
        <time>2021-05-01T07:56:06.502Z</time>
      </trkpt>
      <trkpt lat="44.87924" lon="-0.12949">
        <ele>25</ele>
        <time>2021-05-01T07:56:20.501Z</time>
      </trkpt>
      <trkpt lat="44.87933" lon="-0.12937">
        <ele>25</ele>
        <time>2021-05-01T07:56:29.502Z</time>
      </trkpt>
      <trkpt lat="44.87948" lon="-0.1293">
        <ele>28</ele>
        <time>2021-05-01T07:56:40.502Z</time>
      </trkpt>
      <trkpt lat="44.87983" lon="-0.12903">
        <ele>29</ele>
        <time>2021-05-01T07:57:05.501Z</time>
      </trkpt>
      <trkpt lat="44.87997" lon="-0.1289">
        <ele>26</ele>
        <time>2021-05-01T07:57:16.502Z</time>
      </trkpt>
      <trkpt lat="44.88026" lon="-0.1287">
        <ele>26</ele>
        <time>2021-05-01T07:57:36.502Z</time>
      </trkpt>
      <trkpt lat="44.88029" lon="-0.12867">
        <ele>26</ele>
        <time>2021-05-01T07:57:38.502Z</time>
      </trkpt>
      <trkpt lat="44.88034" lon="-0.12864">
        <ele>26</ele>
        <time>2021-05-01T07:57:42.501Z</time>
      </trkpt>
      <trkpt lat="44.88038" lon="-0.12863">
        <ele>26</ele>
        <time>2021-05-01T07:57:46.502Z</time>
      </trkpt>
      <trkpt lat="44.88054" lon="-0.12857">
        <ele>28</ele>
        <time>2021-05-01T07:57:57.502Z</time>
      </trkpt>
      <trkpt lat="44.88102" lon="-0.12847">
        <ele>26</ele>
        <time>2021-05-01T07:58:27.502Z</time>
      </trkpt>
      <trkpt lat="44.8812" lon="-0.12846">
        <ele>28</ele>
        <time>2021-05-01T07:58:39.502Z</time>
      </trkpt>
      <trkpt lat="44.88138" lon="-0.12842">
        <ele>29</ele>
        <time>2021-05-01T07:58:51.502Z</time>
      </trkpt>
      <trkpt lat="44.88143" lon="-0.12839">
        <ele>28</ele>
        <time>2021-05-01T07:58:55.501Z</time>
      </trkpt>
      <trkpt lat="44.88155" lon="-0.12825">
        <ele>28</ele>
        <time>2021-05-01T07:59:05.502Z</time>
      </trkpt>
      <trkpt lat="44.88157" lon="-0.12822">
        <ele>28</ele>
        <time>2021-05-01T07:59:07.502Z</time>
      </trkpt>
      <trkpt lat="44.88163" lon="-0.12816">
        <ele>30</ele>
        <time>2021-05-01T07:59:12.502Z</time>
      </trkpt>
      <trkpt lat="44.88166" lon="-0.1281">
        <ele>33</ele>
        <time>2021-05-01T07:59:16.502Z</time>
      </trkpt>
      <trkpt lat="44.88167" lon="-0.12802">
        <ele>33</ele>
        <time>2021-05-01T07:59:20.502Z</time>
      </trkpt>
      <trkpt lat="44.88167" lon="-0.12798">
        <ele>33</ele>
        <time>2021-05-01T07:59:22.502Z</time>
      </trkpt>
      <trkpt lat="44.88158" lon="-0.12771">
        <ele>32</ele>
        <time>2021-05-01T07:59:37.501Z</time>
      </trkpt>
      <trkpt lat="44.88156" lon="-0.12765">
        <ele>32</ele>
        <time>2021-05-01T07:59:40.502Z</time>
      </trkpt>
      <trkpt lat="44.88148" lon="-0.12737">
        <ele>35</ele>
        <time>2021-05-01T07:59:56.502Z</time>
      </trkpt>
      <trkpt lat="44.88141" lon="-0.12723">
        <ele>32</ele>
        <time>2021-05-01T08:00:06.502Z</time>
      </trkpt>
      <trkpt lat="44.88137" lon="-0.12712">
        <ele>34</ele>
        <time>2021-05-01T08:00:13.502Z</time>
      </trkpt>
      <trkpt lat="44.8813" lon="-0.12697">
        <ele>30</ele>
        <time>2021-05-01T08:00:23.501Z</time>
      </trkpt>
      <trkpt lat="44.88128" lon="-0.1269">
        <ele>31</ele>
        <time>2021-05-01T08:00:27.501Z</time>
      </trkpt>
      <trkpt lat="44.88123" lon="-0.12653">
        <ele>35</ele>
        <time>2021-05-01T08:00:49.502Z</time>
      </trkpt>
      <trkpt lat="44.88118" lon="-0.12631">
        <ele>33</ele>
        <time>2021-05-01T08:01:02.502Z</time>
      </trkpt>
      <trkpt lat="44.88118" lon="-0.12622">
        <ele>35</ele>
        <time>2021-05-01T08:01:08.502Z</time>
      </trkpt>
      <trkpt lat="44.88116" lon="-0.12602">
        <ele>36</ele>
        <time>2021-05-01T08:01:20.502Z</time>
      </trkpt>
      <trkpt lat="44.88117" lon="-0.12593">
        <ele>37</ele>
        <time>2021-05-01T08:01:26.502Z</time>
      </trkpt>
      <trkpt lat="44.8812" lon="-0.12577">
        <ele>40</ele>
        <time>2021-05-01T08:01:35.501Z</time>
      </trkpt>
      <trkpt lat="44.8812" lon="-0.12571">
        <ele>41</ele>
        <time>2021-05-01T08:01:39.502Z</time>
      </trkpt>
      <trkpt lat="44.88121" lon="-0.12566">
        <ele>41</ele>
        <time>2021-05-01T08:01:43.502Z</time>
      </trkpt>
      <trkpt lat="44.88118" lon="-0.12558">
        <ele>42</ele>
        <time>2021-05-01T08:01:50.501Z</time>
      </trkpt>
      <trkpt lat="44.88119" lon="-0.12552">
        <ele>43</ele>
        <time>2021-05-01T08:01:54.501Z</time>
      </trkpt>
      <trkpt lat="44.88117" lon="-0.1254">
        <ele>43</ele>
        <time>2021-05-01T08:02:02.501Z</time>
      </trkpt>
      <trkpt lat="44.88114" lon="-0.12534">
        <ele>42</ele>
        <time>2021-05-01T08:02:07.502Z</time>
      </trkpt>
      <trkpt lat="44.88113" lon="-0.12526">
        <ele>41</ele>
        <time>2021-05-01T08:02:13.502Z</time>
      </trkpt>
      <trkpt lat="44.88107" lon="-0.12516">
        <ele>42</ele>
        <time>2021-05-01T08:02:23.502Z</time>
      </trkpt>
      <trkpt lat="44.88102" lon="-0.12502">
        <ele>44</ele>
        <time>2021-05-01T08:02:33.502Z</time>
      </trkpt>
      <trkpt lat="44.88098" lon="-0.12497">
        <ele>46</ele>
        <time>2021-05-01T08:02:37.502Z</time>
      </trkpt>
      <trkpt lat="44.88096" lon="-0.12489">
        <ele>49</ele>
        <time>2021-05-01T08:02:43.501Z</time>
      </trkpt>
      <trkpt lat="44.8808" lon="-0.12461">
        <ele>50</ele>
        <time>2021-05-01T08:03:08.501Z</time>
      </trkpt>
      <trkpt lat="44.8807" lon="-0.12448">
        <ele>50</ele>
        <time>2021-05-01T08:03:24.501Z</time>
      </trkpt>
      <trkpt lat="44.8807" lon="-0.12443">
        <ele>51</ele>
        <time>2021-05-01T08:03:28.502Z</time>
      </trkpt>
      <trkpt lat="44.88064" lon="-0.12429">
        <ele>57</ele>
        <time>2021-05-01T08:03:37.502Z</time>
      </trkpt>
      <trkpt lat="44.88064" lon="-0.12423">
        <ele>58</ele>
        <time>2021-05-01T08:03:42.502Z</time>
      </trkpt>
      <trkpt lat="44.88065" lon="-0.12411">
        <ele>63</ele>
        <time>2021-05-01T08:03:52.502Z</time>
      </trkpt>
      <trkpt lat="44.8807" lon="-0.12408">
        <ele>61</ele>
        <time>2021-05-01T08:03:59.501Z</time>
      </trkpt>
      <trkpt lat="44.88073" lon="-0.12409">
        <ele>59</ele>
        <time>2021-05-01T08:04:02.502Z</time>
      </trkpt>
      <trkpt lat="44.88078" lon="-0.12406">
        <ele>59</ele>
        <time>2021-05-01T08:04:08.501Z</time>
      </trkpt>
      <trkpt lat="44.88082" lon="-0.12406">
        <ele>60</ele>
        <time>2021-05-01T08:04:12.502Z</time>
      </trkpt>
      <trkpt lat="44.88104" lon="-0.12394">
        <ele>56</ele>
        <time>2021-05-01T08:04:36.502Z</time>
      </trkpt>
      <trkpt lat="44.88105" lon="-0.12387">
        <ele>57</ele>
        <time>2021-05-01T08:04:41.502Z</time>
      </trkpt>
      <trkpt lat="44.88113" lon="-0.1238">
        <ele>58</ele>
        <time>2021-05-01T08:04:50.502Z</time>
      </trkpt>
      <trkpt lat="44.88121" lon="-0.12378">
        <ele>59</ele>
        <time>2021-05-01T08:05:01.502Z</time>
      </trkpt>
      <trkpt lat="44.88131" lon="-0.12369">
        <ele>63</ele>
        <time>2021-05-01T08:05:18.501Z</time>
      </trkpt>
      <trkpt lat="44.88132" lon="-0.12367">
        <ele>65</ele>
        <time>2021-05-01T08:05:22.501Z</time>
      </trkpt>
      <trkpt lat="44.88128" lon="-0.12356">
        <ele>67</ele>
        <time>2021-05-01T08:05:32.501Z</time>
      </trkpt>
      <trkpt lat="44.88124" lon="-0.1235">
        <ele>69</ele>
        <time>2021-05-01T08:05:36.502Z</time>
      </trkpt>
      <trkpt lat="44.88124" lon="-0.12343">
        <ele>70</ele>
        <time>2021-05-01T08:05:41.502Z</time>
      </trkpt>
      <trkpt lat="44.88118" lon="-0.12338">
        <ele>71</ele>
        <time>2021-05-01T08:05:45.501Z</time>
      </trkpt>
      <trkpt lat="44.8811" lon="-0.12326">
        <ele>71</ele>
        <time>2021-05-01T08:05:54.502Z</time>
      </trkpt>
      <trkpt lat="44.88108" lon="-0.12319">
        <ele>72</ele>
        <time>2021-05-01T08:05:58.502Z</time>
      </trkpt>
      <trkpt lat="44.88102" lon="-0.12306">
        <ele>74</ele>
        <time>2021-05-01T08:06:08.502Z</time>
      </trkpt>
      <trkpt lat="44.88097" lon="-0.1229">
        <ele>78</ele>
        <time>2021-05-01T08:06:18.502Z</time>
      </trkpt>
      <trkpt lat="44.88092" lon="-0.12283">
        <ele>78</ele>
        <time>2021-05-01T08:06:24.502Z</time>
      </trkpt>
      <trkpt lat="44.88091" lon="-0.12275">
        <ele>75</ele>
        <time>2021-05-01T08:06:29.502Z</time>
      </trkpt>
      <trkpt lat="44.88092" lon="-0.1226">
        <ele>77</ele>
        <time>2021-05-01T08:06:38.501Z</time>
      </trkpt>
      <trkpt lat="44.88091" lon="-0.12244">
        <ele>75</ele>
        <time>2021-05-01T08:06:47.502Z</time>
      </trkpt>
      <trkpt lat="44.8809" lon="-0.12213">
        <ele>75</ele>
        <time>2021-05-01T08:07:05.502Z</time>
      </trkpt>
      <trkpt lat="44.88089" lon="-0.12204">
        <ele>77</ele>
        <time>2021-05-01T08:07:10.502Z</time>
      </trkpt>
      <trkpt lat="44.88091" lon="-0.12185">
        <ele>79</ele>
        <time>2021-05-01T08:07:22.501Z</time>
      </trkpt>
      <trkpt lat="44.8809" lon="-0.12159">
        <ele>79</ele>
        <time>2021-05-01T08:07:37.502Z</time>
      </trkpt>
      <trkpt lat="44.88091" lon="-0.12137">
        <ele>81</ele>
        <time>2021-05-01T08:07:50.502Z</time>
      </trkpt>
      <trkpt lat="44.88093" lon="-0.12122">
        <ele>82</ele>
        <time>2021-05-01T08:07:59.502Z</time>
      </trkpt>
      <trkpt lat="44.88094" lon="-0.12097">
        <ele>81</ele>
        <time>2021-05-01T08:08:14.501Z</time>
      </trkpt>
      <trkpt lat="44.88096" lon="-0.12093">
        <ele>82</ele>
        <time>2021-05-01T08:08:18.502Z</time>
      </trkpt>
      <trkpt lat="44.881" lon="-0.12069">
        <ele>86</ele>
        <time>2021-05-01T08:08:32.502Z</time>
      </trkpt>
      <trkpt lat="44.88104" lon="-0.12052">
        <ele>85</ele>
        <time>2021-05-01T08:08:42.501Z</time>
      </trkpt>
      <trkpt lat="44.88106" lon="-0.12046">
        <ele>82</ele>
        <time>2021-05-01T08:08:46.502Z</time>
      </trkpt>
      <trkpt lat="44.88109" lon="-0.12043">
        <ele>83</ele>
        <time>2021-05-01T08:08:48.502Z</time>
      </trkpt>
      <trkpt lat="44.88115" lon="-0.12029">
        <ele>85</ele>
        <time>2021-05-01T08:08:58.502Z</time>
      </trkpt>
      <trkpt lat="44.88118" lon="-0.12008">
        <ele>84</ele>
        <time>2021-05-01T08:09:12.501Z</time>
      </trkpt>
      <trkpt lat="44.88117" lon="-0.12001">
        <ele>83</ele>
        <time>2021-05-01T08:09:17.502Z</time>
      </trkpt>
      <trkpt lat="44.88115" lon="-0.11994">
        <ele>83</ele>
        <time>2021-05-01T08:09:21.502Z</time>
      </trkpt>
      <trkpt lat="44.88111" lon="-0.11989">
        <ele>84</ele>
        <time>2021-05-01T08:09:25.502Z</time>
      </trkpt>
      <trkpt lat="44.881" lon="-0.1198">
        <ele>84</ele>
        <time>2021-05-01T08:09:33.501Z</time>
      </trkpt>
      <trkpt lat="44.88095" lon="-0.11974">
        <ele>87</ele>
        <time>2021-05-01T08:09:39.501Z</time>
      </trkpt>
      <trkpt lat="44.88083" lon="-0.1197">
        <ele>86</ele>
        <time>2021-05-01T08:09:48.502Z</time>
      </trkpt>
      <trkpt lat="44.88069" lon="-0.1197">
        <ele>85</ele>
        <time>2021-05-01T08:09:59.502Z</time>
      </trkpt>
      <trkpt lat="44.88051" lon="-0.11967">
        <ele>84</ele>
        <time>2021-05-01T08:10:11.502Z</time>
      </trkpt>
      <trkpt lat="44.88042" lon="-0.11968">
        <ele>84</ele>
        <time>2021-05-01T08:10:18.502Z</time>
      </trkpt>
      <trkpt lat="44.88037" lon="-0.11971">
        <ele>85</ele>
        <time>2021-05-01T08:10:22.501Z</time>
      </trkpt>
      <trkpt lat="44.88031" lon="-0.11973">
        <ele>86</ele>
        <time>2021-05-01T08:10:27.502Z</time>
      </trkpt>
      <trkpt lat="44.88028" lon="-0.11976">
        <ele>86</ele>
        <time>2021-05-01T08:10:29.502Z</time>
      </trkpt>
      <trkpt lat="44.88023" lon="-0.11979">
        <ele>86</ele>
        <time>2021-05-01T08:10:32.502Z</time>
      </trkpt>
      <trkpt lat="44.88018" lon="-0.11984">
        <ele>84</ele>
        <time>2021-05-01T08:10:36.502Z</time>
      </trkpt>
      <trkpt lat="44.88011" lon="-0.11998">
        <ele>82</ele>
        <time>2021-05-01T08:10:44.502Z</time>
      </trkpt>
      <trkpt lat="44.88009" lon="-0.12001">
        <ele>81</ele>
        <time>2021-05-01T08:10:46.502Z</time>
      </trkpt>
      <trkpt lat="44.88008" lon="-0.12007">
        <ele>81</ele>
        <time>2021-05-01T08:10:49.502Z</time>
      </trkpt>
      <trkpt lat="44.88007" lon="-0.12008">
        <ele>81</ele>
        <time>2021-05-01T08:10:50.502Z</time>
      </trkpt>
      <trkpt lat="44.88007" lon="-0.12014">
        <ele>82</ele>
        <time>2021-05-01T08:10:55.502Z</time>
      </trkpt>
      <trkpt lat="44.88002" lon="-0.12021">
        <ele>82</ele>
        <time>2021-05-01T08:11:00.501Z</time>
      </trkpt>
      <trkpt lat="44.87997" lon="-0.12036">
        <ele>80</ele>
        <time>2021-05-01T08:11:09.502Z</time>
      </trkpt>
      <trkpt lat="44.87992" lon="-0.12056">
        <ele>83</ele>
        <time>2021-05-01T08:11:19.502Z</time>
      </trkpt>
      <trkpt lat="44.87987" lon="-0.12066">
        <ele>83</ele>
        <time>2021-05-01T08:11:26.502Z</time>
      </trkpt>
      <trkpt lat="44.87984" lon="-0.12071">
        <ele>82</ele>
        <time>2021-05-01T08:11:29.501Z</time>
      </trkpt>
      <trkpt lat="44.87976" lon="-0.12087">
        <ele>79</ele>
        <time>2021-05-01T08:11:38.501Z</time>
      </trkpt>
      <trkpt lat="44.87968" lon="-0.12113">
        <ele>80</ele>
        <time>2021-05-01T08:11:52.502Z</time>
      </trkpt>
      <trkpt lat="44.8796" lon="-0.12134">
        <ele>82</ele>
        <time>2021-05-01T08:12:03.502Z</time>
      </trkpt>
      <trkpt lat="44.87955" lon="-0.12158">
        <ele>83</ele>
        <time>2021-05-01T08:12:15.502Z</time>
      </trkpt>
      <trkpt lat="44.8795" lon="-0.12176">
        <ele>81</ele>
        <time>2021-05-01T08:12:24.502Z</time>
      </trkpt>
      <trkpt lat="44.87949" lon="-0.12183">
        <ele>81</ele>
        <time>2021-05-01T08:12:28.501Z</time>
      </trkpt>
      <trkpt lat="44.87947" lon="-0.12188">
        <ele>80</ele>
        <time>2021-05-01T08:12:31.502Z</time>
      </trkpt>
      <trkpt lat="44.87936" lon="-0.12207">
        <ele>79</ele>
        <time>2021-05-01T08:12:44.502Z</time>
      </trkpt>
      <trkpt lat="44.87917" lon="-0.12224">
        <ele>76</ele>
        <time>2021-05-01T08:13:01.502Z</time>
      </trkpt>
      <trkpt lat="44.87908" lon="-0.12237">
        <ele>74</ele>
        <time>2021-05-01T08:13:09.501Z</time>
      </trkpt>
      <trkpt lat="44.87899" lon="-0.12246">
        <ele>72</ele>
        <time>2021-05-01T08:13:15.502Z</time>
      </trkpt>
      <trkpt lat="44.87894" lon="-0.12253">
        <ele>71</ele>
        <time>2021-05-01T08:13:19.502Z</time>
      </trkpt>
      <trkpt lat="44.87894" lon="-0.12257">
        <ele>70</ele>
        <time>2021-05-01T08:13:21.502Z</time>
      </trkpt>
      <trkpt lat="44.87889" lon="-0.12268">
        <ele>69</ele>
        <time>2021-05-01T08:13:27.502Z</time>
      </trkpt>
      <trkpt lat="44.87883" lon="-0.12276">
        <ele>69</ele>
        <time>2021-05-01T08:13:32.502Z</time>
      </trkpt>
      <trkpt lat="44.87883" lon="-0.12277">
        <ele>69</ele>
        <time>2021-05-01T08:13:33.501Z</time>
      </trkpt>
      <trkpt lat="44.8788" lon="-0.12282">
        <ele>68</ele>
        <time>2021-05-01T08:13:37.502Z</time>
      </trkpt>
      <trkpt lat="44.87879" lon="-0.1229">
        <ele>67</ele>
        <time>2021-05-01T08:13:42.502Z</time>
      </trkpt>
      <trkpt lat="44.87876" lon="-0.12292">
        <ele>67</ele>
        <time>2021-05-01T08:13:45.501Z</time>
      </trkpt>
      <trkpt lat="44.87875" lon="-0.12294">
        <ele>67</ele>
        <time>2021-05-01T08:13:46.502Z</time>
      </trkpt>
      <trkpt lat="44.87866" lon="-0.12307">
        <ele>65</ele>
        <time>2021-05-01T08:13:58.502Z</time>
      </trkpt>
      <trkpt lat="44.87865" lon="-0.12311">
        <ele>65</ele>
        <time>2021-05-01T08:14:02.501Z</time>
      </trkpt>
      <trkpt lat="44.8786" lon="-0.12318">
        <ele>66</ele>
        <time>2021-05-01T08:14:06.502Z</time>
      </trkpt>
      <trkpt lat="44.8785" lon="-0.12328">
        <ele>67</ele>
        <time>2021-05-01T08:14:16.501Z</time>
      </trkpt>
      <trkpt lat="44.87848" lon="-0.12328">
        <ele>68</ele>
        <time>2021-05-01T08:14:18.501Z</time>
      </trkpt>
      <trkpt lat="44.87833" lon="-0.12336">
        <ele>66</ele>
        <time>2021-05-01T08:14:28.502Z</time>
      </trkpt>
      <trkpt lat="44.87828" lon="-0.12336">
        <ele>68</ele>
        <time>2021-05-01T08:14:33.502Z</time>
      </trkpt>
      <trkpt lat="44.87817" lon="-0.12339">
        <ele>68</ele>
        <time>2021-05-01T08:14:42.502Z</time>
      </trkpt>
      <trkpt lat="44.87813" lon="-0.12335">
        <ele>68</ele>
        <time>2021-05-01T08:14:48.502Z</time>
      </trkpt>
      <trkpt lat="44.87808" lon="-0.12334">
        <ele>68</ele>
        <time>2021-05-01T08:14:54.502Z</time>
      </trkpt>
      <trkpt lat="44.87806" lon="-0.12332">
        <ele>67</ele>
        <time>2021-05-01T08:14:57.502Z</time>
      </trkpt>
      <trkpt lat="44.87797" lon="-0.12333">
        <ele>64</ele>
        <time>2021-05-01T08:15:04.502Z</time>
      </trkpt>
      <trkpt lat="44.87781" lon="-0.1233">
        <ele>63</ele>
        <time>2021-05-01T08:15:17.502Z</time>
      </trkpt>
      <trkpt lat="44.87779" lon="-0.12328">
        <ele>61</ele>
        <time>2021-05-01T08:15:19.501Z</time>
      </trkpt>
      <trkpt lat="44.87769" lon="-0.12327">
        <ele>60</ele>
        <time>2021-05-01T08:15:26.502Z</time>
      </trkpt>
      <trkpt lat="44.87759" lon="-0.12329">
        <ele>59</ele>
        <time>2021-05-01T08:15:32.502Z</time>
      </trkpt>
      <trkpt lat="44.87756" lon="-0.12334">
        <ele>60</ele>
        <time>2021-05-01T08:15:35.502Z</time>
      </trkpt>
      <trkpt lat="44.87758" lon="-0.12347">
        <ele>61</ele>
        <time>2021-05-01T08:15:41.502Z</time>
      </trkpt>
      <trkpt lat="44.87767" lon="-0.12364">
        <ele>59</ele>
        <time>2021-05-01T08:15:51.501Z</time>
      </trkpt>
      <trkpt lat="44.87772" lon="-0.12367">
        <ele>58</ele>
        <time>2021-05-01T08:15:54.502Z</time>
      </trkpt>
      <trkpt lat="44.87778" lon="-0.12377">
        <ele>57</ele>
        <time>2021-05-01T08:16:00.502Z</time>
      </trkpt>
      <trkpt lat="44.8778" lon="-0.12382">
        <ele>56</ele>
        <time>2021-05-01T08:16:04.502Z</time>
      </trkpt>
      <trkpt lat="44.87784" lon="-0.12386">
        <ele>56</ele>
        <time>2021-05-01T08:16:08.501Z</time>
      </trkpt>
      <trkpt lat="44.87786" lon="-0.12391">
        <ele>56</ele>
        <time>2021-05-01T08:16:11.501Z</time>
      </trkpt>
      <trkpt lat="44.87784" lon="-0.12398">
        <ele>54</ele>
        <time>2021-05-01T08:16:16.502Z</time>
      </trkpt>
      <trkpt lat="44.87785" lon="-0.12403">
        <ele>54</ele>
        <time>2021-05-01T08:16:18.502Z</time>
      </trkpt>
      <trkpt lat="44.87784" lon="-0.12412">
        <ele>53</ele>
        <time>2021-05-01T08:16:22.502Z</time>
      </trkpt>
      <trkpt lat="44.87782" lon="-0.12415">
        <ele>52</ele>
        <time>2021-05-01T08:16:24.502Z</time>
      </trkpt>
      <trkpt lat="44.87781" lon="-0.12415">
        <ele>52</ele>
        <time>2021-05-01T08:16:26.501Z</time>
      </trkpt>
      <trkpt lat="44.87779" lon="-0.12412">
        <ele>51</ele>
        <time>2021-05-01T08:16:29.502Z</time>
      </trkpt>
      <trkpt lat="44.87773" lon="-0.12409">
        <ele>51</ele>
        <time>2021-05-01T08:16:35.502Z</time>
      </trkpt>
      <trkpt lat="44.87765" lon="-0.12409">
        <ele>49</ele>
        <time>2021-05-01T08:16:41.502Z</time>
      </trkpt>
      <trkpt lat="44.87761" lon="-0.12406">
        <ele>47</ele>
        <time>2021-05-01T08:16:45.502Z</time>
      </trkpt>
      <trkpt lat="44.87753" lon="-0.12403">
        <ele>46</ele>
        <time>2021-05-01T08:16:51.501Z</time>
      </trkpt>
      <trkpt lat="44.87749" lon="-0.124">
        <ele>44</ele>
        <time>2021-05-01T08:16:55.502Z</time>
      </trkpt>
      <trkpt lat="44.87726" lon="-0.12394">
        <ele>37</ele>
        <time>2021-05-01T08:17:11.501Z</time>
      </trkpt>
      <trkpt lat="44.87723" lon="-0.12389">
        <ele>36</ele>
        <time>2021-05-01T08:17:15.502Z</time>
      </trkpt>
      <trkpt lat="44.87715" lon="-0.12382">
        <ele>35</ele>
        <time>2021-05-01T08:17:24.502Z</time>
      </trkpt>
      <trkpt lat="44.87711" lon="-0.12381">
        <ele>36</ele>
        <time>2021-05-01T08:17:29.502Z</time>
      </trkpt>
      <trkpt lat="44.8771" lon="-0.12379">
        <ele>36</ele>
        <time>2021-05-01T08:17:32.502Z</time>
      </trkpt>
      <trkpt lat="44.87711" lon="-0.12377">
        <ele>36</ele>
        <time>2021-05-01T08:17:34.502Z</time>
      </trkpt>
      <trkpt lat="44.87708" lon="-0.12373">
        <ele>36</ele>
        <time>2021-05-01T08:17:38.502Z</time>
      </trkpt>
      <trkpt lat="44.87695" lon="-0.1237">
        <ele>36</ele>
        <time>2021-05-01T08:17:48.501Z</time>
      </trkpt>
      <trkpt lat="44.87691" lon="-0.12366">
        <ele>36</ele>
        <time>2021-05-01T08:17:53.502Z</time>
      </trkpt>
      <trkpt lat="44.87688" lon="-0.12368">
        <ele>33</ele>
        <time>2021-05-01T08:17:54.503Z</time>
      </trkpt>
      <trkpt lat="44.87684" lon="-0.12368">
        <ele>33</ele>
        <time>2021-05-01T08:17:57.502Z</time>
      </trkpt>
      <trkpt lat="44.87675" lon="-0.12358">
        <ele>32</ele>
        <time>2021-05-01T08:18:04.503Z</time>
      </trkpt>
      <trkpt lat="44.87664" lon="-0.12342">
        <ele>32</ele>
        <time>2021-05-01T08:18:13.503Z</time>
      </trkpt>
      <trkpt lat="44.87661" lon="-0.12333">
        <ele>32</ele>
        <time>2021-05-01T08:18:18.503Z</time>
      </trkpt>
      <trkpt lat="44.87655" lon="-0.12326">
        <ele>32</ele>
        <time>2021-05-01T08:18:23.502Z</time>
      </trkpt>
      <trkpt lat="44.87651" lon="-0.12323">
        <ele>31</ele>
        <time>2021-05-01T08:18:26.502Z</time>
      </trkpt>
      <trkpt lat="44.87649" lon="-0.12317">
        <ele>30</ele>
        <time>2021-05-01T08:18:30.503Z</time>
      </trkpt>
      <trkpt lat="44.87648" lon="-0.12317">
        <ele>30</ele>
        <time>2021-05-01T08:18:33.503Z</time>
      </trkpt>
      <trkpt lat="44.87645" lon="-0.12314">
        <ele>30</ele>
        <time>2021-05-01T08:18:36.503Z</time>
      </trkpt>
      <trkpt lat="44.8764" lon="-0.12297">
        <ele>28</ele>
        <time>2021-05-01T08:18:46.503Z</time>
      </trkpt>
      <trkpt lat="44.87639" lon="-0.12295">
        <ele>28</ele>
        <time>2021-05-01T08:18:47.503Z</time>
      </trkpt>
      <trkpt lat="44.87634" lon="-0.12275">
        <ele>31</ele>
        <time>2021-05-01T08:18:58.503Z</time>
      </trkpt>
      <trkpt lat="44.87634" lon="-0.12268">
        <ele>32</ele>
        <time>2021-05-01T08:19:02.503Z</time>
      </trkpt>
      <trkpt lat="44.87631" lon="-0.12258">
        <ele>32</ele>
        <time>2021-05-01T08:19:07.503Z</time>
      </trkpt>
      <trkpt lat="44.8763" lon="-0.1225">
        <ele>32</ele>
        <time>2021-05-01T08:19:11.503Z</time>
      </trkpt>
      <trkpt lat="44.87626" lon="-0.12244">
        <ele>31</ele>
        <time>2021-05-01T08:19:15.502Z</time>
      </trkpt>
      <trkpt lat="44.87625" lon="-0.12236">
        <ele>29</ele>
        <time>2021-05-01T08:19:19.503Z</time>
      </trkpt>
      <trkpt lat="44.87621" lon="-0.12225">
        <ele>31</ele>
        <time>2021-05-01T08:19:25.502Z</time>
      </trkpt>
      <trkpt lat="44.87612" lon="-0.12205">
        <ele>34</ele>
        <time>2021-05-01T08:19:37.503Z</time>
      </trkpt>
      <trkpt lat="44.8761" lon="-0.12191">
        <ele>34</ele>
        <time>2021-05-01T08:19:46.503Z</time>
      </trkpt>
      <trkpt lat="44.87614" lon="-0.1219">
        <ele>38</ele>
        <time>2021-05-01T08:19:56.503Z</time>
      </trkpt>
      <trkpt lat="44.87612" lon="-0.12189">
        <ele>38</ele>
        <time>2021-05-01T08:19:59.503Z</time>
      </trkpt>
      <trkpt lat="44.87617" lon="-0.12192">
        <ele>37</ele>
        <time>2021-05-01T08:20:06.504Z</time>
      </trkpt>
      <trkpt lat="44.87626" lon="-0.12186">
        <ele>36</ele>
        <time>2021-05-01T08:20:15.504Z</time>
      </trkpt>
      <trkpt lat="44.87636" lon="-0.12181">
        <ele>36</ele>
        <time>2021-05-01T08:20:25.504Z</time>
      </trkpt>
      <trkpt lat="44.87645" lon="-0.1218">
        <ele>37</ele>
        <time>2021-05-01T08:20:35.503Z</time>
      </trkpt>
      <trkpt lat="44.87649" lon="-0.12178">
        <ele>36</ele>
        <time>2021-05-01T08:20:39.503Z</time>
      </trkpt>
      <trkpt lat="44.87655" lon="-0.12177">
        <ele>36</ele>
        <time>2021-05-01T08:20:46.503Z</time>
      </trkpt>
      <trkpt lat="44.87666" lon="-0.12173">
        <ele>40</ele>
        <time>2021-05-01T08:20:58.504Z</time>
      </trkpt>
      <trkpt lat="44.87672" lon="-0.12172">
        <ele>42</ele>
        <time>2021-05-01T08:21:05.503Z</time>
      </trkpt>
      <trkpt lat="44.87676" lon="-0.1217">
        <ele>43</ele>
        <time>2021-05-01T08:21:09.503Z</time>
      </trkpt>
      <trkpt lat="44.87685" lon="-0.12169">
        <ele>48</ele>
        <time>2021-05-01T08:21:24.504Z</time>
      </trkpt>
      <trkpt lat="44.87693" lon="-0.12163">
        <ele>49</ele>
        <time>2021-05-01T08:21:35.504Z</time>
      </trkpt>
      <trkpt lat="44.87699" lon="-0.12161">
        <ele>50</ele>
        <time>2021-05-01T08:21:41.503Z</time>
      </trkpt>
      <trkpt lat="44.87699" lon="-0.12159">
        <ele>51</ele>
        <time>2021-05-01T08:21:44.504Z</time>
      </trkpt>
      <trkpt lat="44.87705" lon="-0.12157">
        <ele>55</ele>
        <time>2021-05-01T08:21:52.504Z</time>
      </trkpt>
      <trkpt lat="44.87706" lon="-0.12154">
        <ele>56</ele>
        <time>2021-05-01T08:21:56.503Z</time>
      </trkpt>
      <trkpt lat="44.87705" lon="-0.12155">
        <ele>55</ele>
        <time>2021-05-01T08:21:59.504Z</time>
      </trkpt>
      <trkpt lat="44.87709" lon="-0.12151">
        <ele>56</ele>
        <time>2021-05-01T08:22:09.503Z</time>
      </trkpt>
      <trkpt lat="44.87709" lon="-0.12143">
        <ele>57</ele>
        <time>2021-05-01T08:22:17.503Z</time>
      </trkpt>
      <trkpt lat="44.87708" lon="-0.1214">
        <ele>57</ele>
        <time>2021-05-01T08:22:19.504Z</time>
      </trkpt>
      <trkpt lat="44.87707" lon="-0.12132">
        <ele>57</ele>
        <time>2021-05-01T08:22:24.503Z</time>
      </trkpt>
      <trkpt lat="44.87706" lon="-0.12116">
        <ele>57</ele>
        <time>2021-05-01T08:22:32.503Z</time>
      </trkpt>
      <trkpt lat="44.87708" lon="-0.12094">
        <ele>57</ele>
        <time>2021-05-01T08:22:44.504Z</time>
      </trkpt>
      <trkpt lat="44.87705" lon="-0.12085">
        <ele>57</ele>
        <time>2021-05-01T08:22:50.503Z</time>
      </trkpt>
      <trkpt lat="44.87706" lon="-0.1208">
        <ele>57</ele>
        <time>2021-05-01T08:22:53.504Z</time>
      </trkpt>
      <trkpt lat="44.87701" lon="-0.12063">
        <ele>55</ele>
        <time>2021-05-01T08:23:03.503Z</time>
      </trkpt>
      <trkpt lat="44.87699" lon="-0.12056">
        <ele>56</ele>
        <time>2021-05-01T08:23:07.504Z</time>
      </trkpt>
      <trkpt lat="44.87699" lon="-0.12052">
        <ele>56</ele>
        <time>2021-05-01T08:23:09.503Z</time>
      </trkpt>
      <trkpt lat="44.87696" lon="-0.12044">
        <ele>54</ele>
        <time>2021-05-01T08:23:14.504Z</time>
      </trkpt>
      <trkpt lat="44.87694" lon="-0.12042">
        <ele>54</ele>
        <time>2021-05-01T08:23:16.503Z</time>
      </trkpt>
      <trkpt lat="44.87691" lon="-0.12034">
        <ele>53</ele>
        <time>2021-05-01T08:23:21.504Z</time>
      </trkpt>
      <trkpt lat="44.87683" lon="-0.1202">
        <ele>55</ele>
        <time>2021-05-01T08:23:32.504Z</time>
      </trkpt>
      <trkpt lat="44.87672" lon="-0.12012">
        <ele>57</ele>
        <time>2021-05-01T08:23:45.504Z</time>
      </trkpt>
      <trkpt lat="44.87662" lon="-0.12013">
        <ele>57</ele>
        <time>2021-05-01T08:23:53.503Z</time>
      </trkpt>
      <trkpt lat="44.87649" lon="-0.12005">
        <ele>56</ele>
        <time>2021-05-01T08:24:04.503Z</time>
      </trkpt>
      <trkpt lat="44.87646" lon="-0.11999">
        <ele>55</ele>
        <time>2021-05-01T08:24:07.503Z</time>
      </trkpt>
      <trkpt lat="44.87639" lon="-0.11992">
        <ele>54</ele>
        <time>2021-05-01T08:24:13.503Z</time>
      </trkpt>
      <trkpt lat="44.87637" lon="-0.11987">
        <ele>53</ele>
        <time>2021-05-01T08:24:16.503Z</time>
      </trkpt>
      <trkpt lat="44.87635" lon="-0.11973">
        <ele>54</ele>
        <time>2021-05-01T08:24:25.503Z</time>
      </trkpt>
      <trkpt lat="44.8763" lon="-0.11963">
        <ele>55</ele>
        <time>2021-05-01T08:24:32.504Z</time>
      </trkpt>
      <trkpt lat="44.87628" lon="-0.11962">
        <ele>54</ele>
        <time>2021-05-01T08:24:33.504Z</time>
      </trkpt>
      <trkpt lat="44.87625" lon="-0.11957">
        <ele>52</ele>
        <time>2021-05-01T08:24:37.504Z</time>
      </trkpt>
      <trkpt lat="44.87625" lon="-0.11951">
        <ele>51</ele>
        <time>2021-05-01T08:24:40.504Z</time>
      </trkpt>
      <trkpt lat="44.87624" lon="-0.1195">
        <ele>52</ele>
        <time>2021-05-01T08:24:42.503Z</time>
      </trkpt>
      <trkpt lat="44.87622" lon="-0.11944">
        <ele>51</ele>
        <time>2021-05-01T08:24:47.504Z</time>
      </trkpt>
      <trkpt lat="44.87617" lon="-0.1194">
        <ele>51</ele>
        <time>2021-05-01T08:24:52.503Z</time>
      </trkpt>
      <trkpt lat="44.87614" lon="-0.11936">
        <ele>50</ele>
        <time>2021-05-01T08:24:55.503Z</time>
      </trkpt>
      <trkpt lat="44.87613" lon="-0.11927">
        <ele>48</ele>
        <time>2021-05-01T08:25:02.504Z</time>
      </trkpt>
      <trkpt lat="44.87612" lon="-0.11925">
        <ele>47</ele>
        <time>2021-05-01T08:25:04.504Z</time>
      </trkpt>
      <trkpt lat="44.87609" lon="-0.11924">
        <ele>48</ele>
        <time>2021-05-01T08:25:07.504Z</time>
      </trkpt>
      <trkpt lat="44.87609" lon="-0.11919">
        <ele>48</ele>
        <time>2021-05-01T08:25:10.504Z</time>
      </trkpt>
      <trkpt lat="44.87607" lon="-0.11909">
        <ele>47</ele>
        <time>2021-05-01T08:25:17.503Z</time>
      </trkpt>
      <trkpt lat="44.87606" lon="-0.119">
        <ele>45</ele>
        <time>2021-05-01T08:25:23.504Z</time>
      </trkpt>
      <trkpt lat="44.87606" lon="-0.11882">
        <ele>45</ele>
        <time>2021-05-01T08:25:34.504Z</time>
      </trkpt>
      <trkpt lat="44.87607" lon="-0.11878">
        <ele>45</ele>
        <time>2021-05-01T08:25:36.504Z</time>
      </trkpt>
      <trkpt lat="44.87606" lon="-0.11872">
        <ele>45</ele>
        <time>2021-05-01T08:25:40.503Z</time>
      </trkpt>
      <trkpt lat="44.87606" lon="-0.11857">
        <ele>43</ele>
        <time>2021-05-01T08:25:49.503Z</time>
      </trkpt>
      <trkpt lat="44.87609" lon="-0.11845">
        <ele>41</ele>
        <time>2021-05-01T08:25:57.504Z</time>
      </trkpt>
      <trkpt lat="44.87611" lon="-0.11838">
        <ele>40</ele>
        <time>2021-05-01T08:26:00.503Z</time>
      </trkpt>
      <trkpt lat="44.87614" lon="-0.11835">
        <ele>39</ele>
        <time>2021-05-01T08:26:02.503Z</time>
      </trkpt>
      <trkpt lat="44.87614" lon="-0.1183">
        <ele>38</ele>
        <time>2021-05-01T08:26:05.503Z</time>
      </trkpt>
      <trkpt lat="44.87612" lon="-0.11824">
        <ele>37</ele>
        <time>2021-05-01T08:26:11.504Z</time>
      </trkpt>
      <trkpt lat="44.87609" lon="-0.11824">
        <ele>38</ele>
        <time>2021-05-01T08:26:15.504Z</time>
      </trkpt>
      <trkpt lat="44.87605" lon="-0.11828">
        <ele>39</ele>
        <time>2021-05-01T08:26:19.504Z</time>
      </trkpt>
      <trkpt lat="44.87603" lon="-0.11833">
        <ele>39</ele>
        <time>2021-05-01T08:26:22.503Z</time>
      </trkpt>
      <trkpt lat="44.87599" lon="-0.11835">
        <ele>40</ele>
        <time>2021-05-01T08:26:25.503Z</time>
      </trkpt>
      <trkpt lat="44.87593" lon="-0.11846">
        <ele>40</ele>
        <time>2021-05-01T08:26:32.504Z</time>
      </trkpt>
      <trkpt lat="44.87586" lon="-0.11856">
        <ele>38</ele>
        <time>2021-05-01T08:26:38.503Z</time>
      </trkpt>
      <trkpt lat="44.87582" lon="-0.11859">
        <ele>37</ele>
        <time>2021-05-01T08:26:42.504Z</time>
      </trkpt>
      <trkpt lat="44.87578" lon="-0.11868">
        <ele>35</ele>
        <time>2021-05-01T08:26:50.504Z</time>
      </trkpt>
      <trkpt lat="44.87573" lon="-0.11871">
        <ele>34</ele>
        <time>2021-05-01T08:26:53.504Z</time>
      </trkpt>
      <trkpt lat="44.8756" lon="-0.11889">
        <ele>31</ele>
        <time>2021-05-01T08:27:08.503Z</time>
      </trkpt>
      <trkpt lat="44.87553" lon="-0.11897">
        <ele>30</ele>
        <time>2021-05-01T08:27:14.503Z</time>
      </trkpt>
      <trkpt lat="44.87548" lon="-0.11906">
        <ele>27</ele>
        <time>2021-05-01T08:27:21.504Z</time>
      </trkpt>
      <trkpt lat="44.87549" lon="-0.11907">
        <ele>26</ele>
        <time>2021-05-01T08:27:24.504Z</time>
      </trkpt>
      <trkpt lat="44.87544" lon="-0.11935">
        <ele>19</ele>
        <time>2021-05-01T08:27:41.504Z</time>
      </trkpt>
      <trkpt lat="44.87539" lon="-0.11942">
        <ele>18</ele>
        <time>2021-05-01T08:27:48.504Z</time>
      </trkpt>
      <trkpt lat="44.87537" lon="-0.11957">
        <ele>20</ele>
        <time>2021-05-01T08:28:01.503Z</time>
      </trkpt>
      <trkpt lat="44.87536" lon="-0.11956">
        <ele>20</ele>
        <time>2021-05-01T08:28:04.504Z</time>
      </trkpt>
      <trkpt lat="44.87536" lon="-0.11947">
        <ele>17</ele>
        <time>2021-05-01T08:28:09.504Z</time>
      </trkpt>
      <trkpt lat="44.87538" lon="-0.11938">
        <ele>15</ele>
        <time>2021-05-01T08:28:14.503Z</time>
      </trkpt>
      <trkpt lat="44.8754" lon="-0.11921">
        <ele>12</ele>
        <time>2021-05-01T08:28:24.504Z</time>
      </trkpt>
      <trkpt lat="44.87546" lon="-0.11908">
        <ele>12</ele>
        <time>2021-05-01T08:28:32.504Z</time>
      </trkpt>
      <trkpt lat="44.87546" lon="-0.119">
        <ele>12</ele>
        <time>2021-05-01T08:28:37.504Z</time>
      </trkpt>
      <trkpt lat="44.8755" lon="-0.11887">
        <ele>12</ele>
        <time>2021-05-01T08:28:44.504Z</time>
      </trkpt>
      <trkpt lat="44.87552" lon="-0.11876">
        <ele>12</ele>
        <time>2021-05-01T08:28:50.503Z</time>
      </trkpt>
      <trkpt lat="44.87554" lon="-0.1187">
        <ele>12</ele>
        <time>2021-05-01T08:28:53.504Z</time>
      </trkpt>
      <trkpt lat="44.87557" lon="-0.1185">
        <ele>9</ele>
        <time>2021-05-01T08:29:02.504Z</time>
      </trkpt>
      <trkpt lat="44.87561" lon="-0.11838">
        <ele>9</ele>
        <time>2021-05-01T08:29:08.503Z</time>
      </trkpt>
      <trkpt lat="44.8756" lon="-0.11834">
        <ele>9</ele>
        <time>2021-05-01T08:29:11.504Z</time>
      </trkpt>
      <trkpt lat="44.87567" lon="-0.11792">
        <ele>12</ele>
        <time>2021-05-01T08:29:31.504Z</time>
      </trkpt>
      <trkpt lat="44.8757" lon="-0.11785">
        <ele>11</ele>
        <time>2021-05-01T08:29:34.504Z</time>
      </trkpt>
      <trkpt lat="44.8757" lon="-0.11782">
        <ele>11</ele>
        <time>2021-05-01T08:29:36.504Z</time>
      </trkpt>
      <trkpt lat="44.87568" lon="-0.11775">
        <ele>10</ele>
        <time>2021-05-01T08:29:40.503Z</time>
      </trkpt>
      <trkpt lat="44.87566" lon="-0.1177">
        <ele>10</ele>
        <time>2021-05-01T08:29:44.504Z</time>
      </trkpt>
      <trkpt lat="44.87555" lon="-0.11766">
        <ele>11</ele>
        <time>2021-05-01T08:29:54.503Z</time>
      </trkpt>
      <trkpt lat="44.87547" lon="-0.11767">
        <ele>11</ele>
        <time>2021-05-01T08:30:00.504Z</time>
      </trkpt>
      <trkpt lat="44.87528" lon="-0.1176">
        <ele>10</ele>
        <time>2021-05-01T08:30:14.503Z</time>
      </trkpt>
      <trkpt lat="44.87516" lon="-0.11761">
        <ele>8</ele>
        <time>2021-05-01T08:30:23.504Z</time>
      </trkpt>
      <trkpt lat="44.87502" lon="-0.11755">
        <ele>7</ele>
        <time>2021-05-01T08:30:34.503Z</time>
      </trkpt>
      <trkpt lat="44.87501" lon="-0.11754">
        <ele>7</ele>
        <time>2021-05-01T08:30:35.504Z</time>
      </trkpt>
      <trkpt lat="44.87501" lon="-0.11745">
        <ele>6</ele>
        <time>2021-05-01T08:30:40.503Z</time>
      </trkpt>
      <trkpt lat="44.87505" lon="-0.11733">
        <ele>7</ele>
        <time>2021-05-01T08:30:47.504Z</time>
      </trkpt>
      <trkpt lat="44.87505" lon="-0.11726">
        <ele>7</ele>
        <time>2021-05-01T08:30:50.504Z</time>
      </trkpt>
      <trkpt lat="44.87507" lon="-0.1172">
        <ele>6</ele>
        <time>2021-05-01T08:30:53.504Z</time>
      </trkpt>
      <trkpt lat="44.87509" lon="-0.11705">
        <ele>5</ele>
        <time>2021-05-01T08:30:59.504Z</time>
      </trkpt>
      <trkpt lat="44.87509" lon="-0.11699">
        <ele>4</ele>
        <time>2021-05-01T08:31:02.504Z</time>
      </trkpt>
      <trkpt lat="44.87512" lon="-0.11688">
        <ele>5</ele>
        <time>2021-05-01T08:31:08.504Z</time>
      </trkpt>
      <trkpt lat="44.8751" lon="-0.11678">
        <ele>7</ele>
        <time>2021-05-01T08:31:13.504Z</time>
      </trkpt>
      <trkpt lat="44.87513" lon="-0.11672">
        <ele>8</ele>
        <time>2021-05-01T08:31:16.504Z</time>
      </trkpt>
      <trkpt lat="44.87517" lon="-0.11651">
        <ele>9</ele>
        <time>2021-05-01T08:31:27.504Z</time>
      </trkpt>
      <trkpt lat="44.87517" lon="-0.11641">
        <ele>9</ele>
        <time>2021-05-01T08:31:32.504Z</time>
      </trkpt>
      <trkpt lat="44.87521" lon="-0.1163">
        <ele>7</ele>
        <time>2021-05-01T08:31:37.504Z</time>
      </trkpt>
      <trkpt lat="44.87522" lon="-0.11623">
        <ele>6</ele>
        <time>2021-05-01T08:31:40.504Z</time>
      </trkpt>
      <trkpt lat="44.87525" lon="-0.11611">
        <ele>5</ele>
        <time>2021-05-01T08:31:45.504Z</time>
      </trkpt>
      <trkpt lat="44.87526" lon="-0.11603">
        <ele>4</ele>
        <time>2021-05-01T08:31:49.504Z</time>
      </trkpt>
      <trkpt lat="44.87528" lon="-0.11598">
        <ele>4</ele>
        <time>2021-05-01T08:31:51.504Z</time>
      </trkpt>
      <trkpt lat="44.87529" lon="-0.11596">
        <ele>3</ele>
        <time>2021-05-01T08:31:53.504Z</time>
      </trkpt>
      <trkpt lat="44.87527" lon="-0.11595">
        <ele>4</ele>
        <time>2021-05-01T08:31:54.505Z</time>
      </trkpt>
      <trkpt lat="44.87532" lon="-0.11572">
        <ele>4</ele>
        <time>2021-05-01T08:32:07.505Z</time>
      </trkpt>
      <trkpt lat="44.87536" lon="-0.11557">
        <ele>6</ele>
        <time>2021-05-01T08:32:14.505Z</time>
      </trkpt>
      <trkpt lat="44.87535" lon="-0.11552">
        <ele>7</ele>
        <time>2021-05-01T08:32:17.505Z</time>
      </trkpt>
      <trkpt lat="44.87537" lon="-0.11544">
        <ele>7</ele>
        <time>2021-05-01T08:32:21.505Z</time>
      </trkpt>
      <trkpt lat="44.87536" lon="-0.11542">
        <ele>8</ele>
        <time>2021-05-01T08:32:22.505Z</time>
      </trkpt>
      <trkpt lat="44.87538" lon="-0.11531">
        <ele>8</ele>
        <time>2021-05-01T08:32:28.505Z</time>
      </trkpt>
      <trkpt lat="44.8754" lon="-0.11527">
        <ele>8</ele>
        <time>2021-05-01T08:32:30.505Z</time>
      </trkpt>
      <trkpt lat="44.87544" lon="-0.11508">
        <ele>12</ele>
        <time>2021-05-01T08:32:41.505Z</time>
      </trkpt>
      <trkpt lat="44.87547" lon="-0.11503">
        <ele>12</ele>
        <time>2021-05-01T08:32:43.504Z</time>
      </trkpt>
      <trkpt lat="44.8755" lon="-0.11488">
        <ele>11</ele>
        <time>2021-05-01T08:32:51.505Z</time>
      </trkpt>
      <trkpt lat="44.87554" lon="-0.11485">
        <ele>9</ele>
        <time>2021-05-01T08:32:56.504Z</time>
      </trkpt>
      <trkpt lat="44.87554" lon="-0.1148">
        <ele>10</ele>
        <time>2021-05-01T08:32:59.505Z</time>
      </trkpt>
      <trkpt lat="44.87555" lon="-0.11477">
        <ele>10</ele>
        <time>2021-05-01T08:33:01.505Z</time>
      </trkpt>
      <trkpt lat="44.87557" lon="-0.11465">
        <ele>12</ele>
        <time>2021-05-01T08:33:08.505Z</time>
      </trkpt>
      <trkpt lat="44.87559" lon="-0.11459">
        <ele>12</ele>
        <time>2021-05-01T08:33:11.505Z</time>
      </trkpt>
      <trkpt lat="44.8756" lon="-0.11446">
        <ele>11</ele>
        <time>2021-05-01T08:33:18.505Z</time>
      </trkpt>
      <trkpt lat="44.87563" lon="-0.11432">
        <ele>9</ele>
        <time>2021-05-01T08:33:26.504Z</time>
      </trkpt>
      <trkpt lat="44.87564" lon="-0.11423">
        <ele>9</ele>
        <time>2021-05-01T08:33:30.504Z</time>
      </trkpt>
      <trkpt lat="44.87568" lon="-0.11406">
        <ele>8</ele>
        <time>2021-05-01T08:33:38.505Z</time>
      </trkpt>
      <trkpt lat="44.87572" lon="-0.11396">
        <ele>7</ele>
        <time>2021-05-01T08:33:43.504Z</time>
      </trkpt>
      <trkpt lat="44.87572" lon="-0.11392">
        <ele>7</ele>
        <time>2021-05-01T08:33:45.505Z</time>
      </trkpt>
      <trkpt lat="44.87581" lon="-0.1138">
        <ele>7</ele>
        <time>2021-05-01T08:33:53.505Z</time>
      </trkpt>
      <trkpt lat="44.87586" lon="-0.11375">
        <ele>6</ele>
        <time>2021-05-01T08:33:57.504Z</time>
      </trkpt>
      <trkpt lat="44.87588" lon="-0.11369">
        <ele>7</ele>
        <time>2021-05-01T08:34:01.505Z</time>
      </trkpt>
      <trkpt lat="44.87587" lon="-0.11362">
        <ele>7</ele>
        <time>2021-05-01T08:34:05.504Z</time>
      </trkpt>
      <trkpt lat="44.87588" lon="-0.11357">
        <ele>6</ele>
        <time>2021-05-01T08:34:07.505Z</time>
      </trkpt>
      <trkpt lat="44.8759" lon="-0.1135">
        <ele>5</ele>
        <time>2021-05-01T08:34:10.505Z</time>
      </trkpt>
      <trkpt lat="44.87598" lon="-0.11324">
        <ele>6</ele>
        <time>2021-05-01T08:34:24.505Z</time>
      </trkpt>
      <trkpt lat="44.87604" lon="-0.11309">
        <ele>7</ele>
        <time>2021-05-01T08:34:31.505Z</time>
      </trkpt>
      <trkpt lat="44.87606" lon="-0.113">
        <ele>8</ele>
        <time>2021-05-01T08:34:35.505Z</time>
      </trkpt>
      <trkpt lat="44.87619" lon="-0.11258">
        <ele>8</ele>
        <time>2021-05-01T08:34:58.504Z</time>
      </trkpt>
      <trkpt lat="44.87626" lon="-0.11247">
        <ele>10</ele>
        <time>2021-05-01T08:35:06.505Z</time>
      </trkpt>
      <trkpt lat="44.87631" lon="-0.11243">
        <ele>9</ele>
        <time>2021-05-01T08:35:11.505Z</time>
      </trkpt>
      <trkpt lat="44.87641" lon="-0.11238">
        <ele>11</ele>
        <time>2021-05-01T08:35:20.504Z</time>
      </trkpt>
      <trkpt lat="44.87641" lon="-0.11237">
        <ele>13</ele>
        <time>2021-05-01T08:35:24.504Z</time>
      </trkpt>
      <trkpt lat="44.87643" lon="-0.11238">
        <ele>13</ele>
        <time>2021-05-01T08:35:27.504Z</time>
      </trkpt>
      <trkpt lat="44.87665" lon="-0.1123">
        <ele>13</ele>
        <time>2021-05-01T08:35:43.505Z</time>
      </trkpt>
      <trkpt lat="44.87673" lon="-0.11226">
        <ele>14</ele>
        <time>2021-05-01T08:35:50.504Z</time>
      </trkpt>
      <trkpt lat="44.87678" lon="-0.11225">
        <ele>15</ele>
        <time>2021-05-01T08:35:54.505Z</time>
      </trkpt>
      <trkpt lat="44.8772" lon="-0.11205">
        <ele>14</ele>
        <time>2021-05-01T08:36:24.505Z</time>
      </trkpt>
      <trkpt lat="44.87735" lon="-0.112">
        <ele>15</ele>
        <time>2021-05-01T08:36:35.505Z</time>
      </trkpt>
      <trkpt lat="44.87743" lon="-0.11189">
        <ele>14</ele>
        <time>2021-05-01T08:36:44.505Z</time>
      </trkpt>
      <trkpt lat="44.87757" lon="-0.11187">
        <ele>14</ele>
        <time>2021-05-01T08:36:54.505Z</time>
      </trkpt>
      <trkpt lat="44.87766" lon="-0.11185">
        <ele>14</ele>
        <time>2021-05-01T08:37:00.504Z</time>
      </trkpt>
      <trkpt lat="44.87767" lon="-0.11183">
        <ele>14</ele>
        <time>2021-05-01T08:37:02.505Z</time>
      </trkpt>
      <trkpt lat="44.87784" lon="-0.11181">
        <ele>17</ele>
        <time>2021-05-01T08:37:14.504Z</time>
      </trkpt>
      <trkpt lat="44.87789" lon="-0.11179">
        <ele>17</ele>
        <time>2021-05-01T08:37:18.505Z</time>
      </trkpt>
      <trkpt lat="44.87799" lon="-0.11178">
        <ele>17</ele>
        <time>2021-05-01T08:37:25.505Z</time>
      </trkpt>
      <trkpt lat="44.87813" lon="-0.11175">
        <ele>21</ele>
        <time>2021-05-01T08:37:35.504Z</time>
      </trkpt>
      <trkpt lat="44.87821" lon="-0.11175">
        <ele>23</ele>
        <time>2021-05-01T08:37:40.505Z</time>
      </trkpt>
      <trkpt lat="44.87832" lon="-0.11171">
        <ele>22</ele>
        <time>2021-05-01T08:37:49.504Z</time>
      </trkpt>
      <trkpt lat="44.87856" lon="-0.11167">
        <ele>23</ele>
        <time>2021-05-01T08:38:09.505Z</time>
      </trkpt>
      <trkpt lat="44.87867" lon="-0.11161">
        <ele>23</ele>
        <time>2021-05-01T08:38:17.505Z</time>
      </trkpt>
      <trkpt lat="44.8787" lon="-0.11161">
        <ele>24</ele>
        <time>2021-05-01T08:38:19.505Z</time>
      </trkpt>
      <trkpt lat="44.87873" lon="-0.11157">
        <ele>25</ele>
        <time>2021-05-01T08:38:23.505Z</time>
      </trkpt>
      <trkpt lat="44.87886" lon="-0.11152">
        <ele>26</ele>
        <time>2021-05-01T08:38:36.505Z</time>
      </trkpt>
      <trkpt lat="44.87888" lon="-0.11148">
        <ele>25</ele>
        <time>2021-05-01T08:38:41.505Z</time>
      </trkpt>
      <trkpt lat="44.87891" lon="-0.11147">
        <ele>25</ele>
        <time>2021-05-01T08:38:44.504Z</time>
      </trkpt>
      <trkpt lat="44.87894" lon="-0.11144">
        <ele>25</ele>
        <time>2021-05-01T08:38:48.505Z</time>
      </trkpt>
      <trkpt lat="44.87908" lon="-0.1114">
        <ele>24</ele>
        <time>2021-05-01T08:38:57.504Z</time>
      </trkpt>
      <trkpt lat="44.87915" lon="-0.11141">
        <ele>25</ele>
        <time>2021-05-01T08:39:03.504Z</time>
      </trkpt>
      <trkpt lat="44.87927" lon="-0.11138">
        <ele>23</ele>
        <time>2021-05-01T08:39:10.504Z</time>
      </trkpt>
      <trkpt lat="44.87937" lon="-0.11138">
        <ele>25</ele>
        <time>2021-05-01T08:39:17.504Z</time>
      </trkpt>
      <trkpt lat="44.87963" lon="-0.1113">
        <ele>30</ele>
        <time>2021-05-01T08:39:38.505Z</time>
      </trkpt>
      <trkpt lat="44.87966" lon="-0.11131">
        <ele>30</ele>
        <time>2021-05-01T08:39:39.505Z</time>
      </trkpt>
      <trkpt lat="44.87971" lon="-0.1113">
        <ele>29</ele>
        <time>2021-05-01T08:39:42.505Z</time>
      </trkpt>
      <trkpt lat="44.87976" lon="-0.11131">
        <ele>28</ele>
        <time>2021-05-01T08:39:45.505Z</time>
      </trkpt>
      <trkpt lat="44.87977" lon="-0.11133">
        <ele>28</ele>
        <time>2021-05-01T08:39:47.505Z</time>
      </trkpt>
      <trkpt lat="44.87991" lon="-0.11128">
        <ele>32</ele>
        <time>2021-05-01T08:39:56.505Z</time>
      </trkpt>
      <trkpt lat="44.87994" lon="-0.11126">
        <ele>32</ele>
        <time>2021-05-01T08:39:59.505Z</time>
      </trkpt>
      <trkpt lat="44.8801" lon="-0.11122">
        <ele>38</ele>
        <time>2021-05-01T08:40:12.505Z</time>
      </trkpt>
      <trkpt lat="44.88021" lon="-0.11115">
        <ele>40</ele>
        <time>2021-05-01T08:40:21.505Z</time>
      </trkpt>
      <trkpt lat="44.88027" lon="-0.11113">
        <ele>41</ele>
        <time>2021-05-01T08:40:26.505Z</time>
      </trkpt>
      <trkpt lat="44.88033" lon="-0.11115">
        <ele>40</ele>
        <time>2021-05-01T08:40:31.504Z</time>
      </trkpt>
      <trkpt lat="44.88043" lon="-0.11113">
        <ele>38</ele>
        <time>2021-05-01T08:40:38.504Z</time>
      </trkpt>
      <trkpt lat="44.88048" lon="-0.11109">
        <ele>39</ele>
        <time>2021-05-01T08:40:42.505Z</time>
      </trkpt>
      <trkpt lat="44.88052" lon="-0.11105">
        <ele>37</ele>
        <time>2021-05-01T08:40:46.505Z</time>
      </trkpt>
      <trkpt lat="44.88066" lon="-0.11095">
        <ele>40</ele>
        <time>2021-05-01T08:40:58.504Z</time>
      </trkpt>
      <trkpt lat="44.88069" lon="-0.11091">
        <ele>40</ele>
        <time>2021-05-01T08:41:01.505Z</time>
      </trkpt>
      <trkpt lat="44.88076" lon="-0.11087">
        <ele>39</ele>
        <time>2021-05-01T08:41:06.505Z</time>
      </trkpt>
      <trkpt lat="44.88078" lon="-0.11084">
        <ele>40</ele>
        <time>2021-05-01T08:41:09.505Z</time>
      </trkpt>
      <trkpt lat="44.88086" lon="-0.11077">
        <ele>43</ele>
        <time>2021-05-01T08:41:14.505Z</time>
      </trkpt>
      <trkpt lat="44.88092" lon="-0.11075">
        <ele>45</ele>
        <time>2021-05-01T08:41:18.504Z</time>
      </trkpt>
      <trkpt lat="44.88101" lon="-0.11066">
        <ele>49</ele>
        <time>2021-05-01T08:41:25.505Z</time>
      </trkpt>
      <trkpt lat="44.88108" lon="-0.11056">
        <ele>50</ele>
        <time>2021-05-01T08:41:33.505Z</time>
      </trkpt>
      <trkpt lat="44.88113" lon="-0.11052">
        <ele>52</ele>
        <time>2021-05-01T08:41:37.505Z</time>
      </trkpt>
      <trkpt lat="44.8812" lon="-0.11044">
        <ele>52</ele>
        <time>2021-05-01T08:41:45.504Z</time>
      </trkpt>
      <trkpt lat="44.88123" lon="-0.11043">
        <ele>52</ele>
        <time>2021-05-01T08:41:49.504Z</time>
      </trkpt>
      <trkpt lat="44.88129" lon="-0.11038">
        <ele>54</ele>
        <time>2021-05-01T08:41:55.505Z</time>
      </trkpt>
      <trkpt lat="44.88156" lon="-0.11025">
        <ele>54</ele>
        <time>2021-05-01T08:42:21.505Z</time>
      </trkpt>
      <trkpt lat="44.88158" lon="-0.11026">
        <ele>55</ele>
        <time>2021-05-01T08:42:23.505Z</time>
      </trkpt>
      <trkpt lat="44.88166" lon="-0.11022">
        <ele>58</ele>
        <time>2021-05-01T08:42:31.505Z</time>
      </trkpt>
      <trkpt lat="44.8818" lon="-0.11021">
        <ele>62</ele>
        <time>2021-05-01T08:42:47.504Z</time>
      </trkpt>
      <trkpt lat="44.88188" lon="-0.11022">
        <ele>64</ele>
        <time>2021-05-01T08:42:58.504Z</time>
      </trkpt>
      <trkpt lat="44.88191" lon="-0.11021">
        <ele>65</ele>
        <time>2021-05-01T08:43:00.505Z</time>
      </trkpt>
      <trkpt lat="44.88195" lon="-0.11021">
        <ele>67</ele>
        <time>2021-05-01T08:43:05.504Z</time>
      </trkpt>
      <trkpt lat="44.88207" lon="-0.11017">
        <ele>68</ele>
        <time>2021-05-01T08:43:18.504Z</time>
      </trkpt>
      <trkpt lat="44.88217" lon="-0.11017">
        <ele>71</ele>
        <time>2021-05-01T08:43:27.504Z</time>
      </trkpt>
      <trkpt lat="44.88234" lon="-0.11008">
        <ele>74</ele>
        <time>2021-05-01T08:43:41.505Z</time>
      </trkpt>
      <trkpt lat="44.88241" lon="-0.11002">
        <ele>74</ele>
        <time>2021-05-01T08:43:50.504Z</time>
      </trkpt>
      <trkpt lat="44.88245" lon="-0.11002">
        <ele>74</ele>
        <time>2021-05-01T08:43:55.504Z</time>
      </trkpt>
      <trkpt lat="44.8825" lon="-0.10999">
        <ele>72</ele>
        <time>2021-05-01T08:44:00.505Z</time>
      </trkpt>
      <trkpt lat="44.88256" lon="-0.10999">
        <ele>71</ele>
        <time>2021-05-01T08:44:06.505Z</time>
      </trkpt>
      <trkpt lat="44.88263" lon="-0.10998">
        <ele>72</ele>
        <time>2021-05-01T08:44:12.505Z</time>
      </trkpt>
      <trkpt lat="44.88277" lon="-0.10991">
        <ele>75</ele>
        <time>2021-05-01T08:44:24.504Z</time>
      </trkpt>
      <trkpt lat="44.8828" lon="-0.10988">
        <ele>74</ele>
        <time>2021-05-01T08:44:27.505Z</time>
      </trkpt>
      <trkpt lat="44.88293" lon="-0.10984">
        <ele>75</ele>
        <time>2021-05-01T08:44:40.505Z</time>
      </trkpt>
      <trkpt lat="44.88299" lon="-0.10987">
        <ele>75</ele>
        <time>2021-05-01T08:44:48.505Z</time>
      </trkpt>
      <trkpt lat="44.88298" lon="-0.10989">
        <ele>81</ele>
        <time>2021-05-01T08:44:49.506Z</time>
      </trkpt>
      <trkpt lat="44.88305" lon="-0.10974">
        <ele>80</ele>
        <time>2021-05-01T08:44:57.505Z</time>
      </trkpt>
      <trkpt lat="44.88311" lon="-0.10955">
        <ele>77</ele>
        <time>2021-05-01T08:45:06.506Z</time>
      </trkpt>
      <trkpt lat="44.8831" lon="-0.10948">
        <ele>75</ele>
        <time>2021-05-01T08:45:10.505Z</time>
      </trkpt>
      <trkpt lat="44.88313" lon="-0.10942">
        <ele>74</ele>
        <time>2021-05-01T08:45:13.505Z</time>
      </trkpt>
      <trkpt lat="44.88313" lon="-0.10928">
        <ele>74</ele>
        <time>2021-05-01T08:45:21.506Z</time>
      </trkpt>
      <trkpt lat="44.88315" lon="-0.10919">
        <ele>74</ele>
        <time>2021-05-01T08:45:26.506Z</time>
      </trkpt>
      <trkpt lat="44.88315" lon="-0.10917">
        <ele>75</ele>
        <time>2021-05-01T08:45:27.506Z</time>
      </trkpt>
      <trkpt lat="44.88317" lon="-0.10911">
        <ele>75</ele>
        <time>2021-05-01T08:45:31.506Z</time>
      </trkpt>
      <trkpt lat="44.88317" lon="-0.10902">
        <ele>74</ele>
        <time>2021-05-01T08:45:36.506Z</time>
      </trkpt>
      <trkpt lat="44.88321" lon="-0.10888">
        <ele>77</ele>
        <time>2021-05-01T08:45:47.506Z</time>
      </trkpt>
      <trkpt lat="44.88342" lon="-0.10867">
        <ele>79</ele>
        <time>2021-05-01T08:45:50.506Z</time>
      </trkpt>
      <trkpt lat="44.88357" lon="-0.1087">
        <ele>78</ele>
        <time>2021-05-01T08:46:01.506Z</time>
      </trkpt>
      <trkpt lat="44.88363" lon="-0.10872">
        <ele>80</ele>
        <time>2021-05-01T08:46:05.505Z</time>
      </trkpt>
      <trkpt lat="44.88377" lon="-0.10874">
        <ele>79</ele>
        <time>2021-05-01T08:46:14.505Z</time>
      </trkpt>
      <trkpt lat="44.88389" lon="-0.10874">
        <ele>77</ele>
        <time>2021-05-01T08:46:22.506Z</time>
      </trkpt>
      <trkpt lat="44.88401" lon="-0.10878">
        <ele>77</ele>
        <time>2021-05-01T08:46:30.505Z</time>
      </trkpt>
      <trkpt lat="44.88414" lon="-0.10876">
        <ele>77</ele>
        <time>2021-05-01T08:46:37.505Z</time>
      </trkpt>
      <trkpt lat="44.88421" lon="-0.10878">
        <ele>76</ele>
        <time>2021-05-01T08:46:41.506Z</time>
      </trkpt>
      <trkpt lat="44.88425" lon="-0.10878">
        <ele>75</ele>
        <time>2021-05-01T08:46:44.505Z</time>
      </trkpt>
      <trkpt lat="44.88448" lon="-0.10883">
        <ele>77</ele>
        <time>2021-05-01T08:47:00.506Z</time>
      </trkpt>
      <trkpt lat="44.88459" lon="-0.10884">
        <ele>78</ele>
        <time>2021-05-01T08:47:08.506Z</time>
      </trkpt>
      <trkpt lat="44.88465" lon="-0.10883">
        <ele>80</ele>
        <time>2021-05-01T08:47:12.506Z</time>
      </trkpt>
      <trkpt lat="44.88473" lon="-0.1088">
        <ele>82</ele>
        <time>2021-05-01T08:47:18.505Z</time>
      </trkpt>
      <trkpt lat="44.88489" lon="-0.1087">
        <ele>81</ele>
        <time>2021-05-01T08:47:29.506Z</time>
      </trkpt>
      <trkpt lat="44.88494" lon="-0.10866">
        <ele>79</ele>
        <time>2021-05-01T08:47:32.505Z</time>
      </trkpt>
      <trkpt lat="44.88494" lon="-0.10864">
        <ele>79</ele>
        <time>2021-05-01T08:47:33.506Z</time>
      </trkpt>
      <trkpt lat="44.88499" lon="-0.10858">
        <ele>80</ele>
        <time>2021-05-01T08:47:39.505Z</time>
      </trkpt>
      <trkpt lat="44.88509" lon="-0.10852">
        <ele>78</ele>
        <time>2021-05-01T08:47:44.506Z</time>
      </trkpt>
      <trkpt lat="44.88515" lon="-0.10845">
        <ele>76</ele>
        <time>2021-05-01T08:47:49.506Z</time>
      </trkpt>
      <trkpt lat="44.88525" lon="-0.10833">
        <ele>80</ele>
        <time>2021-05-01T08:47:58.506Z</time>
      </trkpt>
      <trkpt lat="44.88531" lon="-0.1082">
        <ele>83</ele>
        <time>2021-05-01T08:48:05.506Z</time>
      </trkpt>
      <trkpt lat="44.88538" lon="-0.10813">
        <ele>83</ele>
        <time>2021-05-01T08:48:10.505Z</time>
      </trkpt>
      <trkpt lat="44.88548" lon="-0.10798">
        <ele>85</ele>
        <time>2021-05-01T08:48:19.506Z</time>
      </trkpt>
      <trkpt lat="44.88556" lon="-0.1079">
        <ele>84</ele>
        <time>2021-05-01T08:48:26.506Z</time>
      </trkpt>
      <trkpt lat="44.88567" lon="-0.10774">
        <ele>83</ele>
        <time>2021-05-01T08:48:37.506Z</time>
      </trkpt>
      <trkpt lat="44.88571" lon="-0.10764">
        <ele>82</ele>
        <time>2021-05-01T08:48:43.506Z</time>
      </trkpt>
      <trkpt lat="44.88586" lon="-0.10744">
        <ele>83</ele>
        <time>2021-05-01T08:48:56.506Z</time>
      </trkpt>
      <trkpt lat="44.88586" lon="-0.10742">
        <ele>83</ele>
        <time>2021-05-01T08:48:57.506Z</time>
      </trkpt>
      <trkpt lat="44.88588" lon="-0.10739">
        <ele>83</ele>
        <time>2021-05-01T08:48:59.506Z</time>
      </trkpt>
      <trkpt lat="44.88597" lon="-0.10729">
        <ele>80</ele>
        <time>2021-05-01T08:49:06.506Z</time>
      </trkpt>
      <trkpt lat="44.88605" lon="-0.10718">
        <ele>77</ele>
        <time>2021-05-01T08:49:14.505Z</time>
      </trkpt>
      <trkpt lat="44.88608" lon="-0.10712">
        <ele>78</ele>
        <time>2021-05-01T08:49:18.505Z</time>
      </trkpt>
      <trkpt lat="44.88614" lon="-0.10708">
        <ele>78</ele>
        <time>2021-05-01T08:49:22.506Z</time>
      </trkpt>
      <trkpt lat="44.88622" lon="-0.10698">
        <ele>78</ele>
        <time>2021-05-01T08:49:29.506Z</time>
      </trkpt>
      <trkpt lat="44.8866" lon="-0.10667">
        <ele>78</ele>
        <time>2021-05-01T08:49:58.506Z</time>
      </trkpt>
      <trkpt lat="44.88661" lon="-0.10662">
        <ele>78</ele>
        <time>2021-05-01T08:50:02.506Z</time>
      </trkpt>
      <trkpt lat="44.88649" lon="-0.10631">
        <ele>78</ele>
        <time>2021-05-01T08:50:21.506Z</time>
      </trkpt>
      <trkpt lat="44.88632" lon="-0.10596">
        <ele>79</ele>
        <time>2021-05-01T08:50:41.506Z</time>
      </trkpt>
      <trkpt lat="44.88624" lon="-0.10574">
        <ele>80</ele>
        <time>2021-05-01T08:50:53.505Z</time>
      </trkpt>
      <trkpt lat="44.88622" lon="-0.10565">
        <ele>81</ele>
        <time>2021-05-01T08:50:58.506Z</time>
      </trkpt>
      <trkpt lat="44.88618" lon="-0.10558">
        <ele>82</ele>
        <time>2021-05-01T08:51:01.506Z</time>
      </trkpt>
      <trkpt lat="44.88621" lon="-0.10539">
        <ele>83</ele>
        <time>2021-05-01T08:51:13.506Z</time>
      </trkpt>
      <trkpt lat="44.8862" lon="-0.10528">
        <ele>85</ele>
        <time>2021-05-01T08:51:18.506Z</time>
      </trkpt>
      <trkpt lat="44.88617" lon="-0.10523">
        <ele>86</ele>
        <time>2021-05-01T08:51:21.506Z</time>
      </trkpt>
      <trkpt lat="44.88617" lon="-0.10518">
        <ele>86</ele>
        <time>2021-05-01T08:51:23.506Z</time>
      </trkpt>
      <trkpt lat="44.88612" lon="-0.10506">
        <ele>87</ele>
        <time>2021-05-01T08:51:30.506Z</time>
      </trkpt>
      <trkpt lat="44.8861" lon="-0.10498">
        <ele>86</ele>
        <time>2021-05-01T08:51:34.506Z</time>
      </trkpt>
      <trkpt lat="44.88599" lon="-0.10473">
        <ele>81</ele>
        <time>2021-05-01T08:51:48.506Z</time>
      </trkpt>
      <trkpt lat="44.88596" lon="-0.10464">
        <ele>79</ele>
        <time>2021-05-01T08:51:53.506Z</time>
      </trkpt>
      <trkpt lat="44.88588" lon="-0.10446">
        <ele>77</ele>
        <time>2021-05-01T08:52:02.506Z</time>
      </trkpt>
      <trkpt lat="44.88581" lon="-0.10425">
        <ele>76</ele>
        <time>2021-05-01T08:52:13.506Z</time>
      </trkpt>
      <trkpt lat="44.88574" lon="-0.10393">
        <ele>80</ele>
        <time>2021-05-01T08:52:28.506Z</time>
      </trkpt>
      <trkpt lat="44.88569" lon="-0.10381">
        <ele>82</ele>
        <time>2021-05-01T08:52:34.506Z</time>
      </trkpt>
      <trkpt lat="44.88566" lon="-0.10369">
        <ele>82</ele>
        <time>2021-05-01T08:52:40.506Z</time>
      </trkpt>
      <trkpt lat="44.88559" lon="-0.10346">
        <ele>83</ele>
        <time>2021-05-01T08:52:51.505Z</time>
      </trkpt>
      <trkpt lat="44.88557" lon="-0.10331">
        <ele>82</ele>
        <time>2021-05-01T08:52:58.506Z</time>
      </trkpt>
      <trkpt lat="44.88551" lon="-0.10315">
        <ele>84</ele>
        <time>2021-05-01T08:53:06.505Z</time>
      </trkpt>
      <trkpt lat="44.88547" lon="-0.10309">
        <ele>84</ele>
        <time>2021-05-01T08:53:10.506Z</time>
      </trkpt>
      <trkpt lat="44.88536" lon="-0.10296">
        <ele>84</ele>
        <time>2021-05-01T08:53:19.505Z</time>
      </trkpt>
      <trkpt lat="44.88534" lon="-0.10294">
        <ele>84</ele>
        <time>2021-05-01T08:53:21.505Z</time>
      </trkpt>
      <trkpt lat="44.88532" lon="-0.10289">
        <ele>83</ele>
        <time>2021-05-01T08:53:24.505Z</time>
      </trkpt>
      <trkpt lat="44.88519" lon="-0.10261">
        <ele>87</ele>
        <time>2021-05-01T08:53:40.506Z</time>
      </trkpt>
      <trkpt lat="44.88515" lon="-0.10255">
        <ele>87</ele>
        <time>2021-05-01T08:53:44.506Z</time>
      </trkpt>
      <trkpt lat="44.88512" lon="-0.10253">
        <ele>87</ele>
        <time>2021-05-01T08:53:46.506Z</time>
      </trkpt>
      <trkpt lat="44.88506" lon="-0.10253">
        <ele>87</ele>
        <time>2021-05-01T08:53:50.506Z</time>
      </trkpt>
      <trkpt lat="44.88492" lon="-0.10256">
        <ele>85</ele>
        <time>2021-05-01T08:54:04.505Z</time>
      </trkpt>
      <trkpt lat="44.88489" lon="-0.10253">
        <ele>86</ele>
        <time>2021-05-01T08:54:10.505Z</time>
      </trkpt>
      <trkpt lat="44.88488" lon="-0.10243">
        <ele>85</ele>
        <time>2021-05-01T08:54:16.505Z</time>
      </trkpt>
      <trkpt lat="44.88485" lon="-0.10231">
        <ele>81</ele>
        <time>2021-05-01T08:54:22.505Z</time>
      </trkpt>
      <trkpt lat="44.88468" lon="-0.10202">
        <ele>81</ele>
        <time>2021-05-01T08:54:39.505Z</time>
      </trkpt>
      <trkpt lat="44.88457" lon="-0.10182">
        <ele>84</ele>
        <time>2021-05-01T08:54:51.506Z</time>
      </trkpt>
      <trkpt lat="44.88449" lon="-0.10163">
        <ele>83</ele>
        <time>2021-05-01T08:55:01.505Z</time>
      </trkpt>
      <trkpt lat="44.88445" lon="-0.10157">
        <ele>84</ele>
        <time>2021-05-01T08:55:05.506Z</time>
      </trkpt>
      <trkpt lat="44.8844" lon="-0.10141">
        <ele>85</ele>
        <time>2021-05-01T08:55:13.506Z</time>
      </trkpt>
      <trkpt lat="44.88434" lon="-0.1013">
        <ele>84</ele>
        <time>2021-05-01T08:55:20.506Z</time>
      </trkpt>
      <trkpt lat="44.8843" lon="-0.10116">
        <ele>82</ele>
        <time>2021-05-01T08:55:27.506Z</time>
      </trkpt>
      <trkpt lat="44.88425" lon="-0.10108">
        <ele>81</ele>
        <time>2021-05-01T08:55:32.505Z</time>
      </trkpt>
      <trkpt lat="44.88424" lon="-0.10103">
        <ele>80</ele>
        <time>2021-05-01T08:55:34.506Z</time>
      </trkpt>
      <trkpt lat="44.88411" lon="-0.10074">
        <ele>82</ele>
        <time>2021-05-01T08:55:51.505Z</time>
      </trkpt>
      <trkpt lat="44.88409" lon="-0.10067">
        <ele>82</ele>
        <time>2021-05-01T08:55:55.505Z</time>
      </trkpt>
      <trkpt lat="44.88391" lon="-0.10029">
        <ele>83</ele>
        <time>2021-05-01T08:56:16.506Z</time>
      </trkpt>
      <trkpt lat="44.88381" lon="-0.10002">
        <ele>83</ele>
        <time>2021-05-01T08:56:31.505Z</time>
      </trkpt>
      <trkpt lat="44.88378" lon="-0.09997">
        <ele>83</ele>
        <time>2021-05-01T08:56:36.506Z</time>
      </trkpt>
      <trkpt lat="44.88377" lon="-0.09999">
        <ele>82</ele>
        <time>2021-05-01T08:56:40.506Z</time>
      </trkpt>
      <trkpt lat="44.88378" lon="-0.10001">
        <ele>82</ele>
        <time>2021-05-01T08:56:45.506Z</time>
      </trkpt>
      <trkpt lat="44.88377" lon="-0.09993">
        <ele>83</ele>
        <time>2021-05-01T08:56:50.506Z</time>
      </trkpt>
      <trkpt lat="44.88369" lon="-0.09976">
        <ele>84</ele>
        <time>2021-05-01T08:56:58.505Z</time>
      </trkpt>
      <trkpt lat="44.88352" lon="-0.09937">
        <ele>86</ele>
        <time>2021-05-01T08:57:19.506Z</time>
      </trkpt>
      <trkpt lat="44.88346" lon="-0.09924">
        <ele>88</ele>
        <time>2021-05-01T08:57:26.506Z</time>
      </trkpt>
      <trkpt lat="44.88339" lon="-0.09905">
        <ele>90</ele>
        <time>2021-05-01T08:57:36.506Z</time>
      </trkpt>
      <trkpt lat="44.88326" lon="-0.09882">
        <ele>83</ele>
        <time>2021-05-01T08:57:50.505Z</time>
      </trkpt>
      <trkpt lat="44.88322" lon="-0.09869">
        <ele>78</ele>
        <time>2021-05-01T08:58:04.506Z</time>
      </trkpt>
      <trkpt lat="44.88321" lon="-0.09869">
        <ele>78</ele>
        <time>2021-05-01T08:58:06.506Z</time>
      </trkpt>
      <trkpt lat="44.8832" lon="-0.09865">
        <ele>78</ele>
        <time>2021-05-01T08:58:09.506Z</time>
      </trkpt>
      <trkpt lat="44.88318" lon="-0.09863">
        <ele>79</ele>
        <time>2021-05-01T08:58:13.506Z</time>
      </trkpt>
      <trkpt lat="44.88318" lon="-0.0986">
        <ele>79</ele>
        <time>2021-05-01T08:58:17.507Z</time>
      </trkpt>
      <trkpt lat="44.88316" lon="-0.09858">
        <ele>80</ele>
        <time>2021-05-01T08:58:22.506Z</time>
      </trkpt>
      <trkpt lat="44.88317" lon="-0.09857">
        <ele>81</ele>
        <time>2021-05-01T08:58:24.506Z</time>
      </trkpt>
      <trkpt lat="44.88315" lon="-0.09858">
        <ele>82</ele>
        <time>2021-05-01T08:58:26.509Z</time>
      </trkpt>
      <trkpt lat="44.8831" lon="-0.09855">
        <ele>84</ele>
        <time>2021-05-01T08:58:35.509Z</time>
      </trkpt>
      <trkpt lat="44.88311" lon="-0.09854">
        <ele>84</ele>
        <time>2021-05-01T08:58:39.509Z</time>
      </trkpt>
      <trkpt lat="44.8831" lon="-0.09854">
        <ele>83</ele>
        <time>2021-05-01T08:58:41.509Z</time>
      </trkpt>
      <trkpt lat="44.88299" lon="-0.0984">
        <ele>83</ele>
        <time>2021-05-01T08:58:52.509Z</time>
      </trkpt>
      <trkpt lat="44.88294" lon="-0.0983">
        <ele>84</ele>
        <time>2021-05-01T08:58:58.509Z</time>
      </trkpt>
      <trkpt lat="44.88293" lon="-0.09818">
        <ele>78</ele>
        <time>2021-05-01T08:59:05.509Z</time>
      </trkpt>
      <trkpt lat="44.88296" lon="-0.09812">
        <ele>77</ele>
        <time>2021-05-01T08:59:09.509Z</time>
      </trkpt>
      <trkpt lat="44.88296" lon="-0.09802">
        <ele>77</ele>
        <time>2021-05-01T08:59:14.509Z</time>
      </trkpt>
      <trkpt lat="44.88297" lon="-0.098">
        <ele>76</ele>
        <time>2021-05-01T08:59:16.509Z</time>
      </trkpt>
      <trkpt lat="44.88298" lon="-0.09795">
        <ele>74</ele>
        <time>2021-05-01T08:59:19.509Z</time>
      </trkpt>
      <trkpt lat="44.883" lon="-0.09786">
        <ele>71</ele>
        <time>2021-05-01T08:59:23.509Z</time>
      </trkpt>
      <trkpt lat="44.88299" lon="-0.09769">
        <ele>69</ele>
        <time>2021-05-01T08:59:30.509Z</time>
      </trkpt>
      <trkpt lat="44.88294" lon="-0.09755">
        <ele>68</ele>
        <time>2021-05-01T08:59:37.509Z</time>
      </trkpt>
      <trkpt lat="44.88287" lon="-0.09745">
        <ele>68</ele>
        <time>2021-05-01T08:59:43.509Z</time>
      </trkpt>
      <trkpt lat="44.88277" lon="-0.09737">
        <ele>63</ele>
        <time>2021-05-01T08:59:52.509Z</time>
      </trkpt>
      <trkpt lat="44.88255" lon="-0.09708">
        <ele>62</ele>
        <time>2021-05-01T09:00:13.508Z</time>
      </trkpt>
      <trkpt lat="44.8824" lon="-0.097">
        <ele>60</ele>
        <time>2021-05-01T09:00:23.509Z</time>
      </trkpt>
      <trkpt lat="44.88226" lon="-0.09687">
        <ele>58</ele>
        <time>2021-05-01T09:00:33.509Z</time>
      </trkpt>
      <trkpt lat="44.88221" lon="-0.09681">
        <ele>56</ele>
        <time>2021-05-01T09:00:37.509Z</time>
      </trkpt>
      <trkpt lat="44.88214" lon="-0.09675">
        <ele>53</ele>
        <time>2021-05-01T09:00:42.509Z</time>
      </trkpt>
      <trkpt lat="44.8821" lon="-0.09669">
        <ele>53</ele>
        <time>2021-05-01T09:00:45.509Z</time>
      </trkpt>
      <trkpt lat="44.88199" lon="-0.09658">
        <ele>46</ele>
        <time>2021-05-01T09:00:55.509Z</time>
      </trkpt>
      <trkpt lat="44.88195" lon="-0.09652">
        <ele>46</ele>
        <time>2021-05-01T09:01:00.509Z</time>
      </trkpt>
      <trkpt lat="44.88192" lon="-0.0965">
        <ele>44</ele>
        <time>2021-05-01T09:01:05.509Z</time>
      </trkpt>
      <trkpt lat="44.88194" lon="-0.09649">
        <ele>42</ele>
        <time>2021-05-01T09:01:08.509Z</time>
      </trkpt>
      <trkpt lat="44.88188" lon="-0.09645">
        <ele>43</ele>
        <time>2021-05-01T09:01:15.509Z</time>
      </trkpt>
      <trkpt lat="44.88187" lon="-0.09643">
        <ele>43</ele>
        <time>2021-05-01T09:01:18.508Z</time>
      </trkpt>
      <trkpt lat="44.88185" lon="-0.09641">
        <ele>39</ele>
        <time>2021-05-01T09:01:24.508Z</time>
      </trkpt>
      <trkpt lat="44.88181" lon="-0.09645">
        <ele>38</ele>
        <time>2021-05-01T09:01:30.509Z</time>
      </trkpt>
      <trkpt lat="44.88173" lon="-0.09641">
        <ele>39</ele>
        <time>2021-05-01T09:01:37.510Z</time>
      </trkpt>
      <trkpt lat="44.88164" lon="-0.09632">
        <ele>40</ele>
        <time>2021-05-01T09:01:43.509Z</time>
      </trkpt>
      <trkpt lat="44.8815" lon="-0.09614">
        <ele>41</ele>
        <time>2021-05-01T09:01:53.509Z</time>
      </trkpt>
      <trkpt lat="44.88133" lon="-0.09595">
        <ele>39</ele>
        <time>2021-05-01T09:02:08.510Z</time>
      </trkpt>
      <trkpt lat="44.88128" lon="-0.09587">
        <ele>40</ele>
        <time>2021-05-01T09:02:13.509Z</time>
      </trkpt>
      <trkpt lat="44.88116" lon="-0.09573">
        <ele>34</ele>
        <time>2021-05-01T09:02:25.510Z</time>
      </trkpt>
      <trkpt lat="44.88111" lon="-0.09569">
        <ele>31</ele>
        <time>2021-05-01T09:02:29.510Z</time>
      </trkpt>
      <trkpt lat="44.88098" lon="-0.0955">
        <ele>27</ele>
        <time>2021-05-01T09:02:42.510Z</time>
      </trkpt>
      <trkpt lat="44.88084" lon="-0.09521">
        <ele>29</ele>
        <time>2021-05-01T09:02:58.509Z</time>
      </trkpt>
      <trkpt lat="44.88066" lon="-0.09493">
        <ele>29</ele>
        <time>2021-05-01T09:03:16.510Z</time>
      </trkpt>
      <trkpt lat="44.88051" lon="-0.09473">
        <ele>29</ele>
        <time>2021-05-01T09:03:30.509Z</time>
      </trkpt>
      <trkpt lat="44.88036" lon="-0.09449">
        <ele>27</ele>
        <time>2021-05-01T09:03:44.509Z</time>
      </trkpt>
      <trkpt lat="44.88023" lon="-0.09422">
        <ele>22</ele>
        <time>2021-05-01T09:04:00.510Z</time>
      </trkpt>
      <trkpt lat="44.88016" lon="-0.09412">
        <ele>23</ele>
        <time>2021-05-01T09:04:07.509Z</time>
      </trkpt>
      <trkpt lat="44.88011" lon="-0.09407">
        <ele>23</ele>
        <time>2021-05-01T09:04:12.509Z</time>
      </trkpt>
      <trkpt lat="44.88007" lon="-0.09409">
        <ele>24</ele>
        <time>2021-05-01T09:04:17.509Z</time>
      </trkpt>
      <trkpt lat="44.87999" lon="-0.09421">
        <ele>28</ele>
        <time>2021-05-01T09:04:27.509Z</time>
      </trkpt>
      <trkpt lat="44.87988" lon="-0.09446">
        <ele>18</ele>
        <time>2021-05-01T09:04:44.510Z</time>
      </trkpt>
      <trkpt lat="44.87988" lon="-0.09449">
        <ele>17</ele>
        <time>2021-05-01T09:04:46.510Z</time>
      </trkpt>
      <trkpt lat="44.87984" lon="-0.09458">
        <ele>16</ele>
        <time>2021-05-01T09:04:52.510Z</time>
      </trkpt>
      <trkpt lat="44.87976" lon="-0.09469">
        <ele>19</ele>
        <time>2021-05-01T09:05:00.510Z</time>
      </trkpt>
      <trkpt lat="44.87954" lon="-0.09521">
        <ele>14</ele>
        <time>2021-05-01T09:05:35.509Z</time>
      </trkpt>
      <trkpt lat="44.87953" lon="-0.09529">
        <ele>15</ele>
        <time>2021-05-01T09:05:40.509Z</time>
      </trkpt>
      <trkpt lat="44.8795" lon="-0.09536">
        <ele>18</ele>
        <time>2021-05-01T09:05:44.509Z</time>
      </trkpt>
      <trkpt lat="44.87949" lon="-0.09545">
        <ele>21</ele>
        <time>2021-05-01T09:05:50.509Z</time>
      </trkpt>
      <trkpt lat="44.87953" lon="-0.0956">
        <ele>19</ele>
        <time>2021-05-01T09:05:59.509Z</time>
      </trkpt>
      <trkpt lat="44.87957" lon="-0.09578">
        <ele>16</ele>
        <time>2021-05-01T09:06:15.509Z</time>
      </trkpt>
      <trkpt lat="44.87956" lon="-0.09592">
        <ele>17</ele>
        <time>2021-05-01T09:06:23.509Z</time>
      </trkpt>
      <trkpt lat="44.87954" lon="-0.09601">
        <ele>18</ele>
        <time>2021-05-01T09:06:27.510Z</time>
      </trkpt>
      <trkpt lat="44.87953" lon="-0.09614">
        <ele>16</ele>
        <time>2021-05-01T09:06:34.509Z</time>
      </trkpt>
      <trkpt lat="44.87955" lon="-0.09629">
        <ele>16</ele>
        <time>2021-05-01T09:06:42.509Z</time>
      </trkpt>
      <trkpt lat="44.87953" lon="-0.09637">
        <ele>15</ele>
        <time>2021-05-01T09:06:45.510Z</time>
      </trkpt>
      <trkpt lat="44.87952" lon="-0.09655">
        <ele>14</ele>
        <time>2021-05-01T09:06:53.510Z</time>
      </trkpt>
      <trkpt lat="44.87953" lon="-0.09665">
        <ele>15</ele>
        <time>2021-05-01T09:06:57.509Z</time>
      </trkpt>
      <trkpt lat="44.87955" lon="-0.09668">
        <ele>15</ele>
        <time>2021-05-01T09:06:58.509Z</time>
      </trkpt>
      <trkpt lat="44.87955" lon="-0.09674">
        <ele>15</ele>
        <time>2021-05-01T09:07:01.509Z</time>
      </trkpt>
      <trkpt lat="44.87954" lon="-0.09679">
        <ele>14</ele>
        <time>2021-05-01T09:07:05.510Z</time>
      </trkpt>
      <trkpt lat="44.87955" lon="-0.0969">
        <ele>13</ele>
        <time>2021-05-01T09:07:11.509Z</time>
      </trkpt>
      <trkpt lat="44.87954" lon="-0.097">
        <ele>14</ele>
        <time>2021-05-01T09:07:16.509Z</time>
      </trkpt>
      <trkpt lat="44.87954" lon="-0.09705">
        <ele>14</ele>
        <time>2021-05-01T09:07:19.510Z</time>
      </trkpt>
      <trkpt lat="44.87952" lon="-0.09711">
        <ele>14</ele>
        <time>2021-05-01T09:07:22.509Z</time>
      </trkpt>
      <trkpt lat="44.87953" lon="-0.09718">
        <ele>14</ele>
        <time>2021-05-01T09:07:25.509Z</time>
      </trkpt>
      <trkpt lat="44.87952" lon="-0.09722">
        <ele>13</ele>
        <time>2021-05-01T09:07:27.510Z</time>
      </trkpt>
      <trkpt lat="44.87951" lon="-0.09734">
        <ele>14</ele>
        <time>2021-05-01T09:07:33.510Z</time>
      </trkpt>
      <trkpt lat="44.87949" lon="-0.09738">
        <ele>15</ele>
        <time>2021-05-01T09:07:36.509Z</time>
      </trkpt>
      <trkpt lat="44.87949" lon="-0.09746">
        <ele>14</ele>
        <time>2021-05-01T09:07:41.509Z</time>
      </trkpt>
      <trkpt lat="44.87951" lon="-0.09755">
        <ele>14</ele>
        <time>2021-05-01T09:07:46.510Z</time>
      </trkpt>
      <trkpt lat="44.87954" lon="-0.09764">
        <ele>15</ele>
        <time>2021-05-01T09:07:51.509Z</time>
      </trkpt>
      <trkpt lat="44.8796" lon="-0.09786">
        <ele>16</ele>
        <time>2021-05-01T09:08:03.509Z</time>
      </trkpt>
      <trkpt lat="44.8796" lon="-0.09791">
        <ele>16</ele>
        <time>2021-05-01T09:08:05.510Z</time>
      </trkpt>
      <trkpt lat="44.87966" lon="-0.09803">
        <ele>17</ele>
        <time>2021-05-01T09:08:12.509Z</time>
      </trkpt>
      <trkpt lat="44.87968" lon="-0.09812">
        <ele>17</ele>
        <time>2021-05-01T09:08:17.509Z</time>
      </trkpt>
      <trkpt lat="44.87971" lon="-0.0982">
        <ele>19</ele>
        <time>2021-05-01T09:08:21.509Z</time>
      </trkpt>
      <trkpt lat="44.87975" lon="-0.09854">
        <ele>20</ele>
        <time>2021-05-01T09:08:38.509Z</time>
      </trkpt>
      <trkpt lat="44.87979" lon="-0.09884">
        <ele>17</ele>
        <time>2021-05-01T09:08:52.510Z</time>
      </trkpt>
      <trkpt lat="44.87979" lon="-0.09887">
        <ele>17</ele>
        <time>2021-05-01T09:08:53.509Z</time>
      </trkpt>
      <trkpt lat="44.87983" lon="-0.09899">
        <ele>17</ele>
        <time>2021-05-01T09:08:59.509Z</time>
      </trkpt>
      <trkpt lat="44.87984" lon="-0.09908">
        <ele>16</ele>
        <time>2021-05-01T09:09:04.509Z</time>
      </trkpt>
      <trkpt lat="44.87983" lon="-0.09914">
        <ele>16</ele>
        <time>2021-05-01T09:09:07.510Z</time>
      </trkpt>
      <trkpt lat="44.87985" lon="-0.09935">
        <ele>16</ele>
        <time>2021-05-01T09:09:17.509Z</time>
      </trkpt>
      <trkpt lat="44.87987" lon="-0.09951">
        <ele>16</ele>
        <time>2021-05-01T09:09:25.509Z</time>
      </trkpt>
      <trkpt lat="44.87986" lon="-0.09957">
        <ele>15</ele>
        <time>2021-05-01T09:09:29.509Z</time>
      </trkpt>
      <trkpt lat="44.87986" lon="-0.09965">
        <ele>15</ele>
        <time>2021-05-01T09:09:33.509Z</time>
      </trkpt>
      <trkpt lat="44.8798" lon="-0.10005">
        <ele>15</ele>
        <time>2021-05-01T09:09:52.509Z</time>
      </trkpt>
      <trkpt lat="44.87971" lon="-0.10036">
        <ele>13</ele>
        <time>2021-05-01T09:10:07.510Z</time>
      </trkpt>
      <trkpt lat="44.87965" lon="-0.1005">
        <ele>14</ele>
        <time>2021-05-01T09:10:14.510Z</time>
      </trkpt>
      <trkpt lat="44.87956" lon="-0.10062">
        <ele>13</ele>
        <time>2021-05-01T09:10:22.510Z</time>
      </trkpt>
      <trkpt lat="44.87947" lon="-0.1007">
        <ele>17</ele>
        <time>2021-05-01T09:10:29.510Z</time>
      </trkpt>
      <trkpt lat="44.87919" lon="-0.10081">
        <ele>21</ele>
        <time>2021-05-01T09:10:48.510Z</time>
      </trkpt>
      <trkpt lat="44.87903" lon="-0.10091">
        <ele>15</ele>
        <time>2021-05-01T09:11:01.509Z</time>
      </trkpt>
      <trkpt lat="44.87896" lon="-0.10094">
        <ele>15</ele>
        <time>2021-05-01T09:11:07.509Z</time>
      </trkpt>
      <trkpt lat="44.87893" lon="-0.10099">
        <ele>16</ele>
        <time>2021-05-01T09:11:10.509Z</time>
      </trkpt>
      <trkpt lat="44.8789" lon="-0.10102">
        <ele>16</ele>
        <time>2021-05-01T09:11:12.510Z</time>
      </trkpt>
      <trkpt lat="44.87885" lon="-0.10109">
        <ele>15</ele>
        <time>2021-05-01T09:11:17.509Z</time>
      </trkpt>
      <trkpt lat="44.87882" lon="-0.1012">
        <ele>14</ele>
        <time>2021-05-01T09:11:23.510Z</time>
      </trkpt>
      <trkpt lat="44.87879" lon="-0.10126">
        <ele>14</ele>
        <time>2021-05-01T09:11:26.509Z</time>
      </trkpt>
      <trkpt lat="44.87866" lon="-0.10168">
        <ele>13</ele>
        <time>2021-05-01T09:11:48.510Z</time>
      </trkpt>
      <trkpt lat="44.87853" lon="-0.10227">
        <ele>9</ele>
        <time>2021-05-01T09:12:18.510Z</time>
      </trkpt>
      <trkpt lat="44.87844" lon="-0.10251">
        <ele>11</ele>
        <time>2021-05-01T09:12:32.510Z</time>
      </trkpt>
      <trkpt lat="44.8784" lon="-0.10256">
        <ele>11</ele>
        <time>2021-05-01T09:12:35.509Z</time>
      </trkpt>
      <trkpt lat="44.87835" lon="-0.1026">
        <ele>12</ele>
        <time>2021-05-01T09:12:39.509Z</time>
      </trkpt>
      <trkpt lat="44.87823" lon="-0.10265">
        <ele>13</ele>
        <time>2021-05-01T09:12:47.509Z</time>
      </trkpt>
      <trkpt lat="44.87816" lon="-0.10265">
        <ele>13</ele>
        <time>2021-05-01T09:12:52.509Z</time>
      </trkpt>
      <trkpt lat="44.87811" lon="-0.10267">
        <ele>13</ele>
        <time>2021-05-01T09:12:56.509Z</time>
      </trkpt>
      <trkpt lat="44.87794" lon="-0.10264">
        <ele>16</ele>
        <time>2021-05-01T09:13:08.509Z</time>
      </trkpt>
      <trkpt lat="44.87768" lon="-0.10264">
        <ele>19</ele>
        <time>2021-05-01T09:13:24.509Z</time>
      </trkpt>
      <trkpt lat="44.8773" lon="-0.10267">
        <ele>11</ele>
        <time>2021-05-01T09:13:49.509Z</time>
      </trkpt>
      <trkpt lat="44.87723" lon="-0.10266">
        <ele>12</ele>
        <time>2021-05-01T09:13:53.509Z</time>
      </trkpt>
      <trkpt lat="44.87718" lon="-0.10267">
        <ele>12</ele>
        <time>2021-05-01T09:13:57.509Z</time>
      </trkpt>
      <trkpt lat="44.87706" lon="-0.10267">
        <ele>14</ele>
        <time>2021-05-01T09:14:06.509Z</time>
      </trkpt>
      <trkpt lat="44.87703" lon="-0.10269">
        <ele>12</ele>
        <time>2021-05-01T09:14:12.510Z</time>
      </trkpt>
      <trkpt lat="44.877" lon="-0.10269">
        <ele>11</ele>
        <time>2021-05-01T09:14:16.509Z</time>
      </trkpt>
      <trkpt lat="44.87694" lon="-0.10266">
        <ele>11</ele>
        <time>2021-05-01T09:14:22.509Z</time>
      </trkpt>
      <trkpt lat="44.87695" lon="-0.10264">
        <ele>11</ele>
        <time>2021-05-01T09:14:25.509Z</time>
      </trkpt>
      <trkpt lat="44.87694" lon="-0.10253">
        <ele>11</ele>
        <time>2021-05-01T09:14:32.509Z</time>
      </trkpt>
      <trkpt lat="44.87694" lon="-0.10247">
        <ele>11</ele>
        <time>2021-05-01T09:14:35.509Z</time>
      </trkpt>
      <trkpt lat="44.87691" lon="-0.1024">
        <ele>12</ele>
        <time>2021-05-01T09:14:38.509Z</time>
      </trkpt>
      <trkpt lat="44.87683" lon="-0.1021">
        <ele>15</ele>
        <time>2021-05-01T09:14:52.510Z</time>
      </trkpt>
      <trkpt lat="44.87674" lon="-0.10163">
        <ele>12</ele>
        <time>2021-05-01T09:15:16.509Z</time>
      </trkpt>
      <trkpt lat="44.87674" lon="-0.10148">
        <ele>12</ele>
        <time>2021-05-01T09:15:23.509Z</time>
      </trkpt>
      <trkpt lat="44.8767" lon="-0.10125">
        <ele>13</ele>
        <time>2021-05-01T09:15:34.510Z</time>
      </trkpt>
      <trkpt lat="44.87667" lon="-0.10119">
        <ele>12</ele>
        <time>2021-05-01T09:15:37.510Z</time>
      </trkpt>
      <trkpt lat="44.87659" lon="-0.10081">
        <ele>7</ele>
        <time>2021-05-01T09:15:56.510Z</time>
      </trkpt>
      <trkpt lat="44.87653" lon="-0.10046">
        <ele>6</ele>
        <time>2021-05-01T09:16:13.510Z</time>
      </trkpt>
      <trkpt lat="44.87648" lon="-0.1003">
        <ele>4</ele>
        <time>2021-05-01T09:16:21.509Z</time>
      </trkpt>
      <trkpt lat="44.8764" lon="-0.10001">
        <ele>8</ele>
        <time>2021-05-01T09:16:36.510Z</time>
      </trkpt>
      <trkpt lat="44.87636" lon="-0.09987">
        <ele>8</ele>
        <time>2021-05-01T09:16:46.509Z</time>
      </trkpt>
      <trkpt lat="44.87637" lon="-0.09987">
        <ele>8</ele>
        <time>2021-05-01T09:16:48.509Z</time>
      </trkpt>
      <trkpt lat="44.87639" lon="-0.09981">
        <ele>9</ele>
        <time>2021-05-01T09:16:54.509Z</time>
      </trkpt>
      <trkpt lat="44.87637" lon="-0.09979">
        <ele>9</ele>
        <time>2021-05-01T09:16:57.509Z</time>
      </trkpt>
      <trkpt lat="44.8763" lon="-0.09595">
        <ele>11</ele>
        <time>2021-05-01T09:17:04.511Z</time>
      </trkpt>
      <trkpt lat="44.87631" lon="-0.09581">
        <ele>11</ele>
        <time>2021-05-01T09:17:17.511Z</time>
      </trkpt>
      <trkpt lat="44.8763" lon="-0.09543">
        <ele>14</ele>
        <time>2021-05-01T09:17:36.510Z</time>
      </trkpt>
      <trkpt lat="44.87631" lon="-0.09538">
        <ele>14</ele>
        <time>2021-05-01T09:17:38.511Z</time>
      </trkpt>
      <trkpt lat="44.87629" lon="-0.09517">
        <ele>13</ele>
        <time>2021-05-01T09:17:48.511Z</time>
      </trkpt>
      <trkpt lat="44.8763" lon="-0.09508">
        <ele>12</ele>
        <time>2021-05-01T09:17:52.510Z</time>
      </trkpt>
      <trkpt lat="44.87631" lon="-0.09485">
        <ele>12</ele>
        <time>2021-05-01T09:18:03.511Z</time>
      </trkpt>
      <trkpt lat="44.8763" lon="-0.09481">
        <ele>12</ele>
        <time>2021-05-01T09:18:05.510Z</time>
      </trkpt>
      <trkpt lat="44.8763" lon="-0.09469">
        <ele>13</ele>
        <time>2021-05-01T09:18:11.511Z</time>
      </trkpt>
      <trkpt lat="44.87629" lon="-0.09445">
        <ele>11</ele>
        <time>2021-05-01T09:18:22.511Z</time>
      </trkpt>
      <trkpt lat="44.87626" lon="-0.09435">
        <ele>13</ele>
        <time>2021-05-01T09:18:27.511Z</time>
      </trkpt>
      <trkpt lat="44.87627" lon="-0.09422">
        <ele>13</ele>
        <time>2021-05-01T09:18:33.511Z</time>
      </trkpt>
      <trkpt lat="44.87628" lon="-0.09412">
        <ele>14</ele>
        <time>2021-05-01T09:18:38.511Z</time>
      </trkpt>
      <trkpt lat="44.87628" lon="-0.09387">
        <ele>14</ele>
        <time>2021-05-01T09:18:52.511Z</time>
      </trkpt>
      <trkpt lat="44.87625" lon="-0.09361">
        <ele>12</ele>
        <time>2021-05-01T09:19:06.511Z</time>
      </trkpt>
      <trkpt lat="44.87625" lon="-0.0935">
        <ele>12</ele>
        <time>2021-05-01T09:19:11.510Z</time>
      </trkpt>
      <trkpt lat="44.87621" lon="-0.09331">
        <ele>10</ele>
        <time>2021-05-01T09:19:20.511Z</time>
      </trkpt>
      <trkpt lat="44.87621" lon="-0.09322">
        <ele>9</ele>
        <time>2021-05-01T09:19:24.510Z</time>
      </trkpt>
      <trkpt lat="44.87616" lon="-0.09303">
        <ele>12</ele>
        <time>2021-05-01T09:19:33.511Z</time>
      </trkpt>
      <trkpt lat="44.87616" lon="-0.09299">
        <ele>11</ele>
        <time>2021-05-01T09:19:36.511Z</time>
      </trkpt>
      <trkpt lat="44.87613" lon="-0.09288">
        <ele>10</ele>
        <time>2021-05-01T09:19:41.511Z</time>
      </trkpt>
      <trkpt lat="44.87613" lon="-0.09271">
        <ele>12</ele>
        <time>2021-05-01T09:19:49.511Z</time>
      </trkpt>
      <trkpt lat="44.87613" lon="-0.09267">
        <ele>12</ele>
        <time>2021-05-01T09:19:52.510Z</time>
      </trkpt>
      <trkpt lat="44.87611" lon="-0.09267">
        <ele>12</ele>
        <time>2021-05-01T09:19:54.511Z</time>
      </trkpt>
      <trkpt lat="44.8761" lon="-0.09259">
        <ele>13</ele>
        <time>2021-05-01T09:20:01.511Z</time>
      </trkpt>
      <trkpt lat="44.87607" lon="-0.09252">
        <ele>15</ele>
        <time>2021-05-01T09:20:06.511Z</time>
      </trkpt>
      <trkpt lat="44.87606" lon="-0.0925">
        <ele>15</ele>
        <time>2021-05-01T09:20:08.511Z</time>
      </trkpt>
      <trkpt lat="44.87598" lon="-0.09219">
        <ele>15</ele>
        <time>2021-05-01T09:20:25.511Z</time>
      </trkpt>
      <trkpt lat="44.87596" lon="-0.09203">
        <ele>16</ele>
        <time>2021-05-01T09:20:32.511Z</time>
      </trkpt>
      <trkpt lat="44.87597" lon="-0.09199">
        <ele>16</ele>
        <time>2021-05-01T09:20:34.510Z</time>
      </trkpt>
      <trkpt lat="44.87594" lon="-0.09166">
        <ele>15</ele>
        <time>2021-05-01T09:20:53.511Z</time>
      </trkpt>
      <trkpt lat="44.87592" lon="-0.09152">
        <ele>14</ele>
        <time>2021-05-01T09:21:01.510Z</time>
      </trkpt>
      <trkpt lat="44.87591" lon="-0.09134">
        <ele>13</ele>
        <time>2021-05-01T09:21:10.511Z</time>
      </trkpt>
      <trkpt lat="44.87589" lon="-0.09119">
        <ele>13</ele>
        <time>2021-05-01T09:21:18.511Z</time>
      </trkpt>
      <trkpt lat="44.8759" lon="-0.09105">
        <ele>14</ele>
        <time>2021-05-01T09:21:24.511Z</time>
      </trkpt>
      <trkpt lat="44.87588" lon="-0.09088">
        <ele>15</ele>
        <time>2021-05-01T09:21:33.511Z</time>
      </trkpt>
      <trkpt lat="44.87589" lon="-0.09077">
        <ele>14</ele>
        <time>2021-05-01T09:21:39.511Z</time>
      </trkpt>
      <trkpt lat="44.87589" lon="-0.09054">
        <ele>15</ele>
        <time>2021-05-01T09:21:50.511Z</time>
      </trkpt>
      <trkpt lat="44.87589" lon="-0.09045">
        <ele>14</ele>
        <time>2021-05-01T09:21:55.510Z</time>
      </trkpt>
      <trkpt lat="44.87594" lon="-0.0904">
        <ele>15</ele>
        <time>2021-05-01T09:21:59.511Z</time>
      </trkpt>
      <trkpt lat="44.87597" lon="-0.09037">
        <ele>16</ele>
        <time>2021-05-01T09:22:03.511Z</time>
      </trkpt>
      <trkpt lat="44.87603" lon="-0.09036">
        <ele>16</ele>
        <time>2021-05-01T09:22:07.511Z</time>
      </trkpt>
      <trkpt lat="44.87627" lon="-0.09025">
        <ele>15</ele>
        <time>2021-05-01T09:22:24.511Z</time>
      </trkpt>
      <trkpt lat="44.8764" lon="-0.09021">
        <ele>16</ele>
        <time>2021-05-01T09:22:33.511Z</time>
      </trkpt>
      <trkpt lat="44.87649" lon="-0.09015">
        <ele>14</ele>
        <time>2021-05-01T09:22:40.511Z</time>
      </trkpt>
      <trkpt lat="44.87656" lon="-0.09012">
        <ele>15</ele>
        <time>2021-05-01T09:22:45.510Z</time>
      </trkpt>
      <trkpt lat="44.87662" lon="-0.09012">
        <ele>17</ele>
        <time>2021-05-01T09:22:50.510Z</time>
      </trkpt>
      <trkpt lat="44.87676" lon="-0.09007">
        <ele>20</ele>
        <time>2021-05-01T09:23:00.511Z</time>
      </trkpt>
      <trkpt lat="44.87679" lon="-0.09004">
        <ele>20</ele>
        <time>2021-05-01T09:23:04.511Z</time>
      </trkpt>
      <trkpt lat="44.87683" lon="-0.09003">
        <ele>20</ele>
        <time>2021-05-01T09:23:06.511Z</time>
      </trkpt>
      <trkpt lat="44.87689" lon="-0.08998">
        <ele>20</ele>
        <time>2021-05-01T09:23:12.511Z</time>
      </trkpt>
      <trkpt lat="44.87691" lon="-0.08998">
        <ele>20</ele>
        <time>2021-05-01T09:23:16.510Z</time>
      </trkpt>
      <trkpt lat="44.8771" lon="-0.09021">
        <ele>25</ele>
        <time>2021-05-01T09:23:34.511Z</time>
      </trkpt>
      <trkpt lat="44.87718" lon="-0.0904">
        <ele>24</ele>
        <time>2021-05-01T09:23:44.510Z</time>
      </trkpt>
      <trkpt lat="44.87722" lon="-0.09044">
        <ele>22</ele>
        <time>2021-05-01T09:23:48.511Z</time>
      </trkpt>
      <trkpt lat="44.87725" lon="-0.09042">
        <ele>21</ele>
        <time>2021-05-01T09:23:51.511Z</time>
      </trkpt>
      <trkpt lat="44.8773" lon="-0.09038">
        <ele>20</ele>
        <time>2021-05-01T09:23:55.511Z</time>
      </trkpt>
      <trkpt lat="44.87734" lon="-0.09036">
        <ele>20</ele>
        <time>2021-05-01T09:23:58.511Z</time>
      </trkpt>
      <trkpt lat="44.87741" lon="-0.09028">
        <ele>24</ele>
        <time>2021-05-01T09:24:05.510Z</time>
      </trkpt>
      <trkpt lat="44.87744" lon="-0.09024">
        <ele>24</ele>
        <time>2021-05-01T09:24:08.510Z</time>
      </trkpt>
      <trkpt lat="44.8776" lon="-0.09003">
        <ele>22</ele>
        <time>2021-05-01T09:24:24.511Z</time>
      </trkpt>
      <trkpt lat="44.87767" lon="-0.08996">
        <ele>23</ele>
        <time>2021-05-01T09:24:30.511Z</time>
      </trkpt>
      <trkpt lat="44.87774" lon="-0.08986">
        <ele>24</ele>
        <time>2021-05-01T09:24:37.510Z</time>
      </trkpt>
      <trkpt lat="44.87784" lon="-0.08975">
        <ele>24</ele>
        <time>2021-05-01T09:24:45.510Z</time>
      </trkpt>
      <trkpt lat="44.87785" lon="-0.0897">
        <ele>24</ele>
        <time>2021-05-01T09:24:48.510Z</time>
      </trkpt>
      <trkpt lat="44.87797" lon="-0.0896">
        <ele>21</ele>
        <time>2021-05-01T09:24:57.511Z</time>
      </trkpt>
      <trkpt lat="44.87805" lon="-0.0895">
        <ele>22</ele>
        <time>2021-05-01T09:25:06.510Z</time>
      </trkpt>
      <trkpt lat="44.87806" lon="-0.08946">
        <ele>21</ele>
        <time>2021-05-01T09:25:08.511Z</time>
      </trkpt>
      <trkpt lat="44.87817" lon="-0.08936">
        <ele>20</ele>
        <time>2021-05-01T09:25:18.511Z</time>
      </trkpt>
      <trkpt lat="44.87825" lon="-0.08927">
        <ele>26</ele>
        <time>2021-05-01T09:25:26.511Z</time>
      </trkpt>
      <trkpt lat="44.87827" lon="-0.08922">
        <ele>28</ele>
        <time>2021-05-01T09:25:29.511Z</time>
      </trkpt>
      <trkpt lat="44.87826" lon="-0.08913">
        <ele>29</ele>
        <time>2021-05-01T09:25:34.511Z</time>
      </trkpt>
      <trkpt lat="44.87831" lon="-0.08907">
        <ele>28</ele>
        <time>2021-05-01T09:25:38.511Z</time>
      </trkpt>
      <trkpt lat="44.87834" lon="-0.089">
        <ele>27</ele>
        <time>2021-05-01T09:25:42.511Z</time>
      </trkpt>
      <trkpt lat="44.87838" lon="-0.08895">
        <ele>29</ele>
        <time>2021-05-01T09:25:46.511Z</time>
      </trkpt>
      <trkpt lat="44.8784" lon="-0.08888">
        <ele>29</ele>
        <time>2021-05-01T09:25:50.510Z</time>
      </trkpt>
      <trkpt lat="44.87843" lon="-0.08882">
        <ele>31</ele>
        <time>2021-05-01T09:25:55.511Z</time>
      </trkpt>
      <trkpt lat="44.87843" lon="-0.08879">
        <ele>31</ele>
        <time>2021-05-01T09:25:57.511Z</time>
      </trkpt>
      <trkpt lat="44.87844" lon="-0.08874">
        <ele>32</ele>
        <time>2021-05-01T09:26:02.511Z</time>
      </trkpt>
      <trkpt lat="44.87846" lon="-0.08872">
        <ele>34</ele>
        <time>2021-05-01T09:26:05.510Z</time>
      </trkpt>
      <trkpt lat="44.87848" lon="-0.08867">
        <ele>34</ele>
        <time>2021-05-01T09:26:08.511Z</time>
      </trkpt>
      <trkpt lat="44.87854" lon="-0.08859">
        <ele>35</ele>
        <time>2021-05-01T09:26:18.511Z</time>
      </trkpt>
      <trkpt lat="44.87865" lon="-0.08837">
        <ele>33</ele>
        <time>2021-05-01T09:26:35.510Z</time>
      </trkpt>
      <trkpt lat="44.87868" lon="-0.08834">
        <ele>34</ele>
        <time>2021-05-01T09:26:38.510Z</time>
      </trkpt>
      <trkpt lat="44.87871" lon="-0.08826">
        <ele>33</ele>
        <time>2021-05-01T09:26:43.511Z</time>
      </trkpt>
      <trkpt lat="44.87882" lon="-0.0881">
        <ele>35</ele>
        <time>2021-05-01T09:26:55.511Z</time>
      </trkpt>
      <trkpt lat="44.879" lon="-0.0878">
        <ele>40</ele>
        <time>2021-05-01T09:27:18.511Z</time>
      </trkpt>
      <trkpt lat="44.879" lon="-0.08778">
        <ele>40</ele>
        <time>2021-05-01T09:27:19.511Z</time>
      </trkpt>
      <trkpt lat="44.87909" lon="-0.08759">
        <ele>36</ele>
        <time>2021-05-01T09:27:32.511Z</time>
      </trkpt>
      <trkpt lat="44.87913" lon="-0.08753">
        <ele>38</ele>
        <time>2021-05-01T09:27:38.511Z</time>
      </trkpt>
      <trkpt lat="44.8792" lon="-0.0874">
        <ele>40</ele>
        <time>2021-05-01T09:27:49.511Z</time>
      </trkpt>
      <trkpt lat="44.87926" lon="-0.08735">
        <ele>42</ele>
        <time>2021-05-01T09:27:57.511Z</time>
      </trkpt>
      <trkpt lat="44.87938" lon="-0.0873">
        <ele>45</ele>
        <time>2021-05-01T09:28:12.510Z</time>
      </trkpt>
      <trkpt lat="44.87944" lon="-0.08729">
        <ele>45</ele>
        <time>2021-05-01T09:28:21.511Z</time>
      </trkpt>
      <trkpt lat="44.87955" lon="-0.08721">
        <ele>43</ele>
        <time>2021-05-01T09:28:31.511Z</time>
      </trkpt>
      <trkpt lat="44.87962" lon="-0.08718">
        <ele>45</ele>
        <time>2021-05-01T09:28:36.511Z</time>
      </trkpt>
      <trkpt lat="44.8797" lon="-0.08713">
        <ele>47</ele>
        <time>2021-05-01T09:28:44.510Z</time>
      </trkpt>
      <trkpt lat="44.87981" lon="-0.08709">
        <ele>47</ele>
        <time>2021-05-01T09:28:53.511Z</time>
      </trkpt>
      <trkpt lat="44.87984" lon="-0.08706">
        <ele>48</ele>
        <time>2021-05-01T09:29:02.510Z</time>
      </trkpt>
      <trkpt lat="44.87987" lon="-0.08705">
        <ele>49</ele>
        <time>2021-05-01T09:29:07.511Z</time>
      </trkpt>
      <trkpt lat="44.87986" lon="-0.08702">
        <ele>48</ele>
        <time>2021-05-01T09:29:11.511Z</time>
      </trkpt>
      <trkpt lat="44.87992" lon="-0.08704">
        <ele>49</ele>
        <time>2021-05-01T09:29:16.510Z</time>
      </trkpt>
      <trkpt lat="44.87996" lon="-0.08701">
        <ele>44</ele>
        <time>2021-05-01T09:29:24.511Z</time>
      </trkpt>
      <trkpt lat="44.88001" lon="-0.08701">
        <ele>43</ele>
        <time>2021-05-01T09:29:32.511Z</time>
      </trkpt>
      <trkpt lat="44.88016" lon="-0.08705">
        <ele>47</ele>
        <time>2021-05-01T09:29:45.511Z</time>
      </trkpt>
      <trkpt lat="44.88018" lon="-0.08707">
        <ele>47</ele>
        <time>2021-05-01T09:29:47.511Z</time>
      </trkpt>
      <trkpt lat="44.88051" lon="-0.0872">
        <ele>55</ele>
        <time>2021-05-01T09:30:16.511Z</time>
      </trkpt>
      <trkpt lat="44.88065" lon="-0.08718">
        <ele>53</ele>
        <time>2021-05-01T09:30:28.511Z</time>
      </trkpt>
      <trkpt lat="44.88067" lon="-0.08716">
        <ele>52</ele>
        <time>2021-05-01T09:30:31.511Z</time>
      </trkpt>
      <trkpt lat="44.8807" lon="-0.08715">
        <ele>54</ele>
        <time>2021-05-01T09:30:34.511Z</time>
      </trkpt>
      <trkpt lat="44.88073" lon="-0.0871">
        <ele>56</ele>
        <time>2021-05-01T09:30:40.511Z</time>
      </trkpt>
      <trkpt lat="44.88083" lon="-0.08704">
        <ele>55</ele>
        <time>2021-05-01T09:30:51.511Z</time>
      </trkpt>
      <trkpt lat="44.88083" lon="-0.08703">
        <ele>55</ele>
        <time>2021-05-01T09:30:55.511Z</time>
      </trkpt>
      <trkpt lat="44.88085" lon="-0.08704">
        <ele>55</ele>
        <time>2021-05-01T09:30:59.510Z</time>
      </trkpt>
      <trkpt lat="44.88091" lon="-0.08701">
        <ele>54</ele>
        <time>2021-05-01T09:31:06.511Z</time>
      </trkpt>
      <trkpt lat="44.88097" lon="-0.08703">
        <ele>56</ele>
        <time>2021-05-01T09:31:11.510Z</time>
      </trkpt>
      <trkpt lat="44.88106" lon="-0.08699">
        <ele>51</ele>
        <time>2021-05-01T09:31:19.511Z</time>
      </trkpt>
      <trkpt lat="44.88115" lon="-0.08694">
        <ele>52</ele>
        <time>2021-05-01T09:31:28.511Z</time>
      </trkpt>
      <trkpt lat="44.88119" lon="-0.08696">
        <ele>52</ele>
        <time>2021-05-01T09:31:35.511Z</time>
      </trkpt>
      <trkpt lat="44.88126" lon="-0.08694">
        <ele>51</ele>
        <time>2021-05-01T09:31:44.511Z</time>
      </trkpt>
      <trkpt lat="44.8813" lon="-0.08691">
        <ele>52</ele>
        <time>2021-05-01T09:31:48.511Z</time>
      </trkpt>
      <trkpt lat="44.88132" lon="-0.08683">
        <ele>56</ele>
        <time>2021-05-01T09:31:55.511Z</time>
      </trkpt>
      <trkpt lat="44.8813" lon="-0.08682">
        <ele>57</ele>
        <time>2021-05-01T09:31:58.511Z</time>
      </trkpt>
      <trkpt lat="44.88129" lon="-0.08665">
        <ele>56</ele>
        <time>2021-05-01T09:32:09.510Z</time>
      </trkpt>
      <trkpt lat="44.88121" lon="-0.08637">
        <ele>52</ele>
        <time>2021-05-01T09:32:33.511Z</time>
      </trkpt>
      <trkpt lat="44.88116" lon="-0.08613">
        <ele>50</ele>
        <time>2021-05-01T09:32:45.511Z</time>
      </trkpt>
      <trkpt lat="44.88115" lon="-0.08597">
        <ele>47</ele>
        <time>2021-05-01T09:32:54.511Z</time>
      </trkpt>
      <trkpt lat="44.88106" lon="-0.08553">
        <ele>44</ele>
        <time>2021-05-01T09:33:20.511Z</time>
      </trkpt>
      <trkpt lat="44.88103" lon="-0.0855">
        <ele>44</ele>
        <time>2021-05-01T09:33:22.510Z</time>
      </trkpt>
      <trkpt lat="44.88096" lon="-0.08525">
        <ele>40</ele>
        <time>2021-05-01T09:33:36.511Z</time>
      </trkpt>
      <trkpt lat="44.88089" lon="-0.08497">
        <ele>39</ele>
        <time>2021-05-01T09:33:51.511Z</time>
      </trkpt>
      <trkpt lat="44.88085" lon="-0.08476">
        <ele>39</ele>
        <time>2021-05-01T09:34:03.510Z</time>
      </trkpt>
      <trkpt lat="44.88081" lon="-0.08463">
        <ele>37</ele>
        <time>2021-05-01T09:34:11.511Z</time>
      </trkpt>
      <trkpt lat="44.88083" lon="-0.08459">
        <ele>37</ele>
        <time>2021-05-01T09:34:14.511Z</time>
      </trkpt>
      <trkpt lat="44.88093" lon="-0.08448">
        <ele>37</ele>
        <time>2021-05-01T09:34:22.510Z</time>
      </trkpt>
      <trkpt lat="44.88103" lon="-0.08433">
        <ele>39</ele>
        <time>2021-05-01T09:34:33.511Z</time>
      </trkpt>
      <trkpt lat="44.88111" lon="-0.08409">
        <ele>38</ele>
        <time>2021-05-01T09:34:49.511Z</time>
      </trkpt>
      <trkpt lat="44.88112" lon="-0.084">
        <ele>38</ele>
        <time>2021-05-01T09:34:54.510Z</time>
      </trkpt>
      <trkpt lat="44.88117" lon="-0.08379">
        <ele>39</ele>
        <time>2021-05-01T09:35:05.510Z</time>
      </trkpt>
      <trkpt lat="44.8812" lon="-0.08362">
        <ele>38</ele>
        <time>2021-05-01T09:35:15.511Z</time>
      </trkpt>
      <trkpt lat="44.88123" lon="-0.08352">
        <ele>38</ele>
        <time>2021-05-01T09:35:21.511Z</time>
      </trkpt>
      <trkpt lat="44.88126" lon="-0.08333">
        <ele>42</ele>
        <time>2021-05-01T09:35:34.511Z</time>
      </trkpt>
      <trkpt lat="44.88129" lon="-0.08322">
        <ele>41</ele>
        <time>2021-05-01T09:35:41.510Z</time>
      </trkpt>
      <trkpt lat="44.88129" lon="-0.08319">
        <ele>41</ele>
        <time>2021-05-01T09:35:43.510Z</time>
      </trkpt>
      <trkpt lat="44.88132" lon="-0.08313">
        <ele>41</ele>
        <time>2021-05-01T09:35:47.511Z</time>
      </trkpt>
      <trkpt lat="44.8814" lon="-0.08302">
        <ele>43</ele>
        <time>2021-05-01T09:35:56.511Z</time>
      </trkpt>
      <trkpt lat="44.88142" lon="-0.08297">
        <ele>42</ele>
        <time>2021-05-01T09:36:00.511Z</time>
      </trkpt>
      <trkpt lat="44.88152" lon="-0.08285">
        <ele>45</ele>
        <time>2021-05-01T09:36:09.511Z</time>
      </trkpt>
      <trkpt lat="44.88155" lon="-0.08284">
        <ele>46</ele>
        <time>2021-05-01T09:36:11.511Z</time>
      </trkpt>
      <trkpt lat="44.88162" lon="-0.08274">
        <ele>48</ele>
        <time>2021-05-01T09:36:21.510Z</time>
      </trkpt>
      <trkpt lat="44.8817" lon="-0.08268">
        <ele>49</ele>
        <time>2021-05-01T09:36:27.510Z</time>
      </trkpt>
      <trkpt lat="44.88176" lon="-0.0826">
        <ele>49</ele>
        <time>2021-05-01T09:36:33.511Z</time>
      </trkpt>
      <trkpt lat="44.88181" lon="-0.08249">
        <ele>48</ele>
        <time>2021-05-01T09:36:41.511Z</time>
      </trkpt>
      <trkpt lat="44.88183" lon="-0.08247">
        <ele>48</ele>
        <time>2021-05-01T09:36:43.511Z</time>
      </trkpt>
      <trkpt lat="44.88196" lon="-0.08222">
        <ele>53</ele>
        <time>2021-05-01T09:36:58.511Z</time>
      </trkpt>
      <trkpt lat="44.88198" lon="-0.08215">
        <ele>52</ele>
        <time>2021-05-01T09:37:03.511Z</time>
      </trkpt>
      <trkpt lat="44.88209" lon="-0.08192">
        <ele>51</ele>
        <time>2021-05-01T09:37:19.511Z</time>
      </trkpt>
      <trkpt lat="44.88214" lon="-0.08177">
        <ele>47</ele>
        <time>2021-05-01T09:37:29.511Z</time>
      </trkpt>
      <trkpt lat="44.88217" lon="-0.08172">
        <ele>47</ele>
        <time>2021-05-01T09:37:32.510Z</time>
      </trkpt>
      <trkpt lat="44.88225" lon="-0.08151">
        <ele>49</ele>
        <time>2021-05-01T09:37:44.511Z</time>
      </trkpt>
      <trkpt lat="44.88229" lon="-0.08135">
        <ele>51</ele>
        <time>2021-05-01T09:37:53.511Z</time>
      </trkpt>
      <trkpt lat="44.88236" lon="-0.08119">
        <ele>45</ele>
        <time>2021-05-01T09:38:04.511Z</time>
      </trkpt>
      <trkpt lat="44.88238" lon="-0.08107">
        <ele>47</ele>
        <time>2021-05-01T09:38:12.511Z</time>
      </trkpt>
      <trkpt lat="44.88237" lon="-0.08107">
        <ele>49</ele>
        <time>2021-05-01T09:38:15.511Z</time>
      </trkpt>
      <trkpt lat="44.88239" lon="-0.08103">
        <ele>47</ele>
        <time>2021-05-01T09:38:19.512Z</time>
      </trkpt>
      <trkpt lat="44.88226" lon="-0.08091">
        <ele>47</ele>
        <time>2021-05-01T09:38:33.512Z</time>
      </trkpt>
      <trkpt lat="44.88224" lon="-0.08087">
        <ele>47</ele>
        <time>2021-05-01T09:38:35.511Z</time>
      </trkpt>
      <trkpt lat="44.88219" lon="-0.08083">
        <ele>46</ele>
        <time>2021-05-01T09:38:39.512Z</time>
      </trkpt>
      <trkpt lat="44.88204" lon="-0.08075">
        <ele>46</ele>
        <time>2021-05-01T09:38:50.512Z</time>
      </trkpt>
      <trkpt lat="44.882" lon="-0.08074">
        <ele>46</ele>
        <time>2021-05-01T09:38:53.512Z</time>
      </trkpt>
      <trkpt lat="44.88191" lon="-0.08074">
        <ele>46</ele>
        <time>2021-05-01T09:39:01.511Z</time>
      </trkpt>
      <trkpt lat="44.88179" lon="-0.08069">
        <ele>46</ele>
        <time>2021-05-01T09:39:09.512Z</time>
      </trkpt>
      <trkpt lat="44.88167" lon="-0.08061">
        <ele>47</ele>
        <time>2021-05-01T09:39:17.512Z</time>
      </trkpt>
      <trkpt lat="44.88154" lon="-0.08057">
        <ele>47</ele>
        <time>2021-05-01T09:39:25.512Z</time>
      </trkpt>
      <trkpt lat="44.88141" lon="-0.08055">
        <ele>44</ele>
        <time>2021-05-01T09:39:34.512Z</time>
      </trkpt>
      <trkpt lat="44.88136" lon="-0.08057">
        <ele>42</ele>
        <time>2021-05-01T09:39:38.512Z</time>
      </trkpt>
      <trkpt lat="44.88119" lon="-0.08058">
        <ele>42</ele>
        <time>2021-05-01T09:39:50.512Z</time>
      </trkpt>
      <trkpt lat="44.881" lon="-0.08057">
        <ele>41</ele>
        <time>2021-05-01T09:40:02.512Z</time>
      </trkpt>
      <trkpt lat="44.88092" lon="-0.08058">
        <ele>38</ele>
        <time>2021-05-01T09:40:08.512Z</time>
      </trkpt>
      <trkpt lat="44.88077" lon="-0.08053">
        <ele>37</ele>
        <time>2021-05-01T09:40:17.512Z</time>
      </trkpt>
      <trkpt lat="44.8807" lon="-0.08053">
        <ele>37</ele>
        <time>2021-05-01T09:40:22.512Z</time>
      </trkpt>
      <trkpt lat="44.88056" lon="-0.08049">
        <ele>37</ele>
        <time>2021-05-01T09:40:31.512Z</time>
      </trkpt>
      <trkpt lat="44.88028" lon="-0.08036">
        <ele>39</ele>
        <time>2021-05-01T09:40:50.512Z</time>
      </trkpt>
      <trkpt lat="44.88025" lon="-0.08033">
        <ele>38</ele>
        <time>2021-05-01T09:40:54.511Z</time>
      </trkpt>
      <trkpt lat="44.88024" lon="-0.08028">
        <ele>39</ele>
        <time>2021-05-01T09:40:57.512Z</time>
      </trkpt>
      <trkpt lat="44.88025" lon="-0.08024">
        <ele>38</ele>
        <time>2021-05-01T09:40:59.512Z</time>
      </trkpt>
      <trkpt lat="44.88024" lon="-0.0802">
        <ele>38</ele>
        <time>2021-05-01T09:41:01.512Z</time>
      </trkpt>
      <trkpt lat="44.88025" lon="-0.08016">
        <ele>38</ele>
        <time>2021-05-01T09:41:03.512Z</time>
      </trkpt>
      <trkpt lat="44.88028" lon="-0.08009">
        <ele>40</ele>
        <time>2021-05-01T09:41:08.511Z</time>
      </trkpt>
      <trkpt lat="44.88028" lon="-0.08007">
        <ele>40</ele>
        <time>2021-05-01T09:41:11.512Z</time>
      </trkpt>
      <trkpt lat="44.8803" lon="-0.08002">
        <ele>40</ele>
        <time>2021-05-01T09:41:14.511Z</time>
      </trkpt>
      <trkpt lat="44.8803" lon="-0.07997">
        <ele>39</ele>
        <time>2021-05-01T09:41:21.512Z</time>
      </trkpt>
      <trkpt lat="44.88037" lon="-0.07976">
        <ele>34</ele>
        <time>2021-05-01T09:41:32.512Z</time>
      </trkpt>
      <trkpt lat="44.88039" lon="-0.07966">
        <ele>33</ele>
        <time>2021-05-01T09:41:38.512Z</time>
      </trkpt>
      <trkpt lat="44.88046" lon="-0.07948">
        <ele>34</ele>
        <time>2021-05-01T09:41:47.512Z</time>
      </trkpt>
      <trkpt lat="44.88049" lon="-0.07938">
        <ele>36</ele>
        <time>2021-05-01T09:41:52.512Z</time>
      </trkpt>
      <trkpt lat="44.88051" lon="-0.07921">
        <ele>35</ele>
        <time>2021-05-01T09:42:00.513Z</time>
      </trkpt>
      <trkpt lat="44.8805" lon="-0.0792">
        <ele>35</ele>
        <time>2021-05-01T09:42:04.513Z</time>
      </trkpt>
      <trkpt lat="44.88056" lon="-0.07886">
        <ele>33</ele>
        <time>2021-05-01T09:42:22.514Z</time>
      </trkpt>
      <trkpt lat="44.88065" lon="-0.07859">
        <ele>30</ele>
        <time>2021-05-01T09:42:34.514Z</time>
      </trkpt>
      <trkpt lat="44.88067" lon="-0.07852">
        <ele>30</ele>
        <time>2021-05-01T09:42:36.513Z</time>
      </trkpt>
      <trkpt lat="44.88071" lon="-0.07844">
        <ele>31</ele>
        <time>2021-05-01T09:42:40.513Z</time>
      </trkpt>
      <trkpt lat="44.88078" lon="-0.07815">
        <ele>30</ele>
        <time>2021-05-01T09:42:55.514Z</time>
      </trkpt>
      <trkpt lat="44.8808" lon="-0.07794">
        <ele>31</ele>
        <time>2021-05-01T09:43:05.514Z</time>
      </trkpt>
      <trkpt lat="44.8808" lon="-0.07787">
        <ele>32</ele>
        <time>2021-05-01T09:43:09.513Z</time>
      </trkpt>
      <trkpt lat="44.88083" lon="-0.07774">
        <ele>33</ele>
        <time>2021-05-01T09:43:15.514Z</time>
      </trkpt>
      <trkpt lat="44.88082" lon="-0.07768">
        <ele>31</ele>
        <time>2021-05-01T09:43:19.513Z</time>
      </trkpt>
      <trkpt lat="44.88083" lon="-0.07764">
        <ele>31</ele>
        <time>2021-05-01T09:43:20.514Z</time>
      </trkpt>
      <trkpt lat="44.88081" lon="-0.07758">
        <ele>31</ele>
        <time>2021-05-01T09:43:24.513Z</time>
      </trkpt>
      <trkpt lat="44.88081" lon="-0.07745">
        <ele>33</ele>
        <time>2021-05-01T09:43:30.514Z</time>
      </trkpt>
      <trkpt lat="44.88081" lon="-0.07742">
        <ele>34</ele>
        <time>2021-05-01T09:43:33.513Z</time>
      </trkpt>
      <trkpt lat="44.88078" lon="-0.07726">
        <ele>33</ele>
        <time>2021-05-01T09:43:44.513Z</time>
      </trkpt>
      <trkpt lat="44.8808" lon="-0.07721">
        <ele>31</ele>
        <time>2021-05-01T09:43:46.514Z</time>
      </trkpt>
      <trkpt lat="44.88084" lon="-0.07716">
        <ele>31</ele>
        <time>2021-05-01T09:43:50.513Z</time>
      </trkpt>
      <trkpt lat="44.88094" lon="-0.07709">
        <ele>31</ele>
        <time>2021-05-01T09:43:56.514Z</time>
      </trkpt>
      <trkpt lat="44.88111" lon="-0.07691">
        <ele>35</ele>
        <time>2021-05-01T09:44:12.513Z</time>
      </trkpt>
      <trkpt lat="44.88111" lon="-0.0769">
        <ele>34</ele>
        <time>2021-05-01T09:44:13.514Z</time>
      </trkpt>
      <trkpt lat="44.88114" lon="-0.07685">
        <ele>33</ele>
        <time>2021-05-01T09:44:16.514Z</time>
      </trkpt>
      <trkpt lat="44.88119" lon="-0.07682">
        <ele>32</ele>
        <time>2021-05-01T09:44:20.514Z</time>
      </trkpt>
      <trkpt lat="44.8813" lon="-0.0767">
        <ele>33</ele>
        <time>2021-05-01T09:44:31.514Z</time>
      </trkpt>
      <trkpt lat="44.88138" lon="-0.07666">
        <ele>35</ele>
        <time>2021-05-01T09:44:38.513Z</time>
      </trkpt>
      <trkpt lat="44.88144" lon="-0.07665">
        <ele>34</ele>
        <time>2021-05-01T09:44:43.514Z</time>
      </trkpt>
      <trkpt lat="44.8815" lon="-0.07666">
        <ele>34</ele>
        <time>2021-05-01T09:44:48.513Z</time>
      </trkpt>
      <trkpt lat="44.8817" lon="-0.07676">
        <ele>34</ele>
        <time>2021-05-01T09:45:04.514Z</time>
      </trkpt>
      <trkpt lat="44.88179" lon="-0.07678">
        <ele>36</ele>
        <time>2021-05-01T09:45:11.513Z</time>
      </trkpt>
      <trkpt lat="44.88188" lon="-0.07676">
        <ele>38</ele>
        <time>2021-05-01T09:45:18.514Z</time>
      </trkpt>
      <trkpt lat="44.88194" lon="-0.07673">
        <ele>39</ele>
        <time>2021-05-01T09:45:23.514Z</time>
      </trkpt>
      <trkpt lat="44.882" lon="-0.07667">
        <ele>39</ele>
        <time>2021-05-01T09:45:28.514Z</time>
      </trkpt>
      <trkpt lat="44.88243" lon="-0.07638">
        <ele>39</ele>
        <time>2021-05-01T09:46:04.514Z</time>
      </trkpt>
      <trkpt lat="44.88267" lon="-0.0763">
        <ele>40</ele>
        <time>2021-05-01T09:46:22.513Z</time>
      </trkpt>
      <trkpt lat="44.88294" lon="-0.07619">
        <ele>40</ele>
        <time>2021-05-01T09:46:42.513Z</time>
      </trkpt>
      <trkpt lat="44.88301" lon="-0.07614">
        <ele>39</ele>
        <time>2021-05-01T09:46:48.514Z</time>
      </trkpt>
      <trkpt lat="44.88314" lon="-0.07599">
        <ele>37</ele>
        <time>2021-05-01T09:47:00.513Z</time>
      </trkpt>
      <trkpt lat="44.88329" lon="-0.07587">
        <ele>36</ele>
        <time>2021-05-01T09:47:13.514Z</time>
      </trkpt>
      <trkpt lat="44.88356" lon="-0.07568">
        <ele>38</ele>
        <time>2021-05-01T09:47:35.514Z</time>
      </trkpt>
      <trkpt lat="44.88363" lon="-0.0756">
        <ele>38</ele>
        <time>2021-05-01T09:47:41.513Z</time>
      </trkpt>
      <trkpt lat="44.88374" lon="-0.07542">
        <ele>40</ele>
        <time>2021-05-01T09:47:53.514Z</time>
      </trkpt>
      <trkpt lat="44.8838" lon="-0.07535">
        <ele>41</ele>
        <time>2021-05-01T09:47:59.513Z</time>
      </trkpt>
      <trkpt lat="44.88384" lon="-0.07525">
        <ele>35</ele>
        <time>2021-05-01T09:48:05.514Z</time>
      </trkpt>
      <trkpt lat="44.88388" lon="-0.07522">
        <ele>36</ele>
        <time>2021-05-01T09:48:11.514Z</time>
      </trkpt>
      <trkpt lat="44.88392" lon="-0.07516">
        <ele>39</ele>
        <time>2021-05-01T09:48:16.513Z</time>
      </trkpt>
      <trkpt lat="44.88396" lon="-0.07515">
        <ele>41</ele>
        <time>2021-05-01T09:48:19.514Z</time>
      </trkpt>
      <trkpt lat="44.88399" lon="-0.07511">
        <ele>42</ele>
        <time>2021-05-01T09:48:22.514Z</time>
      </trkpt>
      <trkpt lat="44.88405" lon="-0.07489">
        <ele>41</ele>
        <time>2021-05-01T09:48:35.514Z</time>
      </trkpt>
      <trkpt lat="44.88407" lon="-0.07477">
        <ele>40</ele>
        <time>2021-05-01T09:48:40.514Z</time>
      </trkpt>
      <trkpt lat="44.88417" lon="-0.07447">
        <ele>39</ele>
        <time>2021-05-01T09:48:57.513Z</time>
      </trkpt>
      <trkpt lat="44.88429" lon="-0.0743">
        <ele>36</ele>
        <time>2021-05-01T09:49:08.513Z</time>
      </trkpt>
      <trkpt lat="44.8843" lon="-0.07427">
        <ele>35</ele>
        <time>2021-05-01T09:49:10.514Z</time>
      </trkpt>
      <trkpt lat="44.88432" lon="-0.07426">
        <ele>35</ele>
        <time>2021-05-01T09:49:11.513Z</time>
      </trkpt>
      <trkpt lat="44.8844" lon="-0.0741">
        <ele>37</ele>
        <time>2021-05-01T09:49:21.513Z</time>
      </trkpt>
      <trkpt lat="44.88456" lon="-0.07375">
        <ele>37</ele>
        <time>2021-05-01T09:49:42.513Z</time>
      </trkpt>
      <trkpt lat="44.88462" lon="-0.07367">
        <ele>35</ele>
        <time>2021-05-01T09:49:48.513Z</time>
      </trkpt>
      <trkpt lat="44.88463" lon="-0.07364">
        <ele>34</ele>
        <time>2021-05-01T09:49:50.514Z</time>
      </trkpt>
      <trkpt lat="44.88465" lon="-0.07361">
        <ele>34</ele>
        <time>2021-05-01T09:49:52.513Z</time>
      </trkpt>
      <trkpt lat="44.88467" lon="-0.07357">
        <ele>34</ele>
        <time>2021-05-01T09:49:55.514Z</time>
      </trkpt>
      <trkpt lat="44.88474" lon="-0.07352">
        <ele>38</ele>
        <time>2021-05-01T09:50:02.514Z</time>
      </trkpt>
      <trkpt lat="44.8848" lon="-0.07343">
        <ele>40</ele>
        <time>2021-05-01T09:50:08.513Z</time>
      </trkpt>
      <trkpt lat="44.88483" lon="-0.0734">
        <ele>41</ele>
        <time>2021-05-01T09:50:10.513Z</time>
      </trkpt>
      <trkpt lat="44.8849" lon="-0.07328">
        <ele>41</ele>
        <time>2021-05-01T09:50:17.514Z</time>
      </trkpt>
      <trkpt lat="44.88491" lon="-0.07324">
        <ele>39</ele>
        <time>2021-05-01T09:50:20.513Z</time>
      </trkpt>
      <trkpt lat="44.88497" lon="-0.07315">
        <ele>39</ele>
        <time>2021-05-01T09:50:26.513Z</time>
      </trkpt>
      <trkpt lat="44.88512" lon="-0.07279">
        <ele>41</ele>
        <time>2021-05-01T09:50:54.513Z</time>
      </trkpt>
      <trkpt lat="44.88516" lon="-0.07275">
        <ele>41</ele>
        <time>2021-05-01T09:50:57.514Z</time>
      </trkpt>
      <trkpt lat="44.88524" lon="-0.07269">
        <ele>40</ele>
        <time>2021-05-01T09:51:03.514Z</time>
      </trkpt>
      <trkpt lat="44.88531" lon="-0.07262">
        <ele>38</ele>
        <time>2021-05-01T09:51:09.513Z</time>
      </trkpt>
      <trkpt lat="44.88532" lon="-0.07259">
        <ele>37</ele>
        <time>2021-05-01T09:51:12.513Z</time>
      </trkpt>
      <trkpt lat="44.88559" lon="-0.07237">
        <ele>39</ele>
        <time>2021-05-01T09:52:53.028Z</time>
      </trkpt>
      <trkpt lat="44.88578" lon="-0.07216">
        <ele>42</ele>
        <time>2021-05-01T09:53:08.029Z</time>
      </trkpt>
      <trkpt lat="44.88582" lon="-0.07204">
        <ele>41</ele>
        <time>2021-05-01T09:53:14.028Z</time>
      </trkpt>
      <trkpt lat="44.88586" lon="-0.07201">
        <ele>41</ele>
        <time>2021-05-01T09:53:16.028Z</time>
      </trkpt>
      <trkpt lat="44.88589" lon="-0.07196">
        <ele>42</ele>
        <time>2021-05-01T09:53:19.029Z</time>
      </trkpt>
      <trkpt lat="44.88593" lon="-0.07178">
        <ele>42</ele>
        <time>2021-05-01T09:53:29.028Z</time>
      </trkpt>
      <trkpt lat="44.88595" lon="-0.0717">
        <ele>43</ele>
        <time>2021-05-01T09:53:33.028Z</time>
      </trkpt>
      <trkpt lat="44.88597" lon="-0.0716">
        <ele>43</ele>
        <time>2021-05-01T09:53:38.028Z</time>
      </trkpt>
      <trkpt lat="44.88594" lon="-0.0715">
        <ele>45</ele>
        <time>2021-05-01T09:53:45.028Z</time>
      </trkpt>
      <trkpt lat="44.88594" lon="-0.07144">
        <ele>46</ele>
        <time>2021-05-01T09:53:49.028Z</time>
      </trkpt>
      <trkpt lat="44.88595" lon="-0.0714">
        <ele>46</ele>
        <time>2021-05-01T09:53:52.028Z</time>
      </trkpt>
      <trkpt lat="44.88596" lon="-0.07126">
        <ele>47</ele>
        <time>2021-05-01T09:54:01.029Z</time>
      </trkpt>
      <trkpt lat="44.886" lon="-0.07115">
        <ele>49</ele>
        <time>2021-05-01T09:54:07.028Z</time>
      </trkpt>
      <trkpt lat="44.88599" lon="-0.07115">
        <ele>50</ele>
        <time>2021-05-01T09:54:09.028Z</time>
      </trkpt>
      <trkpt lat="44.88601" lon="-0.07106">
        <ele>46</ele>
        <time>2021-05-01T09:54:19.029Z</time>
      </trkpt>
      <trkpt lat="44.88608" lon="-0.07095">
        <ele>47</ele>
        <time>2021-05-01T09:54:27.028Z</time>
      </trkpt>
      <trkpt lat="44.88608" lon="-0.0709">
        <ele>48</ele>
        <time>2021-05-01T09:54:30.029Z</time>
      </trkpt>
      <trkpt lat="44.88613" lon="-0.07082">
        <ele>47</ele>
        <time>2021-05-01T09:54:35.028Z</time>
      </trkpt>
      <trkpt lat="44.88615" lon="-0.07078">
        <ele>47</ele>
        <time>2021-05-01T09:54:38.029Z</time>
      </trkpt>
      <trkpt lat="44.88622" lon="-0.07072">
        <ele>48</ele>
        <time>2021-05-01T09:54:45.029Z</time>
      </trkpt>
      <trkpt lat="44.88622" lon="-0.0707">
        <ele>48</ele>
        <time>2021-05-01T09:54:47.029Z</time>
      </trkpt>
      <trkpt lat="44.88628" lon="-0.07066">
        <ele>47</ele>
        <time>2021-05-01T09:54:55.028Z</time>
      </trkpt>
      <trkpt lat="44.88636" lon="-0.07066">
        <ele>48</ele>
        <time>2021-05-01T09:55:02.028Z</time>
      </trkpt>
      <trkpt lat="44.8864" lon="-0.07061">
        <ele>53</ele>
        <time>2021-05-01T09:55:09.028Z</time>
      </trkpt>
      <trkpt lat="44.88645" lon="-0.07062">
        <ele>52</ele>
        <time>2021-05-01T09:55:15.028Z</time>
      </trkpt>
      <trkpt lat="44.88654" lon="-0.07057">
        <ele>49</ele>
        <time>2021-05-01T09:55:23.029Z</time>
      </trkpt>
      <trkpt lat="44.8866" lon="-0.07057">
        <ele>49</ele>
        <time>2021-05-01T09:55:27.028Z</time>
      </trkpt>
      <trkpt lat="44.88668" lon="-0.07054">
        <ele>49</ele>
        <time>2021-05-01T09:55:33.028Z</time>
      </trkpt>
      <trkpt lat="44.88683" lon="-0.07046">
        <ele>50</ele>
        <time>2021-05-01T09:55:45.028Z</time>
      </trkpt>
      <trkpt lat="44.88689" lon="-0.07041">
        <ele>53</ele>
        <time>2021-05-01T09:57:23.797Z</time>
      </trkpt>
      <trkpt lat="44.88708" lon="-0.07034">
        <ele>57</ele>
        <time>2021-05-01T09:57:35.797Z</time>
      </trkpt>
      <trkpt lat="44.88724" lon="-0.07024">
        <ele>55</ele>
        <time>2021-05-01T09:57:51.797Z</time>
      </trkpt>
      <trkpt lat="44.88727" lon="-0.07025">
        <ele>59</ele>
        <time>2021-05-01T09:58:02.799Z</time>
      </trkpt>
      <trkpt lat="44.88732" lon="-0.07022">
        <ele>59</ele>
        <time>2021-05-01T09:58:06.799Z</time>
      </trkpt>
      <trkpt lat="44.88738" lon="-0.07016">
        <ele>58</ele>
        <time>2021-05-01T09:58:11.799Z</time>
      </trkpt>
      <trkpt lat="44.88747" lon="-0.07">
        <ele>59</ele>
        <time>2021-05-01T09:58:24.799Z</time>
      </trkpt>
      <trkpt lat="44.88754" lon="-0.06996">
        <ele>59</ele>
        <time>2021-05-01T09:58:31.798Z</time>
      </trkpt>
      <trkpt lat="44.88757" lon="-0.0699">
        <ele>57</ele>
        <time>2021-05-01T09:58:36.799Z</time>
      </trkpt>
      <trkpt lat="44.88761" lon="-0.06976">
        <ele>58</ele>
        <time>2021-05-01T09:58:47.798Z</time>
      </trkpt>
      <trkpt lat="44.8876" lon="-0.06966">
        <ele>59</ele>
        <time>2021-05-01T09:58:53.799Z</time>
      </trkpt>
      <trkpt lat="44.88762" lon="-0.06959">
        <ele>60</ele>
        <time>2021-05-01T09:58:57.799Z</time>
      </trkpt>
      <trkpt lat="44.88765" lon="-0.06956">
        <ele>61</ele>
        <time>2021-05-01T09:59:00.799Z</time>
      </trkpt>
      <trkpt lat="44.88768" lon="-0.06943">
        <ele>63</ele>
        <time>2021-05-01T09:59:06.799Z</time>
      </trkpt>
      <trkpt lat="44.8877" lon="-0.06942">
        <ele>62</ele>
        <time>2021-05-01T09:59:08.798Z</time>
      </trkpt>
      <trkpt lat="44.88772" lon="-0.06931">
        <ele>61</ele>
        <time>2021-05-01T09:59:16.799Z</time>
      </trkpt>
      <trkpt lat="44.88777" lon="-0.06922">
        <ele>60</ele>
        <time>2021-05-01T09:59:23.799Z</time>
      </trkpt>
      <trkpt lat="44.88779" lon="-0.06913">
        <ele>60</ele>
        <time>2021-05-01T09:59:29.799Z</time>
      </trkpt>
      <trkpt lat="44.88781" lon="-0.06912">
        <ele>60</ele>
        <time>2021-05-01T09:59:31.798Z</time>
      </trkpt>
      <trkpt lat="44.88784" lon="-0.06904">
        <ele>62</ele>
        <time>2021-05-01T09:59:36.798Z</time>
      </trkpt>
      <trkpt lat="44.88785" lon="-0.06892">
        <ele>63</ele>
        <time>2021-05-01T09:59:43.799Z</time>
      </trkpt>
      <trkpt lat="44.88789" lon="-0.06886">
        <ele>63</ele>
        <time>2021-05-01T09:59:49.799Z</time>
      </trkpt>
      <trkpt lat="44.88789" lon="-0.06883">
        <ele>63</ele>
        <time>2021-05-01T09:59:51.799Z</time>
      </trkpt>
      <trkpt lat="44.88792" lon="-0.0688">
        <ele>63</ele>
        <time>2021-05-01T09:59:54.798Z</time>
      </trkpt>
      <trkpt lat="44.88792" lon="-0.06873">
        <ele>64</ele>
        <time>2021-05-01T09:59:58.798Z</time>
      </trkpt>
      <trkpt lat="44.88796" lon="-0.06866">
        <ele>64</ele>
        <time>2021-05-01T10:00:03.798Z</time>
      </trkpt>
      <trkpt lat="44.88805" lon="-0.06861">
        <ele>67</ele>
        <time>2021-05-01T10:00:13.799Z</time>
      </trkpt>
      <trkpt lat="44.88807" lon="-0.06851">
        <ele>70</ele>
        <time>2021-05-01T10:00:19.799Z</time>
      </trkpt>
      <trkpt lat="44.88812" lon="-0.06844">
        <ele>68</ele>
        <time>2021-05-01T10:00:27.799Z</time>
      </trkpt>
      <trkpt lat="44.88816" lon="-0.06841">
        <ele>69</ele>
        <time>2021-05-01T10:00:31.799Z</time>
      </trkpt>
      <trkpt lat="44.88816" lon="-0.06839">
        <ele>69</ele>
        <time>2021-05-01T10:00:32.799Z</time>
      </trkpt>
      <trkpt lat="44.8883" lon="-0.06823">
        <ele>67</ele>
        <time>2021-05-01T10:00:49.799Z</time>
      </trkpt>
      <trkpt lat="44.88842" lon="-0.06815">
        <ele>68</ele>
        <time>2021-05-01T10:01:01.799Z</time>
      </trkpt>
      <trkpt lat="44.88847" lon="-0.06809">
        <ele>67</ele>
        <time>2021-05-01T10:01:07.798Z</time>
      </trkpt>
      <trkpt lat="44.8885" lon="-0.06807">
        <ele>67</ele>
        <time>2021-05-01T10:01:10.798Z</time>
      </trkpt>
      <trkpt lat="44.88858" lon="-0.068">
        <ele>66</ele>
        <time>2021-05-01T10:01:18.799Z</time>
      </trkpt>
      <trkpt lat="44.88863" lon="-0.0679">
        <ele>69</ele>
        <time>2021-05-01T10:01:26.799Z</time>
      </trkpt>
      <trkpt lat="44.88863" lon="-0.06788">
        <ele>69</ele>
        <time>2021-05-01T10:01:28.799Z</time>
      </trkpt>
      <trkpt lat="44.88866" lon="-0.0678">
        <ele>69</ele>
        <time>2021-05-01T10:01:35.799Z</time>
      </trkpt>
      <trkpt lat="44.88867" lon="-0.06772">
        <ele>71</ele>
        <time>2021-05-01T10:01:41.799Z</time>
      </trkpt>
      <trkpt lat="44.88864" lon="-0.06768">
        <ele>71</ele>
        <time>2021-05-01T10:01:44.799Z</time>
      </trkpt>
      <trkpt lat="44.88878" lon="-0.06767">
        <ele>72</ele>
        <time>2021-05-01T10:01:49.799Z</time>
      </trkpt>
      <trkpt lat="44.88879" lon="-0.06769">
        <ele>71</ele>
        <time>2021-05-01T10:01:52.799Z</time>
      </trkpt>
      <trkpt lat="44.88887" lon="-0.06773">
        <ele>69</ele>
        <time>2021-05-01T10:01:58.798Z</time>
      </trkpt>
      <trkpt lat="44.88893" lon="-0.06773">
        <ele>67</ele>
        <time>2021-05-01T10:02:01.799Z</time>
      </trkpt>
      <trkpt lat="44.88907" lon="-0.06781">
        <ele>66</ele>
        <time>2021-05-01T10:02:10.799Z</time>
      </trkpt>
      <trkpt lat="44.88912" lon="-0.06782">
        <ele>65</ele>
        <time>2021-05-01T10:02:13.799Z</time>
      </trkpt>
      <trkpt lat="44.88923" lon="-0.06786">
        <ele>65</ele>
        <time>2021-05-01T10:02:20.799Z</time>
      </trkpt>
      <trkpt lat="44.88924" lon="-0.06788">
        <ele>65</ele>
        <time>2021-05-01T10:02:22.798Z</time>
      </trkpt>
      <trkpt lat="44.88927" lon="-0.0679">
        <ele>66</ele>
        <time>2021-05-01T10:02:26.799Z</time>
      </trkpt>
      <trkpt lat="44.88939" lon="-0.06793">
        <ele>65</ele>
        <time>2021-05-01T10:02:37.799Z</time>
      </trkpt>
      <trkpt lat="44.88941" lon="-0.06792">
        <ele>65</ele>
        <time>2021-05-01T10:02:39.799Z</time>
      </trkpt>
      <trkpt lat="44.88948" lon="-0.06794">
        <ele>66</ele>
        <time>2021-05-01T10:02:45.798Z</time>
      </trkpt>
      <trkpt lat="44.88949" lon="-0.06793">
        <ele>64</ele>
        <time>2021-05-01T10:02:50.798Z</time>
      </trkpt>
      <trkpt lat="44.88949" lon="-0.06795">
        <ele>64</ele>
        <time>2021-05-01T10:02:53.799Z</time>
      </trkpt>
      <trkpt lat="44.88951" lon="-0.06799">
        <ele>64</ele>
        <time>2021-05-01T10:02:55.798Z</time>
      </trkpt>
      <trkpt lat="44.88952" lon="-0.06799">
        <ele>64</ele>
        <time>2021-05-01T10:02:56.799Z</time>
      </trkpt>
      <trkpt lat="44.8896" lon="-0.06809">
        <ele>64</ele>
        <time>2021-05-01T10:03:03.799Z</time>
      </trkpt>
      <trkpt lat="44.88963" lon="-0.0682">
        <ele>66</ele>
        <time>2021-05-01T10:03:08.799Z</time>
      </trkpt>
      <trkpt lat="44.88971" lon="-0.06826">
        <ele>67</ele>
        <time>2021-05-01T10:03:15.799Z</time>
      </trkpt>
      <trkpt lat="44.88976" lon="-0.06836">
        <ele>68</ele>
        <time>2021-05-01T10:03:22.798Z</time>
      </trkpt>
      <trkpt lat="44.88987" lon="-0.0685">
        <ele>68</ele>
        <time>2021-05-01T10:03:32.798Z</time>
      </trkpt>
      <trkpt lat="44.88991" lon="-0.06853">
        <ele>68</ele>
        <time>2021-05-01T10:03:35.799Z</time>
      </trkpt>
      <trkpt lat="44.88995" lon="-0.0686">
        <ele>69</ele>
        <time>2021-05-01T10:03:40.799Z</time>
      </trkpt>
      <trkpt lat="44.89011" lon="-0.06874">
        <ele>68</ele>
        <time>2021-05-01T10:03:55.798Z</time>
      </trkpt>
      <trkpt lat="44.89018" lon="-0.06884">
        <ele>68</ele>
        <time>2021-05-01T10:04:01.798Z</time>
      </trkpt>
      <trkpt lat="44.89019" lon="-0.06888">
        <ele>68</ele>
        <time>2021-05-01T10:04:03.799Z</time>
      </trkpt>
      <trkpt lat="44.89023" lon="-0.06892">
        <ele>69</ele>
        <time>2021-05-01T10:04:07.799Z</time>
      </trkpt>
      <trkpt lat="44.89025" lon="-0.06896">
        <ele>69</ele>
        <time>2021-05-01T10:04:09.799Z</time>
      </trkpt>
      <trkpt lat="44.89031" lon="-0.06902">
        <ele>69</ele>
        <time>2021-05-01T10:04:14.799Z</time>
      </trkpt>
      <trkpt lat="44.89034" lon="-0.06907">
        <ele>69</ele>
        <time>2021-05-01T10:04:16.799Z</time>
      </trkpt>
      <trkpt lat="44.89043" lon="-0.06913">
        <ele>69</ele>
        <time>2021-05-01T10:04:23.799Z</time>
      </trkpt>
      <trkpt lat="44.89048" lon="-0.0692">
        <ele>70</ele>
        <time>2021-05-01T10:04:28.799Z</time>
      </trkpt>
      <trkpt lat="44.89056" lon="-0.06922">
        <ele>69</ele>
        <time>2021-05-01T10:04:32.799Z</time>
      </trkpt>
      <trkpt lat="44.89061" lon="-0.06926">
        <ele>68</ele>
        <time>2021-05-01T10:04:36.799Z</time>
      </trkpt>
      <trkpt lat="44.89065" lon="-0.06933">
        <ele>68</ele>
        <time>2021-05-01T10:04:40.799Z</time>
      </trkpt>
      <trkpt lat="44.89073" lon="-0.0694">
        <ele>68</ele>
        <time>2021-05-01T10:04:47.799Z</time>
      </trkpt>
      <trkpt lat="44.89083" lon="-0.06952">
        <ele>69</ele>
        <time>2021-05-01T10:04:55.799Z</time>
      </trkpt>
      <trkpt lat="44.89103" lon="-0.0698">
        <ele>71</ele>
        <time>2021-05-01T10:05:14.799Z</time>
      </trkpt>
      <trkpt lat="44.89108" lon="-0.06984">
        <ele>71</ele>
        <time>2021-05-01T10:05:18.799Z</time>
      </trkpt>
      <trkpt lat="44.89127" lon="-0.07011">
        <ele>75</ele>
        <time>2021-05-01T10:05:37.799Z</time>
      </trkpt>
      <trkpt lat="44.89128" lon="-0.07014">
        <ele>75</ele>
        <time>2021-05-01T10:05:39.798Z</time>
      </trkpt>
      <trkpt lat="44.89134" lon="-0.0702">
        <ele>74</ele>
        <time>2021-05-01T10:05:46.799Z</time>
      </trkpt>
      <trkpt lat="44.89138" lon="-0.07031">
        <ele>74</ele>
        <time>2021-05-01T10:05:53.798Z</time>
      </trkpt>
      <trkpt lat="44.8914" lon="-0.07032">
        <ele>74</ele>
        <time>2021-05-01T10:05:55.799Z</time>
      </trkpt>
      <trkpt lat="44.89143" lon="-0.07037">
        <ele>72</ele>
        <time>2021-05-01T10:06:00.799Z</time>
      </trkpt>
      <trkpt lat="44.89143" lon="-0.07042">
        <ele>71</ele>
        <time>2021-05-01T10:06:03.798Z</time>
      </trkpt>
      <trkpt lat="44.89146" lon="-0.07046">
        <ele>71</ele>
        <time>2021-05-01T10:06:07.799Z</time>
      </trkpt>
      <trkpt lat="44.89147" lon="-0.07051">
        <ele>70</ele>
        <time>2021-05-01T10:06:10.798Z</time>
      </trkpt>
      <trkpt lat="44.89147" lon="-0.07057">
        <ele>72</ele>
        <time>2021-05-01T10:06:14.799Z</time>
      </trkpt>
      <trkpt lat="44.89145" lon="-0.07068">
        <ele>75</ele>
        <time>2021-05-01T10:06:22.798Z</time>
      </trkpt>
      <trkpt lat="44.89142" lon="-0.07074">
        <ele>75</ele>
        <time>2021-05-01T10:06:27.799Z</time>
      </trkpt>
      <trkpt lat="44.8913" lon="-0.07097">
        <ele>79</ele>
        <time>2021-05-01T10:06:44.799Z</time>
      </trkpt>
      <trkpt lat="44.89127" lon="-0.07108">
        <ele>80</ele>
        <time>2021-05-01T10:06:54.799Z</time>
      </trkpt>
      <trkpt lat="44.89128" lon="-0.0711">
        <ele>81</ele>
        <time>2021-05-01T10:06:59.799Z</time>
      </trkpt>
      <trkpt lat="44.89118" lon="-0.07121">
        <ele>88</ele>
        <time>2021-05-01T10:07:10.799Z</time>
      </trkpt>
      <trkpt lat="44.89117" lon="-0.07124">
        <ele>88</ele>
        <time>2021-05-01T10:07:12.798Z</time>
      </trkpt>
      <trkpt lat="44.89112" lon="-0.07139">
        <ele>85</ele>
        <time>2021-05-01T10:07:22.799Z</time>
      </trkpt>
      <trkpt lat="44.89109" lon="-0.07142">
        <ele>85</ele>
        <time>2021-05-01T10:07:24.799Z</time>
      </trkpt>
      <trkpt lat="44.89109" lon="-0.07145">
        <ele>85</ele>
        <time>2021-05-01T10:07:25.799Z</time>
      </trkpt>
      <trkpt lat="44.89106" lon="-0.07149">
        <ele>86</ele>
        <time>2021-05-01T10:07:29.799Z</time>
      </trkpt>
      <trkpt lat="44.89103" lon="-0.07159">
        <ele>88</ele>
        <time>2021-05-01T10:07:35.798Z</time>
      </trkpt>
      <trkpt lat="44.89103" lon="-0.07163">
        <ele>88</ele>
        <time>2021-05-01T10:07:37.798Z</time>
      </trkpt>
      <trkpt lat="44.89096" lon="-0.07185">
        <ele>87</ele>
        <time>2021-05-01T10:07:52.799Z</time>
      </trkpt>
      <trkpt lat="44.89091" lon="-0.07194">
        <ele>87</ele>
        <time>2021-05-01T10:07:57.799Z</time>
      </trkpt>
      <trkpt lat="44.89082" lon="-0.07204">
        <ele>88</ele>
        <time>2021-05-01T10:08:05.799Z</time>
      </trkpt>
      <trkpt lat="44.89079" lon="-0.07214">
        <ele>86</ele>
        <time>2021-05-01T10:08:12.799Z</time>
      </trkpt>
      <trkpt lat="44.89076" lon="-0.07234">
        <ele>81</ele>
        <time>2021-05-01T10:08:22.799Z</time>
      </trkpt>
      <trkpt lat="44.89073" lon="-0.07242">
        <ele>81</ele>
        <time>2021-05-01T10:08:27.799Z</time>
      </trkpt>
      <trkpt lat="44.8907" lon="-0.07276">
        <ele>82</ele>
        <time>2021-05-01T10:08:43.799Z</time>
      </trkpt>
      <trkpt lat="44.89068" lon="-0.07281">
        <ele>82</ele>
        <time>2021-05-01T10:08:45.798Z</time>
      </trkpt>
      <trkpt lat="44.89067" lon="-0.07305">
        <ele>83</ele>
        <time>2021-05-01T10:08:56.799Z</time>
      </trkpt>
      <trkpt lat="44.89068" lon="-0.07327">
        <ele>83</ele>
        <time>2021-05-01T10:09:06.798Z</time>
      </trkpt>
      <trkpt lat="44.89066" lon="-0.07334">
        <ele>84</ele>
        <time>2021-05-01T10:09:13.798Z</time>
      </trkpt>
      <trkpt lat="44.89066" lon="-0.07339">
        <ele>83</ele>
        <time>2021-05-01T10:09:16.799Z</time>
      </trkpt>
      <trkpt lat="44.89062" lon="-0.07356">
        <ele>86</ele>
        <time>2021-05-01T10:09:23.799Z</time>
      </trkpt>
      <trkpt lat="44.89063" lon="-0.0737">
        <ele>86</ele>
        <time>2021-05-01T10:09:30.799Z</time>
      </trkpt>
      <trkpt lat="44.89061" lon="-0.07381">
        <ele>86</ele>
        <time>2021-05-01T10:09:34.799Z</time>
      </trkpt>
      <trkpt lat="44.89061" lon="-0.07415">
        <ele>85</ele>
        <time>2021-05-01T10:09:49.799Z</time>
      </trkpt>
      <trkpt lat="44.89065" lon="-0.07428">
        <ele>84</ele>
        <time>2021-05-01T10:09:56.799Z</time>
      </trkpt>
      <trkpt lat="44.8908" lon="-0.07462">
        <ele>85</ele>
        <time>2021-05-01T10:10:17.799Z</time>
      </trkpt>
      <trkpt lat="44.89086" lon="-0.07491">
        <ele>83</ele>
        <time>2021-05-01T10:10:30.799Z</time>
      </trkpt>
      <trkpt lat="44.89089" lon="-0.07512">
        <ele>80</ele>
        <time>2021-05-01T10:10:41.798Z</time>
      </trkpt>
      <trkpt lat="44.89089" lon="-0.07531">
        <ele>80</ele>
        <time>2021-05-01T10:10:50.799Z</time>
      </trkpt>
      <trkpt lat="44.89088" lon="-0.07544">
        <ele>77</ele>
        <time>2021-05-01T10:10:58.799Z</time>
      </trkpt>
      <trkpt lat="44.89085" lon="-0.07586">
        <ele>77</ele>
        <time>2021-05-01T10:11:29.798Z</time>
      </trkpt>
      <trkpt lat="44.89082" lon="-0.07598">
        <ele>79</ele>
        <time>2021-05-01T10:11:37.799Z</time>
      </trkpt>
      <trkpt lat="44.89083" lon="-0.07617">
        <ele>78</ele>
        <time>2021-05-01T10:11:56.798Z</time>
      </trkpt>
      <trkpt lat="44.89082" lon="-0.07621">
        <ele>78</ele>
        <time>2021-05-01T10:11:58.799Z</time>
      </trkpt>
      <trkpt lat="44.89084" lon="-0.07627">
        <ele>77</ele>
        <time>2021-05-01T10:12:02.798Z</time>
      </trkpt>
      <trkpt lat="44.89083" lon="-0.07632">
        <ele>77</ele>
        <time>2021-05-01T10:12:04.799Z</time>
      </trkpt>
      <trkpt lat="44.89086" lon="-0.07659">
        <ele>75</ele>
        <time>2021-05-01T10:12:18.799Z</time>
      </trkpt>
      <trkpt lat="44.89087" lon="-0.07665">
        <ele>75</ele>
        <time>2021-05-01T10:12:22.799Z</time>
      </trkpt>
      <trkpt lat="44.89087" lon="-0.07675">
        <ele>75</ele>
        <time>2021-05-01T10:12:27.798Z</time>
      </trkpt>
      <trkpt lat="44.89089" lon="-0.0769">
        <ele>76</ele>
        <time>2021-05-01T10:12:33.798Z</time>
      </trkpt>
      <trkpt lat="44.89092" lon="-0.07699">
        <ele>75</ele>
        <time>2021-05-01T10:12:38.799Z</time>
      </trkpt>
      <trkpt lat="44.89095" lon="-0.07712">
        <ele>77</ele>
        <time>2021-05-01T10:12:44.799Z</time>
      </trkpt>
      <trkpt lat="44.89097" lon="-0.07716">
        <ele>77</ele>
        <time>2021-05-01T10:12:47.799Z</time>
      </trkpt>
      <trkpt lat="44.89098" lon="-0.07721">
        <ele>76</ele>
        <time>2021-05-01T10:12:49.799Z</time>
      </trkpt>
      <trkpt lat="44.89101" lon="-0.07727">
        <ele>76</ele>
        <time>2021-05-01T10:12:52.799Z</time>
      </trkpt>
      <trkpt lat="44.891" lon="-0.0773">
        <ele>75</ele>
        <time>2021-05-01T10:12:53.798Z</time>
      </trkpt>
      <trkpt lat="44.89102" lon="-0.07734">
        <ele>75</ele>
        <time>2021-05-01T10:12:55.799Z</time>
      </trkpt>
      <trkpt lat="44.89109" lon="-0.07745">
        <ele>75</ele>
        <time>2021-05-01T10:13:02.799Z</time>
      </trkpt>
      <trkpt lat="44.89121" lon="-0.07757">
        <ele>76</ele>
        <time>2021-05-01T10:13:11.799Z</time>
      </trkpt>
      <trkpt lat="44.89132" lon="-0.07764">
        <ele>76</ele>
        <time>2021-05-01T10:13:21.799Z</time>
      </trkpt>
      <trkpt lat="44.89137" lon="-0.07766">
        <ele>75</ele>
        <time>2021-05-01T10:13:24.798Z</time>
      </trkpt>
      <trkpt lat="44.89145" lon="-0.07774">
        <ele>76</ele>
        <time>2021-05-01T10:13:30.798Z</time>
      </trkpt>
      <trkpt lat="44.89162" lon="-0.07773">
        <ele>72</ele>
        <time>2021-05-01T10:13:40.799Z</time>
      </trkpt>
      <trkpt lat="44.89164" lon="-0.07775">
        <ele>71</ele>
        <time>2021-05-01T10:13:42.798Z</time>
      </trkpt>
      <trkpt lat="44.89174" lon="-0.07777">
        <ele>72</ele>
        <time>2021-05-01T10:13:48.799Z</time>
      </trkpt>
      <trkpt lat="44.89178" lon="-0.0778">
        <ele>72</ele>
        <time>2021-05-01T10:13:51.798Z</time>
      </trkpt>
      <trkpt lat="44.89186" lon="-0.0779">
        <ele>73</ele>
        <time>2021-05-01T10:13:59.799Z</time>
      </trkpt>
      <trkpt lat="44.89191" lon="-0.07799">
        <ele>72</ele>
        <time>2021-05-01T10:14:04.799Z</time>
      </trkpt>
      <trkpt lat="44.89196" lon="-0.07812">
        <ele>72</ele>
        <time>2021-05-01T10:14:11.799Z</time>
      </trkpt>
      <trkpt lat="44.89201" lon="-0.07818">
        <ele>71</ele>
        <time>2021-05-01T10:14:15.798Z</time>
      </trkpt>
      <trkpt lat="44.89203" lon="-0.07823">
        <ele>71</ele>
        <time>2021-05-01T10:14:18.799Z</time>
      </trkpt>
      <trkpt lat="44.89209" lon="-0.07833">
        <ele>70</ele>
        <time>2021-05-01T10:14:24.799Z</time>
      </trkpt>
      <trkpt lat="44.89214" lon="-0.07846">
        <ele>71</ele>
        <time>2021-05-01T10:14:30.799Z</time>
      </trkpt>
      <trkpt lat="44.89218" lon="-0.07853">
        <ele>73</ele>
        <time>2021-05-01T10:14:34.799Z</time>
      </trkpt>
      <trkpt lat="44.8923" lon="-0.07865">
        <ele>71</ele>
        <time>2021-05-01T10:14:44.798Z</time>
      </trkpt>
      <trkpt lat="44.89238" lon="-0.07881">
        <ele>69</ele>
        <time>2021-05-01T10:14:53.799Z</time>
      </trkpt>
      <trkpt lat="44.89246" lon="-0.0789">
        <ele>69</ele>
        <time>2021-05-01T10:15:00.799Z</time>
      </trkpt>
      <trkpt lat="44.89249" lon="-0.07902">
        <ele>69</ele>
        <time>2021-05-01T10:15:06.799Z</time>
      </trkpt>
      <trkpt lat="44.89256" lon="-0.07906">
        <ele>70</ele>
        <time>2021-05-01T10:15:11.799Z</time>
      </trkpt>
      <trkpt lat="44.89269" lon="-0.07923">
        <ele>68</ele>
        <time>2021-05-01T10:15:22.799Z</time>
      </trkpt>
      <trkpt lat="44.89273" lon="-0.07926">
        <ele>68</ele>
        <time>2021-05-01T10:15:25.799Z</time>
      </trkpt>
      <trkpt lat="44.89277" lon="-0.07933">
        <ele>68</ele>
        <time>2021-05-01T10:15:29.799Z</time>
      </trkpt>
      <trkpt lat="44.89284" lon="-0.07938">
        <ele>68</ele>
        <time>2021-05-01T10:15:34.799Z</time>
      </trkpt>
      <trkpt lat="44.89288" lon="-0.07944">
        <ele>69</ele>
        <time>2021-05-01T10:15:38.799Z</time>
      </trkpt>
      <trkpt lat="44.89298" lon="-0.07954">
        <ele>70</ele>
        <time>2021-05-01T10:15:46.798Z</time>
      </trkpt>
      <trkpt lat="44.89302" lon="-0.07956">
        <ele>69</ele>
        <time>2021-05-01T10:15:49.799Z</time>
      </trkpt>
      <trkpt lat="44.89309" lon="-0.07965">
        <ele>70</ele>
        <time>2021-05-01T10:15:55.799Z</time>
      </trkpt>
      <trkpt lat="44.89322" lon="-0.07976">
        <ele>70</ele>
        <time>2021-05-01T10:16:05.799Z</time>
      </trkpt>
      <trkpt lat="44.89323" lon="-0.07978">
        <ele>70</ele>
        <time>2021-05-01T10:16:06.798Z</time>
      </trkpt>
      <trkpt lat="44.89344" lon="-0.07993">
        <ele>71</ele>
        <time>2021-05-01T10:16:22.798Z</time>
      </trkpt>
      <trkpt lat="44.8935" lon="-0.07996">
        <ele>70</ele>
        <time>2021-05-01T10:16:26.798Z</time>
      </trkpt>
      <trkpt lat="44.89352" lon="-0.07998">
        <ele>71</ele>
        <time>2021-05-01T10:16:28.798Z</time>
      </trkpt>
      <trkpt lat="44.89352" lon="-0.08001">
        <ele>71</ele>
        <time>2021-05-01T10:16:29.798Z</time>
      </trkpt>
      <trkpt lat="44.89363" lon="-0.08011">
        <ele>72</ele>
        <time>2021-05-01T10:16:38.799Z</time>
      </trkpt>
      <trkpt lat="44.89366" lon="-0.08015">
        <ele>70</ele>
        <time>2021-05-01T10:16:41.799Z</time>
      </trkpt>
      <trkpt lat="44.8938" lon="-0.08022">
        <ele>67</ele>
        <time>2021-05-01T10:16:52.799Z</time>
      </trkpt>
      <trkpt lat="44.89392" lon="-0.08031">
        <ele>65</ele>
        <time>2021-05-01T10:17:03.799Z</time>
      </trkpt>
      <trkpt lat="44.89398" lon="-0.08039">
        <ele>65</ele>
        <time>2021-05-01T10:17:10.799Z</time>
      </trkpt>
      <trkpt lat="44.89407" lon="-0.08044">
        <ele>63</ele>
        <time>2021-05-01T10:17:17.798Z</time>
      </trkpt>
      <trkpt lat="44.89409" lon="-0.08049">
        <ele>63</ele>
        <time>2021-05-01T10:17:20.799Z</time>
      </trkpt>
      <trkpt lat="44.89412" lon="-0.0805">
        <ele>62</ele>
        <time>2021-05-01T10:17:23.799Z</time>
      </trkpt>
      <trkpt lat="44.89417" lon="-0.08056">
        <ele>61</ele>
        <time>2021-05-01T10:17:28.799Z</time>
      </trkpt>
      <trkpt lat="44.89426" lon="-0.08072">
        <ele>61</ele>
        <time>2021-05-01T10:17:37.799Z</time>
      </trkpt>
      <trkpt lat="44.89431" lon="-0.08077">
        <ele>61</ele>
        <time>2021-05-01T10:17:41.799Z</time>
      </trkpt>
      <trkpt lat="44.89436" lon="-0.08085">
        <ele>60</ele>
        <time>2021-05-01T10:17:46.799Z</time>
      </trkpt>
      <trkpt lat="44.89438" lon="-0.08093">
        <ele>60</ele>
        <time>2021-05-01T10:17:50.799Z</time>
      </trkpt>
      <trkpt lat="44.89441" lon="-0.08096">
        <ele>60</ele>
        <time>2021-05-01T10:17:52.799Z</time>
      </trkpt>
      <trkpt lat="44.89448" lon="-0.08109">
        <ele>59</ele>
        <time>2021-05-01T10:18:02.799Z</time>
      </trkpt>
      <trkpt lat="44.8945" lon="-0.08118">
        <ele>59</ele>
        <time>2021-05-01T10:18:09.799Z</time>
      </trkpt>
      <trkpt lat="44.89456" lon="-0.0813">
        <ele>58</ele>
        <time>2021-05-01T10:18:17.799Z</time>
      </trkpt>
      <trkpt lat="44.89459" lon="-0.08146">
        <ele>58</ele>
        <time>2021-05-01T10:18:27.799Z</time>
      </trkpt>
      <trkpt lat="44.89466" lon="-0.08161">
        <ele>55</ele>
        <time>2021-05-01T10:18:38.799Z</time>
      </trkpt>
      <trkpt lat="44.8947" lon="-0.08167">
        <ele>54</ele>
        <time>2021-05-01T10:18:48.799Z</time>
      </trkpt>
      <trkpt lat="44.89463" lon="-0.08174">
        <ele>52</ele>
        <time>2021-05-01T10:18:57.798Z</time>
      </trkpt>
      <trkpt lat="44.89457" lon="-0.08176">
        <ele>53</ele>
        <time>2021-05-01T10:19:02.799Z</time>
      </trkpt>
      <trkpt lat="44.89447" lon="-0.08176">
        <ele>54</ele>
        <time>2021-05-01T10:19:10.799Z</time>
      </trkpt>
      <trkpt lat="44.89445" lon="-0.08177">
        <ele>54</ele>
        <time>2021-05-01T10:19:12.799Z</time>
      </trkpt>
      <trkpt lat="44.89428" lon="-0.08174">
        <ele>58</ele>
        <time>2021-05-01T10:19:21.798Z</time>
      </trkpt>
      <trkpt lat="44.89398" lon="-0.08156">
        <ele>56</ele>
        <time>2021-05-01T10:19:42.799Z</time>
      </trkpt>
      <trkpt lat="44.89384" lon="-0.0815">
        <ele>55</ele>
        <time>2021-05-01T10:19:52.799Z</time>
      </trkpt>
      <trkpt lat="44.89377" lon="-0.08152">
        <ele>56</ele>
        <time>2021-05-01T10:19:57.799Z</time>
      </trkpt>
      <trkpt lat="44.89372" lon="-0.08151">
        <ele>56</ele>
        <time>2021-05-01T10:20:02.798Z</time>
      </trkpt>
      <trkpt lat="44.89355" lon="-0.08156">
        <ele>54</ele>
        <time>2021-05-01T10:20:16.799Z</time>
      </trkpt>
      <trkpt lat="44.89342" lon="-0.0817">
        <ele>51</ele>
        <time>2021-05-01T10:20:27.799Z</time>
      </trkpt>
      <trkpt lat="44.89319" lon="-0.08187">
        <ele>53</ele>
        <time>2021-05-01T10:26:52.760Z</time>
      </trkpt>
      <trkpt lat="44.89315" lon="-0.08192">
        <ele>51</ele>
        <time>2021-05-01T10:26:56.759Z</time>
      </trkpt>
      <trkpt lat="44.893" lon="-0.08203">
        <ele>49</ele>
        <time>2021-05-01T10:27:07.760Z</time>
      </trkpt>
      <trkpt lat="44.89295" lon="-0.0821">
        <ele>50</ele>
        <time>2021-05-01T10:27:11.760Z</time>
      </trkpt>
      <trkpt lat="44.8926" lon="-0.08242">
        <ele>53</ele>
        <time>2021-05-01T10:27:39.759Z</time>
      </trkpt>
      <trkpt lat="44.89253" lon="-0.08252">
        <ele>52</ele>
        <time>2021-05-01T10:27:45.760Z</time>
      </trkpt>
      <trkpt lat="44.89248" lon="-0.08261">
        <ele>47</ele>
        <time>2021-05-01T10:27:51.760Z</time>
      </trkpt>
      <trkpt lat="44.89228" lon="-0.08291">
        <ele>48</ele>
        <time>2021-05-01T10:28:10.760Z</time>
      </trkpt>
      <trkpt lat="44.89221" lon="-0.08302">
        <ele>49</ele>
        <time>2021-05-01T10:28:18.760Z</time>
      </trkpt>
      <trkpt lat="44.89215" lon="-0.08307">
        <ele>50</ele>
        <time>2021-05-01T10:28:25.760Z</time>
      </trkpt>
      <trkpt lat="44.89214" lon="-0.08311">
        <ele>51</ele>
        <time>2021-05-01T10:28:28.759Z</time>
      </trkpt>
      <trkpt lat="44.89213" lon="-0.08323">
        <ele>51</ele>
        <time>2021-05-01T10:28:35.760Z</time>
      </trkpt>
      <trkpt lat="44.89216" lon="-0.0833">
        <ele>50</ele>
        <time>2021-05-01T10:28:41.760Z</time>
      </trkpt>
      <trkpt lat="44.89215" lon="-0.08346">
        <ele>54</ele>
        <time>2021-05-01T10:28:51.760Z</time>
      </trkpt>
      <trkpt lat="44.89215" lon="-0.08358">
        <ele>57</ele>
        <time>2021-05-01T10:30:33.493Z</time>
      </trkpt>
      <trkpt lat="44.89218" lon="-0.08365">
        <ele>56</ele>
        <time>2021-05-01T10:30:37.493Z</time>
      </trkpt>
      <trkpt lat="44.89218" lon="-0.08372">
        <ele>54</ele>
        <time>2021-05-01T10:30:41.493Z</time>
      </trkpt>
      <trkpt lat="44.8925" lon="-0.08553">
        <ele>58</ele>
        <time>2021-05-01T10:30:49.494Z</time>
      </trkpt>
      <trkpt lat="44.8925" lon="-0.08552">
        <ele>59</ele>
        <time>2021-05-01T10:30:50.493Z</time>
      </trkpt>
      <trkpt lat="44.89252" lon="-0.08563">
        <ele>60</ele>
        <time>2021-05-01T10:30:58.494Z</time>
      </trkpt>
      <trkpt lat="44.89252" lon="-0.08571">
        <ele>60</ele>
        <time>2021-05-01T10:31:02.494Z</time>
      </trkpt>
      <trkpt lat="44.89253" lon="-0.08578">
        <ele>59</ele>
        <time>2021-05-01T10:31:06.494Z</time>
      </trkpt>
      <trkpt lat="44.89252" lon="-0.08602">
        <ele>65</ele>
        <time>2021-05-01T10:31:20.494Z</time>
      </trkpt>
      <trkpt lat="44.89255" lon="-0.08618">
        <ele>63</ele>
        <time>2021-05-01T10:31:28.494Z</time>
      </trkpt>
      <trkpt lat="44.89255" lon="-0.08623">
        <ele>63</ele>
        <time>2021-05-01T10:31:31.494Z</time>
      </trkpt>
      <trkpt lat="44.89256" lon="-0.08624">
        <ele>63</ele>
        <time>2021-05-01T10:31:32.494Z</time>
      </trkpt>
      <trkpt lat="44.89256" lon="-0.08632">
        <ele>62</ele>
        <time>2021-05-01T10:31:38.494Z</time>
      </trkpt>
      <trkpt lat="44.89256" lon="-0.08646">
        <ele>60</ele>
        <time>2021-05-01T10:31:45.493Z</time>
      </trkpt>
      <trkpt lat="44.89256" lon="-0.0866">
        <ele>60</ele>
        <time>2021-05-01T10:31:52.493Z</time>
      </trkpt>
      <trkpt lat="44.89255" lon="-0.08691">
        <ele>60</ele>
        <time>2021-05-01T10:32:07.494Z</time>
      </trkpt>
      <trkpt lat="44.89251" lon="-0.0872">
        <ele>61</ele>
        <time>2021-05-01T10:32:20.493Z</time>
      </trkpt>
      <trkpt lat="44.89244" lon="-0.08746">
        <ele>64</ele>
        <time>2021-05-01T10:32:33.494Z</time>
      </trkpt>
      <trkpt lat="44.89242" lon="-0.08761">
        <ele>65</ele>
        <time>2021-05-01T10:32:41.494Z</time>
      </trkpt>
      <trkpt lat="44.8924" lon="-0.08779">
        <ele>65</ele>
        <time>2021-05-01T10:32:50.494Z</time>
      </trkpt>
      <trkpt lat="44.89239" lon="-0.08782">
        <ele>66</ele>
        <time>2021-05-01T10:32:52.494Z</time>
      </trkpt>
      <trkpt lat="44.89236" lon="-0.08804">
        <ele>65</ele>
        <time>2021-05-01T10:33:03.494Z</time>
      </trkpt>
      <trkpt lat="44.89235" lon="-0.08823">
        <ele>63</ele>
        <time>2021-05-01T10:33:13.494Z</time>
      </trkpt>
      <trkpt lat="44.89232" lon="-0.08842">
        <ele>65</ele>
        <time>2021-05-01T10:33:23.494Z</time>
      </trkpt>
      <trkpt lat="44.89231" lon="-0.0885">
        <ele>62</ele>
        <time>2021-05-01T10:33:27.493Z</time>
      </trkpt>
      <trkpt lat="44.89226" lon="-0.08878">
        <ele>63</ele>
        <time>2021-05-01T10:33:40.494Z</time>
      </trkpt>
      <trkpt lat="44.89223" lon="-0.08903">
        <ele>63</ele>
        <time>2021-05-01T10:33:55.494Z</time>
      </trkpt>
      <trkpt lat="44.89223" lon="-0.08908">
        <ele>62</ele>
        <time>2021-05-01T10:33:59.494Z</time>
      </trkpt>
      <trkpt lat="44.89224" lon="-0.0891">
        <ele>62</ele>
        <time>2021-05-01T10:34:01.493Z</time>
      </trkpt>
      <trkpt lat="44.89223" lon="-0.08918">
        <ele>61</ele>
        <time>2021-05-01T10:34:06.494Z</time>
      </trkpt>
      <trkpt lat="44.89224" lon="-0.0893">
        <ele>60</ele>
        <time>2021-05-01T10:34:12.494Z</time>
      </trkpt>
      <trkpt lat="44.89225" lon="-0.08935">
        <ele>59</ele>
        <time>2021-05-01T10:34:15.493Z</time>
      </trkpt>
      <trkpt lat="44.89226" lon="-0.08946">
        <ele>59</ele>
        <time>2021-05-01T10:34:21.494Z</time>
      </trkpt>
      <trkpt lat="44.89225" lon="-0.08948">
        <ele>60</ele>
        <time>2021-05-01T10:34:23.493Z</time>
      </trkpt>
      <trkpt lat="44.8922" lon="-0.08955">
        <ele>61</ele>
        <time>2021-05-01T10:34:30.494Z</time>
      </trkpt>
      <trkpt lat="44.89216" lon="-0.08965">
        <ele>61</ele>
        <time>2021-05-01T10:34:38.494Z</time>
      </trkpt>
      <trkpt lat="44.89216" lon="-0.08969">
        <ele>61</ele>
        <time>2021-05-01T10:34:41.494Z</time>
      </trkpt>
      <trkpt lat="44.89215" lon="-0.08974">
        <ele>62</ele>
        <time>2021-05-01T10:34:45.493Z</time>
      </trkpt>
      <trkpt lat="44.89214" lon="-0.08985">
        <ele>63</ele>
        <time>2021-05-01T10:34:52.493Z</time>
      </trkpt>
      <trkpt lat="44.8921" lon="-0.09001">
        <ele>65</ele>
        <time>2021-05-01T10:34:59.493Z</time>
      </trkpt>
      <trkpt lat="44.89209" lon="-0.09014">
        <ele>63</ele>
        <time>2021-05-01T10:35:06.493Z</time>
      </trkpt>
      <trkpt lat="44.8921" lon="-0.09023">
        <ele>60</ele>
        <time>2021-05-01T10:35:11.494Z</time>
      </trkpt>
      <trkpt lat="44.8921" lon="-0.09031">
        <ele>61</ele>
        <time>2021-05-01T10:35:15.494Z</time>
      </trkpt>
      <trkpt lat="44.89208" lon="-0.09037">
        <ele>61</ele>
        <time>2021-05-01T10:35:18.494Z</time>
      </trkpt>
      <trkpt lat="44.89205" lon="-0.09051">
        <ele>61</ele>
        <time>2021-05-01T10:35:25.494Z</time>
      </trkpt>
      <trkpt lat="44.89199" lon="-0.09066">
        <ele>62</ele>
        <time>2021-05-01T10:35:33.494Z</time>
      </trkpt>
      <trkpt lat="44.89187" lon="-0.09087">
        <ele>65</ele>
        <time>2021-05-01T10:35:46.494Z</time>
      </trkpt>
      <trkpt lat="44.89169" lon="-0.09104">
        <ele>66</ele>
        <time>2021-05-01T10:36:01.494Z</time>
      </trkpt>
      <trkpt lat="44.89166" lon="-0.09106">
        <ele>66</ele>
        <time>2021-05-01T10:36:04.494Z</time>
      </trkpt>
      <trkpt lat="44.89152" lon="-0.09122">
        <ele>61</ele>
        <time>2021-05-01T10:36:19.494Z</time>
      </trkpt>
      <trkpt lat="44.89145" lon="-0.09132">
        <ele>60</ele>
        <time>2021-05-01T10:36:27.494Z</time>
      </trkpt>
      <trkpt lat="44.89138" lon="-0.09148">
        <ele>63</ele>
        <time>2021-05-01T10:36:37.494Z</time>
      </trkpt>
      <trkpt lat="44.89138" lon="-0.0915">
        <ele>63</ele>
        <time>2021-05-01T10:36:39.494Z</time>
      </trkpt>
      <trkpt lat="44.89134" lon="-0.09168">
        <ele>62</ele>
        <time>2021-05-01T10:36:51.494Z</time>
      </trkpt>
      <trkpt lat="44.89134" lon="-0.09176">
        <ele>61</ele>
        <time>2021-05-01T10:37:00.494Z</time>
      </trkpt>
      <trkpt lat="44.89135" lon="-0.09171">
        <ele>58</ele>
        <time>2021-05-01T10:37:05.493Z</time>
      </trkpt>
      <trkpt lat="44.89134" lon="-0.09172">
        <ele>58</ele>
        <time>2021-05-01T10:37:08.494Z</time>
      </trkpt>
      <trkpt lat="44.89134" lon="-0.09174">
        <ele>58</ele>
        <time>2021-05-01T10:37:10.494Z</time>
      </trkpt>
      <trkpt lat="44.89131" lon="-0.09187">
        <ele>59</ele>
        <time>2021-05-01T10:37:17.493Z</time>
      </trkpt>
      <trkpt lat="44.89131" lon="-0.09194">
        <ele>59</ele>
        <time>2021-05-01T10:37:21.493Z</time>
      </trkpt>
      <trkpt lat="44.89129" lon="-0.09208">
        <ele>62</ele>
        <time>2021-05-01T10:37:28.493Z</time>
      </trkpt>
      <trkpt lat="44.89131" lon="-0.09218">
        <ele>63</ele>
        <time>2021-05-01T10:37:35.494Z</time>
      </trkpt>
      <trkpt lat="44.89131" lon="-0.09237">
        <ele>65</ele>
        <time>2021-05-01T10:37:45.494Z</time>
      </trkpt>
      <trkpt lat="44.89126" lon="-0.09271">
        <ele>72</ele>
        <time>2021-05-01T10:38:09.494Z</time>
      </trkpt>
      <trkpt lat="44.89126" lon="-0.09272">
        <ele>72</ele>
        <time>2021-05-01T10:38:14.493Z</time>
      </trkpt>
      <trkpt lat="44.89125" lon="-0.09277">
        <ele>69</ele>
        <time>2021-05-01T10:38:20.494Z</time>
      </trkpt>
      <trkpt lat="44.89123" lon="-0.09296">
        <ele>68</ele>
        <time>2021-05-01T10:38:31.493Z</time>
      </trkpt>
      <trkpt lat="44.89123" lon="-0.09328">
        <ele>64</ele>
        <time>2021-05-01T10:38:47.494Z</time>
      </trkpt>
      <trkpt lat="44.8912" lon="-0.09348">
        <ele>67</ele>
        <time>2021-05-01T10:38:58.493Z</time>
      </trkpt>
      <trkpt lat="44.89121" lon="-0.09352">
        <ele>68</ele>
        <time>2021-05-01T10:39:01.494Z</time>
      </trkpt>
      <trkpt lat="44.8912" lon="-0.09356">
        <ele>68</ele>
        <time>2021-05-01T10:39:03.494Z</time>
      </trkpt>
      <trkpt lat="44.89119" lon="-0.09382">
        <ele>67</ele>
        <time>2021-05-01T10:39:18.494Z</time>
      </trkpt>
      <trkpt lat="44.89118" lon="-0.0939">
        <ele>67</ele>
        <time>2021-05-01T10:39:21.494Z</time>
      </trkpt>
      <trkpt lat="44.89118" lon="-0.094">
        <ele>68</ele>
        <time>2021-05-01T10:39:27.493Z</time>
      </trkpt>
      <trkpt lat="44.89115" lon="-0.09416">
        <ele>67</ele>
        <time>2021-05-01T10:39:35.494Z</time>
      </trkpt>
      <trkpt lat="44.89109" lon="-0.0943">
        <ele>66</ele>
        <time>2021-05-01T10:39:44.494Z</time>
      </trkpt>
      <trkpt lat="44.89099" lon="-0.09447">
        <ele>65</ele>
        <time>2021-05-01T10:39:56.494Z</time>
      </trkpt>
      <trkpt lat="44.89094" lon="-0.0946">
        <ele>64</ele>
        <time>2021-05-01T10:40:06.494Z</time>
      </trkpt>
      <trkpt lat="44.8909" lon="-0.09466">
        <ele>62</ele>
        <time>2021-05-01T10:40:10.494Z</time>
      </trkpt>
      <trkpt lat="44.89088" lon="-0.09473">
        <ele>62</ele>
        <time>2021-05-01T10:40:13.494Z</time>
      </trkpt>
      <trkpt lat="44.89084" lon="-0.09479">
        <ele>62</ele>
        <time>2021-05-01T10:40:18.494Z</time>
      </trkpt>
      <trkpt lat="44.89081" lon="-0.09485">
        <ele>61</ele>
        <time>2021-05-01T10:40:22.494Z</time>
      </trkpt>
      <trkpt lat="44.89075" lon="-0.09489">
        <ele>60</ele>
        <time>2021-05-01T10:40:31.494Z</time>
      </trkpt>
      <trkpt lat="44.89069" lon="-0.09499">
        <ele>61</ele>
        <time>2021-05-01T10:40:46.494Z</time>
      </trkpt>
      <trkpt lat="44.89067" lon="-0.09498">
        <ele>62</ele>
        <time>2021-05-01T10:40:49.494Z</time>
      </trkpt>
      <trkpt lat="44.89068" lon="-0.095">
        <ele>56</ele>
        <time>2021-05-01T10:41:00.494Z</time>
      </trkpt>
      <trkpt lat="44.8906" lon="-0.09521">
        <ele>54</ele>
        <time>2021-05-01T10:41:22.493Z</time>
      </trkpt>
      <trkpt lat="44.89059" lon="-0.09534">
        <ele>52</ele>
        <time>2021-05-01T10:41:31.493Z</time>
      </trkpt>
      <trkpt lat="44.89056" lon="-0.09546">
        <ele>52</ele>
        <time>2021-05-01T10:41:36.494Z</time>
      </trkpt>
      <trkpt lat="44.89056" lon="-0.09552">
        <ele>51</ele>
        <time>2021-05-01T10:41:39.494Z</time>
      </trkpt>
      <trkpt lat="44.89047" lon="-0.09578">
        <ele>58</ele>
        <time>2021-05-01T10:41:54.494Z</time>
      </trkpt>
      <trkpt lat="44.89047" lon="-0.09583">
        <ele>57</ele>
        <time>2021-05-01T10:41:56.493Z</time>
      </trkpt>
      <trkpt lat="44.89048" lon="-0.09584">
        <ele>56</ele>
        <time>2021-05-01T10:41:57.494Z</time>
      </trkpt>
      <trkpt lat="44.89046" lon="-0.096">
        <ele>57</ele>
        <time>2021-05-01T10:42:06.493Z</time>
      </trkpt>
      <trkpt lat="44.89047" lon="-0.09601">
        <ele>55</ele>
        <time>2021-05-01T10:42:08.493Z</time>
      </trkpt>
      <trkpt lat="44.89136" lon="-0.09574">
        <ele>56</ele>
        <time>2021-05-01T10:42:10.494Z</time>
      </trkpt>
      <trkpt lat="44.89139" lon="-0.09571">
        <ele>54</ele>
        <time>2021-05-01T10:42:15.494Z</time>
      </trkpt>
      <trkpt lat="44.89142" lon="-0.0957">
        <ele>55</ele>
        <time>2021-05-01T10:42:18.494Z</time>
      </trkpt>
      <trkpt lat="44.89161" lon="-0.09553">
        <ele>54</ele>
        <time>2021-05-01T10:42:41.442Z</time>
      </trkpt>
      <trkpt lat="44.89167" lon="-0.09549">
        <ele>54</ele>
        <time>2021-05-01T10:42:45.443Z</time>
      </trkpt>
      <trkpt lat="44.89174" lon="-0.09543">
        <ele>55</ele>
        <time>2021-05-01T10:42:52.443Z</time>
      </trkpt>
      <trkpt lat="44.89185" lon="-0.09538">
        <ele>56</ele>
        <time>2021-05-01T10:43:00.443Z</time>
      </trkpt>
      <trkpt lat="44.89197" lon="-0.09527">
        <ele>59</ele>
        <time>2021-05-01T10:43:15.443Z</time>
      </trkpt>
      <trkpt lat="44.89195" lon="-0.09528">
        <ele>57</ele>
        <time>2021-05-01T10:43:22.443Z</time>
      </trkpt>
      <trkpt lat="44.89195" lon="-0.09527">
        <ele>58</ele>
        <time>2021-05-01T10:43:25.442Z</time>
      </trkpt>
      <trkpt lat="44.89194" lon="-0.09528">
        <ele>59</ele>
        <time>2021-05-01T10:43:40.443Z</time>
      </trkpt>
      <trkpt lat="44.89195" lon="-0.09528">
        <ele>58</ele>
        <time>2021-05-01T10:44:05.443Z</time>
      </trkpt>
      <trkpt lat="44.89194" lon="-0.09528">
        <ele>58</ele>
        <time>2021-05-01T10:44:11.442Z</time>
      </trkpt>
      <trkpt lat="44.892" lon="-0.09545">
        <ele>59</ele>
        <time>2021-05-01T10:44:21.443Z</time>
      </trkpt>
      <trkpt lat="44.892" lon="-0.09549">
        <ele>59</ele>
        <time>2021-05-01T10:44:23.443Z</time>
      </trkpt>
      <trkpt lat="44.89202" lon="-0.09552">
        <ele>61</ele>
        <time>2021-05-01T10:44:26.443Z</time>
      </trkpt>
      <trkpt lat="44.89203" lon="-0.09557">
        <ele>61</ele>
        <time>2021-05-01T10:44:29.443Z</time>
      </trkpt>
      <trkpt lat="44.89208" lon="-0.09564">
        <ele>62</ele>
        <time>2021-05-01T10:44:34.443Z</time>
      </trkpt>
      <trkpt lat="44.89211" lon="-0.09566">
        <ele>61</ele>
        <time>2021-05-01T10:44:36.443Z</time>
      </trkpt>
      <trkpt lat="44.89214" lon="-0.09567">
        <ele>60</ele>
        <time>2021-05-01T10:44:38.443Z</time>
      </trkpt>
      <trkpt lat="44.89229" lon="-0.0956">
        <ele>56</ele>
        <time>2021-05-01T10:44:49.443Z</time>
      </trkpt>
      <trkpt lat="44.89233" lon="-0.09554">
        <ele>56</ele>
        <time>2021-05-01T10:44:55.443Z</time>
      </trkpt>
      <trkpt lat="44.89238" lon="-0.0955">
        <ele>56</ele>
        <time>2021-05-01T10:45:06.443Z</time>
      </trkpt>
      <trkpt lat="44.89238" lon="-0.09551">
        <ele>56</ele>
        <time>2021-05-01T10:45:08.443Z</time>
      </trkpt>
      <trkpt lat="44.8924" lon="-0.09548">
        <ele>55</ele>
        <time>2021-05-01T10:46:04.443Z</time>
      </trkpt>
      <trkpt lat="44.89239" lon="-0.09547">
        <ele>55</ele>
        <time>2021-05-01T10:46:31.443Z</time>
      </trkpt>
      <trkpt lat="44.89257" lon="-0.09521">
        <ele>55</ele>
        <time>2021-05-01T10:46:33.442Z</time>
      </trkpt>
      <trkpt lat="44.8927" lon="-0.09513">
        <ele>56</ele>
        <time>2021-05-01T10:46:42.443Z</time>
      </trkpt>
      <trkpt lat="44.89278" lon="-0.09502">
        <ele>55</ele>
        <time>2021-05-01T10:46:52.443Z</time>
      </trkpt>
      <trkpt lat="44.89284" lon="-0.09499">
        <ele>54</ele>
        <time>2021-05-01T10:46:56.443Z</time>
      </trkpt>
      <trkpt lat="44.89292" lon="-0.0949">
        <ele>54</ele>
        <time>2021-05-01T10:47:04.442Z</time>
      </trkpt>
      <trkpt lat="44.89296" lon="-0.09488">
        <ele>54</ele>
        <time>2021-05-01T10:47:07.443Z</time>
      </trkpt>
      <trkpt lat="44.89307" lon="-0.09476">
        <ele>55</ele>
        <time>2021-05-01T10:47:19.443Z</time>
      </trkpt>
      <trkpt lat="44.89312" lon="-0.09473">
        <ele>56</ele>
        <time>2021-05-01T10:47:24.442Z</time>
      </trkpt>
      <trkpt lat="44.89314" lon="-0.09475">
        <ele>58</ele>
        <time>2021-05-01T10:47:28.443Z</time>
      </trkpt>
      <trkpt lat="44.89313" lon="-0.0948">
        <ele>61</ele>
        <time>2021-05-01T10:47:33.443Z</time>
      </trkpt>
      <trkpt lat="44.89312" lon="-0.0948">
        <ele>62</ele>
        <time>2021-05-01T10:47:36.443Z</time>
      </trkpt>
      <trkpt lat="44.89313" lon="-0.0948">
        <ele>61</ele>
        <time>2021-05-01T10:47:47.442Z</time>
      </trkpt>
      <trkpt lat="44.89314" lon="-0.09496">
        <ele>59</ele>
        <time>2021-05-01T10:47:57.442Z</time>
      </trkpt>
      <trkpt lat="44.89313" lon="-0.09499">
        <ele>58</ele>
        <time>2021-05-01T10:48:00.443Z</time>
      </trkpt>
      <trkpt lat="44.89315" lon="-0.09506">
        <ele>55</ele>
        <time>2021-05-01T10:48:05.443Z</time>
      </trkpt>
      <trkpt lat="44.89315" lon="-0.09531">
        <ele>52</ele>
        <time>2021-05-01T10:48:18.442Z</time>
      </trkpt>
      <trkpt lat="44.8932" lon="-0.09556">
        <ele>53</ele>
        <time>2021-05-01T10:48:31.443Z</time>
      </trkpt>
      <trkpt lat="44.89321" lon="-0.09577">
        <ele>50</ele>
        <time>2021-05-01T10:48:40.443Z</time>
      </trkpt>
      <trkpt lat="44.89321" lon="-0.09597">
        <ele>45</ele>
        <time>2021-05-01T10:48:49.443Z</time>
      </trkpt>
      <trkpt lat="44.89324" lon="-0.09618">
        <ele>46</ele>
        <time>2021-05-01T10:49:00.442Z</time>
      </trkpt>
      <trkpt lat="44.89323" lon="-0.09626">
        <ele>44</ele>
        <time>2021-05-01T10:49:04.442Z</time>
      </trkpt>
      <trkpt lat="44.89324" lon="-0.09628">
        <ele>43</ele>
        <time>2021-05-01T10:49:05.443Z</time>
      </trkpt>
      <trkpt lat="44.89324" lon="-0.09647">
        <ele>42</ele>
        <time>2021-05-01T10:49:15.443Z</time>
      </trkpt>
      <trkpt lat="44.89325" lon="-0.0965">
        <ele>44</ele>
        <time>2021-05-01T10:49:18.443Z</time>
      </trkpt>
      <trkpt lat="44.89326" lon="-0.0965">
        <ele>47</ele>
        <time>2021-05-01T10:49:23.443Z</time>
      </trkpt>
      <trkpt lat="44.89325" lon="-0.09649">
        <ele>48</ele>
        <time>2021-05-01T10:49:27.443Z</time>
      </trkpt>
      <trkpt lat="44.89325" lon="-0.09673">
        <ele>47</ele>
        <time>2021-05-01T10:49:48.443Z</time>
      </trkpt>
      <trkpt lat="44.89324" lon="-0.0968">
        <ele>47</ele>
        <time>2021-05-01T10:49:52.443Z</time>
      </trkpt>
      <trkpt lat="44.89322" lon="-0.09712">
        <ele>48</ele>
        <time>2021-05-01T10:50:07.443Z</time>
      </trkpt>
      <trkpt lat="44.89322" lon="-0.09718">
        <ele>48</ele>
        <time>2021-05-01T10:50:10.443Z</time>
      </trkpt>
      <trkpt lat="44.89322" lon="-0.09723">
        <ele>50</ele>
        <time>2021-05-01T10:50:13.443Z</time>
      </trkpt>
      <trkpt lat="44.8932" lon="-0.09723">
        <ele>50</ele>
        <time>2021-05-01T10:50:19.442Z</time>
      </trkpt>
      <trkpt lat="44.89322" lon="-0.09737">
        <ele>43</ele>
        <time>2021-05-01T10:50:21.442Z</time>
      </trkpt>
      <trkpt lat="44.89322" lon="-0.09756">
        <ele>44</ele>
        <time>2021-05-01T10:50:35.443Z</time>
      </trkpt>
      <trkpt lat="44.89318" lon="-0.09779">
        <ele>46</ele>
        <time>2021-05-01T10:50:44.443Z</time>
      </trkpt>
      <trkpt lat="44.89315" lon="-0.09792">
        <ele>48</ele>
        <time>2021-05-01T10:50:51.443Z</time>
      </trkpt>
      <trkpt lat="44.89316" lon="-0.09798">
        <ele>51</ele>
        <time>2021-05-01T10:50:56.443Z</time>
      </trkpt>
      <trkpt lat="44.89313" lon="-0.09807">
        <ele>52</ele>
        <time>2021-05-01T10:51:00.443Z</time>
      </trkpt>
      <trkpt lat="44.89313" lon="-0.09818">
        <ele>49</ele>
        <time>2021-05-01T10:51:09.442Z</time>
      </trkpt>
      <trkpt lat="44.89312" lon="-0.09829">
        <ele>48</ele>
        <time>2021-05-01T10:51:16.443Z</time>
      </trkpt>
      <trkpt lat="44.89312" lon="-0.09833">
        <ele>48</ele>
        <time>2021-05-01T10:51:18.443Z</time>
      </trkpt>
      <trkpt lat="44.8931" lon="-0.09845">
        <ele>50</ele>
        <time>2021-05-01T10:51:25.443Z</time>
      </trkpt>
      <trkpt lat="44.89311" lon="-0.09854">
        <ele>54</ele>
        <time>2021-05-01T10:51:31.442Z</time>
      </trkpt>
      <trkpt lat="44.89309" lon="-0.09881">
        <ele>60</ele>
        <time>2021-05-01T10:51:47.443Z</time>
      </trkpt>
      <trkpt lat="44.89308" lon="-0.09915">
        <ele>56</ele>
        <time>2021-05-01T10:52:08.442Z</time>
      </trkpt>
      <trkpt lat="44.89306" lon="-0.0993">
        <ele>58</ele>
        <time>2021-05-01T10:52:16.443Z</time>
      </trkpt>
      <trkpt lat="44.89307" lon="-0.09943">
        <ele>63</ele>
        <time>2021-05-01T10:52:26.443Z</time>
      </trkpt>
      <trkpt lat="44.89306" lon="-0.09961">
        <ele>63</ele>
        <time>2021-05-01T10:52:39.442Z</time>
      </trkpt>
      <trkpt lat="44.89308" lon="-0.09971">
        <ele>65</ele>
        <time>2021-05-01T10:52:47.443Z</time>
      </trkpt>
      <trkpt lat="44.89313" lon="-0.09978">
        <ele>64</ele>
        <time>2021-05-01T10:52:55.443Z</time>
      </trkpt>
      <trkpt lat="44.89324" lon="-0.09983">
        <ele>63</ele>
        <time>2021-05-01T10:53:08.443Z</time>
      </trkpt>
      <trkpt lat="44.89325" lon="-0.09983">
        <ele>63</ele>
        <time>2021-05-01T10:53:10.443Z</time>
      </trkpt>
      <trkpt lat="44.89325" lon="-0.09984">
        <ele>63</ele>
        <time>2021-05-01T10:53:11.443Z</time>
      </trkpt>
      <trkpt lat="44.89332" lon="-0.09987">
        <ele>64</ele>
        <time>2021-05-01T10:53:19.442Z</time>
      </trkpt>
      <trkpt lat="44.89336" lon="-0.09987">
        <ele>66</ele>
        <time>2021-05-01T10:53:23.443Z</time>
      </trkpt>
      <trkpt lat="44.89333" lon="-0.09987">
        <ele>66</ele>
        <time>2021-05-01T10:53:32.443Z</time>
      </trkpt>
      <trkpt lat="44.89337" lon="-0.09987">
        <ele>67</ele>
        <time>2021-05-01T10:54:08.443Z</time>
      </trkpt>
      <trkpt lat="44.89331" lon="-0.10159">
        <ele>76</ele>
        <time>2021-05-01T10:54:19.442Z</time>
      </trkpt>
      <trkpt lat="44.89328" lon="-0.10174">
        <ele>76</ele>
        <time>2021-05-01T10:54:29.443Z</time>
      </trkpt>
      <trkpt lat="44.89324" lon="-0.10186">
        <ele>74</ele>
        <time>2021-05-01T10:54:38.442Z</time>
      </trkpt>
      <trkpt lat="44.89319" lon="-0.10208">
        <ele>74</ele>
        <time>2021-05-01T10:54:50.443Z</time>
      </trkpt>
      <trkpt lat="44.89312" lon="-0.10231">
        <ele>71</ele>
        <time>2021-05-01T10:55:03.442Z</time>
      </trkpt>
      <trkpt lat="44.89312" lon="-0.10242">
        <ele>66</ele>
        <time>2021-05-01T10:55:17.443Z</time>
      </trkpt>
      <trkpt lat="44.89312" lon="-0.10241">
        <ele>65</ele>
        <time>2021-05-01T10:55:21.443Z</time>
      </trkpt>
      <trkpt lat="44.89309" lon="-0.10243">
        <ele>65</ele>
        <time>2021-05-01T10:55:25.443Z</time>
      </trkpt>
      <trkpt lat="44.89304" lon="-0.10268">
        <ele>68</ele>
        <time>2021-05-01T11:09:34.322Z</time>
      </trkpt>
      <trkpt lat="44.89296" lon="-0.10288">
        <ele>68</ele>
        <time>2021-05-01T11:09:47.322Z</time>
      </trkpt>
      <trkpt lat="44.89297" lon="-0.10291">
        <ele>68</ele>
        <time>2021-05-01T11:09:53.321Z</time>
      </trkpt>
      <trkpt lat="44.89299" lon="-0.1029">
        <ele>71</ele>
        <time>2021-05-01T11:09:55.323Z</time>
      </trkpt>
      <trkpt lat="44.89283" lon="-0.10293">
        <ele>71</ele>
        <time>2021-05-01T11:10:08.323Z</time>
      </trkpt>
      <trkpt lat="44.89271" lon="-0.10288">
        <ele>71</ele>
        <time>2021-05-01T11:10:16.322Z</time>
      </trkpt>
      <trkpt lat="44.89255" lon="-0.10288">
        <ele>69</ele>
        <time>2021-05-01T11:11:52.216Z</time>
      </trkpt>
      <trkpt lat="44.89245" lon="-0.10292">
        <ele>70</ele>
        <time>2021-05-01T11:12:00.217Z</time>
      </trkpt>
      <trkpt lat="44.8924" lon="-0.10292">
        <ele>71</ele>
        <time>2021-05-01T11:12:03.217Z</time>
      </trkpt>
      <trkpt lat="44.89235" lon="-0.10296">
        <ele>73</ele>
        <time>2021-05-01T11:12:08.216Z</time>
      </trkpt>
      <trkpt lat="44.89232" lon="-0.10296">
        <ele>73</ele>
        <time>2021-05-01T11:12:10.217Z</time>
      </trkpt>
      <trkpt lat="44.89226" lon="-0.10299">
        <ele>74</ele>
        <time>2021-05-01T11:12:14.217Z</time>
      </trkpt>
      <trkpt lat="44.89217" lon="-0.10311">
        <ele>72</ele>
        <time>2021-05-01T11:12:25.216Z</time>
      </trkpt>
      <trkpt lat="44.89213" lon="-0.10314">
        <ele>72</ele>
        <time>2021-05-01T11:12:31.217Z</time>
      </trkpt>
      <trkpt lat="44.89202" lon="-0.1033">
        <ele>74</ele>
        <time>2021-05-01T11:12:41.216Z</time>
      </trkpt>
      <trkpt lat="44.89195" lon="-0.10338">
        <ele>76</ele>
        <time>2021-05-01T11:12:48.217Z</time>
      </trkpt>
      <trkpt lat="44.89184" lon="-0.10354">
        <ele>77</ele>
        <time>2021-05-01T11:13:00.217Z</time>
      </trkpt>
      <trkpt lat="44.89178" lon="-0.10362">
        <ele>77</ele>
        <time>2021-05-01T11:13:06.217Z</time>
      </trkpt>
      <trkpt lat="44.89168" lon="-0.10378">
        <ele>78</ele>
        <time>2021-05-01T11:13:18.216Z</time>
      </trkpt>
      <trkpt lat="44.89156" lon="-0.10394">
        <ele>78</ele>
        <time>2021-05-01T11:13:30.216Z</time>
      </trkpt>
      <trkpt lat="44.89148" lon="-0.10402">
        <ele>79</ele>
        <time>2021-05-01T11:13:36.217Z</time>
      </trkpt>
      <trkpt lat="44.89139" lon="-0.10416">
        <ele>78</ele>
        <time>2021-05-01T11:13:45.217Z</time>
      </trkpt>
      <trkpt lat="44.89136" lon="-0.10419">
        <ele>77</ele>
        <time>2021-05-01T11:13:48.217Z</time>
      </trkpt>
      <trkpt lat="44.89132" lon="-0.10427">
        <ele>78</ele>
        <time>2021-05-01T11:13:53.217Z</time>
      </trkpt>
      <trkpt lat="44.8913" lon="-0.10428">
        <ele>79</ele>
        <time>2021-05-01T11:13:56.217Z</time>
      </trkpt>
      <trkpt lat="44.89112" lon="-0.10446">
        <ele>84</ele>
        <time>2021-05-01T11:14:13.216Z</time>
      </trkpt>
      <trkpt lat="44.89106" lon="-0.1045">
        <ele>86</ele>
        <time>2021-05-01T11:14:18.217Z</time>
      </trkpt>
      <trkpt lat="44.89093" lon="-0.10454">
        <ele>88</ele>
        <time>2021-05-01T11:14:27.217Z</time>
      </trkpt>
      <trkpt lat="44.89088" lon="-0.10458">
        <ele>90</ele>
        <time>2021-05-01T11:14:31.217Z</time>
      </trkpt>
      <trkpt lat="44.89087" lon="-0.10457">
        <ele>90</ele>
        <time>2021-05-01T11:14:32.216Z</time>
      </trkpt>
      <trkpt lat="44.89069" lon="-0.10468">
        <ele>86</ele>
        <time>2021-05-01T11:14:46.217Z</time>
      </trkpt>
      <trkpt lat="44.89057" lon="-0.1048">
        <ele>84</ele>
        <time>2021-05-01T11:14:58.217Z</time>
      </trkpt>
      <trkpt lat="44.89045" lon="-0.10483">
        <ele>84</ele>
        <time>2021-05-01T11:15:08.217Z</time>
      </trkpt>
      <trkpt lat="44.89026" lon="-0.10498">
        <ele>85</ele>
        <time>2021-05-01T11:15:23.217Z</time>
      </trkpt>
      <trkpt lat="44.89022" lon="-0.105">
        <ele>85</ele>
        <time>2021-05-01T11:15:26.217Z</time>
      </trkpt>
      <trkpt lat="44.89011" lon="-0.10508">
        <ele>83</ele>
        <time>2021-05-01T11:15:34.217Z</time>
      </trkpt>
      <trkpt lat="44.89004" lon="-0.10511">
        <ele>83</ele>
        <time>2021-05-01T11:15:39.217Z</time>
      </trkpt>
      <trkpt lat="44.88996" lon="-0.10517">
        <ele>80</ele>
        <time>2021-05-01T11:15:45.217Z</time>
      </trkpt>
      <trkpt lat="44.88995" lon="-0.10519">
        <ele>79</ele>
        <time>2021-05-01T11:15:46.217Z</time>
      </trkpt>
      <trkpt lat="44.88983" lon="-0.10518">
        <ele>80</ele>
        <time>2021-05-01T11:15:54.217Z</time>
      </trkpt>
      <trkpt lat="44.88961" lon="-0.10521">
        <ele>83</ele>
        <time>2021-05-01T11:16:07.217Z</time>
      </trkpt>
      <trkpt lat="44.88956" lon="-0.1052">
        <ele>85</ele>
        <time>2021-05-01T11:16:10.217Z</time>
      </trkpt>
      <trkpt lat="44.88934" lon="-0.10522">
        <ele>87</ele>
        <time>2021-05-01T11:16:25.216Z</time>
      </trkpt>
      <trkpt lat="44.88909" lon="-0.10527">
        <ele>89</ele>
        <time>2021-05-01T11:16:43.217Z</time>
      </trkpt>
      <trkpt lat="44.88903" lon="-0.10526">
        <ele>88</ele>
        <time>2021-05-01T11:16:48.217Z</time>
      </trkpt>
      <trkpt lat="44.88902" lon="-0.10528">
        <ele>86</ele>
        <time>2021-05-01T11:16:50.216Z</time>
      </trkpt>
      <trkpt lat="44.88895" lon="-0.10531">
        <ele>84</ele>
        <time>2021-05-01T11:16:55.216Z</time>
      </trkpt>
      <trkpt lat="44.88889" lon="-0.1053">
        <ele>85</ele>
        <time>2021-05-01T11:16:59.216Z</time>
      </trkpt>
      <trkpt lat="44.88871" lon="-0.10535">
        <ele>88</ele>
        <time>2021-05-01T11:17:11.216Z</time>
      </trkpt>
      <trkpt lat="44.88866" lon="-0.10535">
        <ele>88</ele>
        <time>2021-05-01T11:17:17.217Z</time>
      </trkpt>
      <trkpt lat="44.88864" lon="-0.10536">
        <ele>87</ele>
        <time>2021-05-01T11:17:19.216Z</time>
      </trkpt>
      <trkpt lat="44.88857" lon="-0.10536">
        <ele>86</ele>
        <time>2021-05-01T11:17:23.216Z</time>
      </trkpt>
      <trkpt lat="44.88845" lon="-0.10544">
        <ele>83</ele>
        <time>2021-05-01T11:17:33.217Z</time>
      </trkpt>
      <trkpt lat="44.88825" lon="-0.10531">
        <ele>81</ele>
        <time>2021-05-01T11:17:34.216Z</time>
      </trkpt>
      <trkpt lat="44.88806" lon="-0.10541">
        <ele>81</ele>
        <time>2021-05-01T11:17:46.216Z</time>
      </trkpt>
      <trkpt lat="44.88801" lon="-0.10545">
        <ele>81</ele>
        <time>2021-05-01T11:17:51.216Z</time>
      </trkpt>
      <trkpt lat="44.88792" lon="-0.10547">
        <ele>82</ele>
        <time>2021-05-01T11:17:58.216Z</time>
      </trkpt>
      <trkpt lat="44.88786" lon="-0.10552">
        <ele>83</ele>
        <time>2021-05-01T11:18:03.216Z</time>
      </trkpt>
      <trkpt lat="44.88784" lon="-0.1055">
        <ele>84</ele>
        <time>2021-05-01T11:18:05.216Z</time>
      </trkpt>
      <trkpt lat="44.88774" lon="-0.10554">
        <ele>85</ele>
        <time>2021-05-01T11:18:12.216Z</time>
      </trkpt>
      <trkpt lat="44.88767" lon="-0.10559">
        <ele>84</ele>
        <time>2021-05-01T11:18:17.216Z</time>
      </trkpt>
      <trkpt lat="44.88764" lon="-0.1056">
        <ele>84</ele>
        <time>2021-05-01T11:18:19.216Z</time>
      </trkpt>
      <trkpt lat="44.88748" lon="-0.10566">
        <ele>86</ele>
        <time>2021-05-01T11:18:30.216Z</time>
      </trkpt>
      <trkpt lat="44.88733" lon="-0.10575">
        <ele>82</ele>
        <time>2021-05-01T11:18:41.216Z</time>
      </trkpt>
      <trkpt lat="44.88711" lon="-0.10598">
        <ele>83</ele>
        <time>2021-05-01T11:18:59.216Z</time>
      </trkpt>
      <trkpt lat="44.88684" lon="-0.10632">
        <ele>79</ele>
        <time>2021-05-01T11:19:23.216Z</time>
      </trkpt>
      <trkpt lat="44.88679" lon="-0.1064">
        <ele>80</ele>
        <time>2021-05-01T11:19:29.216Z</time>
      </trkpt>
      <trkpt lat="44.88678" lon="-0.10643">
        <ele>81</ele>
        <time>2021-05-01T11:19:32.216Z</time>
      </trkpt>
      <trkpt lat="44.88675" lon="-0.10646">
        <ele>81</ele>
        <time>2021-05-01T11:19:36.216Z</time>
      </trkpt>
      <trkpt lat="44.88671" lon="-0.10651">
        <ele>81</ele>
        <time>2021-05-01T11:19:40.216Z</time>
      </trkpt>
      <trkpt lat="44.88665" lon="-0.10658">
        <ele>80</ele>
        <time>2021-05-01T11:19:45.216Z</time>
      </trkpt>
      <trkpt lat="44.88659" lon="-0.10667">
        <ele>79</ele>
        <time>2021-05-01T11:19:53.216Z</time>
      </trkpt>
      <trkpt lat="44.8866" lon="-0.10666">
        <ele>79</ele>
        <time>2021-05-01T11:20:00.216Z</time>
      </trkpt>
      <trkpt lat="44.88659" lon="-0.10666">
        <ele>79</ele>
        <time>2021-05-01T11:20:22.216Z</time>
      </trkpt>
      <trkpt lat="44.88669" lon="-0.10696">
        <ele>77</ele>
        <time>2021-05-01T11:20:51.216Z</time>
      </trkpt>
      <trkpt lat="44.8867" lon="-0.10696">
        <ele>78</ele>
        <time>2021-05-01T11:20:56.216Z</time>
      </trkpt>
      <trkpt lat="44.8867" lon="-0.10698">
        <ele>78</ele>
        <time>2021-05-01T11:21:02.216Z</time>
      </trkpt>
      <trkpt lat="44.88671" lon="-0.10697">
        <ele>82</ele>
        <time>2021-05-01T11:22:00.216Z</time>
      </trkpt>
      <trkpt lat="44.88674" lon="-0.1071">
        <ele>79</ele>
        <time>2021-05-01T11:22:31.216Z</time>
      </trkpt>
      <trkpt lat="44.88676" lon="-0.10712">
        <ele>79</ele>
        <time>2021-05-01T11:22:33.216Z</time>
      </trkpt>
      <trkpt lat="44.88676" lon="-0.10716">
        <ele>74</ele>
        <time>2021-05-01T11:22:55.216Z</time>
      </trkpt>
      <trkpt lat="44.88684" lon="-0.10735">
        <ele>78</ele>
        <time>2021-05-01T11:23:05.216Z</time>
      </trkpt>
      <trkpt lat="44.88693" lon="-0.10751">
        <ele>81</ele>
        <time>2021-05-01T11:23:15.216Z</time>
      </trkpt>
      <trkpt lat="44.88695" lon="-0.10753">
        <ele>82</ele>
        <time>2021-05-01T11:23:18.216Z</time>
      </trkpt>
      <trkpt lat="44.88695" lon="-0.10757">
        <ele>83</ele>
        <time>2021-05-01T11:23:28.216Z</time>
      </trkpt>
      <trkpt lat="44.88695" lon="-0.10756">
        <ele>87</ele>
        <time>2021-05-01T11:23:47.216Z</time>
      </trkpt>
      <trkpt lat="44.88703" lon="-0.1078">
        <ele>86</ele>
        <time>2021-05-01T11:24:00.216Z</time>
      </trkpt>
      <trkpt lat="44.88708" lon="-0.10787">
        <ele>85</ele>
        <time>2021-05-01T11:24:14.957Z</time>
      </trkpt>
      <trkpt lat="44.88708" lon="-0.1079">
        <ele>85</ele>
        <time>2021-05-01T11:24:16.957Z</time>
      </trkpt>
      <trkpt lat="44.88717" lon="-0.1081">
        <ele>87</ele>
        <time>2021-05-01T11:24:29.957Z</time>
      </trkpt>
      <trkpt lat="44.8872" lon="-0.10818">
        <ele>88</ele>
        <time>2021-05-01T11:24:37.595Z</time>
      </trkpt>
      <trkpt lat="44.88727" lon="-0.10831">
        <ele>90</ele>
        <time>2021-05-01T11:24:46.595Z</time>
      </trkpt>
      <trkpt lat="44.8873" lon="-0.10842">
        <ele>90</ele>
        <time>2021-05-01T11:24:52.595Z</time>
      </trkpt>
      <trkpt lat="44.88732" lon="-0.10844">
        <ele>90</ele>
        <time>2021-05-01T11:24:54.595Z</time>
      </trkpt>
      <trkpt lat="44.88733" lon="-0.10851">
        <ele>91</ele>
        <time>2021-05-01T11:24:57.595Z</time>
      </trkpt>
      <trkpt lat="44.88737" lon="-0.10859">
        <ele>93</ele>
        <time>2021-05-01T11:25:02.595Z</time>
      </trkpt>
      <trkpt lat="44.88738" lon="-0.10861">
        <ele>93</ele>
        <time>2021-05-01T11:25:03.595Z</time>
      </trkpt>
      <trkpt lat="44.88751" lon="-0.10887">
        <ele>90</ele>
        <time>2021-05-01T11:25:19.595Z</time>
      </trkpt>
      <trkpt lat="44.88761" lon="-0.10904">
        <ele>92</ele>
        <time>2021-05-01T11:25:30.595Z</time>
      </trkpt>
      <trkpt lat="44.88765" lon="-0.10912">
        <ele>93</ele>
        <time>2021-05-01T11:25:35.595Z</time>
      </trkpt>
      <trkpt lat="44.88788" lon="-0.10954">
        <ele>88</ele>
        <time>2021-05-01T11:26:02.595Z</time>
      </trkpt>
      <trkpt lat="44.8879" lon="-0.10956">
        <ele>88</ele>
        <time>2021-05-01T11:26:04.595Z</time>
      </trkpt>
      <trkpt lat="44.88795" lon="-0.10966">
        <ele>88</ele>
        <time>2021-05-01T11:26:10.595Z</time>
      </trkpt>
      <trkpt lat="44.88803" lon="-0.10978">
        <ele>86</ele>
        <time>2021-05-01T11:26:18.595Z</time>
      </trkpt>
      <trkpt lat="44.88813" lon="-0.11">
        <ele>84</ele>
        <time>2021-05-01T11:26:31.595Z</time>
      </trkpt>
      <trkpt lat="44.8882" lon="-0.11009">
        <ele>84</ele>
        <time>2021-05-01T11:26:38.595Z</time>
      </trkpt>
      <trkpt lat="44.88822" lon="-0.11014">
        <ele>84</ele>
        <time>2021-05-01T11:26:41.595Z</time>
      </trkpt>
      <trkpt lat="44.88828" lon="-0.1102">
        <ele>85</ele>
        <time>2021-05-01T11:26:46.595Z</time>
      </trkpt>
      <trkpt lat="44.88833" lon="-0.11028">
        <ele>86</ele>
        <time>2021-05-01T11:26:51.595Z</time>
      </trkpt>
      <trkpt lat="44.88834" lon="-0.11032">
        <ele>86</ele>
        <time>2021-05-01T11:26:53.595Z</time>
      </trkpt>
      <trkpt lat="44.88843" lon="-0.11047">
        <ele>84</ele>
        <time>2021-05-01T11:27:02.595Z</time>
      </trkpt>
      <trkpt lat="44.88844" lon="-0.11053">
        <ele>84</ele>
        <time>2021-05-01T11:27:04.595Z</time>
      </trkpt>
      <trkpt lat="44.88852" lon="-0.11066">
        <ele>85</ele>
        <time>2021-05-01T11:27:12.595Z</time>
      </trkpt>
      <trkpt lat="44.88856" lon="-0.1107">
        <ele>86</ele>
        <time>2021-05-01T11:27:15.595Z</time>
      </trkpt>
      <trkpt lat="44.88877" lon="-0.11108">
        <ele>82</ele>
        <time>2021-05-01T11:28:12.168Z</time>
      </trkpt>
      <trkpt lat="44.88882" lon="-0.11119">
        <ele>80</ele>
        <time>2021-05-01T11:28:18.168Z</time>
      </trkpt>
      <trkpt lat="44.88887" lon="-0.11128">
        <ele>79</ele>
        <time>2021-05-01T11:28:24.168Z</time>
      </trkpt>
      <trkpt lat="44.88889" lon="-0.11134">
        <ele>79</ele>
        <time>2021-05-01T11:28:27.168Z</time>
      </trkpt>
      <trkpt lat="44.88897" lon="-0.11146">
        <ele>78</ele>
        <time>2021-05-01T11:28:34.168Z</time>
      </trkpt>
      <trkpt lat="44.88906" lon="-0.11168">
        <ele>79</ele>
        <time>2021-05-01T11:28:44.168Z</time>
      </trkpt>
      <trkpt lat="44.8891" lon="-0.11173">
        <ele>78</ele>
        <time>2021-05-01T11:28:48.168Z</time>
      </trkpt>
      <trkpt lat="44.88917" lon="-0.11192">
        <ele>76</ele>
        <time>2021-05-01T11:28:57.168Z</time>
      </trkpt>
      <trkpt lat="44.88929" lon="-0.11212">
        <ele>75</ele>
        <time>2021-05-01T11:29:08.168Z</time>
      </trkpt>
      <trkpt lat="44.88932" lon="-0.11215">
        <ele>76</ele>
        <time>2021-05-01T11:29:11.168Z</time>
      </trkpt>
      <trkpt lat="44.88936" lon="-0.11222">
        <ele>76</ele>
        <time>2021-05-01T11:29:15.168Z</time>
      </trkpt>
      <trkpt lat="44.88941" lon="-0.11229">
        <ele>76</ele>
        <time>2021-05-01T11:29:20.168Z</time>
      </trkpt>
      <trkpt lat="44.88947" lon="-0.11239">
        <ele>77</ele>
        <time>2021-05-01T11:29:26.168Z</time>
      </trkpt>
      <trkpt lat="44.8895" lon="-0.11243">
        <ele>76</ele>
        <time>2021-05-01T11:29:29.168Z</time>
      </trkpt>
      <trkpt lat="44.88964" lon="-0.11271">
        <ele>76</ele>
        <time>2021-05-01T11:29:46.168Z</time>
      </trkpt>
      <trkpt lat="44.88969" lon="-0.11278">
        <ele>75</ele>
        <time>2021-05-01T11:29:51.168Z</time>
      </trkpt>
      <trkpt lat="44.88974" lon="-0.11291">
        <ele>76</ele>
        <time>2021-05-01T11:30:02.168Z</time>
      </trkpt>
      <trkpt lat="44.88973" lon="-0.11291">
        <ele>76</ele>
        <time>2021-05-01T11:30:04.168Z</time>
      </trkpt>
      <trkpt lat="44.88972" lon="-0.1129">
        <ele>78</ele>
        <time>2021-05-01T11:30:07.168Z</time>
      </trkpt>
      <trkpt lat="44.88957" lon="-0.113">
        <ele>78</ele>
        <time>2021-05-01T11:30:22.168Z</time>
      </trkpt>
      <trkpt lat="44.88945" lon="-0.11307">
        <ele>77</ele>
        <time>2021-05-01T11:30:31.168Z</time>
      </trkpt>
      <trkpt lat="44.88926" lon="-0.11314">
        <ele>77</ele>
        <time>2021-05-01T11:30:44.168Z</time>
      </trkpt>
      <trkpt lat="44.88909" lon="-0.11324">
        <ele>79</ele>
        <time>2021-05-01T11:30:56.168Z</time>
      </trkpt>
      <trkpt lat="44.88896" lon="-0.11328">
        <ele>77</ele>
        <time>2021-05-01T11:31:06.168Z</time>
      </trkpt>
      <trkpt lat="44.88893" lon="-0.11331">
        <ele>77</ele>
        <time>2021-05-01T11:31:09.168Z</time>
      </trkpt>
      <trkpt lat="44.8888" lon="-0.11337">
        <ele>76</ele>
        <time>2021-05-01T11:31:19.168Z</time>
      </trkpt>
      <trkpt lat="44.8887" lon="-0.11345">
        <ele>76</ele>
        <time>2021-05-01T11:31:28.168Z</time>
      </trkpt>
      <trkpt lat="44.8885" lon="-0.11355">
        <ele>79</ele>
        <time>2021-05-01T11:31:44.168Z</time>
      </trkpt>
      <trkpt lat="44.88844" lon="-0.11363">
        <ele>78</ele>
        <time>2021-05-01T11:31:52.168Z</time>
      </trkpt>
      <trkpt lat="44.88833" lon="-0.1137">
        <ele>77</ele>
        <time>2021-05-01T11:32:01.168Z</time>
      </trkpt>
      <trkpt lat="44.88824" lon="-0.11371">
        <ele>78</ele>
        <time>2021-05-01T11:32:08.168Z</time>
      </trkpt>
      <trkpt lat="44.88802" lon="-0.11383">
        <ele>81</ele>
        <time>2021-05-01T11:32:23.168Z</time>
      </trkpt>
      <trkpt lat="44.88793" lon="-0.11385">
        <ele>80</ele>
        <time>2021-05-01T11:32:29.168Z</time>
      </trkpt>
      <trkpt lat="44.88783" lon="-0.11384">
        <ele>81</ele>
        <time>2021-05-01T11:32:36.168Z</time>
      </trkpt>
      <trkpt lat="44.8876" lon="-0.11389">
        <ele>83</ele>
        <time>2021-05-01T11:32:51.168Z</time>
      </trkpt>
      <trkpt lat="44.8872" lon="-0.11412">
        <ele>73</ele>
        <time>2021-05-01T11:33:22.168Z</time>
      </trkpt>
      <trkpt lat="44.88717" lon="-0.11416">
        <ele>73</ele>
        <time>2021-05-01T11:33:25.168Z</time>
      </trkpt>
      <trkpt lat="44.88706" lon="-0.11421">
        <ele>74</ele>
        <time>2021-05-01T11:33:37.168Z</time>
      </trkpt>
      <trkpt lat="44.88705" lon="-0.11423">
        <ele>75</ele>
        <time>2021-05-01T11:33:42.168Z</time>
      </trkpt>
      <trkpt lat="44.88703" lon="-0.11422">
        <ele>75</ele>
        <time>2021-05-01T11:33:46.168Z</time>
      </trkpt>
      <trkpt lat="44.88698" lon="-0.11423">
        <ele>76</ele>
        <time>2021-05-01T11:33:51.168Z</time>
      </trkpt>
      <trkpt lat="44.88697" lon="-0.11424">
        <ele>76</ele>
        <time>2021-05-01T11:33:54.168Z</time>
      </trkpt>
      <trkpt lat="44.88701" lon="-0.11427">
        <ele>75</ele>
        <time>2021-05-01T11:33:56.169Z</time>
      </trkpt>
      <trkpt lat="44.88697" lon="-0.11417">
        <ele>74</ele>
        <time>2021-05-01T11:34:02.170Z</time>
      </trkpt>
      <trkpt lat="44.88694" lon="-0.11415">
        <ele>75</ele>
        <time>2021-05-01T11:34:05.170Z</time>
      </trkpt>
      <trkpt lat="44.88689" lon="-0.11416">
        <ele>75</ele>
        <time>2021-05-01T11:34:09.170Z</time>
      </trkpt>
      <trkpt lat="44.88684" lon="-0.11419">
        <ele>77</ele>
        <time>2021-05-01T11:34:14.170Z</time>
      </trkpt>
      <trkpt lat="44.88676" lon="-0.11429">
        <ele>75</ele>
        <time>2021-05-01T11:34:23.169Z</time>
      </trkpt>
      <trkpt lat="44.8868" lon="-0.11428">
        <ele>75</ele>
        <time>2021-05-01T11:34:29.170Z</time>
      </trkpt>
      <trkpt lat="44.88679" lon="-0.11427">
        <ele>72</ele>
        <time>2021-05-01T11:34:34.170Z</time>
      </trkpt>
      <trkpt lat="44.88663" lon="-0.1144">
        <ele>73</ele>
        <time>2021-05-01T11:34:59.169Z</time>
      </trkpt>
      <trkpt lat="44.88648" lon="-0.11466">
        <ele>79</ele>
        <time>2021-05-01T11:35:17.170Z</time>
      </trkpt>
      <trkpt lat="44.88639" lon="-0.11479">
        <ele>84</ele>
        <time>2021-05-01T11:35:27.170Z</time>
      </trkpt>
      <trkpt lat="44.88626" lon="-0.11506">
        <ele>81</ele>
        <time>2021-05-01T11:35:44.170Z</time>
      </trkpt>
      <trkpt lat="44.88619" lon="-0.11515">
        <ele>82</ele>
        <time>2021-05-01T11:35:54.170Z</time>
      </trkpt>
      <trkpt lat="44.88619" lon="-0.1152">
        <ele>83</ele>
        <time>2021-05-01T11:36:00.169Z</time>
      </trkpt>
      <trkpt lat="44.88618" lon="-0.11519">
        <ele>84</ele>
        <time>2021-05-01T11:36:08.170Z</time>
      </trkpt>
      <trkpt lat="44.8862" lon="-0.11519">
        <ele>80</ele>
        <time>2021-05-01T11:36:13.170Z</time>
      </trkpt>
      <trkpt lat="44.886" lon="-0.11558">
        <ele>82</ele>
        <time>2021-05-01T11:36:44.169Z</time>
      </trkpt>
      <trkpt lat="44.88596" lon="-0.11562">
        <ele>82</ele>
        <time>2021-05-01T11:36:47.170Z</time>
      </trkpt>
      <trkpt lat="44.88577" lon="-0.11594">
        <ele>84</ele>
        <time>2021-05-01T11:37:07.170Z</time>
      </trkpt>
      <trkpt lat="44.88554" lon="-0.11637">
        <ele>83</ele>
        <time>2021-05-01T11:37:34.169Z</time>
      </trkpt>
      <trkpt lat="44.8855" lon="-0.11643">
        <ele>84</ele>
        <time>2021-05-01T11:37:38.170Z</time>
      </trkpt>
      <trkpt lat="44.88534" lon="-0.11673">
        <ele>82</ele>
        <time>2021-05-01T11:37:57.170Z</time>
      </trkpt>
      <trkpt lat="44.88528" lon="-0.11683">
        <ele>84</ele>
        <time>2021-05-01T11:38:04.169Z</time>
      </trkpt>
      <trkpt lat="44.88522" lon="-0.11697">
        <ele>85</ele>
        <time>2021-05-01T11:38:13.170Z</time>
      </trkpt>
      <trkpt lat="44.88523" lon="-0.11706">
        <ele>86</ele>
        <time>2021-05-01T11:38:20.169Z</time>
      </trkpt>
      <trkpt lat="44.88552" lon="-0.11731">
        <ele>81</ele>
        <time>2021-05-01T11:38:24.171Z</time>
      </trkpt>
      <trkpt lat="44.88555" lon="-0.11732">
        <ele>82</ele>
        <time>2021-05-01T11:38:29.170Z</time>
      </trkpt>
      <trkpt lat="44.88556" lon="-0.11731">
        <ele>83</ele>
        <time>2021-05-01T11:38:32.171Z</time>
      </trkpt>
      <trkpt lat="44.88572" lon="-0.11746">
        <ele>82</ele>
        <time>2021-05-01T11:38:48.171Z</time>
      </trkpt>
      <trkpt lat="44.88575" lon="-0.11751">
        <ele>82</ele>
        <time>2021-05-01T11:38:51.171Z</time>
      </trkpt>
      <trkpt lat="44.88586" lon="-0.11761">
        <ele>82</ele>
        <time>2021-05-01T11:38:59.171Z</time>
      </trkpt>
      <trkpt lat="44.88604" lon="-0.11773">
        <ele>79</ele>
        <time>2021-05-01T11:39:12.171Z</time>
      </trkpt>
      <trkpt lat="44.88629" lon="-0.11798">
        <ele>78</ele>
        <time>2021-05-01T11:39:33.171Z</time>
      </trkpt>
      <trkpt lat="44.88645" lon="-0.11809">
        <ele>74</ele>
        <time>2021-05-01T11:39:45.171Z</time>
      </trkpt>
      <trkpt lat="44.88646" lon="-0.11811">
        <ele>75</ele>
        <time>2021-05-01T11:39:47.171Z</time>
      </trkpt>
      <trkpt lat="44.88652" lon="-0.11815">
        <ele>78</ele>
        <time>2021-05-01T11:39:55.171Z</time>
      </trkpt>
      <trkpt lat="44.88652" lon="-0.11813">
        <ele>78</ele>
        <time>2021-05-01T11:39:59.171Z</time>
      </trkpt>
      <trkpt lat="44.88653" lon="-0.11813">
        <ele>78</ele>
        <time>2021-05-01T11:40:01.171Z</time>
      </trkpt>
      <trkpt lat="44.88653" lon="-0.11816">
        <ele>76</ele>
        <time>2021-05-01T11:40:06.170Z</time>
      </trkpt>
      <trkpt lat="44.88664" lon="-0.11823">
        <ele>74</ele>
        <time>2021-05-01T11:40:08.171Z</time>
      </trkpt>
      <trkpt lat="44.88657" lon="-0.11819">
        <ele>74</ele>
        <time>2021-05-01T11:40:12.171Z</time>
      </trkpt>
      <trkpt lat="44.88638" lon="-0.11837">
        <ele>74</ele>
        <time>2021-05-01T11:40:27.171Z</time>
      </trkpt>
      <trkpt lat="44.8863" lon="-0.1185">
        <ele>75</ele>
        <time>2021-05-01T11:40:36.172Z</time>
      </trkpt>
      <trkpt lat="44.88621" lon="-0.11861">
        <ele>76</ele>
        <time>2021-05-01T11:40:44.171Z</time>
      </trkpt>
      <trkpt lat="44.88617" lon="-0.11867">
        <ele>76</ele>
        <time>2021-05-01T11:40:48.171Z</time>
      </trkpt>
      <trkpt lat="44.88612" lon="-0.11873">
        <ele>76</ele>
        <time>2021-05-01T11:40:52.172Z</time>
      </trkpt>
      <trkpt lat="44.8861" lon="-0.11878">
        <ele>76</ele>
        <time>2021-05-01T11:40:55.172Z</time>
      </trkpt>
      <trkpt lat="44.88606" lon="-0.11883">
        <ele>75</ele>
        <time>2021-05-01T11:40:59.172Z</time>
      </trkpt>
      <trkpt lat="44.88602" lon="-0.1189">
        <ele>75</ele>
        <time>2021-05-01T11:41:03.172Z</time>
      </trkpt>
      <trkpt lat="44.88598" lon="-0.11902">
        <ele>74</ele>
        <time>2021-05-01T11:41:09.171Z</time>
      </trkpt>
      <trkpt lat="44.88593" lon="-0.11912">
        <ele>72</ele>
        <time>2021-05-01T11:41:15.172Z</time>
      </trkpt>
      <trkpt lat="44.88588" lon="-0.11917">
        <ele>73</ele>
        <time>2021-05-01T11:41:19.172Z</time>
      </trkpt>
      <trkpt lat="44.88585" lon="-0.11923">
        <ele>74</ele>
        <time>2021-05-01T11:41:22.172Z</time>
      </trkpt>
      <trkpt lat="44.88583" lon="-0.11926">
        <ele>74</ele>
        <time>2021-05-01T11:41:24.172Z</time>
      </trkpt>
      <trkpt lat="44.88575" lon="-0.11941">
        <ele>73</ele>
        <time>2021-05-01T11:41:34.171Z</time>
      </trkpt>
      <trkpt lat="44.88571" lon="-0.11945">
        <ele>73</ele>
        <time>2021-05-01T11:41:38.171Z</time>
      </trkpt>
      <trkpt lat="44.88569" lon="-0.11955">
        <ele>73</ele>
        <time>2021-05-01T11:41:43.171Z</time>
      </trkpt>
      <trkpt lat="44.88561" lon="-0.11966">
        <ele>76</ele>
        <time>2021-05-01T11:41:51.172Z</time>
      </trkpt>
      <trkpt lat="44.88559" lon="-0.1197">
        <ele>77</ele>
        <time>2021-05-01T11:41:54.172Z</time>
      </trkpt>
      <trkpt lat="44.88551" lon="-0.11981">
        <ele>77</ele>
        <time>2021-05-01T11:42:01.171Z</time>
      </trkpt>
      <trkpt lat="44.88549" lon="-0.1199">
        <ele>77</ele>
        <time>2021-05-01T11:42:06.172Z</time>
      </trkpt>
      <trkpt lat="44.88546" lon="-0.11995">
        <ele>76</ele>
        <time>2021-05-01T11:42:09.172Z</time>
      </trkpt>
      <trkpt lat="44.88543" lon="-0.11996">
        <ele>76</ele>
        <time>2021-05-01T11:42:11.172Z</time>
      </trkpt>
      <trkpt lat="44.88538" lon="-0.12003">
        <ele>77</ele>
        <time>2021-05-01T11:42:16.171Z</time>
      </trkpt>
      <trkpt lat="44.88534" lon="-0.12015">
        <ele>77</ele>
        <time>2021-05-01T11:42:23.172Z</time>
      </trkpt>
      <trkpt lat="44.88515" lon="-0.12051">
        <ele>77</ele>
        <time>2021-05-01T11:42:46.172Z</time>
      </trkpt>
      <trkpt lat="44.88506" lon="-0.12059">
        <ele>77</ele>
        <time>2021-05-01T11:42:54.172Z</time>
      </trkpt>
      <trkpt lat="44.88501" lon="-0.12061">
        <ele>78</ele>
        <time>2021-05-01T11:42:58.172Z</time>
      </trkpt>
      <trkpt lat="44.88493" lon="-0.12062">
        <ele>76</ele>
        <time>2021-05-01T11:43:05.171Z</time>
      </trkpt>
      <trkpt lat="44.88491" lon="-0.12063">
        <ele>75</ele>
        <time>2021-05-01T11:43:07.171Z</time>
      </trkpt>
      <trkpt lat="44.88482" lon="-0.12063">
        <ele>74</ele>
        <time>2021-05-01T11:43:14.172Z</time>
      </trkpt>
      <trkpt lat="44.88458" lon="-0.12069">
        <ele>75</ele>
        <time>2021-05-01T11:43:33.172Z</time>
      </trkpt>
      <trkpt lat="44.88456" lon="-0.12071">
        <ele>75</ele>
        <time>2021-05-01T11:43:35.171Z</time>
      </trkpt>
      <trkpt lat="44.88448" lon="-0.12072">
        <ele>75</ele>
        <time>2021-05-01T11:43:41.171Z</time>
      </trkpt>
      <trkpt lat="44.88445" lon="-0.12075">
        <ele>75</ele>
        <time>2021-05-01T11:47:55.835Z</time>
      </trkpt>
      <trkpt lat="44.88438" lon="-0.12077">
        <ele>75</ele>
        <time>2021-05-01T11:48:00.835Z</time>
      </trkpt>
      <trkpt lat="44.88429" lon="-0.12082">
        <ele>76</ele>
        <time>2021-05-01T11:48:08.835Z</time>
      </trkpt>
      <trkpt lat="44.88422" lon="-0.12083">
        <ele>75</ele>
        <time>2021-05-01T11:48:13.835Z</time>
      </trkpt>
      <trkpt lat="44.88412" lon="-0.1209">
        <ele>77</ele>
        <time>2021-05-01T11:48:22.835Z</time>
      </trkpt>
      <trkpt lat="44.88397" lon="-0.12097">
        <ele>84</ele>
        <time>2021-05-01T11:48:37.835Z</time>
      </trkpt>
      <trkpt lat="44.88397" lon="-0.12104">
        <ele>85</ele>
        <time>2021-05-01T11:48:50.834Z</time>
      </trkpt>
      <trkpt lat="44.88402" lon="-0.12123">
        <ele>83</ele>
        <time>2021-05-01T11:49:01.835Z</time>
      </trkpt>
      <trkpt lat="44.88409" lon="-0.12136">
        <ele>80</ele>
        <time>2021-05-01T11:49:09.834Z</time>
      </trkpt>
      <trkpt lat="44.8841" lon="-0.12142">
        <ele>80</ele>
        <time>2021-05-01T11:49:12.835Z</time>
      </trkpt>
      <trkpt lat="44.88424" lon="-0.12177">
        <ele>82</ele>
        <time>2021-05-01T11:49:31.835Z</time>
      </trkpt>
      <trkpt lat="44.88429" lon="-0.12196">
        <ele>81</ele>
        <time>2021-05-01T11:49:42.835Z</time>
      </trkpt>
      <trkpt lat="44.88428" lon="-0.12203">
        <ele>80</ele>
        <time>2021-05-01T11:49:47.834Z</time>
      </trkpt>
      <trkpt lat="44.88424" lon="-0.12206">
        <ele>77</ele>
        <time>2021-05-01T11:49:57.834Z</time>
      </trkpt>
      <trkpt lat="44.8842" lon="-0.12204">
        <ele>78</ele>
        <time>2021-05-01T11:50:01.835Z</time>
      </trkpt>
      <trkpt lat="44.88416" lon="-0.12205">
        <ele>78</ele>
        <time>2021-05-01T11:50:05.834Z</time>
      </trkpt>
      <trkpt lat="44.88412" lon="-0.12205">
        <ele>78</ele>
        <time>2021-05-01T11:50:08.835Z</time>
      </trkpt>
      <trkpt lat="44.88406" lon="-0.12206">
        <ele>80</ele>
        <time>2021-05-01T11:50:13.835Z</time>
      </trkpt>
      <trkpt lat="44.88403" lon="-0.12208">
        <ele>79</ele>
        <time>2021-05-01T11:50:16.835Z</time>
      </trkpt>
      <trkpt lat="44.8839" lon="-0.12211">
        <ele>78</ele>
        <time>2021-05-01T11:50:27.835Z</time>
      </trkpt>
      <trkpt lat="44.88382" lon="-0.1221">
        <ele>78</ele>
        <time>2021-05-01T11:50:33.835Z</time>
      </trkpt>
      <trkpt lat="44.88371" lon="-0.12204">
        <ele>82</ele>
        <time>2021-05-01T11:50:42.835Z</time>
      </trkpt>
      <trkpt lat="44.88365" lon="-0.12203">
        <ele>81</ele>
        <time>2021-05-01T11:50:47.835Z</time>
      </trkpt>
      <trkpt lat="44.88359" lon="-0.12204">
        <ele>79</ele>
        <time>2021-05-01T11:50:52.834Z</time>
      </trkpt>
      <trkpt lat="44.88356" lon="-0.12205">
        <ele>78</ele>
        <time>2021-05-01T11:50:54.834Z</time>
      </trkpt>
      <trkpt lat="44.88353" lon="-0.12211">
        <ele>77</ele>
        <time>2021-05-01T11:50:58.834Z</time>
      </trkpt>
      <trkpt lat="44.88357" lon="-0.12208">
        <ele>81</ele>
        <time>2021-05-01T11:51:00.834Z</time>
      </trkpt>
      <trkpt lat="44.88353" lon="-0.12208">
        <ele>81</ele>
        <time>2021-05-01T11:51:07.835Z</time>
      </trkpt>
      <trkpt lat="44.88332" lon="-0.12215">
        <ele>81</ele>
        <time>2021-05-01T11:51:19.834Z</time>
      </trkpt>
      <trkpt lat="44.8833" lon="-0.1222">
        <ele>81</ele>
        <time>2021-05-01T11:51:22.834Z</time>
      </trkpt>
      <trkpt lat="44.88326" lon="-0.12223">
        <ele>79</ele>
        <time>2021-05-01T11:51:26.835Z</time>
      </trkpt>
      <trkpt lat="44.88319" lon="-0.12227">
        <ele>79</ele>
        <time>2021-05-01T11:51:31.835Z</time>
      </trkpt>
      <trkpt lat="44.88298" lon="-0.12244">
        <ele>82</ele>
        <time>2021-05-01T11:51:49.835Z</time>
      </trkpt>
      <trkpt lat="44.88285" lon="-0.12259">
        <ele>83</ele>
        <time>2021-05-01T11:52:01.834Z</time>
      </trkpt>
      <trkpt lat="44.88284" lon="-0.12263">
        <ele>83</ele>
        <time>2021-05-01T11:52:03.835Z</time>
      </trkpt>
      <trkpt lat="44.88284" lon="-0.12274">
        <ele>83</ele>
        <time>2021-05-01T11:52:09.835Z</time>
      </trkpt>
      <trkpt lat="44.88293" lon="-0.12314">
        <ele>84</ele>
        <time>2021-05-01T11:52:29.834Z</time>
      </trkpt>
      <trkpt lat="44.88295" lon="-0.12317">
        <ele>85</ele>
        <time>2021-05-01T11:52:31.834Z</time>
      </trkpt>
      <trkpt lat="44.88295" lon="-0.1233">
        <ele>88</ele>
        <time>2021-05-01T11:52:37.835Z</time>
      </trkpt>
      <trkpt lat="44.88293" lon="-0.12337">
        <ele>87</ele>
        <time>2021-05-01T11:52:41.835Z</time>
      </trkpt>
      <trkpt lat="44.88288" lon="-0.12349">
        <ele>86</ele>
        <time>2021-05-01T11:52:48.835Z</time>
      </trkpt>
      <trkpt lat="44.88287" lon="-0.12353">
        <ele>86</ele>
        <time>2021-05-01T11:52:51.835Z</time>
      </trkpt>
      <trkpt lat="44.88283" lon="-0.12361">
        <ele>85</ele>
        <time>2021-05-01T11:52:58.835Z</time>
      </trkpt>
      <trkpt lat="44.8828" lon="-0.12372">
        <ele>81</ele>
        <time>2021-05-01T11:53:06.835Z</time>
      </trkpt>
      <trkpt lat="44.88271" lon="-0.12384">
        <ele>79</ele>
        <time>2021-05-01T11:53:16.835Z</time>
      </trkpt>
      <trkpt lat="44.88256" lon="-0.12397">
        <ele>77</ele>
        <time>2021-05-01T11:53:29.835Z</time>
      </trkpt>
      <trkpt lat="44.8824" lon="-0.12407">
        <ele>81</ele>
        <time>2021-05-01T11:53:42.834Z</time>
      </trkpt>
      <trkpt lat="44.88234" lon="-0.12409">
        <ele>80</ele>
        <time>2021-05-01T11:53:46.835Z</time>
      </trkpt>
      <trkpt lat="44.88232" lon="-0.12412">
        <ele>79</ele>
        <time>2021-05-01T11:53:48.835Z</time>
      </trkpt>
      <trkpt lat="44.88224" lon="-0.12415">
        <ele>78</ele>
        <time>2021-05-01T11:53:54.835Z</time>
      </trkpt>
      <trkpt lat="44.88221" lon="-0.12415">
        <ele>78</ele>
        <time>2021-05-01T11:53:56.835Z</time>
      </trkpt>
      <trkpt lat="44.88215" lon="-0.12416">
        <ele>78</ele>
        <time>2021-05-01T11:54:00.835Z</time>
      </trkpt>
      <trkpt lat="44.88207" lon="-0.12424">
        <ele>76</ele>
        <time>2021-05-01T11:54:08.835Z</time>
      </trkpt>
      <trkpt lat="44.88204" lon="-0.12424">
        <ele>77</ele>
        <time>2021-05-01T11:54:10.835Z</time>
      </trkpt>
      <trkpt lat="44.88199" lon="-0.12419">
        <ele>78</ele>
        <time>2021-05-01T11:54:16.834Z</time>
      </trkpt>
      <trkpt lat="44.88191" lon="-0.12406">
        <ele>77</ele>
        <time>2021-05-01T11:54:26.835Z</time>
      </trkpt>
      <trkpt lat="44.88189" lon="-0.12397">
        <ele>75</ele>
        <time>2021-05-01T11:54:32.835Z</time>
      </trkpt>
      <trkpt lat="44.88187" lon="-0.12395">
        <ele>75</ele>
        <time>2021-05-01T11:54:35.834Z</time>
      </trkpt>
      <trkpt lat="44.88186" lon="-0.12396">
        <ele>76</ele>
        <time>2021-05-01T11:54:39.835Z</time>
      </trkpt>
      <trkpt lat="44.88185" lon="-0.12396">
        <ele>78</ele>
        <time>2021-05-01T11:54:42.835Z</time>
      </trkpt>
      <trkpt lat="44.88181" lon="-0.12399">
        <ele>81</ele>
        <time>2021-05-01T11:54:51.835Z</time>
      </trkpt>
      <trkpt lat="44.88181" lon="-0.12401">
        <ele>81</ele>
        <time>2021-05-01T11:54:54.834Z</time>
      </trkpt>
      <trkpt lat="44.88182" lon="-0.12398">
        <ele>83</ele>
        <time>2021-05-01T11:54:58.835Z</time>
      </trkpt>
      <trkpt lat="44.88181" lon="-0.124">
        <ele>79</ele>
        <time>2021-05-01T11:55:15.835Z</time>
      </trkpt>
      <trkpt lat="44.8818" lon="-0.12399">
        <ele>79</ele>
        <time>2021-05-01T11:55:20.835Z</time>
      </trkpt>
      <trkpt lat="44.88181" lon="-0.12397">
        <ele>78</ele>
        <time>2021-05-01T11:55:22.835Z</time>
      </trkpt>
      <trkpt lat="44.8818" lon="-0.12395">
        <ele>77</ele>
        <time>2021-05-01T11:55:25.835Z</time>
      </trkpt>
      <trkpt lat="44.88177" lon="-0.12393">
        <ele>75</ele>
        <time>2021-05-01T11:55:30.835Z</time>
      </trkpt>
      <trkpt lat="44.88176" lon="-0.12392">
        <ele>74</ele>
        <time>2021-05-01T11:55:32.834Z</time>
      </trkpt>
      <trkpt lat="44.88172" lon="-0.12392">
        <ele>73</ele>
        <time>2021-05-01T11:55:37.835Z</time>
      </trkpt>
      <trkpt lat="44.88173" lon="-0.12395">
        <ele>73</ele>
        <time>2021-05-01T11:55:39.834Z</time>
      </trkpt>
      <trkpt lat="44.88171" lon="-0.12394">
        <ele>74</ele>
        <time>2021-05-01T11:55:43.835Z</time>
      </trkpt>
      <trkpt lat="44.88171" lon="-0.12396">
        <ele>74</ele>
        <time>2021-05-01T11:55:47.834Z</time>
      </trkpt>
      <trkpt lat="44.88173" lon="-0.12397">
        <ele>77</ele>
        <time>2021-05-01T11:55:53.835Z</time>
      </trkpt>
      <trkpt lat="44.8817" lon="-0.12401">
        <ele>79</ele>
        <time>2021-05-01T11:56:00.834Z</time>
      </trkpt>
      <trkpt lat="44.8817" lon="-0.12404">
        <ele>81</ele>
        <time>2021-05-01T11:56:04.835Z</time>
      </trkpt>
      <trkpt lat="44.88174" lon="-0.12409">
        <ele>82</ele>
        <time>2021-05-01T11:56:12.835Z</time>
      </trkpt>
      <trkpt lat="44.88176" lon="-0.12415">
        <ele>82</ele>
        <time>2021-05-01T11:56:20.835Z</time>
      </trkpt>
      <trkpt lat="44.88176" lon="-0.12415">
        <ele>82</ele>
        <time>2021-05-01T11:56:22.835Z</time>
      </trkpt>
      <trkpt lat="44.88175" lon="-0.12412">
        <ele>82</ele>
        <time>2021-05-01T11:56:25.834Z</time>
      </trkpt>
      <trkpt lat="44.88176" lon="-0.12407">
        <ele>73</ele>
        <time>2021-05-01T11:56:26.834Z</time>
      </trkpt>
      <trkpt lat="44.88183" lon="-0.12423">
        <ele>73</ele>
        <time>2021-05-01T11:56:37.834Z</time>
      </trkpt>
      <trkpt lat="44.88182" lon="-0.12425">
        <ele>73</ele>
        <time>2021-05-01T11:56:38.834Z</time>
      </trkpt>
      <trkpt lat="44.88188" lon="-0.12437">
        <ele>77</ele>
        <time>2021-05-01T11:56:49.834Z</time>
      </trkpt>
      <trkpt lat="44.8819" lon="-0.12444">
        <ele>76</ele>
        <time>2021-05-01T11:56:56.834Z</time>
      </trkpt>
      <trkpt lat="44.88187" lon="-0.12443">
        <ele>77</ele>
        <time>2021-05-01T11:57:00.835Z</time>
      </trkpt>
      <trkpt lat="44.88187" lon="-0.12444">
        <ele>78</ele>
        <time>2021-05-01T11:57:03.834Z</time>
      </trkpt>
      <trkpt lat="44.88187" lon="-0.12443">
        <ele>78</ele>
        <time>2021-05-01T11:57:04.834Z</time>
      </trkpt>
      <trkpt lat="44.88186" lon="-0.12445">
        <ele>79</ele>
        <time>2021-05-01T11:57:08.834Z</time>
      </trkpt>
      <trkpt lat="44.88185" lon="-0.12445">
        <ele>80</ele>
        <time>2021-05-01T11:57:12.834Z</time>
      </trkpt>
      <trkpt lat="44.88185" lon="-0.12446">
        <ele>80</ele>
        <time>2021-05-01T11:57:19.834Z</time>
      </trkpt>
      <trkpt lat="44.88184" lon="-0.12445">
        <ele>79</ele>
        <time>2021-05-01T11:57:22.834Z</time>
      </trkpt>
      <trkpt lat="44.88186" lon="-0.12444">
        <ele>79</ele>
        <time>2021-05-01T11:57:25.834Z</time>
      </trkpt>
      <trkpt lat="44.88184" lon="-0.12441">
        <ele>78</ele>
        <time>2021-05-01T11:57:28.834Z</time>
      </trkpt>
      <trkpt lat="44.88183" lon="-0.12442">
        <ele>77</ele>
        <time>2021-05-01T11:57:33.834Z</time>
      </trkpt>
      <trkpt lat="44.88183" lon="-0.12441">
        <ele>77</ele>
        <time>2021-05-01T11:57:34.835Z</time>
      </trkpt>
      <trkpt lat="44.88176" lon="-0.12438">
        <ele>75</ele>
        <time>2021-05-01T11:57:43.834Z</time>
      </trkpt>
      <trkpt lat="44.88166" lon="-0.12412">
        <ele>73</ele>
        <time>2021-05-01T11:58:07.835Z</time>
      </trkpt>
      <trkpt lat="44.88159" lon="-0.12403">
        <ele>71</ele>
        <time>2021-05-01T11:58:19.834Z</time>
      </trkpt>
      <trkpt lat="44.88157" lon="-0.12401">
        <ele>69</ele>
        <time>2021-05-01T11:58:24.835Z</time>
      </trkpt>
      <trkpt lat="44.88154" lon="-0.12393">
        <ele>71</ele>
        <time>2021-05-01T11:58:34.834Z</time>
      </trkpt>
      <trkpt lat="44.88148" lon="-0.12382">
        <ele>70</ele>
        <time>2021-05-01T11:58:45.834Z</time>
      </trkpt>
      <trkpt lat="44.88133" lon="-0.12365">
        <ele>71</ele>
        <time>2021-05-01T11:59:02.834Z</time>
      </trkpt>
      <trkpt lat="44.88128" lon="-0.12356">
        <ele>70</ele>
        <time>2021-05-01T11:59:10.834Z</time>
      </trkpt>
      <trkpt lat="44.88122" lon="-0.12352">
        <ele>69</ele>
        <time>2021-05-01T11:59:16.835Z</time>
      </trkpt>
      <trkpt lat="44.8812" lon="-0.12348">
        <ele>71</ele>
        <time>2021-05-01T11:59:19.835Z</time>
      </trkpt>
      <trkpt lat="44.88112" lon="-0.12341">
        <ele>70</ele>
        <time>2021-05-01T11:59:25.834Z</time>
      </trkpt>
      <trkpt lat="44.88108" lon="-0.12344">
        <ele>69</ele>
        <time>2021-05-01T11:59:31.835Z</time>
      </trkpt>
      <trkpt lat="44.88108" lon="-0.12345">
        <ele>69</ele>
        <time>2021-05-01T11:59:33.834Z</time>
      </trkpt>
      <trkpt lat="44.88099" lon="-0.12347">
        <ele>67</ele>
        <time>2021-05-01T11:59:43.834Z</time>
      </trkpt>
      <trkpt lat="44.88105" lon="-0.12372">
        <ele>64</ele>
        <time>2021-05-01T11:59:59.834Z</time>
      </trkpt>
      <trkpt lat="44.88108" lon="-0.12382">
        <ele>67</ele>
        <time>2021-05-01T12:00:06.834Z</time>
      </trkpt>
      <trkpt lat="44.88112" lon="-0.12387">
        <ele>66</ele>
        <time>2021-05-01T12:00:11.835Z</time>
      </trkpt>
      <trkpt lat="44.88113" lon="-0.1239">
        <ele>66</ele>
        <time>2021-05-01T12:00:13.834Z</time>
      </trkpt>
      <trkpt lat="44.88112" lon="-0.12392">
        <ele>65</ele>
        <time>2021-05-01T12:00:15.835Z</time>
      </trkpt>
      <trkpt lat="44.88101" lon="-0.12395">
        <ele>63</ele>
        <time>2021-05-01T12:00:24.834Z</time>
      </trkpt>
      <trkpt lat="44.881" lon="-0.12397">
        <ele>62</ele>
        <time>2021-05-01T12:00:26.834Z</time>
      </trkpt>
      <trkpt lat="44.88066" lon="-0.12405">
        <ele>60</ele>
        <time>2021-05-01T12:00:51.834Z</time>
      </trkpt>
      <trkpt lat="44.88062" lon="-0.12404">
        <ele>60</ele>
        <time>2021-05-01T12:00:54.835Z</time>
      </trkpt>
      <trkpt lat="44.88061" lon="-0.12406">
        <ele>58</ele>
        <time>2021-05-01T12:00:56.834Z</time>
      </trkpt>
      <trkpt lat="44.88056" lon="-0.12408">
        <ele>58</ele>
        <time>2021-05-01T12:00:59.835Z</time>
      </trkpt>
      <trkpt lat="44.88055" lon="-0.1241">
        <ele>58</ele>
        <time>2021-05-01T12:01:01.835Z</time>
      </trkpt>
      <trkpt lat="44.88055" lon="-0.12417">
        <ele>58</ele>
        <time>2021-05-01T12:01:04.834Z</time>
      </trkpt>
      <trkpt lat="44.88059" lon="-0.12427">
        <ele>58</ele>
        <time>2021-05-01T12:01:11.834Z</time>
      </trkpt>
      <trkpt lat="44.88061" lon="-0.1243">
        <ele>56</ele>
        <time>2021-05-01T12:01:14.834Z</time>
      </trkpt>
      <trkpt lat="44.8806" lon="-0.12433">
        <ele>56</ele>
        <time>2021-05-01T12:01:17.834Z</time>
      </trkpt>
      <trkpt lat="44.88062" lon="-0.12434">
        <ele>56</ele>
        <time>2021-05-01T12:01:22.834Z</time>
      </trkpt>
      <trkpt lat="44.88077" lon="-0.12466">
        <ele>53</ele>
        <time>2021-05-01T12:01:47.834Z</time>
      </trkpt>
      <trkpt lat="44.88084" lon="-0.12474">
        <ele>51</ele>
        <time>2021-05-01T12:01:54.834Z</time>
      </trkpt>
      <trkpt lat="44.88089" lon="-0.12484">
        <ele>49</ele>
        <time>2021-05-01T12:02:00.834Z</time>
      </trkpt>
      <trkpt lat="44.88091" lon="-0.12491">
        <ele>49</ele>
        <time>2021-05-01T12:02:04.834Z</time>
      </trkpt>
      <trkpt lat="44.88094" lon="-0.12496">
        <ele>50</ele>
        <time>2021-05-01T12:02:07.834Z</time>
      </trkpt>
      <trkpt lat="44.88099" lon="-0.12512">
        <ele>50</ele>
        <time>2021-05-01T12:02:17.834Z</time>
      </trkpt>
      <trkpt lat="44.88108" lon="-0.12528">
        <ele>49</ele>
        <time>2021-05-01T12:02:29.835Z</time>
      </trkpt>
      <trkpt lat="44.88116" lon="-0.12553">
        <ele>45</ele>
        <time>2021-05-01T12:02:44.835Z</time>
      </trkpt>
      <trkpt lat="44.88118" lon="-0.12568">
        <ele>45</ele>
        <time>2021-05-01T12:02:53.834Z</time>
      </trkpt>
      <trkpt lat="44.88117" lon="-0.12584">
        <ele>43</ele>
        <time>2021-05-01T12:03:02.835Z</time>
      </trkpt>
      <trkpt lat="44.88118" lon="-0.12593">
        <ele>40</ele>
        <time>2021-05-01T12:03:07.834Z</time>
      </trkpt>
      <trkpt lat="44.88117" lon="-0.12627">
        <ele>34</ele>
        <time>2021-05-01T12:03:27.834Z</time>
      </trkpt>
      <trkpt lat="44.88119" lon="-0.12648">
        <ele>34</ele>
        <time>2021-05-01T12:03:39.834Z</time>
      </trkpt>
      <trkpt lat="44.88122" lon="-0.12659">
        <ele>32</ele>
        <time>2021-05-01T12:03:45.835Z</time>
      </trkpt>
      <trkpt lat="44.88124" lon="-0.1268">
        <ele>32</ele>
        <time>2021-05-01T12:03:56.835Z</time>
      </trkpt>
      <trkpt lat="44.88127" lon="-0.12696">
        <ele>31</ele>
        <time>2021-05-01T12:04:05.834Z</time>
      </trkpt>
      <trkpt lat="44.88143" lon="-0.12746">
        <ele>33</ele>
        <time>2021-05-01T12:04:34.834Z</time>
      </trkpt>
      <trkpt lat="44.88148" lon="-0.12756">
        <ele>32</ele>
        <time>2021-05-01T12:04:41.835Z</time>
      </trkpt>
      <trkpt lat="44.88153" lon="-0.12768">
        <ele>35</ele>
        <time>2021-05-01T12:04:49.834Z</time>
      </trkpt>
      <trkpt lat="44.8816" lon="-0.12779">
        <ele>36</ele>
        <time>2021-05-01T12:04:57.835Z</time>
      </trkpt>
      <trkpt lat="44.88162" lon="-0.128">
        <ele>39</ele>
        <time>2021-05-01T12:05:11.834Z</time>
      </trkpt>
      <trkpt lat="44.88163" lon="-0.128">
        <ele>35</ele>
        <time>2021-05-01T12:05:19.834Z</time>
      </trkpt>
      <trkpt lat="44.88163" lon="-0.12804">
        <ele>33</ele>
        <time>2021-05-01T12:05:24.834Z</time>
      </trkpt>
      <trkpt lat="44.88168" lon="-0.12808">
        <ele>32</ele>
        <time>2021-05-01T12:05:29.834Z</time>
      </trkpt>
      <trkpt lat="44.88174" lon="-0.12806">
        <ele>31</ele>
        <time>2021-05-01T12:05:33.834Z</time>
      </trkpt>
      <trkpt lat="44.88178" lon="-0.12803">
        <ele>30</ele>
        <time>2021-05-01T12:05:36.835Z</time>
      </trkpt>
      <trkpt lat="44.88182" lon="-0.12798">
        <ele>30</ele>
        <time>2021-05-01T12:05:40.834Z</time>
      </trkpt>
      <trkpt lat="44.88186" lon="-0.12796">
        <ele>30</ele>
        <time>2021-05-01T12:05:45.834Z</time>
      </trkpt>
      <trkpt lat="44.88184" lon="-0.12794">
        <ele>30</ele>
        <time>2021-05-01T12:05:51.835Z</time>
      </trkpt>
      <trkpt lat="44.88185" lon="-0.12795">
        <ele>31</ele>
        <time>2021-05-01T12:05:54.834Z</time>
      </trkpt>
      <trkpt lat="44.88173" lon="-0.12802">
        <ele>29</ele>
        <time>2021-05-01T12:05:57.835Z</time>
      </trkpt>
      <trkpt lat="44.88158" lon="-0.12821">
        <ele>27</ele>
        <time>2021-05-01T12:06:12.836Z</time>
      </trkpt>
      <trkpt lat="44.88154" lon="-0.12824">
        <ele>27</ele>
        <time>2021-05-01T12:06:16.836Z</time>
      </trkpt>
      <trkpt lat="44.88149" lon="-0.12831">
        <ele>28</ele>
        <time>2021-05-01T12:06:21.836Z</time>
      </trkpt>
      <trkpt lat="44.88146" lon="-0.12833">
        <ele>29</ele>
        <time>2021-05-01T12:06:24.836Z</time>
      </trkpt>
      <trkpt lat="44.88147" lon="-0.12839">
        <ele>31</ele>
        <time>2021-05-01T12:06:29.836Z</time>
      </trkpt>
      <trkpt lat="44.88155" lon="-0.12851">
        <ele>30</ele>
        <time>2021-05-01T12:06:38.836Z</time>
      </trkpt>
      <trkpt lat="44.88159" lon="-0.12862">
        <ele>32</ele>
        <time>2021-05-01T12:06:45.835Z</time>
      </trkpt>
      <trkpt lat="44.88162" lon="-0.12872">
        <ele>31</ele>
        <time>2021-05-01T12:06:53.836Z</time>
      </trkpt>
      <trkpt lat="44.88161" lon="-0.12872">
        <ele>26</ele>
        <time>2021-05-01T12:06:54.836Z</time>
      </trkpt>
      <trkpt lat="44.88172" lon="-0.12888">
        <ele>28</ele>
        <time>2021-05-01T12:07:04.837Z</time>
      </trkpt>
      <trkpt lat="44.88181" lon="-0.12891">
        <ele>28</ele>
        <time>2021-05-01T12:07:10.837Z</time>
      </trkpt>
      <trkpt lat="44.88185" lon="-0.1289">
        <ele>27</ele>
        <time>2021-05-01T12:07:13.837Z</time>
      </trkpt>
      <trkpt lat="44.88196" lon="-0.12891">
        <ele>28</ele>
        <time>2021-05-01T12:07:20.837Z</time>
      </trkpt>
      <trkpt lat="44.88204" lon="-0.12896">
        <ele>33</ele>
        <time>2021-05-01T12:07:31.837Z</time>
      </trkpt>
      <trkpt lat="44.88236" lon="-0.12898">
        <ele>30</ele>
        <time>2021-05-01T12:07:57.837Z</time>
      </trkpt>
      <trkpt lat="44.88246" lon="-0.12901">
        <ele>30</ele>
        <time>2021-05-01T12:08:04.836Z</time>
      </trkpt>
      <trkpt lat="44.88259" lon="-0.12903">
        <ele>34</ele>
        <time>2021-05-01T12:08:16.836Z</time>
      </trkpt>
      <trkpt lat="44.88265" lon="-0.12901">
        <ele>34</ele>
        <time>2021-05-01T12:08:22.836Z</time>
      </trkpt>
      <trkpt lat="44.88275" lon="-0.12901">
        <ele>34</ele>
        <time>2021-05-01T12:08:31.837Z</time>
      </trkpt>
      <trkpt lat="44.88292" lon="-0.12898">
        <ele>37</ele>
        <time>2021-05-01T12:08:44.837Z</time>
      </trkpt>
      <trkpt lat="44.88293" lon="-0.12899">
        <ele>37</ele>
        <time>2021-05-01T12:08:45.837Z</time>
      </trkpt>
      <trkpt lat="44.88321" lon="-0.12893">
        <ele>35</ele>
        <time>2021-05-01T12:09:05.837Z</time>
      </trkpt>
      <trkpt lat="44.88343" lon="-0.12889">
        <ele>37</ele>
        <time>2021-05-01T12:09:55.882Z</time>
      </trkpt>
      <trkpt lat="44.88352" lon="-0.12891">
        <ele>36</ele>
        <time>2021-05-01T12:10:02.883Z</time>
      </trkpt>
      <trkpt lat="44.88361" lon="-0.12895">
        <ele>37</ele>
        <time>2021-05-01T12:10:09.883Z</time>
      </trkpt>
      <trkpt lat="44.88367" lon="-0.12894">
        <ele>36</ele>
        <time>2021-05-01T12:10:13.883Z</time>
      </trkpt>
      <trkpt lat="44.88393" lon="-0.12902">
        <ele>37</ele>
        <time>2021-05-01T12:10:34.883Z</time>
      </trkpt>
      <trkpt lat="44.88402" lon="-0.12907">
        <ele>35</ele>
        <time>2021-05-01T12:10:42.883Z</time>
      </trkpt>
      <trkpt lat="44.88408" lon="-0.12916">
        <ele>36</ele>
        <time>2021-05-01T12:10:49.883Z</time>
      </trkpt>
      <trkpt lat="44.8842" lon="-0.12945">
        <ele>36</ele>
        <time>2021-05-01T12:11:07.883Z</time>
      </trkpt>
      <trkpt lat="44.88429" lon="-0.1296">
        <ele>35</ele>
        <time>2021-05-01T12:11:20.882Z</time>
      </trkpt>
      <trkpt lat="44.88429" lon="-0.12963">
        <ele>36</ele>
        <time>2021-05-01T12:11:24.883Z</time>
      </trkpt>
      <trkpt lat="44.88418" lon="-0.12976">
        <ele>34</ele>
        <time>2021-05-01T12:11:41.883Z</time>
      </trkpt>
      <trkpt lat="44.88406" lon="-0.12984">
        <ele>38</ele>
        <time>2021-05-01T12:11:56.883Z</time>
      </trkpt>
      <trkpt lat="44.88406" lon="-0.12987">
        <ele>40</ele>
        <time>2021-05-01T12:12:00.883Z</time>
      </trkpt>
      <trkpt lat="44.88401" lon="-0.12988">
        <ele>44</ele>
        <time>2021-05-01T12:12:10.883Z</time>
      </trkpt>
      <trkpt lat="44.88392" lon="-0.12997">
        <ele>45</ele>
        <time>2021-05-01T12:12:25.882Z</time>
      </trkpt>
      <trkpt lat="44.88389" lon="-0.12999">
        <ele>45</ele>
        <time>2021-05-01T12:12:30.883Z</time>
      </trkpt>
      <trkpt lat="44.88384" lon="-0.13005">
        <ele>46</ele>
        <time>2021-05-01T12:12:40.883Z</time>
      </trkpt>
      <trkpt lat="44.88381" lon="-0.13006">
        <ele>47</ele>
        <time>2021-05-01T12:12:43.883Z</time>
      </trkpt>
      <trkpt lat="44.88378" lon="-0.13009">
        <ele>47</ele>
        <time>2021-05-01T12:12:48.883Z</time>
      </trkpt>
      <trkpt lat="44.88374" lon="-0.13011">
        <ele>49</ele>
        <time>2021-05-01T12:12:52.883Z</time>
      </trkpt>
      <trkpt lat="44.88369" lon="-0.13016">
        <ele>52</ele>
        <time>2021-05-01T12:13:00.883Z</time>
      </trkpt>
      <trkpt lat="44.88368" lon="-0.13019">
        <ele>52</ele>
        <time>2021-05-01T12:13:01.883Z</time>
      </trkpt>
      <trkpt lat="44.88365" lon="-0.1302">
        <ele>53</ele>
        <time>2021-05-01T12:13:05.883Z</time>
      </trkpt>
      <trkpt lat="44.88362" lon="-0.13024">
        <ele>54</ele>
        <time>2021-05-01T12:13:10.883Z</time>
      </trkpt>
      <trkpt lat="44.88359" lon="-0.1303">
        <ele>53</ele>
        <time>2021-05-01T12:13:16.883Z</time>
      </trkpt>
      <trkpt lat="44.88353" lon="-0.13036">
        <ele>52</ele>
        <time>2021-05-01T12:13:24.883Z</time>
      </trkpt>
      <trkpt lat="44.8835" lon="-0.13035">
        <ele>52</ele>
        <time>2021-05-01T12:13:32.256Z</time>
      </trkpt>
      <trkpt lat="44.88347" lon="-0.13042">
        <ele>52</ele>
        <time>2021-05-01T12:13:42.256Z</time>
      </trkpt>
      <trkpt lat="44.88346" lon="-0.13042">
        <ele>53</ele>
        <time>2021-05-01T12:13:47.256Z</time>
      </trkpt>
      <trkpt lat="44.88355" lon="-0.1303">
        <ele>60</ele>
        <time>2021-05-01T12:13:54.257Z</time>
      </trkpt>
      <trkpt lat="44.88352" lon="-0.13032">
        <ele>58</ele>
        <time>2021-05-01T12:13:56.256Z</time>
      </trkpt>
      <trkpt lat="44.88348" lon="-0.13039">
        <ele>54</ele>
        <time>2021-05-01T12:14:02.257Z</time>
      </trkpt>
      <trkpt lat="44.88344" lon="-0.13062">
        <ele>54</ele>
        <time>2021-05-01T12:14:15.257Z</time>
      </trkpt>
      <trkpt lat="44.88343" lon="-0.13077">
        <ele>54</ele>
        <time>2021-05-01T12:14:23.257Z</time>
      </trkpt>
      <trkpt lat="44.88344" lon="-0.13088">
        <ele>53</ele>
        <time>2021-05-01T12:14:29.257Z</time>
      </trkpt>
      <trkpt lat="44.88343" lon="-0.13096">
        <ele>52</ele>
        <time>2021-05-01T12:14:33.257Z</time>
      </trkpt>
      <trkpt lat="44.88345" lon="-0.13099">
        <ele>53</ele>
        <time>2021-05-01T12:14:35.256Z</time>
      </trkpt>
      <trkpt lat="44.88345" lon="-0.13119">
        <ele>52</ele>
        <time>2021-05-01T12:14:45.257Z</time>
      </trkpt>
      <trkpt lat="44.88342" lon="-0.13145">
        <ele>57</ele>
        <time>2021-05-01T12:14:58.256Z</time>
      </trkpt>
      <trkpt lat="44.88341" lon="-0.13151">
        <ele>58</ele>
        <time>2021-05-01T12:15:02.256Z</time>
      </trkpt>
      <trkpt lat="44.88336" lon="-0.13157">
        <ele>58</ele>
        <time>2021-05-01T12:15:11.256Z</time>
      </trkpt>
      <trkpt lat="44.88335" lon="-0.13162">
        <ele>58</ele>
        <time>2021-05-01T12:15:13.256Z</time>
      </trkpt>
      <trkpt lat="44.88333" lon="-0.13165">
        <ele>59</ele>
        <time>2021-05-01T12:15:15.256Z</time>
      </trkpt>
      <trkpt lat="44.88331" lon="-0.13172">
        <ele>58</ele>
        <time>2021-05-01T12:15:19.257Z</time>
      </trkpt>
      <trkpt lat="44.88329" lon="-0.13179">
        <ele>58</ele>
        <time>2021-05-01T12:15:23.256Z</time>
      </trkpt>
      <trkpt lat="44.88329" lon="-0.13181">
        <ele>58</ele>
        <time>2021-05-01T12:15:25.257Z</time>
      </trkpt>
      <trkpt lat="44.88327" lon="-0.13186">
        <ele>58</ele>
        <time>2021-05-01T12:15:28.256Z</time>
      </trkpt>
      <trkpt lat="44.8832" lon="-0.13201">
        <ele>60</ele>
        <time>2021-05-01T12:15:40.257Z</time>
      </trkpt>
      <trkpt lat="44.88319" lon="-0.13207">
        <ele>63</ele>
        <time>2021-05-01T12:15:50.257Z</time>
      </trkpt>
      <trkpt lat="44.88314" lon="-0.13203">
        <ele>63</ele>
        <time>2021-05-01T12:15:54.257Z</time>
      </trkpt>
      <trkpt lat="44.88308" lon="-0.132">
        <ele>61</ele>
        <time>2021-05-01T12:15:58.257Z</time>
      </trkpt>
      <trkpt lat="44.88305" lon="-0.13197">
        <ele>58</ele>
        <time>2021-05-01T12:16:04.257Z</time>
      </trkpt>
      <trkpt lat="44.88304" lon="-0.13201">
        <ele>52</ele>
        <time>2021-05-01T12:16:14.257Z</time>
      </trkpt>
      <trkpt lat="44.88303" lon="-0.13201">
        <ele>51</ele>
        <time>2021-05-01T12:16:16.257Z</time>
      </trkpt>
      <trkpt lat="44.88287" lon="-0.13194">
        <ele>53</ele>
        <time>2021-05-01T12:16:17.257Z</time>
      </trkpt>
      <trkpt lat="44.88279" lon="-0.13194">
        <ele>50</ele>
        <time>2021-05-01T12:16:24.257Z</time>
      </trkpt>
      <trkpt lat="44.8826" lon="-0.13189">
        <ele>49</ele>
        <time>2021-05-01T12:16:37.257Z</time>
      </trkpt>
      <trkpt lat="44.88258" lon="-0.1319">
        <ele>48</ele>
        <time>2021-05-01T12:16:39.258Z</time>
      </trkpt>
      <trkpt lat="44.88232" lon="-0.13186">
        <ele>47</ele>
        <time>2021-05-01T12:16:57.258Z</time>
      </trkpt>
      <trkpt lat="44.88231" lon="-0.13187">
        <ele>46</ele>
        <time>2021-05-01T12:17:00.257Z</time>
      </trkpt>
      <trkpt lat="44.88214" lon="-0.13185">
        <ele>45</ele>
        <time>2021-05-01T12:17:19.258Z</time>
      </trkpt>
      <trkpt lat="44.88204" lon="-0.13181">
        <ele>46</ele>
        <time>2021-05-01T12:17:26.258Z</time>
      </trkpt>
      <trkpt lat="44.88188" lon="-0.13179">
        <ele>42</ele>
        <time>2021-05-01T12:17:38.258Z</time>
      </trkpt>
      <trkpt lat="44.88175" lon="-0.13174">
        <ele>43</ele>
        <time>2021-05-01T12:17:50.258Z</time>
      </trkpt>
      <trkpt lat="44.88161" lon="-0.13171">
        <ele>42</ele>
        <time>2021-05-01T12:18:01.258Z</time>
      </trkpt>
      <trkpt lat="44.88148" lon="-0.13171">
        <ele>39</ele>
        <time>2021-05-01T12:18:09.258Z</time>
      </trkpt>
      <trkpt lat="44.8813" lon="-0.13173">
        <ele>39</ele>
        <time>2021-05-01T12:18:21.258Z</time>
      </trkpt>
      <trkpt lat="44.88114" lon="-0.13176">
        <ele>38</ele>
        <time>2021-05-01T12:18:31.258Z</time>
      </trkpt>
      <trkpt lat="44.881" lon="-0.13177">
        <ele>36</ele>
        <time>2021-05-01T12:18:46.258Z</time>
      </trkpt>
      <trkpt lat="44.88099" lon="-0.13178">
        <ele>38</ele>
        <time>2021-05-01T12:18:49.257Z</time>
      </trkpt>
      <trkpt lat="44.88089" lon="-0.13177">
        <ele>41</ele>
        <time>2021-05-01T12:18:56.258Z</time>
      </trkpt>
      <trkpt lat="44.88064" lon="-0.13178">
        <ele>36</ele>
        <time>2021-05-01T12:19:12.258Z</time>
      </trkpt>
      <trkpt lat="44.88042" lon="-0.13177">
        <ele>36</ele>
        <time>2021-05-01T12:19:27.258Z</time>
      </trkpt>
      <trkpt lat="44.88035" lon="-0.13179">
        <ele>32</ele>
        <time>2021-05-01T12:19:32.258Z</time>
      </trkpt>
      <trkpt lat="44.88025" lon="-0.13178">
        <ele>32</ele>
        <time>2021-05-01T12:19:38.258Z</time>
      </trkpt>
      <trkpt lat="44.88006" lon="-0.13179">
        <ele>33</ele>
        <time>2021-05-01T12:19:51.258Z</time>
      </trkpt>
      <trkpt lat="44.88003" lon="-0.13178">
        <ele>33</ele>
        <time>2021-05-01T12:19:54.258Z</time>
      </trkpt>
      <trkpt lat="44.87975" lon="-0.1318">
        <ele>30</ele>
        <time>2021-05-01T12:20:13.258Z</time>
      </trkpt>
      <trkpt lat="44.87974" lon="-0.13181">
        <ele>30</ele>
        <time>2021-05-01T12:20:16.258Z</time>
      </trkpt>
      <trkpt lat="44.87975" lon="-0.13181">
        <ele>30</ele>
        <time>2021-05-01T12:20:21.258Z</time>
      </trkpt>
      <trkpt lat="44.87968" lon="-0.13179">
        <ele>29</ele>
        <time>2021-05-01T12:20:26.258Z</time>
      </trkpt>
      <trkpt lat="44.87948" lon="-0.13184">
        <ele>26</ele>
        <time>2021-05-01T12:20:40.257Z</time>
      </trkpt>
      <trkpt lat="44.87935" lon="-0.13185">
        <ele>26</ele>
        <time>2021-05-01T12:20:49.258Z</time>
      </trkpt>
      <trkpt lat="44.87907" lon="-0.13191">
        <ele>27</ele>
        <time>2021-05-01T12:21:07.258Z</time>
      </trkpt>
      <trkpt lat="44.87904" lon="-0.13192">
        <ele>28</ele>
        <time>2021-05-01T12:21:09.257Z</time>
      </trkpt>
      <trkpt lat="44.87901" lon="-0.13196">
        <ele>28</ele>
        <time>2021-05-01T12:21:12.258Z</time>
      </trkpt>
      <trkpt lat="44.87899" lon="-0.13195">
        <ele>28</ele>
        <time>2021-05-01T12:21:14.257Z</time>
      </trkpt>
      <trkpt lat="44.87894" lon="-0.13186">
        <ele>29</ele>
        <time>2021-05-01T12:21:20.258Z</time>
      </trkpt>
      <trkpt lat="44.87883" lon="-0.13175">
        <ele>28</ele>
        <time>2021-05-01T12:21:31.258Z</time>
      </trkpt>
      <trkpt lat="44.87882" lon="-0.13175">
        <ele>27</ele>
        <time>2021-05-01T12:21:33.258Z</time>
      </trkpt>
      <trkpt lat="44.87875" lon="-0.13167">
        <ele>26</ele>
        <time>2021-05-01T12:21:40.258Z</time>
      </trkpt>
      <trkpt lat="44.87867" lon="-0.13151">
        <ele>26</ele>
        <time>2021-05-01T12:21:49.258Z</time>
      </trkpt>
      <trkpt lat="44.87851" lon="-0.13126">
        <ele>24</ele>
        <time>2021-05-01T12:22:05.258Z</time>
      </trkpt>
      <trkpt lat="44.87843" lon="-0.1311">
        <ele>21</ele>
        <time>2021-05-01T12:22:14.258Z</time>
      </trkpt>
      <trkpt lat="44.8784" lon="-0.13105">
        <ele>22</ele>
        <time>2021-05-01T12:22:18.258Z</time>
      </trkpt>
      <trkpt lat="44.87839" lon="-0.13103">
        <ele>22</ele>
        <time>2021-05-01T12:22:19.258Z</time>
      </trkpt>
      <trkpt lat="44.87834" lon="-0.13093">
        <ele>24</ele>
        <time>2021-05-01T12:22:25.258Z</time>
      </trkpt>
      <trkpt lat="44.87816" lon="-0.13065">
        <ele>27</ele>
        <time>2021-05-01T12:22:43.258Z</time>
      </trkpt>
      <trkpt lat="44.87807" lon="-0.13056">
        <ele>25</ele>
        <time>2021-05-01T12:22:51.258Z</time>
      </trkpt>
      <trkpt lat="44.87802" lon="-0.13055">
        <ele>24</ele>
        <time>2021-05-01T12:22:57.258Z</time>
      </trkpt>
      <trkpt lat="44.87792" lon="-0.13059">
        <ele>23</ele>
        <time>2021-05-01T12:23:05.258Z</time>
      </trkpt>
      <trkpt lat="44.87773" lon="-0.13074">
        <ele>20</ele>
        <time>2021-05-01T12:23:19.257Z</time>
      </trkpt>
      <trkpt lat="44.87762" lon="-0.13078">
        <ele>21</ele>
        <time>2021-05-01T12:23:26.258Z</time>
      </trkpt>
      <trkpt lat="44.87746" lon="-0.1309">
        <ele>19</ele>
        <time>2021-05-01T12:23:38.258Z</time>
      </trkpt>
      <trkpt lat="44.87737" lon="-0.13094">
        <ele>20</ele>
        <time>2021-05-01T12:23:44.258Z</time>
      </trkpt>
      <trkpt lat="44.87734" lon="-0.13098">
        <ele>20</ele>
        <time>2021-05-01T12:23:47.257Z</time>
      </trkpt>
      <trkpt lat="44.87711" lon="-0.13109">
        <ele>18</ele>
        <time>2021-05-01T12:24:04.257Z</time>
      </trkpt>
      <trkpt lat="44.87666" lon="-0.13142">
        <ele>20</ele>
        <time>2021-05-01T12:24:39.257Z</time>
      </trkpt>
      <trkpt lat="44.87664" lon="-0.13145">
        <ele>20</ele>
        <time>2021-05-01T12:24:41.258Z</time>
      </trkpt>
      <trkpt lat="44.87647" lon="-0.13161">
        <ele>18</ele>
        <time>2021-05-01T12:24:56.258Z</time>
      </trkpt>
      <trkpt lat="44.87632" lon="-0.13179">
        <ele>17</ele>
        <time>2021-05-01T12:25:09.258Z</time>
      </trkpt>
      <trkpt lat="44.87611" lon="-0.1319">
        <ele>22</ele>
        <time>2021-05-01T12:25:24.257Z</time>
      </trkpt>
      <trkpt lat="44.87594" lon="-0.13204">
        <ele>21</ele>
        <time>2021-05-01T12:25:38.257Z</time>
      </trkpt>
      <trkpt lat="44.87589" lon="-0.13205">
        <ele>19</ele>
        <time>2021-05-01T12:25:41.257Z</time>
      </trkpt>
      <trkpt lat="44.8758" lon="-0.13214">
        <ele>18</ele>
        <time>2021-05-01T12:25:48.258Z</time>
      </trkpt>
      <trkpt lat="44.87554" lon="-0.13232">
        <ele>17</ele>
        <time>2021-05-01T12:26:07.257Z</time>
      </trkpt>
      <trkpt lat="44.87534" lon="-0.13252">
        <ele>15</ele>
        <time>2021-05-01T12:26:25.257Z</time>
      </trkpt>
      <trkpt lat="44.87533" lon="-0.13256">
        <ele>15</ele>
        <time>2021-05-01T12:26:27.258Z</time>
      </trkpt>
      <trkpt lat="44.8754" lon="-0.13295">
        <ele>20</ele>
        <time>2021-05-01T12:27:11.202Z</time>
      </trkpt>
      <trkpt lat="44.87544" lon="-0.13311">
        <ele>20</ele>
        <time>2021-05-01T12:27:20.202Z</time>
      </trkpt>
      <trkpt lat="44.87548" lon="-0.13337">
        <ele>22</ele>
        <time>2021-05-01T12:27:33.202Z</time>
      </trkpt>
      <trkpt lat="44.87554" lon="-0.13352">
        <ele>21</ele>
        <time>2021-05-01T12:27:41.202Z</time>
      </trkpt>
      <trkpt lat="44.87554" lon="-0.13358">
        <ele>21</ele>
        <time>2021-05-01T12:27:44.202Z</time>
      </trkpt>
      <trkpt lat="44.87557" lon="-0.13366">
        <ele>21</ele>
        <time>2021-05-01T12:27:48.201Z</time>
      </trkpt>
      <trkpt lat="44.87558" lon="-0.13379">
        <ele>20</ele>
        <time>2021-05-01T12:27:55.201Z</time>
      </trkpt>
      <trkpt lat="44.87559" lon="-0.1338">
        <ele>21</ele>
        <time>2021-05-01T12:27:56.201Z</time>
      </trkpt>
    </trkseg>
  </trk>
  <trk>
    <name><![CDATA[Traces DPT 33_23]]></name>
    <extensions>
      <line xmlns="http://www.topografix.com/GPX/gpx_style/0/2">
        <color>888800</color>
        <width>4</width>
      </line>
    </extensions>
    <trkseg>
      <trkpt lat="44.89371" lon="-0.15695">
        <ele>81.3</ele>
      </trkpt>
      <trkpt lat="44.89382" lon="-0.15705">
        <ele>80.6</ele>
      </trkpt>
      <trkpt lat="44.89387" lon="-0.1571">
        <ele>80.3</ele>
      </trkpt>
      <trkpt lat="44.89392" lon="-0.15716">
        <ele>79.8</ele>
      </trkpt>
      <trkpt lat="44.89396" lon="-0.15725">
        <ele>79.7</ele>
      </trkpt>
      <trkpt lat="44.89402" lon="-0.1574">
        <ele>80.9</ele>
      </trkpt>
      <trkpt lat="44.89429" lon="-0.15719">
        <ele>80.9</ele>
      </trkpt>
      <trkpt lat="44.89429" lon="-0.15719">
        <ele>80.9</ele>
      </trkpt>
      <trkpt lat="44.89452" lon="-0.15702">
        <ele>80.1</ele>
      </trkpt>
      <trkpt lat="44.89479" lon="-0.15679">
        <ele>77.8</ele>
      </trkpt>
      <trkpt lat="44.89499" lon="-0.1566">
        <ele>77</ele>
      </trkpt>
      <trkpt lat="44.89541" lon="-0.15622">
        <ele>75.4</ele>
      </trkpt>
      <trkpt lat="44.89565" lon="-0.15597">
        <ele>76.2</ele>
      </trkpt>
      <trkpt lat="44.89577" lon="-0.15582">
        <ele>76.2</ele>
      </trkpt>
      <trkpt lat="44.89583" lon="-0.15575">
        <ele>76</ele>
      </trkpt>
      <trkpt lat="44.89587" lon="-0.15566">
        <ele>76</ele>
      </trkpt>
      <trkpt lat="44.89589" lon="-0.15562">
        <ele>76</ele>
      </trkpt>
      <trkpt lat="44.89586" lon="-0.15556">
        <ele>76</ele>
      </trkpt>
      <trkpt lat="44.89586" lon="-0.15552">
        <ele>76.1</ele>
      </trkpt>
      <trkpt lat="44.89588" lon="-0.15546">
        <ele>76.2</ele>
      </trkpt>
      <trkpt lat="44.8959" lon="-0.15542">
        <ele>76.3</ele>
      </trkpt>
      <trkpt lat="44.89594" lon="-0.1554">
        <ele>76.1</ele>
      </trkpt>
      <trkpt lat="44.89596" lon="-0.15532">
        <ele>76.1</ele>
      </trkpt>
      <trkpt lat="44.89597" lon="-0.15524">
        <ele>75.9</ele>
      </trkpt>
      <trkpt lat="44.89598" lon="-0.15514">
        <ele>75.7</ele>
      </trkpt>
      <trkpt lat="44.89597" lon="-0.15504">
        <ele>75.6</ele>
      </trkpt>
      <trkpt lat="44.89595" lon="-0.15475">
        <ele>76.5</ele>
      </trkpt>
      <trkpt lat="44.89597" lon="-0.15463">
        <ele>76.5</ele>
      </trkpt>
      <trkpt lat="44.896" lon="-0.15445">
        <ele>76.4</ele>
      </trkpt>
      <trkpt lat="44.89605" lon="-0.15426">
        <ele>76.2</ele>
      </trkpt>
      <trkpt lat="44.89612" lon="-0.15407">
        <ele>76</ele>
      </trkpt>
      <trkpt lat="44.89676" lon="-0.15268">
        <ele>74.7</ele>
      </trkpt>
      <trkpt lat="44.89675" lon="-0.15244">
        <ele>74.7</ele>
      </trkpt>
      <trkpt lat="44.89675" lon="-0.15244">
        <ele>74.7</ele>
      </trkpt>
      <trkpt lat="44.89674" lon="-0.1523">
        <ele>74.7</ele>
      </trkpt>
      <trkpt lat="44.89673" lon="-0.15212">
        <ele>74.8</ele>
      </trkpt>
      <trkpt lat="44.89672" lon="-0.15197">
        <ele>74.8</ele>
      </trkpt>
      <trkpt lat="44.89669" lon="-0.15178">
        <ele>75.5</ele>
      </trkpt>
      <trkpt lat="44.89665" lon="-0.15162">
        <ele>76.1</ele>
      </trkpt>
      <trkpt lat="44.89649" lon="-0.15085">
        <ele>78.3</ele>
      </trkpt>
      <trkpt lat="44.89633" lon="-0.15006">
        <ele>79.8</ele>
      </trkpt>
      <trkpt lat="44.89624" lon="-0.1497">
        <ele>79.5</ele>
      </trkpt>
      <trkpt lat="44.89622" lon="-0.14961">
        <ele>79.6</ele>
      </trkpt>
      <trkpt lat="44.89618" lon="-0.1495">
        <ele>79.8</ele>
      </trkpt>
      <trkpt lat="44.89607" lon="-0.14927">
        <ele>80.1</ele>
      </trkpt>
      <trkpt lat="44.89598" lon="-0.14911">
        <ele>80.5</ele>
      </trkpt>
      <trkpt lat="44.89557" lon="-0.14846">
        <ele>81.9</ele>
      </trkpt>
      <trkpt lat="44.8955" lon="-0.14832">
        <ele>82.2</ele>
      </trkpt>
      <trkpt lat="44.89546" lon="-0.14822">
        <ele>82.3</ele>
      </trkpt>
      <trkpt lat="44.89542" lon="-0.14805">
        <ele>82.5</ele>
      </trkpt>
      <trkpt lat="44.89538" lon="-0.14783">
        <ele>82.6</ele>
      </trkpt>
      <trkpt lat="44.8953" lon="-0.14728">
        <ele>83</ele>
      </trkpt>
      <trkpt lat="44.89523" lon="-0.14674">
        <ele>83.7</ele>
      </trkpt>
      <trkpt lat="44.89522" lon="-0.14666">
        <ele>84</ele>
      </trkpt>
      <trkpt lat="44.89523" lon="-0.14654">
        <ele>84</ele>
      </trkpt>
      <trkpt lat="44.89525" lon="-0.14633">
        <ele>84.2</ele>
      </trkpt>
      <trkpt lat="44.89525" lon="-0.1463">
        <ele>84.3</ele>
      </trkpt>
      <trkpt lat="44.8953" lon="-0.14599">
        <ele>85.4</ele>
      </trkpt>
      <trkpt lat="44.89537" lon="-0.14561">
        <ele>86.3</ele>
      </trkpt>
      <trkpt lat="44.89543" lon="-0.14522">
        <ele>87.7</ele>
      </trkpt>
      <trkpt lat="44.89548" lon="-0.14501">
        <ele>88.2</ele>
      </trkpt>
      <trkpt lat="44.8956" lon="-0.14436">
        <ele>89</ele>
      </trkpt>
      <trkpt lat="44.89578" lon="-0.14335">
        <ele>90</ele>
      </trkpt>
      <trkpt lat="44.8959" lon="-0.14265">
        <ele>90.9</ele>
      </trkpt>
      <trkpt lat="44.89599" lon="-0.14214">
        <ele>91</ele>
      </trkpt>
      <trkpt lat="44.896" lon="-0.14203">
        <ele>91</ele>
      </trkpt>
      <trkpt lat="44.89601" lon="-0.14192">
        <ele>90.9</ele>
      </trkpt>
      <trkpt lat="44.89602" lon="-0.14185">
        <ele>90.8</ele>
      </trkpt>
      <trkpt lat="44.89602" lon="-0.1418">
        <ele>90.7</ele>
      </trkpt>
      <trkpt lat="44.89602" lon="-0.14185">
        <ele>90.8</ele>
      </trkpt>
      <trkpt lat="44.89602" lon="-0.14185">
        <ele>90.8</ele>
      </trkpt>
      <trkpt lat="44.89611" lon="-0.14188">
        <ele>90.8</ele>
      </trkpt>
      <trkpt lat="44.89624" lon="-0.14197">
        <ele>91</ele>
      </trkpt>
      <trkpt lat="44.89647" lon="-0.14211">
        <ele>91</ele>
      </trkpt>
      <trkpt lat="44.89653" lon="-0.14214">
        <ele>91</ele>
      </trkpt>
      <trkpt lat="44.8966" lon="-0.14215">
        <ele>91</ele>
      </trkpt>
      <trkpt lat="44.89669" lon="-0.14214">
        <ele>91</ele>
      </trkpt>
      <trkpt lat="44.89678" lon="-0.14212">
        <ele>91</ele>
      </trkpt>
      <trkpt lat="44.89688" lon="-0.14211">
        <ele>91</ele>
      </trkpt>
      <trkpt lat="44.89698" lon="-0.14211">
        <ele>91</ele>
      </trkpt>
      <trkpt lat="44.8971" lon="-0.14213">
        <ele>91</ele>
      </trkpt>
      <trkpt lat="44.89713" lon="-0.14214">
        <ele>91</ele>
      </trkpt>
      <trkpt lat="44.89717" lon="-0.14215">
        <ele>91</ele>
      </trkpt>
      <trkpt lat="44.89717" lon="-0.14215">
        <ele>91</ele>
      </trkpt>
      <trkpt lat="44.89717" lon="-0.14211">
        <ele>91</ele>
      </trkpt>
      <trkpt lat="44.89716" lon="-0.14204">
        <ele>91</ele>
      </trkpt>
      <trkpt lat="44.89716" lon="-0.14201">
        <ele>91</ele>
      </trkpt>
      <trkpt lat="44.89716" lon="-0.14189">
        <ele>91</ele>
      </trkpt>
      <trkpt lat="44.89716" lon="-0.14153">
        <ele>90.4</ele>
      </trkpt>
      <trkpt lat="44.89715" lon="-0.14107">
        <ele>90.7</ele>
      </trkpt>
      <trkpt lat="44.89714" lon="-0.14087">
        <ele>90.7</ele>
      </trkpt>
      <trkpt lat="44.89714" lon="-0.1407">
        <ele>90.6</ele>
      </trkpt>
      <trkpt lat="44.89717" lon="-0.14064">
        <ele>90.7</ele>
      </trkpt>
      <trkpt lat="44.89722" lon="-0.14054">
        <ele>90.9</ele>
      </trkpt>
      <trkpt lat="44.89732" lon="-0.14031">
        <ele>89.2</ele>
      </trkpt>
      <trkpt lat="44.89733" lon="-0.14023">
        <ele>89</ele>
      </trkpt>
      <trkpt lat="44.89732" lon="-0.14012">
        <ele>89</ele>
      </trkpt>
      <trkpt lat="44.89729" lon="-0.13998">
        <ele>89</ele>
      </trkpt>
      <trkpt lat="44.89723" lon="-0.13971">
        <ele>89</ele>
      </trkpt>
      <trkpt lat="44.89722" lon="-0.13959">
        <ele>89</ele>
      </trkpt>
      <trkpt lat="44.89721" lon="-0.13943">
        <ele>89</ele>
      </trkpt>
      <trkpt lat="44.89721" lon="-0.13933">
        <ele>89</ele>
      </trkpt>
      <trkpt lat="44.8972" lon="-0.13926">
        <ele>88.9</ele>
      </trkpt>
      <trkpt lat="44.89716" lon="-0.13897">
        <ele>88.2</ele>
      </trkpt>
      <trkpt lat="44.89712" lon="-0.13878">
        <ele>87.8</ele>
      </trkpt>
      <trkpt lat="44.89711" lon="-0.13874">
        <ele>87.7</ele>
      </trkpt>
      <trkpt lat="44.8971" lon="-0.13871">
        <ele>87.6</ele>
      </trkpt>
      <trkpt lat="44.89708" lon="-0.13868">
        <ele>87.6</ele>
      </trkpt>
      <trkpt lat="44.89706" lon="-0.13866">
        <ele>87.7</ele>
      </trkpt>
      <trkpt lat="44.89705" lon="-0.13865">
        <ele>87.7</ele>
      </trkpt>
      <trkpt lat="44.89703" lon="-0.13864">
        <ele>87.7</ele>
      </trkpt>
      <trkpt lat="44.89702" lon="-0.13864">
        <ele>87.8</ele>
      </trkpt>
      <trkpt lat="44.897" lon="-0.13863">
        <ele>87.8</ele>
      </trkpt>
      <trkpt lat="44.89698" lon="-0.13861">
        <ele>87.9</ele>
      </trkpt>
      <trkpt lat="44.89696" lon="-0.13859">
        <ele>87.9</ele>
      </trkpt>
      <trkpt lat="44.89695" lon="-0.13857">
        <ele>87.8</ele>
      </trkpt>
      <trkpt lat="44.89693" lon="-0.13854">
        <ele>87.7</ele>
      </trkpt>
      <trkpt lat="44.89692" lon="-0.13852">
        <ele>87.5</ele>
      </trkpt>
      <trkpt lat="44.8969" lon="-0.13849">
        <ele>87.3</ele>
      </trkpt>
      <trkpt lat="44.89689" lon="-0.13847">
        <ele>87.2</ele>
      </trkpt>
      <trkpt lat="44.89687" lon="-0.13846">
        <ele>87.1</ele>
      </trkpt>
      <trkpt lat="44.89685" lon="-0.13844">
        <ele>86.9</ele>
      </trkpt>
      <trkpt lat="44.89684" lon="-0.13843">
        <ele>86.8</ele>
      </trkpt>
      <trkpt lat="44.89683" lon="-0.1384">
        <ele>86.7</ele>
      </trkpt>
      <trkpt lat="44.89682" lon="-0.13838">
        <ele>86.6</ele>
      </trkpt>
      <trkpt lat="44.89674" lon="-0.13812">
        <ele>85.3</ele>
      </trkpt>
      <trkpt lat="44.8966" lon="-0.1375">
        <ele>81</ele>
      </trkpt>
      <trkpt lat="44.89654" lon="-0.13723">
        <ele>80</ele>
      </trkpt>
      <trkpt lat="44.89651" lon="-0.13713">
        <ele>79.5</ele>
      </trkpt>
      <trkpt lat="44.89648" lon="-0.13704">
        <ele>78.9</ele>
      </trkpt>
      <trkpt lat="44.89613" lon="-0.13725">
        <ele>80.1</ele>
      </trkpt>
      <trkpt lat="44.89613" lon="-0.13725">
        <ele>80.1</ele>
      </trkpt>
      <trkpt lat="44.89594" lon="-0.13737">
        <ele>81.5</ele>
      </trkpt>
      <trkpt lat="44.89594" lon="-0.13717">
        <ele>80.4</ele>
      </trkpt>
      <trkpt lat="44.89596" lon="-0.13648">
        <ele>77.9</ele>
      </trkpt>
      <trkpt lat="44.89597" lon="-0.13598">
        <ele>76.3</ele>
      </trkpt>
      <trkpt lat="44.89597" lon="-0.13583">
        <ele>76</ele>
      </trkpt>
      <trkpt lat="44.89598" lon="-0.13558">
        <ele>75</ele>
      </trkpt>
      <trkpt lat="44.89596" lon="-0.13528">
        <ele>74.1</ele>
      </trkpt>
      <trkpt lat="44.89593" lon="-0.13489">
        <ele>73.4</ele>
      </trkpt>
      <trkpt lat="44.89589" lon="-0.13439">
        <ele>73.1</ele>
      </trkpt>
      <trkpt lat="44.89583" lon="-0.13378">
        <ele>74</ele>
      </trkpt>
      <trkpt lat="44.89578" lon="-0.13301">
        <ele>75</ele>
      </trkpt>
      <trkpt lat="44.89577" lon="-0.13289">
        <ele>75.1</ele>
      </trkpt>
      <trkpt lat="44.89575" lon="-0.13247">
        <ele>75.4</ele>
      </trkpt>
      <trkpt lat="44.89574" lon="-0.13236">
        <ele>75.7</ele>
      </trkpt>
      <trkpt lat="44.89572" lon="-0.13216">
        <ele>75.9</ele>
      </trkpt>
      <trkpt lat="44.8957" lon="-0.13203">
        <ele>75.6</ele>
      </trkpt>
      <trkpt lat="44.89568" lon="-0.13192">
        <ele>75.5</ele>
      </trkpt>
      <trkpt lat="44.89567" lon="-0.13186">
        <ele>75.3</ele>
      </trkpt>
      <trkpt lat="44.89563" lon="-0.13171">
        <ele>74.9</ele>
      </trkpt>
      <trkpt lat="44.89556" lon="-0.13152">
        <ele>75</ele>
      </trkpt>
      <trkpt lat="44.89552" lon="-0.13144">
        <ele>75</ele>
      </trkpt>
      <trkpt lat="44.89549" lon="-0.13138">
        <ele>75</ele>
      </trkpt>
      <trkpt lat="44.89531" lon="-0.13107">
        <ele>73.9</ele>
      </trkpt>
      <trkpt lat="44.89525" lon="-0.13096">
        <ele>73.5</ele>
      </trkpt>
      <trkpt lat="44.89523" lon="-0.13093">
        <ele>73.5</ele>
      </trkpt>
      <trkpt lat="44.89518" lon="-0.13082">
        <ele>73.3</ele>
      </trkpt>
      <trkpt lat="44.89514" lon="-0.13071">
        <ele>73.1</ele>
      </trkpt>
      <trkpt lat="44.89509" lon="-0.13049">
        <ele>72.6</ele>
      </trkpt>
      <trkpt lat="44.89498" lon="-0.12986">
        <ele>71.7</ele>
      </trkpt>
      <trkpt lat="44.89491" lon="-0.12948">
        <ele>71.1</ele>
      </trkpt>
      <trkpt lat="44.89487" lon="-0.12914">
        <ele>71.4</ele>
      </trkpt>
      <trkpt lat="44.89486" lon="-0.12886">
        <ele>71.5</ele>
      </trkpt>
      <trkpt lat="44.89486" lon="-0.12868">
        <ele>71.5</ele>
      </trkpt>
      <trkpt lat="44.89489" lon="-0.12852">
        <ele>71.4</ele>
      </trkpt>
      <trkpt lat="44.89493" lon="-0.12839">
        <ele>71.4</ele>
      </trkpt>
      <trkpt lat="44.89499" lon="-0.12823">
        <ele>71.4</ele>
      </trkpt>
      <trkpt lat="44.89528" lon="-0.12761">
        <ele>71.6</ele>
      </trkpt>
      <trkpt lat="44.89535" lon="-0.12745">
        <ele>71.6</ele>
      </trkpt>
      <trkpt lat="44.89539" lon="-0.12731">
        <ele>71.7</ele>
      </trkpt>
      <trkpt lat="44.89542" lon="-0.12717">
        <ele>72</ele>
      </trkpt>
      <trkpt lat="44.89544" lon="-0.12708">
        <ele>72</ele>
      </trkpt>
      <trkpt lat="44.89545" lon="-0.12693">
        <ele>72</ele>
      </trkpt>
      <trkpt lat="44.89546" lon="-0.12668">
        <ele>72.3</ele>
      </trkpt>
      <trkpt lat="44.89545" lon="-0.12645">
        <ele>71.9</ele>
      </trkpt>
      <trkpt lat="44.89544" lon="-0.12616">
        <ele>72.2</ele>
      </trkpt>
      <trkpt lat="44.89543" lon="-0.12582">
        <ele>72.9</ele>
      </trkpt>
      <trkpt lat="44.89543" lon="-0.12559">
        <ele>72.9</ele>
      </trkpt>
      <trkpt lat="44.89544" lon="-0.12544">
        <ele>73.2</ele>
      </trkpt>
      <trkpt lat="44.89545" lon="-0.1253">
        <ele>73.7</ele>
      </trkpt>
      <trkpt lat="44.89547" lon="-0.12519">
        <ele>74.1</ele>
      </trkpt>
      <trkpt lat="44.8955" lon="-0.12509">
        <ele>74.5</ele>
      </trkpt>
      <trkpt lat="44.89556" lon="-0.12496">
        <ele>75.2</ele>
      </trkpt>
      <trkpt lat="44.89567" lon="-0.12473">
        <ele>76.4</ele>
      </trkpt>
      <trkpt lat="44.89585" lon="-0.12434">
        <ele>78.4</ele>
      </trkpt>
      <trkpt lat="44.896" lon="-0.124">
        <ele>80.2</ele>
      </trkpt>
      <trkpt lat="44.8961" lon="-0.12382">
        <ele>81</ele>
      </trkpt>
      <trkpt lat="44.89609" lon="-0.12381">
        <ele>80.9</ele>
      </trkpt>
      <trkpt lat="44.89606" lon="-0.12376">
        <ele>80.9</ele>
      </trkpt>
      <trkpt lat="44.89595" lon="-0.12389">
        <ele>80.4</ele>
      </trkpt>
      <trkpt lat="44.89563" lon="-0.1241">
        <ele>78.5</ele>
      </trkpt>
      <trkpt lat="44.89534" lon="-0.12431">
        <ele>77.5</ele>
      </trkpt>
      <trkpt lat="44.89504" lon="-0.12453">
        <ele>77.2</ele>
      </trkpt>
      <trkpt lat="44.89474" lon="-0.12479">
        <ele>77.6</ele>
      </trkpt>
      <trkpt lat="44.89452" lon="-0.12499">
        <ele>78.5</ele>
      </trkpt>
      <trkpt lat="44.89435" lon="-0.12516">
        <ele>79.7</ele>
      </trkpt>
      <trkpt lat="44.89417" lon="-0.12527">
        <ele>81</ele>
      </trkpt>
      <trkpt lat="44.89415" lon="-0.12528">
        <ele>81.1</ele>
      </trkpt>
      <trkpt lat="44.89394" lon="-0.12538">
        <ele>81.7</ele>
      </trkpt>
      <trkpt lat="44.89361" lon="-0.12554">
        <ele>83.1</ele>
      </trkpt>
      <trkpt lat="44.89325" lon="-0.12574">
        <ele>84.3</ele>
      </trkpt>
      <trkpt lat="44.89283" lon="-0.12598">
        <ele>86.3</ele>
      </trkpt>
      <trkpt lat="44.89225" lon="-0.12636">
        <ele>89.9</ele>
      </trkpt>
      <trkpt lat="44.89221" lon="-0.12639">
        <ele>90.1</ele>
      </trkpt>
      <trkpt lat="44.89225" lon="-0.12636">
        <ele>89.9</ele>
      </trkpt>
      <trkpt lat="44.89225" lon="-0.12636">
        <ele>89.9</ele>
      </trkpt>
      <trkpt lat="44.89219" lon="-0.12616">
        <ele>90.3</ele>
      </trkpt>
      <trkpt lat="44.89213" lon="-0.12585">
        <ele>90.7</ele>
      </trkpt>
      <trkpt lat="44.89209" lon="-0.12556">
        <ele>90.4</ele>
      </trkpt>
      <trkpt lat="44.89206" lon="-0.12525">
        <ele>90.8</ele>
      </trkpt>
      <trkpt lat="44.89203" lon="-0.12474">
        <ele>91.4</ele>
      </trkpt>
      <trkpt lat="44.89201" lon="-0.12444">
        <ele>92.3</ele>
      </trkpt>
      <trkpt lat="44.89199" lon="-0.12398">
        <ele>92.6</ele>
      </trkpt>
      <trkpt lat="44.89197" lon="-0.12342">
        <ele>91.9</ele>
      </trkpt>
      <trkpt lat="44.89194" lon="-0.12279">
        <ele>92</ele>
      </trkpt>
      <trkpt lat="44.89189" lon="-0.1219">
        <ele>91.8</ele>
      </trkpt>
      <trkpt lat="44.89187" lon="-0.12124">
        <ele>91.5</ele>
      </trkpt>
      <trkpt lat="44.89182" lon="-0.12037">
        <ele>88.6</ele>
      </trkpt>
      <trkpt lat="44.89182" lon="-0.12032">
        <ele>88.3</ele>
      </trkpt>
      <trkpt lat="44.8918" lon="-0.12007">
        <ele>87.6</ele>
      </trkpt>
      <trkpt lat="44.8918" lon="-0.12002">
        <ele>87.5</ele>
      </trkpt>
      <trkpt lat="44.89178" lon="-0.11967">
        <ele>87.5</ele>
      </trkpt>
      <trkpt lat="44.89176" lon="-0.11954">
        <ele>87.8</ele>
      </trkpt>
      <trkpt lat="44.89167" lon="-0.11907">
        <ele>88.4</ele>
      </trkpt>
      <trkpt lat="44.8916" lon="-0.1188">
        <ele>89.2</ele>
      </trkpt>
      <trkpt lat="44.89155" lon="-0.11865">
        <ele>89.8</ele>
      </trkpt>
      <trkpt lat="44.89143" lon="-0.11837">
        <ele>90.1</ele>
      </trkpt>
      <trkpt lat="44.89136" lon="-0.11823">
        <ele>90.3</ele>
      </trkpt>
      <trkpt lat="44.89128" lon="-0.11802">
        <ele>90.6</ele>
      </trkpt>
      <trkpt lat="44.89121" lon="-0.11779">
        <ele>90.1</ele>
      </trkpt>
      <trkpt lat="44.89108" lon="-0.11731">
        <ele>90.5</ele>
      </trkpt>
      <trkpt lat="44.89089" lon="-0.11661">
        <ele>89.4</ele>
      </trkpt>
      <trkpt lat="44.89059" lon="-0.1155">
        <ele>87.1</ele>
      </trkpt>
      <trkpt lat="44.89036" lon="-0.11466">
        <ele>85.2</ele>
      </trkpt>
      <trkpt lat="44.89012" lon="-0.1138">
        <ele>84</ele>
      </trkpt>
      <trkpt lat="44.88991" lon="-0.11305">
        <ele>84</ele>
      </trkpt>
      <trkpt lat="44.88989" lon="-0.113">
        <ele>84.1</ele>
      </trkpt>
      <trkpt lat="44.88984" lon="-0.11297">
        <ele>84.1</ele>
      </trkpt>
      <trkpt lat="44.88981" lon="-0.1129">
        <ele>84.2</ele>
      </trkpt>
      <trkpt lat="44.88984" lon="-0.11297">
        <ele>84.1</ele>
      </trkpt>
      <trkpt lat="44.88984" lon="-0.11297">
        <ele>84.1</ele>
      </trkpt>
      <trkpt lat="44.8898" lon="-0.11302">
        <ele>84</ele>
      </trkpt>
      <trkpt lat="44.88972" lon="-0.11309">
        <ele>83.8</ele>
      </trkpt>
      <trkpt lat="44.88959" lon="-0.11317">
        <ele>83</ele>
      </trkpt>
      <trkpt lat="44.8891" lon="-0.11341">
        <ele>82.8</ele>
      </trkpt>
      <trkpt lat="44.88857" lon="-0.11367">
        <ele>84.1</ele>
      </trkpt>
      <trkpt lat="44.88824" lon="-0.11381">
        <ele>85.2</ele>
      </trkpt>
      <trkpt lat="44.88823" lon="-0.11382">
        <ele>85.2</ele>
      </trkpt>
      <trkpt lat="44.88812" lon="-0.11385">
        <ele>85.2</ele>
      </trkpt>
      <trkpt lat="44.88799" lon="-0.11389">
        <ele>84.8</ele>
      </trkpt>
      <trkpt lat="44.88781" lon="-0.11393">
        <ele>84.1</ele>
      </trkpt>
      <trkpt lat="44.88763" lon="-0.11397">
        <ele>83.8</ele>
      </trkpt>
      <trkpt lat="44.88748" lon="-0.11402">
        <ele>83.5</ele>
      </trkpt>
      <trkpt lat="44.88734" lon="-0.11409">
        <ele>82.6</ele>
      </trkpt>
      <trkpt lat="44.88721" lon="-0.11418">
        <ele>80.9</ele>
      </trkpt>
      <trkpt lat="44.88714" lon="-0.11424">
        <ele>80.8</ele>
      </trkpt>
      <trkpt lat="44.8871" lon="-0.11431">
        <ele>80.4</ele>
      </trkpt>
      <trkpt lat="44.88706" lon="-0.11428">
        <ele>80.8</ele>
      </trkpt>
      <trkpt lat="44.88705" lon="-0.11427">
        <ele>80.9</ele>
      </trkpt>
      <trkpt lat="44.887" lon="-0.11426">
        <ele>81.1</ele>
      </trkpt>
      <trkpt lat="44.88692" lon="-0.11424">
        <ele>81.8</ele>
      </trkpt>
      <trkpt lat="44.88687" lon="-0.1142">
        <ele>82.6</ele>
      </trkpt>
      <trkpt lat="44.88684" lon="-0.11418">
        <ele>83.1</ele>
      </trkpt>
      <trkpt lat="44.88687" lon="-0.1142">
        <ele>82.6</ele>
      </trkpt>
      <trkpt lat="44.88692" lon="-0.11424">
        <ele>81.8</ele>
      </trkpt>
      <trkpt lat="44.88684" lon="-0.11436">
        <ele>82</ele>
      </trkpt>
      <trkpt lat="44.88678" lon="-0.11445">
        <ele>82.3</ele>
      </trkpt>
      <trkpt lat="44.88671" lon="-0.11454">
        <ele>83</ele>
      </trkpt>
      <trkpt lat="44.88658" lon="-0.11474">
        <ele>83.6</ele>
      </trkpt>
      <trkpt lat="44.88639" lon="-0.11509">
        <ele>85</ele>
      </trkpt>
      <trkpt lat="44.88616" lon="-0.11548">
        <ele>86.8</ele>
      </trkpt>
      <trkpt lat="44.88605" lon="-0.11569">
        <ele>87.8</ele>
      </trkpt>
      <trkpt lat="44.88581" lon="-0.11609">
        <ele>89.2</ele>
      </trkpt>
      <trkpt lat="44.88563" lon="-0.1164">
        <ele>90.4</ele>
      </trkpt>
      <trkpt lat="44.88552" lon="-0.11658">
        <ele>90.5</ele>
      </trkpt>
      <trkpt lat="44.88511" lon="-0.11732">
        <ele>92</ele>
      </trkpt>
      <trkpt lat="44.8849" lon="-0.11774">
        <ele>91.8</ele>
      </trkpt>
      <trkpt lat="44.88483" lon="-0.11784">
        <ele>91.9</ele>
      </trkpt>
      <trkpt lat="44.88477" lon="-0.11792">
        <ele>91.8</ele>
      </trkpt>
      <trkpt lat="44.88469" lon="-0.11801">
        <ele>91.5</ele>
      </trkpt>
      <trkpt lat="44.88459" lon="-0.11807">
        <ele>91.9</ele>
      </trkpt>
      <trkpt lat="44.88442" lon="-0.11812">
        <ele>92.9</ele>
      </trkpt>
      <trkpt lat="44.88434" lon="-0.11814">
        <ele>93.1</ele>
      </trkpt>
      <trkpt lat="44.88429" lon="-0.11815">
        <ele>93.2</ele>
      </trkpt>
      <trkpt lat="44.88424" lon="-0.11814">
        <ele>93.4</ele>
      </trkpt>
      <trkpt lat="44.88409" lon="-0.118">
        <ele>94.5</ele>
      </trkpt>
      <trkpt lat="44.88403" lon="-0.11792">
        <ele>95</ele>
      </trkpt>
      <trkpt lat="44.88398" lon="-0.11788">
        <ele>95.3</ele>
      </trkpt>
      <trkpt lat="44.88392" lon="-0.11787">
        <ele>95.6</ele>
      </trkpt>
      <trkpt lat="44.88386" lon="-0.11788">
        <ele>95.6</ele>
      </trkpt>
      <trkpt lat="44.8838" lon="-0.11795">
        <ele>95.4</ele>
      </trkpt>
      <trkpt lat="44.88362" lon="-0.11817">
        <ele>95</ele>
      </trkpt>
      <trkpt lat="44.88336" lon="-0.11863">
        <ele>93.9</ele>
      </trkpt>
      <trkpt lat="44.88323" lon="-0.1189">
        <ele>93.3</ele>
      </trkpt>
      <trkpt lat="44.88298" lon="-0.11929">
        <ele>92.7</ele>
      </trkpt>
      <trkpt lat="44.88285" lon="-0.11943">
        <ele>92.8</ele>
      </trkpt>
      <trkpt lat="44.88259" lon="-0.11964">
        <ele>92.8</ele>
      </trkpt>
      <trkpt lat="44.88184" lon="-0.12022">
        <ele>92.2</ele>
      </trkpt>
      <trkpt lat="44.88177" lon="-0.12026">
        <ele>92.1</ele>
      </trkpt>
      <trkpt lat="44.88171" lon="-0.12028">
        <ele>92</ele>
      </trkpt>
      <trkpt lat="44.88165" lon="-0.12029">
        <ele>92</ele>
      </trkpt>
      <trkpt lat="44.88156" lon="-0.12026">
        <ele>92</ele>
      </trkpt>
      <trkpt lat="44.88151" lon="-0.12025">
        <ele>92</ele>
      </trkpt>
      <trkpt lat="44.88145" lon="-0.12022">
        <ele>92</ele>
      </trkpt>
      <trkpt lat="44.88135" lon="-0.12016">
        <ele>91.8</ele>
      </trkpt>
      <trkpt lat="44.88124" lon="-0.12003">
        <ele>91.4</ele>
      </trkpt>
      <trkpt lat="44.88116" lon="-0.11992">
        <ele>91.4</ele>
      </trkpt>
      <trkpt lat="44.88107" lon="-0.11983">
        <ele>91.5</ele>
      </trkpt>
      <trkpt lat="44.88095" lon="-0.11977">
        <ele>91.2</ele>
      </trkpt>
      <trkpt lat="44.88072" lon="-0.11971">
        <ele>90.6</ele>
      </trkpt>
      <trkpt lat="44.88057" lon="-0.1197">
        <ele>90.1</ele>
      </trkpt>
      <trkpt lat="44.88041" lon="-0.11974">
        <ele>90</ele>
      </trkpt>
      <trkpt lat="44.88031" lon="-0.11981">
        <ele>89.7</ele>
      </trkpt>
      <trkpt lat="44.88021" lon="-0.11997">
        <ele>89.1</ele>
      </trkpt>
      <trkpt lat="44.88003" lon="-0.1204">
        <ele>89</ele>
      </trkpt>
      <trkpt lat="44.87997" lon="-0.12035">
        <ele>89</ele>
      </trkpt>
      <trkpt lat="44.87992" lon="-0.12029">
        <ele>89</ele>
      </trkpt>
      <trkpt lat="44.87941" lon="-0.11969">
        <ele>89</ele>
      </trkpt>
      <trkpt lat="44.87933" lon="-0.11958">
        <ele>89</ele>
      </trkpt>
      <trkpt lat="44.87928" lon="-0.1195">
        <ele>89</ele>
      </trkpt>
      <trkpt lat="44.87926" lon="-0.11937">
        <ele>89</ele>
      </trkpt>
      <trkpt lat="44.87925" lon="-0.11926">
        <ele>89</ele>
      </trkpt>
      <trkpt lat="44.87925" lon="-0.11916">
        <ele>89</ele>
      </trkpt>
      <trkpt lat="44.87928" lon="-0.11908">
        <ele>89</ele>
      </trkpt>
      <trkpt lat="44.8794" lon="-0.11881">
        <ele>89</ele>
      </trkpt>
      <trkpt lat="44.87995" lon="-0.11784">
        <ele>89</ele>
      </trkpt>
      <trkpt lat="44.88031" lon="-0.11718">
        <ele>90</ele>
      </trkpt>
      <trkpt lat="44.88063" lon="-0.11662">
        <ele>89.2</ele>
      </trkpt>
      <trkpt lat="44.88088" lon="-0.11616">
        <ele>88.3</ele>
      </trkpt>
      <trkpt lat="44.88119" lon="-0.11558">
        <ele>88.3</ele>
      </trkpt>
      <trkpt lat="44.88141" lon="-0.11509">
        <ele>89.1</ele>
      </trkpt>
      <trkpt lat="44.88163" lon="-0.11457">
        <ele>89.7</ele>
      </trkpt>
      <trkpt lat="44.88177" lon="-0.11424">
        <ele>89.6</ele>
      </trkpt>
      <trkpt lat="44.88183" lon="-0.11407">
        <ele>89.4</ele>
      </trkpt>
      <trkpt lat="44.88186" lon="-0.11397">
        <ele>89.5</ele>
      </trkpt>
      <trkpt lat="44.88187" lon="-0.11393">
        <ele>89.5</ele>
      </trkpt>
      <trkpt lat="44.88197" lon="-0.11357">
        <ele>88.9</ele>
      </trkpt>
      <trkpt lat="44.88208" lon="-0.11311">
        <ele>86.8</ele>
      </trkpt>
      <trkpt lat="44.88214" lon="-0.11289">
        <ele>85.9</ele>
      </trkpt>
      <trkpt lat="44.8822" lon="-0.11271">
        <ele>85.5</ele>
      </trkpt>
      <trkpt lat="44.88228" lon="-0.11249">
        <ele>85.4</ele>
      </trkpt>
      <trkpt lat="44.88233" lon="-0.11232">
        <ele>86</ele>
      </trkpt>
      <trkpt lat="44.88235" lon="-0.11222">
        <ele>86.4</ele>
      </trkpt>
      <trkpt lat="44.88238" lon="-0.11206">
        <ele>86.7</ele>
      </trkpt>
      <trkpt lat="44.8824" lon="-0.11175">
        <ele>88.1</ele>
      </trkpt>
      <trkpt lat="44.88243" lon="-0.11143">
        <ele>89.6</ele>
      </trkpt>
      <trkpt lat="44.88245" lon="-0.11127">
        <ele>89.7</ele>
      </trkpt>
      <trkpt lat="44.88249" lon="-0.11111">
        <ele>89.8</ele>
      </trkpt>
      <trkpt lat="44.88254" lon="-0.11098">
        <ele>89.4</ele>
      </trkpt>
      <trkpt lat="44.88261" lon="-0.11085">
        <ele>89.3</ele>
      </trkpt>
      <trkpt lat="44.88273" lon="-0.11061">
        <ele>88.9</ele>
      </trkpt>
      <trkpt lat="44.88286" lon="-0.11037">
        <ele>88.2</ele>
      </trkpt>
      <trkpt lat="44.88301" lon="-0.11003">
        <ele>87.6</ele>
      </trkpt>
      <trkpt lat="44.88304" lon="-0.10994">
        <ele>87.6</ele>
      </trkpt>
      <trkpt lat="44.88307" lon="-0.10985">
        <ele>87.5</ele>
      </trkpt>
      <trkpt lat="44.88309" lon="-0.10974">
        <ele>87.2</ele>
      </trkpt>
      <trkpt lat="44.8832" lon="-0.10911">
        <ele>88</ele>
      </trkpt>
      <trkpt lat="44.88323" lon="-0.10894">
        <ele>88</ele>
      </trkpt>
      <trkpt lat="44.88324" lon="-0.10888">
        <ele>88</ele>
      </trkpt>
      <trkpt lat="44.88327" lon="-0.10883">
        <ele>88.2</ele>
      </trkpt>
      <trkpt lat="44.88331" lon="-0.10879">
        <ele>88.4</ele>
      </trkpt>
      <trkpt lat="44.88333" lon="-0.10878">
        <ele>88.4</ele>
      </trkpt>
      <trkpt lat="44.88337" lon="-0.10877">
        <ele>88.4</ele>
      </trkpt>
      <trkpt lat="44.88341" lon="-0.10876">
        <ele>88.5</ele>
      </trkpt>
      <trkpt lat="44.8836" lon="-0.1088">
        <ele>88.3</ele>
      </trkpt>
      <trkpt lat="44.88387" lon="-0.10884">
        <ele>89.1</ele>
      </trkpt>
      <trkpt lat="44.88409" lon="-0.10888">
        <ele>89</ele>
      </trkpt>
      <trkpt lat="44.88434" lon="-0.10891">
        <ele>89.7</ele>
      </trkpt>
      <trkpt lat="44.88453" lon="-0.10891">
        <ele>90</ele>
      </trkpt>
      <trkpt lat="44.88465" lon="-0.10891">
        <ele>90</ele>
      </trkpt>
      <trkpt lat="44.88474" lon="-0.10889">
        <ele>90.1</ele>
      </trkpt>
      <trkpt lat="44.88481" lon="-0.10885">
        <ele>90.3</ele>
      </trkpt>
      <trkpt lat="44.88502" lon="-0.10866">
        <ele>91</ele>
      </trkpt>
      <trkpt lat="44.88509" lon="-0.10858">
        <ele>90.9</ele>
      </trkpt>
      <trkpt lat="44.88514" lon="-0.10853">
        <ele>90.9</ele>
      </trkpt>
      <trkpt lat="44.88529" lon="-0.10837">
        <ele>91</ele>
      </trkpt>
      <trkpt lat="44.88547" lon="-0.10814">
        <ele>90.8</ele>
      </trkpt>
      <trkpt lat="44.88572" lon="-0.10775">
        <ele>90.6</ele>
      </trkpt>
      <trkpt lat="44.8859" lon="-0.10746">
        <ele>90.9</ele>
      </trkpt>
      <trkpt lat="44.88598" lon="-0.10735">
        <ele>90.7</ele>
      </trkpt>
      <trkpt lat="44.88609" lon="-0.10719">
        <ele>90.8</ele>
      </trkpt>
      <trkpt lat="44.88621" lon="-0.10706">
        <ele>90.6</ele>
      </trkpt>
      <trkpt lat="44.88652" lon="-0.10679">
        <ele>89.9</ele>
      </trkpt>
      <trkpt lat="44.88661" lon="-0.10669">
        <ele>89.8</ele>
      </trkpt>
      <trkpt lat="44.88664" lon="-0.10666">
        <ele>89.9</ele>
      </trkpt>
      <trkpt lat="44.88674" lon="-0.10656">
        <ele>89.9</ele>
      </trkpt>
      <trkpt lat="44.88704" lon="-0.10621">
        <ele>89.7</ele>
      </trkpt>
      <trkpt lat="44.88728" lon="-0.10592">
        <ele>88.8</ele>
      </trkpt>
      <trkpt lat="44.88735" lon="-0.10585">
        <ele>88.6</ele>
      </trkpt>
      <trkpt lat="44.88742" lon="-0.1058">
        <ele>88.6</ele>
      </trkpt>
      <trkpt lat="44.88749" lon="-0.10576">
        <ele>88.7</ele>
      </trkpt>
      <trkpt lat="44.8877" lon="-0.10568">
        <ele>88.4</ele>
      </trkpt>
      <trkpt lat="44.88796" lon="-0.10557">
        <ele>88.1</ele>
      </trkpt>
      <trkpt lat="44.88833" lon="-0.10546">
        <ele>87</ele>
      </trkpt>
      <trkpt lat="44.88834" lon="-0.10546">
        <ele>87</ele>
      </trkpt>
      <trkpt lat="44.88843" lon="-0.10545">
        <ele>87</ele>
      </trkpt>
      <trkpt lat="44.88842" lon="-0.10541">
        <ele>87</ele>
      </trkpt>
      <trkpt lat="44.88838" lon="-0.10519">
        <ele>86.7</ele>
      </trkpt>
      <trkpt lat="44.88832" lon="-0.10493">
        <ele>86</ele>
      </trkpt>
      <trkpt lat="44.88822" lon="-0.10454">
        <ele>85.7</ele>
      </trkpt>
      <trkpt lat="44.88814" lon="-0.10419">
        <ele>84.4</ele>
      </trkpt>
      <trkpt lat="44.88804" lon="-0.10378">
        <ele>83.1</ele>
      </trkpt>
      <trkpt lat="44.88797" lon="-0.10347">
        <ele>82.8</ele>
      </trkpt>
      <trkpt lat="44.88793" lon="-0.10322">
        <ele>81.9</ele>
      </trkpt>
      <trkpt lat="44.8879" lon="-0.10299">
        <ele>80.8</ele>
      </trkpt>
      <trkpt lat="44.88789" lon="-0.10283">
        <ele>80.2</ele>
      </trkpt>
      <trkpt lat="44.88789" lon="-0.10265">
        <ele>79.2</ele>
      </trkpt>
      <trkpt lat="44.88789" lon="-0.10247">
        <ele>78</ele>
      </trkpt>
      <trkpt lat="44.8879" lon="-0.10229">
        <ele>76.9</ele>
      </trkpt>
      <trkpt lat="44.88792" lon="-0.1021">
        <ele>76.3</ele>
      </trkpt>
      <trkpt lat="44.88794" lon="-0.10188">
        <ele>75.7</ele>
      </trkpt>
      <trkpt lat="44.88796" lon="-0.10161">
        <ele>75.1</ele>
      </trkpt>
      <trkpt lat="44.88799" lon="-0.10135">
        <ele>74.1</ele>
      </trkpt>
      <trkpt lat="44.88801" lon="-0.10107">
        <ele>72.7</ele>
      </trkpt>
      <trkpt lat="44.88805" lon="-0.10069">
        <ele>70</ele>
      </trkpt>
      <trkpt lat="44.8881" lon="-0.10017">
        <ele>67.5</ele>
      </trkpt>
      <trkpt lat="44.88816" lon="-0.09957">
        <ele>64.5</ele>
      </trkpt>
      <trkpt lat="44.88819" lon="-0.09919">
        <ele>63.1</ele>
      </trkpt>
      <trkpt lat="44.88826" lon="-0.09877">
        <ele>60.8</ele>
      </trkpt>
      <trkpt lat="44.88829" lon="-0.09836">
        <ele>60.3</ele>
      </trkpt>
      <trkpt lat="44.88834" lon="-0.09717">
        <ele>63</ele>
      </trkpt>
      <trkpt lat="44.88838" lon="-0.09686">
        <ele>63.3</ele>
      </trkpt>
      <trkpt lat="44.88848" lon="-0.09615">
        <ele>64.5</ele>
      </trkpt>
      <trkpt lat="44.88849" lon="-0.09605">
        <ele>64.9</ele>
      </trkpt>
      <trkpt lat="44.88856" lon="-0.09578">
        <ele>66.7</ele>
      </trkpt>
      <trkpt lat="44.88858" lon="-0.09565">
        <ele>68</ele>
      </trkpt>
      <trkpt lat="44.88858" lon="-0.09557">
        <ele>68.8</ele>
      </trkpt>
      <trkpt lat="44.88858" lon="-0.09552">
        <ele>69.4</ele>
      </trkpt>
      <trkpt lat="44.88858" lon="-0.09548">
        <ele>69.8</ele>
      </trkpt>
      <trkpt lat="44.88855" lon="-0.09543">
        <ele>70.4</ele>
      </trkpt>
      <trkpt lat="44.88853" lon="-0.09538">
        <ele>70.9</ele>
      </trkpt>
      <trkpt lat="44.88849" lon="-0.09532">
        <ele>71.5</ele>
      </trkpt>
      <trkpt lat="44.88843" lon="-0.09525">
        <ele>72.4</ele>
      </trkpt>
      <trkpt lat="44.88831" lon="-0.09514">
        <ele>73.6</ele>
      </trkpt>
      <trkpt lat="44.88825" lon="-0.09506">
        <ele>73.8</ele>
      </trkpt>
      <trkpt lat="44.88822" lon="-0.09498">
        <ele>74.1</ele>
      </trkpt>
      <trkpt lat="44.88821" lon="-0.09491">
        <ele>74.5</ele>
      </trkpt>
      <trkpt lat="44.8882" lon="-0.09484">
        <ele>74.8</ele>
      </trkpt>
      <trkpt lat="44.8882" lon="-0.09477">
        <ele>75.3</ele>
      </trkpt>
      <trkpt lat="44.88821" lon="-0.09469">
        <ele>75.9</ele>
      </trkpt>
      <trkpt lat="44.88822" lon="-0.09461">
        <ele>76.1</ele>
      </trkpt>
      <trkpt lat="44.88825" lon="-0.09448">
        <ele>76.9</ele>
      </trkpt>
      <trkpt lat="44.88833" lon="-0.09415">
        <ele>80</ele>
      </trkpt>
      <trkpt lat="44.8884" lon="-0.09386">
        <ele>82.6</ele>
      </trkpt>
      <trkpt lat="44.88843" lon="-0.09368">
        <ele>83.7</ele>
      </trkpt>
      <trkpt lat="44.88845" lon="-0.09354">
        <ele>84.1</ele>
      </trkpt>
      <trkpt lat="44.88845" lon="-0.09346">
        <ele>84.2</ele>
      </trkpt>
      <trkpt lat="44.88845" lon="-0.09338">
        <ele>84.3</ele>
      </trkpt>
      <trkpt lat="44.88843" lon="-0.09326">
        <ele>84.5</ele>
      </trkpt>
      <trkpt lat="44.8884" lon="-0.09309">
        <ele>84.9</ele>
      </trkpt>
      <trkpt lat="44.88833" lon="-0.09272">
        <ele>85.2</ele>
      </trkpt>
      <trkpt lat="44.88824" lon="-0.09225">
        <ele>86.3</ele>
      </trkpt>
      <trkpt lat="44.88814" lon="-0.09169">
        <ele>86.7</ele>
      </trkpt>
      <trkpt lat="44.88805" lon="-0.09121">
        <ele>87.7</ele>
      </trkpt>
      <trkpt lat="44.888" lon="-0.0909">
        <ele>88</ele>
      </trkpt>
      <trkpt lat="44.88796" lon="-0.09066">
        <ele>88</ele>
      </trkpt>
      <trkpt lat="44.88785" lon="-0.09015">
        <ele>88</ele>
      </trkpt>
      <trkpt lat="44.88774" lon="-0.08956">
        <ele>88.9</ele>
      </trkpt>
      <trkpt lat="44.88761" lon="-0.0889">
        <ele>88.6</ele>
      </trkpt>
      <trkpt lat="44.88755" lon="-0.08859">
        <ele>88.8</ele>
      </trkpt>
      <trkpt lat="44.88748" lon="-0.08825">
        <ele>88.7</ele>
      </trkpt>
      <trkpt lat="44.88726" lon="-0.0873">
        <ele>88</ele>
      </trkpt>
      <trkpt lat="44.88706" lon="-0.08642">
        <ele>87</ele>
      </trkpt>
      <trkpt lat="44.88699" lon="-0.08611">
        <ele>87</ele>
      </trkpt>
      <trkpt lat="44.88694" lon="-0.08586">
        <ele>87</ele>
      </trkpt>
      <trkpt lat="44.88684" lon="-0.08537">
        <ele>86.4</ele>
      </trkpt>
      <trkpt lat="44.88679" lon="-0.08516">
        <ele>86.3</ele>
      </trkpt>
      <trkpt lat="44.88673" lon="-0.08486">
        <ele>86</ele>
      </trkpt>
      <trkpt lat="44.88672" lon="-0.08482">
        <ele>86</ele>
      </trkpt>
      <trkpt lat="44.88669" lon="-0.0847">
        <ele>86</ele>
      </trkpt>
      <trkpt lat="44.88672" lon="-0.08482">
        <ele>86</ele>
      </trkpt>
      <trkpt lat="44.88672" lon="-0.08482">
        <ele>86</ele>
      </trkpt>
      <trkpt lat="44.88666" lon="-0.08487">
        <ele>86</ele>
      </trkpt>
      <trkpt lat="44.88657" lon="-0.08495">
        <ele>86.3</ele>
      </trkpt>
      <trkpt lat="44.88636" lon="-0.08518">
        <ele>87</ele>
      </trkpt>
      <trkpt lat="44.88611" lon="-0.08546">
        <ele>87</ele>
      </trkpt>
      <trkpt lat="44.88592" lon="-0.08565">
        <ele>87</ele>
      </trkpt>
      <trkpt lat="44.88566" lon="-0.0859">
        <ele>86.4</ele>
      </trkpt>
      <trkpt lat="44.88535" lon="-0.08616">
        <ele>86</ele>
      </trkpt>
      <trkpt lat="44.88509" lon="-0.08637">
        <ele>85.3</ele>
      </trkpt>
      <trkpt lat="44.885" lon="-0.08644">
        <ele>85.2</ele>
      </trkpt>
      <trkpt lat="44.88486" lon="-0.08652">
        <ele>85.2</ele>
      </trkpt>
      <trkpt lat="44.8847" lon="-0.08661">
        <ele>84.9</ele>
      </trkpt>
      <trkpt lat="44.88453" lon="-0.08669">
        <ele>84.1</ele>
      </trkpt>
      <trkpt lat="44.88437" lon="-0.08677">
        <ele>82.9</ele>
      </trkpt>
      <trkpt lat="44.88425" lon="-0.08683">
        <ele>82.2</ele>
      </trkpt>
      <trkpt lat="44.88414" lon="-0.08691">
        <ele>81.6</ele>
      </trkpt>
      <trkpt lat="44.88401" lon="-0.08703">
        <ele>82.2</ele>
      </trkpt>
      <trkpt lat="44.88386" lon="-0.08715">
        <ele>83.4</ele>
      </trkpt>
      <trkpt lat="44.88385" lon="-0.08716">
        <ele>83.4</ele>
      </trkpt>
      <trkpt lat="44.88373" lon="-0.08724">
        <ele>83.5</ele>
      </trkpt>
      <trkpt lat="44.88363" lon="-0.08729">
        <ele>83.9</ele>
      </trkpt>
      <trkpt lat="44.88356" lon="-0.0873">
        <ele>84.2</ele>
      </trkpt>
      <trkpt lat="44.88353" lon="-0.0873">
        <ele>84.3</ele>
      </trkpt>
      <trkpt lat="44.88347" lon="-0.0873">
        <ele>84.5</ele>
      </trkpt>
      <trkpt lat="44.88337" lon="-0.08727">
        <ele>84.9</ele>
      </trkpt>
      <trkpt lat="44.88324" lon="-0.08721">
        <ele>84.7</ele>
      </trkpt>
      <trkpt lat="44.88314" lon="-0.08713">
        <ele>84.3</ele>
      </trkpt>
      <trkpt lat="44.8829" lon="-0.08667">
        <ele>83.9</ele>
      </trkpt>
      <trkpt lat="44.88277" lon="-0.08649">
        <ele>83</ele>
      </trkpt>
      <trkpt lat="44.88264" lon="-0.08643">
        <ele>82.2</ele>
      </trkpt>
      <trkpt lat="44.88256" lon="-0.08643">
        <ele>81.7</ele>
      </trkpt>
      <trkpt lat="44.88252" lon="-0.08643">
        <ele>81.4</ele>
      </trkpt>
      <trkpt lat="44.88238" lon="-0.08648">
        <ele>79.5</ele>
      </trkpt>
      <trkpt lat="44.8823" lon="-0.08656">
        <ele>79.2</ele>
      </trkpt>
      <trkpt lat="44.88223" lon="-0.08676">
        <ele>80.4</ele>
      </trkpt>
      <trkpt lat="44.88218" lon="-0.087">
        <ele>80</ele>
      </trkpt>
      <trkpt lat="44.88209" lon="-0.08718">
        <ele>78.5</ele>
      </trkpt>
      <trkpt lat="44.88199" lon="-0.08731">
        <ele>78</ele>
      </trkpt>
      <trkpt lat="44.88187" lon="-0.08738">
        <ele>77.4</ele>
      </trkpt>
      <trkpt lat="44.88174" lon="-0.08742">
        <ele>76.5</ele>
      </trkpt>
      <trkpt lat="44.88164" lon="-0.08743">
        <ele>75.8</ele>
      </trkpt>
      <trkpt lat="44.8814" lon="-0.08743">
        <ele>73.6</ele>
      </trkpt>
      <trkpt lat="44.88073" lon="-0.08738">
        <ele>63.4</ele>
      </trkpt>
      <trkpt lat="44.88051" lon="-0.08736">
        <ele>60.1</ele>
      </trkpt>
      <trkpt lat="44.8803" lon="-0.08722">
        <ele>57.1</ele>
      </trkpt>
      <trkpt lat="44.88016" lon="-0.08708">
        <ele>54</ele>
      </trkpt>
      <trkpt lat="44.88" lon="-0.08704">
        <ele>51.7</ele>
      </trkpt>
      <trkpt lat="44.87985" lon="-0.08708">
        <ele>49.6</ele>
      </trkpt>
      <trkpt lat="44.87961" lon="-0.08719">
        <ele>46.6</ele>
      </trkpt>
      <trkpt lat="44.87938" lon="-0.08732">
        <ele>44.4</ele>
      </trkpt>
      <trkpt lat="44.87927" lon="-0.08738">
        <ele>43.5</ele>
      </trkpt>
      <trkpt lat="44.87908" lon="-0.08746">
        <ele>42.5</ele>
      </trkpt>
      <trkpt lat="44.87893" lon="-0.08748">
        <ele>42</ele>
      </trkpt>
      <trkpt lat="44.87859" lon="-0.0875">
        <ele>40.9</ele>
      </trkpt>
      <trkpt lat="44.87826" lon="-0.08745">
        <ele>39.3</ele>
      </trkpt>
      <trkpt lat="44.8781" lon="-0.0874">
        <ele>38</ele>
      </trkpt>
      <trkpt lat="44.87791" lon="-0.08728">
        <ele>36.1</ele>
      </trkpt>
      <trkpt lat="44.87775" lon="-0.08718">
        <ele>34.9</ele>
      </trkpt>
      <trkpt lat="44.87759" lon="-0.08711">
        <ele>34.3</ele>
      </trkpt>
      <trkpt lat="44.87741" lon="-0.08705">
        <ele>33.7</ele>
      </trkpt>
      <trkpt lat="44.87732" lon="-0.08702">
        <ele>33.4</ele>
      </trkpt>
      <trkpt lat="44.87722" lon="-0.08697">
        <ele>33</ele>
      </trkpt>
      <trkpt lat="44.87713" lon="-0.08688">
        <ele>32.7</ele>
      </trkpt>
      <trkpt lat="44.87707" lon="-0.08678">
        <ele>32.5</ele>
      </trkpt>
      <trkpt lat="44.87696" lon="-0.08642">
        <ele>31.2</ele>
      </trkpt>
      <trkpt lat="44.87681" lon="-0.08583">
        <ele>28.5</ele>
      </trkpt>
      <trkpt lat="44.87671" lon="-0.08543">
        <ele>27.6</ele>
      </trkpt>
      <trkpt lat="44.87667" lon="-0.08527">
        <ele>27</ele>
      </trkpt>
      <trkpt lat="44.87664" lon="-0.08528">
        <ele>26.9</ele>
      </trkpt>
      <trkpt lat="44.87626" lon="-0.08554">
        <ele>26.5</ele>
      </trkpt>
      <trkpt lat="44.87587" lon="-0.08586">
        <ele>25.3</ele>
      </trkpt>
      <trkpt lat="44.87543" lon="-0.08619">
        <ele>23.5</ele>
      </trkpt>
      <trkpt lat="44.87493" lon="-0.08656">
        <ele>21.7</ele>
      </trkpt>
      <trkpt lat="44.87491" lon="-0.08658">
        <ele>21.7</ele>
      </trkpt>
      <trkpt lat="44.87486" lon="-0.08667">
        <ele>21.5</ele>
      </trkpt>
      <trkpt lat="44.87486" lon="-0.08667">
        <ele>21.5</ele>
      </trkpt>
      <trkpt lat="44.87495" lon="-0.08678">
        <ele>21.4</ele>
      </trkpt>
      <trkpt lat="44.87517" lon="-0.08692">
        <ele>21.7</ele>
      </trkpt>
      <trkpt lat="44.87551" lon="-0.08711">
        <ele>22.3</ele>
      </trkpt>
      <trkpt lat="44.87566" lon="-0.08722">
        <ele>22.8</ele>
      </trkpt>
      <trkpt lat="44.87579" lon="-0.08734">
        <ele>23.3</ele>
      </trkpt>
      <trkpt lat="44.87588" lon="-0.08748">
        <ele>23.4</ele>
      </trkpt>
      <trkpt lat="44.87602" lon="-0.08775">
        <ele>23.4</ele>
      </trkpt>
      <trkpt lat="44.87604" lon="-0.08779">
        <ele>23.5</ele>
      </trkpt>
      <trkpt lat="44.87621" lon="-0.08816">
        <ele>23.5</ele>
      </trkpt>
      <trkpt lat="44.87645" lon="-0.0887">
        <ele>23.1</ele>
      </trkpt>
      <trkpt lat="44.87674" lon="-0.08946">
        <ele>23.5</ele>
      </trkpt>
      <trkpt lat="44.87692" lon="-0.08989">
        <ele>22.9</ele>
      </trkpt>
      <trkpt lat="44.87715" lon="-0.09036">
        <ele>23.2</ele>
      </trkpt>
      <trkpt lat="44.87724" lon="-0.09055">
        <ele>23.1</ele>
      </trkpt>
      <trkpt lat="44.87744" lon="-0.09092">
        <ele>23.3</ele>
      </trkpt>
      <trkpt lat="44.87769" lon="-0.09136">
        <ele>22.8</ele>
      </trkpt>
      <trkpt lat="44.87782" lon="-0.09158">
        <ele>22.5</ele>
      </trkpt>
      <trkpt lat="44.87803" lon="-0.09191">
        <ele>22.9</ele>
      </trkpt>
      <trkpt lat="44.87813" lon="-0.09206">
        <ele>22.7</ele>
      </trkpt>
      <trkpt lat="44.87829" lon="-0.09229">
        <ele>22.6</ele>
      </trkpt>
      <trkpt lat="44.87845" lon="-0.09256">
        <ele>22.2</ele>
      </trkpt>
      <trkpt lat="44.87855" lon="-0.09273">
        <ele>22</ele>
      </trkpt>
      <trkpt lat="44.87868" lon="-0.09294">
        <ele>22.1</ele>
      </trkpt>
      <trkpt lat="44.87874" lon="-0.09309">
        <ele>21.9</ele>
      </trkpt>
      <trkpt lat="44.87878" lon="-0.09318">
        <ele>21.8</ele>
      </trkpt>
      <trkpt lat="44.87882" lon="-0.09327">
        <ele>21.8</ele>
      </trkpt>
      <trkpt lat="44.87886" lon="-0.0934">
        <ele>21.9</ele>
      </trkpt>
      <trkpt lat="44.8789" lon="-0.09353">
        <ele>22</ele>
      </trkpt>
      <trkpt lat="44.8789" lon="-0.09362">
        <ele>22</ele>
      </trkpt>
      <trkpt lat="44.87892" lon="-0.09375">
        <ele>22</ele>
      </trkpt>
      <trkpt lat="44.87895" lon="-0.09393">
        <ele>21.9</ele>
      </trkpt>
      <trkpt lat="44.87902" lon="-0.09417">
        <ele>21.5</ele>
      </trkpt>
      <trkpt lat="44.87912" lon="-0.09443">
        <ele>21.8</ele>
      </trkpt>
      <trkpt lat="44.87927" lon="-0.09482">
        <ele>22.4</ele>
      </trkpt>
      <trkpt lat="44.8795" lon="-0.09542">
        <ele>23.2</ele>
      </trkpt>
      <trkpt lat="44.87953" lon="-0.09549">
        <ele>23.3</ele>
      </trkpt>
      <trkpt lat="44.87955" lon="-0.09556">
        <ele>23.4</ele>
      </trkpt>
      <trkpt lat="44.8796" lon="-0.09572">
        <ele>23.6</ele>
      </trkpt>
      <trkpt lat="44.87962" lon="-0.09586">
        <ele>23.6</ele>
      </trkpt>
      <trkpt lat="44.87963" lon="-0.09607">
        <ele>23.7</ele>
      </trkpt>
      <trkpt lat="44.87962" lon="-0.09658">
        <ele>24.6</ele>
      </trkpt>
      <trkpt lat="44.87962" lon="-0.09691">
        <ele>24.6</ele>
      </trkpt>
      <trkpt lat="44.87961" lon="-0.09714">
        <ele>24.6</ele>
      </trkpt>
      <trkpt lat="44.87959" lon="-0.09723">
        <ele>24.5</ele>
      </trkpt>
      <trkpt lat="44.87955" lon="-0.09738">
        <ele>24.4</ele>
      </trkpt>
      <trkpt lat="44.87954" lon="-0.09741">
        <ele>24.3</ele>
      </trkpt>
      <trkpt lat="44.87952" lon="-0.0975">
        <ele>24.3</ele>
      </trkpt>
      <trkpt lat="44.87953" lon="-0.09757">
        <ele>24.3</ele>
      </trkpt>
      <trkpt lat="44.87955" lon="-0.0977">
        <ele>24.4</ele>
      </trkpt>
      <trkpt lat="44.87959" lon="-0.09782">
        <ele>24.5</ele>
      </trkpt>
      <trkpt lat="44.87964" lon="-0.09796">
        <ele>24.5</ele>
      </trkpt>
      <trkpt lat="44.8797" lon="-0.0981">
        <ele>24.7</ele>
      </trkpt>
      <trkpt lat="44.87974" lon="-0.09821">
        <ele>24.5</ele>
      </trkpt>
      <trkpt lat="44.87977" lon="-0.09837">
        <ele>24.3</ele>
      </trkpt>
      <trkpt lat="44.87981" lon="-0.09861">
        <ele>24.6</ele>
      </trkpt>
      <trkpt lat="44.87988" lon="-0.09908">
        <ele>23.8</ele>
      </trkpt>
      <trkpt lat="44.87991" lon="-0.09936">
        <ele>24</ele>
      </trkpt>
      <trkpt lat="44.87991" lon="-0.09951">
        <ele>24</ele>
      </trkpt>
      <trkpt lat="44.8799" lon="-0.09965">
        <ele>23.9</ele>
      </trkpt>
      <trkpt lat="44.87989" lon="-0.09983">
        <ele>23.6</ele>
      </trkpt>
      <trkpt lat="44.87985" lon="-0.10003">
        <ele>22.9</ele>
      </trkpt>
      <trkpt lat="44.8798" lon="-0.10026">
        <ele>22.6</ele>
      </trkpt>
      <trkpt lat="44.87973" lon="-0.10046">
        <ele>22.1</ele>
      </trkpt>
      <trkpt lat="44.87967" lon="-0.10058">
        <ele>21.6</ele>
      </trkpt>
      <trkpt lat="44.87962" lon="-0.10067">
        <ele>21.2</ele>
      </trkpt>
      <trkpt lat="44.87956" lon="-0.10074">
        <ele>20.9</ele>
      </trkpt>
      <trkpt lat="44.87948" lon="-0.10079">
        <ele>20.9</ele>
      </trkpt>
      <trkpt lat="44.87938" lon="-0.10084">
        <ele>20.7</ele>
      </trkpt>
      <trkpt lat="44.87921" lon="-0.10091">
        <ele>20.1</ele>
      </trkpt>
      <trkpt lat="44.87905" lon="-0.10101">
        <ele>19.8</ele>
      </trkpt>
      <trkpt lat="44.87898" lon="-0.10107">
        <ele>19.9</ele>
      </trkpt>
      <trkpt lat="44.87892" lon="-0.10114">
        <ele>20</ele>
      </trkpt>
      <trkpt lat="44.87885" lon="-0.10127">
        <ele>19.8</ele>
      </trkpt>
      <trkpt lat="44.87879" lon="-0.10142">
        <ele>19.7</ele>
      </trkpt>
      <trkpt lat="44.87872" lon="-0.10165">
        <ele>20</ele>
      </trkpt>
      <trkpt lat="44.87861" lon="-0.10211">
        <ele>20</ele>
      </trkpt>
      <trkpt lat="44.87848" lon="-0.1027">
        <ele>19.5</ele>
      </trkpt>
      <trkpt lat="44.87843" lon="-0.10291">
        <ele>19.3</ele>
      </trkpt>
      <trkpt lat="44.87833" lon="-0.10326">
        <ele>19</ele>
      </trkpt>
      <trkpt lat="44.87825" lon="-0.10339">
        <ele>19.1</ele>
      </trkpt>
      <trkpt lat="44.87817" lon="-0.10346">
        <ele>19.2</ele>
      </trkpt>
      <trkpt lat="44.87809" lon="-0.10351">
        <ele>19.1</ele>
      </trkpt>
      <trkpt lat="44.87786" lon="-0.10363">
        <ele>19</ele>
      </trkpt>
      <trkpt lat="44.87779" lon="-0.10373">
        <ele>19</ele>
      </trkpt>
      <trkpt lat="44.87773" lon="-0.10386">
        <ele>18.8</ele>
      </trkpt>
      <trkpt lat="44.87768" lon="-0.1042">
        <ele>18.6</ele>
      </trkpt>
      <trkpt lat="44.87761" lon="-0.10478">
        <ele>18.9</ele>
      </trkpt>
      <trkpt lat="44.87751" lon="-0.10544">
        <ele>20.6</ele>
      </trkpt>
      <trkpt lat="44.87726" lon="-0.1062">
        <ele>21</ele>
      </trkpt>
      <trkpt lat="44.87698" lon="-0.10702">
        <ele>21.5</ele>
      </trkpt>
      <trkpt lat="44.87694" lon="-0.10723">
        <ele>21.9</ele>
      </trkpt>
      <trkpt lat="44.87692" lon="-0.10758">
        <ele>21.6</ele>
      </trkpt>
      <trkpt lat="44.87693" lon="-0.10784">
        <ele>21.8</ele>
      </trkpt>
      <trkpt lat="44.8769" lon="-0.10803">
        <ele>21.4</ele>
      </trkpt>
      <trkpt lat="44.87683" lon="-0.10823">
        <ele>20.6</ele>
      </trkpt>
      <trkpt lat="44.87653" lon="-0.11001">
        <ele>19</ele>
      </trkpt>
      <trkpt lat="44.87651" lon="-0.11012">
        <ele>18.9</ele>
      </trkpt>
      <trkpt lat="44.87648" lon="-0.1105">
        <ele>18.9</ele>
      </trkpt>
      <trkpt lat="44.87647" lon="-0.11064">
        <ele>18.8</ele>
      </trkpt>
      <trkpt lat="44.87645" lon="-0.11083">
        <ele>18.2</ele>
      </trkpt>
      <trkpt lat="44.87642" lon="-0.11116">
        <ele>18.3</ele>
      </trkpt>
      <trkpt lat="44.87636" lon="-0.11156">
        <ele>18.8</ele>
      </trkpt>
      <trkpt lat="44.87633" lon="-0.11181">
        <ele>18.2</ele>
      </trkpt>
      <trkpt lat="44.87628" lon="-0.11181">
        <ele>17.9</ele>
      </trkpt>
      <trkpt lat="44.87625" lon="-0.11181">
        <ele>17.7</ele>
      </trkpt>
      <trkpt lat="44.87624" lon="-0.11184">
        <ele>17.6</ele>
      </trkpt>
      <trkpt lat="44.87613" lon="-0.1123">
        <ele>17.7</ele>
      </trkpt>
      <trkpt lat="44.87611" lon="-0.11237">
        <ele>18.1</ele>
      </trkpt>
      <trkpt lat="44.87613" lon="-0.1123">
        <ele>17.7</ele>
      </trkpt>
      <trkpt lat="44.87624" lon="-0.11184">
        <ele>17.6</ele>
      </trkpt>
      <trkpt lat="44.87625" lon="-0.11181">
        <ele>17.7</ele>
      </trkpt>
      <trkpt lat="44.87628" lon="-0.11181">
        <ele>17.9</ele>
      </trkpt>
      <trkpt lat="44.87633" lon="-0.11181">
        <ele>18.2</ele>
      </trkpt>
      <trkpt lat="44.87631" lon="-0.11191">
        <ele>17.8</ele>
      </trkpt>
      <trkpt lat="44.87626" lon="-0.11219">
        <ele>18</ele>
      </trkpt>
      <trkpt lat="44.87623" lon="-0.11242">
        <ele>18.7</ele>
      </trkpt>
      <trkpt lat="44.87618" lon="-0.1126">
        <ele>18.6</ele>
      </trkpt>
      <trkpt lat="44.87613" lon="-0.11276">
        <ele>18.1</ele>
      </trkpt>
      <trkpt lat="44.87612" lon="-0.1128">
        <ele>18</ele>
      </trkpt>
      <trkpt lat="44.87611" lon="-0.11284">
        <ele>18</ele>
      </trkpt>
      <trkpt lat="44.87606" lon="-0.113">
        <ele>17.7</ele>
      </trkpt>
      <trkpt lat="44.87593" lon="-0.11341">
        <ele>17</ele>
      </trkpt>
      <trkpt lat="44.87586" lon="-0.11363">
        <ele>17</ele>
      </trkpt>
      <trkpt lat="44.87579" lon="-0.11385">
        <ele>16.7</ele>
      </trkpt>
      <trkpt lat="44.87571" lon="-0.11418">
        <ele>16.6</ele>
      </trkpt>
      <trkpt lat="44.87555" lon="-0.11487">
        <ele>17</ele>
      </trkpt>
      <trkpt lat="44.87544" lon="-0.11532">
        <ele>16.2</ele>
      </trkpt>
      <trkpt lat="44.87532" lon="-0.11584">
        <ele>17</ele>
      </trkpt>
      <trkpt lat="44.87523" lon="-0.11628">
        <ele>17.1</ele>
      </trkpt>
      <trkpt lat="44.87518" lon="-0.11657">
        <ele>16.9</ele>
      </trkpt>
      <trkpt lat="44.87511" lon="-0.11695">
        <ele>17.2</ele>
      </trkpt>
      <trkpt lat="44.87504" lon="-0.11743">
        <ele>17.9</ele>
      </trkpt>
      <trkpt lat="44.87494" lon="-0.11796">
        <ele>17.5</ele>
      </trkpt>
      <trkpt lat="44.87485" lon="-0.11854">
        <ele>17.8</ele>
      </trkpt>
      <trkpt lat="44.87479" lon="-0.11886">
        <ele>18.2</ele>
      </trkpt>
      <trkpt lat="44.87476" lon="-0.11898">
        <ele>18.1</ele>
      </trkpt>
      <trkpt lat="44.87471" lon="-0.11916">
        <ele>17.9</ele>
      </trkpt>
      <trkpt lat="44.87468" lon="-0.11927">
        <ele>17.6</ele>
      </trkpt>
      <trkpt lat="44.87464" lon="-0.11945">
        <ele>17.4</ele>
      </trkpt>
      <trkpt lat="44.8746" lon="-0.11974">
        <ele>17.6</ele>
      </trkpt>
      <trkpt lat="44.87456" lon="-0.12009">
        <ele>18.2</ele>
      </trkpt>
      <trkpt lat="44.87455" lon="-0.12026">
        <ele>17.8</ele>
      </trkpt>
      <trkpt lat="44.87454" lon="-0.12037">
        <ele>17.7</ele>
      </trkpt>
      <trkpt lat="44.87451" lon="-0.1208">
        <ele>18.4</ele>
      </trkpt>
      <trkpt lat="44.87451" lon="-0.12104">
        <ele>18.5</ele>
      </trkpt>
      <trkpt lat="44.87451" lon="-0.12124">
        <ele>18.8</ele>
      </trkpt>
      <trkpt lat="44.87453" lon="-0.12167">
        <ele>19.3</ele>
      </trkpt>
      <trkpt lat="44.87455" lon="-0.12216">
        <ele>18.8</ele>
      </trkpt>
      <trkpt lat="44.87457" lon="-0.12246">
        <ele>19.4</ele>
      </trkpt>
      <trkpt lat="44.8746" lon="-0.1227">
        <ele>19.6</ele>
      </trkpt>
      <trkpt lat="44.87466" lon="-0.12307">
        <ele>19.7</ele>
      </trkpt>
      <trkpt lat="44.87478" lon="-0.12357">
        <ele>19.4</ele>
      </trkpt>
      <trkpt lat="44.87492" lon="-0.12403">
        <ele>19.3</ele>
      </trkpt>
      <trkpt lat="44.87512" lon="-0.12478">
        <ele>20</ele>
      </trkpt>
      <trkpt lat="44.87542" lon="-0.1259">
        <ele>21.4</ele>
      </trkpt>
      <trkpt lat="44.87546" lon="-0.12602">
        <ele>21.5</ele>
      </trkpt>
      <trkpt lat="44.87534" lon="-0.12605">
        <ele>20.5</ele>
      </trkpt>
      <trkpt lat="44.87534" lon="-0.12605">
        <ele>20.5</ele>
      </trkpt>
      <trkpt lat="44.87546" lon="-0.12602">
        <ele>21.5</ele>
      </trkpt>
      <trkpt lat="44.87549" lon="-0.12611">
        <ele>21.5</ele>
      </trkpt>
      <trkpt lat="44.87568" lon="-0.12649">
        <ele>22.2</ele>
      </trkpt>
      <trkpt lat="44.87593" lon="-0.12696">
        <ele>23</ele>
      </trkpt>
      <trkpt lat="44.87618" lon="-0.1274">
        <ele>23</ele>
      </trkpt>
      <trkpt lat="44.87634" lon="-0.12766">
        <ele>23.5</ele>
      </trkpt>
      <trkpt lat="44.87662" lon="-0.12811">
        <ele>23.6</ele>
      </trkpt>
      <trkpt lat="44.87697" lon="-0.12866">
        <ele>22.9</ele>
      </trkpt>
      <trkpt lat="44.87728" lon="-0.12915">
        <ele>23.2</ele>
      </trkpt>
      <trkpt lat="44.8774" lon="-0.12934">
        <ele>23.6</ele>
      </trkpt>
      <trkpt lat="44.87745" lon="-0.12942">
        <ele>23.8</ele>
      </trkpt>
      <trkpt lat="44.8775" lon="-0.12951">
        <ele>24</ele>
      </trkpt>
      <trkpt lat="44.87752" lon="-0.12954">
        <ele>24</ele>
      </trkpt>
      <trkpt lat="44.87769" lon="-0.1298">
        <ele>24.1</ele>
      </trkpt>
      <trkpt lat="44.87796" lon="-0.13023">
        <ele>24.7</ele>
      </trkpt>
      <trkpt lat="44.87808" lon="-0.13045">
        <ele>25.7</ele>
      </trkpt>
      <trkpt lat="44.87824" lon="-0.13075">
        <ele>26.5</ele>
      </trkpt>
      <trkpt lat="44.8784" lon="-0.13106">
        <ele>27.2</ele>
      </trkpt>
      <trkpt lat="44.87856" lon="-0.13133">
        <ele>27.8</ele>
      </trkpt>
      <trkpt lat="44.87873" lon="-0.13158">
        <ele>28.4</ele>
      </trkpt>
      <trkpt lat="44.8789" lon="-0.13184">
        <ele>29</ele>
      </trkpt>
      <trkpt lat="44.87899" lon="-0.13195">
        <ele>29.4</ele>
      </trkpt>
      <trkpt lat="44.87902" lon="-0.13202">
        <ele>29.6</ele>
      </trkpt>
      <trkpt lat="44.87907" lon="-0.13214">
        <ele>30.1</ele>
      </trkpt>
      <trkpt lat="44.87914" lon="-0.13232">
        <ele>30.5</ele>
      </trkpt>
      <trkpt lat="44.87919" lon="-0.13249">
        <ele>30.2</ele>
      </trkpt>
      <trkpt lat="44.87923" lon="-0.13263">
        <ele>30.6</ele>
      </trkpt>
      <trkpt lat="44.87927" lon="-0.13281">
        <ele>31.1</ele>
      </trkpt>
      <trkpt lat="44.87929" lon="-0.13299">
        <ele>31.3</ele>
      </trkpt>
      <trkpt lat="44.87931" lon="-0.13312">
        <ele>31.5</ele>
      </trkpt>
      <trkpt lat="44.87932" lon="-0.13323">
        <ele>31.7</ele>
      </trkpt>
      <trkpt lat="44.87934" lon="-0.13343">
        <ele>31.7</ele>
      </trkpt>
      <trkpt lat="44.87935" lon="-0.13372">
        <ele>31.3</ele>
      </trkpt>
      <trkpt lat="44.87936" lon="-0.13402">
        <ele>30.9</ele>
      </trkpt>
      <trkpt lat="44.87938" lon="-0.13444">
        <ele>30.5</ele>
      </trkpt>
      <trkpt lat="44.8794" lon="-0.13481">
        <ele>30.6</ele>
      </trkpt>
      <trkpt lat="44.87941" lon="-0.1351">
        <ele>30.7</ele>
      </trkpt>
      <trkpt lat="44.87941" lon="-0.1353">
        <ele>30.7</ele>
      </trkpt>
      <trkpt lat="44.87942" lon="-0.13544">
        <ele>30.2</ele>
      </trkpt>
      <trkpt lat="44.87944" lon="-0.13571">
        <ele>30</ele>
      </trkpt>
      <trkpt lat="44.87948" lon="-0.13614">
        <ele>30.3</ele>
      </trkpt>
      <trkpt lat="44.87952" lon="-0.13647">
        <ele>29.8</ele>
      </trkpt>
      <trkpt lat="44.87957" lon="-0.13689">
        <ele>30.4</ele>
      </trkpt>
      <trkpt lat="44.87962" lon="-0.13731">
        <ele>30.4</ele>
      </trkpt>
      <trkpt lat="44.87967" lon="-0.13769">
        <ele>31.4</ele>
      </trkpt>
      <trkpt lat="44.8797" lon="-0.13793">
        <ele>31.3</ele>
      </trkpt>
      <trkpt lat="44.87972" lon="-0.13809">
        <ele>31</ele>
      </trkpt>
      <trkpt lat="44.87974" lon="-0.13825">
        <ele>31.1</ele>
      </trkpt>
      <trkpt lat="44.87975" lon="-0.13838">
        <ele>31.1</ele>
      </trkpt>
      <trkpt lat="44.87975" lon="-0.13854">
        <ele>30.6</ele>
      </trkpt>
      <trkpt lat="44.87975" lon="-0.1389">
        <ele>30.4</ele>
      </trkpt>
      <trkpt lat="44.87974" lon="-0.13913">
        <ele>30.3</ele>
      </trkpt>
      <trkpt lat="44.87972" lon="-0.13937">
        <ele>30</ele>
      </trkpt>
      <trkpt lat="44.8797" lon="-0.13968">
        <ele>29.8</ele>
      </trkpt>
      <trkpt lat="44.87965" lon="-0.14002">
        <ele>30.2</ele>
      </trkpt>
      <trkpt lat="44.87961" lon="-0.14034">
        <ele>29.5</ele>
      </trkpt>
      <trkpt lat="44.87956" lon="-0.14066">
        <ele>29.3</ele>
      </trkpt>
      <trkpt lat="44.8795" lon="-0.14104">
        <ele>28.7</ele>
      </trkpt>
      <trkpt lat="44.87946" lon="-0.14133">
        <ele>28.2</ele>
      </trkpt>
      <trkpt lat="44.87942" lon="-0.1416">
        <ele>27.7</ele>
      </trkpt>
      <trkpt lat="44.87942" lon="-0.14166">
        <ele>27.7</ele>
      </trkpt>
      <trkpt lat="44.87942" lon="-0.14172">
        <ele>27.7</ele>
      </trkpt>
      <trkpt lat="44.87941" lon="-0.14184">
        <ele>27.6</ele>
      </trkpt>
      <trkpt lat="44.87942" lon="-0.14196">
        <ele>27.7</ele>
      </trkpt>
      <trkpt lat="44.87945" lon="-0.14205">
        <ele>27.7</ele>
      </trkpt>
      <trkpt lat="44.87957" lon="-0.14237">
        <ele>28.6</ele>
      </trkpt>
      <trkpt lat="44.87973" lon="-0.14274">
        <ele>28.4</ele>
      </trkpt>
      <trkpt lat="44.87986" lon="-0.14305">
        <ele>29.5</ele>
      </trkpt>
      <trkpt lat="44.87999" lon="-0.14331">
        <ele>29.1</ele>
      </trkpt>
      <trkpt lat="44.87999" lon="-0.14332">
        <ele>29</ele>
      </trkpt>
      <trkpt lat="44.88007" lon="-0.14352">
        <ele>30</ele>
      </trkpt>
      <trkpt lat="44.88012" lon="-0.14366">
        <ele>30.5</ele>
      </trkpt>
      <trkpt lat="44.88019" lon="-0.14387">
        <ele>30.2</ele>
      </trkpt>
      <trkpt lat="44.88026" lon="-0.14405">
        <ele>30.3</ele>
      </trkpt>
      <trkpt lat="44.8803" lon="-0.14422">
        <ele>30.1</ele>
      </trkpt>
      <trkpt lat="44.88033" lon="-0.14437">
        <ele>30</ele>
      </trkpt>
      <trkpt lat="44.88037" lon="-0.14457">
        <ele>30</ele>
      </trkpt>
      <trkpt lat="44.8804" lon="-0.14483">
        <ele>30</ele>
      </trkpt>
      <trkpt lat="44.88045" lon="-0.14531">
        <ele>29.9</ele>
      </trkpt>
      <trkpt lat="44.8805" lon="-0.14564">
        <ele>30.2</ele>
      </trkpt>
      <trkpt lat="44.8806" lon="-0.14611">
        <ele>29.3</ele>
      </trkpt>
      <trkpt lat="44.88068" lon="-0.14639">
        <ele>29.9</ele>
      </trkpt>
      <trkpt lat="44.88068" lon="-0.14642">
        <ele>29.8</ele>
      </trkpt>
      <trkpt lat="44.88074" lon="-0.14663">
        <ele>29.5</ele>
      </trkpt>
      <trkpt lat="44.88087" lon="-0.14718">
        <ele>28.4</ele>
      </trkpt>
      <trkpt lat="44.88097" lon="-0.14776">
        <ele>29</ele>
      </trkpt>
      <trkpt lat="44.88109" lon="-0.14841">
        <ele>27.7</ele>
      </trkpt>
      <trkpt lat="44.88111" lon="-0.14857">
        <ele>27.1</ele>
      </trkpt>
      <trkpt lat="44.88112" lon="-0.14871">
        <ele>27.1</ele>
      </trkpt>
      <trkpt lat="44.88115" lon="-0.14884">
        <ele>27.4</ele>
      </trkpt>
      <trkpt lat="44.88116" lon="-0.14887">
        <ele>27.5</ele>
      </trkpt>
      <trkpt lat="44.88129" lon="-0.14934">
        <ele>28.1</ele>
      </trkpt>
      <trkpt lat="44.88145" lon="-0.14983">
        <ele>27.4</ele>
      </trkpt>
      <trkpt lat="44.88147" lon="-0.14986">
        <ele>27.4</ele>
      </trkpt>
      <trkpt lat="44.88167" lon="-0.15036">
        <ele>27</ele>
      </trkpt>
      <trkpt lat="44.88182" lon="-0.15068">
        <ele>27.4</ele>
      </trkpt>
      <trkpt lat="44.88198" lon="-0.15101">
        <ele>26.6</ele>
      </trkpt>
      <trkpt lat="44.88216" lon="-0.15132">
        <ele>27</ele>
      </trkpt>
      <trkpt lat="44.88237" lon="-0.15167">
        <ele>26.5</ele>
      </trkpt>
      <trkpt lat="44.88241" lon="-0.15174">
        <ele>26.5</ele>
      </trkpt>
      <trkpt lat="44.88249" lon="-0.15191">
        <ele>26.1</ele>
      </trkpt>
      <trkpt lat="44.88271" lon="-0.1523">
        <ele>26.5</ele>
      </trkpt>
      <trkpt lat="44.88292" lon="-0.15271">
        <ele>27</ele>
      </trkpt>
      <trkpt lat="44.88312" lon="-0.15307">
        <ele>26.7</ele>
      </trkpt>
      <trkpt lat="44.88336" lon="-0.15355">
        <ele>27.4</ele>
      </trkpt>
      <trkpt lat="44.8836" lon="-0.15399">
        <ele>27.6</ele>
      </trkpt>
      <trkpt lat="44.8838" lon="-0.15439">
        <ele>27.9</ele>
      </trkpt>
      <trkpt lat="44.88399" lon="-0.15478">
        <ele>28.5</ele>
      </trkpt>
      <trkpt lat="44.88413" lon="-0.1551">
        <ele>28.4</ele>
      </trkpt>
      <trkpt lat="44.88451" lon="-0.15571">
        <ele>28.2</ele>
      </trkpt>
      <trkpt lat="44.8846" lon="-0.15584">
        <ele>28.5</ele>
      </trkpt>
      <trkpt lat="44.88473" lon="-0.15599">
        <ele>28.5</ele>
      </trkpt>
      <trkpt lat="44.88488" lon="-0.15617">
        <ele>28.6</ele>
      </trkpt>
      <trkpt lat="44.88506" lon="-0.15635">
        <ele>29.2</ele>
      </trkpt>
      <trkpt lat="44.8852" lon="-0.15648">
        <ele>29.7</ele>
      </trkpt>
      <trkpt lat="44.8853" lon="-0.15656">
        <ele>30.1</ele>
      </trkpt>
      <trkpt lat="44.88541" lon="-0.15666">
        <ele>30.5</ele>
      </trkpt>
      <trkpt lat="44.88549" lon="-0.15675">
        <ele>30.9</ele>
      </trkpt>
      <trkpt lat="44.88549" lon="-0.15675">
        <ele>30.9</ele>
      </trkpt>
      <trkpt lat="44.88558" lon="-0.15656">
        <ele>31.2</ele>
      </trkpt>
      <trkpt lat="44.88574" lon="-0.15634">
        <ele>32.2</ele>
      </trkpt>
      <trkpt lat="44.88632" lon="-0.1558">
        <ele>35.4</ele>
      </trkpt>
      <trkpt lat="44.88661" lon="-0.15556">
        <ele>35.8</ele>
      </trkpt>
      <trkpt lat="44.88682" lon="-0.15542">
        <ele>36.8</ele>
      </trkpt>
      <trkpt lat="44.88697" lon="-0.15534">
        <ele>37.1</ele>
      </trkpt>
      <trkpt lat="44.88718" lon="-0.1553">
        <ele>37.9</ele>
      </trkpt>
      <trkpt lat="44.88737" lon="-0.15528">
        <ele>38.5</ele>
      </trkpt>
      <trkpt lat="44.88761" lon="-0.15527">
        <ele>39.4</ele>
      </trkpt>
      <trkpt lat="44.88782" lon="-0.15526">
        <ele>40.4</ele>
      </trkpt>
      <trkpt lat="44.888" lon="-0.15522">
        <ele>42.2</ele>
      </trkpt>
      <trkpt lat="44.88837" lon="-0.1551">
        <ele>44.4</ele>
      </trkpt>
      <trkpt lat="44.88882" lon="-0.15491">
        <ele>46.1</ele>
      </trkpt>
      <trkpt lat="44.88918" lon="-0.15479">
        <ele>47.6</ele>
      </trkpt>
      <trkpt lat="44.88938" lon="-0.15474">
        <ele>47.9</ele>
      </trkpt>
      <trkpt lat="44.88962" lon="-0.15469">
        <ele>48.2</ele>
      </trkpt>
      <trkpt lat="44.88989" lon="-0.15467">
        <ele>49.1</ele>
      </trkpt>
      <trkpt lat="44.89" lon="-0.15468">
        <ele>49.7</ele>
      </trkpt>
      <trkpt lat="44.89018" lon="-0.15472">
        <ele>50.6</ele>
      </trkpt>
      <trkpt lat="44.89037" lon="-0.15475">
        <ele>51.3</ele>
      </trkpt>
      <trkpt lat="44.89052" lon="-0.15486">
        <ele>51.9</ele>
      </trkpt>
      <trkpt lat="44.89078" lon="-0.15499">
        <ele>53.6</ele>
      </trkpt>
      <trkpt lat="44.89084" lon="-0.15499">
        <ele>54</ele>
      </trkpt>
      <trkpt lat="44.89089" lon="-0.15498">
        <ele>53.9</ele>
      </trkpt>
      <trkpt lat="44.89099" lon="-0.15492">
        <ele>53.9</ele>
      </trkpt>
      <trkpt lat="44.89104" lon="-0.15486">
        <ele>53.9</ele>
      </trkpt>
      <trkpt lat="44.89109" lon="-0.15477">
        <ele>53.9</ele>
      </trkpt>
      <trkpt lat="44.89114" lon="-0.15469">
        <ele>54.1</ele>
      </trkpt>
      <trkpt lat="44.89125" lon="-0.15448">
        <ele>55.4</ele>
      </trkpt>
      <trkpt lat="44.89132" lon="-0.15437">
        <ele>56.2</ele>
      </trkpt>
      <trkpt lat="44.89138" lon="-0.1543">
        <ele>56.3</ele>
      </trkpt>
      <trkpt lat="44.89144" lon="-0.15426">
        <ele>56.7</ele>
      </trkpt>
      <trkpt lat="44.8915" lon="-0.15425">
        <ele>57.4</ele>
      </trkpt>
      <trkpt lat="44.89158" lon="-0.15424">
        <ele>58.5</ele>
      </trkpt>
      <trkpt lat="44.89163" lon="-0.15424">
        <ele>59.2</ele>
      </trkpt>
      <trkpt lat="44.89168" lon="-0.15425">
        <ele>60</ele>
      </trkpt>
      <trkpt lat="44.89174" lon="-0.15428">
        <ele>61.3</ele>
      </trkpt>
      <trkpt lat="44.89178" lon="-0.15431">
        <ele>61.9</ele>
      </trkpt>
      <trkpt lat="44.89183" lon="-0.15434">
        <ele>62.6</ele>
      </trkpt>
      <trkpt lat="44.89229" lon="-0.15486">
        <ele>65</ele>
      </trkpt>
      <trkpt lat="44.89246" lon="-0.15505">
        <ele>66.6</ele>
      </trkpt>
      <trkpt lat="44.89261" lon="-0.15523">
        <ele>67.1</ele>
      </trkpt>
      <trkpt lat="44.89269" lon="-0.15531">
        <ele>67.5</ele>
      </trkpt>
      <trkpt lat="44.89273" lon="-0.15537">
        <ele>67.6</ele>
      </trkpt>
      <trkpt lat="44.89278" lon="-0.15542">
        <ele>68</ele>
      </trkpt>
      <trkpt lat="44.89284" lon="-0.15546">
        <ele>68.3</ele>
      </trkpt>
      <trkpt lat="44.89293" lon="-0.15548">
        <ele>68.9</ele>
      </trkpt>
      <trkpt lat="44.89298" lon="-0.15547">
        <ele>69.5</ele>
      </trkpt>
      <trkpt lat="44.89305" lon="-0.15545">
        <ele>70.5</ele>
      </trkpt>
      <trkpt lat="44.89312" lon="-0.15542">
        <ele>71.5</ele>
      </trkpt>
      <trkpt lat="44.89324" lon="-0.15537">
        <ele>73.2</ele>
      </trkpt>
      <trkpt lat="44.89345" lon="-0.15528">
        <ele>76.2</ele>
      </trkpt>
      <trkpt lat="44.8937" lon="-0.15516">
        <ele>79.7</ele>
      </trkpt>
      <trkpt lat="44.89378" lon="-0.15513">
        <ele>80.6</ele>
      </trkpt>
      <trkpt lat="44.89385" lon="-0.15512">
        <ele>81.2</ele>
      </trkpt>
      <trkpt lat="44.89385" lon="-0.15509">
        <ele>81.4</ele>
      </trkpt>
      <trkpt lat="44.89385" lon="-0.15508">
        <ele>81.4</ele>
      </trkpt>
      <trkpt lat="44.89384" lon="-0.15507">
        <ele>81.4</ele>
      </trkpt>
      <trkpt lat="44.89385" lon="-0.15508">
        <ele>81.4</ele>
      </trkpt>
      <trkpt lat="44.89385" lon="-0.15509">
        <ele>81.4</ele>
      </trkpt>
      <trkpt lat="44.89385" lon="-0.15512">
        <ele>81.2</ele>
      </trkpt>
      <trkpt lat="44.89389" lon="-0.1556">
        <ele>80</ele>
      </trkpt>
      <trkpt lat="44.89389" lon="-0.15568">
        <ele>80</ele>
      </trkpt>
      <trkpt lat="44.89388" lon="-0.15572">
        <ele>79.9</ele>
      </trkpt>
      <trkpt lat="44.89387" lon="-0.15576">
        <ele>79.7</ele>
      </trkpt>
      <trkpt lat="44.89386" lon="-0.15581">
        <ele>79.5</ele>
      </trkpt>
      <trkpt lat="44.89381" lon="-0.15597">
        <ele>79.1</ele>
      </trkpt>
      <trkpt lat="44.89366" lon="-0.15649">
        <ele>79.3</ele>
      </trkpt>
      <trkpt lat="44.8936" lon="-0.15671">
        <ele>80</ele>
      </trkpt>
      <trkpt lat="44.89359" lon="-0.15676">
        <ele>80</ele>
      </trkpt>
      <trkpt lat="44.89359" lon="-0.15682">
        <ele>80.3</ele>
      </trkpt>
      <trkpt lat="44.89359" lon="-0.15689">
        <ele>80.6</ele>
      </trkpt>
      <trkpt lat="44.89361" lon="-0.15689">
        <ele>80.8</ele>
      </trkpt>
      <trkpt lat="44.89362" lon="-0.15688">
        <ele>80.8</ele>
      </trkpt>
      <trkpt lat="44.89364" lon="-0.15689">
        <ele>80.9</ele>
      </trkpt>
      <trkpt lat="44.89365" lon="-0.1569">
        <ele>81</ele>
      </trkpt>
      <trkpt lat="44.89371" lon="-0.15695">
        <ele>81.3</ele>
      </trkpt>
    </trkseg>
  </trk>
  <trk>
    <name><![CDATA[Traces DPT 33_24]]></name>
    <extensions>
      <line xmlns="http://www.topografix.com/GPX/gpx_style/0/2">
        <color>0000FF</color>
        <width>4</width>
      </line>
    </extensions>
    <trkseg>
      <trkpt lat="44.86477" lon="-0.06656">
        <ele>26.2</ele>
      </trkpt>
      <trkpt lat="44.86503" lon="-0.06769">
        <ele>26.2</ele>
      </trkpt>
      <trkpt lat="44.86508" lon="-0.06807">
        <ele>26.2</ele>
      </trkpt>
      <trkpt lat="44.86516" lon="-0.06818">
        <ele>26.4</ele>
      </trkpt>
      <trkpt lat="44.86524" lon="-0.0682">
        <ele>26.8</ele>
      </trkpt>
      <trkpt lat="44.86538" lon="-0.06812">
        <ele>27.5</ele>
      </trkpt>
      <trkpt lat="44.8657" lon="-0.06788">
        <ele>29.2</ele>
      </trkpt>
      <trkpt lat="44.86582" lon="-0.06779">
        <ele>29.9</ele>
      </trkpt>
      <trkpt lat="44.8661" lon="-0.06759">
        <ele>33.6</ele>
      </trkpt>
      <trkpt lat="44.86624" lon="-0.06745">
        <ele>35.2</ele>
      </trkpt>
      <trkpt lat="44.86637" lon="-0.06735">
        <ele>37</ele>
      </trkpt>
      <trkpt lat="44.86664" lon="-0.06721">
        <ele>39.9</ele>
      </trkpt>
      <trkpt lat="44.8668" lon="-0.0671">
        <ele>43.1</ele>
      </trkpt>
      <trkpt lat="44.86695" lon="-0.06694">
        <ele>46.1</ele>
      </trkpt>
      <trkpt lat="44.86697" lon="-0.06685">
        <ele>47.4</ele>
      </trkpt>
      <trkpt lat="44.86699" lon="-0.06678">
        <ele>48.5</ele>
      </trkpt>
      <trkpt lat="44.86745" lon="-0.06625">
        <ele>60.2</ele>
      </trkpt>
      <trkpt lat="44.86771" lon="-0.06593">
        <ele>68.6</ele>
      </trkpt>
      <trkpt lat="44.86775" lon="-0.06565">
        <ele>73.2</ele>
      </trkpt>
      <trkpt lat="44.86791" lon="-0.06549">
        <ele>77.8</ele>
      </trkpt>
      <trkpt lat="44.86814" lon="-0.06529">
        <ele>83.4</ele>
      </trkpt>
      <trkpt lat="44.86851" lon="-0.06496">
        <ele>90.1</ele>
      </trkpt>
      <trkpt lat="44.86885" lon="-0.06467">
        <ele>92.9</ele>
      </trkpt>
      <trkpt lat="44.86897" lon="-0.06461">
        <ele>93.2</ele>
      </trkpt>
      <trkpt lat="44.86908" lon="-0.06457">
        <ele>93.3</ele>
      </trkpt>
      <trkpt lat="44.86914" lon="-0.0645">
        <ele>93.2</ele>
      </trkpt>
      <trkpt lat="44.86922" lon="-0.06444">
        <ele>92.8</ele>
      </trkpt>
      <trkpt lat="44.86941" lon="-0.06434">
        <ele>91.4</ele>
      </trkpt>
      <trkpt lat="44.86966" lon="-0.06422">
        <ele>89</ele>
      </trkpt>
      <trkpt lat="44.86988" lon="-0.06411">
        <ele>86.2</ele>
      </trkpt>
      <trkpt lat="44.87005" lon="-0.06399">
        <ele>84</ele>
      </trkpt>
      <trkpt lat="44.87008" lon="-0.06394">
        <ele>83.5</ele>
      </trkpt>
      <trkpt lat="44.87009" lon="-0.06387">
        <ele>82.7</ele>
      </trkpt>
      <trkpt lat="44.87035" lon="-0.06375">
        <ele>81.5</ele>
      </trkpt>
      <trkpt lat="44.87072" lon="-0.06344">
        <ele>81.4</ele>
      </trkpt>
      <trkpt lat="44.87096" lon="-0.06321">
        <ele>81.7</ele>
      </trkpt>
      <trkpt lat="44.87126" lon="-0.06301">
        <ele>82.7</ele>
      </trkpt>
      <trkpt lat="44.87155" lon="-0.06283">
        <ele>82.5</ele>
      </trkpt>
      <trkpt lat="44.87162" lon="-0.06278">
        <ele>82.7</ele>
      </trkpt>
      <trkpt lat="44.87175" lon="-0.0627">
        <ele>82.8</ele>
      </trkpt>
      <trkpt lat="44.87186" lon="-0.06263">
        <ele>83</ele>
      </trkpt>
      <trkpt lat="44.87195" lon="-0.06257">
        <ele>83.2</ele>
      </trkpt>
      <trkpt lat="44.87203" lon="-0.06251">
        <ele>83</ele>
      </trkpt>
      <trkpt lat="44.87197" lon="-0.06242">
        <ele>82.5</ele>
      </trkpt>
      <trkpt lat="44.8719" lon="-0.06231">
        <ele>81.3</ele>
      </trkpt>
      <trkpt lat="44.87189" lon="-0.06226">
        <ele>80.9</ele>
      </trkpt>
      <trkpt lat="44.87181" lon="-0.06213">
        <ele>79.9</ele>
      </trkpt>
      <trkpt lat="44.87168" lon="-0.06173">
        <ele>78.1</ele>
      </trkpt>
      <trkpt lat="44.87133" lon="-0.0609">
        <ele>76.8</ele>
      </trkpt>
      <trkpt lat="44.87122" lon="-0.06075">
        <ele>74.8</ele>
      </trkpt>
      <trkpt lat="44.87097" lon="-0.06076">
        <ele>70.8</ele>
      </trkpt>
      <trkpt lat="44.87061" lon="-0.06077">
        <ele>65.7</ele>
      </trkpt>
      <trkpt lat="44.87039" lon="-0.06076">
        <ele>62.6</ele>
      </trkpt>
      <trkpt lat="44.86944" lon="-0.06104">
        <ele>55.7</ele>
      </trkpt>
      <trkpt lat="44.86932" lon="-0.06105">
        <ele>55.7</ele>
      </trkpt>
      <trkpt lat="44.86918" lon="-0.06071">
        <ele>53.2</ele>
      </trkpt>
      <trkpt lat="44.86902" lon="-0.06036">
        <ele>51.8</ele>
      </trkpt>
      <trkpt lat="44.8686" lon="-0.05975">
        <ele>48.2</ele>
      </trkpt>
      <trkpt lat="44.86836" lon="-0.05949">
        <ele>48.1</ele>
      </trkpt>
      <trkpt lat="44.86818" lon="-0.05948">
        <ele>48.3</ele>
      </trkpt>
      <trkpt lat="44.86807" lon="-0.05957">
        <ele>49.3</ele>
      </trkpt>
      <trkpt lat="44.8679" lon="-0.05971">
        <ele>52.1</ele>
      </trkpt>
      <trkpt lat="44.86765" lon="-0.05994">
        <ele>55</ele>
      </trkpt>
      <trkpt lat="44.86749" lon="-0.0601">
        <ele>56.6</ele>
      </trkpt>
      <trkpt lat="44.86739" lon="-0.06016">
        <ele>56.1</ele>
      </trkpt>
      <trkpt lat="44.86723" lon="-0.06024">
        <ele>54.3</ele>
      </trkpt>
      <trkpt lat="44.86701" lon="-0.06039">
        <ele>52.5</ele>
      </trkpt>
      <trkpt lat="44.8668" lon="-0.06053">
        <ele>48.7</ele>
      </trkpt>
      <trkpt lat="44.86651" lon="-0.06059">
        <ele>46</ele>
      </trkpt>
      <trkpt lat="44.86624" lon="-0.06066">
        <ele>43.3</ele>
      </trkpt>
      <trkpt lat="44.86607" lon="-0.06071">
        <ele>41</ele>
      </trkpt>
      <trkpt lat="44.86576" lon="-0.06073">
        <ele>37.3</ele>
      </trkpt>
      <trkpt lat="44.86541" lon="-0.06079">
        <ele>34.3</ele>
      </trkpt>
      <trkpt lat="44.86521" lon="-0.06086">
        <ele>32.6</ele>
      </trkpt>
      <trkpt lat="44.86485" lon="-0.06086">
        <ele>30.5</ele>
      </trkpt>
      <trkpt lat="44.86399" lon="-0.06089">
        <ele>26.4</ele>
      </trkpt>
      <trkpt lat="44.86395" lon="-0.06104">
        <ele>26.2</ele>
      </trkpt>
      <trkpt lat="44.86393" lon="-0.06146">
        <ele>26.1</ele>
      </trkpt>
      <trkpt lat="44.86394" lon="-0.06166">
        <ele>26.2</ele>
      </trkpt>
      <trkpt lat="44.86404" lon="-0.06257">
        <ele>25.6</ele>
      </trkpt>
      <trkpt lat="44.86409" lon="-0.06327">
        <ele>25.7</ele>
      </trkpt>
      <trkpt lat="44.86419" lon="-0.06389">
        <ele>26.2</ele>
      </trkpt>
      <trkpt lat="44.86411" lon="-0.06411">
        <ele>25.6</ele>
      </trkpt>
      <trkpt lat="44.864" lon="-0.06428">
        <ele>24.8</ele>
      </trkpt>
      <trkpt lat="44.86387" lon="-0.06436">
        <ele>23.9</ele>
      </trkpt>
      <trkpt lat="44.86386" lon="-0.06438">
        <ele>23.9</ele>
      </trkpt>
      <trkpt lat="44.86386" lon="-0.0644">
        <ele>23.9</ele>
      </trkpt>
      <trkpt lat="44.86399" lon="-0.06455">
        <ele>24.6</ele>
      </trkpt>
      <trkpt lat="44.86425" lon="-0.06479">
        <ele>25.6</ele>
      </trkpt>
      <trkpt lat="44.86435" lon="-0.06493">
        <ele>26.3</ele>
      </trkpt>
      <trkpt lat="44.8644" lon="-0.06511">
        <ele>26.4</ele>
      </trkpt>
      <trkpt lat="44.86477" lon="-0.06656">
        <ele>26.2</ele>
      </trkpt>
    </trkseg>
  </trk>
  <trk>
    <name><![CDATA[Boucle de la Dordogne à Branne]]></name>
    <extensions>
      <line xmlns="http://www.topografix.com/GPX/gpx_style/0/2">
        <color>0000FF</color>
        <width>4</width>
      </line>
    </extensions>
    <trkseg>
      <trkpt lat="44.83018" lon="-0.18697">
        <ele>11</ele>
      </trkpt>
      <trkpt lat="44.83011" lon="-0.18686">
        <ele>11.2</ele>
      </trkpt>
      <trkpt lat="44.82924" lon="-0.18704">
        <ele>12.7</ele>
      </trkpt>
      <trkpt lat="44.82929" lon="-0.18627">
        <ele>14.2</ele>
      </trkpt>
      <trkpt lat="44.82934" lon="-0.18582">
        <ele>15</ele>
      </trkpt>
      <trkpt lat="44.82942" lon="-0.18568">
        <ele>15.1</ele>
      </trkpt>
      <trkpt lat="44.82937" lon="-0.18558">
        <ele>15.3</ele>
      </trkpt>
      <trkpt lat="44.82908" lon="-0.18547">
        <ele>16.8</ele>
      </trkpt>
      <trkpt lat="44.82871" lon="-0.18565">
        <ele>18.3</ele>
      </trkpt>
      <trkpt lat="44.82807" lon="-0.18569">
        <ele>20.5</ele>
      </trkpt>
      <trkpt lat="44.82785" lon="-0.18576">
        <ele>22.1</ele>
      </trkpt>
      <trkpt lat="44.82766" lon="-0.18591">
        <ele>22.6</ele>
      </trkpt>
      <trkpt lat="44.82716" lon="-0.18634">
        <ele>24.5</ele>
      </trkpt>
      <trkpt lat="44.82651" lon="-0.18708">
        <ele>28.3</ele>
      </trkpt>
      <trkpt lat="44.82548" lon="-0.18791">
        <ele>30.4</ele>
      </trkpt>
      <trkpt lat="44.82508" lon="-0.1881">
        <ele>32.6</ele>
      </trkpt>
      <trkpt lat="44.82458" lon="-0.18819">
        <ele>35</ele>
      </trkpt>
      <trkpt lat="44.82349" lon="-0.18849">
        <ele>31</ele>
      </trkpt>
      <trkpt lat="44.82271" lon="-0.18885">
        <ele>26.9</ele>
      </trkpt>
      <trkpt lat="44.82204" lon="-0.1872">
        <ele>33.3</ele>
      </trkpt>
      <trkpt lat="44.82165" lon="-0.18632">
        <ele>37.4</ele>
      </trkpt>
      <trkpt lat="44.82152" lon="-0.18597">
        <ele>39.6</ele>
      </trkpt>
      <trkpt lat="44.82142" lon="-0.18557">
        <ele>40.8</ele>
      </trkpt>
      <trkpt lat="44.82139" lon="-0.18488">
        <ele>40.6</ele>
      </trkpt>
      <trkpt lat="44.82141" lon="-0.1844">
        <ele>38.6</ele>
      </trkpt>
      <trkpt lat="44.82138" lon="-0.18382">
        <ele>35.8</ele>
      </trkpt>
      <trkpt lat="44.82167" lon="-0.18352">
        <ele>33.7</ele>
      </trkpt>
      <trkpt lat="44.82175" lon="-0.18341">
        <ele>33</ele>
      </trkpt>
      <trkpt lat="44.82176" lon="-0.1832">
        <ele>32.2</ele>
      </trkpt>
      <trkpt lat="44.82174" lon="-0.18233">
        <ele>30</ele>
      </trkpt>
      <trkpt lat="44.82195" lon="-0.18237">
        <ele>29</ele>
      </trkpt>
      <trkpt lat="44.82219" lon="-0.18248">
        <ele>28.1</ele>
      </trkpt>
      <trkpt lat="44.82239" lon="-0.18248">
        <ele>27.4</ele>
      </trkpt>
      <trkpt lat="44.82256" lon="-0.18241">
        <ele>26.8</ele>
      </trkpt>
      <trkpt lat="44.82272" lon="-0.18225">
        <ele>26.2</ele>
      </trkpt>
      <trkpt lat="44.8229" lon="-0.18222">
        <ele>25.6</ele>
      </trkpt>
      <trkpt lat="44.82326" lon="-0.18221">
        <ele>25</ele>
      </trkpt>
      <trkpt lat="44.82377" lon="-0.18224">
        <ele>23.5</ele>
      </trkpt>
      <trkpt lat="44.82397" lon="-0.18222">
        <ele>23</ele>
      </trkpt>
      <trkpt lat="44.82431" lon="-0.18211">
        <ele>21.8</ele>
      </trkpt>
      <trkpt lat="44.82428" lon="-0.18197">
        <ele>21.5</ele>
      </trkpt>
      <trkpt lat="44.82438" lon="-0.1816">
        <ele>23.3</ele>
      </trkpt>
      <trkpt lat="44.82459" lon="-0.18028">
        <ele>38</ele>
      </trkpt>
      <trkpt lat="44.82464" lon="-0.17995">
        <ele>43.5</ele>
      </trkpt>
      <trkpt lat="44.82469" lon="-0.17963">
        <ele>49.7</ele>
      </trkpt>
      <trkpt lat="44.82473" lon="-0.17935">
        <ele>55.5</ele>
      </trkpt>
      <trkpt lat="44.82469" lon="-0.17908">
        <ele>59.3</ele>
      </trkpt>
      <trkpt lat="44.82462" lon="-0.17874">
        <ele>63.1</ele>
      </trkpt>
      <trkpt lat="44.82459" lon="-0.17819">
        <ele>67</ele>
      </trkpt>
      <trkpt lat="44.82465" lon="-0.17794">
        <ele>68.9</ele>
      </trkpt>
      <trkpt lat="44.82486" lon="-0.17727">
        <ele>74.1</ele>
      </trkpt>
      <trkpt lat="44.82495" lon="-0.17731">
        <ele>74.2</ele>
      </trkpt>
      <trkpt lat="44.8253" lon="-0.17737">
        <ele>74.9</ele>
      </trkpt>
      <trkpt lat="44.82553" lon="-0.17732">
        <ele>75.3</ele>
      </trkpt>
      <trkpt lat="44.82576" lon="-0.17728">
        <ele>74.8</ele>
      </trkpt>
      <trkpt lat="44.82604" lon="-0.17732">
        <ele>74.3</ele>
      </trkpt>
      <trkpt lat="44.82621" lon="-0.17736">
        <ele>73.2</ele>
      </trkpt>
      <trkpt lat="44.82631" lon="-0.17736">
        <ele>72.2</ele>
      </trkpt>
      <trkpt lat="44.82656" lon="-0.17727">
        <ele>70.6</ele>
      </trkpt>
      <trkpt lat="44.82676" lon="-0.17723">
        <ele>69.5</ele>
      </trkpt>
      <trkpt lat="44.82694" lon="-0.1772">
        <ele>69.3</ele>
      </trkpt>
      <trkpt lat="44.82719" lon="-0.17722">
        <ele>69</ele>
      </trkpt>
      <trkpt lat="44.82745" lon="-0.17728">
        <ele>68.8</ele>
      </trkpt>
      <trkpt lat="44.82747" lon="-0.1774">
        <ele>66.6</ele>
      </trkpt>
      <trkpt lat="44.8275" lon="-0.17793">
        <ele>56.3</ele>
      </trkpt>
      <trkpt lat="44.82753" lon="-0.17845">
        <ele>47.7</ele>
      </trkpt>
      <trkpt lat="44.82754" lon="-0.17852">
        <ele>46.8</ele>
      </trkpt>
      <trkpt lat="44.82778" lon="-0.17891">
        <ele>43.8</ele>
      </trkpt>
      <trkpt lat="44.82796" lon="-0.1792">
        <ele>41.1</ele>
      </trkpt>
      <trkpt lat="44.82816" lon="-0.17948">
        <ele>36.9</ele>
      </trkpt>
      <trkpt lat="44.82825" lon="-0.17958">
        <ele>36</ele>
      </trkpt>
      <trkpt lat="44.82837" lon="-0.17963">
        <ele>36.3</ele>
      </trkpt>
      <trkpt lat="44.82849" lon="-0.17964">
        <ele>37.4</ele>
      </trkpt>
      <trkpt lat="44.8286" lon="-0.17961">
        <ele>38.7</ele>
      </trkpt>
      <trkpt lat="44.82857" lon="-0.17972">
        <ele>37.5</ele>
      </trkpt>
      <trkpt lat="44.8283" lon="-0.18032">
        <ele>30.5</ele>
      </trkpt>
      <trkpt lat="44.82847" lon="-0.18044">
        <ele>33.5</ele>
      </trkpt>
      <trkpt lat="44.82867" lon="-0.18049">
        <ele>37</ele>
      </trkpt>
      <trkpt lat="44.82919" lon="-0.18073">
        <ele>43</ele>
      </trkpt>
      <trkpt lat="44.82936" lon="-0.18076">
        <ele>44.8</ele>
      </trkpt>
      <trkpt lat="44.82947" lon="-0.18076">
        <ele>46.1</ele>
      </trkpt>
      <trkpt lat="44.82949" lon="-0.18085">
        <ele>45.3</ele>
      </trkpt>
      <trkpt lat="44.82951" lon="-0.18101">
        <ele>43.8</ele>
      </trkpt>
      <trkpt lat="44.82953" lon="-0.18105">
        <ele>43.5</ele>
      </trkpt>
      <trkpt lat="44.8296" lon="-0.18111">
        <ele>43.7</ele>
      </trkpt>
      <trkpt lat="44.82962" lon="-0.18121">
        <ele>42.5</ele>
      </trkpt>
      <trkpt lat="44.8296" lon="-0.18141">
        <ele>39.5</ele>
      </trkpt>
      <trkpt lat="44.82961" lon="-0.18155">
        <ele>37.7</ele>
      </trkpt>
      <trkpt lat="44.82972" lon="-0.18235">
        <ele>26.2</ele>
      </trkpt>
      <trkpt lat="44.82972" lon="-0.18272">
        <ele>22.4</ele>
      </trkpt>
      <trkpt lat="44.82973" lon="-0.18316">
        <ele>17.9</ele>
      </trkpt>
      <trkpt lat="44.8297" lon="-0.18339">
        <ele>15.3</ele>
      </trkpt>
      <trkpt lat="44.8297" lon="-0.18358">
        <ele>13.2</ele>
      </trkpt>
      <trkpt lat="44.82969" lon="-0.18399">
        <ele>9.9</ele>
      </trkpt>
      <trkpt lat="44.82969" lon="-0.18424">
        <ele>8.1</ele>
      </trkpt>
      <trkpt lat="44.82982" lon="-0.18429">
        <ele>8.6</ele>
      </trkpt>
      <trkpt lat="44.83018" lon="-0.18451">
        <ele>8.5</ele>
      </trkpt>
      <trkpt lat="44.83036" lon="-0.18461">
        <ele>8.9</ele>
      </trkpt>
      <trkpt lat="44.83069" lon="-0.18488">
        <ele>8.1</ele>
      </trkpt>
      <trkpt lat="44.83091" lon="-0.18501">
        <ele>6.6</ele>
      </trkpt>
      <trkpt lat="44.83114" lon="-0.18514">
        <ele>7.4</ele>
      </trkpt>
      <trkpt lat="44.83169" lon="-0.18539">
        <ele>5.6</ele>
      </trkpt>
      <trkpt lat="44.83165" lon="-0.18567">
        <ele>6.1</ele>
      </trkpt>
      <trkpt lat="44.83182" lon="-0.18599">
        <ele>4</ele>
      </trkpt>
      <trkpt lat="44.8319" lon="-0.18749">
        <ele>2.7</ele>
      </trkpt>
      <trkpt lat="44.8319" lon="-0.18807">
        <ele>4.3</ele>
      </trkpt>
      <trkpt lat="44.83185" lon="-0.18819">
        <ele>4</ele>
      </trkpt>
      <trkpt lat="44.83163" lon="-0.18838">
        <ele>5.6</ele>
      </trkpt>
      <trkpt lat="44.83155" lon="-0.18835">
        <ele>5.9</ele>
      </trkpt>
      <trkpt lat="44.83138" lon="-0.1876">
        <ele>6</ele>
      </trkpt>
      <trkpt lat="44.8312" lon="-0.18665">
        <ele>9.4</ele>
      </trkpt>
      <trkpt lat="44.83062" lon="-0.18679">
        <ele>10</ele>
      </trkpt>
      <trkpt lat="44.83055" lon="-0.18676">
        <ele>10</ele>
      </trkpt>
      <trkpt lat="44.83089" lon="-0.18817">
        <ele>6.1</ele>
      </trkpt>
      <trkpt lat="44.83097" lon="-0.18888">
        <ele>4.1</ele>
      </trkpt>
      <trkpt lat="44.83103" lon="-0.18911">
        <ele>6.3</ele>
      </trkpt>
      <trkpt lat="44.83111" lon="-0.18933">
        <ele>8.2</ele>
      </trkpt>
      <trkpt lat="44.83112" lon="-0.18944">
        <ele>9</ele>
      </trkpt>
      <trkpt lat="44.83112" lon="-0.18957">
        <ele>9.9</ele>
      </trkpt>
      <trkpt lat="44.83122" lon="-0.1898">
        <ele>11.9</ele>
      </trkpt>
      <trkpt lat="44.8314" lon="-0.19014">
        <ele>14</ele>
      </trkpt>
      <trkpt lat="44.83154" lon="-0.19018">
        <ele>14.7</ele>
      </trkpt>
      <trkpt lat="44.83166" lon="-0.19015">
        <ele>14.5</ele>
      </trkpt>
      <trkpt lat="44.83192" lon="-0.18993">
        <ele>12.5</ele>
      </trkpt>
      <trkpt lat="44.83207" lon="-0.18983">
        <ele>12.4</ele>
      </trkpt>
      <trkpt lat="44.83218" lon="-0.18986">
        <ele>13.3</ele>
      </trkpt>
      <trkpt lat="44.83219" lon="-0.1899">
        <ele>13.8</ele>
      </trkpt>
      <trkpt lat="44.83235" lon="-0.19038">
        <ele>13</ele>
      </trkpt>
      <trkpt lat="44.83242" lon="-0.19084">
        <ele>22.5</ele>
      </trkpt>
      <trkpt lat="44.83249" lon="-0.1911">
        <ele>22</ele>
      </trkpt>
      <trkpt lat="44.8326" lon="-0.19142">
        <ele>21.8</ele>
      </trkpt>
      <trkpt lat="44.83263" lon="-0.19185">
        <ele>24.4</ele>
      </trkpt>
      <trkpt lat="44.83269" lon="-0.19214">
        <ele>26.6</ele>
      </trkpt>
      <trkpt lat="44.83285" lon="-0.19269">
        <ele>29.8</ele>
      </trkpt>
      <trkpt lat="44.833" lon="-0.19297">
        <ele>32.3</ele>
      </trkpt>
      <trkpt lat="44.83315" lon="-0.19315">
        <ele>32.9</ele>
      </trkpt>
      <trkpt lat="44.83337" lon="-0.19348">
        <ele>36.5</ele>
      </trkpt>
      <trkpt lat="44.83349" lon="-0.19372">
        <ele>36</ele>
      </trkpt>
      <trkpt lat="44.83356" lon="-0.194">
        <ele>39.1</ele>
      </trkpt>
      <trkpt lat="44.83362" lon="-0.19455">
        <ele>44.9</ele>
      </trkpt>
      <trkpt lat="44.83359" lon="-0.19535">
        <ele>52.7</ele>
      </trkpt>
      <trkpt lat="44.83352" lon="-0.19557">
        <ele>55.2</ele>
      </trkpt>
      <trkpt lat="44.83329" lon="-0.19586">
        <ele>58.8</ele>
      </trkpt>
      <trkpt lat="44.833" lon="-0.19616">
        <ele>59.7</ele>
      </trkpt>
      <trkpt lat="44.83246" lon="-0.19692">
        <ele>67.1</ele>
      </trkpt>
      <trkpt lat="44.83211" lon="-0.19625">
        <ele>65.5</ele>
      </trkpt>
      <trkpt lat="44.832" lon="-0.19606">
        <ele>64.8</ele>
      </trkpt>
      <trkpt lat="44.83158" lon="-0.19471">
        <ele>57.9</ele>
      </trkpt>
      <trkpt lat="44.83157" lon="-0.19458">
        <ele>57.3</ele>
      </trkpt>
      <trkpt lat="44.83151" lon="-0.19439">
        <ele>56.1</ele>
      </trkpt>
      <trkpt lat="44.83112" lon="-0.19402">
        <ele>49.4</ele>
      </trkpt>
      <trkpt lat="44.83059" lon="-0.1936">
        <ele>37.4</ele>
      </trkpt>
      <trkpt lat="44.82957" lon="-0.19263">
        <ele>21.3</ele>
      </trkpt>
      <trkpt lat="44.82967" lon="-0.19241">
        <ele>19.9</ele>
      </trkpt>
      <trkpt lat="44.82974" lon="-0.19216">
        <ele>18.6</ele>
      </trkpt>
      <trkpt lat="44.82987" lon="-0.19194">
        <ele>17.5</ele>
      </trkpt>
      <trkpt lat="44.83004" lon="-0.19175">
        <ele>16.9</ele>
      </trkpt>
      <trkpt lat="44.83051" lon="-0.19126">
        <ele>17.3</ele>
      </trkpt>
      <trkpt lat="44.83078" lon="-0.19105">
        <ele>17</ele>
      </trkpt>
      <trkpt lat="44.83089" lon="-0.1909">
        <ele>16</ele>
      </trkpt>
      <trkpt lat="44.8314" lon="-0.19014">
        <ele>14</ele>
      </trkpt>
      <trkpt lat="44.83122" lon="-0.1898">
        <ele>11.9</ele>
      </trkpt>
      <trkpt lat="44.83112" lon="-0.18957">
        <ele>9.9</ele>
      </trkpt>
      <trkpt lat="44.83112" lon="-0.18944">
        <ele>9</ele>
      </trkpt>
      <trkpt lat="44.83111" lon="-0.18933">
        <ele>8.2</ele>
      </trkpt>
      <trkpt lat="44.83103" lon="-0.18911">
        <ele>6.3</ele>
      </trkpt>
      <trkpt lat="44.83097" lon="-0.18888">
        <ele>4.1</ele>
      </trkpt>
      <trkpt lat="44.83089" lon="-0.18817">
        <ele>6.1</ele>
      </trkpt>
      <trkpt lat="44.83055" lon="-0.18676">
        <ele>10</ele>
      </trkpt>
      <trkpt lat="44.83023" lon="-0.18683">
        <ele>11.1</ele>
      </trkpt>
      <trkpt lat="44.83018" lon="-0.18696">
        <ele>11</ele>
      </trkpt>
    </trkseg>
  </trk>
  <trk>
    <name><![CDATA[Itinéraire de 64-67 D239, 33420 Daignac, France à 64-67 D239, 33420 Daignac, France_Itinéraire de 64-67 D239, 33420 Daignac, France à 64-67 D239, 33420 Daignac, France]]></name>
    <desc><![CDATA[This is track no: 1]]></desc>
    <extensions>
      <line xmlns="http://www.topografix.com/GPX/gpx_style/0/2">
        <color>00FF00</color>
        <width>4</width>
      </line>
    </extensions>
    <trkseg>
      <trkpt lat="44.79929" lon="-0.24943">
        <ele>45.5</ele>
      </trkpt>
      <trkpt lat="44.79955" lon="-0.24928">
        <ele>46.6</ele>
      </trkpt>
      <trkpt lat="44.79969" lon="-0.2492">
        <ele>46.9</ele>
      </trkpt>
      <trkpt lat="44.79968" lon="-0.24925">
        <ele>46.7</ele>
      </trkpt>
      <trkpt lat="44.79966" lon="-0.2493">
        <ele>46.5</ele>
      </trkpt>
      <trkpt lat="44.79946" lon="-0.24991">
        <ele>45</ele>
      </trkpt>
      <trkpt lat="44.79937" lon="-0.25013">
        <ele>44.3</ele>
      </trkpt>
      <trkpt lat="44.79934" lon="-0.25018">
        <ele>44</ele>
      </trkpt>
      <trkpt lat="44.7993" lon="-0.25021">
        <ele>43.7</ele>
      </trkpt>
      <trkpt lat="44.79922" lon="-0.25026">
        <ele>43.3</ele>
      </trkpt>
      <trkpt lat="44.79918" lon="-0.2503">
        <ele>42.8</ele>
      </trkpt>
      <trkpt lat="44.79916" lon="-0.25034">
        <ele>42.3</ele>
      </trkpt>
      <trkpt lat="44.7991" lon="-0.25056">
        <ele>39.2</ele>
      </trkpt>
      <trkpt lat="44.79906" lon="-0.25065">
        <ele>37.6</ele>
      </trkpt>
      <trkpt lat="44.79902" lon="-0.25067">
        <ele>37</ele>
      </trkpt>
      <trkpt lat="44.79895" lon="-0.25069">
        <ele>36.1</ele>
      </trkpt>
      <trkpt lat="44.79883" lon="-0.25071">
        <ele>34.7</ele>
      </trkpt>
      <trkpt lat="44.79871" lon="-0.25073">
        <ele>33.3</ele>
      </trkpt>
      <trkpt lat="44.79866" lon="-0.25075">
        <ele>32.8</ele>
      </trkpt>
      <trkpt lat="44.79861" lon="-0.25082">
        <ele>32</ele>
      </trkpt>
      <trkpt lat="44.79855" lon="-0.2509">
        <ele>31.5</ele>
      </trkpt>
      <trkpt lat="44.79832" lon="-0.2513">
        <ele>32.5</ele>
      </trkpt>
      <trkpt lat="44.7983" lon="-0.25136">
        <ele>32.5</ele>
      </trkpt>
      <trkpt lat="44.79827" lon="-0.25145">
        <ele>32.5</ele>
      </trkpt>
      <trkpt lat="44.79826" lon="-0.2515">
        <ele>32.5</ele>
      </trkpt>
      <trkpt lat="44.79826" lon="-0.25154">
        <ele>32.6</ele>
      </trkpt>
      <trkpt lat="44.79827" lon="-0.25159">
        <ele>32.8</ele>
      </trkpt>
      <trkpt lat="44.79829" lon="-0.25173">
        <ele>33.5</ele>
      </trkpt>
      <trkpt lat="44.79831" lon="-0.25181">
        <ele>34</ele>
      </trkpt>
      <trkpt lat="44.79831" lon="-0.25182">
        <ele>34.1</ele>
      </trkpt>
      <trkpt lat="44.79832" lon="-0.25188">
        <ele>34.5</ele>
      </trkpt>
      <trkpt lat="44.79831" lon="-0.25196">
        <ele>35.2</ele>
      </trkpt>
      <trkpt lat="44.79826" lon="-0.25209">
        <ele>36.6</ele>
      </trkpt>
      <trkpt lat="44.79822" lon="-0.25218">
        <ele>37.5</ele>
      </trkpt>
      <trkpt lat="44.79821" lon="-0.25221">
        <ele>37.9</ele>
      </trkpt>
      <trkpt lat="44.79818" lon="-0.25226">
        <ele>38.3</ele>
      </trkpt>
      <trkpt lat="44.79823" lon="-0.2523">
        <ele>38.6</ele>
      </trkpt>
      <trkpt lat="44.79831" lon="-0.25237">
        <ele>39.1</ele>
      </trkpt>
      <trkpt lat="44.79837" lon="-0.25244">
        <ele>39.3</ele>
      </trkpt>
      <trkpt lat="44.79843" lon="-0.25254">
        <ele>39.4</ele>
      </trkpt>
      <trkpt lat="44.79847" lon="-0.25266">
        <ele>39.6</ele>
      </trkpt>
      <trkpt lat="44.7985" lon="-0.25278">
        <ele>40</ele>
      </trkpt>
      <trkpt lat="44.79854" lon="-0.25295">
        <ele>40.6</ele>
      </trkpt>
      <trkpt lat="44.79857" lon="-0.25312">
        <ele>41</ele>
      </trkpt>
      <trkpt lat="44.79862" lon="-0.25339">
        <ele>40.9</ele>
      </trkpt>
      <trkpt lat="44.79866" lon="-0.2537">
        <ele>40.7</ele>
      </trkpt>
      <trkpt lat="44.7987" lon="-0.25389">
        <ele>40.7</ele>
      </trkpt>
      <trkpt lat="44.79872" lon="-0.25396">
        <ele>40.6</ele>
      </trkpt>
      <trkpt lat="44.79874" lon="-0.25401">
        <ele>40.5</ele>
      </trkpt>
      <trkpt lat="44.7988" lon="-0.25412">
        <ele>40.3</ele>
      </trkpt>
      <trkpt lat="44.79885" lon="-0.25421">
        <ele>40.1</ele>
      </trkpt>
      <trkpt lat="44.79893" lon="-0.25432">
        <ele>39.9</ele>
      </trkpt>
      <trkpt lat="44.79904" lon="-0.25444">
        <ele>39.5</ele>
      </trkpt>
      <trkpt lat="44.79915" lon="-0.25455">
        <ele>39</ele>
      </trkpt>
      <trkpt lat="44.79924" lon="-0.25464">
        <ele>38.7</ele>
      </trkpt>
      <trkpt lat="44.79934" lon="-0.25477">
        <ele>38.3</ele>
      </trkpt>
      <trkpt lat="44.79945" lon="-0.25494">
        <ele>38</ele>
      </trkpt>
      <trkpt lat="44.79956" lon="-0.25513">
        <ele>37.3</ele>
      </trkpt>
      <trkpt lat="44.79965" lon="-0.25529">
        <ele>37</ele>
      </trkpt>
      <trkpt lat="44.79971" lon="-0.25537">
        <ele>37</ele>
      </trkpt>
      <trkpt lat="44.79976" lon="-0.25543">
        <ele>37.1</ele>
      </trkpt>
      <trkpt lat="44.79984" lon="-0.25552">
        <ele>37.4</ele>
      </trkpt>
      <trkpt lat="44.79994" lon="-0.25561">
        <ele>37.9</ele>
      </trkpt>
      <trkpt lat="44.79997" lon="-0.25563">
        <ele>38.1</ele>
      </trkpt>
      <trkpt lat="44.8" lon="-0.25566">
        <ele>38.4</ele>
      </trkpt>
      <trkpt lat="44.80008" lon="-0.25573">
        <ele>38.7</ele>
      </trkpt>
      <trkpt lat="44.80018" lon="-0.25583">
        <ele>39</ele>
      </trkpt>
      <trkpt lat="44.80025" lon="-0.25591">
        <ele>39</ele>
      </trkpt>
      <trkpt lat="44.80031" lon="-0.25602">
        <ele>39.1</ele>
      </trkpt>
      <trkpt lat="44.80045" lon="-0.25628">
        <ele>39.4</ele>
      </trkpt>
      <trkpt lat="44.80064" lon="-0.25666">
        <ele>39.6</ele>
      </trkpt>
      <trkpt lat="44.80083" lon="-0.25705">
        <ele>41</ele>
      </trkpt>
      <trkpt lat="44.80092" lon="-0.25726">
        <ele>41.4</ele>
      </trkpt>
      <trkpt lat="44.80097" lon="-0.25738">
        <ele>42.1</ele>
      </trkpt>
      <trkpt lat="44.801" lon="-0.2575">
        <ele>42.6</ele>
      </trkpt>
      <trkpt lat="44.80105" lon="-0.25769">
        <ele>43.5</ele>
      </trkpt>
      <trkpt lat="44.80112" lon="-0.25797">
        <ele>44.7</ele>
      </trkpt>
      <trkpt lat="44.80117" lon="-0.25828">
        <ele>45</ele>
      </trkpt>
      <trkpt lat="44.80123" lon="-0.25855">
        <ele>45.3</ele>
      </trkpt>
      <trkpt lat="44.80137" lon="-0.25921">
        <ele>47.2</ele>
      </trkpt>
      <trkpt lat="44.80147" lon="-0.2597">
        <ele>48.9</ele>
      </trkpt>
      <trkpt lat="44.80153" lon="-0.25987">
        <ele>49.8</ele>
      </trkpt>
      <trkpt lat="44.80158" lon="-0.25996">
        <ele>50.1</ele>
      </trkpt>
      <trkpt lat="44.80163" lon="-0.26001">
        <ele>50.2</ele>
      </trkpt>
      <trkpt lat="44.80169" lon="-0.26006">
        <ele>50</ele>
      </trkpt>
      <trkpt lat="44.80177" lon="-0.2601">
        <ele>49.6</ele>
      </trkpt>
      <trkpt lat="44.80186" lon="-0.26012">
        <ele>49</ele>
      </trkpt>
      <trkpt lat="44.802" lon="-0.26014">
        <ele>48.1</ele>
      </trkpt>
      <trkpt lat="44.80214" lon="-0.26014">
        <ele>47.1</ele>
      </trkpt>
      <trkpt lat="44.80238" lon="-0.26013">
        <ele>45.9</ele>
      </trkpt>
      <trkpt lat="44.8027" lon="-0.26013">
        <ele>45.1</ele>
      </trkpt>
      <trkpt lat="44.80302" lon="-0.26014">
        <ele>44.6</ele>
      </trkpt>
      <trkpt lat="44.80328" lon="-0.26013">
        <ele>44.8</ele>
      </trkpt>
      <trkpt lat="44.8035" lon="-0.26009">
        <ele>45.1</ele>
      </trkpt>
      <trkpt lat="44.80351" lon="-0.26009">
        <ele>45.1</ele>
      </trkpt>
      <trkpt lat="44.80374" lon="-0.26001">
        <ele>45.5</ele>
      </trkpt>
      <trkpt lat="44.80396" lon="-0.25991">
        <ele>46.3</ele>
      </trkpt>
      <trkpt lat="44.80409" lon="-0.25986">
        <ele>46.7</ele>
      </trkpt>
      <trkpt lat="44.8042" lon="-0.2598">
        <ele>46.4</ele>
      </trkpt>
      <trkpt lat="44.80437" lon="-0.25974">
        <ele>45.4</ele>
      </trkpt>
      <trkpt lat="44.80463" lon="-0.25966">
        <ele>44.9</ele>
      </trkpt>
      <trkpt lat="44.80485" lon="-0.25962">
        <ele>44.2</ele>
      </trkpt>
      <trkpt lat="44.80511" lon="-0.25957">
        <ele>43.7</ele>
      </trkpt>
      <trkpt lat="44.80536" lon="-0.25952">
        <ele>44.3</ele>
      </trkpt>
      <trkpt lat="44.80567" lon="-0.25946">
        <ele>45</ele>
      </trkpt>
      <trkpt lat="44.80602" lon="-0.25939">
        <ele>45.7</ele>
      </trkpt>
      <trkpt lat="44.80636" lon="-0.25935">
        <ele>46.9</ele>
      </trkpt>
      <trkpt lat="44.80662" lon="-0.25934">
        <ele>47.8</ele>
      </trkpt>
      <trkpt lat="44.80679" lon="-0.25933">
        <ele>48.3</ele>
      </trkpt>
      <trkpt lat="44.80691" lon="-0.25933">
        <ele>48.5</ele>
      </trkpt>
      <trkpt lat="44.80703" lon="-0.25936">
        <ele>48.7</ele>
      </trkpt>
      <trkpt lat="44.80702" lon="-0.2595">
        <ele>49.3</ele>
      </trkpt>
      <trkpt lat="44.80701" lon="-0.25964">
        <ele>49.9</ele>
      </trkpt>
      <trkpt lat="44.80701" lon="-0.25977">
        <ele>50.4</ele>
      </trkpt>
      <trkpt lat="44.80702" lon="-0.25987">
        <ele>50.8</ele>
      </trkpt>
      <trkpt lat="44.80703" lon="-0.25999">
        <ele>51.3</ele>
      </trkpt>
      <trkpt lat="44.80705" lon="-0.26008">
        <ele>51.4</ele>
      </trkpt>
      <trkpt lat="44.80707" lon="-0.2602">
        <ele>51.5</ele>
      </trkpt>
      <trkpt lat="44.8071" lon="-0.2604">
        <ele>52</ele>
      </trkpt>
      <trkpt lat="44.80713" lon="-0.26049">
        <ele>52.4</ele>
      </trkpt>
      <trkpt lat="44.80713" lon="-0.2605">
        <ele>52.5</ele>
      </trkpt>
      <trkpt lat="44.80722" lon="-0.26079">
        <ele>53</ele>
      </trkpt>
      <trkpt lat="44.80734" lon="-0.26119">
        <ele>54.3</ele>
      </trkpt>
      <trkpt lat="44.80747" lon="-0.2616">
        <ele>55.8</ele>
      </trkpt>
      <trkpt lat="44.80759" lon="-0.26203">
        <ele>57.2</ele>
      </trkpt>
      <trkpt lat="44.80772" lon="-0.26246">
        <ele>58.1</ele>
      </trkpt>
      <trkpt lat="44.80775" lon="-0.26256">
        <ele>58.1</ele>
      </trkpt>
      <trkpt lat="44.80777" lon="-0.26264">
        <ele>58</ele>
      </trkpt>
      <trkpt lat="44.80779" lon="-0.26275">
        <ele>58</ele>
      </trkpt>
      <trkpt lat="44.8078" lon="-0.26288">
        <ele>57.9</ele>
      </trkpt>
      <trkpt lat="44.80781" lon="-0.26309">
        <ele>57.9</ele>
      </trkpt>
      <trkpt lat="44.80781" lon="-0.26336">
        <ele>57.8</ele>
      </trkpt>
      <trkpt lat="44.80781" lon="-0.2637">
        <ele>57.4</ele>
      </trkpt>
      <trkpt lat="44.80781" lon="-0.26408">
        <ele>56.8</ele>
      </trkpt>
      <trkpt lat="44.80781" lon="-0.26425">
        <ele>56.5</ele>
      </trkpt>
      <trkpt lat="44.80782" lon="-0.26435">
        <ele>56.1</ele>
      </trkpt>
      <trkpt lat="44.80782" lon="-0.26443">
        <ele>55.9</ele>
      </trkpt>
      <trkpt lat="44.80784" lon="-0.26452">
        <ele>55.5</ele>
      </trkpt>
      <trkpt lat="44.80785" lon="-0.26461">
        <ele>55.1</ele>
      </trkpt>
      <trkpt lat="44.80788" lon="-0.26473">
        <ele>54.6</ele>
      </trkpt>
      <trkpt lat="44.808" lon="-0.26505">
        <ele>52.6</ele>
      </trkpt>
      <trkpt lat="44.80831" lon="-0.2657">
        <ele>50.5</ele>
      </trkpt>
      <trkpt lat="44.80843" lon="-0.26588">
        <ele>49.5</ele>
      </trkpt>
      <trkpt lat="44.80854" lon="-0.26599">
        <ele>49.1</ele>
      </trkpt>
      <trkpt lat="44.80864" lon="-0.26607">
        <ele>48.9</ele>
      </trkpt>
      <trkpt lat="44.80894" lon="-0.26613">
        <ele>47.6</ele>
      </trkpt>
      <trkpt lat="44.80998" lon="-0.26631">
        <ele>41.4</ele>
      </trkpt>
      <trkpt lat="44.81038" lon="-0.26639">
        <ele>39.6</ele>
      </trkpt>
      <trkpt lat="44.81043" lon="-0.26642">
        <ele>39.5</ele>
      </trkpt>
      <trkpt lat="44.81047" lon="-0.26645">
        <ele>39.3</ele>
      </trkpt>
      <trkpt lat="44.8105" lon="-0.26648">
        <ele>39.2</ele>
      </trkpt>
      <trkpt lat="44.81053" lon="-0.26654">
        <ele>39.1</ele>
      </trkpt>
      <trkpt lat="44.81057" lon="-0.26658">
        <ele>39</ele>
      </trkpt>
      <trkpt lat="44.8106" lon="-0.26671">
        <ele>39</ele>
      </trkpt>
      <trkpt lat="44.8106" lon="-0.26684">
        <ele>38.9</ele>
      </trkpt>
      <trkpt lat="44.81062" lon="-0.26698">
        <ele>38.8</ele>
      </trkpt>
      <trkpt lat="44.81063" lon="-0.26703">
        <ele>38.7</ele>
      </trkpt>
      <trkpt lat="44.81067" lon="-0.26724">
        <ele>38.6</ele>
      </trkpt>
      <trkpt lat="44.81078" lon="-0.26751">
        <ele>37.4</ele>
      </trkpt>
      <trkpt lat="44.81085" lon="-0.2677">
        <ele>35.9</ele>
      </trkpt>
      <trkpt lat="44.81086" lon="-0.26776">
        <ele>35.5</ele>
      </trkpt>
      <trkpt lat="44.81088" lon="-0.26789">
        <ele>34.6</ele>
      </trkpt>
      <trkpt lat="44.8109" lon="-0.26816">
        <ele>33.3</ele>
      </trkpt>
      <trkpt lat="44.81089" lon="-0.26843">
        <ele>32.7</ele>
      </trkpt>
      <trkpt lat="44.81089" lon="-0.26873">
        <ele>31.2</ele>
      </trkpt>
      <trkpt lat="44.81088" lon="-0.26877">
        <ele>31</ele>
      </trkpt>
      <trkpt lat="44.81088" lon="-0.26896">
        <ele>29.8</ele>
      </trkpt>
      <trkpt lat="44.81088" lon="-0.26912">
        <ele>29.4</ele>
      </trkpt>
      <trkpt lat="44.81087" lon="-0.26925">
        <ele>29.3</ele>
      </trkpt>
      <trkpt lat="44.81084" lon="-0.26942">
        <ele>29.1</ele>
      </trkpt>
      <trkpt lat="44.81074" lon="-0.26972">
        <ele>30.3</ele>
      </trkpt>
      <trkpt lat="44.8106" lon="-0.27007">
        <ele>31.2</ele>
      </trkpt>
      <trkpt lat="44.81055" lon="-0.27026">
        <ele>31.8</ele>
      </trkpt>
      <trkpt lat="44.81053" lon="-0.27044">
        <ele>31.9</ele>
      </trkpt>
      <trkpt lat="44.81053" lon="-0.27062">
        <ele>32.1</ele>
      </trkpt>
      <trkpt lat="44.81054" lon="-0.27076">
        <ele>32.7</ele>
      </trkpt>
      <trkpt lat="44.81057" lon="-0.27096">
        <ele>33.6</ele>
      </trkpt>
      <trkpt lat="44.81062" lon="-0.27116">
        <ele>34.5</ele>
      </trkpt>
      <trkpt lat="44.81076" lon="-0.27137">
        <ele>35.5</ele>
      </trkpt>
      <trkpt lat="44.81115" lon="-0.27198">
        <ele>38.3</ele>
      </trkpt>
      <trkpt lat="44.81123" lon="-0.27212">
        <ele>38.8</ele>
      </trkpt>
      <trkpt lat="44.81148" lon="-0.27253">
        <ele>40.4</ele>
      </trkpt>
      <trkpt lat="44.81184" lon="-0.27315">
        <ele>45.1</ele>
      </trkpt>
      <trkpt lat="44.81215" lon="-0.27375">
        <ele>48.5</ele>
      </trkpt>
      <trkpt lat="44.81242" lon="-0.27431">
        <ele>50.9</ele>
      </trkpt>
      <trkpt lat="44.8125" lon="-0.2745">
        <ele>51.2</ele>
      </trkpt>
      <trkpt lat="44.81253" lon="-0.27472">
        <ele>52.1</ele>
      </trkpt>
      <trkpt lat="44.8127" lon="-0.27562">
        <ele>53.2</ele>
      </trkpt>
      <trkpt lat="44.81291" lon="-0.27687">
        <ele>54</ele>
      </trkpt>
      <trkpt lat="44.81292" lon="-0.27692">
        <ele>54</ele>
      </trkpt>
      <trkpt lat="44.81295" lon="-0.27704">
        <ele>54.5</ele>
      </trkpt>
      <trkpt lat="44.81296" lon="-0.27716">
        <ele>54.8</ele>
      </trkpt>
      <trkpt lat="44.81296" lon="-0.27726">
        <ele>55</ele>
      </trkpt>
      <trkpt lat="44.81293" lon="-0.2775">
        <ele>55.1</ele>
      </trkpt>
      <trkpt lat="44.8129" lon="-0.27756">
        <ele>55</ele>
      </trkpt>
      <trkpt lat="44.81294" lon="-0.27769">
        <ele>55.5</ele>
      </trkpt>
      <trkpt lat="44.81295" lon="-0.27781">
        <ele>55.7</ele>
      </trkpt>
      <trkpt lat="44.81304" lon="-0.2786">
        <ele>57</ele>
      </trkpt>
      <trkpt lat="44.81309" lon="-0.27905">
        <ele>57.2</ele>
      </trkpt>
      <trkpt lat="44.81314" lon="-0.27931">
        <ele>57.5</ele>
      </trkpt>
      <trkpt lat="44.81332" lon="-0.27984">
        <ele>57.9</ele>
      </trkpt>
      <trkpt lat="44.81363" lon="-0.28071">
        <ele>59.1</ele>
      </trkpt>
      <trkpt lat="44.81368" lon="-0.28082">
        <ele>59.2</ele>
      </trkpt>
      <trkpt lat="44.81375" lon="-0.28097">
        <ele>59.7</ele>
      </trkpt>
      <trkpt lat="44.81395" lon="-0.28146">
        <ele>61.4</ele>
      </trkpt>
      <trkpt lat="44.81404" lon="-0.28183">
        <ele>62.4</ele>
      </trkpt>
      <trkpt lat="44.81407" lon="-0.28209">
        <ele>62.7</ele>
      </trkpt>
      <trkpt lat="44.81412" lon="-0.28234">
        <ele>62.9</ele>
      </trkpt>
      <trkpt lat="44.8142" lon="-0.28252">
        <ele>63</ele>
      </trkpt>
      <trkpt lat="44.81427" lon="-0.28256">
        <ele>63</ele>
      </trkpt>
      <trkpt lat="44.81442" lon="-0.28255">
        <ele>63</ele>
      </trkpt>
      <trkpt lat="44.81461" lon="-0.28248">
        <ele>63.1</ele>
      </trkpt>
      <trkpt lat="44.8147" lon="-0.28244">
        <ele>63.2</ele>
      </trkpt>
      <trkpt lat="44.81488" lon="-0.28241">
        <ele>63.7</ele>
      </trkpt>
      <trkpt lat="44.81496" lon="-0.28244">
        <ele>63.9</ele>
      </trkpt>
      <trkpt lat="44.81504" lon="-0.2825">
        <ele>64</ele>
      </trkpt>
      <trkpt lat="44.8153" lon="-0.2827">
        <ele>63.3</ele>
      </trkpt>
      <trkpt lat="44.81534" lon="-0.28271">
        <ele>63.2</ele>
      </trkpt>
      <trkpt lat="44.81542" lon="-0.28271">
        <ele>63.1</ele>
      </trkpt>
      <trkpt lat="44.81563" lon="-0.28267">
        <ele>62.8</ele>
      </trkpt>
      <trkpt lat="44.81585" lon="-0.28261">
        <ele>62.6</ele>
      </trkpt>
      <trkpt lat="44.81596" lon="-0.28263">
        <ele>62.7</ele>
      </trkpt>
      <trkpt lat="44.81605" lon="-0.28273">
        <ele>62.8</ele>
      </trkpt>
      <trkpt lat="44.81617" lon="-0.28294">
        <ele>62.5</ele>
      </trkpt>
      <trkpt lat="44.81627" lon="-0.28323">
        <ele>62.6</ele>
      </trkpt>
      <trkpt lat="44.81634" lon="-0.2836">
        <ele>62.8</ele>
      </trkpt>
      <trkpt lat="44.81642" lon="-0.28394">
        <ele>62.1</ele>
      </trkpt>
      <trkpt lat="44.81648" lon="-0.28409">
        <ele>62.3</ele>
      </trkpt>
      <trkpt lat="44.81661" lon="-0.2842">
        <ele>62.8</ele>
      </trkpt>
      <trkpt lat="44.81677" lon="-0.28424">
        <ele>63</ele>
      </trkpt>
      <trkpt lat="44.817" lon="-0.28424">
        <ele>62.9</ele>
      </trkpt>
      <trkpt lat="44.81717" lon="-0.28424">
        <ele>62.8</ele>
      </trkpt>
      <trkpt lat="44.81722" lon="-0.2846">
        <ele>62</ele>
      </trkpt>
      <trkpt lat="44.8173" lon="-0.2854">
        <ele>61.3</ele>
      </trkpt>
      <trkpt lat="44.81733" lon="-0.28542">
        <ele>61.4</ele>
      </trkpt>
      <trkpt lat="44.81738" lon="-0.28547">
        <ele>61.6</ele>
      </trkpt>
      <trkpt lat="44.81746" lon="-0.28558">
        <ele>61.8</ele>
      </trkpt>
      <trkpt lat="44.81756" lon="-0.28575">
        <ele>61.2</ele>
      </trkpt>
      <trkpt lat="44.81763" lon="-0.28592">
        <ele>60.7</ele>
      </trkpt>
      <trkpt lat="44.8177" lon="-0.28615">
        <ele>59.9</ele>
      </trkpt>
      <trkpt lat="44.81765" lon="-0.28618">
        <ele>59.8</ele>
      </trkpt>
      <trkpt lat="44.81752" lon="-0.28627">
        <ele>59.4</ele>
      </trkpt>
      <trkpt lat="44.81729" lon="-0.28633">
        <ele>59.2</ele>
      </trkpt>
      <trkpt lat="44.81717" lon="-0.28626">
        <ele>59.3</ele>
      </trkpt>
      <trkpt lat="44.81716" lon="-0.28625">
        <ele>59.3</ele>
      </trkpt>
      <trkpt lat="44.81714" lon="-0.28623">
        <ele>59.3</ele>
      </trkpt>
      <trkpt lat="44.81713" lon="-0.28619">
        <ele>59.4</ele>
      </trkpt>
      <trkpt lat="44.81712" lon="-0.28618">
        <ele>59.4</ele>
      </trkpt>
      <trkpt lat="44.81711" lon="-0.28612">
        <ele>59.6</ele>
      </trkpt>
      <trkpt lat="44.81708" lon="-0.28588">
        <ele>60.3</ele>
      </trkpt>
      <trkpt lat="44.81707" lon="-0.28579">
        <ele>60.5</ele>
      </trkpt>
      <trkpt lat="44.81707" lon="-0.28574">
        <ele>60.5</ele>
      </trkpt>
      <trkpt lat="44.81708" lon="-0.28564">
        <ele>60.5</ele>
      </trkpt>
      <trkpt lat="44.81664" lon="-0.28557">
        <ele>59.9</ele>
      </trkpt>
      <trkpt lat="44.8164" lon="-0.28556">
        <ele>59</ele>
      </trkpt>
      <trkpt lat="44.81617" lon="-0.28555">
        <ele>58.2</ele>
      </trkpt>
      <trkpt lat="44.81595" lon="-0.28551">
        <ele>57.5</ele>
      </trkpt>
      <trkpt lat="44.81573" lon="-0.28548">
        <ele>57.3</ele>
      </trkpt>
      <trkpt lat="44.81558" lon="-0.28546">
        <ele>57.3</ele>
      </trkpt>
      <trkpt lat="44.81538" lon="-0.28547">
        <ele>57.3</ele>
      </trkpt>
      <trkpt lat="44.81511" lon="-0.28559">
        <ele>57</ele>
      </trkpt>
      <trkpt lat="44.81473" lon="-0.28579">
        <ele>58</ele>
      </trkpt>
      <trkpt lat="44.81435" lon="-0.286">
        <ele>57.4</ele>
      </trkpt>
      <trkpt lat="44.81415" lon="-0.28606">
        <ele>57.2</ele>
      </trkpt>
      <trkpt lat="44.81406" lon="-0.28603">
        <ele>57.3</ele>
      </trkpt>
      <trkpt lat="44.81398" lon="-0.28596">
        <ele>57.5</ele>
      </trkpt>
      <trkpt lat="44.81394" lon="-0.28584">
        <ele>58</ele>
      </trkpt>
      <trkpt lat="44.81389" lon="-0.28557">
        <ele>58</ele>
      </trkpt>
      <trkpt lat="44.81383" lon="-0.28522">
        <ele>59.3</ele>
      </trkpt>
      <trkpt lat="44.81376" lon="-0.28486">
        <ele>59.7</ele>
      </trkpt>
      <trkpt lat="44.81368" lon="-0.28451">
        <ele>60.5</ele>
      </trkpt>
      <trkpt lat="44.81353" lon="-0.28404">
        <ele>61.3</ele>
      </trkpt>
      <trkpt lat="44.81336" lon="-0.28362">
        <ele>62</ele>
      </trkpt>
      <trkpt lat="44.81324" lon="-0.28337">
        <ele>62</ele>
      </trkpt>
      <trkpt lat="44.81306" lon="-0.28306">
        <ele>61</ele>
      </trkpt>
      <trkpt lat="44.81284" lon="-0.28278">
        <ele>59.2</ele>
      </trkpt>
      <trkpt lat="44.81244" lon="-0.28237">
        <ele>57.4</ele>
      </trkpt>
      <trkpt lat="44.81221" lon="-0.28228">
        <ele>56.4</ele>
      </trkpt>
      <trkpt lat="44.8115" lon="-0.28201">
        <ele>54.2</ele>
      </trkpt>
      <trkpt lat="44.81098" lon="-0.28175">
        <ele>53.6</ele>
      </trkpt>
      <trkpt lat="44.81095" lon="-0.28172">
        <ele>53.7</ele>
      </trkpt>
      <trkpt lat="44.81071" lon="-0.28155">
        <ele>53.6</ele>
      </trkpt>
      <trkpt lat="44.81038" lon="-0.28119">
        <ele>53</ele>
      </trkpt>
      <trkpt lat="44.81021" lon="-0.28101">
        <ele>52.6</ele>
      </trkpt>
      <trkpt lat="44.81004" lon="-0.28091">
        <ele>52.3</ele>
      </trkpt>
      <trkpt lat="44.80993" lon="-0.2809">
        <ele>52.3</ele>
      </trkpt>
      <trkpt lat="44.80966" lon="-0.28098">
        <ele>53.1</ele>
      </trkpt>
      <trkpt lat="44.80943" lon="-0.28101">
        <ele>53.3</ele>
      </trkpt>
      <trkpt lat="44.8092" lon="-0.281">
        <ele>54.1</ele>
      </trkpt>
      <trkpt lat="44.80886" lon="-0.28091">
        <ele>54.7</ele>
      </trkpt>
      <trkpt lat="44.80825" lon="-0.28077">
        <ele>55.7</ele>
      </trkpt>
      <trkpt lat="44.80798" lon="-0.28072">
        <ele>55.3</ele>
      </trkpt>
      <trkpt lat="44.80778" lon="-0.28065">
        <ele>55.3</ele>
      </trkpt>
      <trkpt lat="44.80777" lon="-0.28065">
        <ele>55.4</ele>
      </trkpt>
      <trkpt lat="44.80775" lon="-0.28052">
        <ele>55</ele>
      </trkpt>
      <trkpt lat="44.80771" lon="-0.28024">
        <ele>55.1</ele>
      </trkpt>
      <trkpt lat="44.80763" lon="-0.27977">
        <ele>55.1</ele>
      </trkpt>
      <trkpt lat="44.80756" lon="-0.2794">
        <ele>54.3</ele>
      </trkpt>
      <trkpt lat="44.8073" lon="-0.27846">
        <ele>53.2</ele>
      </trkpt>
      <trkpt lat="44.80715" lon="-0.27792">
        <ele>53.1</ele>
      </trkpt>
      <trkpt lat="44.80703" lon="-0.27755">
        <ele>53.7</ele>
      </trkpt>
      <trkpt lat="44.80685" lon="-0.27707">
        <ele>53</ele>
      </trkpt>
      <trkpt lat="44.8068" lon="-0.27692">
        <ele>53</ele>
      </trkpt>
      <trkpt lat="44.80683" lon="-0.27685">
        <ele>53</ele>
      </trkpt>
      <trkpt lat="44.80687" lon="-0.2768">
        <ele>53</ele>
      </trkpt>
      <trkpt lat="44.80742" lon="-0.27644">
        <ele>51.3</ele>
      </trkpt>
      <trkpt lat="44.80765" lon="-0.27628">
        <ele>48.6</ele>
      </trkpt>
      <trkpt lat="44.80789" lon="-0.27606">
        <ele>44.8</ele>
      </trkpt>
      <trkpt lat="44.80806" lon="-0.27591">
        <ele>42.5</ele>
      </trkpt>
      <trkpt lat="44.80825" lon="-0.27574">
        <ele>40.2</ele>
      </trkpt>
      <trkpt lat="44.80848" lon="-0.27558">
        <ele>39</ele>
      </trkpt>
      <trkpt lat="44.80862" lon="-0.27552">
        <ele>38.8</ele>
      </trkpt>
      <trkpt lat="44.80864" lon="-0.27549">
        <ele>38.6</ele>
      </trkpt>
      <trkpt lat="44.80866" lon="-0.27546">
        <ele>38.4</ele>
      </trkpt>
      <trkpt lat="44.80869" lon="-0.27536">
        <ele>37.9</ele>
      </trkpt>
      <trkpt lat="44.80869" lon="-0.27528">
        <ele>37.7</ele>
      </trkpt>
      <trkpt lat="44.80863" lon="-0.27507">
        <ele>37.9</ele>
      </trkpt>
      <trkpt lat="44.80857" lon="-0.2748">
        <ele>38</ele>
      </trkpt>
      <trkpt lat="44.80854" lon="-0.27464">
        <ele>38.1</ele>
      </trkpt>
      <trkpt lat="44.80853" lon="-0.27442">
        <ele>38.4</ele>
      </trkpt>
      <trkpt lat="44.80857" lon="-0.27414">
        <ele>39</ele>
      </trkpt>
      <trkpt lat="44.8087" lon="-0.27367">
        <ele>38.1</ele>
      </trkpt>
      <trkpt lat="44.80875" lon="-0.27343">
        <ele>38</ele>
      </trkpt>
      <trkpt lat="44.80875" lon="-0.27333">
        <ele>38</ele>
      </trkpt>
      <trkpt lat="44.80873" lon="-0.27322">
        <ele>37.8</ele>
      </trkpt>
      <trkpt lat="44.80873" lon="-0.27319">
        <ele>37.8</ele>
      </trkpt>
      <trkpt lat="44.80875" lon="-0.27316">
        <ele>37.7</ele>
      </trkpt>
      <trkpt lat="44.80877" lon="-0.27313">
        <ele>37.6</ele>
      </trkpt>
      <trkpt lat="44.8089" lon="-0.27299">
        <ele>37.2</ele>
      </trkpt>
      <trkpt lat="44.80912" lon="-0.27272">
        <ele>37.4</ele>
      </trkpt>
      <trkpt lat="44.80923" lon="-0.27251">
        <ele>37.5</ele>
      </trkpt>
      <trkpt lat="44.80934" lon="-0.2722">
        <ele>37.8</ele>
      </trkpt>
      <trkpt lat="44.8094" lon="-0.27189">
        <ele>38.2</ele>
      </trkpt>
      <trkpt lat="44.80941" lon="-0.27155">
        <ele>38.1</ele>
      </trkpt>
      <trkpt lat="44.80945" lon="-0.2712">
        <ele>37.3</ele>
      </trkpt>
      <trkpt lat="44.80951" lon="-0.27103">
        <ele>36</ele>
      </trkpt>
      <trkpt lat="44.80966" lon="-0.27069">
        <ele>33.5</ele>
      </trkpt>
      <trkpt lat="44.80973" lon="-0.27057">
        <ele>33</ele>
      </trkpt>
      <trkpt lat="44.80983" lon="-0.27052">
        <ele>32.4</ele>
      </trkpt>
      <trkpt lat="44.81053" lon="-0.27044">
        <ele>31.9</ele>
      </trkpt>
      <trkpt lat="44.81055" lon="-0.27026">
        <ele>31.8</ele>
      </trkpt>
      <trkpt lat="44.8106" lon="-0.27007">
        <ele>31.2</ele>
      </trkpt>
      <trkpt lat="44.81074" lon="-0.26972">
        <ele>30.3</ele>
      </trkpt>
      <trkpt lat="44.81084" lon="-0.26942">
        <ele>29.1</ele>
      </trkpt>
      <trkpt lat="44.81087" lon="-0.26925">
        <ele>29.3</ele>
      </trkpt>
      <trkpt lat="44.81088" lon="-0.26912">
        <ele>29.4</ele>
      </trkpt>
      <trkpt lat="44.81088" lon="-0.26896">
        <ele>29.8</ele>
      </trkpt>
      <trkpt lat="44.81088" lon="-0.26877">
        <ele>31</ele>
      </trkpt>
      <trkpt lat="44.81089" lon="-0.26873">
        <ele>31.2</ele>
      </trkpt>
      <trkpt lat="44.81089" lon="-0.26843">
        <ele>32.7</ele>
      </trkpt>
      <trkpt lat="44.8109" lon="-0.26816">
        <ele>33.3</ele>
      </trkpt>
      <trkpt lat="44.81088" lon="-0.26789">
        <ele>34.6</ele>
      </trkpt>
      <trkpt lat="44.81086" lon="-0.26776">
        <ele>35.5</ele>
      </trkpt>
      <trkpt lat="44.81085" lon="-0.2677">
        <ele>35.9</ele>
      </trkpt>
      <trkpt lat="44.81078" lon="-0.26751">
        <ele>37.4</ele>
      </trkpt>
      <trkpt lat="44.81067" lon="-0.26724">
        <ele>38.6</ele>
      </trkpt>
      <trkpt lat="44.81063" lon="-0.26703">
        <ele>38.7</ele>
      </trkpt>
      <trkpt lat="44.81062" lon="-0.26698">
        <ele>38.8</ele>
      </trkpt>
      <trkpt lat="44.8106" lon="-0.26684">
        <ele>38.9</ele>
      </trkpt>
      <trkpt lat="44.8106" lon="-0.26671">
        <ele>39</ele>
      </trkpt>
      <trkpt lat="44.81057" lon="-0.26658">
        <ele>39</ele>
      </trkpt>
      <trkpt lat="44.81053" lon="-0.26654">
        <ele>39.1</ele>
      </trkpt>
      <trkpt lat="44.8105" lon="-0.26648">
        <ele>39.2</ele>
      </trkpt>
      <trkpt lat="44.81047" lon="-0.26645">
        <ele>39.3</ele>
      </trkpt>
      <trkpt lat="44.81043" lon="-0.26642">
        <ele>39.5</ele>
      </trkpt>
      <trkpt lat="44.81038" lon="-0.26639">
        <ele>39.6</ele>
      </trkpt>
      <trkpt lat="44.80998" lon="-0.26631">
        <ele>41.4</ele>
      </trkpt>
      <trkpt lat="44.80894" lon="-0.26613">
        <ele>47.6</ele>
      </trkpt>
      <trkpt lat="44.80864" lon="-0.26607">
        <ele>48.9</ele>
      </trkpt>
      <trkpt lat="44.80863" lon="-0.26615">
        <ele>48.8</ele>
      </trkpt>
      <trkpt lat="44.80829" lon="-0.2663">
        <ele>48.3</ele>
      </trkpt>
      <trkpt lat="44.80781" lon="-0.26651">
        <ele>46.7</ele>
      </trkpt>
      <trkpt lat="44.80708" lon="-0.26685">
        <ele>45</ele>
      </trkpt>
      <trkpt lat="44.80651" lon="-0.26713">
        <ele>41.6</ele>
      </trkpt>
      <trkpt lat="44.80641" lon="-0.26716">
        <ele>41.1</ele>
      </trkpt>
      <trkpt lat="44.80632" lon="-0.26717">
        <ele>40.8</ele>
      </trkpt>
      <trkpt lat="44.80626" lon="-0.26716">
        <ele>40.5</ele>
      </trkpt>
      <trkpt lat="44.8062" lon="-0.26709">
        <ele>40.3</ele>
      </trkpt>
      <trkpt lat="44.80607" lon="-0.26681">
        <ele>39.8</ele>
      </trkpt>
      <trkpt lat="44.80594" lon="-0.26655">
        <ele>39.8</ele>
      </trkpt>
      <trkpt lat="44.80584" lon="-0.26639">
        <ele>40</ele>
      </trkpt>
      <trkpt lat="44.80576" lon="-0.26629">
        <ele>40.2</ele>
      </trkpt>
      <trkpt lat="44.80566" lon="-0.26622">
        <ele>40.4</ele>
      </trkpt>
      <trkpt lat="44.80553" lon="-0.26617">
        <ele>40.6</ele>
      </trkpt>
      <trkpt lat="44.80513" lon="-0.26612">
        <ele>41.5</ele>
      </trkpt>
      <trkpt lat="44.80486" lon="-0.26604">
        <ele>43</ele>
      </trkpt>
      <trkpt lat="44.80484" lon="-0.26583">
        <ele>43.1</ele>
      </trkpt>
      <trkpt lat="44.80483" lon="-0.26568">
        <ele>42.9</ele>
      </trkpt>
      <trkpt lat="44.80483" lon="-0.26544">
        <ele>43</ele>
      </trkpt>
      <trkpt lat="44.80483" lon="-0.26517">
        <ele>43.8</ele>
      </trkpt>
      <trkpt lat="44.80485" lon="-0.26426">
        <ele>47.8</ele>
      </trkpt>
      <trkpt lat="44.80484" lon="-0.26416">
        <ele>48.5</ele>
      </trkpt>
      <trkpt lat="44.80482" lon="-0.26405">
        <ele>49.3</ele>
      </trkpt>
      <trkpt lat="44.80479" lon="-0.26388">
        <ele>50.6</ele>
      </trkpt>
      <trkpt lat="44.80475" lon="-0.26368">
        <ele>51.7</ele>
      </trkpt>
      <trkpt lat="44.80469" lon="-0.26342">
        <ele>53.4</ele>
      </trkpt>
      <trkpt lat="44.80467" lon="-0.26336">
        <ele>53.8</ele>
      </trkpt>
      <trkpt lat="44.80459" lon="-0.26338">
        <ele>53.7</ele>
      </trkpt>
      <trkpt lat="44.80439" lon="-0.26343">
        <ele>53.4</ele>
      </trkpt>
      <trkpt lat="44.80414" lon="-0.26351">
        <ele>54.1</ele>
      </trkpt>
      <trkpt lat="44.80383" lon="-0.26359">
        <ele>55.1</ele>
      </trkpt>
      <trkpt lat="44.80356" lon="-0.26364">
        <ele>54.7</ele>
      </trkpt>
      <trkpt lat="44.80344" lon="-0.26364">
        <ele>54.8</ele>
      </trkpt>
      <trkpt lat="44.80334" lon="-0.26364">
        <ele>54.9</ele>
      </trkpt>
      <trkpt lat="44.80324" lon="-0.26363">
        <ele>54.6</ele>
      </trkpt>
      <trkpt lat="44.80313" lon="-0.2636">
        <ele>54.4</ele>
      </trkpt>
      <trkpt lat="44.80295" lon="-0.26353">
        <ele>54.4</ele>
      </trkpt>
      <trkpt lat="44.80274" lon="-0.26342">
        <ele>54.2</ele>
      </trkpt>
      <trkpt lat="44.80254" lon="-0.26332">
        <ele>54.3</ele>
      </trkpt>
      <trkpt lat="44.80242" lon="-0.26328">
        <ele>54.8</ele>
      </trkpt>
      <trkpt lat="44.80234" lon="-0.26326">
        <ele>55.2</ele>
      </trkpt>
      <trkpt lat="44.80223" lon="-0.26327">
        <ele>55.4</ele>
      </trkpt>
      <trkpt lat="44.80203" lon="-0.26329">
        <ele>55.9</ele>
      </trkpt>
      <trkpt lat="44.80177" lon="-0.26331">
        <ele>57.3</ele>
      </trkpt>
      <trkpt lat="44.80165" lon="-0.2633">
        <ele>58.1</ele>
      </trkpt>
      <trkpt lat="44.80158" lon="-0.26328">
        <ele>58.2</ele>
      </trkpt>
      <trkpt lat="44.80148" lon="-0.26324">
        <ele>58.3</ele>
      </trkpt>
      <trkpt lat="44.80114" lon="-0.26302">
        <ele>58.3</ele>
      </trkpt>
      <trkpt lat="44.80076" lon="-0.26275">
        <ele>58.8</ele>
      </trkpt>
      <trkpt lat="44.80056" lon="-0.26263">
        <ele>58.5</ele>
      </trkpt>
      <trkpt lat="44.80046" lon="-0.26257">
        <ele>58.7</ele>
      </trkpt>
      <trkpt lat="44.80037" lon="-0.26253">
        <ele>58.9</ele>
      </trkpt>
      <trkpt lat="44.80025" lon="-0.2625">
        <ele>59.1</ele>
      </trkpt>
      <trkpt lat="44.80012" lon="-0.26247">
        <ele>59.6</ele>
      </trkpt>
      <trkpt lat="44.79996" lon="-0.26246">
        <ele>59.9</ele>
      </trkpt>
      <trkpt lat="44.79972" lon="-0.26246">
        <ele>59.1</ele>
      </trkpt>
      <trkpt lat="44.79931" lon="-0.26245">
        <ele>59.2</ele>
      </trkpt>
      <trkpt lat="44.79879" lon="-0.26245">
        <ele>59.5</ele>
      </trkpt>
      <trkpt lat="44.79864" lon="-0.26245">
        <ele>59.9</ele>
      </trkpt>
      <trkpt lat="44.79859" lon="-0.26245">
        <ele>59.9</ele>
      </trkpt>
      <trkpt lat="44.79848" lon="-0.26248">
        <ele>59.6</ele>
      </trkpt>
      <trkpt lat="44.79837" lon="-0.2625">
        <ele>59.1</ele>
      </trkpt>
      <trkpt lat="44.79825" lon="-0.26256">
        <ele>58.7</ele>
      </trkpt>
      <trkpt lat="44.79794" lon="-0.26276">
        <ele>58.4</ele>
      </trkpt>
      <trkpt lat="44.79759" lon="-0.26302">
        <ele>62.1</ele>
      </trkpt>
      <trkpt lat="44.79744" lon="-0.26316">
        <ele>63.4</ele>
      </trkpt>
      <trkpt lat="44.79712" lon="-0.26348">
        <ele>63.8</ele>
      </trkpt>
      <trkpt lat="44.79693" lon="-0.26366">
        <ele>63.8</ele>
      </trkpt>
      <trkpt lat="44.79668" lon="-0.26389">
        <ele>64</ele>
      </trkpt>
      <trkpt lat="44.79645" lon="-0.26407">
        <ele>64</ele>
      </trkpt>
      <trkpt lat="44.79626" lon="-0.26421">
        <ele>64</ele>
      </trkpt>
      <trkpt lat="44.79608" lon="-0.26431">
        <ele>64</ele>
      </trkpt>
      <trkpt lat="44.79593" lon="-0.26439">
        <ele>64</ele>
      </trkpt>
      <trkpt lat="44.79588" lon="-0.2644">
        <ele>64</ele>
      </trkpt>
      <trkpt lat="44.7958" lon="-0.26441">
        <ele>64</ele>
      </trkpt>
      <trkpt lat="44.79555" lon="-0.26443">
        <ele>64</ele>
      </trkpt>
      <trkpt lat="44.79516" lon="-0.26448">
        <ele>63.1</ele>
      </trkpt>
      <trkpt lat="44.79492" lon="-0.26452">
        <ele>63.2</ele>
      </trkpt>
      <trkpt lat="44.79479" lon="-0.26455">
        <ele>63.5</ele>
      </trkpt>
      <trkpt lat="44.79466" lon="-0.26462">
        <ele>63.3</ele>
      </trkpt>
      <trkpt lat="44.79454" lon="-0.26454">
        <ele>63.2</ele>
      </trkpt>
      <trkpt lat="44.79444" lon="-0.26446">
        <ele>63</ele>
      </trkpt>
      <trkpt lat="44.79436" lon="-0.26438">
        <ele>62.5</ele>
      </trkpt>
      <trkpt lat="44.79418" lon="-0.26418">
        <ele>62</ele>
      </trkpt>
      <trkpt lat="44.79399" lon="-0.26398">
        <ele>61.4</ele>
      </trkpt>
      <trkpt lat="44.79388" lon="-0.26387">
        <ele>61</ele>
      </trkpt>
      <trkpt lat="44.79376" lon="-0.26377">
        <ele>60.5</ele>
      </trkpt>
      <trkpt lat="44.79358" lon="-0.26364">
        <ele>59.9</ele>
      </trkpt>
      <trkpt lat="44.79327" lon="-0.26344">
        <ele>58.4</ele>
      </trkpt>
      <trkpt lat="44.79292" lon="-0.26321">
        <ele>58.8</ele>
      </trkpt>
      <trkpt lat="44.79256" lon="-0.26296">
        <ele>59.8</ele>
      </trkpt>
      <trkpt lat="44.79247" lon="-0.26289">
        <ele>60</ele>
      </trkpt>
      <trkpt lat="44.79237" lon="-0.26278">
        <ele>60</ele>
      </trkpt>
      <trkpt lat="44.79225" lon="-0.26263">
        <ele>60</ele>
      </trkpt>
      <trkpt lat="44.79196" lon="-0.26218">
        <ele>58</ele>
      </trkpt>
      <trkpt lat="44.79162" lon="-0.26165">
        <ele>57.1</ele>
      </trkpt>
      <trkpt lat="44.79146" lon="-0.26142">
        <ele>56.9</ele>
      </trkpt>
      <trkpt lat="44.79138" lon="-0.26135">
        <ele>57</ele>
      </trkpt>
      <trkpt lat="44.7913" lon="-0.2613">
        <ele>57.3</ele>
      </trkpt>
      <trkpt lat="44.79124" lon="-0.26128">
        <ele>57.5</ele>
      </trkpt>
      <trkpt lat="44.79117" lon="-0.26129">
        <ele>57.8</ele>
      </trkpt>
      <trkpt lat="44.79104" lon="-0.26132">
        <ele>58</ele>
      </trkpt>
      <trkpt lat="44.79088" lon="-0.26139">
        <ele>58</ele>
      </trkpt>
      <trkpt lat="44.79065" lon="-0.26151">
        <ele>58</ele>
      </trkpt>
      <trkpt lat="44.79042" lon="-0.26166">
        <ele>58</ele>
      </trkpt>
      <trkpt lat="44.79028" lon="-0.26176">
        <ele>57.7</ele>
      </trkpt>
      <trkpt lat="44.79018" lon="-0.26185">
        <ele>57.2</ele>
      </trkpt>
      <trkpt lat="44.79004" lon="-0.26199">
        <ele>57.2</ele>
      </trkpt>
      <trkpt lat="44.78985" lon="-0.2622">
        <ele>57.4</ele>
      </trkpt>
      <trkpt lat="44.78963" lon="-0.26246">
        <ele>57.9</ele>
      </trkpt>
      <trkpt lat="44.78944" lon="-0.26267">
        <ele>58</ele>
      </trkpt>
      <trkpt lat="44.7892" lon="-0.26291">
        <ele>57.6</ele>
      </trkpt>
      <trkpt lat="44.78895" lon="-0.26317">
        <ele>56.8</ele>
      </trkpt>
      <trkpt lat="44.78879" lon="-0.26335">
        <ele>57.1</ele>
      </trkpt>
      <trkpt lat="44.78855" lon="-0.26363">
        <ele>58.1</ele>
      </trkpt>
      <trkpt lat="44.78836" lon="-0.26388">
        <ele>59</ele>
      </trkpt>
      <trkpt lat="44.78818" lon="-0.26411">
        <ele>59.4</ele>
      </trkpt>
      <trkpt lat="44.78804" lon="-0.26428">
        <ele>59.9</ele>
      </trkpt>
      <trkpt lat="44.78787" lon="-0.26446">
        <ele>59.4</ele>
      </trkpt>
      <trkpt lat="44.78774" lon="-0.2646">
        <ele>58.9</ele>
      </trkpt>
      <trkpt lat="44.78764" lon="-0.26467">
        <ele>58.9</ele>
      </trkpt>
      <trkpt lat="44.78764" lon="-0.2646">
        <ele>58.8</ele>
      </trkpt>
      <trkpt lat="44.78763" lon="-0.26448">
        <ele>58.5</ele>
      </trkpt>
      <trkpt lat="44.78761" lon="-0.26435">
        <ele>58.4</ele>
      </trkpt>
      <trkpt lat="44.78758" lon="-0.2642">
        <ele>58.3</ele>
      </trkpt>
      <trkpt lat="44.78752" lon="-0.26398">
        <ele>58.1</ele>
      </trkpt>
      <trkpt lat="44.78747" lon="-0.26378">
        <ele>57.9</ele>
      </trkpt>
      <trkpt lat="44.78743" lon="-0.26363">
        <ele>57.7</ele>
      </trkpt>
      <trkpt lat="44.78738" lon="-0.26349">
        <ele>57.4</ele>
      </trkpt>
      <trkpt lat="44.78731" lon="-0.26329">
        <ele>56.5</ele>
      </trkpt>
      <trkpt lat="44.78725" lon="-0.26313">
        <ele>55.5</ele>
      </trkpt>
      <trkpt lat="44.78723" lon="-0.26309">
        <ele>55.2</ele>
      </trkpt>
      <trkpt lat="44.78722" lon="-0.26306">
        <ele>55</ele>
      </trkpt>
      <trkpt lat="44.78733" lon="-0.26296">
        <ele>55.7</ele>
      </trkpt>
      <trkpt lat="44.7877" lon="-0.26258">
        <ele>54.7</ele>
      </trkpt>
      <trkpt lat="44.78782" lon="-0.26243">
        <ele>54</ele>
      </trkpt>
      <trkpt lat="44.78805" lon="-0.26212">
        <ele>53.6</ele>
      </trkpt>
      <trkpt lat="44.78826" lon="-0.2618">
        <ele>52.9</ele>
      </trkpt>
      <trkpt lat="44.78844" lon="-0.26149">
        <ele>51.8</ele>
      </trkpt>
      <trkpt lat="44.78859" lon="-0.26119">
        <ele>51.2</ele>
      </trkpt>
      <trkpt lat="44.78874" lon="-0.26086">
        <ele>50.6</ele>
      </trkpt>
      <trkpt lat="44.78886" lon="-0.26053">
        <ele>49.8</ele>
      </trkpt>
      <trkpt lat="44.78896" lon="-0.26025">
        <ele>49.4</ele>
      </trkpt>
      <trkpt lat="44.78906" lon="-0.25992">
        <ele>48.8</ele>
      </trkpt>
      <trkpt lat="44.78918" lon="-0.25941">
        <ele>47.1</ele>
      </trkpt>
      <trkpt lat="44.78937" lon="-0.2586">
        <ele>47.2</ele>
      </trkpt>
      <trkpt lat="44.78938" lon="-0.25854">
        <ele>47</ele>
      </trkpt>
      <trkpt lat="44.7895" lon="-0.25805">
        <ele>47.6</ele>
      </trkpt>
      <trkpt lat="44.78963" lon="-0.25747">
        <ele>49.3</ele>
      </trkpt>
      <trkpt lat="44.78975" lon="-0.25698">
        <ele>49.2</ele>
      </trkpt>
      <trkpt lat="44.78983" lon="-0.25664">
        <ele>48.2</ele>
      </trkpt>
      <trkpt lat="44.78989" lon="-0.25638">
        <ele>47.2</ele>
      </trkpt>
      <trkpt lat="44.7899" lon="-0.25632">
        <ele>47</ele>
      </trkpt>
      <trkpt lat="44.79" lon="-0.25589">
        <ele>46.2</ele>
      </trkpt>
      <trkpt lat="44.79008" lon="-0.25558">
        <ele>45.4</ele>
      </trkpt>
      <trkpt lat="44.79016" lon="-0.25521">
        <ele>44.3</ele>
      </trkpt>
      <trkpt lat="44.79024" lon="-0.25483">
        <ele>43.3</ele>
      </trkpt>
      <trkpt lat="44.7903" lon="-0.25452">
        <ele>42.4</ele>
      </trkpt>
      <trkpt lat="44.79032" lon="-0.25426">
        <ele>42.2</ele>
      </trkpt>
      <trkpt lat="44.79035" lon="-0.254">
        <ele>41.5</ele>
      </trkpt>
      <trkpt lat="44.79036" lon="-0.25375">
        <ele>40.1</ele>
      </trkpt>
      <trkpt lat="44.79036" lon="-0.2535">
        <ele>38.8</ele>
      </trkpt>
      <trkpt lat="44.79036" lon="-0.25327">
        <ele>37.6</ele>
      </trkpt>
      <trkpt lat="44.79035" lon="-0.253">
        <ele>36</ele>
      </trkpt>
      <trkpt lat="44.79033" lon="-0.2528">
        <ele>35.1</ele>
      </trkpt>
      <trkpt lat="44.79029" lon="-0.25251">
        <ele>34</ele>
      </trkpt>
      <trkpt lat="44.79021" lon="-0.25203">
        <ele>33</ele>
      </trkpt>
      <trkpt lat="44.79016" lon="-0.25178">
        <ele>33</ele>
      </trkpt>
      <trkpt lat="44.79012" lon="-0.25155">
        <ele>33</ele>
      </trkpt>
      <trkpt lat="44.79004" lon="-0.25111">
        <ele>34</ele>
      </trkpt>
      <trkpt lat="44.78992" lon="-0.25047">
        <ele>40.7</ele>
      </trkpt>
      <trkpt lat="44.78989" lon="-0.25034">
        <ele>41.4</ele>
      </trkpt>
      <trkpt lat="44.78989" lon="-0.25031">
        <ele>41.7</ele>
      </trkpt>
      <trkpt lat="44.78987" lon="-0.25023">
        <ele>42.3</ele>
      </trkpt>
      <trkpt lat="44.78985" lon="-0.25017">
        <ele>42.9</ele>
      </trkpt>
      <trkpt lat="44.78983" lon="-0.25005">
        <ele>44.6</ele>
      </trkpt>
      <trkpt lat="44.78978" lon="-0.24986">
        <ele>46.2</ele>
      </trkpt>
      <trkpt lat="44.78967" lon="-0.24955">
        <ele>46.4</ele>
      </trkpt>
      <trkpt lat="44.7896" lon="-0.24939">
        <ele>46.4</ele>
      </trkpt>
      <trkpt lat="44.78947" lon="-0.24909">
        <ele>47.6</ele>
      </trkpt>
      <trkpt lat="44.78934" lon="-0.24886">
        <ele>48.8</ele>
      </trkpt>
      <trkpt lat="44.78921" lon="-0.24862">
        <ele>49.3</ele>
      </trkpt>
      <trkpt lat="44.78907" lon="-0.24838">
        <ele>51.2</ele>
      </trkpt>
      <trkpt lat="44.78886" lon="-0.24801">
        <ele>52.4</ele>
      </trkpt>
      <trkpt lat="44.78863" lon="-0.24751">
        <ele>55</ele>
      </trkpt>
      <trkpt lat="44.7885" lon="-0.24717">
        <ele>54.8</ele>
      </trkpt>
      <trkpt lat="44.78841" lon="-0.24688">
        <ele>53.9</ele>
      </trkpt>
      <trkpt lat="44.78835" lon="-0.24655">
        <ele>53.2</ele>
      </trkpt>
      <trkpt lat="44.78831" lon="-0.24625">
        <ele>52.6</ele>
      </trkpt>
      <trkpt lat="44.7883" lon="-0.24605">
        <ele>52.4</ele>
      </trkpt>
      <trkpt lat="44.78829" lon="-0.24591">
        <ele>52.2</ele>
      </trkpt>
      <trkpt lat="44.78829" lon="-0.24578">
        <ele>52.2</ele>
      </trkpt>
      <trkpt lat="44.78828" lon="-0.24558">
        <ele>52</ele>
      </trkpt>
      <trkpt lat="44.78829" lon="-0.24543">
        <ele>52.2</ele>
      </trkpt>
      <trkpt lat="44.78831" lon="-0.24513">
        <ele>52.6</ele>
      </trkpt>
      <trkpt lat="44.78835" lon="-0.24443">
        <ele>53.2</ele>
      </trkpt>
      <trkpt lat="44.7884" lon="-0.24368">
        <ele>53.7</ele>
      </trkpt>
      <trkpt lat="44.78844" lon="-0.24311">
        <ele>53.5</ele>
      </trkpt>
      <trkpt lat="44.78848" lon="-0.24248">
        <ele>54.6</ele>
      </trkpt>
      <trkpt lat="44.78851" lon="-0.24197">
        <ele>55.6</ele>
      </trkpt>
      <trkpt lat="44.78857" lon="-0.2411">
        <ele>56.9</ele>
      </trkpt>
      <trkpt lat="44.7886" lon="-0.24069">
        <ele>58</ele>
      </trkpt>
      <trkpt lat="44.78862" lon="-0.24036">
        <ele>58</ele>
      </trkpt>
      <trkpt lat="44.78865" lon="-0.24004">
        <ele>58.3</ele>
      </trkpt>
      <trkpt lat="44.78868" lon="-0.23982">
        <ele>59</ele>
      </trkpt>
      <trkpt lat="44.78871" lon="-0.23959">
        <ele>59.4</ele>
      </trkpt>
      <trkpt lat="44.78876" lon="-0.23935">
        <ele>59.5</ele>
      </trkpt>
      <trkpt lat="44.78882" lon="-0.23904">
        <ele>59.3</ele>
      </trkpt>
      <trkpt lat="44.78888" lon="-0.2388">
        <ele>59</ele>
      </trkpt>
      <trkpt lat="44.78896" lon="-0.23844">
        <ele>59.8</ele>
      </trkpt>
      <trkpt lat="44.78909" lon="-0.23789">
        <ele>60.4</ele>
      </trkpt>
      <trkpt lat="44.78917" lon="-0.23754">
        <ele>61</ele>
      </trkpt>
      <trkpt lat="44.78929" lon="-0.23705">
        <ele>61.8</ele>
      </trkpt>
      <trkpt lat="44.78941" lon="-0.23653">
        <ele>62</ele>
      </trkpt>
      <trkpt lat="44.78964" lon="-0.23559">
        <ele>63</ele>
      </trkpt>
      <trkpt lat="44.78975" lon="-0.23515">
        <ele>64</ele>
      </trkpt>
      <trkpt lat="44.78993" lon="-0.23436">
        <ele>66.1</ele>
      </trkpt>
      <trkpt lat="44.79004" lon="-0.23391">
        <ele>66.6</ele>
      </trkpt>
      <trkpt lat="44.79018" lon="-0.23328">
        <ele>65.8</ele>
      </trkpt>
      <trkpt lat="44.79021" lon="-0.23317">
        <ele>65.9</ele>
      </trkpt>
      <trkpt lat="44.79039" lon="-0.23241">
        <ele>66</ele>
      </trkpt>
      <trkpt lat="44.79069" lon="-0.23111">
        <ele>68</ele>
      </trkpt>
      <trkpt lat="44.79081" lon="-0.23061">
        <ele>69.7</ele>
      </trkpt>
      <trkpt lat="44.79087" lon="-0.23037">
        <ele>70.1</ele>
      </trkpt>
      <trkpt lat="44.79108" lon="-0.22944">
        <ele>71.1</ele>
      </trkpt>
      <trkpt lat="44.79117" lon="-0.22904">
        <ele>71.9</ele>
      </trkpt>
      <trkpt lat="44.79126" lon="-0.22867">
        <ele>73.5</ele>
      </trkpt>
      <trkpt lat="44.79136" lon="-0.22823">
        <ele>74.5</ele>
      </trkpt>
      <trkpt lat="44.79141" lon="-0.22802">
        <ele>74</ele>
      </trkpt>
      <trkpt lat="44.79141" lon="-0.22797">
        <ele>73.8</ele>
      </trkpt>
      <trkpt lat="44.79141" lon="-0.22791">
        <ele>73.6</ele>
      </trkpt>
      <trkpt lat="44.7914" lon="-0.22787">
        <ele>73.4</ele>
      </trkpt>
      <trkpt lat="44.79138" lon="-0.2278">
        <ele>73.1</ele>
      </trkpt>
      <trkpt lat="44.79138" lon="-0.22777">
        <ele>73.1</ele>
      </trkpt>
      <trkpt lat="44.7914" lon="-0.22773">
        <ele>73.4</ele>
      </trkpt>
      <trkpt lat="44.79142" lon="-0.2277">
        <ele>73.6</ele>
      </trkpt>
      <trkpt lat="44.79146" lon="-0.22767">
        <ele>73.8</ele>
      </trkpt>
      <trkpt lat="44.79149" lon="-0.22762">
        <ele>74.1</ele>
      </trkpt>
      <trkpt lat="44.79152" lon="-0.22756">
        <ele>74.3</ele>
      </trkpt>
      <trkpt lat="44.79155" lon="-0.22742">
        <ele>75</ele>
      </trkpt>
      <trkpt lat="44.79164" lon="-0.22696">
        <ele>75.3</ele>
      </trkpt>
      <trkpt lat="44.79168" lon="-0.22665">
        <ele>75.1</ele>
      </trkpt>
      <trkpt lat="44.79171" lon="-0.22631">
        <ele>75.6</ele>
      </trkpt>
      <trkpt lat="44.79173" lon="-0.22597">
        <ele>76.9</ele>
      </trkpt>
      <trkpt lat="44.79174" lon="-0.22568">
        <ele>76.5</ele>
      </trkpt>
      <trkpt lat="44.79173" lon="-0.22545">
        <ele>75.6</ele>
      </trkpt>
      <trkpt lat="44.79172" lon="-0.2252">
        <ele>75.4</ele>
      </trkpt>
      <trkpt lat="44.79167" lon="-0.22462">
        <ele>76</ele>
      </trkpt>
      <trkpt lat="44.79161" lon="-0.22412">
        <ele>75.7</ele>
      </trkpt>
      <trkpt lat="44.79153" lon="-0.22348">
        <ele>74</ele>
      </trkpt>
      <trkpt lat="44.79142" lon="-0.22268">
        <ele>76.9</ele>
      </trkpt>
      <trkpt lat="44.79134" lon="-0.22199">
        <ele>78</ele>
      </trkpt>
      <trkpt lat="44.79128" lon="-0.22143">
        <ele>78</ele>
      </trkpt>
      <trkpt lat="44.79123" lon="-0.221">
        <ele>77.7</ele>
      </trkpt>
      <trkpt lat="44.79116" lon="-0.22068">
        <ele>78</ele>
      </trkpt>
      <trkpt lat="44.79106" lon="-0.22031">
        <ele>78</ele>
      </trkpt>
      <trkpt lat="44.79094" lon="-0.21995">
        <ele>79.1</ele>
      </trkpt>
      <trkpt lat="44.79083" lon="-0.21967">
        <ele>80.2</ele>
      </trkpt>
      <trkpt lat="44.79069" lon="-0.21936">
        <ele>81.5</ele>
      </trkpt>
      <trkpt lat="44.79057" lon="-0.2191">
        <ele>81.9</ele>
      </trkpt>
      <trkpt lat="44.7904" lon="-0.21879">
        <ele>82</ele>
      </trkpt>
      <trkpt lat="44.79018" lon="-0.21839">
        <ele>82</ele>
      </trkpt>
      <trkpt lat="44.7893" lon="-0.21686">
        <ele>76.7</ele>
      </trkpt>
      <trkpt lat="44.78889" lon="-0.21612">
        <ele>74</ele>
      </trkpt>
      <trkpt lat="44.78899" lon="-0.21605">
        <ele>74.4</ele>
      </trkpt>
      <trkpt lat="44.78906" lon="-0.21602">
        <ele>74.8</ele>
      </trkpt>
      <trkpt lat="44.78911" lon="-0.21601">
        <ele>75.1</ele>
      </trkpt>
      <trkpt lat="44.78917" lon="-0.216">
        <ele>75.4</ele>
      </trkpt>
      <trkpt lat="44.79033" lon="-0.21602">
        <ele>79.8</ele>
      </trkpt>
      <trkpt lat="44.79043" lon="-0.21601">
        <ele>80.3</ele>
      </trkpt>
      <trkpt lat="44.79052" lon="-0.216">
        <ele>80.7</ele>
      </trkpt>
      <trkpt lat="44.79066" lon="-0.21598">
        <ele>81</ele>
      </trkpt>
      <trkpt lat="44.79104" lon="-0.21684">
        <ele>80.4</ele>
      </trkpt>
      <trkpt lat="44.79133" lon="-0.21751">
        <ele>80.2</ele>
      </trkpt>
      <trkpt lat="44.79141" lon="-0.21775">
        <ele>79.9</ele>
      </trkpt>
      <trkpt lat="44.79143" lon="-0.21786">
        <ele>79.9</ele>
      </trkpt>
      <trkpt lat="44.79145" lon="-0.218">
        <ele>79.8</ele>
      </trkpt>
      <trkpt lat="44.79146" lon="-0.21932">
        <ele>78.2</ele>
      </trkpt>
      <trkpt lat="44.79148" lon="-0.2201">
        <ele>77.3</ele>
      </trkpt>
      <trkpt lat="44.79152" lon="-0.22067">
        <ele>76.8</ele>
      </trkpt>
      <trkpt lat="44.79162" lon="-0.22142">
        <ele>77.2</ele>
      </trkpt>
      <trkpt lat="44.79164" lon="-0.2216">
        <ele>77.1</ele>
      </trkpt>
      <trkpt lat="44.79163" lon="-0.22179">
        <ele>77.1</ele>
      </trkpt>
      <trkpt lat="44.79161" lon="-0.2222">
        <ele>77.2</ele>
      </trkpt>
      <trkpt lat="44.79159" lon="-0.22253">
        <ele>76.8</ele>
      </trkpt>
      <trkpt lat="44.79157" lon="-0.22293">
        <ele>75</ele>
      </trkpt>
      <trkpt lat="44.79158" lon="-0.22332">
        <ele>73.7</ele>
      </trkpt>
      <trkpt lat="44.79163" lon="-0.22391">
        <ele>75.2</ele>
      </trkpt>
      <trkpt lat="44.79177" lon="-0.22525">
        <ele>74.8</ele>
      </trkpt>
      <trkpt lat="44.7918" lon="-0.22543">
        <ele>75.1</ele>
      </trkpt>
      <trkpt lat="44.79182" lon="-0.22552">
        <ele>75.3</ele>
      </trkpt>
      <trkpt lat="44.79184" lon="-0.22557">
        <ele>75.4</ele>
      </trkpt>
      <trkpt lat="44.79189" lon="-0.22572">
        <ele>75.9</ele>
      </trkpt>
      <trkpt lat="44.79198" lon="-0.22588">
        <ele>76</ele>
      </trkpt>
      <trkpt lat="44.79206" lon="-0.22602">
        <ele>76</ele>
      </trkpt>
      <trkpt lat="44.79211" lon="-0.22615">
        <ele>75.8</ele>
      </trkpt>
      <trkpt lat="44.79216" lon="-0.22628">
        <ele>75.4</ele>
      </trkpt>
      <trkpt lat="44.79222" lon="-0.2265">
        <ele>74.6</ele>
      </trkpt>
      <trkpt lat="44.79229" lon="-0.22672">
        <ele>73.8</ele>
      </trkpt>
      <trkpt lat="44.79237" lon="-0.22691">
        <ele>73.5</ele>
      </trkpt>
      <trkpt lat="44.79239" lon="-0.22705">
        <ele>73.8</ele>
      </trkpt>
      <trkpt lat="44.79239" lon="-0.22711">
        <ele>74</ele>
      </trkpt>
      <trkpt lat="44.79242" lon="-0.22725">
        <ele>74.3</ele>
      </trkpt>
      <trkpt lat="44.79253" lon="-0.2275">
        <ele>73.8</ele>
      </trkpt>
      <trkpt lat="44.79273" lon="-0.22787">
        <ele>73.6</ele>
      </trkpt>
      <trkpt lat="44.79307" lon="-0.22852">
        <ele>73.6</ele>
      </trkpt>
      <trkpt lat="44.79354" lon="-0.22939">
        <ele>73.3</ele>
      </trkpt>
      <trkpt lat="44.79405" lon="-0.23032">
        <ele>73.4</ele>
      </trkpt>
      <trkpt lat="44.79441" lon="-0.231">
        <ele>73.1</ele>
      </trkpt>
      <trkpt lat="44.79463" lon="-0.23142">
        <ele>72.7</ele>
      </trkpt>
      <trkpt lat="44.79474" lon="-0.23164">
        <ele>72.8</ele>
      </trkpt>
      <trkpt lat="44.79481" lon="-0.23181">
        <ele>73.2</ele>
      </trkpt>
      <trkpt lat="44.79488" lon="-0.23201">
        <ele>73.4</ele>
      </trkpt>
      <trkpt lat="44.79507" lon="-0.23253">
        <ele>73</ele>
      </trkpt>
      <trkpt lat="44.79523" lon="-0.23297">
        <ele>72.2</ele>
      </trkpt>
      <trkpt lat="44.79535" lon="-0.2333">
        <ele>72.9</ele>
      </trkpt>
      <trkpt lat="44.79542" lon="-0.23351">
        <ele>73.3</ele>
      </trkpt>
      <trkpt lat="44.79546" lon="-0.23367">
        <ele>73.3</ele>
      </trkpt>
      <trkpt lat="44.79553" lon="-0.23395">
        <ele>72.9</ele>
      </trkpt>
      <trkpt lat="44.79558" lon="-0.2342">
        <ele>72.2</ele>
      </trkpt>
      <trkpt lat="44.79563" lon="-0.23444">
        <ele>73.3</ele>
      </trkpt>
      <trkpt lat="44.79564" lon="-0.23446">
        <ele>73.3</ele>
      </trkpt>
      <trkpt lat="44.79568" lon="-0.23466">
        <ele>73.9</ele>
      </trkpt>
      <trkpt lat="44.79573" lon="-0.23496">
        <ele>74.3</ele>
      </trkpt>
      <trkpt lat="44.79579" lon="-0.23538">
        <ele>74.1</ele>
      </trkpt>
      <trkpt lat="44.79582" lon="-0.23563">
        <ele>73.7</ele>
      </trkpt>
      <trkpt lat="44.79586" lon="-0.23577">
        <ele>73.2</ele>
      </trkpt>
      <trkpt lat="44.7959" lon="-0.23588">
        <ele>73</ele>
      </trkpt>
      <trkpt lat="44.79594" lon="-0.23598">
        <ele>73</ele>
      </trkpt>
      <trkpt lat="44.79599" lon="-0.23607">
        <ele>73</ele>
      </trkpt>
      <trkpt lat="44.79603" lon="-0.23616">
        <ele>72.9</ele>
      </trkpt>
      <trkpt lat="44.79621" lon="-0.23648">
        <ele>71.9</ele>
      </trkpt>
      <trkpt lat="44.79654" lon="-0.23704">
        <ele>70.8</ele>
      </trkpt>
      <trkpt lat="44.79673" lon="-0.23738">
        <ele>70.1</ele>
      </trkpt>
      <trkpt lat="44.79682" lon="-0.23756">
        <ele>69.9</ele>
      </trkpt>
      <trkpt lat="44.79688" lon="-0.23768">
        <ele>69.5</ele>
      </trkpt>
      <trkpt lat="44.79692" lon="-0.23782">
        <ele>68.9</ele>
      </trkpt>
      <trkpt lat="44.79695" lon="-0.2379">
        <ele>68.6</ele>
      </trkpt>
      <trkpt lat="44.79702" lon="-0.23813">
        <ele>68.2</ele>
      </trkpt>
      <trkpt lat="44.79717" lon="-0.23867">
        <ele>68</ele>
      </trkpt>
      <trkpt lat="44.79734" lon="-0.23927">
        <ele>67.4</ele>
      </trkpt>
      <trkpt lat="44.79746" lon="-0.23978">
        <ele>66.9</ele>
      </trkpt>
      <trkpt lat="44.7976" lon="-0.24041">
        <ele>67.4</ele>
      </trkpt>
      <trkpt lat="44.79769" lon="-0.24072">
        <ele>67.7</ele>
      </trkpt>
      <trkpt lat="44.7978" lon="-0.24104">
        <ele>68.1</ele>
      </trkpt>
      <trkpt lat="44.79784" lon="-0.24115">
        <ele>68.2</ele>
      </trkpt>
      <trkpt lat="44.79787" lon="-0.24126">
        <ele>68.2</ele>
      </trkpt>
      <trkpt lat="44.7979" lon="-0.24141">
        <ele>68</ele>
      </trkpt>
      <trkpt lat="44.79798" lon="-0.24178">
        <ele>67.6</ele>
      </trkpt>
      <trkpt lat="44.79798" lon="-0.24182">
        <ele>67.6</ele>
      </trkpt>
      <trkpt lat="44.79801" lon="-0.24199">
        <ele>67.5</ele>
      </trkpt>
      <trkpt lat="44.79802" lon="-0.24217">
        <ele>66.9</ele>
      </trkpt>
      <trkpt lat="44.79802" lon="-0.24233">
        <ele>66.7</ele>
      </trkpt>
      <trkpt lat="44.79803" lon="-0.24251">
        <ele>66.7</ele>
      </trkpt>
      <trkpt lat="44.79802" lon="-0.2427">
        <ele>65.9</ele>
      </trkpt>
      <trkpt lat="44.79802" lon="-0.24295">
        <ele>65</ele>
      </trkpt>
      <trkpt lat="44.79803" lon="-0.24314">
        <ele>64.7</ele>
      </trkpt>
      <trkpt lat="44.79803" lon="-0.24329">
        <ele>64.6</ele>
      </trkpt>
      <trkpt lat="44.79808" lon="-0.24382">
        <ele>64.4</ele>
      </trkpt>
      <trkpt lat="44.79808" lon="-0.24396">
        <ele>63.9</ele>
      </trkpt>
      <trkpt lat="44.79808" lon="-0.24409">
        <ele>63.5</ele>
      </trkpt>
      <trkpt lat="44.79806" lon="-0.24417">
        <ele>63</ele>
      </trkpt>
      <trkpt lat="44.79804" lon="-0.24427">
        <ele>62.9</ele>
      </trkpt>
      <trkpt lat="44.79797" lon="-0.24451">
        <ele>62.4</ele>
      </trkpt>
      <trkpt lat="44.79783" lon="-0.24494">
        <ele>61.2</ele>
      </trkpt>
      <trkpt lat="44.79775" lon="-0.24518">
        <ele>61</ele>
      </trkpt>
      <trkpt lat="44.79772" lon="-0.24532">
        <ele>61</ele>
      </trkpt>
      <trkpt lat="44.79771" lon="-0.24542">
        <ele>61</ele>
      </trkpt>
      <trkpt lat="44.79769" lon="-0.24552">
        <ele>61</ele>
      </trkpt>
      <trkpt lat="44.79768" lon="-0.24577">
        <ele>60.5</ele>
      </trkpt>
      <trkpt lat="44.79765" lon="-0.24632">
        <ele>59.2</ele>
      </trkpt>
      <trkpt lat="44.79764" lon="-0.24668">
        <ele>58.4</ele>
      </trkpt>
      <trkpt lat="44.79765" lon="-0.24682">
        <ele>57.7</ele>
      </trkpt>
      <trkpt lat="44.79766" lon="-0.247">
        <ele>56.7</ele>
      </trkpt>
      <trkpt lat="44.79767" lon="-0.24715">
        <ele>56</ele>
      </trkpt>
      <trkpt lat="44.79767" lon="-0.24739">
        <ele>54.8</ele>
      </trkpt>
      <trkpt lat="44.79767" lon="-0.24749">
        <ele>54.3</ele>
      </trkpt>
      <trkpt lat="44.79766" lon="-0.24759">
        <ele>53.5</ele>
      </trkpt>
      <trkpt lat="44.79764" lon="-0.24769">
        <ele>52.6</ele>
      </trkpt>
      <trkpt lat="44.79761" lon="-0.24782">
        <ele>51.3</ele>
      </trkpt>
      <trkpt lat="44.79769" lon="-0.24789">
        <ele>51.2</ele>
      </trkpt>
      <trkpt lat="44.79776" lon="-0.24794">
        <ele>51.1</ele>
      </trkpt>
      <trkpt lat="44.79781" lon="-0.24797">
        <ele>50.8</ele>
      </trkpt>
      <trkpt lat="44.79786" lon="-0.24799">
        <ele>50.4</ele>
      </trkpt>
      <trkpt lat="44.79798" lon="-0.24801">
        <ele>49.8</ele>
      </trkpt>
      <trkpt lat="44.79814" lon="-0.24805">
        <ele>49</ele>
      </trkpt>
      <trkpt lat="44.79821" lon="-0.24806">
        <ele>49</ele>
      </trkpt>
      <trkpt lat="44.79828" lon="-0.24808">
        <ele>48.8</ele>
      </trkpt>
      <trkpt lat="44.79834" lon="-0.24811">
        <ele>48.6</ele>
      </trkpt>
      <trkpt lat="44.79839" lon="-0.24815">
        <ele>48.6</ele>
      </trkpt>
      <trkpt lat="44.79852" lon="-0.24827">
        <ele>48.6</ele>
      </trkpt>
      <trkpt lat="44.79871" lon="-0.24847">
        <ele>48.9</ele>
      </trkpt>
      <trkpt lat="44.7989" lon="-0.24867">
        <ele>48.9</ele>
      </trkpt>
      <trkpt lat="44.79903" lon="-0.24878">
        <ele>49.3</ele>
      </trkpt>
      <trkpt lat="44.79915" lon="-0.24887">
        <ele>49.1</ele>
      </trkpt>
      <trkpt lat="44.79931" lon="-0.24896">
        <ele>48.9</ele>
      </trkpt>
      <trkpt lat="44.79947" lon="-0.24902">
        <ele>48.6</ele>
      </trkpt>
      <trkpt lat="44.79959" lon="-0.24906">
        <ele>48.2</ele>
      </trkpt>
      <trkpt lat="44.79967" lon="-0.24909">
        <ele>47.8</ele>
      </trkpt>
      <trkpt lat="44.79972" lon="-0.24911">
        <ele>47.6</ele>
      </trkpt>
      <trkpt lat="44.79976" lon="-0.24918">
        <ele>46.9</ele>
      </trkpt>
      <trkpt lat="44.79969" lon="-0.2492">
        <ele>46.9</ele>
      </trkpt>
      <trkpt lat="44.79955" lon="-0.24928">
        <ele>46.6</ele>
      </trkpt>
      <trkpt lat="44.79929" lon="-0.24943">
        <ele>45.5</ele>
      </trkpt>
    </trkseg>
  </trk>
  <trk>
    <name><![CDATA[randogps33-933]]></name>
    <extensions>
      <line xmlns="http://www.topografix.com/GPX/gpx_style/0/2">
        <color>FF0000</color>
        <width>4</width>
      </line>
    </extensions>
    <trkseg>
      <trkpt lat="44.87556" lon="-0.13393">
        <ele>22</ele>
        <time>2020-06-26T05:55:52Z</time>
      </trkpt>
      <trkpt lat="44.87583" lon="-0.13454">
        <ele>23</ele>
        <time>2020-06-26T05:57:00Z</time>
      </trkpt>
      <trkpt lat="44.87594" lon="-0.13516">
        <ele>23</ele>
        <time>2020-06-26T05:58:00Z</time>
      </trkpt>
      <trkpt lat="44.87598" lon="-0.13542">
        <ele>23</ele>
        <time>2020-06-26T05:58:26Z</time>
      </trkpt>
      <trkpt lat="44.87594" lon="-0.13569">
        <ele>23</ele>
        <time>2020-06-26T05:58:52Z</time>
      </trkpt>
      <trkpt lat="44.87604" lon="-0.13631">
        <ele>23</ele>
        <time>2020-06-26T05:59:52Z</time>
      </trkpt>
      <trkpt lat="44.87618" lon="-0.13691">
        <ele>23</ele>
        <time>2020-06-26T06:00:52Z</time>
      </trkpt>
      <trkpt lat="44.87635" lon="-0.1375">
        <ele>21</ele>
        <time>2020-06-26T06:01:52Z</time>
      </trkpt>
      <trkpt lat="44.8767" lon="-0.13869">
        <ele>21</ele>
        <time>2020-06-26T06:03:54Z</time>
      </trkpt>
      <trkpt lat="44.87702" lon="-0.13897">
        <ele>21</ele>
        <time>2020-06-26T06:04:44Z</time>
      </trkpt>
      <trkpt lat="44.87745" lon="-0.13873">
        <ele>22</ele>
        <time>2020-06-26T06:05:46Z</time>
      </trkpt>
      <trkpt lat="44.87789" lon="-0.13859">
        <ele>23</ele>
        <time>2020-06-26T06:06:46Z</time>
      </trkpt>
      <trkpt lat="44.87835" lon="-0.1385">
        <ele>24</ele>
        <time>2020-06-26T06:07:48Z</time>
      </trkpt>
      <trkpt lat="44.87924" lon="-0.13827">
        <ele>29</ele>
        <time>2020-06-26T06:09:48Z</time>
      </trkpt>
      <trkpt lat="44.87968" lon="-0.13824">
        <ele>33</ele>
        <time>2020-06-26T06:10:47Z</time>
      </trkpt>
      <trkpt lat="44.87968" lon="-0.13786">
        <ele>32</ele>
        <time>2020-06-26T06:11:23Z</time>
      </trkpt>
      <trkpt lat="44.87964" lon="-0.13722">
        <ele>31</ele>
        <time>2020-06-26T06:12:24Z</time>
      </trkpt>
      <trkpt lat="44.87948" lon="-0.13586">
        <ele>29</ele>
        <time>2020-06-26T06:14:34Z</time>
      </trkpt>
      <trkpt lat="44.87942" lon="-0.1354">
        <ele>29</ele>
        <time>2020-06-26T06:15:19Z</time>
      </trkpt>
      <trkpt lat="44.87996" lon="-0.13527">
        <ele>32</ele>
        <time>2020-06-26T06:16:32Z</time>
      </trkpt>
      <trkpt lat="44.88033" lon="-0.13505">
        <ele>37</ele>
        <time>2020-06-26T06:17:25Z</time>
      </trkpt>
      <trkpt lat="44.88046" lon="-0.13444">
        <ele>37</ele>
        <time>2020-06-26T06:18:25Z</time>
      </trkpt>
      <trkpt lat="44.88056" lon="-0.13384">
        <ele>37</ele>
        <time>2020-06-26T06:19:24Z</time>
      </trkpt>
      <trkpt lat="44.88067" lon="-0.1332">
        <ele>38</ele>
        <time>2020-06-26T06:20:26Z</time>
      </trkpt>
      <trkpt lat="44.88108" lon="-0.13319">
        <ele>41</ele>
        <time>2020-06-26T06:21:21Z</time>
      </trkpt>
      <trkpt lat="44.88129" lon="-0.13315">
        <ele>44</ele>
        <time>2020-06-26T06:21:49Z</time>
      </trkpt>
      <trkpt lat="44.88165" lon="-0.13329">
        <ele>48</ele>
        <time>2020-06-26T06:22:39Z</time>
      </trkpt>
      <trkpt lat="44.88163" lon="-0.13347">
        <ele>49</ele>
        <time>2020-06-26T06:22:56Z</time>
      </trkpt>
      <trkpt lat="44.88145" lon="-0.13405">
        <ele>50</ele>
        <time>2020-06-26T06:23:56Z</time>
      </trkpt>
      <trkpt lat="44.88125" lon="-0.1347">
        <ele>51</ele>
        <time>2020-06-26T06:25:03Z</time>
      </trkpt>
      <trkpt lat="44.8814" lon="-0.13489">
        <ele>56</ele>
        <time>2020-06-26T06:25:30Z</time>
      </trkpt>
      <trkpt lat="44.88144" lon="-0.13548">
        <ele>59</ele>
        <time>2020-06-26T06:26:26Z</time>
      </trkpt>
      <trkpt lat="44.88164" lon="-0.1357">
        <ele>64</ele>
        <time>2020-06-26T06:27:00Z</time>
      </trkpt>
      <trkpt lat="44.88188" lon="-0.13588">
        <ele>68</ele>
        <time>2020-06-26T06:27:36Z</time>
      </trkpt>
      <trkpt lat="44.88205" lon="-0.13611">
        <ele>68</ele>
        <time>2020-06-26T06:28:07Z</time>
      </trkpt>
      <trkpt lat="44.88232" lon="-0.13625">
        <ele>72</ele>
        <time>2020-06-26T06:28:46Z</time>
      </trkpt>
      <trkpt lat="44.88251" lon="-0.1364">
        <ele>74</ele>
        <time>2020-06-26T06:29:15Z</time>
      </trkpt>
      <trkpt lat="44.88258" lon="-0.13703">
        <ele>71</ele>
        <time>2020-06-26T06:30:15Z</time>
      </trkpt>
      <trkpt lat="44.88257" lon="-0.13714">
        <ele>69</ele>
        <time>2020-06-26T06:30:26Z</time>
      </trkpt>
      <trkpt lat="44.88281" lon="-0.13713">
        <ele>75</ele>
        <time>2020-06-26T06:30:58Z</time>
      </trkpt>
      <trkpt lat="44.88303" lon="-0.13765">
        <ele>77</ele>
        <time>2020-06-26T06:31:55Z</time>
      </trkpt>
      <trkpt lat="44.88306" lon="-0.13787">
        <ele>78</ele>
        <time>2020-06-26T06:32:16Z</time>
      </trkpt>
      <trkpt lat="44.88306" lon="-0.13798">
        <ele>78</ele>
        <time>2020-06-26T06:32:27Z</time>
      </trkpt>
      <trkpt lat="44.88311" lon="-0.13852">
        <ele>80</ele>
        <time>2020-06-26T06:33:18Z</time>
      </trkpt>
      <trkpt lat="44.88324" lon="-0.13925">
        <ele>84</ele>
        <time>2020-06-26T06:34:29Z</time>
      </trkpt>
      <trkpt lat="44.88304" lon="-0.13927">
        <ele>81</ele>
        <time>2020-06-26T06:34:56Z</time>
      </trkpt>
      <trkpt lat="44.88292" lon="-0.13934">
        <ele>80</ele>
        <time>2020-06-26T06:35:13Z</time>
      </trkpt>
      <trkpt lat="44.88239" lon="-0.13996">
        <ele>78</ele>
        <time>2020-06-26T06:36:45Z</time>
      </trkpt>
      <trkpt lat="44.88221" lon="-0.14014">
        <ele>78</ele>
        <time>2020-06-26T06:37:15Z</time>
      </trkpt>
      <trkpt lat="44.88189" lon="-0.14058">
        <ele>79</ele>
        <time>2020-06-26T06:38:14Z</time>
      </trkpt>
      <trkpt lat="44.88189" lon="-0.14093">
        <ele>81</ele>
        <time>2020-06-26T06:38:47Z</time>
      </trkpt>
      <trkpt lat="44.88232" lon="-0.14118">
        <ele>87</ele>
        <time>2020-06-26T06:39:49Z</time>
      </trkpt>
      <trkpt lat="44.88246" lon="-0.14126">
        <ele>88</ele>
        <time>2020-06-26T06:40:10Z</time>
      </trkpt>
      <trkpt lat="44.8829" lon="-0.14121">
        <ele>90</ele>
        <time>2020-06-26T06:41:08Z</time>
      </trkpt>
      <trkpt lat="44.88422" lon="-0.14072">
        <ele>93</ele>
        <time>2020-06-26T06:44:11Z</time>
      </trkpt>
      <trkpt lat="44.88465" lon="-0.14065">
        <ele>93</ele>
        <time>2020-06-26T06:45:08Z</time>
      </trkpt>
      <trkpt lat="44.8847" lon="-0.14107">
        <ele>93</ele>
        <time>2020-06-26T06:45:49Z</time>
      </trkpt>
      <trkpt lat="44.8848" lon="-0.14236">
        <ele>92</ele>
        <time>2020-06-26T06:47:51Z</time>
      </trkpt>
      <trkpt lat="44.88486" lon="-0.14264">
        <ele>91</ele>
        <time>2020-06-26T06:48:19Z</time>
      </trkpt>
      <trkpt lat="44.88503" lon="-0.14284">
        <ele>91</ele>
        <time>2020-06-26T06:48:48Z</time>
      </trkpt>
      <trkpt lat="44.88549" lon="-0.14278">
        <ele>92</ele>
        <time>2020-06-26T06:49:50Z</time>
      </trkpt>
      <trkpt lat="44.88559" lon="-0.14281">
        <ele>92</ele>
        <time>2020-06-26T06:50:04Z</time>
      </trkpt>
      <trkpt lat="44.88614" lon="-0.14284">
        <ele>94</ele>
        <time>2020-06-26T06:51:17Z</time>
      </trkpt>
      <trkpt lat="44.88609" lon="-0.14341">
        <ele>94</ele>
        <time>2020-06-26T06:52:12Z</time>
      </trkpt>
      <trkpt lat="44.8861" lon="-0.14404">
        <ele>93</ele>
        <time>2020-06-26T06:53:11Z</time>
      </trkpt>
      <trkpt lat="44.88634" lon="-0.14458">
        <ele>93</ele>
        <time>2020-06-26T06:54:11Z</time>
      </trkpt>
      <trkpt lat="44.88641" lon="-0.1452">
        <ele>93</ele>
        <time>2020-06-26T06:55:11Z</time>
      </trkpt>
      <trkpt lat="44.88649" lon="-0.14582">
        <ele>93</ele>
        <time>2020-06-26T06:56:10Z</time>
      </trkpt>
      <trkpt lat="44.88661" lon="-0.14619">
        <ele>95</ele>
        <time>2020-06-26T06:56:49Z</time>
      </trkpt>
      <trkpt lat="44.88688" lon="-0.14655">
        <ele>97</ele>
        <time>2020-06-26T06:57:38Z</time>
      </trkpt>
      <trkpt lat="44.88696" lon="-0.14719">
        <ele>97</ele>
        <time>2020-06-26T06:58:40Z</time>
      </trkpt>
      <trkpt lat="44.88706" lon="-0.14781">
        <ele>97</ele>
        <time>2020-06-26T06:59:40Z</time>
      </trkpt>
      <trkpt lat="44.88722" lon="-0.14853">
        <ele>95</ele>
        <time>2020-06-26T07:00:51Z</time>
      </trkpt>
      <trkpt lat="44.88739" lon="-0.149">
        <ele>93</ele>
        <time>2020-06-26T07:01:41Z</time>
      </trkpt>
      <trkpt lat="44.88746" lon="-0.14924">
        <ele>92</ele>
        <time>2020-06-26T07:02:06Z</time>
      </trkpt>
      <trkpt lat="44.88754" lon="-0.14941">
        <ele>92</ele>
        <time>2020-06-26T07:02:25Z</time>
      </trkpt>
      <trkpt lat="44.88748" lon="-0.14959">
        <ele>91</ele>
        <time>2020-06-26T07:02:44Z</time>
      </trkpt>
      <trkpt lat="44.887" lon="-0.14977">
        <ele>86</ele>
        <time>2020-06-26T07:03:50Z</time>
      </trkpt>
      <trkpt lat="44.88709" lon="-0.14991">
        <ele>86</ele>
        <time>2020-06-26T07:04:08Z</time>
      </trkpt>
      <trkpt lat="44.88752" lon="-0.15014">
        <ele>87</ele>
        <time>2020-06-26T07:05:09Z</time>
      </trkpt>
      <trkpt lat="44.88791" lon="-0.15025">
        <ele>86</ele>
        <time>2020-06-26T07:06:02Z</time>
      </trkpt>
      <trkpt lat="44.88754" lon="-0.15047">
        <ele>84</ele>
        <time>2020-06-26T07:06:56Z</time>
      </trkpt>
      <trkpt lat="44.88744" lon="-0.1511">
        <ele>76</ele>
        <time>2020-06-26T07:07:57Z</time>
      </trkpt>
      <trkpt lat="44.88753" lon="-0.15117">
        <ele>76</ele>
        <time>2020-06-26T07:08:11Z</time>
      </trkpt>
      <trkpt lat="44.88797" lon="-0.15126">
        <ele>77</ele>
        <time>2020-06-26T07:09:10Z</time>
      </trkpt>
      <trkpt lat="44.88815" lon="-0.15146">
        <ele>76</ele>
        <time>2020-06-26T07:09:41Z</time>
      </trkpt>
      <trkpt lat="44.88815" lon="-0.15165">
        <ele>75</ele>
        <time>2020-06-26T07:09:59Z</time>
      </trkpt>
      <trkpt lat="44.88815" lon="-0.15186">
        <ele>71</ele>
        <time>2020-06-26T07:10:18Z</time>
      </trkpt>
      <trkpt lat="44.8886" lon="-0.15189">
        <ele>71</ele>
        <time>2020-06-26T07:11:19Z</time>
      </trkpt>
      <trkpt lat="44.88904" lon="-0.15182">
        <ele>71</ele>
        <time>2020-06-26T07:12:18Z</time>
      </trkpt>
      <trkpt lat="44.88949" lon="-0.15181">
        <ele>67</ele>
        <time>2020-06-26T07:13:18Z</time>
      </trkpt>
      <trkpt lat="44.88983" lon="-0.15142">
        <ele>67</ele>
        <time>2020-06-26T07:14:16Z</time>
      </trkpt>
      <trkpt lat="44.89006" lon="-0.15087">
        <ele>69</ele>
        <time>2020-06-26T07:15:17Z</time>
      </trkpt>
      <trkpt lat="44.89014" lon="-0.15068">
        <ele>68</ele>
        <time>2020-06-26T07:15:37Z</time>
      </trkpt>
      <trkpt lat="44.89021" lon="-0.15039">
        <ele>68</ele>
        <time>2020-06-26T07:16:06Z</time>
      </trkpt>
      <trkpt lat="44.89043" lon="-0.14983">
        <ele>68</ele>
        <time>2020-06-26T07:17:07Z</time>
      </trkpt>
      <trkpt lat="44.89055" lon="-0.14928">
        <ele>70</ele>
        <time>2020-06-26T07:18:01Z</time>
      </trkpt>
      <trkpt lat="44.8907" lon="-0.14889">
        <ele>71</ele>
        <time>2020-06-26T07:18:43Z</time>
      </trkpt>
      <trkpt lat="44.89064" lon="-0.14934">
        <ele>68</ele>
        <time>2020-06-26T07:19:27Z</time>
      </trkpt>
      <trkpt lat="44.89083" lon="-0.14893">
        <ele>70</ele>
        <time>2020-06-26T07:20:13Z</time>
      </trkpt>
      <trkpt lat="44.89102" lon="-0.14895">
        <ele>67</ele>
        <time>2020-06-26T07:20:38Z</time>
      </trkpt>
      <trkpt lat="44.89126" lon="-0.14907">
        <ele>64</ele>
        <time>2020-06-26T07:21:12Z</time>
      </trkpt>
      <trkpt lat="44.8914" lon="-0.14922">
        <ele>61</ele>
        <time>2020-06-26T07:21:36Z</time>
      </trkpt>
      <trkpt lat="44.89135" lon="-0.14948">
        <ele>61</ele>
        <time>2020-06-26T07:22:01Z</time>
      </trkpt>
      <trkpt lat="44.89138" lon="-0.14975">
        <ele>60</ele>
        <time>2020-06-26T07:22:27Z</time>
      </trkpt>
      <trkpt lat="44.89159" lon="-0.15005">
        <ele>58</ele>
        <time>2020-06-26T07:23:07Z</time>
      </trkpt>
      <trkpt lat="44.89134" lon="-0.15048">
        <ele>59</ele>
        <time>2020-06-26T07:24:00Z</time>
      </trkpt>
      <trkpt lat="44.89129" lon="-0.15079">
        <ele>58</ele>
        <time>2020-06-26T07:24:30Z</time>
      </trkpt>
      <trkpt lat="44.89122" lon="-0.15141">
        <ele>57</ele>
        <time>2020-06-26T07:25:29Z</time>
      </trkpt>
      <trkpt lat="44.89113" lon="-0.15188">
        <ele>56</ele>
        <time>2020-06-26T07:26:15Z</time>
      </trkpt>
      <trkpt lat="44.89098" lon="-0.15218">
        <ele>55</ele>
        <time>2020-06-26T07:26:50Z</time>
      </trkpt>
      <trkpt lat="44.89083" lon="-0.1525">
        <ele>53</ele>
        <time>2020-06-26T07:27:26Z</time>
      </trkpt>
      <trkpt lat="44.89076" lon="-0.15277">
        <ele>53</ele>
        <time>2020-06-26T07:27:53Z</time>
      </trkpt>
      <trkpt lat="44.89074" lon="-0.153">
        <ele>53</ele>
        <time>2020-06-26T07:28:15Z</time>
      </trkpt>
      <trkpt lat="44.89072" lon="-0.15325">
        <ele>52</ele>
        <time>2020-06-26T07:28:39Z</time>
      </trkpt>
      <trkpt lat="44.89072" lon="-0.15357">
        <ele>52</ele>
        <time>2020-06-26T07:29:09Z</time>
      </trkpt>
      <trkpt lat="44.8909" lon="-0.15415">
        <ele>54</ele>
        <time>2020-06-26T07:30:09Z</time>
      </trkpt>
      <trkpt lat="44.89098" lon="-0.15424">
        <ele>55</ele>
        <time>2020-06-26T07:30:23Z</time>
      </trkpt>
      <trkpt lat="44.89146" lon="-0.15371">
        <ele>62</ele>
        <time>2020-06-26T07:31:44Z</time>
      </trkpt>
      <trkpt lat="44.8918" lon="-0.15328">
        <ele>67</ele>
        <time>2020-06-26T07:32:45Z</time>
      </trkpt>
      <trkpt lat="44.89187" lon="-0.15324">
        <ele>69</ele>
        <time>2020-06-26T07:32:55Z</time>
      </trkpt>
      <trkpt lat="44.89232" lon="-0.15323">
        <ele>77</ele>
        <time>2020-06-26T07:33:55Z</time>
      </trkpt>
      <trkpt lat="44.89238" lon="-0.15326">
        <ele>78</ele>
        <time>2020-06-26T07:34:03Z</time>
      </trkpt>
      <trkpt lat="44.89257" lon="-0.15277">
        <ele>79</ele>
        <time>2020-06-26T07:34:56Z</time>
      </trkpt>
      <trkpt lat="44.89264" lon="-0.15211">
        <ele>78</ele>
        <time>2020-06-26T07:35:59Z</time>
      </trkpt>
      <trkpt lat="44.89315" lon="-0.15231">
        <ele>84</ele>
        <time>2020-06-26T07:37:10Z</time>
      </trkpt>
      <trkpt lat="44.89357" lon="-0.15251">
        <ele>85</ele>
        <time>2020-06-26T07:38:09Z</time>
      </trkpt>
      <trkpt lat="44.89374" lon="-0.15261">
        <ele>85</ele>
        <time>2020-06-26T07:38:34Z</time>
      </trkpt>
      <trkpt lat="44.89384" lon="-0.15261">
        <ele>85</ele>
        <time>2020-06-26T07:38:47Z</time>
      </trkpt>
      <trkpt lat="44.89421" lon="-0.15271">
        <ele>84</ele>
        <time>2020-06-26T07:39:37Z</time>
      </trkpt>
      <trkpt lat="44.89447" lon="-0.1528">
        <ele>83</ele>
        <time>2020-06-26T07:40:13Z</time>
      </trkpt>
      <trkpt lat="44.89493" lon="-0.15283">
        <ele>83</ele>
        <time>2020-06-26T07:41:15Z</time>
      </trkpt>
      <trkpt lat="44.89504" lon="-0.15282">
        <ele>83</ele>
        <time>2020-06-26T07:41:29Z</time>
      </trkpt>
      <trkpt lat="44.89546" lon="-0.15306">
        <ele>81</ele>
        <time>2020-06-26T07:42:30Z</time>
      </trkpt>
      <trkpt lat="44.89567" lon="-0.15311">
        <ele>80</ele>
        <time>2020-06-26T07:42:58Z</time>
      </trkpt>
      <trkpt lat="44.89586" lon="-0.15254">
        <ele>79</ele>
        <time>2020-06-26T07:43:58Z</time>
      </trkpt>
      <trkpt lat="44.89608" lon="-0.15202">
        <ele>79</ele>
        <time>2020-06-26T07:44:55Z</time>
      </trkpt>
      <trkpt lat="44.89634" lon="-0.15134">
        <ele>79</ele>
        <time>2020-06-26T07:46:08Z</time>
      </trkpt>
      <trkpt lat="44.89659" lon="-0.15089">
        <ele>79</ele>
        <time>2020-06-26T07:47:02Z</time>
      </trkpt>
      <trkpt lat="44.89727" lon="-0.15062">
        <ele>76</ele>
        <time>2020-06-26T07:48:36Z</time>
      </trkpt>
      <trkpt lat="44.89756" lon="-0.15049">
        <ele>75</ele>
        <time>2020-06-26T07:49:17Z</time>
      </trkpt>
      <trkpt lat="44.89777" lon="-0.15037">
        <ele>75</ele>
        <time>2020-06-26T07:49:47Z</time>
      </trkpt>
      <trkpt lat="44.89787" lon="-0.15036">
        <ele>75</ele>
        <time>2020-06-26T07:50:01Z</time>
      </trkpt>
      <trkpt lat="44.89796" lon="-0.15029">
        <ele>75</ele>
        <time>2020-06-26T07:50:14Z</time>
      </trkpt>
      <trkpt lat="44.8983" lon="-0.15015">
        <ele>74</ele>
        <time>2020-06-26T07:51:02Z</time>
      </trkpt>
      <trkpt lat="44.89852" lon="-0.15006">
        <ele>73</ele>
        <time>2020-06-26T07:51:32Z</time>
      </trkpt>
      <trkpt lat="44.89896" lon="-0.14987">
        <ele>73</ele>
        <time>2020-06-26T07:52:33Z</time>
      </trkpt>
      <trkpt lat="44.89897" lon="-0.14986">
        <ele>73</ele>
        <time>2020-06-26T07:52:35Z</time>
      </trkpt>
      <trkpt lat="44.89941" lon="-0.14968">
        <ele>73</ele>
        <time>2020-06-26T07:53:36Z</time>
      </trkpt>
      <trkpt lat="44.89984" lon="-0.14949">
        <ele>73</ele>
        <time>2020-06-26T07:54:36Z</time>
      </trkpt>
      <trkpt lat="44.90024" lon="-0.14931">
        <ele>73</ele>
        <time>2020-06-26T07:55:32Z</time>
      </trkpt>
      <trkpt lat="44.90041" lon="-0.14922">
        <ele>73</ele>
        <time>2020-06-26T07:55:57Z</time>
      </trkpt>
      <trkpt lat="44.90085" lon="-0.14903">
        <ele>74</ele>
        <time>2020-06-26T07:56:58Z</time>
      </trkpt>
      <trkpt lat="44.90111" lon="-0.14893">
        <ele>75</ele>
        <time>2020-06-26T07:57:34Z</time>
      </trkpt>
      <trkpt lat="44.90088" lon="-0.14894">
        <ele>74</ele>
        <time>2020-06-26T07:58:05Z</time>
      </trkpt>
      <trkpt lat="44.90092" lon="-0.14882">
        <ele>75</ele>
        <time>2020-06-26T07:58:17Z</time>
      </trkpt>
      <trkpt lat="44.90107" lon="-0.14837">
        <ele>76</ele>
        <time>2020-06-26T07:59:04Z</time>
      </trkpt>
      <trkpt lat="44.90129" lon="-0.14818">
        <ele>76</ele>
        <time>2020-06-26T07:59:39Z</time>
      </trkpt>
      <trkpt lat="44.90144" lon="-0.14803">
        <ele>76</ele>
        <time>2020-06-26T08:00:03Z</time>
      </trkpt>
      <trkpt lat="44.90141" lon="-0.14794">
        <ele>76</ele>
        <time>2020-06-26T08:00:13Z</time>
      </trkpt>
      <trkpt lat="44.9011" lon="-0.14675">
        <ele>74</ele>
        <time>2020-06-26T08:02:12Z</time>
      </trkpt>
      <trkpt lat="44.90092" lon="-0.14615">
        <ele>75</ele>
        <time>2020-06-26T08:03:14Z</time>
      </trkpt>
      <trkpt lat="44.90073" lon="-0.14557">
        <ele>76</ele>
        <time>2020-06-26T08:04:14Z</time>
      </trkpt>
      <trkpt lat="44.90067" lon="-0.14549">
        <ele>76</ele>
        <time>2020-06-26T08:04:25Z</time>
      </trkpt>
      <trkpt lat="44.90064" lon="-0.14547">
        <ele>76</ele>
        <time>2020-06-26T08:04:30Z</time>
      </trkpt>
      <trkpt lat="44.90047" lon="-0.145">
        <ele>77</ele>
        <time>2020-06-26T08:05:20Z</time>
      </trkpt>
      <trkpt lat="44.90044" lon="-0.14499">
        <ele>77</ele>
        <time>2020-06-26T08:05:24Z</time>
      </trkpt>
      <trkpt lat="44.90038" lon="-0.14489">
        <ele>77</ele>
        <time>2020-06-26T08:05:36Z</time>
      </trkpt>
      <trkpt lat="44.90063" lon="-0.14448">
        <ele>76</ele>
        <time>2020-06-26T08:06:27Z</time>
      </trkpt>
      <trkpt lat="44.90095" lon="-0.14379">
        <ele>73</ele>
        <time>2020-06-26T08:07:45Z</time>
      </trkpt>
      <trkpt lat="44.90104" lon="-0.14337">
        <ele>71</ele>
        <time>2020-06-26T08:08:27Z</time>
      </trkpt>
      <trkpt lat="44.90081" lon="-0.14325">
        <ele>72</ele>
        <time>2020-06-26T08:09:00Z</time>
      </trkpt>
      <trkpt lat="44.90035" lon="-0.14329">
        <ele>74</ele>
        <time>2020-06-26T08:10:01Z</time>
      </trkpt>
      <trkpt lat="44.90035" lon="-0.14333">
        <ele>74</ele>
        <time>2020-06-26T08:10:05Z</time>
      </trkpt>
      <trkpt lat="44.90027" lon="-0.1433">
        <ele>75</ele>
        <time>2020-06-26T08:10:16Z</time>
      </trkpt>
      <trkpt lat="44.90013" lon="-0.14305">
        <ele>74</ele>
        <time>2020-06-26T08:10:46Z</time>
      </trkpt>
      <trkpt lat="44.9003" lon="-0.14263">
        <ele>71</ele>
        <time>2020-06-26T08:11:32Z</time>
      </trkpt>
      <trkpt lat="44.90022" lon="-0.1421">
        <ele>68</ele>
        <time>2020-06-26T08:12:23Z</time>
      </trkpt>
      <trkpt lat="44.90012" lon="-0.14165">
        <ele>67</ele>
        <time>2020-06-26T08:13:08Z</time>
      </trkpt>
      <trkpt lat="44.90004" lon="-0.14135">
        <ele>66</ele>
        <time>2020-06-26T08:13:38Z</time>
      </trkpt>
      <trkpt lat="44.89961" lon="-0.14138">
        <ele>68</ele>
        <time>2020-06-26T08:14:35Z</time>
      </trkpt>
      <trkpt lat="44.89917" lon="-0.14153">
        <ele>69</ele>
        <time>2020-06-26T08:15:36Z</time>
      </trkpt>
      <trkpt lat="44.89832" lon="-0.14193">
        <ele>79</ele>
        <time>2020-06-26T08:17:35Z</time>
      </trkpt>
      <trkpt lat="44.89817" lon="-0.14192">
        <ele>82</ele>
        <time>2020-06-26T08:17:55Z</time>
      </trkpt>
      <trkpt lat="44.89839" lon="-0.14135">
        <ele>79</ele>
        <time>2020-06-26T08:18:57Z</time>
      </trkpt>
      <trkpt lat="44.89848" lon="-0.1407">
        <ele>79</ele>
        <time>2020-06-26T08:19:59Z</time>
      </trkpt>
      <trkpt lat="44.89848" lon="-0.14063">
        <ele>78</ele>
        <time>2020-06-26T08:20:06Z</time>
      </trkpt>
      <trkpt lat="44.89846" lon="-0.14059">
        <ele>78</ele>
        <time>2020-06-26T08:20:10Z</time>
      </trkpt>
      <trkpt lat="44.89845" lon="-0.14037">
        <ele>78</ele>
        <time>2020-06-26T08:20:31Z</time>
      </trkpt>
      <trkpt lat="44.8984" lon="-0.14019">
        <ele>78</ele>
        <time>2020-06-26T08:20:50Z</time>
      </trkpt>
      <trkpt lat="44.8982" lon="-0.13962">
        <ele>80</ele>
        <time>2020-06-26T08:21:50Z</time>
      </trkpt>
      <trkpt lat="44.89797" lon="-0.13905">
        <ele>82</ele>
        <time>2020-06-26T08:22:52Z</time>
      </trkpt>
      <trkpt lat="44.89779" lon="-0.13872">
        <ele>83</ele>
        <time>2020-06-26T08:23:31Z</time>
      </trkpt>
      <trkpt lat="44.89762" lon="-0.1391">
        <ele>86</ele>
        <time>2020-06-26T08:24:14Z</time>
      </trkpt>
      <trkpt lat="44.89743" lon="-0.13931">
        <ele>89</ele>
        <time>2020-06-26T08:24:46Z</time>
      </trkpt>
      <trkpt lat="44.89717" lon="-0.13905">
        <ele>87</ele>
        <time>2020-06-26T08:25:28Z</time>
      </trkpt>
      <trkpt lat="44.89693" lon="-0.13849">
        <ele>86</ele>
        <time>2020-06-26T08:26:30Z</time>
      </trkpt>
      <trkpt lat="44.89672" lon="-0.13792">
        <ele>84</ele>
        <time>2020-06-26T08:27:31Z</time>
      </trkpt>
      <trkpt lat="44.8966" lon="-0.1373">
        <ele>80</ele>
        <time>2020-06-26T08:28:32Z</time>
      </trkpt>
      <trkpt lat="44.89653" lon="-0.1369">
        <ele>79</ele>
        <time>2020-06-26T08:29:11Z</time>
      </trkpt>
      <trkpt lat="44.89677" lon="-0.13635">
        <ele>77</ele>
        <time>2020-06-26T08:30:12Z</time>
      </trkpt>
      <trkpt lat="44.89688" lon="-0.13574">
        <ele>75</ele>
        <time>2020-06-26T08:31:11Z</time>
      </trkpt>
      <trkpt lat="44.89717" lon="-0.13523">
        <ele>74</ele>
        <time>2020-06-26T08:32:13Z</time>
      </trkpt>
      <trkpt lat="44.89754" lon="-0.13486">
        <ele>73</ele>
        <time>2020-06-26T08:33:14Z</time>
      </trkpt>
      <trkpt lat="44.89787" lon="-0.13441">
        <ele>71</ele>
        <time>2020-06-26T08:34:15Z</time>
      </trkpt>
      <trkpt lat="44.89811" lon="-0.13386">
        <ele>68</ele>
        <time>2020-06-26T08:35:16Z</time>
      </trkpt>
      <trkpt lat="44.89841" lon="-0.13337">
        <ele>64</ele>
        <time>2020-06-26T08:36:17Z</time>
      </trkpt>
      <trkpt lat="44.89874" lon="-0.13291">
        <ele>61</ele>
        <time>2020-06-26T08:37:19Z</time>
      </trkpt>
      <trkpt lat="44.89908" lon="-0.13246">
        <ele>59</ele>
        <time>2020-06-26T08:38:21Z</time>
      </trkpt>
      <trkpt lat="44.89944" lon="-0.13204">
        <ele>59</ele>
        <time>2020-06-26T08:39:23Z</time>
      </trkpt>
      <trkpt lat="44.8998" lon="-0.13165">
        <ele>59</ele>
        <time>2020-06-26T08:40:24Z</time>
      </trkpt>
      <trkpt lat="44.90018" lon="-0.13127">
        <ele>60</ele>
        <time>2020-06-26T08:41:26Z</time>
      </trkpt>
      <trkpt lat="44.9001" lon="-0.13069">
        <ele>60</ele>
        <time>2020-06-26T08:42:22Z</time>
      </trkpt>
      <trkpt lat="44.89995" lon="-0.13009">
        <ele>60</ele>
        <time>2020-06-26T08:43:22Z</time>
      </trkpt>
      <trkpt lat="44.89996" lon="-0.13008">
        <ele>60</ele>
        <time>2020-06-26T08:43:24Z</time>
      </trkpt>
      <trkpt lat="44.89997" lon="-0.13002">
        <ele>60</ele>
        <time>2020-06-26T08:43:30Z</time>
      </trkpt>
      <trkpt lat="44.89985" lon="-0.12961">
        <ele>59</ele>
        <time>2020-06-26T08:44:12Z</time>
      </trkpt>
      <trkpt lat="44.89984" lon="-0.12956">
        <ele>59</ele>
        <time>2020-06-26T08:44:16Z</time>
      </trkpt>
      <trkpt lat="44.9001" lon="-0.12904">
        <ele>58</ele>
        <time>2020-06-26T08:45:17Z</time>
      </trkpt>
      <trkpt lat="44.90037" lon="-0.12852">
        <ele>60</ele>
        <time>2020-06-26T08:46:18Z</time>
      </trkpt>
      <trkpt lat="44.90063" lon="-0.12799">
        <ele>62</ele>
        <time>2020-06-26T08:47:19Z</time>
      </trkpt>
      <trkpt lat="44.9009" lon="-0.12747">
        <ele>65</ele>
        <time>2020-06-26T08:48:19Z</time>
      </trkpt>
      <trkpt lat="44.90117" lon="-0.12695">
        <ele>68</ele>
        <time>2020-06-26T08:49:20Z</time>
      </trkpt>
      <trkpt lat="44.90137" lon="-0.12636">
        <ele>70</ele>
        <time>2020-06-26T08:50:22Z</time>
      </trkpt>
      <trkpt lat="44.90163" lon="-0.12591">
        <ele>71</ele>
        <time>2020-06-26T08:51:17Z</time>
      </trkpt>
      <trkpt lat="44.90158" lon="-0.12573">
        <ele>72</ele>
        <time>2020-06-26T08:51:35Z</time>
      </trkpt>
      <trkpt lat="44.90161" lon="-0.1256">
        <ele>72</ele>
        <time>2020-06-26T08:51:48Z</time>
      </trkpt>
      <trkpt lat="44.90169" lon="-0.12449">
        <ele>70</ele>
        <time>2020-06-26T08:53:34Z</time>
      </trkpt>
      <trkpt lat="44.90177" lon="-0.12444">
        <ele>69</ele>
        <time>2020-06-26T08:53:45Z</time>
      </trkpt>
      <trkpt lat="44.90161" lon="-0.12385">
        <ele>69</ele>
        <time>2020-06-26T08:54:45Z</time>
      </trkpt>
      <trkpt lat="44.90134" lon="-0.12334">
        <ele>70</ele>
        <time>2020-06-26T08:55:45Z</time>
      </trkpt>
      <trkpt lat="44.90098" lon="-0.12295">
        <ele>73</ele>
        <time>2020-06-26T08:56:46Z</time>
      </trkpt>
      <trkpt lat="44.90078" lon="-0.12263">
        <ele>73</ele>
        <time>2020-06-26T08:57:26Z</time>
      </trkpt>
      <trkpt lat="44.90046" lon="-0.12307">
        <ele>75</ele>
        <time>2020-06-26T08:58:26Z</time>
      </trkpt>
      <trkpt lat="44.90018" lon="-0.1234">
        <ele>77</ele>
        <time>2020-06-26T08:59:15Z</time>
      </trkpt>
      <trkpt lat="44.90011" lon="-0.12343">
        <ele>77</ele>
        <time>2020-06-26T08:59:24Z</time>
      </trkpt>
      <trkpt lat="44.89966" lon="-0.12352">
        <ele>76</ele>
        <time>2020-06-26T09:00:25Z</time>
      </trkpt>
      <trkpt lat="44.8992" lon="-0.12359">
        <ele>75</ele>
        <time>2020-06-26T09:01:27Z</time>
      </trkpt>
      <trkpt lat="44.89875" lon="-0.1236">
        <ele>75</ele>
        <time>2020-06-26T09:02:27Z</time>
      </trkpt>
      <trkpt lat="44.8983" lon="-0.12354">
        <ele>75</ele>
        <time>2020-06-26T09:03:27Z</time>
      </trkpt>
      <trkpt lat="44.89806" lon="-0.12349">
        <ele>77</ele>
        <time>2020-06-26T09:03:59Z</time>
      </trkpt>
      <trkpt lat="44.89795" lon="-0.12351">
        <ele>77</ele>
        <time>2020-06-26T09:04:14Z</time>
      </trkpt>
      <trkpt lat="44.89751" lon="-0.12339">
        <ele>81</ele>
        <time>2020-06-26T09:05:14Z</time>
      </trkpt>
      <trkpt lat="44.89719" lon="-0.12301">
        <ele>83</ele>
        <time>2020-06-26T09:06:10Z</time>
      </trkpt>
      <trkpt lat="44.89712" lon="-0.12291">
        <ele>83</ele>
        <time>2020-06-26T09:06:23Z</time>
      </trkpt>
      <trkpt lat="44.89669" lon="-0.12267">
        <ele>85</ele>
        <time>2020-06-26T09:07:25Z</time>
      </trkpt>
      <trkpt lat="44.89625" lon="-0.12267">
        <ele>85</ele>
        <time>2020-06-26T09:08:24Z</time>
      </trkpt>
      <trkpt lat="44.89621" lon="-0.12255">
        <ele>84</ele>
        <time>2020-06-26T09:08:36Z</time>
      </trkpt>
      <trkpt lat="44.89617" lon="-0.1219">
        <ele>84</ele>
        <time>2020-06-26T09:09:38Z</time>
      </trkpt>
      <trkpt lat="44.89614" lon="-0.12127">
        <ele>82</ele>
        <time>2020-06-26T09:10:37Z</time>
      </trkpt>
      <trkpt lat="44.89605" lon="-0.12065">
        <ele>80</ele>
        <time>2020-06-26T09:11:37Z</time>
      </trkpt>
      <trkpt lat="44.89585" lon="-0.12008">
        <ele>80</ele>
        <time>2020-06-26T09:12:37Z</time>
      </trkpt>
      <trkpt lat="44.89579" lon="-0.11943">
        <ele>78</ele>
        <time>2020-06-26T09:13:39Z</time>
      </trkpt>
      <trkpt lat="44.89576" lon="-0.11879">
        <ele>77</ele>
        <time>2020-06-26T09:14:40Z</time>
      </trkpt>
      <trkpt lat="44.89581" lon="-0.11816">
        <ele>77</ele>
        <time>2020-06-26T09:15:40Z</time>
      </trkpt>
      <trkpt lat="44.89588" lon="-0.11751">
        <ele>76</ele>
        <time>2020-06-26T09:16:42Z</time>
      </trkpt>
      <trkpt lat="44.89583" lon="-0.11688">
        <ele>74</ele>
        <time>2020-06-26T09:17:42Z</time>
      </trkpt>
      <trkpt lat="44.89571" lon="-0.11627">
        <ele>73</ele>
        <time>2020-06-26T09:18:42Z</time>
      </trkpt>
      <trkpt lat="44.89556" lon="-0.11567">
        <ele>73</ele>
        <time>2020-06-26T09:19:42Z</time>
      </trkpt>
      <trkpt lat="44.89541" lon="-0.1153">
        <ele>74</ele>
        <time>2020-06-26T09:20:22Z</time>
      </trkpt>
      <trkpt lat="44.89497" lon="-0.11543">
        <ele>78</ele>
        <time>2020-06-26T09:21:22Z</time>
      </trkpt>
      <trkpt lat="44.89453" lon="-0.11558">
        <ele>82</ele>
        <time>2020-06-26T09:22:23Z</time>
      </trkpt>
      <trkpt lat="44.89411" lon="-0.11582">
        <ele>86</ele>
        <time>2020-06-26T09:23:23Z</time>
      </trkpt>
      <trkpt lat="44.8937" lon="-0.11613">
        <ele>88</ele>
        <time>2020-06-26T09:24:25Z</time>
      </trkpt>
      <trkpt lat="44.89348" lon="-0.11607">
        <ele>89</ele>
        <time>2020-06-26T09:24:55Z</time>
      </trkpt>
      <trkpt lat="44.89311" lon="-0.11643">
        <ele>91</ele>
        <time>2020-06-26T09:25:55Z</time>
      </trkpt>
      <trkpt lat="44.89273" lon="-0.1168">
        <ele>92</ele>
        <time>2020-06-26T09:26:57Z</time>
      </trkpt>
      <trkpt lat="44.89238" lon="-0.11719">
        <ele>93</ele>
        <time>2020-06-26T09:27:56Z</time>
      </trkpt>
      <trkpt lat="44.89202" lon="-0.11758">
        <ele>92</ele>
        <time>2020-06-26T09:28:57Z</time>
      </trkpt>
      <trkpt lat="44.89195" lon="-0.11768">
        <ele>92</ele>
        <time>2020-06-26T09:29:10Z</time>
      </trkpt>
      <trkpt lat="44.89161" lon="-0.11808">
        <ele>92</ele>
        <time>2020-06-26T09:30:09Z</time>
      </trkpt>
      <trkpt lat="44.89159" lon="-0.1181">
        <ele>91</ele>
        <time>2020-06-26T09:30:12Z</time>
      </trkpt>
      <trkpt lat="44.89145" lon="-0.11847">
        <ele>91</ele>
        <time>2020-06-26T09:30:52Z</time>
      </trkpt>
      <trkpt lat="44.89166" lon="-0.11894">
        <ele>90</ele>
        <time>2020-06-26T09:31:45Z</time>
      </trkpt>
      <trkpt lat="44.89174" lon="-0.11959">
        <ele>89</ele>
        <time>2020-06-26T09:32:47Z</time>
      </trkpt>
      <trkpt lat="44.89177" lon="-0.12042">
        <ele>90</ele>
        <time>2020-06-26T09:34:06Z</time>
      </trkpt>
      <trkpt lat="44.89185" lon="-0.12105">
        <ele>91</ele>
        <time>2020-06-26T09:35:06Z</time>
      </trkpt>
      <trkpt lat="44.89183" lon="-0.1217">
        <ele>91</ele>
        <time>2020-06-26T09:36:08Z</time>
      </trkpt>
      <trkpt lat="44.89183" lon="-0.12235">
        <ele>91</ele>
        <time>2020-06-26T09:37:09Z</time>
      </trkpt>
      <trkpt lat="44.8919" lon="-0.123">
        <ele>91</ele>
        <time>2020-06-26T09:38:11Z</time>
      </trkpt>
      <trkpt lat="44.89188" lon="-0.12364">
        <ele>92</ele>
        <time>2020-06-26T09:39:12Z</time>
      </trkpt>
      <trkpt lat="44.8919" lon="-0.12429">
        <ele>92</ele>
        <time>2020-06-26T09:40:13Z</time>
      </trkpt>
      <trkpt lat="44.89181" lon="-0.12462">
        <ele>93</ele>
        <time>2020-06-26T09:40:47Z</time>
      </trkpt>
      <trkpt lat="44.89135" lon="-0.12474">
        <ele>94</ele>
        <time>2020-06-26T09:41:49Z</time>
      </trkpt>
      <trkpt lat="44.89097" lon="-0.12496">
        <ele>95</ele>
        <time>2020-06-26T09:42:44Z</time>
      </trkpt>
      <trkpt lat="44.89054" lon="-0.12516">
        <ele>95</ele>
        <time>2020-06-26T09:43:44Z</time>
      </trkpt>
      <trkpt lat="44.89063" lon="-0.12577">
        <ele>96</ele>
        <time>2020-06-26T09:44:43Z</time>
      </trkpt>
      <trkpt lat="44.89068" lon="-0.12599">
        <ele>96</ele>
        <time>2020-06-26T09:45:05Z</time>
      </trkpt>
      <trkpt lat="44.89029" lon="-0.12629">
        <ele>95</ele>
        <time>2020-06-26T09:46:04Z</time>
      </trkpt>
      <trkpt lat="44.89024" lon="-0.12632">
        <ele>95</ele>
        <time>2020-06-26T09:46:12Z</time>
      </trkpt>
      <trkpt lat="44.89025" lon="-0.12654">
        <ele>95</ele>
        <time>2020-06-26T09:46:32Z</time>
      </trkpt>
      <trkpt lat="44.89" lon="-0.12703">
        <ele>95</ele>
        <time>2020-06-26T09:47:29Z</time>
      </trkpt>
      <trkpt lat="44.88962" lon="-0.12716">
        <ele>93</ele>
        <time>2020-06-26T09:48:22Z</time>
      </trkpt>
      <trkpt lat="44.88973" lon="-0.1278">
        <ele>92</ele>
        <time>2020-06-26T09:49:24Z</time>
      </trkpt>
      <trkpt lat="44.88974" lon="-0.12788">
        <ele>92</ele>
        <time>2020-06-26T09:49:32Z</time>
      </trkpt>
      <trkpt lat="44.88978" lon="-0.12839">
        <ele>92</ele>
        <time>2020-06-26T09:50:20Z</time>
      </trkpt>
      <trkpt lat="44.88934" lon="-0.1285">
        <ele>90</ele>
        <time>2020-06-26T09:51:20Z</time>
      </trkpt>
      <trkpt lat="44.88889" lon="-0.1286">
        <ele>86</ele>
        <time>2020-06-26T09:52:21Z</time>
      </trkpt>
      <trkpt lat="44.88869" lon="-0.12862">
        <ele>84</ele>
        <time>2020-06-26T09:52:47Z</time>
      </trkpt>
      <trkpt lat="44.88862" lon="-0.12856">
        <ele>83</ele>
        <time>2020-06-26T09:52:58Z</time>
      </trkpt>
      <trkpt lat="44.88837" lon="-0.12801">
        <ele>79</ele>
        <time>2020-06-26T09:54:00Z</time>
      </trkpt>
      <trkpt lat="44.88828" lon="-0.12795">
        <ele>78</ele>
        <time>2020-06-26T09:54:13Z</time>
      </trkpt>
      <trkpt lat="44.888" lon="-0.1277">
        <ele>73</ele>
        <time>2020-06-26T09:54:58Z</time>
      </trkpt>
      <trkpt lat="44.88795" lon="-0.1278">
        <ele>72</ele>
        <time>2020-06-26T09:55:09Z</time>
      </trkpt>
      <trkpt lat="44.88792" lon="-0.12776">
        <ele>72</ele>
        <time>2020-06-26T09:55:15Z</time>
      </trkpt>
      <trkpt lat="44.88747" lon="-0.12782">
        <ele>65</ele>
        <time>2020-06-26T09:56:15Z</time>
      </trkpt>
      <trkpt lat="44.88724" lon="-0.12783">
        <ele>63</ele>
        <time>2020-06-26T09:56:46Z</time>
      </trkpt>
      <trkpt lat="44.88678" lon="-0.12778">
        <ele>58</ele>
        <time>2020-06-26T09:57:47Z</time>
      </trkpt>
      <trkpt lat="44.88659" lon="-0.12752">
        <ele>52</ele>
        <time>2020-06-26T09:58:23Z</time>
      </trkpt>
      <trkpt lat="44.88657" lon="-0.12752">
        <ele>52</ele>
        <time>2020-06-26T09:58:25Z</time>
      </trkpt>
      <trkpt lat="44.88655" lon="-0.12751">
        <ele>52</ele>
        <time>2020-06-26T09:58:28Z</time>
      </trkpt>
      <trkpt lat="44.88653" lon="-0.1274">
        <ele>51</ele>
        <time>2020-06-26T09:58:39Z</time>
      </trkpt>
      <trkpt lat="44.88632" lon="-0.12689">
        <ele>45</ele>
        <time>2020-06-26T09:59:35Z</time>
      </trkpt>
      <trkpt lat="44.88589" lon="-0.12695">
        <ele>41</ele>
        <time>2020-06-26T10:00:32Z</time>
      </trkpt>
      <trkpt lat="44.88546" lon="-0.12706">
        <ele>38</ele>
        <time>2020-06-26T10:01:30Z</time>
      </trkpt>
      <trkpt lat="44.88512" lon="-0.12665">
        <ele>36</ele>
        <time>2020-06-26T10:02:30Z</time>
      </trkpt>
      <trkpt lat="44.88482" lon="-0.12617">
        <ele>38</ele>
        <time>2020-06-26T10:03:31Z</time>
      </trkpt>
      <trkpt lat="44.88461" lon="-0.12583">
        <ele>39</ele>
        <time>2020-06-26T10:04:13Z</time>
      </trkpt>
      <trkpt lat="44.88423" lon="-0.12619">
        <ele>39</ele>
        <time>2020-06-26T10:05:14Z</time>
      </trkpt>
      <trkpt lat="44.88383" lon="-0.12649">
        <ele>38</ele>
        <time>2020-06-26T10:06:15Z</time>
      </trkpt>
      <trkpt lat="44.88338" lon="-0.12666">
        <ele>37</ele>
        <time>2020-06-26T10:07:17Z</time>
      </trkpt>
      <trkpt lat="44.88295" lon="-0.12691">
        <ele>36</ele>
        <time>2020-06-26T10:08:19Z</time>
      </trkpt>
      <trkpt lat="44.88254" lon="-0.12718">
        <ele>34</ele>
        <time>2020-06-26T10:09:19Z</time>
      </trkpt>
      <trkpt lat="44.88215" lon="-0.12751">
        <ele>32</ele>
        <time>2020-06-26T10:10:20Z</time>
      </trkpt>
      <trkpt lat="44.88182" lon="-0.12795">
        <ele>32</ele>
        <time>2020-06-26T10:11:21Z</time>
      </trkpt>
      <trkpt lat="44.88145" lon="-0.12835">
        <ele>32</ele>
        <time>2020-06-26T10:12:23Z</time>
      </trkpt>
      <trkpt lat="44.88102" lon="-0.12846">
        <ele>31</ele>
        <time>2020-06-26T10:13:21Z</time>
      </trkpt>
      <trkpt lat="44.88057" lon="-0.12849">
        <ele>31</ele>
        <time>2020-06-26T10:14:21Z</time>
      </trkpt>
      <trkpt lat="44.88014" lon="-0.12872">
        <ele>31</ele>
        <time>2020-06-26T10:15:23Z</time>
      </trkpt>
      <trkpt lat="44.87981" lon="-0.129">
        <ele>30</ele>
        <time>2020-06-26T10:16:14Z</time>
      </trkpt>
      <trkpt lat="44.87941" lon="-0.12929">
        <ele>28</ele>
        <time>2020-06-26T10:17:14Z</time>
      </trkpt>
      <trkpt lat="44.879" lon="-0.12967">
        <ele>28</ele>
        <time>2020-06-26T10:18:20Z</time>
      </trkpt>
      <trkpt lat="44.87837" lon="-0.13022">
        <ele>27</ele>
        <time>2020-06-26T10:19:58Z</time>
      </trkpt>
      <trkpt lat="44.87792" lon="-0.13057">
        <ele>26</ele>
        <time>2020-06-26T10:21:07Z</time>
      </trkpt>
      <trkpt lat="44.8778" lon="-0.13067">
        <ele>25</ele>
        <time>2020-06-26T10:21:26Z</time>
      </trkpt>
      <trkpt lat="44.87765" lon="-0.13078">
        <ele>25</ele>
        <time>2020-06-26T10:21:48Z</time>
      </trkpt>
      <trkpt lat="44.87749" lon="-0.13089">
        <ele>24</ele>
        <time>2020-06-26T10:22:12Z</time>
      </trkpt>
      <trkpt lat="44.87738" lon="-0.13092">
        <ele>24</ele>
        <time>2020-06-26T10:22:27Z</time>
      </trkpt>
      <trkpt lat="44.87726" lon="-0.13101">
        <ele>24</ele>
        <time>2020-06-26T10:22:45Z</time>
      </trkpt>
      <trkpt lat="44.87713" lon="-0.13108">
        <ele>23</ele>
        <time>2020-06-26T10:23:04Z</time>
      </trkpt>
      <trkpt lat="44.877" lon="-0.13116">
        <ele>23</ele>
        <time>2020-06-26T10:23:22Z</time>
      </trkpt>
      <trkpt lat="44.87688" lon="-0.13123">
        <ele>23</ele>
        <time>2020-06-26T10:23:40Z</time>
      </trkpt>
      <trkpt lat="44.87675" lon="-0.13132">
        <ele>23</ele>
        <time>2020-06-26T10:23:59Z</time>
      </trkpt>
      <trkpt lat="44.87657" lon="-0.13151">
        <ele>23</ele>
        <time>2020-06-26T10:24:29Z</time>
      </trkpt>
      <trkpt lat="44.87644" lon="-0.13165">
        <ele>23</ele>
        <time>2020-06-26T10:24:51Z</time>
      </trkpt>
      <trkpt lat="44.87612" lon="-0.13193">
        <ele>23</ele>
        <time>2020-06-26T10:25:41Z</time>
      </trkpt>
      <trkpt lat="44.876" lon="-0.13202">
        <ele>23</ele>
        <time>2020-06-26T10:25:59Z</time>
      </trkpt>
      <trkpt lat="44.87584" lon="-0.13221">
        <ele>23</ele>
        <time>2020-06-26T10:26:27Z</time>
      </trkpt>
      <trkpt lat="44.87542" lon="-0.13246">
        <ele>22</ele>
        <time>2020-06-26T10:27:28Z</time>
      </trkpt>
      <trkpt lat="44.87539" lon="-0.13265">
        <ele>22</ele>
        <time>2020-06-26T10:27:46Z</time>
      </trkpt>
      <trkpt lat="44.8755" lon="-0.13338">
        <ele>22</ele>
        <time>2020-06-26T10:28:57Z</time>
      </trkpt>
      <trkpt lat="44.87558" lon="-0.13396">
        <ele>22</ele>
        <time>2020-06-26T10:29:53Z</time>
      </trkpt>
    </trkseg>
  </trk>
  <trk>
    <name><![CDATA[Traces DPT 33_28]]></name>
    <extensions>
      <line xmlns="http://www.topografix.com/GPX/gpx_style/0/2">
        <color>00FFFF</color>
        <width>4</width>
      </line>
    </extensions>
    <trkseg>
      <trkpt lat="44.89359" lon="-0.15689">
        <ele>80.6</ele>
      </trkpt>
      <trkpt lat="44.89357" lon="-0.1569">
        <ele>80.5</ele>
      </trkpt>
      <trkpt lat="44.89356" lon="-0.15691">
        <ele>80.4</ele>
      </trkpt>
      <trkpt lat="44.89354" lon="-0.15692">
        <ele>80.3</ele>
      </trkpt>
      <trkpt lat="44.89353" lon="-0.15693">
        <ele>80.3</ele>
      </trkpt>
      <trkpt lat="44.89348" lon="-0.15698">
        <ele>79.9</ele>
      </trkpt>
      <trkpt lat="44.89344" lon="-0.15703">
        <ele>79.6</ele>
      </trkpt>
      <trkpt lat="44.89339" lon="-0.1571">
        <ele>79.5</ele>
      </trkpt>
      <trkpt lat="44.89314" lon="-0.15747">
        <ele>77.6</ele>
      </trkpt>
      <trkpt lat="44.89311" lon="-0.15753">
        <ele>77.6</ele>
      </trkpt>
      <trkpt lat="44.89308" lon="-0.1576">
        <ele>77.2</ele>
      </trkpt>
      <trkpt lat="44.89305" lon="-0.15765">
        <ele>76.9</ele>
      </trkpt>
      <trkpt lat="44.89302" lon="-0.1577">
        <ele>76.5</ele>
      </trkpt>
      <trkpt lat="44.89299" lon="-0.15775">
        <ele>76.3</ele>
      </trkpt>
      <trkpt lat="44.89296" lon="-0.15778">
        <ele>76.4</ele>
      </trkpt>
      <trkpt lat="44.89293" lon="-0.15782">
        <ele>76.8</ele>
      </trkpt>
      <trkpt lat="44.8929" lon="-0.15785">
        <ele>77.1</ele>
      </trkpt>
      <trkpt lat="44.89285" lon="-0.1579">
        <ele>77.6</ele>
      </trkpt>
      <trkpt lat="44.89281" lon="-0.15794">
        <ele>78.1</ele>
      </trkpt>
      <trkpt lat="44.89264" lon="-0.15806">
        <ele>79</ele>
      </trkpt>
      <trkpt lat="44.89261" lon="-0.15796">
        <ele>78.5</ele>
      </trkpt>
      <trkpt lat="44.89261" lon="-0.15796">
        <ele>78.5</ele>
      </trkpt>
      <trkpt lat="44.89244" lon="-0.15774">
        <ele>78.3</ele>
      </trkpt>
      <trkpt lat="44.89214" lon="-0.15746">
        <ele>78.6</ele>
      </trkpt>
      <trkpt lat="44.89198" lon="-0.15733">
        <ele>77.8</ele>
      </trkpt>
      <trkpt lat="44.89193" lon="-0.15728">
        <ele>77.8</ele>
      </trkpt>
      <trkpt lat="44.89189" lon="-0.15724">
        <ele>77.8</ele>
      </trkpt>
      <trkpt lat="44.89185" lon="-0.15716">
        <ele>76.9</ele>
      </trkpt>
      <trkpt lat="44.89179" lon="-0.15702">
        <ele>75.5</ele>
      </trkpt>
      <trkpt lat="44.89176" lon="-0.15694">
        <ele>74.9</ele>
      </trkpt>
      <trkpt lat="44.89173" lon="-0.15689">
        <ele>74.9</ele>
      </trkpt>
      <trkpt lat="44.89169" lon="-0.15685">
        <ele>75.4</ele>
      </trkpt>
      <trkpt lat="44.89137" lon="-0.15673">
        <ele>76.7</ele>
      </trkpt>
      <trkpt lat="44.89098" lon="-0.15657">
        <ele>75.6</ele>
      </trkpt>
      <trkpt lat="44.8908" lon="-0.15649">
        <ele>75.5</ele>
      </trkpt>
      <trkpt lat="44.8908" lon="-0.15649">
        <ele>75.5</ele>
      </trkpt>
      <trkpt lat="44.89049" lon="-0.1566">
        <ele>74.1</ele>
      </trkpt>
      <trkpt lat="44.89043" lon="-0.15662">
        <ele>74.1</ele>
      </trkpt>
      <trkpt lat="44.8904" lon="-0.15665">
        <ele>74.6</ele>
      </trkpt>
      <trkpt lat="44.89039" lon="-0.15669">
        <ele>75.2</ele>
      </trkpt>
      <trkpt lat="44.89033" lon="-0.1566">
        <ele>73.2</ele>
      </trkpt>
      <trkpt lat="44.89033" lon="-0.1566">
        <ele>73.2</ele>
      </trkpt>
      <trkpt lat="44.89023" lon="-0.15642">
        <ele>68</ele>
      </trkpt>
      <trkpt lat="44.89019" lon="-0.15636">
        <ele>67.5</ele>
      </trkpt>
      <trkpt lat="44.89018" lon="-0.15632">
        <ele>67.1</ele>
      </trkpt>
      <trkpt lat="44.89018" lon="-0.15629">
        <ele>66.7</ele>
      </trkpt>
      <trkpt lat="44.89001" lon="-0.15618">
        <ele>67.4</ele>
      </trkpt>
      <trkpt lat="44.89001" lon="-0.15618">
        <ele>67.4</ele>
      </trkpt>
      <trkpt lat="44.88995" lon="-0.15614">
        <ele>67.7</ele>
      </trkpt>
      <trkpt lat="44.8899" lon="-0.15612">
        <ele>68.3</ele>
      </trkpt>
      <trkpt lat="44.88984" lon="-0.15611">
        <ele>69.4</ele>
      </trkpt>
      <trkpt lat="44.88978" lon="-0.15612">
        <ele>70.9</ele>
      </trkpt>
      <trkpt lat="44.88972" lon="-0.15616">
        <ele>72.7</ele>
      </trkpt>
      <trkpt lat="44.88965" lon="-0.15619">
        <ele>73.3</ele>
      </trkpt>
      <trkpt lat="44.88958" lon="-0.15622">
        <ele>73.9</ele>
      </trkpt>
      <trkpt lat="44.88954" lon="-0.15622">
        <ele>74</ele>
      </trkpt>
      <trkpt lat="44.88951" lon="-0.15625">
        <ele>74.4</ele>
      </trkpt>
      <trkpt lat="44.88948" lon="-0.1562">
        <ele>73.9</ele>
      </trkpt>
      <trkpt lat="44.88946" lon="-0.15619">
        <ele>73.8</ele>
      </trkpt>
      <trkpt lat="44.88948" lon="-0.1562">
        <ele>73.9</ele>
      </trkpt>
      <trkpt lat="44.88951" lon="-0.15625">
        <ele>74.4</ele>
      </trkpt>
      <trkpt lat="44.88949" lon="-0.15628">
        <ele>74.8</ele>
      </trkpt>
      <trkpt lat="44.88948" lon="-0.15634">
        <ele>75.4</ele>
      </trkpt>
      <trkpt lat="44.88946" lon="-0.15649">
        <ele>77.1</ele>
      </trkpt>
      <trkpt lat="44.88945" lon="-0.15666">
        <ele>78.9</ele>
      </trkpt>
      <trkpt lat="44.88945" lon="-0.15692">
        <ele>79.9</ele>
      </trkpt>
      <trkpt lat="44.88947" lon="-0.15729">
        <ele>81.3</ele>
      </trkpt>
      <trkpt lat="44.88947" lon="-0.15737">
        <ele>81.6</ele>
      </trkpt>
      <trkpt lat="44.88947" lon="-0.15744">
        <ele>81.9</ele>
      </trkpt>
      <trkpt lat="44.88945" lon="-0.1575">
        <ele>82</ele>
      </trkpt>
      <trkpt lat="44.88943" lon="-0.15757">
        <ele>82.1</ele>
      </trkpt>
      <trkpt lat="44.88917" lon="-0.15802">
        <ele>82.6</ele>
      </trkpt>
      <trkpt lat="44.88906" lon="-0.15828">
        <ele>82.4</ele>
      </trkpt>
      <trkpt lat="44.88892" lon="-0.15867">
        <ele>83.8</ele>
      </trkpt>
      <trkpt lat="44.88884" lon="-0.15885">
        <ele>82.6</ele>
      </trkpt>
      <trkpt lat="44.88874" lon="-0.15904">
        <ele>82</ele>
      </trkpt>
      <trkpt lat="44.88864" lon="-0.15916">
        <ele>82.1</ele>
      </trkpt>
      <trkpt lat="44.88853" lon="-0.15924">
        <ele>81.9</ele>
      </trkpt>
      <trkpt lat="44.88848" lon="-0.15933">
        <ele>81.8</ele>
      </trkpt>
      <trkpt lat="44.88835" lon="-0.15962">
        <ele>79.9</ele>
      </trkpt>
      <trkpt lat="44.8883" lon="-0.15975">
        <ele>78.5</ele>
      </trkpt>
      <trkpt lat="44.88827" lon="-0.15986">
        <ele>77.6</ele>
      </trkpt>
      <trkpt lat="44.88826" lon="-0.16001">
        <ele>76.7</ele>
      </trkpt>
      <trkpt lat="44.88825" lon="-0.16014">
        <ele>76.7</ele>
      </trkpt>
      <trkpt lat="44.88826" lon="-0.16026">
        <ele>76.7</ele>
      </trkpt>
      <trkpt lat="44.88828" lon="-0.16038">
        <ele>77.1</ele>
      </trkpt>
      <trkpt lat="44.8883" lon="-0.16045">
        <ele>77.4</ele>
      </trkpt>
      <trkpt lat="44.88834" lon="-0.16052">
        <ele>77.9</ele>
      </trkpt>
      <trkpt lat="44.88868" lon="-0.16095">
        <ele>76.7</ele>
      </trkpt>
      <trkpt lat="44.88873" lon="-0.16103">
        <ele>76.6</ele>
      </trkpt>
      <trkpt lat="44.88875" lon="-0.16111">
        <ele>76.5</ele>
      </trkpt>
      <trkpt lat="44.88878" lon="-0.16123">
        <ele>76.2</ele>
      </trkpt>
      <trkpt lat="44.8888" lon="-0.16135">
        <ele>75.8</ele>
      </trkpt>
      <trkpt lat="44.88881" lon="-0.16142">
        <ele>75.6</ele>
      </trkpt>
      <trkpt lat="44.88883" lon="-0.16146">
        <ele>75.5</ele>
      </trkpt>
      <trkpt lat="44.88884" lon="-0.16148">
        <ele>75.5</ele>
      </trkpt>
      <trkpt lat="44.88885" lon="-0.16149">
        <ele>75.5</ele>
      </trkpt>
      <trkpt lat="44.88889" lon="-0.16156">
        <ele>75.4</ele>
      </trkpt>
      <trkpt lat="44.88888" lon="-0.16158">
        <ele>75.3</ele>
      </trkpt>
      <trkpt lat="44.88887" lon="-0.16162">
        <ele>75.1</ele>
      </trkpt>
      <trkpt lat="44.88886" lon="-0.16166">
        <ele>74.9</ele>
      </trkpt>
      <trkpt lat="44.88886" lon="-0.1617">
        <ele>74.8</ele>
      </trkpt>
      <trkpt lat="44.88889" lon="-0.16181">
        <ele>74.5</ele>
      </trkpt>
      <trkpt lat="44.88891" lon="-0.16194">
        <ele>74.2</ele>
      </trkpt>
      <trkpt lat="44.88893" lon="-0.16207">
        <ele>74.3</ele>
      </trkpt>
      <trkpt lat="44.88901" lon="-0.16259">
        <ele>75.8</ele>
      </trkpt>
      <trkpt lat="44.88909" lon="-0.16298">
        <ele>76.6</ele>
      </trkpt>
      <trkpt lat="44.88914" lon="-0.16314">
        <ele>76.5</ele>
      </trkpt>
      <trkpt lat="44.88923" lon="-0.16328">
        <ele>76.6</ele>
      </trkpt>
      <trkpt lat="44.88928" lon="-0.16337">
        <ele>76.8</ele>
      </trkpt>
      <trkpt lat="44.88941" lon="-0.16351">
        <ele>77.2</ele>
      </trkpt>
      <trkpt lat="44.88956" lon="-0.16367">
        <ele>76.8</ele>
      </trkpt>
      <trkpt lat="44.88972" lon="-0.16382">
        <ele>76.2</ele>
      </trkpt>
      <trkpt lat="44.88986" lon="-0.16392">
        <ele>75.9</ele>
      </trkpt>
      <trkpt lat="44.88999" lon="-0.16399">
        <ele>75.3</ele>
      </trkpt>
      <trkpt lat="44.8901" lon="-0.16404">
        <ele>75.3</ele>
      </trkpt>
      <trkpt lat="44.8902" lon="-0.16407">
        <ele>75.6</ele>
      </trkpt>
      <trkpt lat="44.89033" lon="-0.16409">
        <ele>75.5</ele>
      </trkpt>
      <trkpt lat="44.89047" lon="-0.1641">
        <ele>74.3</ele>
      </trkpt>
      <trkpt lat="44.8907" lon="-0.16412">
        <ele>72.7</ele>
      </trkpt>
      <trkpt lat="44.89092" lon="-0.16414">
        <ele>71.5</ele>
      </trkpt>
      <trkpt lat="44.89127" lon="-0.16421">
        <ele>69.1</ele>
      </trkpt>
      <trkpt lat="44.89155" lon="-0.16424">
        <ele>67</ele>
      </trkpt>
      <trkpt lat="44.89174" lon="-0.16425">
        <ele>65.8</ele>
      </trkpt>
      <trkpt lat="44.89189" lon="-0.16425">
        <ele>65.2</ele>
      </trkpt>
      <trkpt lat="44.8917" lon="-0.16597">
        <ele>58.7</ele>
      </trkpt>
      <trkpt lat="44.8917" lon="-0.1661">
        <ele>58.3</ele>
      </trkpt>
      <trkpt lat="44.89171" lon="-0.16618">
        <ele>57.9</ele>
      </trkpt>
      <trkpt lat="44.89173" lon="-0.1663">
        <ele>57.3</ele>
      </trkpt>
      <trkpt lat="44.89187" lon="-0.16708">
        <ele>55.2</ele>
      </trkpt>
      <trkpt lat="44.89205" lon="-0.16799">
        <ele>52.9</ele>
      </trkpt>
      <trkpt lat="44.89215" lon="-0.16843">
        <ele>52.4</ele>
      </trkpt>
      <trkpt lat="44.8922" lon="-0.16858">
        <ele>52</ele>
      </trkpt>
      <trkpt lat="44.89232" lon="-0.16897">
        <ele>51.2</ele>
      </trkpt>
      <trkpt lat="44.89249" lon="-0.16944">
        <ele>51</ele>
      </trkpt>
      <trkpt lat="44.89268" lon="-0.16991">
        <ele>50.6</ele>
      </trkpt>
      <trkpt lat="44.89288" lon="-0.17038">
        <ele>50.4</ele>
      </trkpt>
      <trkpt lat="44.89292" lon="-0.17045">
        <ele>50.4</ele>
      </trkpt>
      <trkpt lat="44.89306" lon="-0.17077">
        <ele>50.2</ele>
      </trkpt>
      <trkpt lat="44.8932" lon="-0.17111">
        <ele>50</ele>
      </trkpt>
      <trkpt lat="44.89332" lon="-0.17139">
        <ele>48.9</ele>
      </trkpt>
      <trkpt lat="44.89344" lon="-0.1718">
        <ele>49.4</ele>
      </trkpt>
      <trkpt lat="44.89365" lon="-0.17254">
        <ele>48.3</ele>
      </trkpt>
      <trkpt lat="44.89373" lon="-0.17276">
        <ele>47.9</ele>
      </trkpt>
      <trkpt lat="44.89376" lon="-0.17285">
        <ele>47.8</ele>
      </trkpt>
      <trkpt lat="44.89379" lon="-0.17293">
        <ele>47.7</ele>
      </trkpt>
      <trkpt lat="44.89392" lon="-0.17316">
        <ele>47.5</ele>
      </trkpt>
      <trkpt lat="44.89426" lon="-0.1737">
        <ele>46.9</ele>
      </trkpt>
      <trkpt lat="44.89439" lon="-0.17392">
        <ele>47.4</ele>
      </trkpt>
      <trkpt lat="44.89449" lon="-0.17409">
        <ele>46.8</ele>
      </trkpt>
      <trkpt lat="44.8948" lon="-0.17463">
        <ele>45.4</ele>
      </trkpt>
      <trkpt lat="44.89489" lon="-0.17479">
        <ele>45.4</ele>
      </trkpt>
      <trkpt lat="44.89497" lon="-0.17496">
        <ele>44.4</ele>
      </trkpt>
      <trkpt lat="44.89501" lon="-0.17507">
        <ele>43.8</ele>
      </trkpt>
      <trkpt lat="44.89506" lon="-0.17517">
        <ele>43.8</ele>
      </trkpt>
      <trkpt lat="44.89512" lon="-0.1754">
        <ele>43.2</ele>
      </trkpt>
      <trkpt lat="44.89519" lon="-0.17573">
        <ele>42.3</ele>
      </trkpt>
      <trkpt lat="44.8952" lon="-0.17577">
        <ele>42.2</ele>
      </trkpt>
      <trkpt lat="44.89548" lon="-0.17684">
        <ele>39.5</ele>
      </trkpt>
      <trkpt lat="44.89632" lon="-0.17971">
        <ele>37</ele>
      </trkpt>
      <trkpt lat="44.89632" lon="-0.17973">
        <ele>37</ele>
      </trkpt>
      <trkpt lat="44.89639" lon="-0.18">
        <ele>36</ele>
      </trkpt>
      <trkpt lat="44.89654" lon="-0.18062">
        <ele>35.8</ele>
      </trkpt>
      <trkpt lat="44.89672" lon="-0.18136">
        <ele>34.3</ele>
      </trkpt>
      <trkpt lat="44.89674" lon="-0.18145">
        <ele>34.2</ele>
      </trkpt>
      <trkpt lat="44.89674" lon="-0.18145">
        <ele>34.2</ele>
      </trkpt>
      <trkpt lat="44.8969" lon="-0.18135">
        <ele>35</ele>
      </trkpt>
      <trkpt lat="44.89733" lon="-0.18108">
        <ele>36.1</ele>
      </trkpt>
      <trkpt lat="44.89753" lon="-0.18099">
        <ele>36.5</ele>
      </trkpt>
      <trkpt lat="44.89787" lon="-0.1809">
        <ele>37</ele>
      </trkpt>
      <trkpt lat="44.89804" lon="-0.18086">
        <ele>37</ele>
      </trkpt>
      <trkpt lat="44.89815" lon="-0.18083">
        <ele>37</ele>
      </trkpt>
      <trkpt lat="44.89824" lon="-0.18083">
        <ele>37</ele>
      </trkpt>
      <trkpt lat="44.89846" lon="-0.18083">
        <ele>37.5</ele>
      </trkpt>
      <trkpt lat="44.89866" lon="-0.18082">
        <ele>38</ele>
      </trkpt>
      <trkpt lat="44.8988" lon="-0.18079">
        <ele>38</ele>
      </trkpt>
      <trkpt lat="44.89905" lon="-0.18074">
        <ele>38.2</ele>
      </trkpt>
      <trkpt lat="44.89942" lon="-0.18062">
        <ele>39</ele>
      </trkpt>
      <trkpt lat="44.89969" lon="-0.18053">
        <ele>39.1</ele>
      </trkpt>
      <trkpt lat="44.89981" lon="-0.18047">
        <ele>39.5</ele>
      </trkpt>
      <trkpt lat="44.89991" lon="-0.18041">
        <ele>39.8</ele>
      </trkpt>
      <trkpt lat="44.90002" lon="-0.18032">
        <ele>40</ele>
      </trkpt>
      <trkpt lat="44.90012" lon="-0.18021">
        <ele>40</ele>
      </trkpt>
      <trkpt lat="44.90026" lon="-0.18005">
        <ele>40</ele>
      </trkpt>
      <trkpt lat="44.90041" lon="-0.17986">
        <ele>40</ele>
      </trkpt>
      <trkpt lat="44.90047" lon="-0.17982">
        <ele>40</ele>
      </trkpt>
      <trkpt lat="44.9007" lon="-0.17966">
        <ele>40</ele>
      </trkpt>
      <trkpt lat="44.90087" lon="-0.17956">
        <ele>40</ele>
      </trkpt>
      <trkpt lat="44.90096" lon="-0.17951">
        <ele>40</ele>
      </trkpt>
      <trkpt lat="44.901" lon="-0.17952">
        <ele>40</ele>
      </trkpt>
      <trkpt lat="44.90107" lon="-0.17932">
        <ele>40.4</ele>
      </trkpt>
      <trkpt lat="44.90137" lon="-0.17866">
        <ele>42</ele>
      </trkpt>
      <trkpt lat="44.90143" lon="-0.17854">
        <ele>42.3</ele>
      </trkpt>
      <trkpt lat="44.90149" lon="-0.17843">
        <ele>42.7</ele>
      </trkpt>
      <trkpt lat="44.90164" lon="-0.17818">
        <ele>43</ele>
      </trkpt>
      <trkpt lat="44.90174" lon="-0.17801">
        <ele>43</ele>
      </trkpt>
      <trkpt lat="44.90183" lon="-0.17783">
        <ele>43</ele>
      </trkpt>
      <trkpt lat="44.90188" lon="-0.17768">
        <ele>43.4</ele>
      </trkpt>
      <trkpt lat="44.90197" lon="-0.17743">
        <ele>44</ele>
      </trkpt>
      <trkpt lat="44.90211" lon="-0.17701">
        <ele>44</ele>
      </trkpt>
      <trkpt lat="44.90218" lon="-0.17684">
        <ele>44.1</ele>
      </trkpt>
      <trkpt lat="44.90223" lon="-0.17672">
        <ele>44</ele>
      </trkpt>
      <trkpt lat="44.90229" lon="-0.17661">
        <ele>44.4</ele>
      </trkpt>
      <trkpt lat="44.90236" lon="-0.17651">
        <ele>44.8</ele>
      </trkpt>
      <trkpt lat="44.90242" lon="-0.17642">
        <ele>45</ele>
      </trkpt>
      <trkpt lat="44.90251" lon="-0.17633">
        <ele>45</ele>
      </trkpt>
      <trkpt lat="44.90268" lon="-0.17617">
        <ele>45</ele>
      </trkpt>
      <trkpt lat="44.90287" lon="-0.176">
        <ele>45</ele>
      </trkpt>
      <trkpt lat="44.903" lon="-0.17587">
        <ele>45</ele>
      </trkpt>
      <trkpt lat="44.90314" lon="-0.17573">
        <ele>45</ele>
      </trkpt>
      <trkpt lat="44.90325" lon="-0.17559">
        <ele>45</ele>
      </trkpt>
      <trkpt lat="44.90341" lon="-0.17542">
        <ele>45</ele>
      </trkpt>
      <trkpt lat="44.90357" lon="-0.17526">
        <ele>45</ele>
      </trkpt>
      <trkpt lat="44.90371" lon="-0.17512">
        <ele>45</ele>
      </trkpt>
      <trkpt lat="44.90385" lon="-0.17501">
        <ele>45</ele>
      </trkpt>
      <trkpt lat="44.904" lon="-0.1749">
        <ele>45</ele>
      </trkpt>
      <trkpt lat="44.90413" lon="-0.17479">
        <ele>45</ele>
      </trkpt>
      <trkpt lat="44.90431" lon="-0.17461">
        <ele>45</ele>
      </trkpt>
      <trkpt lat="44.90442" lon="-0.1745">
        <ele>45</ele>
      </trkpt>
      <trkpt lat="44.90447" lon="-0.17445">
        <ele>45</ele>
      </trkpt>
      <trkpt lat="44.90461" lon="-0.17428">
        <ele>45</ele>
      </trkpt>
      <trkpt lat="44.90475" lon="-0.17408">
        <ele>45</ele>
      </trkpt>
      <trkpt lat="44.90488" lon="-0.17389">
        <ele>45</ele>
      </trkpt>
      <trkpt lat="44.90498" lon="-0.17372">
        <ele>45</ele>
      </trkpt>
      <trkpt lat="44.90513" lon="-0.17355">
        <ele>45.1</ele>
      </trkpt>
      <trkpt lat="44.90547" lon="-0.17318">
        <ele>45</ele>
      </trkpt>
      <trkpt lat="44.90557" lon="-0.17306">
        <ele>45</ele>
      </trkpt>
      <trkpt lat="44.9056" lon="-0.17302">
        <ele>45</ele>
      </trkpt>
      <trkpt lat="44.9056" lon="-0.17302">
        <ele>45</ele>
      </trkpt>
      <trkpt lat="44.9052" lon="-0.17241">
        <ele>45.5</ele>
      </trkpt>
      <trkpt lat="44.90601" lon="-0.17135">
        <ele>45.4</ele>
      </trkpt>
      <trkpt lat="44.90601" lon="-0.17135">
        <ele>45.4</ele>
      </trkpt>
      <trkpt lat="44.90606" lon="-0.17135">
        <ele>45.2</ele>
      </trkpt>
      <trkpt lat="44.90611" lon="-0.17136">
        <ele>45</ele>
      </trkpt>
      <trkpt lat="44.90615" lon="-0.17139">
        <ele>45</ele>
      </trkpt>
      <trkpt lat="44.9062" lon="-0.17143">
        <ele>45</ele>
      </trkpt>
      <trkpt lat="44.90671" lon="-0.17203">
        <ele>44</ele>
      </trkpt>
      <trkpt lat="44.9075" lon="-0.17301">
        <ele>43.2</ele>
      </trkpt>
      <trkpt lat="44.90755" lon="-0.17307">
        <ele>43</ele>
      </trkpt>
      <trkpt lat="44.90782" lon="-0.17337">
        <ele>43</ele>
      </trkpt>
      <trkpt lat="44.90793" lon="-0.17347">
        <ele>43</ele>
      </trkpt>
      <trkpt lat="44.90798" lon="-0.17349">
        <ele>43</ele>
      </trkpt>
      <trkpt lat="44.90802" lon="-0.1735">
        <ele>43</ele>
      </trkpt>
      <trkpt lat="44.90806" lon="-0.1735">
        <ele>43</ele>
      </trkpt>
      <trkpt lat="44.90809" lon="-0.1735">
        <ele>43</ele>
      </trkpt>
      <trkpt lat="44.90812" lon="-0.17348">
        <ele>43</ele>
      </trkpt>
      <trkpt lat="44.90815" lon="-0.17346">
        <ele>43</ele>
      </trkpt>
      <trkpt lat="44.90826" lon="-0.17335">
        <ele>43</ele>
      </trkpt>
      <trkpt lat="44.90831" lon="-0.1733">
        <ele>43</ele>
      </trkpt>
      <trkpt lat="44.90833" lon="-0.17328">
        <ele>43</ele>
      </trkpt>
      <trkpt lat="44.90836" lon="-0.17326">
        <ele>42.9</ele>
      </trkpt>
      <trkpt lat="44.90839" lon="-0.17325">
        <ele>42.9</ele>
      </trkpt>
      <trkpt lat="44.90842" lon="-0.17324">
        <ele>42.8</ele>
      </trkpt>
      <trkpt lat="44.90855" lon="-0.17324">
        <ele>42.5</ele>
      </trkpt>
      <trkpt lat="44.90864" lon="-0.17324">
        <ele>42.3</ele>
      </trkpt>
      <trkpt lat="44.90871" lon="-0.17326">
        <ele>42.3</ele>
      </trkpt>
      <trkpt lat="44.90878" lon="-0.17329">
        <ele>42.2</ele>
      </trkpt>
      <trkpt lat="44.90887" lon="-0.17334">
        <ele>42</ele>
      </trkpt>
      <trkpt lat="44.90896" lon="-0.17342">
        <ele>42</ele>
      </trkpt>
      <trkpt lat="44.90935" lon="-0.17385">
        <ele>42</ele>
      </trkpt>
      <trkpt lat="44.90948" lon="-0.17397">
        <ele>42</ele>
      </trkpt>
      <trkpt lat="44.90961" lon="-0.17405">
        <ele>41.7</ele>
      </trkpt>
      <trkpt lat="44.90987" lon="-0.17421">
        <ele>41</ele>
      </trkpt>
      <trkpt lat="44.91003" lon="-0.1743">
        <ele>40.9</ele>
      </trkpt>
      <trkpt lat="44.91018" lon="-0.17442">
        <ele>40.4</ele>
      </trkpt>
      <trkpt lat="44.91029" lon="-0.17452">
        <ele>40.3</ele>
      </trkpt>
      <trkpt lat="44.91038" lon="-0.17463">
        <ele>40.4</ele>
      </trkpt>
      <trkpt lat="44.91052" lon="-0.17483">
        <ele>40.1</ele>
      </trkpt>
      <trkpt lat="44.91083" lon="-0.17557">
        <ele>40</ele>
      </trkpt>
      <trkpt lat="44.91105" lon="-0.17597">
        <ele>39.2</ele>
      </trkpt>
      <trkpt lat="44.91117" lon="-0.17617">
        <ele>39</ele>
      </trkpt>
      <trkpt lat="44.91129" lon="-0.17639">
        <ele>39</ele>
      </trkpt>
      <trkpt lat="44.91203" lon="-0.17757">
        <ele>37</ele>
      </trkpt>
      <trkpt lat="44.91216" lon="-0.1778">
        <ele>37</ele>
      </trkpt>
      <trkpt lat="44.91225" lon="-0.17793">
        <ele>37</ele>
      </trkpt>
      <trkpt lat="44.91235" lon="-0.17806">
        <ele>37</ele>
      </trkpt>
      <trkpt lat="44.91244" lon="-0.17814">
        <ele>36.9</ele>
      </trkpt>
      <trkpt lat="44.91258" lon="-0.17825">
        <ele>37.1</ele>
      </trkpt>
      <trkpt lat="44.91281" lon="-0.17843">
        <ele>37.1</ele>
      </trkpt>
      <trkpt lat="44.91297" lon="-0.1786">
        <ele>37.7</ele>
      </trkpt>
      <trkpt lat="44.91312" lon="-0.1788">
        <ele>37.5</ele>
      </trkpt>
      <trkpt lat="44.91324" lon="-0.17909">
        <ele>37.7</ele>
      </trkpt>
      <trkpt lat="44.91342" lon="-0.17957">
        <ele>37.7</ele>
      </trkpt>
      <trkpt lat="44.91391" lon="-0.18141">
        <ele>36.1</ele>
      </trkpt>
      <trkpt lat="44.9143" lon="-0.18129">
        <ele>37.2</ele>
      </trkpt>
      <trkpt lat="44.91468" lon="-0.18112">
        <ele>38</ele>
      </trkpt>
      <trkpt lat="44.91517" lon="-0.18083">
        <ele>39</ele>
      </trkpt>
      <trkpt lat="44.91565" lon="-0.18051">
        <ele>40</ele>
      </trkpt>
      <trkpt lat="44.91568" lon="-0.18051">
        <ele>40</ele>
      </trkpt>
      <trkpt lat="44.91569" lon="-0.1805">
        <ele>40</ele>
      </trkpt>
      <trkpt lat="44.91577" lon="-0.18051">
        <ele>40</ele>
      </trkpt>
      <trkpt lat="44.91576" lon="-0.18064">
        <ele>40</ele>
      </trkpt>
      <trkpt lat="44.91575" lon="-0.18079">
        <ele>40</ele>
      </trkpt>
      <trkpt lat="44.91574" lon="-0.18091">
        <ele>39.9</ele>
      </trkpt>
      <trkpt lat="44.91575" lon="-0.18114">
        <ele>39.6</ele>
      </trkpt>
      <trkpt lat="44.91581" lon="-0.18223">
        <ele>38</ele>
      </trkpt>
      <trkpt lat="44.91583" lon="-0.18283">
        <ele>37</ele>
      </trkpt>
      <trkpt lat="44.91584" lon="-0.18356">
        <ele>37</ele>
      </trkpt>
      <trkpt lat="44.91586" lon="-0.18417">
        <ele>37</ele>
      </trkpt>
      <trkpt lat="44.91586" lon="-0.18461">
        <ele>36.5</ele>
      </trkpt>
      <trkpt lat="44.91585" lon="-0.18488">
        <ele>36.1</ele>
      </trkpt>
      <trkpt lat="44.91583" lon="-0.18514">
        <ele>36</ele>
      </trkpt>
      <trkpt lat="44.9158" lon="-0.18558">
        <ele>35</ele>
      </trkpt>
      <trkpt lat="44.91579" lon="-0.18585">
        <ele>35</ele>
      </trkpt>
      <trkpt lat="44.91578" lon="-0.18613">
        <ele>35</ele>
      </trkpt>
      <trkpt lat="44.91579" lon="-0.18696">
        <ele>34</ele>
      </trkpt>
      <trkpt lat="44.91579" lon="-0.18734">
        <ele>34</ele>
      </trkpt>
      <trkpt lat="44.91579" lon="-0.18766">
        <ele>34</ele>
      </trkpt>
      <trkpt lat="44.91578" lon="-0.18783">
        <ele>34</ele>
      </trkpt>
      <trkpt lat="44.91577" lon="-0.188">
        <ele>34</ele>
      </trkpt>
      <trkpt lat="44.91574" lon="-0.18821">
        <ele>34</ele>
      </trkpt>
      <trkpt lat="44.91567" lon="-0.1887">
        <ele>34.4</ele>
      </trkpt>
      <trkpt lat="44.91562" lon="-0.18902">
        <ele>34.2</ele>
      </trkpt>
      <trkpt lat="44.9156" lon="-0.18916">
        <ele>34.2</ele>
      </trkpt>
      <trkpt lat="44.91559" lon="-0.18929">
        <ele>34.5</ele>
      </trkpt>
      <trkpt lat="44.91559" lon="-0.18929">
        <ele>34.5</ele>
      </trkpt>
      <trkpt lat="44.91581" lon="-0.1895">
        <ele>35.2</ele>
      </trkpt>
      <trkpt lat="44.91657" lon="-0.19007">
        <ele>36.5</ele>
      </trkpt>
      <trkpt lat="44.91665" lon="-0.19012">
        <ele>36.5</ele>
      </trkpt>
      <trkpt lat="44.91722" lon="-0.19058">
        <ele>36</ele>
      </trkpt>
      <trkpt lat="44.91736" lon="-0.19071">
        <ele>36.2</ele>
      </trkpt>
      <trkpt lat="44.91765" lon="-0.19099">
        <ele>36.2</ele>
      </trkpt>
      <trkpt lat="44.91793" lon="-0.19132">
        <ele>36</ele>
      </trkpt>
      <trkpt lat="44.91837" lon="-0.19175">
        <ele>37</ele>
      </trkpt>
      <trkpt lat="44.91844" lon="-0.19182">
        <ele>37</ele>
      </trkpt>
      <trkpt lat="44.91905" lon="-0.19243">
        <ele>35.4</ele>
      </trkpt>
      <trkpt lat="44.9193" lon="-0.19268">
        <ele>34.2</ele>
      </trkpt>
      <trkpt lat="44.91972" lon="-0.19306">
        <ele>34</ele>
      </trkpt>
      <trkpt lat="44.92074" lon="-0.19391">
        <ele>33.9</ele>
      </trkpt>
      <trkpt lat="44.92077" lon="-0.19394">
        <ele>33.8</ele>
      </trkpt>
      <trkpt lat="44.92093" lon="-0.19408">
        <ele>33.3</ele>
      </trkpt>
      <trkpt lat="44.92146" lon="-0.19452">
        <ele>33</ele>
      </trkpt>
      <trkpt lat="44.92177" lon="-0.19481">
        <ele>32.7</ele>
      </trkpt>
      <trkpt lat="44.922" lon="-0.19504">
        <ele>32.2</ele>
      </trkpt>
      <trkpt lat="44.92208" lon="-0.19512">
        <ele>32.3</ele>
      </trkpt>
      <trkpt lat="44.92229" lon="-0.19533">
        <ele>32.2</ele>
      </trkpt>
      <trkpt lat="44.92237" lon="-0.19544">
        <ele>32.5</ele>
      </trkpt>
      <trkpt lat="44.92257" lon="-0.19581">
        <ele>33.3</ele>
      </trkpt>
      <trkpt lat="44.92303" lon="-0.19671">
        <ele>34.2</ele>
      </trkpt>
      <trkpt lat="44.92327" lon="-0.19709">
        <ele>35</ele>
      </trkpt>
      <trkpt lat="44.92333" lon="-0.19717">
        <ele>35</ele>
      </trkpt>
      <trkpt lat="44.92335" lon="-0.19719">
        <ele>35.1</ele>
      </trkpt>
      <trkpt lat="44.9234" lon="-0.19724">
        <ele>35.5</ele>
      </trkpt>
      <trkpt lat="44.92351" lon="-0.19738">
        <ele>36.1</ele>
      </trkpt>
      <trkpt lat="44.9243" lon="-0.19813">
        <ele>38.6</ele>
      </trkpt>
      <trkpt lat="44.92451" lon="-0.19829">
        <ele>39</ele>
      </trkpt>
      <trkpt lat="44.92461" lon="-0.19834">
        <ele>39</ele>
      </trkpt>
      <trkpt lat="44.92496" lon="-0.19841">
        <ele>39</ele>
      </trkpt>
      <trkpt lat="44.92523" lon="-0.19848">
        <ele>39</ele>
      </trkpt>
      <trkpt lat="44.92543" lon="-0.19854">
        <ele>39</ele>
      </trkpt>
      <trkpt lat="44.92573" lon="-0.19869">
        <ele>39</ele>
      </trkpt>
      <trkpt lat="44.92593" lon="-0.19875">
        <ele>38.7</ele>
      </trkpt>
      <trkpt lat="44.92671" lon="-0.19887">
        <ele>38</ele>
      </trkpt>
      <trkpt lat="44.92684" lon="-0.19894">
        <ele>37.9</ele>
      </trkpt>
      <trkpt lat="44.92685" lon="-0.19895">
        <ele>37.9</ele>
      </trkpt>
      <trkpt lat="44.92685" lon="-0.19894">
        <ele>37.9</ele>
      </trkpt>
      <trkpt lat="44.92689" lon="-0.19898">
        <ele>37.9</ele>
      </trkpt>
      <trkpt lat="44.92707" lon="-0.19876">
        <ele>38</ele>
      </trkpt>
      <trkpt lat="44.92736" lon="-0.19833">
        <ele>38</ele>
      </trkpt>
      <trkpt lat="44.92776" lon="-0.1977">
        <ele>38</ele>
      </trkpt>
      <trkpt lat="44.92859" lon="-0.19652">
        <ele>38</ele>
      </trkpt>
      <trkpt lat="44.9293" lon="-0.19555">
        <ele>38</ele>
      </trkpt>
      <trkpt lat="44.92956" lon="-0.19517">
        <ele>38</ele>
      </trkpt>
      <trkpt lat="44.92971" lon="-0.19494">
        <ele>38</ele>
      </trkpt>
      <trkpt lat="44.92983" lon="-0.19478">
        <ele>38</ele>
      </trkpt>
      <trkpt lat="44.93004" lon="-0.19454">
        <ele>37.9</ele>
      </trkpt>
      <trkpt lat="44.93014" lon="-0.19441">
        <ele>37.5</ele>
      </trkpt>
      <trkpt lat="44.93024" lon="-0.19431">
        <ele>37.1</ele>
      </trkpt>
      <trkpt lat="44.93048" lon="-0.19404">
        <ele>36.8</ele>
      </trkpt>
      <trkpt lat="44.93059" lon="-0.19392">
        <ele>36.1</ele>
      </trkpt>
      <trkpt lat="44.93063" lon="-0.19387">
        <ele>36</ele>
      </trkpt>
      <trkpt lat="44.93066" lon="-0.1938">
        <ele>36.2</ele>
      </trkpt>
      <trkpt lat="44.93068" lon="-0.19371">
        <ele>36.4</ele>
      </trkpt>
      <trkpt lat="44.9307" lon="-0.19359">
        <ele>36.5</ele>
      </trkpt>
      <trkpt lat="44.93073" lon="-0.19337">
        <ele>36.4</ele>
      </trkpt>
      <trkpt lat="44.93074" lon="-0.19332">
        <ele>36.3</ele>
      </trkpt>
      <trkpt lat="44.93076" lon="-0.19316">
        <ele>36.3</ele>
      </trkpt>
      <trkpt lat="44.93077" lon="-0.19305">
        <ele>36.2</ele>
      </trkpt>
      <trkpt lat="44.93082" lon="-0.19257">
        <ele>36.3</ele>
      </trkpt>
      <trkpt lat="44.93087" lon="-0.19212">
        <ele>36</ele>
      </trkpt>
      <trkpt lat="44.93093" lon="-0.19175">
        <ele>35.8</ele>
      </trkpt>
      <trkpt lat="44.93097" lon="-0.19155">
        <ele>35.5</ele>
      </trkpt>
      <trkpt lat="44.93101" lon="-0.19137">
        <ele>35.4</ele>
      </trkpt>
      <trkpt lat="44.9311" lon="-0.19107">
        <ele>35</ele>
      </trkpt>
      <trkpt lat="44.93119" lon="-0.19075">
        <ele>35.2</ele>
      </trkpt>
      <trkpt lat="44.93124" lon="-0.19055">
        <ele>35.5</ele>
      </trkpt>
      <trkpt lat="44.93127" lon="-0.19043">
        <ele>35.2</ele>
      </trkpt>
      <trkpt lat="44.93127" lon="-0.19043">
        <ele>35.2</ele>
      </trkpt>
      <trkpt lat="44.93106" lon="-0.18986">
        <ele>35.6</ele>
      </trkpt>
      <trkpt lat="44.93089" lon="-0.18939">
        <ele>35.8</ele>
      </trkpt>
      <trkpt lat="44.93071" lon="-0.18878">
        <ele>36.4</ele>
      </trkpt>
      <trkpt lat="44.93058" lon="-0.18829">
        <ele>36.8</ele>
      </trkpt>
      <trkpt lat="44.93028" lon="-0.18756">
        <ele>37</ele>
      </trkpt>
      <trkpt lat="44.9301" lon="-0.18716">
        <ele>37</ele>
      </trkpt>
      <trkpt lat="44.93006" lon="-0.18708">
        <ele>37</ele>
      </trkpt>
      <trkpt lat="44.92967" lon="-0.18633">
        <ele>36.8</ele>
      </trkpt>
      <trkpt lat="44.92954" lon="-0.18608">
        <ele>36.6</ele>
      </trkpt>
      <trkpt lat="44.92929" lon="-0.18561">
        <ele>35.6</ele>
      </trkpt>
      <trkpt lat="44.92908" lon="-0.18519">
        <ele>35.4</ele>
      </trkpt>
      <trkpt lat="44.92897" lon="-0.18497">
        <ele>34.3</ele>
      </trkpt>
      <trkpt lat="44.92891" lon="-0.18483">
        <ele>34.1</ele>
      </trkpt>
      <trkpt lat="44.92872" lon="-0.18461">
        <ele>33.8</ele>
      </trkpt>
      <trkpt lat="44.92803" lon="-0.18369">
        <ele>31.3</ele>
      </trkpt>
      <trkpt lat="44.92797" lon="-0.18354">
        <ele>30.9</ele>
      </trkpt>
      <trkpt lat="44.92793" lon="-0.18341">
        <ele>30.7</ele>
      </trkpt>
      <trkpt lat="44.92789" lon="-0.18323">
        <ele>30.4</ele>
      </trkpt>
      <trkpt lat="44.92788" lon="-0.18316">
        <ele>30.4</ele>
      </trkpt>
      <trkpt lat="44.92785" lon="-0.18294">
        <ele>30.6</ele>
      </trkpt>
      <trkpt lat="44.92781" lon="-0.18272">
        <ele>30.8</ele>
      </trkpt>
      <trkpt lat="44.92776" lon="-0.18257">
        <ele>30.3</ele>
      </trkpt>
      <trkpt lat="44.92763" lon="-0.18229">
        <ele>30</ele>
      </trkpt>
      <trkpt lat="44.9275" lon="-0.18203">
        <ele>30</ele>
      </trkpt>
      <trkpt lat="44.92737" lon="-0.18176">
        <ele>30</ele>
      </trkpt>
      <trkpt lat="44.92719" lon="-0.18149">
        <ele>30.1</ele>
      </trkpt>
      <trkpt lat="44.92698" lon="-0.18127">
        <ele>30.9</ele>
      </trkpt>
      <trkpt lat="44.92693" lon="-0.18122">
        <ele>31</ele>
      </trkpt>
      <trkpt lat="44.92664" lon="-0.18097">
        <ele>31</ele>
      </trkpt>
      <trkpt lat="44.92616" lon="-0.18062">
        <ele>31.8</ele>
      </trkpt>
      <trkpt lat="44.92608" lon="-0.18056">
        <ele>32</ele>
      </trkpt>
      <trkpt lat="44.9242" lon="-0.17923">
        <ele>33.9</ele>
      </trkpt>
      <trkpt lat="44.92405" lon="-0.17913">
        <ele>34.4</ele>
      </trkpt>
      <trkpt lat="44.92405" lon="-0.17914">
        <ele>34.4</ele>
      </trkpt>
      <trkpt lat="44.92386" lon="-0.17903">
        <ele>35</ele>
      </trkpt>
      <trkpt lat="44.9237" lon="-0.17881">
        <ele>34.9</ele>
      </trkpt>
      <trkpt lat="44.92352" lon="-0.17861">
        <ele>35</ele>
      </trkpt>
      <trkpt lat="44.92323" lon="-0.17829">
        <ele>35</ele>
      </trkpt>
      <trkpt lat="44.92318" lon="-0.17822">
        <ele>35</ele>
      </trkpt>
      <trkpt lat="44.92315" lon="-0.17813">
        <ele>35</ele>
      </trkpt>
      <trkpt lat="44.92312" lon="-0.17805">
        <ele>35</ele>
      </trkpt>
      <trkpt lat="44.92308" lon="-0.17791">
        <ele>35</ele>
      </trkpt>
      <trkpt lat="44.92305" lon="-0.17773">
        <ele>35</ele>
      </trkpt>
      <trkpt lat="44.92303" lon="-0.17759">
        <ele>35</ele>
      </trkpt>
      <trkpt lat="44.923" lon="-0.17714">
        <ele>34.8</ele>
      </trkpt>
      <trkpt lat="44.92299" lon="-0.177">
        <ele>34.4</ele>
      </trkpt>
      <trkpt lat="44.92298" lon="-0.17693">
        <ele>34.3</ele>
      </trkpt>
      <trkpt lat="44.92295" lon="-0.17622">
        <ele>34.4</ele>
      </trkpt>
      <trkpt lat="44.92295" lon="-0.1761">
        <ele>34.4</ele>
      </trkpt>
      <trkpt lat="44.92295" lon="-0.1759">
        <ele>34.4</ele>
      </trkpt>
      <trkpt lat="44.92296" lon="-0.17578">
        <ele>34.3</ele>
      </trkpt>
      <trkpt lat="44.92299" lon="-0.17566">
        <ele>34.2</ele>
      </trkpt>
      <trkpt lat="44.92301" lon="-0.17559">
        <ele>34.2</ele>
      </trkpt>
      <trkpt lat="44.92304" lon="-0.17553">
        <ele>34.1</ele>
      </trkpt>
      <trkpt lat="44.92322" lon="-0.17529">
        <ele>33.4</ele>
      </trkpt>
      <trkpt lat="44.92343" lon="-0.17504">
        <ele>33</ele>
      </trkpt>
      <trkpt lat="44.92351" lon="-0.17493">
        <ele>32.8</ele>
      </trkpt>
      <trkpt lat="44.92357" lon="-0.17478">
        <ele>32.3</ele>
      </trkpt>
      <trkpt lat="44.92361" lon="-0.17461">
        <ele>32</ele>
      </trkpt>
      <trkpt lat="44.92366" lon="-0.17418">
        <ele>31.8</ele>
      </trkpt>
      <trkpt lat="44.92373" lon="-0.17363">
        <ele>31</ele>
      </trkpt>
      <trkpt lat="44.92381" lon="-0.17309">
        <ele>30.4</ele>
      </trkpt>
      <trkpt lat="44.92386" lon="-0.17274">
        <ele>30.1</ele>
      </trkpt>
      <trkpt lat="44.92398" lon="-0.17219">
        <ele>29.6</ele>
      </trkpt>
      <trkpt lat="44.92413" lon="-0.17163">
        <ele>28.1</ele>
      </trkpt>
      <trkpt lat="44.92428" lon="-0.17102">
        <ele>26.9</ele>
      </trkpt>
      <trkpt lat="44.92438" lon="-0.17055">
        <ele>26</ele>
      </trkpt>
      <trkpt lat="44.92444" lon="-0.17022">
        <ele>25</ele>
      </trkpt>
      <trkpt lat="44.92381" lon="-0.17048">
        <ele>26.8</ele>
      </trkpt>
      <trkpt lat="44.92344" lon="-0.17065">
        <ele>28</ele>
      </trkpt>
      <trkpt lat="44.92254" lon="-0.17106">
        <ele>31.9</ele>
      </trkpt>
      <trkpt lat="44.9217" lon="-0.17146">
        <ele>34.2</ele>
      </trkpt>
      <trkpt lat="44.92098" lon="-0.17178">
        <ele>36</ele>
      </trkpt>
      <trkpt lat="44.92065" lon="-0.17194">
        <ele>36.6</ele>
      </trkpt>
      <trkpt lat="44.92058" lon="-0.17171">
        <ele>36.1</ele>
      </trkpt>
      <trkpt lat="44.92058" lon="-0.17171">
        <ele>36.1</ele>
      </trkpt>
      <trkpt lat="44.92" lon="-0.16992">
        <ele>35.7</ele>
      </trkpt>
      <trkpt lat="44.91976" lon="-0.16912">
        <ele>35</ele>
      </trkpt>
      <trkpt lat="44.91948" lon="-0.16816">
        <ele>33.9</ele>
      </trkpt>
      <trkpt lat="44.91933" lon="-0.16774">
        <ele>33</ele>
      </trkpt>
      <trkpt lat="44.91914" lon="-0.16733">
        <ele>33.1</ele>
      </trkpt>
      <trkpt lat="44.91907" lon="-0.16721">
        <ele>33.3</ele>
      </trkpt>
      <trkpt lat="44.91899" lon="-0.16709">
        <ele>33.3</ele>
      </trkpt>
      <trkpt lat="44.91885" lon="-0.16695">
        <ele>33.2</ele>
      </trkpt>
      <trkpt lat="44.91805" lon="-0.16642">
        <ele>35.1</ele>
      </trkpt>
      <trkpt lat="44.91723" lon="-0.16588">
        <ele>36.2</ele>
      </trkpt>
      <trkpt lat="44.9167" lon="-0.16552">
        <ele>37</ele>
      </trkpt>
      <trkpt lat="44.91654" lon="-0.1654">
        <ele>37.2</ele>
      </trkpt>
      <trkpt lat="44.91637" lon="-0.16521">
        <ele>37.1</ele>
      </trkpt>
      <trkpt lat="44.91631" lon="-0.16514">
        <ele>37.1</ele>
      </trkpt>
      <trkpt lat="44.91615" lon="-0.16496">
        <ele>37</ele>
      </trkpt>
      <trkpt lat="44.91597" lon="-0.16474">
        <ele>37.5</ele>
      </trkpt>
      <trkpt lat="44.91584" lon="-0.16461">
        <ele>37.6</ele>
      </trkpt>
      <trkpt lat="44.91573" lon="-0.16453">
        <ele>37.6</ele>
      </trkpt>
      <trkpt lat="44.91545" lon="-0.16439">
        <ele>38</ele>
      </trkpt>
      <trkpt lat="44.91475" lon="-0.1641">
        <ele>38.7</ele>
      </trkpt>
      <trkpt lat="44.91398" lon="-0.16382">
        <ele>39</ele>
      </trkpt>
      <trkpt lat="44.91373" lon="-0.16373">
        <ele>39.2</ele>
      </trkpt>
      <trkpt lat="44.91349" lon="-0.16367">
        <ele>39.6</ele>
      </trkpt>
      <trkpt lat="44.91332" lon="-0.16364">
        <ele>40</ele>
      </trkpt>
      <trkpt lat="44.91299" lon="-0.16363">
        <ele>40</ele>
      </trkpt>
      <trkpt lat="44.9129" lon="-0.16364">
        <ele>40.1</ele>
      </trkpt>
      <trkpt lat="44.9128" lon="-0.16364">
        <ele>40.1</ele>
      </trkpt>
      <trkpt lat="44.91267" lon="-0.16367">
        <ele>40.5</ele>
      </trkpt>
      <trkpt lat="44.91218" lon="-0.1638">
        <ele>41.1</ele>
      </trkpt>
      <trkpt lat="44.91119" lon="-0.16427">
        <ele>43</ele>
      </trkpt>
      <trkpt lat="44.91116" lon="-0.1643">
        <ele>43</ele>
      </trkpt>
      <trkpt lat="44.91116" lon="-0.16429">
        <ele>43</ele>
      </trkpt>
      <trkpt lat="44.91119" lon="-0.16427">
        <ele>43</ele>
      </trkpt>
      <trkpt lat="44.91118" lon="-0.16409">
        <ele>42.9</ele>
      </trkpt>
      <trkpt lat="44.91108" lon="-0.16351">
        <ele>43.1</ele>
      </trkpt>
      <trkpt lat="44.91103" lon="-0.16311">
        <ele>43.3</ele>
      </trkpt>
      <trkpt lat="44.91101" lon="-0.16287">
        <ele>43.4</ele>
      </trkpt>
      <trkpt lat="44.91101" lon="-0.16268">
        <ele>43.4</ele>
      </trkpt>
      <trkpt lat="44.91101" lon="-0.16229">
        <ele>43.4</ele>
      </trkpt>
      <trkpt lat="44.91099" lon="-0.16203">
        <ele>43.4</ele>
      </trkpt>
      <trkpt lat="44.91099" lon="-0.16191">
        <ele>43.4</ele>
      </trkpt>
      <trkpt lat="44.91096" lon="-0.16157">
        <ele>43.5</ele>
      </trkpt>
      <trkpt lat="44.91091" lon="-0.16133">
        <ele>43.7</ele>
      </trkpt>
      <trkpt lat="44.91084" lon="-0.16108">
        <ele>44</ele>
      </trkpt>
      <trkpt lat="44.91069" lon="-0.16078">
        <ele>44.5</ele>
      </trkpt>
      <trkpt lat="44.91065" lon="-0.16072">
        <ele>44.7</ele>
      </trkpt>
      <trkpt lat="44.91035" lon="-0.16023">
        <ele>45.8</ele>
      </trkpt>
      <trkpt lat="44.91024" lon="-0.15998">
        <ele>46.3</ele>
      </trkpt>
      <trkpt lat="44.91008" lon="-0.15951">
        <ele>47.7</ele>
      </trkpt>
      <trkpt lat="44.90998" lon="-0.15919">
        <ele>48.1</ele>
      </trkpt>
      <trkpt lat="44.90992" lon="-0.15898">
        <ele>48.3</ele>
      </trkpt>
      <trkpt lat="44.9098" lon="-0.15858">
        <ele>48.7</ele>
      </trkpt>
      <trkpt lat="44.90964" lon="-0.15811">
        <ele>48.4</ele>
      </trkpt>
      <trkpt lat="44.90953" lon="-0.15783">
        <ele>48.7</ele>
      </trkpt>
      <trkpt lat="44.90944" lon="-0.15763">
        <ele>48.5</ele>
      </trkpt>
      <trkpt lat="44.90925" lon="-0.15721">
        <ele>48.7</ele>
      </trkpt>
      <trkpt lat="44.90914" lon="-0.15693">
        <ele>48.1</ele>
      </trkpt>
      <trkpt lat="44.90904" lon="-0.15658">
        <ele>47.8</ele>
      </trkpt>
      <trkpt lat="44.9086" lon="-0.15449">
        <ele>48</ele>
      </trkpt>
      <trkpt lat="44.90839" lon="-0.15457">
        <ele>48</ele>
      </trkpt>
      <trkpt lat="44.90839" lon="-0.15457">
        <ele>48</ele>
      </trkpt>
      <trkpt lat="44.90773" lon="-0.15484">
        <ele>49.5</ele>
      </trkpt>
      <trkpt lat="44.90651" lon="-0.15535">
        <ele>53.6</ele>
      </trkpt>
      <trkpt lat="44.90644" lon="-0.15537">
        <ele>53.8</ele>
      </trkpt>
      <trkpt lat="44.90638" lon="-0.15537">
        <ele>54</ele>
      </trkpt>
      <trkpt lat="44.90631" lon="-0.15537">
        <ele>54.4</ele>
      </trkpt>
      <trkpt lat="44.90622" lon="-0.15536">
        <ele>54.8</ele>
      </trkpt>
      <trkpt lat="44.90572" lon="-0.15527">
        <ele>56.8</ele>
      </trkpt>
      <trkpt lat="44.90531" lon="-0.15522">
        <ele>59.1</ele>
      </trkpt>
      <trkpt lat="44.90473" lon="-0.15512">
        <ele>63.4</ele>
      </trkpt>
      <trkpt lat="44.90446" lon="-0.15512">
        <ele>65.3</ele>
      </trkpt>
      <trkpt lat="44.90412" lon="-0.15516">
        <ele>67.2</ele>
      </trkpt>
      <trkpt lat="44.90349" lon="-0.15537">
        <ele>68.8</ele>
      </trkpt>
      <trkpt lat="44.9032" lon="-0.15546">
        <ele>70.1</ele>
      </trkpt>
      <trkpt lat="44.9031" lon="-0.15548">
        <ele>70.6</ele>
      </trkpt>
      <trkpt lat="44.903" lon="-0.15549">
        <ele>70.9</ele>
      </trkpt>
      <trkpt lat="44.90283" lon="-0.15548">
        <ele>71.3</ele>
      </trkpt>
      <trkpt lat="44.90275" lon="-0.15548">
        <ele>71.5</ele>
      </trkpt>
      <trkpt lat="44.90269" lon="-0.15546">
        <ele>71.5</ele>
      </trkpt>
      <trkpt lat="44.90263" lon="-0.15543">
        <ele>71.6</ele>
      </trkpt>
      <trkpt lat="44.9021" lon="-0.15485">
        <ele>73.4</ele>
      </trkpt>
      <trkpt lat="44.90173" lon="-0.15444">
        <ele>73.7</ele>
      </trkpt>
      <trkpt lat="44.90157" lon="-0.1543">
        <ele>72.1</ele>
      </trkpt>
      <trkpt lat="44.90134" lon="-0.15412">
        <ele>70.8</ele>
      </trkpt>
      <trkpt lat="44.9011" lon="-0.15398">
        <ele>70.2</ele>
      </trkpt>
      <trkpt lat="44.90087" lon="-0.15385">
        <ele>68.4</ele>
      </trkpt>
      <trkpt lat="44.90087" lon="-0.15385">
        <ele>68.4</ele>
      </trkpt>
      <trkpt lat="44.8994" lon="-0.15463">
        <ele>65.1</ele>
      </trkpt>
      <trkpt lat="44.89862" lon="-0.15503">
        <ele>67</ele>
      </trkpt>
      <trkpt lat="44.89835" lon="-0.15515">
        <ele>67</ele>
      </trkpt>
      <trkpt lat="44.89813" lon="-0.15523">
        <ele>67.7</ele>
      </trkpt>
      <trkpt lat="44.89792" lon="-0.15528">
        <ele>68</ele>
      </trkpt>
      <trkpt lat="44.89774" lon="-0.1553">
        <ele>68.1</ele>
      </trkpt>
      <trkpt lat="44.89755" lon="-0.1553">
        <ele>68.8</ele>
      </trkpt>
      <trkpt lat="44.89716" lon="-0.15531">
        <ele>70.4</ele>
      </trkpt>
      <trkpt lat="44.89687" lon="-0.15533">
        <ele>72.3</ele>
      </trkpt>
      <trkpt lat="44.8961" lon="-0.1554">
        <ele>75.5</ele>
      </trkpt>
      <trkpt lat="44.89602" lon="-0.15543">
        <ele>75.8</ele>
      </trkpt>
      <trkpt lat="44.89603" lon="-0.15545">
        <ele>75.8</ele>
      </trkpt>
      <trkpt lat="44.89604" lon="-0.15548">
        <ele>75.9</ele>
      </trkpt>
      <trkpt lat="44.89604" lon="-0.15551">
        <ele>75.9</ele>
      </trkpt>
      <trkpt lat="44.89604" lon="-0.15554">
        <ele>76</ele>
      </trkpt>
      <trkpt lat="44.89603" lon="-0.15559">
        <ele>75.9</ele>
      </trkpt>
      <trkpt lat="44.89601" lon="-0.15563">
        <ele>75.8</ele>
      </trkpt>
      <trkpt lat="44.89598" lon="-0.15564">
        <ele>75.8</ele>
      </trkpt>
      <trkpt lat="44.89595" lon="-0.15565">
        <ele>75.9</ele>
      </trkpt>
      <trkpt lat="44.89593" lon="-0.15565">
        <ele>75.9</ele>
      </trkpt>
      <trkpt lat="44.89591" lon="-0.15564">
        <ele>75.9</ele>
      </trkpt>
      <trkpt lat="44.89589" lon="-0.15562">
        <ele>76</ele>
      </trkpt>
      <trkpt lat="44.89587" lon="-0.15566">
        <ele>76</ele>
      </trkpt>
      <trkpt lat="44.89583" lon="-0.15575">
        <ele>76</ele>
      </trkpt>
      <trkpt lat="44.89577" lon="-0.15582">
        <ele>76.2</ele>
      </trkpt>
      <trkpt lat="44.89565" lon="-0.15597">
        <ele>76.2</ele>
      </trkpt>
      <trkpt lat="44.89541" lon="-0.15622">
        <ele>75.4</ele>
      </trkpt>
      <trkpt lat="44.89499" lon="-0.1566">
        <ele>77</ele>
      </trkpt>
      <trkpt lat="44.89479" lon="-0.15679">
        <ele>77.8</ele>
      </trkpt>
      <trkpt lat="44.89452" lon="-0.15702">
        <ele>80.1</ele>
      </trkpt>
      <trkpt lat="44.89429" lon="-0.15719">
        <ele>80.9</ele>
      </trkpt>
      <trkpt lat="44.89402" lon="-0.1574">
        <ele>80.9</ele>
      </trkpt>
      <trkpt lat="44.89396" lon="-0.15725">
        <ele>79.7</ele>
      </trkpt>
      <trkpt lat="44.89392" lon="-0.15716">
        <ele>79.8</ele>
      </trkpt>
      <trkpt lat="44.89388" lon="-0.1571">
        <ele>80.3</ele>
      </trkpt>
      <trkpt lat="44.89387" lon="-0.1571">
        <ele>80.3</ele>
      </trkpt>
      <trkpt lat="44.89382" lon="-0.15705">
        <ele>80.6</ele>
      </trkpt>
      <trkpt lat="44.89365" lon="-0.1569">
        <ele>81</ele>
      </trkpt>
      <trkpt lat="44.89364" lon="-0.15689">
        <ele>80.9</ele>
      </trkpt>
      <trkpt lat="44.89363" lon="-0.15689">
        <ele>80.9</ele>
      </trkpt>
      <trkpt lat="44.89362" lon="-0.15688">
        <ele>80.8</ele>
      </trkpt>
      <trkpt lat="44.89361" lon="-0.15689">
        <ele>80.8</ele>
      </trkpt>
      <trkpt lat="44.89359" lon="-0.15689">
        <ele>80.6</ele>
      </trkpt>
      <trkpt lat="44.89359" lon="-0.15689">
        <ele>80.6</ele>
      </trkpt>
    </trkseg>
  </trk>
  <trk>
    <name><![CDATA[ACTIVE LOG 006]]></name>
    <extensions>
      <line xmlns="http://www.topografix.com/GPX/gpx_style/0/2">
        <color>FFFF00</color>
        <width>4</width>
      </line>
    </extensions>
    <trkseg>
      <trkpt lat="44.69446" lon="-0.08933">
        <ele>-56.099854</ele>
        <time>2010-05-20T08:00:30Z</time>
      </trkpt>
      <trkpt lat="44.69437" lon="-0.08926">
        <ele>75.60083</ele>
        <time>2010-05-20T08:02:54Z</time>
      </trkpt>
      <trkpt lat="44.6943" lon="-0.08921">
        <ele>75.120239</ele>
        <time>2010-05-20T08:07:08Z</time>
      </trkpt>
      <trkpt lat="44.6943" lon="-0.08921">
        <ele>78.004028</ele>
        <time>2010-05-20T08:07:10Z</time>
      </trkpt>
      <trkpt lat="44.69442" lon="-0.08883">
        <ele>78.004028</ele>
        <time>2010-05-20T08:15:01Z</time>
      </trkpt>
      <trkpt lat="44.69471" lon="-0.08897">
        <ele>81.368774</ele>
        <time>2010-05-20T08:18:23Z</time>
      </trkpt>
      <trkpt lat="44.69501" lon="-0.08843">
        <ele>82.330078</ele>
        <time>2010-05-20T08:19:36Z</time>
      </trkpt>
      <trkpt lat="44.6952" lon="-0.08836">
        <ele>83.771973</ele>
        <time>2010-05-20T08:19:49Z</time>
      </trkpt>
      <trkpt lat="44.69629" lon="-0.08819">
        <ele>90.02063</ele>
        <time>2010-05-20T08:21:20Z</time>
      </trkpt>
      <trkpt lat="44.69737" lon="-0.08826">
        <ele>94.827148</ele>
        <time>2010-05-20T08:22:40Z</time>
      </trkpt>
      <trkpt lat="44.69863" lon="-0.08807">
        <ele>96.749878</ele>
        <time>2010-05-20T08:24:20Z</time>
      </trkpt>
      <trkpt lat="44.70013" lon="-0.08809">
        <ele>100.114502</ele>
        <time>2010-05-20T08:26:23Z</time>
      </trkpt>
      <trkpt lat="44.70055" lon="-0.08815">
        <ele>97.711182</ele>
        <time>2010-05-20T08:26:56Z</time>
      </trkpt>
      <trkpt lat="44.70068" lon="-0.08629">
        <ele>90.501343</ele>
        <time>2010-05-20T08:28:44Z</time>
      </trkpt>
      <trkpt lat="44.70238" lon="-0.08408">
        <ele>84.733398</ele>
        <time>2010-05-20T08:31:43Z</time>
      </trkpt>
      <trkpt lat="44.70265" lon="-0.08319">
        <ele>83.771973</ele>
        <time>2010-05-20T08:32:36Z</time>
      </trkpt>
      <trkpt lat="44.70271" lon="-0.08245">
        <ele>81.849365</ele>
        <time>2010-05-20T08:33:16Z</time>
      </trkpt>
      <trkpt lat="44.70273" lon="-0.08028">
        <ele>68.871582</ele>
        <time>2010-05-20T08:35:20Z</time>
      </trkpt>
      <trkpt lat="44.70263" lon="-0.08005">
        <ele>66.468262</ele>
        <time>2010-05-20T08:36:13Z</time>
      </trkpt>
      <trkpt lat="44.70273" lon="-0.08006">
        <ele>66.948975</ele>
        <time>2010-05-20T08:36:32Z</time>
      </trkpt>
      <trkpt lat="44.70274" lon="-0.07984">
        <ele>65.987671</ele>
        <time>2010-05-20T08:36:45Z</time>
      </trkpt>
      <trkpt lat="44.70252" lon="-0.07739">
        <ele>55.893799</ele>
        <time>2010-05-20T08:38:44Z</time>
      </trkpt>
      <trkpt lat="44.7025" lon="-0.07724">
        <ele>54.451782</ele>
        <time>2010-05-20T08:38:52Z</time>
      </trkpt>
      <trkpt lat="44.70265" lon="-0.07656">
        <ele>57.816528</ele>
        <time>2010-05-20T08:39:29Z</time>
      </trkpt>
      <trkpt lat="44.70354" lon="-0.07697">
        <ele>59.739136</ele>
        <time>2010-05-20T08:40:38Z</time>
      </trkpt>
      <trkpt lat="44.70501" lon="-0.07766">
        <ele>56.374512</ele>
        <time>2010-05-20T08:42:30Z</time>
      </trkpt>
      <trkpt lat="44.70612" lon="-0.07842">
        <ele>56.374512</ele>
        <time>2010-05-20T08:44:03Z</time>
      </trkpt>
      <trkpt lat="44.70757" lon="-0.07866">
        <ele>60.700317</ele>
        <time>2010-05-20T08:45:57Z</time>
      </trkpt>
      <trkpt lat="44.71051" lon="-0.07971">
        <ele>65.987671</ele>
        <time>2010-05-20T08:49:49Z</time>
      </trkpt>
      <trkpt lat="44.7119" lon="-0.08107">
        <ele>61.661743</ele>
        <time>2010-05-20T08:52:11Z</time>
      </trkpt>
      <trkpt lat="44.71224" lon="-0.0811">
        <ele>60.700317</ele>
        <time>2010-05-20T08:52:38Z</time>
      </trkpt>
      <trkpt lat="44.71263" lon="-0.08143">
        <ele>61.661743</ele>
        <time>2010-05-20T08:53:13Z</time>
      </trkpt>
      <trkpt lat="44.71301" lon="-0.08158">
        <ele>60.700317</ele>
        <time>2010-05-20T08:53:43Z</time>
      </trkpt>
      <trkpt lat="44.71357" lon="-0.08111">
        <ele>67.910278</ele>
        <time>2010-05-20T08:54:34Z</time>
      </trkpt>
      <trkpt lat="44.71375" lon="-0.08094">
        <ele>65.987671</ele>
        <time>2010-05-20T08:54:51Z</time>
      </trkpt>
      <trkpt lat="44.7146" lon="-0.0796">
        <ele>69.352295</ele>
        <time>2010-05-20T08:56:44Z</time>
      </trkpt>
      <trkpt lat="44.71551" lon="-0.08105">
        <ele>63.584351</ele>
        <time>2010-05-20T08:58:44Z</time>
      </trkpt>
      <trkpt lat="44.7158" lon="-0.08131">
        <ele>63.584351</ele>
        <time>2010-05-20T08:59:09Z</time>
      </trkpt>
      <trkpt lat="44.71643" lon="-0.08138">
        <ele>65.50708</ele>
        <time>2010-05-20T09:00:04Z</time>
      </trkpt>
      <trkpt lat="44.71738" lon="-0.08096">
        <ele>68.871582</ele>
        <time>2010-05-20T09:01:25Z</time>
      </trkpt>
      <trkpt lat="44.71832" lon="-0.08169">
        <ele>76.081421</ele>
        <time>2010-05-20T09:02:55Z</time>
      </trkpt>
      <trkpt lat="44.71888" lon="-0.08179">
        <ele>80.407471</ele>
        <time>2010-05-20T09:03:42Z</time>
      </trkpt>
      <trkpt lat="44.71938" lon="-0.08219">
        <ele>79.926636</ele>
        <time>2010-05-20T09:04:28Z</time>
      </trkpt>
      <trkpt lat="44.7198" lon="-0.08287">
        <ele>80.888184</ele>
        <time>2010-05-20T09:05:19Z</time>
      </trkpt>
      <trkpt lat="44.72006" lon="-0.08329">
        <ele>80.407471</ele>
        <time>2010-05-20T09:05:54Z</time>
      </trkpt>
      <trkpt lat="44.72026" lon="-0.08336">
        <ele>79.926636</ele>
        <time>2010-05-20T09:10:28Z</time>
      </trkpt>
      <trkpt lat="44.72051" lon="-0.08316">
        <ele>82.330078</ele>
        <time>2010-05-20T09:10:57Z</time>
      </trkpt>
      <trkpt lat="44.72098" lon="-0.08386">
        <ele>80.407471</ele>
        <time>2010-05-20T09:11:54Z</time>
      </trkpt>
      <trkpt lat="44.72156" lon="-0.08432">
        <ele>79.446045</ele>
        <time>2010-05-20T09:12:43Z</time>
      </trkpt>
      <trkpt lat="44.72162" lon="-0.08462">
        <ele>77.523438</ele>
        <time>2010-05-20T09:13:04Z</time>
      </trkpt>
      <trkpt lat="44.72206" lon="-0.08496">
        <ele>74.639526</ele>
        <time>2010-05-20T09:13:50Z</time>
      </trkpt>
      <trkpt lat="44.72237" lon="-0.08566">
        <ele>73.197632</ele>
        <time>2010-05-20T09:14:42Z</time>
      </trkpt>
      <trkpt lat="44.7233" lon="-0.08576">
        <ele>74.158813</ele>
        <time>2010-05-20T09:16:09Z</time>
      </trkpt>
      <trkpt lat="44.72745" lon="-0.08707">
        <ele>91.943237</ele>
        <time>2010-05-20T09:22:33Z</time>
      </trkpt>
      <trkpt lat="44.72839" lon="-0.08747">
        <ele>94.827148</ele>
        <time>2010-05-20T09:23:53Z</time>
      </trkpt>
      <trkpt lat="44.72936" lon="-0.08718">
        <ele>99.153076</ele>
        <time>2010-05-20T09:25:16Z</time>
      </trkpt>
      <trkpt lat="44.72988" lon="-0.08693">
        <ele>97.711182</ele>
        <time>2010-05-20T09:27:13Z</time>
      </trkpt>
      <trkpt lat="44.72985" lon="-0.08863">
        <ele>99.633789</ele>
        <time>2010-05-20T09:31:40Z</time>
      </trkpt>
      <trkpt lat="44.72975" lon="-0.09001">
        <ele>97.711182</ele>
        <time>2010-05-20T09:33:04Z</time>
      </trkpt>
      <trkpt lat="44.72976" lon="-0.09042">
        <ele>98.672485</ele>
        <time>2010-05-20T09:33:30Z</time>
      </trkpt>
      <trkpt lat="44.72976" lon="-0.09055">
        <ele>96.749878</ele>
        <time>2010-05-20T09:33:39Z</time>
      </trkpt>
      <trkpt lat="44.7298" lon="-0.09063">
        <ele>96.749878</ele>
        <time>2010-05-20T09:33:45Z</time>
      </trkpt>
      <trkpt lat="44.73039" lon="-0.09038">
        <ele>98.191895</ele>
        <time>2010-05-20T09:34:46Z</time>
      </trkpt>
      <trkpt lat="44.73088" lon="-0.09019">
        <ele>93.385132</ele>
        <time>2010-05-20T09:35:35Z</time>
      </trkpt>
      <trkpt lat="44.73232" lon="-0.09053">
        <ele>89.059326</ele>
        <time>2010-05-20T09:37:37Z</time>
      </trkpt>
      <trkpt lat="44.73314" lon="-0.09069">
        <ele>82.810791</ele>
        <time>2010-05-20T09:38:41Z</time>
      </trkpt>
      <trkpt lat="44.73503" lon="-0.09087">
        <ele>80.407471</ele>
        <time>2010-05-20T09:41:10Z</time>
      </trkpt>
      <trkpt lat="44.73536" lon="-0.09145">
        <ele>79.926636</ele>
        <time>2010-05-20T09:41:55Z</time>
      </trkpt>
      <trkpt lat="44.73603" lon="-0.09324">
        <ele>73.678223</ele>
        <time>2010-05-20T09:43:55Z</time>
      </trkpt>
      <trkpt lat="44.73496" lon="-0.09454">
        <ele>71.274902</ele>
        <time>2010-05-20T09:46:08Z</time>
      </trkpt>
      <trkpt lat="44.73474" lon="-0.09501">
        <ele>69.352295</ele>
        <time>2010-05-20T09:46:41Z</time>
      </trkpt>
      <trkpt lat="44.73469" lon="-0.09551">
        <ele>68.871582</ele>
        <time>2010-05-20T09:47:09Z</time>
      </trkpt>
      <trkpt lat="44.73716" lon="-0.09624">
        <ele>69.832886</ele>
        <time>2010-05-20T09:50:36Z</time>
      </trkpt>
      <trkpt lat="44.73839" lon="-0.09743">
        <ele>71.755493</ele>
        <time>2010-05-20T09:52:33Z</time>
      </trkpt>
      <trkpt lat="44.73888" lon="-0.09772">
        <ele>72.236206</ele>
        <time>2010-05-20T09:53:16Z</time>
      </trkpt>
      <trkpt lat="44.73971" lon="-0.0981">
        <ele>72.236206</ele>
        <time>2010-05-20T09:54:28Z</time>
      </trkpt>
      <trkpt lat="44.74109" lon="-0.09868">
        <ele>70.794189</ele>
        <time>2010-05-20T09:57:32Z</time>
      </trkpt>
      <trkpt lat="44.74191" lon="-0.09906">
        <ele>65.987671</ele>
        <time>2010-05-20T09:58:44Z</time>
      </trkpt>
      <trkpt lat="44.74273" lon="-0.10039">
        <ele>63.103638</ele>
        <time>2010-05-20T10:01:26Z</time>
      </trkpt>
      <trkpt lat="44.74276" lon="-0.10089">
        <ele>61.661743</ele>
        <time>2010-05-20T10:02:03Z</time>
      </trkpt>
      <trkpt lat="44.74235" lon="-0.10208">
        <ele>69.832886</ele>
        <time>2010-05-20T10:03:24Z</time>
      </trkpt>
      <trkpt lat="44.74241" lon="-0.10291">
        <ele>70.794189</ele>
        <time>2010-05-20T10:04:14Z</time>
      </trkpt>
      <trkpt lat="44.74276" lon="-0.10391">
        <ele>74.639526</ele>
        <time>2010-05-20T10:05:24Z</time>
      </trkpt>
      <trkpt lat="44.74305" lon="-0.10405">
        <ele>79.446045</ele>
        <time>2010-05-20T10:05:53Z</time>
      </trkpt>
      <trkpt lat="44.74232" lon="-0.10483">
        <ele>78.004028</ele>
        <time>2010-05-20T10:07:30Z</time>
      </trkpt>
      <trkpt lat="44.74173" lon="-0.10534">
        <ele>72.716919</ele>
        <time>2010-05-20T10:08:35Z</time>
      </trkpt>
      <trkpt lat="44.73971" lon="-0.10644">
        <ele>76.562134</ele>
        <time>2010-05-20T10:11:42Z</time>
      </trkpt>
      <trkpt lat="44.73947" lon="-0.10662">
        <ele>75.120239</ele>
        <time>2010-05-20T10:12:19Z</time>
      </trkpt>
      <trkpt lat="44.73949" lon="-0.10671">
        <ele>77.042847</ele>
        <time>2010-05-20T10:13:12Z</time>
      </trkpt>
      <trkpt lat="44.7387" lon="-0.10715">
        <ele>78.484741</ele>
        <time>2010-05-20T10:15:44Z</time>
      </trkpt>
      <trkpt lat="44.7384" lon="-0.10735">
        <ele>77.523438</ele>
        <time>2010-05-20T10:16:12Z</time>
      </trkpt>
      <trkpt lat="44.73756" lon="-0.10746">
        <ele>79.446045</ele>
        <time>2010-05-20T10:17:18Z</time>
      </trkpt>
      <trkpt lat="44.73653" lon="-0.10774">
        <ele>76.562134</ele>
        <time>2010-05-20T10:18:50Z</time>
      </trkpt>
      <trkpt lat="44.73643" lon="-0.10889">
        <ele>86.656006</ele>
        <time>2010-05-20T10:20:14Z</time>
      </trkpt>
      <trkpt lat="44.73642" lon="-0.11009">
        <ele>83.291382</ele>
        <time>2010-05-20T10:21:31Z</time>
      </trkpt>
      <trkpt lat="44.73634" lon="-0.11074">
        <ele>91.462524</ele>
        <time>2010-05-20T10:22:20Z</time>
      </trkpt>
      <trkpt lat="44.73625" lon="-0.11141">
        <ele>95.788452</ele>
        <time>2010-05-20T10:23:07Z</time>
      </trkpt>
      <trkpt lat="44.73628" lon="-0.11193">
        <ele>101.556396</ele>
        <time>2010-05-20T10:23:42Z</time>
      </trkpt>
      <trkpt lat="44.7363" lon="-0.11203">
        <ele>100.114502</ele>
        <time>2010-05-20T10:23:48Z</time>
      </trkpt>
      <trkpt lat="44.73629" lon="-0.11231">
        <ele>102.5177</ele>
        <time>2010-05-20T10:24:19Z</time>
      </trkpt>
      <trkpt lat="44.73627" lon="-0.11232">
        <ele>100.595093</ele>
        <time>2010-05-20T10:24:47Z</time>
      </trkpt>
      <trkpt lat="44.7369" lon="-0.11325">
        <ele>103.959717</ele>
        <time>2010-05-20T10:26:33Z</time>
      </trkpt>
      <trkpt lat="44.73725" lon="-0.11365">
        <ele>103.479004</ele>
        <time>2010-05-20T10:27:10Z</time>
      </trkpt>
      <trkpt lat="44.73792" lon="-0.11405">
        <ele>102.5177</ele>
        <time>2010-05-20T10:28:06Z</time>
      </trkpt>
      <trkpt lat="44.73847" lon="-0.11447">
        <ele>99.633789</ele>
        <time>2010-05-20T10:28:55Z</time>
      </trkpt>
      <trkpt lat="44.73934" lon="-0.11487">
        <ele>95.788452</ele>
        <time>2010-05-20T10:30:10Z</time>
      </trkpt>
      <trkpt lat="44.74027" lon="-0.11481">
        <ele>95.307739</ele>
        <time>2010-05-20T10:31:29Z</time>
      </trkpt>
      <trkpt lat="44.74091" lon="-0.11452">
        <ele>93.385132</ele>
        <time>2010-05-20T10:33:01Z</time>
      </trkpt>
      <trkpt lat="44.74117" lon="-0.11567">
        <ele>92.904541</ele>
        <time>2010-05-20T10:34:31Z</time>
      </trkpt>
      <trkpt lat="44.74151" lon="-0.11862">
        <ele>80.888184</ele>
        <time>2010-05-20T10:37:40Z</time>
      </trkpt>
      <trkpt lat="44.74149" lon="-0.11866">
        <ele>79.446045</ele>
        <time>2010-05-20T10:37:46Z</time>
      </trkpt>
      <trkpt lat="44.74064" lon="-0.11926">
        <ele>82.330078</ele>
        <time>2010-05-20T10:39:08Z</time>
      </trkpt>
      <trkpt lat="44.73859" lon="-0.12013">
        <ele>83.771973</ele>
        <time>2010-05-20T10:42:17Z</time>
      </trkpt>
      <trkpt lat="44.73834" lon="-0.12069">
        <ele>83.771973</ele>
        <time>2010-05-20T10:42:51Z</time>
      </trkpt>
      <trkpt lat="44.73799" lon="-0.12131">
        <ele>79.446045</ele>
        <time>2010-05-20T10:43:43Z</time>
      </trkpt>
      <trkpt lat="44.73793" lon="-0.12155">
        <ele>79.446045</ele>
        <time>2010-05-20T10:43:58Z</time>
      </trkpt>
      <trkpt lat="44.73782" lon="-0.12168">
        <ele>79.446045</ele>
        <time>2010-05-20T10:44:09Z</time>
      </trkpt>
      <trkpt lat="44.73719" lon="-0.12165">
        <ele>81.368774</ele>
        <time>2010-05-20T10:44:58Z</time>
      </trkpt>
      <trkpt lat="44.73618" lon="-0.12153">
        <ele>77.523438</ele>
        <time>2010-05-20T10:46:24Z</time>
      </trkpt>
      <trkpt lat="44.73479" lon="-0.12196">
        <ele>84.733398</ele>
        <time>2010-05-20T10:48:27Z</time>
      </trkpt>
      <trkpt lat="44.73455" lon="-0.12325">
        <ele>80.407471</ele>
        <time>2010-05-20T10:50:21Z</time>
      </trkpt>
      <trkpt lat="44.73391" lon="-0.12323">
        <ele>82.810791</ele>
        <time>2010-05-20T10:51:15Z</time>
      </trkpt>
      <trkpt lat="44.73286" lon="-0.12327">
        <ele>76.562134</ele>
        <time>2010-05-20T10:52:41Z</time>
      </trkpt>
      <trkpt lat="44.73263" lon="-0.12325">
        <ele>75.60083</ele>
        <time>2010-05-20T10:53:01Z</time>
      </trkpt>
      <trkpt lat="44.73236" lon="-0.12328">
        <ele>72.236206</ele>
        <time>2010-05-20T10:53:24Z</time>
      </trkpt>
      <trkpt lat="44.73159" lon="-0.12313">
        <ele>65.987671</ele>
        <time>2010-05-20T10:54:31Z</time>
      </trkpt>
      <trkpt lat="44.73117" lon="-0.12333">
        <ele>74.158813</ele>
        <time>2010-05-20T10:55:15Z</time>
      </trkpt>
      <trkpt lat="44.73089" lon="-0.12329">
        <ele>76.562134</ele>
        <time>2010-05-20T10:55:40Z</time>
      </trkpt>
      <trkpt lat="44.73077" lon="-0.12336">
        <ele>74.158813</ele>
        <time>2010-05-20T10:55:52Z</time>
      </trkpt>
      <trkpt lat="44.73054" lon="-0.123">
        <ele>74.158813</ele>
        <time>2010-05-20T10:56:43Z</time>
      </trkpt>
      <trkpt lat="44.73075" lon="-0.1229">
        <ele>81.849365</ele>
        <time>2010-05-20T11:26:29Z</time>
      </trkpt>
      <trkpt lat="44.73082" lon="-0.12264">
        <ele>80.407471</ele>
        <time>2010-05-20T11:49:48Z</time>
      </trkpt>
      <trkpt lat="44.73096" lon="-0.12257">
        <ele>79.926636</ele>
        <time>2010-05-20T11:51:18Z</time>
      </trkpt>
      <trkpt lat="44.73075" lon="-0.1227">
        <ele>79.446045</ele>
        <time>2010-05-20T11:55:47Z</time>
      </trkpt>
      <trkpt lat="44.73075" lon="-0.12293">
        <ele>80.888184</ele>
        <time>2010-05-20T11:58:52Z</time>
      </trkpt>
      <trkpt lat="44.73046" lon="-0.1229">
        <ele>76.081421</ele>
        <time>2010-05-20T12:00:10Z</time>
      </trkpt>
      <trkpt lat="44.73058" lon="-0.12311">
        <ele>76.562134</ele>
        <time>2010-05-20T12:00:40Z</time>
      </trkpt>
      <trkpt lat="44.73039" lon="-0.12298">
        <ele>75.60083</ele>
        <time>2010-05-20T12:01:59Z</time>
      </trkpt>
      <trkpt lat="44.73051" lon="-0.12297">
        <ele>78.484741</ele>
        <time>2010-05-20T12:04:24Z</time>
      </trkpt>
      <trkpt lat="44.73016" lon="-0.1217">
        <ele>78.965454</ele>
        <time>2010-05-20T12:09:24Z</time>
      </trkpt>
      <trkpt lat="44.72966" lon="-0.12176">
        <ele>82.330078</ele>
        <time>2010-05-20T12:10:20Z</time>
      </trkpt>
      <trkpt lat="44.72834" lon="-0.12202">
        <ele>83.291382</ele>
        <time>2010-05-20T12:12:32Z</time>
      </trkpt>
      <trkpt lat="44.72642" lon="-0.12199">
        <ele>76.081421</ele>
        <time>2010-05-20T12:15:41Z</time>
      </trkpt>
      <trkpt lat="44.72447" lon="-0.12167">
        <ele>65.987671</ele>
        <time>2010-05-20T12:18:47Z</time>
      </trkpt>
      <trkpt lat="44.72195" lon="-0.12001">
        <ele>70.313477</ele>
        <time>2010-05-20T12:22:57Z</time>
      </trkpt>
      <trkpt lat="44.72155" lon="-0.11942">
        <ele>71.274902</ele>
        <time>2010-05-20T12:23:50Z</time>
      </trkpt>
      <trkpt lat="44.72029" lon="-0.11833">
        <ele>76.562134</ele>
        <time>2010-05-20T12:26:03Z</time>
      </trkpt>
      <trkpt lat="44.71931" lon="-0.11795">
        <ele>78.484741</ele>
        <time>2010-05-20T12:27:35Z</time>
      </trkpt>
      <trkpt lat="44.71865" lon="-0.12065">
        <ele>81.368774</ele>
        <time>2010-05-20T12:31:29Z</time>
      </trkpt>
      <trkpt lat="44.71903" lon="-0.12114">
        <ele>82.810791</ele>
        <time>2010-05-20T12:32:41Z</time>
      </trkpt>
      <trkpt lat="44.71904" lon="-0.12121">
        <ele>80.407471</ele>
        <time>2010-05-20T12:32:47Z</time>
      </trkpt>
      <trkpt lat="44.71853" lon="-0.1221">
        <ele>82.330078</ele>
        <time>2010-05-20T12:34:04Z</time>
      </trkpt>
      <trkpt lat="44.71852" lon="-0.12212">
        <ele>79.926636</ele>
        <time>2010-05-20T12:34:06Z</time>
      </trkpt>
      <trkpt lat="44.71785" lon="-0.12241">
        <ele>84.733398</ele>
        <time>2010-05-20T12:35:07Z</time>
      </trkpt>
      <trkpt lat="44.71699" lon="-0.12268">
        <ele>83.291382</ele>
        <time>2010-05-20T12:36:28Z</time>
      </trkpt>
      <trkpt lat="44.71728" lon="-0.12531">
        <ele>89.059326</ele>
        <time>2010-05-20T12:41:13Z</time>
      </trkpt>
      <trkpt lat="44.71708" lon="-0.12588">
        <ele>84.252686</ele>
        <time>2010-05-20T12:42:28Z</time>
      </trkpt>
      <trkpt lat="44.71721" lon="-0.12595">
        <ele>83.771973</ele>
        <time>2010-05-20T12:42:36Z</time>
      </trkpt>
      <trkpt lat="44.71713" lon="-0.12683">
        <ele>84.733398</ele>
        <time>2010-05-20T12:43:23Z</time>
      </trkpt>
      <trkpt lat="44.71714" lon="-0.12685">
        <ele>84.733398</ele>
        <time>2010-05-20T12:43:24Z</time>
      </trkpt>
      <trkpt lat="44.7172" lon="-0.12857">
        <ele>81.368774</ele>
        <time>2010-05-20T12:45:13Z</time>
      </trkpt>
      <trkpt lat="44.7161" lon="-0.12925">
        <ele>80.407471</ele>
        <time>2010-05-20T12:46:59Z</time>
      </trkpt>
      <trkpt lat="44.7161" lon="-0.12957">
        <ele>81.849365</ele>
        <time>2010-05-20T12:47:19Z</time>
      </trkpt>
      <trkpt lat="44.71604" lon="-0.12978">
        <ele>79.926636</ele>
        <time>2010-05-20T12:48:01Z</time>
      </trkpt>
      <trkpt lat="44.7147" lon="-0.13028">
        <ele>76.562134</ele>
        <time>2010-05-20T12:50:20Z</time>
      </trkpt>
      <trkpt lat="44.71436" lon="-0.13093">
        <ele>75.120239</ele>
        <time>2010-05-20T12:51:14Z</time>
      </trkpt>
      <trkpt lat="44.7129" lon="-0.13294">
        <ele>77.523438</ele>
        <time>2010-05-20T12:56:47Z</time>
      </trkpt>
      <trkpt lat="44.71133" lon="-0.1343">
        <ele>76.081421</ele>
        <time>2010-05-20T13:02:34Z</time>
      </trkpt>
      <trkpt lat="44.71089" lon="-0.13446">
        <ele>76.562134</ele>
        <time>2010-05-20T13:03:14Z</time>
      </trkpt>
      <trkpt lat="44.71059" lon="-0.13445">
        <ele>76.081421</ele>
        <time>2010-05-20T13:03:41Z</time>
      </trkpt>
      <trkpt lat="44.70902" lon="-0.13295">
        <ele>71.274902</ele>
        <time>2010-05-20T13:06:57Z</time>
      </trkpt>
      <trkpt lat="44.70901" lon="-0.13281">
        <ele>70.313477</ele>
        <time>2010-05-20T13:07:05Z</time>
      </trkpt>
      <trkpt lat="44.70876" lon="-0.13259">
        <ele>69.352295</ele>
        <time>2010-05-20T13:07:27Z</time>
      </trkpt>
      <trkpt lat="44.70835" lon="-0.13213">
        <ele>66.468262</ele>
        <time>2010-05-20T13:08:13Z</time>
      </trkpt>
      <trkpt lat="44.70807" lon="-0.13192">
        <ele>64.545654</ele>
        <time>2010-05-20T13:08:41Z</time>
      </trkpt>
      <trkpt lat="44.70788" lon="-0.13164">
        <ele>61.661743</ele>
        <time>2010-05-20T13:09:06Z</time>
      </trkpt>
      <trkpt lat="44.70722" lon="-0.12984">
        <ele>61.18103</ele>
        <time>2010-05-20T13:11:07Z</time>
      </trkpt>
      <trkpt lat="44.70689" lon="-0.12756">
        <ele>70.794189</ele>
        <time>2010-05-20T13:13:34Z</time>
      </trkpt>
      <trkpt lat="44.70617" lon="-0.12727">
        <ele>74.158813</ele>
        <time>2010-05-20T13:15:07Z</time>
      </trkpt>
      <trkpt lat="44.70599" lon="-0.12663">
        <ele>78.484741</ele>
        <time>2010-05-20T13:15:52Z</time>
      </trkpt>
      <trkpt lat="44.70557" lon="-0.12458">
        <ele>74.639526</ele>
        <time>2010-05-20T13:17:52Z</time>
      </trkpt>
      <trkpt lat="44.70553" lon="-0.12341">
        <ele>77.042847</ele>
        <time>2010-05-20T13:19:00Z</time>
      </trkpt>
      <trkpt lat="44.70534" lon="-0.12063">
        <ele>77.042847</ele>
        <time>2010-05-20T13:21:39Z</time>
      </trkpt>
      <trkpt lat="44.70469" lon="-0.11822">
        <ele>73.197632</ele>
        <time>2010-05-20T13:24:08Z</time>
      </trkpt>
      <trkpt lat="44.70452" lon="-0.11635">
        <ele>73.197632</ele>
        <time>2010-05-20T13:25:55Z</time>
      </trkpt>
      <trkpt lat="44.70401" lon="-0.11342">
        <ele>76.081421</ele>
        <time>2010-05-20T13:28:55Z</time>
      </trkpt>
      <trkpt lat="44.70395" lon="-0.11312">
        <ele>75.60083</ele>
        <time>2010-05-20T13:29:12Z</time>
      </trkpt>
      <trkpt lat="44.70374" lon="-0.11259">
        <ele>78.004028</ele>
        <time>2010-05-20T13:36:09Z</time>
      </trkpt>
      <trkpt lat="44.70219" lon="-0.10687">
        <ele>76.562134</ele>
        <time>2010-05-20T13:42:31Z</time>
      </trkpt>
      <trkpt lat="44.70081" lon="-0.10437">
        <ele>81.849365</ele>
        <time>2010-05-20T13:46:47Z</time>
      </trkpt>
      <trkpt lat="44.70029" lon="-0.10389">
        <ele>83.291382</ele>
        <time>2010-05-20T13:47:51Z</time>
      </trkpt>
      <trkpt lat="44.6997" lon="-0.10307">
        <ele>83.291382</ele>
        <time>2010-05-20T13:49:02Z</time>
      </trkpt>
      <trkpt lat="44.69962" lon="-0.1026">
        <ele>83.291382</ele>
        <time>2010-05-20T13:49:33Z</time>
      </trkpt>
      <trkpt lat="44.69889" lon="-0.09998">
        <ele>65.50708</ele>
        <time>2010-05-20T13:52:48Z</time>
      </trkpt>
      <trkpt lat="44.69843" lon="-0.09745">
        <ele>61.661743</ele>
        <time>2010-05-20T13:56:25Z</time>
      </trkpt>
      <trkpt lat="44.69877" lon="-0.09412">
        <ele>69.352295</ele>
        <time>2010-05-20T14:00:02Z</time>
      </trkpt>
      <trkpt lat="44.69749" lon="-0.0923">
        <ele>67.910278</ele>
        <time>2010-05-20T14:04:50Z</time>
      </trkpt>
      <trkpt lat="44.6959" lon="-0.09094">
        <ele>71.755493</ele>
        <time>2010-05-20T14:08:17Z</time>
      </trkpt>
      <trkpt lat="44.69529" lon="-0.09004">
        <ele>70.794189</ele>
        <time>2010-05-20T14:09:29Z</time>
      </trkpt>
      <trkpt lat="44.69495" lon="-0.08921">
        <ele>70.313477</ele>
        <time>2010-05-20T14:10:35Z</time>
      </trkpt>
      <trkpt lat="44.69486" lon="-0.08902">
        <ele>69.832886</ele>
        <time>2010-05-20T14:10:48Z</time>
      </trkpt>
      <trkpt lat="44.69444" lon="-0.08893">
        <ele>66.948975</ele>
        <time>2010-05-20T14:13:33Z</time>
      </trkpt>
    </trkseg>
  </trk>
  <trk>
    <name><![CDATA[Traces DPT 33_30]]></name>
    <extensions>
      <line xmlns="http://www.topografix.com/GPX/gpx_style/0/2">
        <color>FF00FF</color>
        <width>4</width>
      </line>
    </extensions>
    <trkseg>
      <trkpt lat="44.89831" lon="-0.06236">
        <ele>85</ele>
      </trkpt>
      <trkpt lat="44.89807" lon="-0.06254">
        <ele>84.9</ele>
      </trkpt>
      <trkpt lat="44.89796" lon="-0.06262">
        <ele>84.6</ele>
      </trkpt>
      <trkpt lat="44.8979" lon="-0.06263">
        <ele>84.5</ele>
      </trkpt>
      <trkpt lat="44.89788" lon="-0.06263">
        <ele>84.5</ele>
      </trkpt>
      <trkpt lat="44.89784" lon="-0.06263">
        <ele>84.5</ele>
      </trkpt>
      <trkpt lat="44.89777" lon="-0.06262">
        <ele>84.6</ele>
      </trkpt>
      <trkpt lat="44.89769" lon="-0.06258">
        <ele>84.8</ele>
      </trkpt>
      <trkpt lat="44.89763" lon="-0.06254">
        <ele>84.9</ele>
      </trkpt>
      <trkpt lat="44.89745" lon="-0.06242">
        <ele>85</ele>
      </trkpt>
      <trkpt lat="44.89741" lon="-0.06237">
        <ele>85</ele>
      </trkpt>
      <trkpt lat="44.89721" lon="-0.06247">
        <ele>85</ele>
      </trkpt>
      <trkpt lat="44.89679" lon="-0.0627">
        <ele>86.2</ele>
      </trkpt>
      <trkpt lat="44.89645" lon="-0.06287">
        <ele>86</ele>
      </trkpt>
      <trkpt lat="44.89617" lon="-0.06305">
        <ele>86</ele>
      </trkpt>
      <trkpt lat="44.89593" lon="-0.06322">
        <ele>85.8</ele>
      </trkpt>
      <trkpt lat="44.89575" lon="-0.06336">
        <ele>86.1</ele>
      </trkpt>
      <trkpt lat="44.89562" lon="-0.06345">
        <ele>86.3</ele>
      </trkpt>
      <trkpt lat="44.89557" lon="-0.06349">
        <ele>86.4</ele>
      </trkpt>
      <trkpt lat="44.89549" lon="-0.06351">
        <ele>86.5</ele>
      </trkpt>
      <trkpt lat="44.8954" lon="-0.0635">
        <ele>86.7</ele>
      </trkpt>
      <trkpt lat="44.8953" lon="-0.0635">
        <ele>87</ele>
      </trkpt>
      <trkpt lat="44.89521" lon="-0.06347">
        <ele>87.1</ele>
      </trkpt>
      <trkpt lat="44.89512" lon="-0.06341">
        <ele>87.4</ele>
      </trkpt>
      <trkpt lat="44.89506" lon="-0.06336">
        <ele>87.7</ele>
      </trkpt>
      <trkpt lat="44.89504" lon="-0.06334">
        <ele>87.8</ele>
      </trkpt>
      <trkpt lat="44.89494" lon="-0.06323">
        <ele>87.8</ele>
      </trkpt>
      <trkpt lat="44.89487" lon="-0.06318">
        <ele>87.5</ele>
      </trkpt>
      <trkpt lat="44.8948" lon="-0.06313">
        <ele>87.3</ele>
      </trkpt>
      <trkpt lat="44.89471" lon="-0.06309">
        <ele>86.9</ele>
      </trkpt>
      <trkpt lat="44.89464" lon="-0.06307">
        <ele>86.7</ele>
      </trkpt>
      <trkpt lat="44.89455" lon="-0.06306">
        <ele>86.4</ele>
      </trkpt>
      <trkpt lat="44.89447" lon="-0.06305">
        <ele>86.1</ele>
      </trkpt>
      <trkpt lat="44.89437" lon="-0.06304">
        <ele>86.1</ele>
      </trkpt>
      <trkpt lat="44.89426" lon="-0.06303">
        <ele>86.1</ele>
      </trkpt>
      <trkpt lat="44.89405" lon="-0.06303">
        <ele>86.5</ele>
      </trkpt>
      <trkpt lat="44.89399" lon="-0.06302">
        <ele>86.8</ele>
      </trkpt>
      <trkpt lat="44.89394" lon="-0.06298">
        <ele>87.1</ele>
      </trkpt>
      <trkpt lat="44.89387" lon="-0.06291">
        <ele>87.6</ele>
      </trkpt>
      <trkpt lat="44.89382" lon="-0.06285">
        <ele>87.9</ele>
      </trkpt>
      <trkpt lat="44.89363" lon="-0.06256">
        <ele>89</ele>
      </trkpt>
      <trkpt lat="44.89352" lon="-0.06244">
        <ele>89.2</ele>
      </trkpt>
      <trkpt lat="44.89347" lon="-0.0624">
        <ele>89.4</ele>
      </trkpt>
      <trkpt lat="44.89341" lon="-0.06238">
        <ele>89.4</ele>
      </trkpt>
      <trkpt lat="44.89335" lon="-0.06236">
        <ele>89.5</ele>
      </trkpt>
      <trkpt lat="44.89329" lon="-0.06237">
        <ele>89.5</ele>
      </trkpt>
      <trkpt lat="44.89317" lon="-0.06239">
        <ele>89.4</ele>
      </trkpt>
      <trkpt lat="44.89299" lon="-0.06243">
        <ele>89.4</ele>
      </trkpt>
      <trkpt lat="44.89287" lon="-0.06246">
        <ele>89.7</ele>
      </trkpt>
      <trkpt lat="44.89237" lon="-0.06256">
        <ele>90.3</ele>
      </trkpt>
      <trkpt lat="44.89189" lon="-0.06265">
        <ele>91</ele>
      </trkpt>
      <trkpt lat="44.89172" lon="-0.06267">
        <ele>91</ele>
      </trkpt>
      <trkpt lat="44.89153" lon="-0.06266">
        <ele>91</ele>
      </trkpt>
      <trkpt lat="44.89142" lon="-0.06264">
        <ele>91</ele>
      </trkpt>
      <trkpt lat="44.89131" lon="-0.06262">
        <ele>91</ele>
      </trkpt>
      <trkpt lat="44.89121" lon="-0.0626">
        <ele>91</ele>
      </trkpt>
      <trkpt lat="44.89112" lon="-0.06259">
        <ele>91</ele>
      </trkpt>
      <trkpt lat="44.89093" lon="-0.06258">
        <ele>91</ele>
      </trkpt>
      <trkpt lat="44.89085" lon="-0.06256">
        <ele>91</ele>
      </trkpt>
      <trkpt lat="44.8908" lon="-0.06253">
        <ele>91</ele>
      </trkpt>
      <trkpt lat="44.89076" lon="-0.06248">
        <ele>91</ele>
      </trkpt>
      <trkpt lat="44.89074" lon="-0.06244">
        <ele>91.1</ele>
      </trkpt>
      <trkpt lat="44.8907" lon="-0.06238">
        <ele>91.2</ele>
      </trkpt>
      <trkpt lat="44.89056" lon="-0.06203">
        <ele>91.3</ele>
      </trkpt>
      <trkpt lat="44.89051" lon="-0.06194">
        <ele>91.2</ele>
      </trkpt>
      <trkpt lat="44.89045" lon="-0.06189">
        <ele>91.3</ele>
      </trkpt>
      <trkpt lat="44.89044" lon="-0.06189">
        <ele>91.3</ele>
      </trkpt>
      <trkpt lat="44.89045" lon="-0.06184">
        <ele>91.2</ele>
      </trkpt>
      <trkpt lat="44.89045" lon="-0.06184">
        <ele>91.2</ele>
      </trkpt>
      <trkpt lat="44.89044" lon="-0.06189">
        <ele>91.3</ele>
      </trkpt>
      <trkpt lat="44.89041" lon="-0.0619">
        <ele>91.4</ele>
      </trkpt>
      <trkpt lat="44.89041" lon="-0.0619">
        <ele>91.4</ele>
      </trkpt>
      <trkpt lat="44.89039" lon="-0.0619">
        <ele>91.5</ele>
      </trkpt>
      <trkpt lat="44.89026" lon="-0.06199">
        <ele>91.9</ele>
      </trkpt>
      <trkpt lat="44.89007" lon="-0.06215">
        <ele>91.8</ele>
      </trkpt>
      <trkpt lat="44.88991" lon="-0.06225">
        <ele>91.6</ele>
      </trkpt>
      <trkpt lat="44.88989" lon="-0.06225">
        <ele>91.6</ele>
      </trkpt>
      <trkpt lat="44.88988" lon="-0.06226">
        <ele>91.5</ele>
      </trkpt>
      <trkpt lat="44.88958" lon="-0.06237">
        <ele>91.5</ele>
      </trkpt>
      <trkpt lat="44.88956" lon="-0.06238">
        <ele>91.6</ele>
      </trkpt>
      <trkpt lat="44.88918" lon="-0.06251">
        <ele>91</ele>
      </trkpt>
      <trkpt lat="44.88895" lon="-0.06261">
        <ele>90.5</ele>
      </trkpt>
      <trkpt lat="44.8888" lon="-0.06268">
        <ele>90.3</ele>
      </trkpt>
      <trkpt lat="44.88859" lon="-0.06281">
        <ele>90</ele>
      </trkpt>
      <trkpt lat="44.88828" lon="-0.06303">
        <ele>89.7</ele>
      </trkpt>
      <trkpt lat="44.88812" lon="-0.06314">
        <ele>89.5</ele>
      </trkpt>
      <trkpt lat="44.88797" lon="-0.06323">
        <ele>89.5</ele>
      </trkpt>
      <trkpt lat="44.88786" lon="-0.06327">
        <ele>89.6</ele>
      </trkpt>
      <trkpt lat="44.88778" lon="-0.06329">
        <ele>89.7</ele>
      </trkpt>
      <trkpt lat="44.88771" lon="-0.06328">
        <ele>89.6</ele>
      </trkpt>
      <trkpt lat="44.88766" lon="-0.06327">
        <ele>89.5</ele>
      </trkpt>
      <trkpt lat="44.88759" lon="-0.06324">
        <ele>89.3</ele>
      </trkpt>
      <trkpt lat="44.88753" lon="-0.0632">
        <ele>89</ele>
      </trkpt>
      <trkpt lat="44.88742" lon="-0.06311">
        <ele>88.9</ele>
      </trkpt>
      <trkpt lat="44.88732" lon="-0.06303">
        <ele>89.1</ele>
      </trkpt>
      <trkpt lat="44.8872" lon="-0.06292">
        <ele>89.1</ele>
      </trkpt>
      <trkpt lat="44.88711" lon="-0.06285">
        <ele>89.1</ele>
      </trkpt>
      <trkpt lat="44.88692" lon="-0.06273">
        <ele>89.7</ele>
      </trkpt>
      <trkpt lat="44.88667" lon="-0.06258">
        <ele>89.3</ele>
      </trkpt>
      <trkpt lat="44.88646" lon="-0.06244">
        <ele>89.7</ele>
      </trkpt>
      <trkpt lat="44.88634" lon="-0.06234">
        <ele>90</ele>
      </trkpt>
      <trkpt lat="44.88626" lon="-0.06226">
        <ele>90</ele>
      </trkpt>
      <trkpt lat="44.88619" lon="-0.06216">
        <ele>90</ele>
      </trkpt>
      <trkpt lat="44.88611" lon="-0.06204">
        <ele>90</ele>
      </trkpt>
      <trkpt lat="44.88592" lon="-0.06164">
        <ele>90.7</ele>
      </trkpt>
      <trkpt lat="44.88581" lon="-0.06145">
        <ele>91.1</ele>
      </trkpt>
      <trkpt lat="44.88575" lon="-0.06136">
        <ele>91.4</ele>
      </trkpt>
      <trkpt lat="44.88569" lon="-0.06129">
        <ele>91.7</ele>
      </trkpt>
      <trkpt lat="44.88562" lon="-0.06123">
        <ele>91.9</ele>
      </trkpt>
      <trkpt lat="44.88555" lon="-0.06119">
        <ele>92</ele>
      </trkpt>
      <trkpt lat="44.88535" lon="-0.06107">
        <ele>92</ele>
      </trkpt>
      <trkpt lat="44.8851" lon="-0.06094">
        <ele>92</ele>
      </trkpt>
      <trkpt lat="44.88413" lon="-0.06046">
        <ele>94</ele>
      </trkpt>
      <trkpt lat="44.88393" lon="-0.06033">
        <ele>94</ele>
      </trkpt>
      <trkpt lat="44.88376" lon="-0.06019">
        <ele>94</ele>
      </trkpt>
      <trkpt lat="44.88363" lon="-0.06007">
        <ele>94</ele>
      </trkpt>
      <trkpt lat="44.88355" lon="-0.05999">
        <ele>94.2</ele>
      </trkpt>
      <trkpt lat="44.88347" lon="-0.05989">
        <ele>94.5</ele>
      </trkpt>
      <trkpt lat="44.88339" lon="-0.05977">
        <ele>94.8</ele>
      </trkpt>
      <trkpt lat="44.88332" lon="-0.05969">
        <ele>95</ele>
      </trkpt>
      <trkpt lat="44.88325" lon="-0.05961">
        <ele>95</ele>
      </trkpt>
      <trkpt lat="44.8832" lon="-0.05956">
        <ele>95</ele>
      </trkpt>
      <trkpt lat="44.88313" lon="-0.05953">
        <ele>95</ele>
      </trkpt>
      <trkpt lat="44.88305" lon="-0.0595">
        <ele>95</ele>
      </trkpt>
      <trkpt lat="44.88303" lon="-0.05946">
        <ele>95.1</ele>
      </trkpt>
      <trkpt lat="44.88303" lon="-0.05939">
        <ele>95.1</ele>
      </trkpt>
      <trkpt lat="44.88305" lon="-0.05935">
        <ele>95</ele>
      </trkpt>
      <trkpt lat="44.88297" lon="-0.05943">
        <ele>95.3</ele>
      </trkpt>
      <trkpt lat="44.88297" lon="-0.05943">
        <ele>95.3</ele>
      </trkpt>
      <trkpt lat="44.88305" lon="-0.05935">
        <ele>95</ele>
      </trkpt>
      <trkpt lat="44.88315" lon="-0.05924">
        <ele>94.7</ele>
      </trkpt>
      <trkpt lat="44.88333" lon="-0.05904">
        <ele>94</ele>
      </trkpt>
      <trkpt lat="44.88344" lon="-0.05893">
        <ele>94</ele>
      </trkpt>
      <trkpt lat="44.88351" lon="-0.05889">
        <ele>94</ele>
      </trkpt>
      <trkpt lat="44.88359" lon="-0.05886">
        <ele>94</ele>
      </trkpt>
      <trkpt lat="44.8837" lon="-0.05883">
        <ele>93.9</ele>
      </trkpt>
      <trkpt lat="44.88413" lon="-0.05876">
        <ele>93.1</ele>
      </trkpt>
      <trkpt lat="44.88417" lon="-0.05871">
        <ele>93</ele>
      </trkpt>
      <trkpt lat="44.88419" lon="-0.05866">
        <ele>93.1</ele>
      </trkpt>
      <trkpt lat="44.8842" lon="-0.0586">
        <ele>93.1</ele>
      </trkpt>
      <trkpt lat="44.88421" lon="-0.05853">
        <ele>93.2</ele>
      </trkpt>
      <trkpt lat="44.88424" lon="-0.0586">
        <ele>93.3</ele>
      </trkpt>
      <trkpt lat="44.88424" lon="-0.0586">
        <ele>93.3</ele>
      </trkpt>
      <trkpt lat="44.88421" lon="-0.05853">
        <ele>93.2</ele>
      </trkpt>
      <trkpt lat="44.88409" lon="-0.05812">
        <ele>93</ele>
      </trkpt>
      <trkpt lat="44.88402" lon="-0.0579">
        <ele>93</ele>
      </trkpt>
      <trkpt lat="44.884" lon="-0.05779">
        <ele>93</ele>
      </trkpt>
      <trkpt lat="44.8834" lon="-0.05529">
        <ele>82.8</ele>
      </trkpt>
      <trkpt lat="44.88336" lon="-0.05518">
        <ele>82.6</ele>
      </trkpt>
      <trkpt lat="44.88331" lon="-0.05508">
        <ele>82</ele>
      </trkpt>
      <trkpt lat="44.88327" lon="-0.05495">
        <ele>81.2</ele>
      </trkpt>
      <trkpt lat="44.88323" lon="-0.05478">
        <ele>80.4</ele>
      </trkpt>
      <trkpt lat="44.8832" lon="-0.05463">
        <ele>79.9</ele>
      </trkpt>
      <trkpt lat="44.88315" lon="-0.05446">
        <ele>79.4</ele>
      </trkpt>
      <trkpt lat="44.88311" lon="-0.05428">
        <ele>78</ele>
      </trkpt>
      <trkpt lat="44.88309" lon="-0.0542">
        <ele>77.4</ele>
      </trkpt>
      <trkpt lat="44.88308" lon="-0.05414">
        <ele>76.9</ele>
      </trkpt>
      <trkpt lat="44.88308" lon="-0.05402">
        <ele>76</ele>
      </trkpt>
      <trkpt lat="44.88307" lon="-0.05392">
        <ele>75.2</ele>
      </trkpt>
      <trkpt lat="44.88307" lon="-0.05377">
        <ele>74.1</ele>
      </trkpt>
      <trkpt lat="44.88308" lon="-0.05349">
        <ele>72</ele>
      </trkpt>
      <trkpt lat="44.88308" lon="-0.05316">
        <ele>69.7</ele>
      </trkpt>
      <trkpt lat="44.88309" lon="-0.05287">
        <ele>67.5</ele>
      </trkpt>
      <trkpt lat="44.8831" lon="-0.05269">
        <ele>66.3</ele>
      </trkpt>
      <trkpt lat="44.88312" lon="-0.05255">
        <ele>65.3</ele>
      </trkpt>
      <trkpt lat="44.88315" lon="-0.05242">
        <ele>64.4</ele>
      </trkpt>
      <trkpt lat="44.88318" lon="-0.05232">
        <ele>63.7</ele>
      </trkpt>
      <trkpt lat="44.88324" lon="-0.05219">
        <ele>62.9</ele>
      </trkpt>
      <trkpt lat="44.88328" lon="-0.05211">
        <ele>62.6</ele>
      </trkpt>
      <trkpt lat="44.88335" lon="-0.05198">
        <ele>62.1</ele>
      </trkpt>
      <trkpt lat="44.88342" lon="-0.05184">
        <ele>61.3</ele>
      </trkpt>
      <trkpt lat="44.88347" lon="-0.05174">
        <ele>60.8</ele>
      </trkpt>
      <trkpt lat="44.88351" lon="-0.05162">
        <ele>60.2</ele>
      </trkpt>
      <trkpt lat="44.88352" lon="-0.05158">
        <ele>60</ele>
      </trkpt>
      <trkpt lat="44.88358" lon="-0.05138">
        <ele>59.1</ele>
      </trkpt>
      <trkpt lat="44.88364" lon="-0.0511">
        <ele>56.9</ele>
      </trkpt>
      <trkpt lat="44.88368" lon="-0.05091">
        <ele>55.8</ele>
      </trkpt>
      <trkpt lat="44.88371" lon="-0.05077">
        <ele>54.8</ele>
      </trkpt>
      <trkpt lat="44.88372" lon="-0.05065">
        <ele>53.9</ele>
      </trkpt>
      <trkpt lat="44.88374" lon="-0.05048">
        <ele>52.8</ele>
      </trkpt>
      <trkpt lat="44.88375" lon="-0.05032">
        <ele>52.2</ele>
      </trkpt>
      <trkpt lat="44.88375" lon="-0.05024">
        <ele>51.7</ele>
      </trkpt>
      <trkpt lat="44.88378" lon="-0.04982">
        <ele>49</ele>
      </trkpt>
      <trkpt lat="44.88382" lon="-0.04915">
        <ele>48.8</ele>
      </trkpt>
      <trkpt lat="44.88382" lon="-0.04679">
        <ele>64.5</ele>
      </trkpt>
      <trkpt lat="44.88383" lon="-0.04663">
        <ele>66.2</ele>
      </trkpt>
      <trkpt lat="44.88384" lon="-0.04638">
        <ele>68.2</ele>
      </trkpt>
      <trkpt lat="44.88386" lon="-0.04615">
        <ele>70.2</ele>
      </trkpt>
      <trkpt lat="44.88387" lon="-0.04586">
        <ele>72.5</ele>
      </trkpt>
      <trkpt lat="44.8839" lon="-0.04553">
        <ele>74.7</ele>
      </trkpt>
      <trkpt lat="44.8839" lon="-0.04529">
        <ele>77.2</ele>
      </trkpt>
      <trkpt lat="44.8839" lon="-0.04518">
        <ele>78.7</ele>
      </trkpt>
      <trkpt lat="44.88389" lon="-0.0451">
        <ele>79.6</ele>
      </trkpt>
      <trkpt lat="44.88386" lon="-0.04503">
        <ele>80.4</ele>
      </trkpt>
      <trkpt lat="44.88379" lon="-0.04492">
        <ele>81.8</ele>
      </trkpt>
      <trkpt lat="44.88375" lon="-0.04484">
        <ele>82.8</ele>
      </trkpt>
      <trkpt lat="44.88372" lon="-0.04479">
        <ele>83.4</ele>
      </trkpt>
      <trkpt lat="44.88367" lon="-0.04481">
        <ele>82.9</ele>
      </trkpt>
      <trkpt lat="44.88366" lon="-0.04482">
        <ele>82.8</ele>
      </trkpt>
      <trkpt lat="44.88367" lon="-0.04481">
        <ele>82.9</ele>
      </trkpt>
      <trkpt lat="44.88372" lon="-0.04479">
        <ele>83.4</ele>
      </trkpt>
      <trkpt lat="44.88401" lon="-0.04465">
        <ele>85.7</ele>
      </trkpt>
      <trkpt lat="44.88421" lon="-0.04455">
        <ele>86.8</ele>
      </trkpt>
      <trkpt lat="44.88423" lon="-0.04453">
        <ele>87</ele>
      </trkpt>
      <trkpt lat="44.88448" lon="-0.04442">
        <ele>88.3</ele>
      </trkpt>
      <trkpt lat="44.88468" lon="-0.04432">
        <ele>90.1</ele>
      </trkpt>
      <trkpt lat="44.88486" lon="-0.04424">
        <ele>91</ele>
      </trkpt>
      <trkpt lat="44.88488" lon="-0.04423">
        <ele>91</ele>
      </trkpt>
      <trkpt lat="44.88487" lon="-0.04421">
        <ele>91</ele>
      </trkpt>
      <trkpt lat="44.88483" lon="-0.04413">
        <ele>91.1</ele>
      </trkpt>
      <trkpt lat="44.88477" lon="-0.04403">
        <ele>91.5</ele>
      </trkpt>
      <trkpt lat="44.88469" lon="-0.04391">
        <ele>91.8</ele>
      </trkpt>
      <trkpt lat="44.88454" lon="-0.04371">
        <ele>92.4</ele>
      </trkpt>
      <trkpt lat="44.88424" lon="-0.04335">
        <ele>93</ele>
      </trkpt>
      <trkpt lat="44.88337" lon="-0.04236">
        <ele>94.9</ele>
      </trkpt>
      <trkpt lat="44.88305" lon="-0.04197">
        <ele>96</ele>
      </trkpt>
      <trkpt lat="44.88296" lon="-0.04185">
        <ele>96.1</ele>
      </trkpt>
      <trkpt lat="44.8829" lon="-0.04177">
        <ele>96.4</ele>
      </trkpt>
      <trkpt lat="44.88284" lon="-0.04167">
        <ele>96.8</ele>
      </trkpt>
      <trkpt lat="44.88271" lon="-0.04144">
        <ele>96.4</ele>
      </trkpt>
      <trkpt lat="44.88238" lon="-0.04085">
        <ele>96.5</ele>
      </trkpt>
      <trkpt lat="44.88215" lon="-0.04039">
        <ele>96.8</ele>
      </trkpt>
      <trkpt lat="44.88201" lon="-0.04009">
        <ele>97</ele>
      </trkpt>
      <trkpt lat="44.88184" lon="-0.03966">
        <ele>97.4</ele>
      </trkpt>
      <trkpt lat="44.88177" lon="-0.03951">
        <ele>97.6</ele>
      </trkpt>
      <trkpt lat="44.88174" lon="-0.03944">
        <ele>97.7</ele>
      </trkpt>
      <trkpt lat="44.88159" lon="-0.03918">
        <ele>98.3</ele>
      </trkpt>
      <trkpt lat="44.88156" lon="-0.03913">
        <ele>98.4</ele>
      </trkpt>
      <trkpt lat="44.88151" lon="-0.03903">
        <ele>98.6</ele>
      </trkpt>
      <trkpt lat="44.8814" lon="-0.03885">
        <ele>99</ele>
      </trkpt>
      <trkpt lat="44.88129" lon="-0.03866">
        <ele>99</ele>
      </trkpt>
      <trkpt lat="44.88111" lon="-0.03838">
        <ele>98.2</ele>
      </trkpt>
      <trkpt lat="44.88095" lon="-0.03815">
        <ele>97.6</ele>
      </trkpt>
      <trkpt lat="44.88072" lon="-0.03783">
        <ele>96.6</ele>
      </trkpt>
      <trkpt lat="44.88056" lon="-0.03762">
        <ele>96</ele>
      </trkpt>
      <trkpt lat="44.88041" lon="-0.03744">
        <ele>95.2</ele>
      </trkpt>
      <trkpt lat="44.88029" lon="-0.03729">
        <ele>94.8</ele>
      </trkpt>
      <trkpt lat="44.88023" lon="-0.03722">
        <ele>94.5</ele>
      </trkpt>
      <trkpt lat="44.8802" lon="-0.03716">
        <ele>94.3</ele>
      </trkpt>
      <trkpt lat="44.88016" lon="-0.03708">
        <ele>94</ele>
      </trkpt>
      <trkpt lat="44.88012" lon="-0.03698">
        <ele>93.7</ele>
      </trkpt>
      <trkpt lat="44.88009" lon="-0.03684">
        <ele>93.6</ele>
      </trkpt>
      <trkpt lat="44.88005" lon="-0.03671">
        <ele>93.4</ele>
      </trkpt>
      <trkpt lat="44.88004" lon="-0.03663">
        <ele>93.6</ele>
      </trkpt>
      <trkpt lat="44.88002" lon="-0.03653">
        <ele>93.7</ele>
      </trkpt>
      <trkpt lat="44.88001" lon="-0.03642">
        <ele>94</ele>
      </trkpt>
      <trkpt lat="44.88" lon="-0.03621">
        <ele>94.6</ele>
      </trkpt>
      <trkpt lat="44.87999" lon="-0.03605">
        <ele>95.2</ele>
      </trkpt>
      <trkpt lat="44.88005" lon="-0.03589">
        <ele>96.2</ele>
      </trkpt>
      <trkpt lat="44.88008" lon="-0.03574">
        <ele>97.1</ele>
      </trkpt>
      <trkpt lat="44.88009" lon="-0.03557">
        <ele>97.9</ele>
      </trkpt>
      <trkpt lat="44.8801" lon="-0.03534">
        <ele>98</ele>
      </trkpt>
      <trkpt lat="44.88009" lon="-0.03527">
        <ele>98</ele>
      </trkpt>
      <trkpt lat="44.88006" lon="-0.03496">
        <ele>98.8</ele>
      </trkpt>
      <trkpt lat="44.87996" lon="-0.03433">
        <ele>99.3</ele>
      </trkpt>
      <trkpt lat="44.87986" lon="-0.03373">
        <ele>99.7</ele>
      </trkpt>
      <trkpt lat="44.87979" lon="-0.03328">
        <ele>99.4</ele>
      </trkpt>
      <trkpt lat="44.87979" lon="-0.03326">
        <ele>99.3</ele>
      </trkpt>
      <trkpt lat="44.87972" lon="-0.03283">
        <ele>99</ele>
      </trkpt>
      <trkpt lat="44.87969" lon="-0.03269">
        <ele>98.8</ele>
      </trkpt>
      <trkpt lat="44.87964" lon="-0.03258">
        <ele>98.8</ele>
      </trkpt>
      <trkpt lat="44.87959" lon="-0.03249">
        <ele>98.9</ele>
      </trkpt>
      <trkpt lat="44.87949" lon="-0.03234">
        <ele>99.2</ele>
      </trkpt>
      <trkpt lat="44.87921" lon="-0.03201">
        <ele>99.8</ele>
      </trkpt>
      <trkpt lat="44.87913" lon="-0.03192">
        <ele>100.1</ele>
      </trkpt>
      <trkpt lat="44.87891" lon="-0.03164">
        <ele>100.9</ele>
      </trkpt>
      <trkpt lat="44.87888" lon="-0.03158">
        <ele>101</ele>
      </trkpt>
      <trkpt lat="44.8788" lon="-0.03143">
        <ele>101.3</ele>
      </trkpt>
      <trkpt lat="44.87864" lon="-0.03115">
        <ele>101.8</ele>
      </trkpt>
      <trkpt lat="44.87864" lon="-0.03113">
        <ele>101.8</ele>
      </trkpt>
      <trkpt lat="44.87855" lon="-0.03097">
        <ele>101.6</ele>
      </trkpt>
      <trkpt lat="44.87855" lon="-0.03097">
        <ele>101.6</ele>
      </trkpt>
      <trkpt lat="44.87857" lon="-0.03093">
        <ele>101.4</ele>
      </trkpt>
      <trkpt lat="44.87859" lon="-0.03088">
        <ele>101.2</ele>
      </trkpt>
      <trkpt lat="44.87861" lon="-0.03081">
        <ele>100.9</ele>
      </trkpt>
      <trkpt lat="44.87862" lon="-0.03072">
        <ele>100.5</ele>
      </trkpt>
      <trkpt lat="44.87863" lon="-0.03062">
        <ele>100.1</ele>
      </trkpt>
      <trkpt lat="44.87863" lon="-0.0305">
        <ele>99.9</ele>
      </trkpt>
      <trkpt lat="44.87863" lon="-0.0304">
        <ele>99.9</ele>
      </trkpt>
      <trkpt lat="44.87863" lon="-0.03037">
        <ele>99.9</ele>
      </trkpt>
      <trkpt lat="44.87863" lon="-0.03032">
        <ele>99.9</ele>
      </trkpt>
      <trkpt lat="44.87862" lon="-0.03023">
        <ele>99.9</ele>
      </trkpt>
      <trkpt lat="44.8786" lon="-0.03016">
        <ele>100</ele>
      </trkpt>
      <trkpt lat="44.87857" lon="-0.03002">
        <ele>100</ele>
      </trkpt>
      <trkpt lat="44.8782" lon="-0.02811">
        <ele>99.6</ele>
      </trkpt>
      <trkpt lat="44.8787" lon="-0.02774">
        <ele>97.6</ele>
      </trkpt>
      <trkpt lat="44.87875" lon="-0.02767">
        <ele>97.3</ele>
      </trkpt>
      <trkpt lat="44.8788" lon="-0.02759">
        <ele>96.9</ele>
      </trkpt>
      <trkpt lat="44.87884" lon="-0.0275">
        <ele>96.4</ele>
      </trkpt>
      <trkpt lat="44.87887" lon="-0.0274">
        <ele>95.8</ele>
      </trkpt>
      <trkpt lat="44.8789" lon="-0.02726">
        <ele>95.1</ele>
      </trkpt>
      <trkpt lat="44.87892" lon="-0.02716">
        <ele>94.5</ele>
      </trkpt>
      <trkpt lat="44.87892" lon="-0.02705">
        <ele>94.1</ele>
      </trkpt>
      <trkpt lat="44.8789" lon="-0.02693">
        <ele>93.8</ele>
      </trkpt>
      <trkpt lat="44.87887" lon="-0.02682">
        <ele>93.8</ele>
      </trkpt>
      <trkpt lat="44.87874" lon="-0.02643">
        <ele>93.8</ele>
      </trkpt>
      <trkpt lat="44.87866" lon="-0.02622">
        <ele>93.4</ele>
      </trkpt>
      <trkpt lat="44.87853" lon="-0.02598">
        <ele>93.4</ele>
      </trkpt>
      <trkpt lat="44.87847" lon="-0.02579">
        <ele>93.3</ele>
      </trkpt>
      <trkpt lat="44.87842" lon="-0.02557">
        <ele>92.5</ele>
      </trkpt>
      <trkpt lat="44.87837" lon="-0.0253">
        <ele>91.8</ele>
      </trkpt>
      <trkpt lat="44.87832" lon="-0.02494">
        <ele>91.1</ele>
      </trkpt>
      <trkpt lat="44.87828" lon="-0.02475">
        <ele>91.4</ele>
      </trkpt>
      <trkpt lat="44.87829" lon="-0.02445">
        <ele>90.3</ele>
      </trkpt>
      <trkpt lat="44.87848" lon="-0.02425">
        <ele>89.3</ele>
      </trkpt>
      <trkpt lat="44.87888" lon="-0.02388">
        <ele>87</ele>
      </trkpt>
      <trkpt lat="44.87938" lon="-0.0234">
        <ele>85.6</ele>
      </trkpt>
      <trkpt lat="44.87972" lon="-0.02308">
        <ele>85.1</ele>
      </trkpt>
      <trkpt lat="44.87986" lon="-0.0229">
        <ele>84.4</ele>
      </trkpt>
      <trkpt lat="44.87999" lon="-0.02269">
        <ele>83.1</ele>
      </trkpt>
      <trkpt lat="44.88009" lon="-0.02249">
        <ele>82</ele>
      </trkpt>
      <trkpt lat="44.88014" lon="-0.02234">
        <ele>81.2</ele>
      </trkpt>
      <trkpt lat="44.88016" lon="-0.02219">
        <ele>80.6</ele>
      </trkpt>
      <trkpt lat="44.88017" lon="-0.02196">
        <ele>79.6</ele>
      </trkpt>
      <trkpt lat="44.88018" lon="-0.02176">
        <ele>79</ele>
      </trkpt>
      <trkpt lat="44.88019" lon="-0.02159">
        <ele>78.5</ele>
      </trkpt>
      <trkpt lat="44.8802" lon="-0.02151">
        <ele>78.2</ele>
      </trkpt>
      <trkpt lat="44.88022" lon="-0.02143">
        <ele>77.9</ele>
      </trkpt>
      <trkpt lat="44.88028" lon="-0.02137">
        <ele>77</ele>
      </trkpt>
      <trkpt lat="44.88034" lon="-0.02131">
        <ele>76.4</ele>
      </trkpt>
      <trkpt lat="44.88127" lon="-0.02073">
        <ele>70.5</ele>
      </trkpt>
      <trkpt lat="44.88125" lon="-0.0206">
        <ele>70.2</ele>
      </trkpt>
      <trkpt lat="44.88125" lon="-0.0206">
        <ele>70.2</ele>
      </trkpt>
      <trkpt lat="44.88127" lon="-0.02073">
        <ele>70.5</ele>
      </trkpt>
      <trkpt lat="44.88139" lon="-0.02067">
        <ele>69.4</ele>
      </trkpt>
      <trkpt lat="44.88148" lon="-0.02064">
        <ele>68.6</ele>
      </trkpt>
      <trkpt lat="44.8815" lon="-0.02065">
        <ele>68.5</ele>
      </trkpt>
      <trkpt lat="44.88156" lon="-0.02064">
        <ele>68.1</ele>
      </trkpt>
      <trkpt lat="44.8816" lon="-0.02065">
        <ele>67.8</ele>
      </trkpt>
      <trkpt lat="44.88165" lon="-0.02066">
        <ele>67.5</ele>
      </trkpt>
      <trkpt lat="44.8817" lon="-0.02068">
        <ele>67.1</ele>
      </trkpt>
      <trkpt lat="44.88175" lon="-0.02069">
        <ele>66.7</ele>
      </trkpt>
      <trkpt lat="44.88181" lon="-0.0207">
        <ele>66.2</ele>
      </trkpt>
      <trkpt lat="44.88188" lon="-0.0207">
        <ele>65.6</ele>
      </trkpt>
      <trkpt lat="44.88196" lon="-0.0207">
        <ele>65</ele>
      </trkpt>
      <trkpt lat="44.88209" lon="-0.02065">
        <ele>64.3</ele>
      </trkpt>
      <trkpt lat="44.88216" lon="-0.02062">
        <ele>64.1</ele>
      </trkpt>
      <trkpt lat="44.88225" lon="-0.02055">
        <ele>63.8</ele>
      </trkpt>
      <trkpt lat="44.88236" lon="-0.02046">
        <ele>62.7</ele>
      </trkpt>
      <trkpt lat="44.8824" lon="-0.02041">
        <ele>62.3</ele>
      </trkpt>
      <trkpt lat="44.88244" lon="-0.02037">
        <ele>62.1</ele>
      </trkpt>
      <trkpt lat="44.88249" lon="-0.02034">
        <ele>62</ele>
      </trkpt>
      <trkpt lat="44.88254" lon="-0.02032">
        <ele>61.7</ele>
      </trkpt>
      <trkpt lat="44.88262" lon="-0.0203">
        <ele>61.1</ele>
      </trkpt>
      <trkpt lat="44.88268" lon="-0.02029">
        <ele>60.7</ele>
      </trkpt>
      <trkpt lat="44.88272" lon="-0.02029">
        <ele>60.4</ele>
      </trkpt>
      <trkpt lat="44.88277" lon="-0.02029">
        <ele>60.1</ele>
      </trkpt>
      <trkpt lat="44.88282" lon="-0.02031">
        <ele>59.6</ele>
      </trkpt>
      <trkpt lat="44.88288" lon="-0.02034">
        <ele>59</ele>
      </trkpt>
      <trkpt lat="44.88292" lon="-0.02037">
        <ele>58.6</ele>
      </trkpt>
      <trkpt lat="44.88296" lon="-0.02041">
        <ele>58.3</ele>
      </trkpt>
      <trkpt lat="44.883" lon="-0.02046">
        <ele>58.1</ele>
      </trkpt>
      <trkpt lat="44.88305" lon="-0.02053">
        <ele>57.9</ele>
      </trkpt>
      <trkpt lat="44.8831" lon="-0.0206">
        <ele>57.5</ele>
      </trkpt>
      <trkpt lat="44.88314" lon="-0.02067">
        <ele>57.2</ele>
      </trkpt>
      <trkpt lat="44.88318" lon="-0.02073">
        <ele>56.9</ele>
      </trkpt>
      <trkpt lat="44.88322" lon="-0.0208">
        <ele>56.7</ele>
      </trkpt>
      <trkpt lat="44.88327" lon="-0.02087">
        <ele>56.3</ele>
      </trkpt>
      <trkpt lat="44.88332" lon="-0.02093">
        <ele>55.7</ele>
      </trkpt>
      <trkpt lat="44.88338" lon="-0.02098">
        <ele>55.1</ele>
      </trkpt>
      <trkpt lat="44.88345" lon="-0.02104">
        <ele>54.6</ele>
      </trkpt>
      <trkpt lat="44.88352" lon="-0.02109">
        <ele>54.3</ele>
      </trkpt>
      <trkpt lat="44.88359" lon="-0.02113">
        <ele>53.9</ele>
      </trkpt>
      <trkpt lat="44.88367" lon="-0.02117">
        <ele>53.2</ele>
      </trkpt>
      <trkpt lat="44.88374" lon="-0.02122">
        <ele>52.5</ele>
      </trkpt>
      <trkpt lat="44.8838" lon="-0.02126">
        <ele>51.9</ele>
      </trkpt>
      <trkpt lat="44.88385" lon="-0.02131">
        <ele>51.5</ele>
      </trkpt>
      <trkpt lat="44.88388" lon="-0.02134">
        <ele>51.2</ele>
      </trkpt>
      <trkpt lat="44.8839" lon="-0.02138">
        <ele>51</ele>
      </trkpt>
      <trkpt lat="44.88394" lon="-0.02145">
        <ele>50.2</ele>
      </trkpt>
      <trkpt lat="44.88405" lon="-0.0217">
        <ele>48.1</ele>
      </trkpt>
      <trkpt lat="44.88408" lon="-0.02176">
        <ele>47.5</ele>
      </trkpt>
      <trkpt lat="44.88416" lon="-0.02189">
        <ele>46.4</ele>
      </trkpt>
      <trkpt lat="44.88419" lon="-0.02194">
        <ele>46</ele>
      </trkpt>
      <trkpt lat="44.88422" lon="-0.02199">
        <ele>45.7</ele>
      </trkpt>
      <trkpt lat="44.88427" lon="-0.02204">
        <ele>45.3</ele>
      </trkpt>
      <trkpt lat="44.88432" lon="-0.02209">
        <ele>45</ele>
      </trkpt>
      <trkpt lat="44.88438" lon="-0.02213">
        <ele>44.7</ele>
      </trkpt>
      <trkpt lat="44.88443" lon="-0.02216">
        <ele>44.4</ele>
      </trkpt>
      <trkpt lat="44.88449" lon="-0.0222">
        <ele>44</ele>
      </trkpt>
      <trkpt lat="44.88456" lon="-0.02223">
        <ele>43.5</ele>
      </trkpt>
      <trkpt lat="44.88462" lon="-0.02226">
        <ele>43</ele>
      </trkpt>
      <trkpt lat="44.88468" lon="-0.02229">
        <ele>42.4</ele>
      </trkpt>
      <trkpt lat="44.88473" lon="-0.0223">
        <ele>42.1</ele>
      </trkpt>
      <trkpt lat="44.8848" lon="-0.02232">
        <ele>41.5</ele>
      </trkpt>
      <trkpt lat="44.88486" lon="-0.02233">
        <ele>41</ele>
      </trkpt>
      <trkpt lat="44.88492" lon="-0.02233">
        <ele>40.7</ele>
      </trkpt>
      <trkpt lat="44.88498" lon="-0.02232">
        <ele>40.4</ele>
      </trkpt>
      <trkpt lat="44.88504" lon="-0.02229">
        <ele>40.1</ele>
      </trkpt>
      <trkpt lat="44.8851" lon="-0.02226">
        <ele>39.6</ele>
      </trkpt>
      <trkpt lat="44.88514" lon="-0.02223">
        <ele>39.4</ele>
      </trkpt>
      <trkpt lat="44.8852" lon="-0.02217">
        <ele>39</ele>
      </trkpt>
      <trkpt lat="44.88526" lon="-0.0221">
        <ele>38.6</ele>
      </trkpt>
      <trkpt lat="44.8853" lon="-0.02202">
        <ele>38.5</ele>
      </trkpt>
      <trkpt lat="44.88534" lon="-0.02194">
        <ele>38.3</ele>
      </trkpt>
      <trkpt lat="44.88537" lon="-0.02187">
        <ele>38.2</ele>
      </trkpt>
      <trkpt lat="44.8854" lon="-0.02179">
        <ele>38</ele>
      </trkpt>
      <trkpt lat="44.88543" lon="-0.0217">
        <ele>37.8</ele>
      </trkpt>
      <trkpt lat="44.88545" lon="-0.02162">
        <ele>37.5</ele>
      </trkpt>
      <trkpt lat="44.88547" lon="-0.02152">
        <ele>37.2</ele>
      </trkpt>
      <trkpt lat="44.88548" lon="-0.02144">
        <ele>37.1</ele>
      </trkpt>
      <trkpt lat="44.8855" lon="-0.02135">
        <ele>36.9</ele>
      </trkpt>
      <trkpt lat="44.88551" lon="-0.02125">
        <ele>37.1</ele>
      </trkpt>
      <trkpt lat="44.88552" lon="-0.02116">
        <ele>37.2</ele>
      </trkpt>
      <trkpt lat="44.88554" lon="-0.02105">
        <ele>37.2</ele>
      </trkpt>
      <trkpt lat="44.88555" lon="-0.02097">
        <ele>37.1</ele>
      </trkpt>
      <trkpt lat="44.88557" lon="-0.02091">
        <ele>36.8</ele>
      </trkpt>
      <trkpt lat="44.88559" lon="-0.02083">
        <ele>36.6</ele>
      </trkpt>
      <trkpt lat="44.8856" lon="-0.02077">
        <ele>36.5</ele>
      </trkpt>
      <trkpt lat="44.88562" lon="-0.0207">
        <ele>36.3</ele>
      </trkpt>
      <trkpt lat="44.88564" lon="-0.02065">
        <ele>36.1</ele>
      </trkpt>
      <trkpt lat="44.88566" lon="-0.02061">
        <ele>35.9</ele>
      </trkpt>
      <trkpt lat="44.88569" lon="-0.02057">
        <ele>35.5</ele>
      </trkpt>
      <trkpt lat="44.88573" lon="-0.02052">
        <ele>35.1</ele>
      </trkpt>
      <trkpt lat="44.88576" lon="-0.02049">
        <ele>34.8</ele>
      </trkpt>
      <trkpt lat="44.8858" lon="-0.02045">
        <ele>34.4</ele>
      </trkpt>
      <trkpt lat="44.88584" lon="-0.02042">
        <ele>34</ele>
      </trkpt>
      <trkpt lat="44.88589" lon="-0.0204">
        <ele>33.8</ele>
      </trkpt>
      <trkpt lat="44.88595" lon="-0.02038">
        <ele>33.6</ele>
      </trkpt>
      <trkpt lat="44.88601" lon="-0.02037">
        <ele>33.4</ele>
      </trkpt>
      <trkpt lat="44.88607" lon="-0.02036">
        <ele>33.1</ele>
      </trkpt>
      <trkpt lat="44.88608" lon="-0.02036">
        <ele>33.1</ele>
      </trkpt>
      <trkpt lat="44.88614" lon="-0.02036">
        <ele>32.9</ele>
      </trkpt>
      <trkpt lat="44.88621" lon="-0.02036">
        <ele>32.7</ele>
      </trkpt>
      <trkpt lat="44.88629" lon="-0.02035">
        <ele>32.5</ele>
      </trkpt>
      <trkpt lat="44.88637" lon="-0.02035">
        <ele>32.3</ele>
      </trkpt>
      <trkpt lat="44.88643" lon="-0.02035">
        <ele>32.3</ele>
      </trkpt>
      <trkpt lat="44.88646" lon="-0.02036">
        <ele>32.4</ele>
      </trkpt>
      <trkpt lat="44.88652" lon="-0.02036">
        <ele>32.4</ele>
      </trkpt>
      <trkpt lat="44.88659" lon="-0.02036">
        <ele>32.5</ele>
      </trkpt>
      <trkpt lat="44.88665" lon="-0.02035">
        <ele>32.5</ele>
      </trkpt>
      <trkpt lat="44.8867" lon="-0.02033">
        <ele>32.7</ele>
      </trkpt>
      <trkpt lat="44.88675" lon="-0.02031">
        <ele>33.1</ele>
      </trkpt>
      <trkpt lat="44.8868" lon="-0.02028">
        <ele>33.5</ele>
      </trkpt>
      <trkpt lat="44.88685" lon="-0.02025">
        <ele>33.9</ele>
      </trkpt>
      <trkpt lat="44.88688" lon="-0.02022">
        <ele>34.1</ele>
      </trkpt>
      <trkpt lat="44.88693" lon="-0.02017">
        <ele>34.5</ele>
      </trkpt>
      <trkpt lat="44.887" lon="-0.02005">
        <ele>34.9</ele>
      </trkpt>
      <trkpt lat="44.88706" lon="-0.01991">
        <ele>35.5</ele>
      </trkpt>
      <trkpt lat="44.88709" lon="-0.0198">
        <ele>35.8</ele>
      </trkpt>
      <trkpt lat="44.8872" lon="-0.01955">
        <ele>37</ele>
      </trkpt>
      <trkpt lat="44.88731" lon="-0.01938">
        <ele>37.6</ele>
      </trkpt>
      <trkpt lat="44.88738" lon="-0.0193">
        <ele>38</ele>
      </trkpt>
      <trkpt lat="44.88744" lon="-0.01925">
        <ele>38.5</ele>
      </trkpt>
      <trkpt lat="44.88748" lon="-0.01923">
        <ele>39</ele>
      </trkpt>
      <trkpt lat="44.88752" lon="-0.01922">
        <ele>39.4</ele>
      </trkpt>
      <trkpt lat="44.88757" lon="-0.01922">
        <ele>39.9</ele>
      </trkpt>
      <trkpt lat="44.88762" lon="-0.01921">
        <ele>40.4</ele>
      </trkpt>
      <trkpt lat="44.88768" lon="-0.01921">
        <ele>41</ele>
      </trkpt>
      <trkpt lat="44.88772" lon="-0.01922">
        <ele>41.4</ele>
      </trkpt>
      <trkpt lat="44.88782" lon="-0.01924">
        <ele>42.6</ele>
      </trkpt>
      <trkpt lat="44.88784" lon="-0.01925">
        <ele>42.8</ele>
      </trkpt>
      <trkpt lat="44.88789" lon="-0.01929">
        <ele>43.4</ele>
      </trkpt>
      <trkpt lat="44.88795" lon="-0.01934">
        <ele>44.1</ele>
      </trkpt>
      <trkpt lat="44.88803" lon="-0.01944">
        <ele>44.7</ele>
      </trkpt>
      <trkpt lat="44.88819" lon="-0.01973">
        <ele>46.4</ele>
      </trkpt>
      <trkpt lat="44.8883" lon="-0.01995">
        <ele>46.9</ele>
      </trkpt>
      <trkpt lat="44.88837" lon="-0.02004">
        <ele>47.3</ele>
      </trkpt>
      <trkpt lat="44.88848" lon="-0.02016">
        <ele>48.1</ele>
      </trkpt>
      <trkpt lat="44.88853" lon="-0.0202">
        <ele>48.4</ele>
      </trkpt>
      <trkpt lat="44.88859" lon="-0.02023">
        <ele>48.8</ele>
      </trkpt>
      <trkpt lat="44.88865" lon="-0.02025">
        <ele>49.3</ele>
      </trkpt>
      <trkpt lat="44.88873" lon="-0.02027">
        <ele>49.9</ele>
      </trkpt>
      <trkpt lat="44.88884" lon="-0.02028">
        <ele>50.6</ele>
      </trkpt>
      <trkpt lat="44.88921" lon="-0.02027">
        <ele>53.4</ele>
      </trkpt>
      <trkpt lat="44.8894" lon="-0.02026">
        <ele>54.8</ele>
      </trkpt>
      <trkpt lat="44.88947" lon="-0.02028">
        <ele>55.2</ele>
      </trkpt>
      <trkpt lat="44.88959" lon="-0.02031">
        <ele>56.2</ele>
      </trkpt>
      <trkpt lat="44.88989" lon="-0.02042">
        <ele>58</ele>
      </trkpt>
      <trkpt lat="44.89014" lon="-0.02051">
        <ele>57.7</ele>
      </trkpt>
      <trkpt lat="44.89035" lon="-0.0206">
        <ele>56.9</ele>
      </trkpt>
      <trkpt lat="44.89046" lon="-0.02063">
        <ele>56.4</ele>
      </trkpt>
      <trkpt lat="44.89066" lon="-0.02064">
        <ele>55.4</ele>
      </trkpt>
      <trkpt lat="44.89091" lon="-0.02063">
        <ele>53.5</ele>
      </trkpt>
      <trkpt lat="44.89123" lon="-0.02063">
        <ele>50.6</ele>
      </trkpt>
      <trkpt lat="44.89146" lon="-0.0206">
        <ele>48.9</ele>
      </trkpt>
      <trkpt lat="44.8916" lon="-0.02054">
        <ele>48.1</ele>
      </trkpt>
      <trkpt lat="44.8923" lon="-0.02004">
        <ele>45.1</ele>
      </trkpt>
      <trkpt lat="44.89287" lon="-0.01964">
        <ele>44.2</ele>
      </trkpt>
      <trkpt lat="44.89301" lon="-0.01955">
        <ele>44.3</ele>
      </trkpt>
      <trkpt lat="44.89305" lon="-0.01962">
        <ele>44.6</ele>
      </trkpt>
      <trkpt lat="44.89305" lon="-0.01962">
        <ele>44.6</ele>
      </trkpt>
      <trkpt lat="44.89301" lon="-0.01955">
        <ele>44.3</ele>
      </trkpt>
      <trkpt lat="44.89317" lon="-0.01945">
        <ele>43.6</ele>
      </trkpt>
      <trkpt lat="44.89339" lon="-0.01927">
        <ele>42.4</ele>
      </trkpt>
      <trkpt lat="44.89362" lon="-0.01904">
        <ele>41.6</ele>
      </trkpt>
      <trkpt lat="44.89395" lon="-0.01868">
        <ele>43.2</ele>
      </trkpt>
      <trkpt lat="44.89427" lon="-0.01834">
        <ele>44.4</ele>
      </trkpt>
      <trkpt lat="44.89449" lon="-0.01811">
        <ele>44.4</ele>
      </trkpt>
      <trkpt lat="44.89477" lon="-0.01781">
        <ele>44.1</ele>
      </trkpt>
      <trkpt lat="44.8955" lon="-0.01702">
        <ele>39.1</ele>
      </trkpt>
      <trkpt lat="44.89589" lon="-0.01661">
        <ele>40.2</ele>
      </trkpt>
      <trkpt lat="44.89642" lon="-0.01603">
        <ele>44.1</ele>
      </trkpt>
      <trkpt lat="44.89678" lon="-0.01563">
        <ele>45.4</ele>
      </trkpt>
      <trkpt lat="44.89741" lon="-0.01497">
        <ele>47.7</ele>
      </trkpt>
      <trkpt lat="44.8975" lon="-0.01487">
        <ele>48</ele>
      </trkpt>
      <trkpt lat="44.898" lon="-0.01429">
        <ele>51.9</ele>
      </trkpt>
      <trkpt lat="44.89851" lon="-0.01371">
        <ele>57.7</ele>
      </trkpt>
      <trkpt lat="44.89861" lon="-0.0136">
        <ele>58</ele>
      </trkpt>
      <trkpt lat="44.89867" lon="-0.01353">
        <ele>58.8</ele>
      </trkpt>
      <trkpt lat="44.89866" lon="-0.01347">
        <ele>58.9</ele>
      </trkpt>
      <trkpt lat="44.89867" lon="-0.0133">
        <ele>59.2</ele>
      </trkpt>
      <trkpt lat="44.89868" lon="-0.01312">
        <ele>59.1</ele>
      </trkpt>
      <trkpt lat="44.89872" lon="-0.01296">
        <ele>58.7</ele>
      </trkpt>
      <trkpt lat="44.89874" lon="-0.01292">
        <ele>58.5</ele>
      </trkpt>
      <trkpt lat="44.89876" lon="-0.01285">
        <ele>58.3</ele>
      </trkpt>
      <trkpt lat="44.89888" lon="-0.01262">
        <ele>56.9</ele>
      </trkpt>
      <trkpt lat="44.89902" lon="-0.01234">
        <ele>55.6</ele>
      </trkpt>
      <trkpt lat="44.89915" lon="-0.01214">
        <ele>54.7</ele>
      </trkpt>
      <trkpt lat="44.89928" lon="-0.012">
        <ele>53.9</ele>
      </trkpt>
      <trkpt lat="44.89939" lon="-0.01189">
        <ele>53</ele>
      </trkpt>
      <trkpt lat="44.89956" lon="-0.01173">
        <ele>51.9</ele>
      </trkpt>
      <trkpt lat="44.89969" lon="-0.01157">
        <ele>50.4</ele>
      </trkpt>
      <trkpt lat="44.8999" lon="-0.01131">
        <ele>48.5</ele>
      </trkpt>
      <trkpt lat="44.90018" lon="-0.01095">
        <ele>46</ele>
      </trkpt>
      <trkpt lat="44.90037" lon="-0.01073">
        <ele>44.5</ele>
      </trkpt>
      <trkpt lat="44.90117" lon="-0.00975">
        <ele>41</ele>
      </trkpt>
      <trkpt lat="44.90174" lon="-0.00903">
        <ele>40</ele>
      </trkpt>
      <trkpt lat="44.90193" lon="-0.00879">
        <ele>40</ele>
      </trkpt>
      <trkpt lat="44.90208" lon="-0.0086">
        <ele>40</ele>
      </trkpt>
      <trkpt lat="44.90208" lon="-0.0086">
        <ele>40</ele>
      </trkpt>
      <trkpt lat="44.90231" lon="-0.00887">
        <ele>39.7</ele>
      </trkpt>
      <trkpt lat="44.90241" lon="-0.00904">
        <ele>38.8</ele>
      </trkpt>
      <trkpt lat="44.90266" lon="-0.00951">
        <ele>36.9</ele>
      </trkpt>
      <trkpt lat="44.9029" lon="-0.00986">
        <ele>35.1</ele>
      </trkpt>
      <trkpt lat="44.90312" lon="-0.01014">
        <ele>35</ele>
      </trkpt>
      <trkpt lat="44.90327" lon="-0.01035">
        <ele>36</ele>
      </trkpt>
      <trkpt lat="44.90348" lon="-0.01063">
        <ele>37.5</ele>
      </trkpt>
      <trkpt lat="44.90379" lon="-0.01107">
        <ele>39.5</ele>
      </trkpt>
      <trkpt lat="44.90413" lon="-0.01164">
        <ele>42.8</ele>
      </trkpt>
      <trkpt lat="44.90448" lon="-0.01219">
        <ele>43.9</ele>
      </trkpt>
      <trkpt lat="44.90457" lon="-0.01234">
        <ele>44.7</ele>
      </trkpt>
      <trkpt lat="44.90469" lon="-0.01253">
        <ele>45.2</ele>
      </trkpt>
      <trkpt lat="44.90485" lon="-0.01273">
        <ele>44.9</ele>
      </trkpt>
      <trkpt lat="44.90492" lon="-0.01281">
        <ele>44.6</ele>
      </trkpt>
      <trkpt lat="44.90523" lon="-0.01322">
        <ele>42.3</ele>
      </trkpt>
      <trkpt lat="44.90559" lon="-0.01366">
        <ele>39.7</ele>
      </trkpt>
      <trkpt lat="44.90578" lon="-0.01386">
        <ele>39.7</ele>
      </trkpt>
      <trkpt lat="44.90582" lon="-0.01389">
        <ele>40</ele>
      </trkpt>
      <trkpt lat="44.90584" lon="-0.01391">
        <ele>40.1</ele>
      </trkpt>
      <trkpt lat="44.9059" lon="-0.01393">
        <ele>40.1</ele>
      </trkpt>
      <trkpt lat="44.90595" lon="-0.01395">
        <ele>40.2</ele>
      </trkpt>
      <trkpt lat="44.90602" lon="-0.01396">
        <ele>40.3</ele>
      </trkpt>
      <trkpt lat="44.90611" lon="-0.01396">
        <ele>40.3</ele>
      </trkpt>
      <trkpt lat="44.90619" lon="-0.01395">
        <ele>40.3</ele>
      </trkpt>
      <trkpt lat="44.90623" lon="-0.01395">
        <ele>40.3</ele>
      </trkpt>
      <trkpt lat="44.90651" lon="-0.0139">
        <ele>39.6</ele>
      </trkpt>
      <trkpt lat="44.9067" lon="-0.01389">
        <ele>38.9</ele>
      </trkpt>
      <trkpt lat="44.90684" lon="-0.0139">
        <ele>38.5</ele>
      </trkpt>
      <trkpt lat="44.90694" lon="-0.01392">
        <ele>38.2</ele>
      </trkpt>
      <trkpt lat="44.90706" lon="-0.01397">
        <ele>38.2</ele>
      </trkpt>
      <trkpt lat="44.90723" lon="-0.01405">
        <ele>38.1</ele>
      </trkpt>
      <trkpt lat="44.90759" lon="-0.01425">
        <ele>37.5</ele>
      </trkpt>
      <trkpt lat="44.90816" lon="-0.01456">
        <ele>37.4</ele>
      </trkpt>
      <trkpt lat="44.90834" lon="-0.01465">
        <ele>37.7</ele>
      </trkpt>
      <trkpt lat="44.90856" lon="-0.0148">
        <ele>38.3</ele>
      </trkpt>
      <trkpt lat="44.90884" lon="-0.015">
        <ele>37.4</ele>
      </trkpt>
      <trkpt lat="44.9091" lon="-0.01518">
        <ele>36.4</ele>
      </trkpt>
      <trkpt lat="44.9092" lon="-0.01525">
        <ele>36</ele>
      </trkpt>
      <trkpt lat="44.90929" lon="-0.01532">
        <ele>36.1</ele>
      </trkpt>
      <trkpt lat="44.90945" lon="-0.01543">
        <ele>36</ele>
      </trkpt>
      <trkpt lat="44.90961" lon="-0.0155">
        <ele>36.5</ele>
      </trkpt>
      <trkpt lat="44.90973" lon="-0.01554">
        <ele>36.9</ele>
      </trkpt>
      <trkpt lat="44.90989" lon="-0.01557">
        <ele>37</ele>
      </trkpt>
      <trkpt lat="44.91" lon="-0.01559">
        <ele>37</ele>
      </trkpt>
      <trkpt lat="44.91006" lon="-0.01559">
        <ele>37.2</ele>
      </trkpt>
      <trkpt lat="44.91012" lon="-0.01559">
        <ele>37.4</ele>
      </trkpt>
      <trkpt lat="44.91023" lon="-0.01559">
        <ele>37.8</ele>
      </trkpt>
      <trkpt lat="44.91038" lon="-0.01559">
        <ele>38.7</ele>
      </trkpt>
      <trkpt lat="44.91042" lon="-0.01558">
        <ele>39</ele>
      </trkpt>
      <trkpt lat="44.91056" lon="-0.01555">
        <ele>40</ele>
      </trkpt>
      <trkpt lat="44.91062" lon="-0.01552">
        <ele>40.5</ele>
      </trkpt>
      <trkpt lat="44.91083" lon="-0.0154">
        <ele>42</ele>
      </trkpt>
      <trkpt lat="44.91118" lon="-0.01513">
        <ele>46</ele>
      </trkpt>
      <trkpt lat="44.91159" lon="-0.01469">
        <ele>49.7</ele>
      </trkpt>
      <trkpt lat="44.91212" lon="-0.01414">
        <ele>54.3</ele>
      </trkpt>
      <trkpt lat="44.91244" lon="-0.0138">
        <ele>56.6</ele>
      </trkpt>
      <trkpt lat="44.91266" lon="-0.01357">
        <ele>58.4</ele>
      </trkpt>
      <trkpt lat="44.91286" lon="-0.01329">
        <ele>58.7</ele>
      </trkpt>
      <trkpt lat="44.91302" lon="-0.01303">
        <ele>60.1</ele>
      </trkpt>
      <trkpt lat="44.91318" lon="-0.01273">
        <ele>62.2</ele>
      </trkpt>
      <trkpt lat="44.91336" lon="-0.01237">
        <ele>63.4</ele>
      </trkpt>
      <trkpt lat="44.91355" lon="-0.01195">
        <ele>64.7</ele>
      </trkpt>
      <trkpt lat="44.91372" lon="-0.0116">
        <ele>66.4</ele>
      </trkpt>
      <trkpt lat="44.91387" lon="-0.01133">
        <ele>68</ele>
      </trkpt>
      <trkpt lat="44.91401" lon="-0.01112">
        <ele>68.7</ele>
      </trkpt>
      <trkpt lat="44.91416" lon="-0.01093">
        <ele>69.9</ele>
      </trkpt>
      <trkpt lat="44.91436" lon="-0.01074">
        <ele>71.2</ele>
      </trkpt>
      <trkpt lat="44.91444" lon="-0.01067">
        <ele>71.8</ele>
      </trkpt>
      <trkpt lat="44.91462" lon="-0.01053">
        <ele>72.3</ele>
      </trkpt>
      <trkpt lat="44.91488" lon="-0.01034">
        <ele>73.1</ele>
      </trkpt>
      <trkpt lat="44.91518" lon="-0.01012">
        <ele>72.6</ele>
      </trkpt>
      <trkpt lat="44.91526" lon="-0.01021">
        <ele>72.8</ele>
      </trkpt>
      <trkpt lat="44.91526" lon="-0.01021">
        <ele>72.8</ele>
      </trkpt>
      <trkpt lat="44.9154" lon="-0.01036">
        <ele>72.7</ele>
      </trkpt>
      <trkpt lat="44.91576" lon="-0.01078">
        <ele>73</ele>
      </trkpt>
      <trkpt lat="44.91578" lon="-0.0108">
        <ele>73</ele>
      </trkpt>
      <trkpt lat="44.91587" lon="-0.01093">
        <ele>72.7</ele>
      </trkpt>
      <trkpt lat="44.91601" lon="-0.01117">
        <ele>71.9</ele>
      </trkpt>
      <trkpt lat="44.91619" lon="-0.01149">
        <ele>70.9</ele>
      </trkpt>
      <trkpt lat="44.91646" lon="-0.01201">
        <ele>69.7</ele>
      </trkpt>
      <trkpt lat="44.91682" lon="-0.01271">
        <ele>70.3</ele>
      </trkpt>
      <trkpt lat="44.91708" lon="-0.01318">
        <ele>69.8</ele>
      </trkpt>
      <trkpt lat="44.91725" lon="-0.01355">
        <ele>68.9</ele>
      </trkpt>
      <trkpt lat="44.9174" lon="-0.01396">
        <ele>68.4</ele>
      </trkpt>
      <trkpt lat="44.91754" lon="-0.01443">
        <ele>68.7</ele>
      </trkpt>
      <trkpt lat="44.91755" lon="-0.01446">
        <ele>68.7</ele>
      </trkpt>
      <trkpt lat="44.91767" lon="-0.01486">
        <ele>68.7</ele>
      </trkpt>
      <trkpt lat="44.91776" lon="-0.01507">
        <ele>69.3</ele>
      </trkpt>
      <trkpt lat="44.91782" lon="-0.01517">
        <ele>69.6</ele>
      </trkpt>
      <trkpt lat="44.91784" lon="-0.01519">
        <ele>69.6</ele>
      </trkpt>
      <trkpt lat="44.9179" lon="-0.01525">
        <ele>69.9</ele>
      </trkpt>
      <trkpt lat="44.91795" lon="-0.01527">
        <ele>70</ele>
      </trkpt>
      <trkpt lat="44.91796" lon="-0.01528">
        <ele>70</ele>
      </trkpt>
      <trkpt lat="44.91804" lon="-0.01531">
        <ele>70</ele>
      </trkpt>
      <trkpt lat="44.91814" lon="-0.01533">
        <ele>69.8</ele>
      </trkpt>
      <trkpt lat="44.91824" lon="-0.01535">
        <ele>69.5</ele>
      </trkpt>
      <trkpt lat="44.91832" lon="-0.01535">
        <ele>69.3</ele>
      </trkpt>
      <trkpt lat="44.91836" lon="-0.01535">
        <ele>69.4</ele>
      </trkpt>
      <trkpt lat="44.91862" lon="-0.01532">
        <ele>71</ele>
      </trkpt>
      <trkpt lat="44.9189" lon="-0.01528">
        <ele>72.1</ele>
      </trkpt>
      <trkpt lat="44.9191" lon="-0.01525">
        <ele>74.2</ele>
      </trkpt>
      <trkpt lat="44.91919" lon="-0.01523">
        <ele>75</ele>
      </trkpt>
      <trkpt lat="44.91928" lon="-0.0152">
        <ele>75.4</ele>
      </trkpt>
      <trkpt lat="44.91919" lon="-0.01523">
        <ele>75</ele>
      </trkpt>
      <trkpt lat="44.91919" lon="-0.01523">
        <ele>75</ele>
      </trkpt>
      <trkpt lat="44.91921" lon="-0.01533">
        <ele>75.5</ele>
      </trkpt>
      <trkpt lat="44.91923" lon="-0.0154">
        <ele>75.9</ele>
      </trkpt>
      <trkpt lat="44.91925" lon="-0.0155">
        <ele>76.4</ele>
      </trkpt>
      <trkpt lat="44.91932" lon="-0.0157">
        <ele>77.1</ele>
      </trkpt>
      <trkpt lat="44.91937" lon="-0.01585">
        <ele>77.4</ele>
      </trkpt>
      <trkpt lat="44.91943" lon="-0.01605">
        <ele>77.1</ele>
      </trkpt>
      <trkpt lat="44.91949" lon="-0.0163">
        <ele>77.5</ele>
      </trkpt>
      <trkpt lat="44.91954" lon="-0.01663">
        <ele>78.3</ele>
      </trkpt>
      <trkpt lat="44.91955" lon="-0.01676">
        <ele>78.7</ele>
      </trkpt>
      <trkpt lat="44.91958" lon="-0.01695">
        <ele>79.5</ele>
      </trkpt>
      <trkpt lat="44.91964" lon="-0.01716">
        <ele>80.1</ele>
      </trkpt>
      <trkpt lat="44.91968" lon="-0.01732">
        <ele>80.6</ele>
      </trkpt>
      <trkpt lat="44.91973" lon="-0.01746">
        <ele>81.1</ele>
      </trkpt>
      <trkpt lat="44.91979" lon="-0.01766">
        <ele>81.6</ele>
      </trkpt>
      <trkpt lat="44.91981" lon="-0.01784">
        <ele>81.9</ele>
      </trkpt>
      <trkpt lat="44.91984" lon="-0.01801">
        <ele>82.3</ele>
      </trkpt>
      <trkpt lat="44.91987" lon="-0.01821">
        <ele>82.9</ele>
      </trkpt>
      <trkpt lat="44.91992" lon="-0.01834">
        <ele>83.4</ele>
      </trkpt>
      <trkpt lat="44.91998" lon="-0.01849">
        <ele>83.9</ele>
      </trkpt>
      <trkpt lat="44.92011" lon="-0.01871">
        <ele>84.9</ele>
      </trkpt>
      <trkpt lat="44.92033" lon="-0.01905">
        <ele>87.1</ele>
      </trkpt>
      <trkpt lat="44.9204" lon="-0.01917">
        <ele>87.4</ele>
      </trkpt>
      <trkpt lat="44.92045" lon="-0.01913">
        <ele>87.5</ele>
      </trkpt>
      <trkpt lat="44.92045" lon="-0.01913">
        <ele>87.5</ele>
      </trkpt>
      <trkpt lat="44.92043" lon="-0.01902">
        <ele>87.3</ele>
      </trkpt>
      <trkpt lat="44.92045" lon="-0.01913">
        <ele>87.5</ele>
      </trkpt>
      <trkpt lat="44.92053" lon="-0.01972">
        <ele>88.9</ele>
      </trkpt>
      <trkpt lat="44.92064" lon="-0.02038">
        <ele>92.3</ele>
      </trkpt>
      <trkpt lat="44.92064" lon="-0.02044">
        <ele>92.8</ele>
      </trkpt>
      <trkpt lat="44.9208" lon="-0.02129">
        <ele>103</ele>
      </trkpt>
      <trkpt lat="44.92087" lon="-0.02166">
        <ele>105</ele>
      </trkpt>
      <trkpt lat="44.92095" lon="-0.02205">
        <ele>106.4</ele>
      </trkpt>
      <trkpt lat="44.92096" lon="-0.0221">
        <ele>106.6</ele>
      </trkpt>
      <trkpt lat="44.92101" lon="-0.02259">
        <ele>109</ele>
      </trkpt>
      <trkpt lat="44.92104" lon="-0.02295">
        <ele>110.8</ele>
      </trkpt>
      <trkpt lat="44.92105" lon="-0.02324">
        <ele>112.2</ele>
      </trkpt>
      <trkpt lat="44.92106" lon="-0.02349">
        <ele>113.2</ele>
      </trkpt>
      <trkpt lat="44.92104" lon="-0.02377">
        <ele>114.5</ele>
      </trkpt>
      <trkpt lat="44.921" lon="-0.02408">
        <ele>115.8</ele>
      </trkpt>
      <trkpt lat="44.92093" lon="-0.02435">
        <ele>116.4</ele>
      </trkpt>
      <trkpt lat="44.92088" lon="-0.02465">
        <ele>117</ele>
      </trkpt>
      <trkpt lat="44.92077" lon="-0.02493">
        <ele>117.5</ele>
      </trkpt>
      <trkpt lat="44.92066" lon="-0.02532">
        <ele>117.4</ele>
      </trkpt>
      <trkpt lat="44.92056" lon="-0.02571">
        <ele>117.4</ele>
      </trkpt>
      <trkpt lat="44.92046" lon="-0.02605">
        <ele>116.5</ele>
      </trkpt>
      <trkpt lat="44.92043" lon="-0.02618">
        <ele>116.3</ele>
      </trkpt>
      <trkpt lat="44.92038" lon="-0.02633">
        <ele>116.1</ele>
      </trkpt>
      <trkpt lat="44.92024" lon="-0.02681">
        <ele>115.9</ele>
      </trkpt>
      <trkpt lat="44.92012" lon="-0.02724">
        <ele>115</ele>
      </trkpt>
      <trkpt lat="44.92007" lon="-0.02739">
        <ele>115</ele>
      </trkpt>
      <trkpt lat="44.92003" lon="-0.02752">
        <ele>115</ele>
      </trkpt>
      <trkpt lat="44.91995" lon="-0.0277">
        <ele>114.8</ele>
      </trkpt>
      <trkpt lat="44.91978" lon="-0.0281">
        <ele>114.2</ele>
      </trkpt>
      <trkpt lat="44.9196" lon="-0.02845">
        <ele>114</ele>
      </trkpt>
      <trkpt lat="44.91944" lon="-0.02876">
        <ele>114</ele>
      </trkpt>
      <trkpt lat="44.91934" lon="-0.02897">
        <ele>114.1</ele>
      </trkpt>
      <trkpt lat="44.91929" lon="-0.02906">
        <ele>114.3</ele>
      </trkpt>
      <trkpt lat="44.91925" lon="-0.02918">
        <ele>114.7</ele>
      </trkpt>
      <trkpt lat="44.91922" lon="-0.02929">
        <ele>114.4</ele>
      </trkpt>
      <trkpt lat="44.91919" lon="-0.02938">
        <ele>114.2</ele>
      </trkpt>
      <trkpt lat="44.91919" lon="-0.0294">
        <ele>114.1</ele>
      </trkpt>
      <trkpt lat="44.91918" lon="-0.02946">
        <ele>114.1</ele>
      </trkpt>
      <trkpt lat="44.91918" lon="-0.02946">
        <ele>114.1</ele>
      </trkpt>
      <trkpt lat="44.91917" lon="-0.02948">
        <ele>114.1</ele>
      </trkpt>
      <trkpt lat="44.91917" lon="-0.0296">
        <ele>114.6</ele>
      </trkpt>
      <trkpt lat="44.91907" lon="-0.02966">
        <ele>114.3</ele>
      </trkpt>
      <trkpt lat="44.91881" lon="-0.02985">
        <ele>113.1</ele>
      </trkpt>
      <trkpt lat="44.9183" lon="-0.03018">
        <ele>109.8</ele>
      </trkpt>
      <trkpt lat="44.9179" lon="-0.03044">
        <ele>108.4</ele>
      </trkpt>
      <trkpt lat="44.91786" lon="-0.03047">
        <ele>108.5</ele>
      </trkpt>
      <trkpt lat="44.91769" lon="-0.03057">
        <ele>108.7</ele>
      </trkpt>
      <trkpt lat="44.91736" lon="-0.03067">
        <ele>108.4</ele>
      </trkpt>
      <trkpt lat="44.9168" lon="-0.03082">
        <ele>108.9</ele>
      </trkpt>
      <trkpt lat="44.91628" lon="-0.03097">
        <ele>109.8</ele>
      </trkpt>
      <trkpt lat="44.91593" lon="-0.03103">
        <ele>109.7</ele>
      </trkpt>
      <trkpt lat="44.91545" lon="-0.03105">
        <ele>109.8</ele>
      </trkpt>
      <trkpt lat="44.91507" lon="-0.03104">
        <ele>109.7</ele>
      </trkpt>
      <trkpt lat="44.91479" lon="-0.03099">
        <ele>109.6</ele>
      </trkpt>
      <trkpt lat="44.91478" lon="-0.03108">
        <ele>109.9</ele>
      </trkpt>
      <trkpt lat="44.91478" lon="-0.03108">
        <ele>109.9</ele>
      </trkpt>
      <trkpt lat="44.91479" lon="-0.03099">
        <ele>109.6</ele>
      </trkpt>
      <trkpt lat="44.9147" lon="-0.03097">
        <ele>109.5</ele>
      </trkpt>
      <trkpt lat="44.91428" lon="-0.0309">
        <ele>109</ele>
      </trkpt>
      <trkpt lat="44.91423" lon="-0.0309">
        <ele>109</ele>
      </trkpt>
      <trkpt lat="44.91411" lon="-0.03089">
        <ele>109.2</ele>
      </trkpt>
      <trkpt lat="44.91395" lon="-0.03088">
        <ele>109.8</ele>
      </trkpt>
      <trkpt lat="44.91373" lon="-0.03088">
        <ele>110</ele>
      </trkpt>
      <trkpt lat="44.91362" lon="-0.03089">
        <ele>110</ele>
      </trkpt>
      <trkpt lat="44.91352" lon="-0.03092">
        <ele>110.3</ele>
      </trkpt>
      <trkpt lat="44.91345" lon="-0.03095">
        <ele>110.6</ele>
      </trkpt>
      <trkpt lat="44.9133" lon="-0.031">
        <ele>111</ele>
      </trkpt>
      <trkpt lat="44.91316" lon="-0.03105">
        <ele>111</ele>
      </trkpt>
      <trkpt lat="44.91303" lon="-0.03113">
        <ele>111</ele>
      </trkpt>
      <trkpt lat="44.91281" lon="-0.03127">
        <ele>111</ele>
      </trkpt>
      <trkpt lat="44.91259" lon="-0.0314">
        <ele>110.3</ele>
      </trkpt>
      <trkpt lat="44.91245" lon="-0.03145">
        <ele>109.8</ele>
      </trkpt>
      <trkpt lat="44.91231" lon="-0.03148">
        <ele>109.3</ele>
      </trkpt>
      <trkpt lat="44.91214" lon="-0.03152">
        <ele>108.9</ele>
      </trkpt>
      <trkpt lat="44.91193" lon="-0.03154">
        <ele>108.4</ele>
      </trkpt>
      <trkpt lat="44.91176" lon="-0.03156">
        <ele>107.7</ele>
      </trkpt>
      <trkpt lat="44.91167" lon="-0.03156">
        <ele>107.4</ele>
      </trkpt>
      <trkpt lat="44.91167" lon="-0.03156">
        <ele>107.4</ele>
      </trkpt>
      <trkpt lat="44.91165" lon="-0.03187">
        <ele>107</ele>
      </trkpt>
      <trkpt lat="44.91164" lon="-0.03239">
        <ele>105.3</ele>
      </trkpt>
      <trkpt lat="44.91164" lon="-0.03245">
        <ele>105.1</ele>
      </trkpt>
      <trkpt lat="44.91163" lon="-0.0329">
        <ele>102.6</ele>
      </trkpt>
      <trkpt lat="44.91162" lon="-0.03329">
        <ele>101.2</ele>
      </trkpt>
      <trkpt lat="44.91161" lon="-0.03345">
        <ele>101</ele>
      </trkpt>
      <trkpt lat="44.91161" lon="-0.0336">
        <ele>101</ele>
      </trkpt>
      <trkpt lat="44.91162" lon="-0.03401">
        <ele>99.7</ele>
      </trkpt>
      <trkpt lat="44.91162" lon="-0.03438">
        <ele>99.2</ele>
      </trkpt>
      <trkpt lat="44.91161" lon="-0.03467">
        <ele>98.4</ele>
      </trkpt>
      <trkpt lat="44.91159" lon="-0.03495">
        <ele>98.3</ele>
      </trkpt>
      <trkpt lat="44.91158" lon="-0.03524">
        <ele>98.3</ele>
      </trkpt>
      <trkpt lat="44.91157" lon="-0.03558">
        <ele>97.3</ele>
      </trkpt>
      <trkpt lat="44.91157" lon="-0.03598">
        <ele>96.8</ele>
      </trkpt>
      <trkpt lat="44.91158" lon="-0.03636">
        <ele>96.3</ele>
      </trkpt>
      <trkpt lat="44.91156" lon="-0.03659">
        <ele>96.1</ele>
      </trkpt>
      <trkpt lat="44.91148" lon="-0.03691">
        <ele>95.1</ele>
      </trkpt>
      <trkpt lat="44.91139" lon="-0.03743">
        <ele>94</ele>
      </trkpt>
      <trkpt lat="44.91128" lon="-0.038">
        <ele>93.4</ele>
      </trkpt>
      <trkpt lat="44.91125" lon="-0.03823">
        <ele>92.9</ele>
      </trkpt>
      <trkpt lat="44.91126" lon="-0.03837">
        <ele>92.3</ele>
      </trkpt>
      <trkpt lat="44.91126" lon="-0.03837">
        <ele>92.3</ele>
      </trkpt>
      <trkpt lat="44.91116" lon="-0.03842">
        <ele>92.5</ele>
      </trkpt>
      <trkpt lat="44.91108" lon="-0.03841">
        <ele>92.8</ele>
      </trkpt>
      <trkpt lat="44.91094" lon="-0.03833">
        <ele>93</ele>
      </trkpt>
      <trkpt lat="44.9109" lon="-0.0383">
        <ele>93.1</ele>
      </trkpt>
      <trkpt lat="44.91083" lon="-0.03823">
        <ele>93.4</ele>
      </trkpt>
      <trkpt lat="44.91075" lon="-0.03815">
        <ele>93.2</ele>
      </trkpt>
      <trkpt lat="44.91071" lon="-0.03805">
        <ele>93.1</ele>
      </trkpt>
      <trkpt lat="44.91075" lon="-0.03815">
        <ele>93.2</ele>
      </trkpt>
      <trkpt lat="44.91075" lon="-0.03815">
        <ele>93.2</ele>
      </trkpt>
      <trkpt lat="44.9106" lon="-0.03813">
        <ele>92.3</ele>
      </trkpt>
      <trkpt lat="44.91041" lon="-0.03813">
        <ele>91.5</ele>
      </trkpt>
      <trkpt lat="44.91013" lon="-0.03816">
        <ele>90.8</ele>
      </trkpt>
      <trkpt lat="44.90981" lon="-0.03821">
        <ele>90.1</ele>
      </trkpt>
      <trkpt lat="44.90954" lon="-0.03829">
        <ele>90.1</ele>
      </trkpt>
      <trkpt lat="44.90929" lon="-0.03843">
        <ele>90.8</ele>
      </trkpt>
      <trkpt lat="44.90908" lon="-0.03858">
        <ele>91.7</ele>
      </trkpt>
      <trkpt lat="44.90887" lon="-0.03872">
        <ele>93.1</ele>
      </trkpt>
      <trkpt lat="44.90846" lon="-0.03889">
        <ele>94.5</ele>
      </trkpt>
      <trkpt lat="44.90834" lon="-0.03891">
        <ele>95</ele>
      </trkpt>
      <trkpt lat="44.90804" lon="-0.03894">
        <ele>95.8</ele>
      </trkpt>
      <trkpt lat="44.90754" lon="-0.03893">
        <ele>95.9</ele>
      </trkpt>
      <trkpt lat="44.9073" lon="-0.03895">
        <ele>95.2</ele>
      </trkpt>
      <trkpt lat="44.90712" lon="-0.03899">
        <ele>94.6</ele>
      </trkpt>
      <trkpt lat="44.907" lon="-0.0391">
        <ele>94.2</ele>
      </trkpt>
      <trkpt lat="44.90689" lon="-0.03925">
        <ele>93.7</ele>
      </trkpt>
      <trkpt lat="44.90683" lon="-0.03945">
        <ele>92.7</ele>
      </trkpt>
      <trkpt lat="44.9068" lon="-0.03963">
        <ele>91.1</ele>
      </trkpt>
      <trkpt lat="44.9068" lon="-0.03984">
        <ele>89.5</ele>
      </trkpt>
      <trkpt lat="44.90685" lon="-0.0402">
        <ele>88.4</ele>
      </trkpt>
      <trkpt lat="44.90694" lon="-0.04076">
        <ele>86.5</ele>
      </trkpt>
      <trkpt lat="44.90701" lon="-0.0412">
        <ele>84.7</ele>
      </trkpt>
      <trkpt lat="44.90708" lon="-0.04184">
        <ele>83.2</ele>
      </trkpt>
      <trkpt lat="44.90713" lon="-0.04256">
        <ele>81.9</ele>
      </trkpt>
      <trkpt lat="44.90719" lon="-0.04284">
        <ele>80.9</ele>
      </trkpt>
      <trkpt lat="44.9073" lon="-0.04309">
        <ele>79.6</ele>
      </trkpt>
      <trkpt lat="44.9074" lon="-0.04339">
        <ele>78.1</ele>
      </trkpt>
      <trkpt lat="44.90742" lon="-0.04358">
        <ele>77</ele>
      </trkpt>
      <trkpt lat="44.90738" lon="-0.04377">
        <ele>75.2</ele>
      </trkpt>
      <trkpt lat="44.9073" lon="-0.04395">
        <ele>74.2</ele>
      </trkpt>
      <trkpt lat="44.90725" lon="-0.044">
        <ele>74.1</ele>
      </trkpt>
      <trkpt lat="44.90719" lon="-0.04405">
        <ele>73.3</ele>
      </trkpt>
      <trkpt lat="44.90711" lon="-0.04406">
        <ele>72.7</ele>
      </trkpt>
      <trkpt lat="44.90696" lon="-0.04399">
        <ele>73.5</ele>
      </trkpt>
      <trkpt lat="44.90681" lon="-0.04389">
        <ele>73.6</ele>
      </trkpt>
      <trkpt lat="44.90667" lon="-0.0438">
        <ele>73</ele>
      </trkpt>
      <trkpt lat="44.90649" lon="-0.04374">
        <ele>71.4</ele>
      </trkpt>
      <trkpt lat="44.90634" lon="-0.0437">
        <ele>69.8</ele>
      </trkpt>
      <trkpt lat="44.90621" lon="-0.04361">
        <ele>69.2</ele>
      </trkpt>
      <trkpt lat="44.90606" lon="-0.04343">
        <ele>68.4</ele>
      </trkpt>
      <trkpt lat="44.90591" lon="-0.04313">
        <ele>68</ele>
      </trkpt>
      <trkpt lat="44.90581" lon="-0.04288">
        <ele>66.4</ele>
      </trkpt>
      <trkpt lat="44.9056" lon="-0.04271">
        <ele>64.2</ele>
      </trkpt>
      <trkpt lat="44.90537" lon="-0.04258">
        <ele>63.8</ele>
      </trkpt>
      <trkpt lat="44.90534" lon="-0.04257">
        <ele>63.8</ele>
      </trkpt>
      <trkpt lat="44.90524" lon="-0.04253">
        <ele>64.1</ele>
      </trkpt>
      <trkpt lat="44.90513" lon="-0.04253">
        <ele>64.5</ele>
      </trkpt>
      <trkpt lat="44.90497" lon="-0.04256">
        <ele>64.9</ele>
      </trkpt>
      <trkpt lat="44.90474" lon="-0.04266">
        <ele>65.9</ele>
      </trkpt>
      <trkpt lat="44.90448" lon="-0.04282">
        <ele>66.9</ele>
      </trkpt>
      <trkpt lat="44.90418" lon="-0.04305">
        <ele>68</ele>
      </trkpt>
      <trkpt lat="44.90407" lon="-0.0432">
        <ele>68.7</ele>
      </trkpt>
      <trkpt lat="44.90403" lon="-0.04336">
        <ele>69</ele>
      </trkpt>
      <trkpt lat="44.90401" lon="-0.04346">
        <ele>69.1</ele>
      </trkpt>
      <trkpt lat="44.90408" lon="-0.04388">
        <ele>69.3</ele>
      </trkpt>
      <trkpt lat="44.90428" lon="-0.04471">
        <ele>72.2</ele>
      </trkpt>
      <trkpt lat="44.90434" lon="-0.04505">
        <ele>73.4</ele>
      </trkpt>
      <trkpt lat="44.90433" lon="-0.04519">
        <ele>73.9</ele>
      </trkpt>
      <trkpt lat="44.9043" lon="-0.0453">
        <ele>74</ele>
      </trkpt>
      <trkpt lat="44.90418" lon="-0.04549">
        <ele>73.8</ele>
      </trkpt>
      <trkpt lat="44.90369" lon="-0.04601">
        <ele>75.9</ele>
      </trkpt>
      <trkpt lat="44.90349" lon="-0.04626">
        <ele>76.2</ele>
      </trkpt>
      <trkpt lat="44.9032" lon="-0.04663">
        <ele>77</ele>
      </trkpt>
      <trkpt lat="44.90274" lon="-0.04725">
        <ele>77</ele>
      </trkpt>
      <trkpt lat="44.90231" lon="-0.04783">
        <ele>77.3</ele>
      </trkpt>
      <trkpt lat="44.90201" lon="-0.04826">
        <ele>78.4</ele>
      </trkpt>
      <trkpt lat="44.90192" lon="-0.04845">
        <ele>78.8</ele>
      </trkpt>
      <trkpt lat="44.90187" lon="-0.04861">
        <ele>78.5</ele>
      </trkpt>
      <trkpt lat="44.90185" lon="-0.04882">
        <ele>79.2</ele>
      </trkpt>
      <trkpt lat="44.90184" lon="-0.04937">
        <ele>82.8</ele>
      </trkpt>
      <trkpt lat="44.9018" lon="-0.05016">
        <ele>86</ele>
      </trkpt>
      <trkpt lat="44.90178" lon="-0.05029">
        <ele>86.2</ele>
      </trkpt>
      <trkpt lat="44.90171" lon="-0.05039">
        <ele>86.8</ele>
      </trkpt>
      <trkpt lat="44.90158" lon="-0.0505">
        <ele>87.3</ele>
      </trkpt>
      <trkpt lat="44.90147" lon="-0.05057">
        <ele>87.7</ele>
      </trkpt>
      <trkpt lat="44.90125" lon="-0.05068">
        <ele>88.3</ele>
      </trkpt>
      <trkpt lat="44.90011" lon="-0.05129">
        <ele>89</ele>
      </trkpt>
      <trkpt lat="44.89993" lon="-0.05136">
        <ele>89.3</ele>
      </trkpt>
      <trkpt lat="44.89991" lon="-0.05139">
        <ele>89.3</ele>
      </trkpt>
      <trkpt lat="44.89986" lon="-0.05143">
        <ele>89.4</ele>
      </trkpt>
      <trkpt lat="44.89957" lon="-0.05161">
        <ele>89.2</ele>
      </trkpt>
      <trkpt lat="44.89952" lon="-0.05164">
        <ele>89.1</ele>
      </trkpt>
      <trkpt lat="44.89944" lon="-0.05171">
        <ele>89</ele>
      </trkpt>
      <trkpt lat="44.89939" lon="-0.05176">
        <ele>89.2</ele>
      </trkpt>
      <trkpt lat="44.89937" lon="-0.05178">
        <ele>89.3</ele>
      </trkpt>
      <trkpt lat="44.89935" lon="-0.05182">
        <ele>89.3</ele>
      </trkpt>
      <trkpt lat="44.89931" lon="-0.05189">
        <ele>89.5</ele>
      </trkpt>
      <trkpt lat="44.89929" lon="-0.05196">
        <ele>89.6</ele>
      </trkpt>
      <trkpt lat="44.89928" lon="-0.05202">
        <ele>89.6</ele>
      </trkpt>
      <trkpt lat="44.89925" lon="-0.05211">
        <ele>89.7</ele>
      </trkpt>
      <trkpt lat="44.89922" lon="-0.05233">
        <ele>89.9</ele>
      </trkpt>
      <trkpt lat="44.89919" lon="-0.05251">
        <ele>90</ele>
      </trkpt>
      <trkpt lat="44.89915" lon="-0.05274">
        <ele>90</ele>
      </trkpt>
      <trkpt lat="44.89906" lon="-0.05324">
        <ele>88.3</ele>
      </trkpt>
      <trkpt lat="44.89901" lon="-0.05348">
        <ele>87.9</ele>
      </trkpt>
      <trkpt lat="44.89897" lon="-0.05358">
        <ele>87.6</ele>
      </trkpt>
      <trkpt lat="44.89893" lon="-0.05368">
        <ele>87.1</ele>
      </trkpt>
      <trkpt lat="44.89883" lon="-0.05384">
        <ele>85.8</ele>
      </trkpt>
      <trkpt lat="44.89869" lon="-0.0541">
        <ele>84</ele>
      </trkpt>
      <trkpt lat="44.89863" lon="-0.05426">
        <ele>82.9</ele>
      </trkpt>
      <trkpt lat="44.89861" lon="-0.05434">
        <ele>82.4</ele>
      </trkpt>
      <trkpt lat="44.8986" lon="-0.05443">
        <ele>82</ele>
      </trkpt>
      <trkpt lat="44.8986" lon="-0.05451">
        <ele>81.7</ele>
      </trkpt>
      <trkpt lat="44.89862" lon="-0.05461">
        <ele>81.5</ele>
      </trkpt>
      <trkpt lat="44.89863" lon="-0.05471">
        <ele>81.2</ele>
      </trkpt>
      <trkpt lat="44.89863" lon="-0.0548">
        <ele>81.2</ele>
      </trkpt>
      <trkpt lat="44.89861" lon="-0.05487">
        <ele>81</ele>
      </trkpt>
      <trkpt lat="44.89859" lon="-0.05493">
        <ele>81</ele>
      </trkpt>
      <trkpt lat="44.89856" lon="-0.05499">
        <ele>81</ele>
      </trkpt>
      <trkpt lat="44.89851" lon="-0.05505">
        <ele>80.9</ele>
      </trkpt>
      <trkpt lat="44.89842" lon="-0.05514">
        <ele>80.8</ele>
      </trkpt>
      <trkpt lat="44.89833" lon="-0.05522">
        <ele>81</ele>
      </trkpt>
      <trkpt lat="44.89824" lon="-0.05531">
        <ele>81.7</ele>
      </trkpt>
      <trkpt lat="44.89817" lon="-0.05539">
        <ele>82.3</ele>
      </trkpt>
      <trkpt lat="44.89813" lon="-0.05547">
        <ele>82.6</ele>
      </trkpt>
      <trkpt lat="44.8981" lon="-0.05556">
        <ele>82.9</ele>
      </trkpt>
      <trkpt lat="44.89807" lon="-0.05568">
        <ele>83.4</ele>
      </trkpt>
      <trkpt lat="44.89805" lon="-0.05584">
        <ele>84</ele>
      </trkpt>
      <trkpt lat="44.898" lon="-0.05601">
        <ele>84.5</ele>
      </trkpt>
      <trkpt lat="44.89795" lon="-0.05611">
        <ele>85.1</ele>
      </trkpt>
      <trkpt lat="44.8979" lon="-0.05619">
        <ele>85.8</ele>
      </trkpt>
      <trkpt lat="44.89784" lon="-0.05626">
        <ele>86.4</ele>
      </trkpt>
      <trkpt lat="44.89777" lon="-0.05633">
        <ele>87</ele>
      </trkpt>
      <trkpt lat="44.89769" lon="-0.05638">
        <ele>87.3</ele>
      </trkpt>
      <trkpt lat="44.89751" lon="-0.05648">
        <ele>88</ele>
      </trkpt>
      <trkpt lat="44.89736" lon="-0.05655">
        <ele>88.5</ele>
      </trkpt>
      <trkpt lat="44.8973" lon="-0.0566">
        <ele>88.7</ele>
      </trkpt>
      <trkpt lat="44.89725" lon="-0.05668">
        <ele>88.9</ele>
      </trkpt>
      <trkpt lat="44.89723" lon="-0.05675">
        <ele>89</ele>
      </trkpt>
      <trkpt lat="44.89722" lon="-0.05681">
        <ele>89</ele>
      </trkpt>
      <trkpt lat="44.89722" lon="-0.05687">
        <ele>89</ele>
      </trkpt>
      <trkpt lat="44.89722" lon="-0.05694">
        <ele>89</ele>
      </trkpt>
      <trkpt lat="44.89724" lon="-0.05703">
        <ele>88.9</ele>
      </trkpt>
      <trkpt lat="44.89727" lon="-0.05712">
        <ele>88.8</ele>
      </trkpt>
      <trkpt lat="44.89732" lon="-0.05728">
        <ele>88.6</ele>
      </trkpt>
      <trkpt lat="44.89743" lon="-0.05756">
        <ele>88.4</ele>
      </trkpt>
      <trkpt lat="44.89751" lon="-0.05779">
        <ele>88.9</ele>
      </trkpt>
      <trkpt lat="44.89756" lon="-0.05792">
        <ele>88.4</ele>
      </trkpt>
      <trkpt lat="44.89767" lon="-0.05829">
        <ele>88</ele>
      </trkpt>
      <trkpt lat="44.89774" lon="-0.05857">
        <ele>88</ele>
      </trkpt>
      <trkpt lat="44.89778" lon="-0.05872">
        <ele>88</ele>
      </trkpt>
      <trkpt lat="44.8978" lon="-0.05882">
        <ele>87.9</ele>
      </trkpt>
      <trkpt lat="44.89786" lon="-0.05896">
        <ele>87.8</ele>
      </trkpt>
      <trkpt lat="44.89806" lon="-0.0594">
        <ele>88</ele>
      </trkpt>
      <trkpt lat="44.89817" lon="-0.05966">
        <ele>88</ele>
      </trkpt>
      <trkpt lat="44.89823" lon="-0.0598">
        <ele>88</ele>
      </trkpt>
      <trkpt lat="44.89827" lon="-0.05993">
        <ele>88</ele>
      </trkpt>
      <trkpt lat="44.8983" lon="-0.06005">
        <ele>88</ele>
      </trkpt>
      <trkpt lat="44.89834" lon="-0.0602">
        <ele>88</ele>
      </trkpt>
      <trkpt lat="44.8984" lon="-0.06048">
        <ele>87</ele>
      </trkpt>
      <trkpt lat="44.89842" lon="-0.06059">
        <ele>86.7</ele>
      </trkpt>
      <trkpt lat="44.89842" lon="-0.06063">
        <ele>86.7</ele>
      </trkpt>
      <trkpt lat="44.89842" lon="-0.0607">
        <ele>86.7</ele>
      </trkpt>
      <trkpt lat="44.89842" lon="-0.0608">
        <ele>86.7</ele>
      </trkpt>
      <trkpt lat="44.89842" lon="-0.06083">
        <ele>86.7</ele>
      </trkpt>
      <trkpt lat="44.89842" lon="-0.06106">
        <ele>86.1</ele>
      </trkpt>
      <trkpt lat="44.89842" lon="-0.06131">
        <ele>86</ele>
      </trkpt>
      <trkpt lat="44.89843" lon="-0.06148">
        <ele>85.7</ele>
      </trkpt>
      <trkpt lat="44.89844" lon="-0.06161">
        <ele>85.2</ele>
      </trkpt>
      <trkpt lat="44.89846" lon="-0.06171">
        <ele>85</ele>
      </trkpt>
      <trkpt lat="44.89849" lon="-0.06186">
        <ele>85</ele>
      </trkpt>
      <trkpt lat="44.89855" lon="-0.06206">
        <ele>85</ele>
      </trkpt>
      <trkpt lat="44.89858" lon="-0.06217">
        <ele>85</ele>
      </trkpt>
      <trkpt lat="44.89858" lon="-0.06217">
        <ele>85</ele>
      </trkpt>
      <trkpt lat="44.89852" lon="-0.06221">
        <ele>85</ele>
      </trkpt>
      <trkpt lat="44.89832" lon="-0.06236">
        <ele>85</ele>
      </trkpt>
      <trkpt lat="44.89833" lon="-0.06235">
        <ele>85</ele>
      </trkpt>
      <trkpt lat="44.89833" lon="-0.06235">
        <ele>85</ele>
      </trkpt>
      <trkpt lat="44.89831" lon="-0.06236">
        <ele>85</ele>
      </trkpt>
    </trkseg>
  </trk>
  <trk>
    <name><![CDATA[Traces DPT 33_31]]></name>
    <extensions>
      <line xmlns="http://www.topografix.com/GPX/gpx_style/0/2">
        <color>0000FF</color>
        <width>4</width>
      </line>
    </extensions>
    <trkseg>
      <trkpt lat="44.82985" lon="-0.18718">
        <ele>11.1</ele>
      </trkpt>
      <trkpt lat="44.82936" lon="-0.18734">
        <ele>12.2</ele>
      </trkpt>
      <trkpt lat="44.8292" lon="-0.18734">
        <ele>12.5</ele>
      </trkpt>
      <trkpt lat="44.82919" lon="-0.18739">
        <ele>12.4</ele>
      </trkpt>
      <trkpt lat="44.82914" lon="-0.18804">
        <ele>10.1</ele>
      </trkpt>
      <trkpt lat="44.82878" lon="-0.18823">
        <ele>9.4</ele>
      </trkpt>
      <trkpt lat="44.82858" lon="-0.18833">
        <ele>9.1</ele>
      </trkpt>
      <trkpt lat="44.82844" lon="-0.18839">
        <ele>9.4</ele>
      </trkpt>
      <trkpt lat="44.82831" lon="-0.18846">
        <ele>9.7</ele>
      </trkpt>
      <trkpt lat="44.82827" lon="-0.18849">
        <ele>9.9</ele>
      </trkpt>
      <trkpt lat="44.8282" lon="-0.18853">
        <ele>10.3</ele>
      </trkpt>
      <trkpt lat="44.8281" lon="-0.18862">
        <ele>10.6</ele>
      </trkpt>
      <trkpt lat="44.828" lon="-0.18872">
        <ele>10.9</ele>
      </trkpt>
      <trkpt lat="44.82781" lon="-0.18894">
        <ele>10.9</ele>
      </trkpt>
      <trkpt lat="44.8277" lon="-0.18908">
        <ele>11.4</ele>
      </trkpt>
      <trkpt lat="44.82758" lon="-0.18924">
        <ele>11.6</ele>
      </trkpt>
      <trkpt lat="44.82743" lon="-0.18947">
        <ele>12.2</ele>
      </trkpt>
      <trkpt lat="44.82732" lon="-0.18967">
        <ele>11.8</ele>
      </trkpt>
      <trkpt lat="44.82722" lon="-0.18984">
        <ele>11.6</ele>
      </trkpt>
      <trkpt lat="44.82703" lon="-0.19007">
        <ele>11.4</ele>
      </trkpt>
      <trkpt lat="44.82692" lon="-0.19022">
        <ele>11.4</ele>
      </trkpt>
      <trkpt lat="44.82667" lon="-0.19062">
        <ele>11.7</ele>
      </trkpt>
      <trkpt lat="44.82652" lon="-0.19088">
        <ele>11.4</ele>
      </trkpt>
      <trkpt lat="44.82639" lon="-0.19111">
        <ele>11</ele>
      </trkpt>
      <trkpt lat="44.82633" lon="-0.19125">
        <ele>11.3</ele>
      </trkpt>
      <trkpt lat="44.82618" lon="-0.19166">
        <ele>11.8</ele>
      </trkpt>
      <trkpt lat="44.82612" lon="-0.19189">
        <ele>11.2</ele>
      </trkpt>
      <trkpt lat="44.8261" lon="-0.19194">
        <ele>11.1</ele>
      </trkpt>
      <trkpt lat="44.82607" lon="-0.19202">
        <ele>11.3</ele>
      </trkpt>
      <trkpt lat="44.82602" lon="-0.19211">
        <ele>11.5</ele>
      </trkpt>
      <trkpt lat="44.826" lon="-0.19215">
        <ele>11.5</ele>
      </trkpt>
      <trkpt lat="44.82597" lon="-0.19219">
        <ele>11.6</ele>
      </trkpt>
      <trkpt lat="44.82585" lon="-0.19237">
        <ele>11.4</ele>
      </trkpt>
      <trkpt lat="44.82559" lon="-0.1927">
        <ele>11.2</ele>
      </trkpt>
      <trkpt lat="44.82538" lon="-0.19299">
        <ele>11.1</ele>
      </trkpt>
      <trkpt lat="44.82522" lon="-0.19319">
        <ele>11.5</ele>
      </trkpt>
      <trkpt lat="44.82513" lon="-0.19331">
        <ele>11.9</ele>
      </trkpt>
      <trkpt lat="44.82503" lon="-0.19341">
        <ele>12</ele>
      </trkpt>
      <trkpt lat="44.82489" lon="-0.19355">
        <ele>12</ele>
      </trkpt>
      <trkpt lat="44.82482" lon="-0.19361">
        <ele>12</ele>
      </trkpt>
      <trkpt lat="44.82458" lon="-0.19384">
        <ele>12.5</ele>
      </trkpt>
      <trkpt lat="44.82435" lon="-0.19404">
        <ele>12.8</ele>
      </trkpt>
      <trkpt lat="44.8242" lon="-0.19418">
        <ele>12.9</ele>
      </trkpt>
      <trkpt lat="44.82399" lon="-0.19434">
        <ele>14.1</ele>
      </trkpt>
      <trkpt lat="44.82382" lon="-0.19448">
        <ele>14.5</ele>
      </trkpt>
      <trkpt lat="44.82362" lon="-0.19463">
        <ele>15.3</ele>
      </trkpt>
      <trkpt lat="44.82338" lon="-0.1948">
        <ele>16.7</ele>
      </trkpt>
      <trkpt lat="44.82319" lon="-0.19495">
        <ele>17</ele>
      </trkpt>
      <trkpt lat="44.82309" lon="-0.19504">
        <ele>17.1</ele>
      </trkpt>
      <trkpt lat="44.82294" lon="-0.19521">
        <ele>17.9</ele>
      </trkpt>
      <trkpt lat="44.82282" lon="-0.19532">
        <ele>18.1</ele>
      </trkpt>
      <trkpt lat="44.82272" lon="-0.19541">
        <ele>18.7</ele>
      </trkpt>
      <trkpt lat="44.82244" lon="-0.19564">
        <ele>20.6</ele>
      </trkpt>
      <trkpt lat="44.82219" lon="-0.19587">
        <ele>21.6</ele>
      </trkpt>
      <trkpt lat="44.82197" lon="-0.19603">
        <ele>23.2</ele>
      </trkpt>
      <trkpt lat="44.82171" lon="-0.19622">
        <ele>25.3</ele>
      </trkpt>
      <trkpt lat="44.82165" lon="-0.19626">
        <ele>25.7</ele>
      </trkpt>
      <trkpt lat="44.82138" lon="-0.19639">
        <ele>27.1</ele>
      </trkpt>
      <trkpt lat="44.82137" lon="-0.19639">
        <ele>27.2</ele>
      </trkpt>
      <trkpt lat="44.82117" lon="-0.19647">
        <ele>28.9</ele>
      </trkpt>
      <trkpt lat="44.82051" lon="-0.19666">
        <ele>31.2</ele>
      </trkpt>
      <trkpt lat="44.81974" lon="-0.19685">
        <ele>34.9</ele>
      </trkpt>
      <trkpt lat="44.81954" lon="-0.1969">
        <ele>35</ele>
      </trkpt>
      <trkpt lat="44.81933" lon="-0.19695">
        <ele>35</ele>
      </trkpt>
      <trkpt lat="44.81862" lon="-0.19712">
        <ele>34.4</ele>
      </trkpt>
      <trkpt lat="44.81857" lon="-0.19714">
        <ele>34.3</ele>
      </trkpt>
      <trkpt lat="44.81804" lon="-0.19727">
        <ele>35</ele>
      </trkpt>
      <trkpt lat="44.8175" lon="-0.1974">
        <ele>36.6</ele>
      </trkpt>
      <trkpt lat="44.81696" lon="-0.19753">
        <ele>41.2</ele>
      </trkpt>
      <trkpt lat="44.81679" lon="-0.19757">
        <ele>43.1</ele>
      </trkpt>
      <trkpt lat="44.81619" lon="-0.19771">
        <ele>47.4</ele>
      </trkpt>
      <trkpt lat="44.81596" lon="-0.19776">
        <ele>48.3</ele>
      </trkpt>
      <trkpt lat="44.81574" lon="-0.19787">
        <ele>50.8</ele>
      </trkpt>
      <trkpt lat="44.81544" lon="-0.19806">
        <ele>53</ele>
      </trkpt>
      <trkpt lat="44.81537" lon="-0.19812">
        <ele>53.5</ele>
      </trkpt>
      <trkpt lat="44.81544" lon="-0.19806">
        <ele>53</ele>
      </trkpt>
      <trkpt lat="44.81527" lon="-0.19796">
        <ele>51.7</ele>
      </trkpt>
      <trkpt lat="44.81502" lon="-0.1978">
        <ele>52</ele>
      </trkpt>
      <trkpt lat="44.81494" lon="-0.19776">
        <ele>52.2</ele>
      </trkpt>
      <trkpt lat="44.81464" lon="-0.19761">
        <ele>53.3</ele>
      </trkpt>
      <trkpt lat="44.8146" lon="-0.19759">
        <ele>53.4</ele>
      </trkpt>
      <trkpt lat="44.81443" lon="-0.19752">
        <ele>54.1</ele>
      </trkpt>
      <trkpt lat="44.81428" lon="-0.19745">
        <ele>53.7</ele>
      </trkpt>
      <trkpt lat="44.81426" lon="-0.19744">
        <ele>53.6</ele>
      </trkpt>
      <trkpt lat="44.81408" lon="-0.1974">
        <ele>54.6</ele>
      </trkpt>
      <trkpt lat="44.8139" lon="-0.1974">
        <ele>56.5</ele>
      </trkpt>
      <trkpt lat="44.81386" lon="-0.19739">
        <ele>56.6</ele>
      </trkpt>
      <trkpt lat="44.81372" lon="-0.19741">
        <ele>56.9</ele>
      </trkpt>
      <trkpt lat="44.81354" lon="-0.19742">
        <ele>56.9</ele>
      </trkpt>
      <trkpt lat="44.81343" lon="-0.19743">
        <ele>56.8</ele>
      </trkpt>
      <trkpt lat="44.81318" lon="-0.19742">
        <ele>56.3</ele>
      </trkpt>
      <trkpt lat="44.81313" lon="-0.19742">
        <ele>56.2</ele>
      </trkpt>
      <trkpt lat="44.813" lon="-0.19741">
        <ele>55.8</ele>
      </trkpt>
      <trkpt lat="44.81294" lon="-0.19741">
        <ele>55.6</ele>
      </trkpt>
      <trkpt lat="44.81277" lon="-0.19744">
        <ele>55</ele>
      </trkpt>
      <trkpt lat="44.81264" lon="-0.19752">
        <ele>54.5</ele>
      </trkpt>
      <trkpt lat="44.81247" lon="-0.19757">
        <ele>53.8</ele>
      </trkpt>
      <trkpt lat="44.81233" lon="-0.19758">
        <ele>53.1</ele>
      </trkpt>
      <trkpt lat="44.81167" lon="-0.19768">
        <ele>54.3</ele>
      </trkpt>
      <trkpt lat="44.81146" lon="-0.19727">
        <ele>51.7</ele>
      </trkpt>
      <trkpt lat="44.81137" lon="-0.1971">
        <ele>51.3</ele>
      </trkpt>
      <trkpt lat="44.81128" lon="-0.1969">
        <ele>50.8</ele>
      </trkpt>
      <trkpt lat="44.81121" lon="-0.19681">
        <ele>50.8</ele>
      </trkpt>
      <trkpt lat="44.81113" lon="-0.19674">
        <ele>51.3</ele>
      </trkpt>
      <trkpt lat="44.81112" lon="-0.19674">
        <ele>51.4</ele>
      </trkpt>
      <trkpt lat="44.81098" lon="-0.19666">
        <ele>51.4</ele>
      </trkpt>
      <trkpt lat="44.81079" lon="-0.19661">
        <ele>51.7</ele>
      </trkpt>
      <trkpt lat="44.81068" lon="-0.19655">
        <ele>51.7</ele>
      </trkpt>
      <trkpt lat="44.81048" lon="-0.19642">
        <ele>51.3</ele>
      </trkpt>
      <trkpt lat="44.81045" lon="-0.1964">
        <ele>51.1</ele>
      </trkpt>
      <trkpt lat="44.81023" lon="-0.19626">
        <ele>50.7</ele>
      </trkpt>
      <trkpt lat="44.80996" lon="-0.19605">
        <ele>49.8</ele>
      </trkpt>
      <trkpt lat="44.80976" lon="-0.19586">
        <ele>49.9</ele>
      </trkpt>
      <trkpt lat="44.80961" lon="-0.1956">
        <ele>50.3</ele>
      </trkpt>
      <trkpt lat="44.80958" lon="-0.19554">
        <ele>50.5</ele>
      </trkpt>
      <trkpt lat="44.80947" lon="-0.19534">
        <ele>50.4</ele>
      </trkpt>
      <trkpt lat="44.80936" lon="-0.19513">
        <ele>49.8</ele>
      </trkpt>
      <trkpt lat="44.80915" lon="-0.19472">
        <ele>49.2</ele>
      </trkpt>
      <trkpt lat="44.80904" lon="-0.19452">
        <ele>49</ele>
      </trkpt>
      <trkpt lat="44.80894" lon="-0.19432">
        <ele>50.2</ele>
      </trkpt>
      <trkpt lat="44.80883" lon="-0.19411">
        <ele>52.2</ele>
      </trkpt>
      <trkpt lat="44.80853" lon="-0.19355">
        <ele>56</ele>
      </trkpt>
      <trkpt lat="44.80848" lon="-0.19326">
        <ele>56.2</ele>
      </trkpt>
      <trkpt lat="44.80844" lon="-0.19301">
        <ele>57.4</ele>
      </trkpt>
      <trkpt lat="44.80837" lon="-0.19286">
        <ele>58.4</ele>
      </trkpt>
      <trkpt lat="44.80834" lon="-0.1928">
        <ele>58.9</ele>
      </trkpt>
      <trkpt lat="44.80828" lon="-0.19264">
        <ele>58.9</ele>
      </trkpt>
      <trkpt lat="44.80853" lon="-0.19245">
        <ele>60.5</ele>
      </trkpt>
      <trkpt lat="44.80869" lon="-0.19231">
        <ele>61.5</ele>
      </trkpt>
      <trkpt lat="44.80882" lon="-0.19215">
        <ele>62.5</ele>
      </trkpt>
      <trkpt lat="44.80887" lon="-0.19209">
        <ele>62.9</ele>
      </trkpt>
      <trkpt lat="44.80893" lon="-0.19196">
        <ele>63.3</ele>
      </trkpt>
      <trkpt lat="44.80899" lon="-0.19183">
        <ele>63.7</ele>
      </trkpt>
      <trkpt lat="44.80903" lon="-0.19174">
        <ele>64</ele>
      </trkpt>
      <trkpt lat="44.80908" lon="-0.19159">
        <ele>64.4</ele>
      </trkpt>
      <trkpt lat="44.80916" lon="-0.19136">
        <ele>65</ele>
      </trkpt>
      <trkpt lat="44.8092" lon="-0.19115">
        <ele>65.2</ele>
      </trkpt>
      <trkpt lat="44.8092" lon="-0.19089">
        <ele>65.2</ele>
      </trkpt>
      <trkpt lat="44.80919" lon="-0.19077">
        <ele>65.4</ele>
      </trkpt>
      <trkpt lat="44.80917" lon="-0.19064">
        <ele>65.7</ele>
      </trkpt>
      <trkpt lat="44.80917" lon="-0.19063">
        <ele>65.8</ele>
      </trkpt>
      <trkpt lat="44.80912" lon="-0.19047">
        <ele>65.7</ele>
      </trkpt>
      <trkpt lat="44.80901" lon="-0.19023">
        <ele>65.3</ele>
      </trkpt>
      <trkpt lat="44.80901" lon="-0.19022">
        <ele>65.3</ele>
      </trkpt>
      <trkpt lat="44.80902" lon="-0.19018">
        <ele>65.3</ele>
      </trkpt>
      <trkpt lat="44.80904" lon="-0.19014">
        <ele>65.3</ele>
      </trkpt>
      <trkpt lat="44.80918" lon="-0.18992">
        <ele>66.1</ele>
      </trkpt>
      <trkpt lat="44.80943" lon="-0.18963">
        <ele>66.9</ele>
      </trkpt>
      <trkpt lat="44.80983" lon="-0.18915">
        <ele>68.8</ele>
      </trkpt>
      <trkpt lat="44.80987" lon="-0.18909">
        <ele>69.2</ele>
      </trkpt>
      <trkpt lat="44.81043" lon="-0.18845">
        <ele>72.8</ele>
      </trkpt>
      <trkpt lat="44.81085" lon="-0.18796">
        <ele>73.6</ele>
      </trkpt>
      <trkpt lat="44.81087" lon="-0.18793">
        <ele>73.5</ele>
      </trkpt>
      <trkpt lat="44.81103" lon="-0.18772">
        <ele>73.1</ele>
      </trkpt>
      <trkpt lat="44.8112" lon="-0.18752">
        <ele>73</ele>
      </trkpt>
      <trkpt lat="44.81123" lon="-0.18744">
        <ele>73.2</ele>
      </trkpt>
      <trkpt lat="44.81124" lon="-0.18743">
        <ele>73.3</ele>
      </trkpt>
      <trkpt lat="44.81128" lon="-0.18735">
        <ele>73.5</ele>
      </trkpt>
      <trkpt lat="44.8113" lon="-0.18728">
        <ele>73.8</ele>
      </trkpt>
      <trkpt lat="44.81132" lon="-0.18721">
        <ele>74</ele>
      </trkpt>
      <trkpt lat="44.81132" lon="-0.1871">
        <ele>74</ele>
      </trkpt>
      <trkpt lat="44.81131" lon="-0.18701">
        <ele>74</ele>
      </trkpt>
      <trkpt lat="44.8113" lon="-0.18697">
        <ele>74</ele>
      </trkpt>
      <trkpt lat="44.81126" lon="-0.18684">
        <ele>74.4</ele>
      </trkpt>
      <trkpt lat="44.81089" lon="-0.18592">
        <ele>76.7</ele>
      </trkpt>
      <trkpt lat="44.81062" lon="-0.18527">
        <ele>78.3</ele>
      </trkpt>
      <trkpt lat="44.81053" lon="-0.18505">
        <ele>78.8</ele>
      </trkpt>
      <trkpt lat="44.81043" lon="-0.18483">
        <ele>79.3</ele>
      </trkpt>
      <trkpt lat="44.80987" lon="-0.1835">
        <ele>81.7</ele>
      </trkpt>
      <trkpt lat="44.80977" lon="-0.18326">
        <ele>82.3</ele>
      </trkpt>
      <trkpt lat="44.80958" lon="-0.18283">
        <ele>83.4</ele>
      </trkpt>
      <trkpt lat="44.80935" lon="-0.18227">
        <ele>83.9</ele>
      </trkpt>
      <trkpt lat="44.80887" lon="-0.18107">
        <ele>86.2</ele>
      </trkpt>
      <trkpt lat="44.80885" lon="-0.18101">
        <ele>86.5</ele>
      </trkpt>
      <trkpt lat="44.80879" lon="-0.18084">
        <ele>87</ele>
      </trkpt>
      <trkpt lat="44.80847" lon="-0.17984">
        <ele>87.8</ele>
      </trkpt>
      <trkpt lat="44.80843" lon="-0.17968">
        <ele>88</ele>
      </trkpt>
      <trkpt lat="44.80836" lon="-0.17945">
        <ele>88</ele>
      </trkpt>
      <trkpt lat="44.80823" lon="-0.17898">
        <ele>88.1</ele>
      </trkpt>
      <trkpt lat="44.80819" lon="-0.17884">
        <ele>87.9</ele>
      </trkpt>
      <trkpt lat="44.80815" lon="-0.17875">
        <ele>87.8</ele>
      </trkpt>
      <trkpt lat="44.80794" lon="-0.17821">
        <ele>87.2</ele>
      </trkpt>
      <trkpt lat="44.80779" lon="-0.17787">
        <ele>86.3</ele>
      </trkpt>
      <trkpt lat="44.8077" lon="-0.17766">
        <ele>86</ele>
      </trkpt>
      <trkpt lat="44.8076" lon="-0.17744">
        <ele>85.7</ele>
      </trkpt>
      <trkpt lat="44.80757" lon="-0.17737">
        <ele>85.3</ele>
      </trkpt>
      <trkpt lat="44.80721" lon="-0.17662">
        <ele>81</ele>
      </trkpt>
      <trkpt lat="44.80684" lon="-0.17603">
        <ele>78.5</ele>
      </trkpt>
      <trkpt lat="44.80663" lon="-0.1757">
        <ele>76.9</ele>
      </trkpt>
      <trkpt lat="44.80663" lon="-0.17569">
        <ele>76.9</ele>
      </trkpt>
      <trkpt lat="44.80661" lon="-0.17566">
        <ele>76.9</ele>
      </trkpt>
      <trkpt lat="44.80667" lon="-0.17553">
        <ele>76.9</ele>
      </trkpt>
      <trkpt lat="44.80677" lon="-0.1753">
        <ele>76.8</ele>
      </trkpt>
      <trkpt lat="44.80683" lon="-0.17515">
        <ele>76.9</ele>
      </trkpt>
      <trkpt lat="44.80704" lon="-0.17477">
        <ele>76.5</ele>
      </trkpt>
      <trkpt lat="44.80726" lon="-0.17437">
        <ele>73.8</ele>
      </trkpt>
      <trkpt lat="44.8073" lon="-0.17432">
        <ele>73.6</ele>
      </trkpt>
      <trkpt lat="44.80744" lon="-0.17416">
        <ele>72.2</ele>
      </trkpt>
      <trkpt lat="44.80757" lon="-0.174">
        <ele>71.5</ele>
      </trkpt>
      <trkpt lat="44.8076" lon="-0.17397">
        <ele>71.4</ele>
      </trkpt>
      <trkpt lat="44.80787" lon="-0.17365">
        <ele>70.9</ele>
      </trkpt>
      <trkpt lat="44.80796" lon="-0.17352">
        <ele>70.6</ele>
      </trkpt>
      <trkpt lat="44.80798" lon="-0.1735">
        <ele>70.5</ele>
      </trkpt>
      <trkpt lat="44.8081" lon="-0.17331">
        <ele>69.5</ele>
      </trkpt>
      <trkpt lat="44.8082" lon="-0.17317">
        <ele>69.9</ele>
      </trkpt>
      <trkpt lat="44.80834" lon="-0.17292">
        <ele>69.6</ele>
      </trkpt>
      <trkpt lat="44.80842" lon="-0.1727">
        <ele>70.3</ele>
      </trkpt>
      <trkpt lat="44.80845" lon="-0.1726">
        <ele>70.5</ele>
      </trkpt>
      <trkpt lat="44.80848" lon="-0.17253">
        <ele>70.7</ele>
      </trkpt>
      <trkpt lat="44.80853" lon="-0.17227">
        <ele>69.9</ele>
      </trkpt>
      <trkpt lat="44.80854" lon="-0.17211">
        <ele>69.3</ele>
      </trkpt>
      <trkpt lat="44.80855" lon="-0.17186">
        <ele>68.9</ele>
      </trkpt>
      <trkpt lat="44.80856" lon="-0.17169">
        <ele>69.1</ele>
      </trkpt>
      <trkpt lat="44.80857" lon="-0.17152">
        <ele>68.4</ele>
      </trkpt>
      <trkpt lat="44.80858" lon="-0.17142">
        <ele>67.9</ele>
      </trkpt>
      <trkpt lat="44.8086" lon="-0.17134">
        <ele>67.9</ele>
      </trkpt>
      <trkpt lat="44.80862" lon="-0.17123">
        <ele>68.2</ele>
      </trkpt>
      <trkpt lat="44.80863" lon="-0.17113">
        <ele>68.3</ele>
      </trkpt>
      <trkpt lat="44.80864" lon="-0.17109">
        <ele>68.5</ele>
      </trkpt>
      <trkpt lat="44.80865" lon="-0.17102">
        <ele>68.7</ele>
      </trkpt>
      <trkpt lat="44.80865" lon="-0.17094">
        <ele>68.8</ele>
      </trkpt>
      <trkpt lat="44.80864" lon="-0.17084">
        <ele>68.6</ele>
      </trkpt>
      <trkpt lat="44.80861" lon="-0.17067">
        <ele>69.2</ele>
      </trkpt>
      <trkpt lat="44.80856" lon="-0.17048">
        <ele>69.6</ele>
      </trkpt>
      <trkpt lat="44.80852" lon="-0.17028">
        <ele>70</ele>
      </trkpt>
      <trkpt lat="44.80851" lon="-0.17012">
        <ele>70.7</ele>
      </trkpt>
      <trkpt lat="44.8085" lon="-0.17002">
        <ele>71.1</ele>
      </trkpt>
      <trkpt lat="44.8085" lon="-0.16993">
        <ele>71.3</ele>
      </trkpt>
      <trkpt lat="44.8085" lon="-0.16985">
        <ele>71.4</ele>
      </trkpt>
      <trkpt lat="44.8085" lon="-0.16977">
        <ele>71.5</ele>
      </trkpt>
      <trkpt lat="44.8085" lon="-0.16951">
        <ele>72.4</ele>
      </trkpt>
      <trkpt lat="44.8085" lon="-0.16928">
        <ele>72.8</ele>
      </trkpt>
      <trkpt lat="44.8085" lon="-0.16921">
        <ele>72.9</ele>
      </trkpt>
      <trkpt lat="44.80849" lon="-0.16902">
        <ele>72.5</ele>
      </trkpt>
      <trkpt lat="44.80849" lon="-0.16895">
        <ele>72.4</ele>
      </trkpt>
      <trkpt lat="44.80849" lon="-0.16876">
        <ele>72</ele>
      </trkpt>
      <trkpt lat="44.80854" lon="-0.16847">
        <ele>71.3</ele>
      </trkpt>
      <trkpt lat="44.80864" lon="-0.16794">
        <ele>67.3</ele>
      </trkpt>
      <trkpt lat="44.8087" lon="-0.16773">
        <ele>66</ele>
      </trkpt>
      <trkpt lat="44.80876" lon="-0.16753">
        <ele>64.8</ele>
      </trkpt>
      <trkpt lat="44.80882" lon="-0.16737">
        <ele>64.6</ele>
      </trkpt>
      <trkpt lat="44.80885" lon="-0.16727">
        <ele>64.7</ele>
      </trkpt>
      <trkpt lat="44.80887" lon="-0.16715">
        <ele>64.8</ele>
      </trkpt>
      <trkpt lat="44.80887" lon="-0.16706">
        <ele>64.8</ele>
      </trkpt>
      <trkpt lat="44.80887" lon="-0.16705">
        <ele>64.8</ele>
      </trkpt>
      <trkpt lat="44.80887" lon="-0.16696">
        <ele>64.8</ele>
      </trkpt>
      <trkpt lat="44.80884" lon="-0.16671">
        <ele>64.5</ele>
      </trkpt>
      <trkpt lat="44.8088" lon="-0.16641">
        <ele>64.7</ele>
      </trkpt>
      <trkpt lat="44.80876" lon="-0.16617">
        <ele>64.9</ele>
      </trkpt>
      <trkpt lat="44.80874" lon="-0.16597">
        <ele>65.1</ele>
      </trkpt>
      <trkpt lat="44.80871" lon="-0.16567">
        <ele>65.1</ele>
      </trkpt>
      <trkpt lat="44.80871" lon="-0.16547">
        <ele>65.4</ele>
      </trkpt>
      <trkpt lat="44.80871" lon="-0.16535">
        <ele>65.8</ele>
      </trkpt>
      <trkpt lat="44.80871" lon="-0.16509">
        <ele>66.1</ele>
      </trkpt>
      <trkpt lat="44.8087" lon="-0.16472">
        <ele>65</ele>
      </trkpt>
      <trkpt lat="44.80867" lon="-0.16439">
        <ele>63.6</ele>
      </trkpt>
      <trkpt lat="44.80862" lon="-0.16417">
        <ele>63.1</ele>
      </trkpt>
      <trkpt lat="44.8086" lon="-0.1641">
        <ele>62.9</ele>
      </trkpt>
      <trkpt lat="44.80858" lon="-0.164">
        <ele>62.8</ele>
      </trkpt>
      <trkpt lat="44.80848" lon="-0.16362">
        <ele>63</ele>
      </trkpt>
      <trkpt lat="44.80843" lon="-0.16343">
        <ele>63.2</ele>
      </trkpt>
      <trkpt lat="44.80831" lon="-0.16295">
        <ele>63.9</ele>
      </trkpt>
      <trkpt lat="44.80828" lon="-0.16281">
        <ele>63.8</ele>
      </trkpt>
      <trkpt lat="44.80822" lon="-0.16249">
        <ele>64.1</ele>
      </trkpt>
      <trkpt lat="44.80822" lon="-0.16235">
        <ele>63.6</ele>
      </trkpt>
      <trkpt lat="44.80823" lon="-0.16229">
        <ele>63.5</ele>
      </trkpt>
      <trkpt lat="44.80824" lon="-0.16222">
        <ele>63.3</ele>
      </trkpt>
      <trkpt lat="44.80826" lon="-0.16216">
        <ele>62.8</ele>
      </trkpt>
      <trkpt lat="44.80828" lon="-0.16209">
        <ele>62.2</ele>
      </trkpt>
      <trkpt lat="44.8083" lon="-0.16204">
        <ele>61.8</ele>
      </trkpt>
      <trkpt lat="44.80833" lon="-0.16196">
        <ele>61.1</ele>
      </trkpt>
      <trkpt lat="44.80839" lon="-0.16183">
        <ele>60</ele>
      </trkpt>
      <trkpt lat="44.80841" lon="-0.16179">
        <ele>59.8</ele>
      </trkpt>
      <trkpt lat="44.80873" lon="-0.16115">
        <ele>57.2</ele>
      </trkpt>
      <trkpt lat="44.80882" lon="-0.16096">
        <ele>56</ele>
      </trkpt>
      <trkpt lat="44.80914" lon="-0.16032">
        <ele>54.1</ele>
      </trkpt>
      <trkpt lat="44.80923" lon="-0.16012">
        <ele>52.5</ele>
      </trkpt>
      <trkpt lat="44.80946" lon="-0.15958">
        <ele>51.8</ele>
      </trkpt>
      <trkpt lat="44.8096" lon="-0.15926">
        <ele>51.5</ele>
      </trkpt>
      <trkpt lat="44.80962" lon="-0.15921">
        <ele>51.3</ele>
      </trkpt>
      <trkpt lat="44.80967" lon="-0.15905">
        <ele>50.3</ele>
      </trkpt>
      <trkpt lat="44.80967" lon="-0.15903">
        <ele>50.1</ele>
      </trkpt>
      <trkpt lat="44.80969" lon="-0.1589">
        <ele>49</ele>
      </trkpt>
      <trkpt lat="44.80969" lon="-0.15883">
        <ele>48.9</ele>
      </trkpt>
      <trkpt lat="44.80969" lon="-0.15867">
        <ele>48.8</ele>
      </trkpt>
      <trkpt lat="44.80962" lon="-0.15845">
        <ele>47.1</ele>
      </trkpt>
      <trkpt lat="44.80937" lon="-0.15786">
        <ele>41.7</ele>
      </trkpt>
      <trkpt lat="44.80935" lon="-0.15778">
        <ele>41</ele>
      </trkpt>
      <trkpt lat="44.80927" lon="-0.15755">
        <ele>39</ele>
      </trkpt>
      <trkpt lat="44.80919" lon="-0.15733">
        <ele>37.5</ele>
      </trkpt>
      <trkpt lat="44.80911" lon="-0.1571">
        <ele>35.9</ele>
      </trkpt>
      <trkpt lat="44.80894" lon="-0.15659">
        <ele>31.9</ele>
      </trkpt>
      <trkpt lat="44.80888" lon="-0.15641">
        <ele>31</ele>
      </trkpt>
      <trkpt lat="44.80879" lon="-0.15619">
        <ele>29.2</ele>
      </trkpt>
      <trkpt lat="44.80878" lon="-0.15615">
        <ele>28.9</ele>
      </trkpt>
      <trkpt lat="44.80894" lon="-0.15602">
        <ele>27.7</ele>
      </trkpt>
      <trkpt lat="44.80909" lon="-0.1559">
        <ele>26.5</ele>
      </trkpt>
      <trkpt lat="44.80954" lon="-0.15553">
        <ele>24.2</ele>
      </trkpt>
      <trkpt lat="44.80967" lon="-0.15541">
        <ele>23.9</ele>
      </trkpt>
      <trkpt lat="44.80975" lon="-0.15532">
        <ele>23.5</ele>
      </trkpt>
      <trkpt lat="44.80983" lon="-0.15518">
        <ele>23.1</ele>
      </trkpt>
      <trkpt lat="44.80976" lon="-0.15501">
        <ele>21.3</ele>
      </trkpt>
      <trkpt lat="44.80974" lon="-0.15496">
        <ele>21</ele>
      </trkpt>
      <trkpt lat="44.80956" lon="-0.15452">
        <ele>19.7</ele>
      </trkpt>
      <trkpt lat="44.80947" lon="-0.1543">
        <ele>18.9</ele>
      </trkpt>
      <trkpt lat="44.80941" lon="-0.15416">
        <ele>18.2</ele>
      </trkpt>
      <trkpt lat="44.80937" lon="-0.15403">
        <ele>17.9</ele>
      </trkpt>
      <trkpt lat="44.80936" lon="-0.15394">
        <ele>17.4</ele>
      </trkpt>
      <trkpt lat="44.80937" lon="-0.15386">
        <ele>16.9</ele>
      </trkpt>
      <trkpt lat="44.8094" lon="-0.15376">
        <ele>16.2</ele>
      </trkpt>
      <trkpt lat="44.80943" lon="-0.15363">
        <ele>15.1</ele>
      </trkpt>
      <trkpt lat="44.80944" lon="-0.15359">
        <ele>14.8</ele>
      </trkpt>
      <trkpt lat="44.80945" lon="-0.15351">
        <ele>14.3</ele>
      </trkpt>
      <trkpt lat="44.80945" lon="-0.1534">
        <ele>13.5</ele>
      </trkpt>
      <trkpt lat="44.80945" lon="-0.15328">
        <ele>12.6</ele>
      </trkpt>
      <trkpt lat="44.80943" lon="-0.15309">
        <ele>11.1</ele>
      </trkpt>
      <trkpt lat="44.80939" lon="-0.15289">
        <ele>9.4</ele>
      </trkpt>
      <trkpt lat="44.80931" lon="-0.15261">
        <ele>7.4</ele>
      </trkpt>
      <trkpt lat="44.80924" lon="-0.15238">
        <ele>6.3</ele>
      </trkpt>
      <trkpt lat="44.80918" lon="-0.15214">
        <ele>6</ele>
      </trkpt>
      <trkpt lat="44.8091" lon="-0.15191">
        <ele>6</ele>
      </trkpt>
      <trkpt lat="44.80902" lon="-0.15169">
        <ele>6</ele>
      </trkpt>
      <trkpt lat="44.809" lon="-0.15163">
        <ele>5.9</ele>
      </trkpt>
      <trkpt lat="44.8089" lon="-0.15142">
        <ele>6</ele>
      </trkpt>
      <trkpt lat="44.80883" lon="-0.15126">
        <ele>6</ele>
      </trkpt>
      <trkpt lat="44.80879" lon="-0.15119">
        <ele>6</ele>
      </trkpt>
      <trkpt lat="44.80871" lon="-0.15106">
        <ele>6</ele>
      </trkpt>
      <trkpt lat="44.80862" lon="-0.15091">
        <ele>6</ele>
      </trkpt>
      <trkpt lat="44.8086" lon="-0.15087">
        <ele>6</ele>
      </trkpt>
      <trkpt lat="44.80853" lon="-0.15078">
        <ele>6.7</ele>
      </trkpt>
      <trkpt lat="44.80847" lon="-0.15069">
        <ele>7.5</ele>
      </trkpt>
      <trkpt lat="44.80899" lon="-0.14984">
        <ele>8.6</ele>
      </trkpt>
      <trkpt lat="44.80905" lon="-0.14972">
        <ele>8.7</ele>
      </trkpt>
      <trkpt lat="44.80934" lon="-0.14919">
        <ele>8.4</ele>
      </trkpt>
      <trkpt lat="44.80947" lon="-0.14898">
        <ele>8.2</ele>
      </trkpt>
      <trkpt lat="44.80951" lon="-0.14895">
        <ele>8.1</ele>
      </trkpt>
      <trkpt lat="44.80963" lon="-0.14883">
        <ele>8</ele>
      </trkpt>
      <trkpt lat="44.80966" lon="-0.1488">
        <ele>8</ele>
      </trkpt>
      <trkpt lat="44.80976" lon="-0.14872">
        <ele>8.1</ele>
      </trkpt>
      <trkpt lat="44.80985" lon="-0.14864">
        <ele>8.3</ele>
      </trkpt>
      <trkpt lat="44.80995" lon="-0.14858">
        <ele>8.3</ele>
      </trkpt>
      <trkpt lat="44.81007" lon="-0.14848">
        <ele>8.1</ele>
      </trkpt>
      <trkpt lat="44.81016" lon="-0.1484">
        <ele>8</ele>
      </trkpt>
      <trkpt lat="44.81027" lon="-0.14828">
        <ele>8.2</ele>
      </trkpt>
      <trkpt lat="44.81029" lon="-0.14827">
        <ele>8.1</ele>
      </trkpt>
      <trkpt lat="44.8104" lon="-0.1481">
        <ele>8</ele>
      </trkpt>
      <trkpt lat="44.81051" lon="-0.14791">
        <ele>7.8</ele>
      </trkpt>
      <trkpt lat="44.81061" lon="-0.14772">
        <ele>8</ele>
      </trkpt>
      <trkpt lat="44.81077" lon="-0.14741">
        <ele>8.6</ele>
      </trkpt>
      <trkpt lat="44.81088" lon="-0.14723">
        <ele>8.8</ele>
      </trkpt>
      <trkpt lat="44.81091" lon="-0.1472">
        <ele>8.8</ele>
      </trkpt>
      <trkpt lat="44.81101" lon="-0.14708">
        <ele>8.9</ele>
      </trkpt>
      <trkpt lat="44.81117" lon="-0.14696">
        <ele>8.9</ele>
      </trkpt>
      <trkpt lat="44.81136" lon="-0.14688">
        <ele>9.7</ele>
      </trkpt>
      <trkpt lat="44.81175" lon="-0.14674">
        <ele>9.9</ele>
      </trkpt>
      <trkpt lat="44.81219" lon="-0.14661">
        <ele>9.3</ele>
      </trkpt>
      <trkpt lat="44.81239" lon="-0.14655">
        <ele>9.3</ele>
      </trkpt>
      <trkpt lat="44.81257" lon="-0.1465">
        <ele>9</ele>
      </trkpt>
      <trkpt lat="44.81279" lon="-0.14643">
        <ele>9.2</ele>
      </trkpt>
      <trkpt lat="44.81297" lon="-0.14635">
        <ele>7.8</ele>
      </trkpt>
      <trkpt lat="44.8131" lon="-0.14627">
        <ele>7.5</ele>
      </trkpt>
      <trkpt lat="44.81323" lon="-0.14616">
        <ele>7.2</ele>
      </trkpt>
      <trkpt lat="44.81354" lon="-0.14587">
        <ele>8</ele>
      </trkpt>
      <trkpt lat="44.81418" lon="-0.14528">
        <ele>8</ele>
      </trkpt>
      <trkpt lat="44.81444" lon="-0.14504">
        <ele>8</ele>
      </trkpt>
      <trkpt lat="44.8149" lon="-0.14463">
        <ele>8.6</ele>
      </trkpt>
      <trkpt lat="44.81492" lon="-0.1447">
        <ele>8.3</ele>
      </trkpt>
      <trkpt lat="44.81498" lon="-0.14485">
        <ele>8</ele>
      </trkpt>
      <trkpt lat="44.81506" lon="-0.14508">
        <ele>7.7</ele>
      </trkpt>
      <trkpt lat="44.8151" lon="-0.1452">
        <ele>7.3</ele>
      </trkpt>
      <trkpt lat="44.81514" lon="-0.14531">
        <ele>6.9</ele>
      </trkpt>
      <trkpt lat="44.81522" lon="-0.14554">
        <ele>6.3</ele>
      </trkpt>
      <trkpt lat="44.81529" lon="-0.14576">
        <ele>6.7</ele>
      </trkpt>
      <trkpt lat="44.81533" lon="-0.14587">
        <ele>7.1</ele>
      </trkpt>
      <trkpt lat="44.81542" lon="-0.14613">
        <ele>7.5</ele>
      </trkpt>
      <trkpt lat="44.81553" lon="-0.14648">
        <ele>8.2</ele>
      </trkpt>
      <trkpt lat="44.81557" lon="-0.14659">
        <ele>8.6</ele>
      </trkpt>
      <trkpt lat="44.81557" lon="-0.1466">
        <ele>8.6</ele>
      </trkpt>
      <trkpt lat="44.8156" lon="-0.14672">
        <ele>7.5</ele>
      </trkpt>
      <trkpt lat="44.81562" lon="-0.14683">
        <ele>5.3</ele>
      </trkpt>
      <trkpt lat="44.81562" lon="-0.14686">
        <ele>4.8</ele>
      </trkpt>
      <trkpt lat="44.81566" lon="-0.14707">
        <ele>5.5</ele>
      </trkpt>
      <trkpt lat="44.81566" lon="-0.14708">
        <ele>5.6</ele>
      </trkpt>
      <trkpt lat="44.81566" lon="-0.1471">
        <ele>6</ele>
      </trkpt>
      <trkpt lat="44.81569" lon="-0.14722">
        <ele>8</ele>
      </trkpt>
      <trkpt lat="44.81573" lon="-0.14731">
        <ele>7.8</ele>
      </trkpt>
      <trkpt lat="44.81578" lon="-0.14744">
        <ele>7.7</ele>
      </trkpt>
      <trkpt lat="44.81584" lon="-0.14755">
        <ele>7.6</ele>
      </trkpt>
      <trkpt lat="44.81593" lon="-0.14771">
        <ele>6.7</ele>
      </trkpt>
      <trkpt lat="44.81594" lon="-0.14772">
        <ele>6.6</ele>
      </trkpt>
      <trkpt lat="44.81604" lon="-0.14789">
        <ele>6.7</ele>
      </trkpt>
      <trkpt lat="44.81606" lon="-0.14791">
        <ele>6.8</ele>
      </trkpt>
      <trkpt lat="44.81629" lon="-0.14829">
        <ele>6.7</ele>
      </trkpt>
      <trkpt lat="44.81656" lon="-0.14872">
        <ele>7</ele>
      </trkpt>
      <trkpt lat="44.81675" lon="-0.14901">
        <ele>6.7</ele>
      </trkpt>
      <trkpt lat="44.81802" lon="-0.151">
        <ele>8.8</ele>
      </trkpt>
      <trkpt lat="44.81814" lon="-0.15122">
        <ele>8.7</ele>
      </trkpt>
      <trkpt lat="44.81832" lon="-0.15155">
        <ele>8.3</ele>
      </trkpt>
      <trkpt lat="44.81879" lon="-0.15247">
        <ele>10.7</ele>
      </trkpt>
      <trkpt lat="44.81881" lon="-0.1525">
        <ele>11</ele>
      </trkpt>
      <trkpt lat="44.81896" lon="-0.15243">
        <ele>10.4</ele>
      </trkpt>
      <trkpt lat="44.8191" lon="-0.15242">
        <ele>10.9</ele>
      </trkpt>
      <trkpt lat="44.81922" lon="-0.15242">
        <ele>10.7</ele>
      </trkpt>
      <trkpt lat="44.81923" lon="-0.15243">
        <ele>10.7</ele>
      </trkpt>
      <trkpt lat="44.81948" lon="-0.15251">
        <ele>8.8</ele>
      </trkpt>
      <trkpt lat="44.82007" lon="-0.15283">
        <ele>8.7</ele>
      </trkpt>
      <trkpt lat="44.8201" lon="-0.15284">
        <ele>8.7</ele>
      </trkpt>
      <trkpt lat="44.82024" lon="-0.1529">
        <ele>8.6</ele>
      </trkpt>
      <trkpt lat="44.82038" lon="-0.15295">
        <ele>8.2</ele>
      </trkpt>
      <trkpt lat="44.82042" lon="-0.15296">
        <ele>7.9</ele>
      </trkpt>
      <trkpt lat="44.82062" lon="-0.15301">
        <ele>6.8</ele>
      </trkpt>
      <trkpt lat="44.8208" lon="-0.15303">
        <ele>6.9</ele>
      </trkpt>
      <trkpt lat="44.82088" lon="-0.15304">
        <ele>7.1</ele>
      </trkpt>
      <trkpt lat="44.82116" lon="-0.15306">
        <ele>8</ele>
      </trkpt>
      <trkpt lat="44.82131" lon="-0.15307">
        <ele>7.7</ele>
      </trkpt>
      <trkpt lat="44.82138" lon="-0.15307">
        <ele>7.5</ele>
      </trkpt>
      <trkpt lat="44.82149" lon="-0.15307">
        <ele>7.1</ele>
      </trkpt>
      <trkpt lat="44.82195" lon="-0.15308">
        <ele>6.6</ele>
      </trkpt>
      <trkpt lat="44.82206" lon="-0.1531">
        <ele>7.1</ele>
      </trkpt>
      <trkpt lat="44.82214" lon="-0.15311">
        <ele>7.2</ele>
      </trkpt>
      <trkpt lat="44.8222" lon="-0.15315">
        <ele>8.1</ele>
      </trkpt>
      <trkpt lat="44.8223" lon="-0.1532">
        <ele>8</ele>
      </trkpt>
      <trkpt lat="44.82236" lon="-0.15326">
        <ele>8.2</ele>
      </trkpt>
      <trkpt lat="44.82245" lon="-0.15335">
        <ele>8.5</ele>
      </trkpt>
      <trkpt lat="44.82277" lon="-0.15376">
        <ele>10.2</ele>
      </trkpt>
      <trkpt lat="44.82303" lon="-0.1541">
        <ele>8.4</ele>
      </trkpt>
      <trkpt lat="44.82306" lon="-0.15413">
        <ele>7.4</ele>
      </trkpt>
      <trkpt lat="44.8233" lon="-0.15445">
        <ele>7.8</ele>
      </trkpt>
      <trkpt lat="44.82343" lon="-0.15462">
        <ele>7.1</ele>
      </trkpt>
      <trkpt lat="44.8237" lon="-0.15496">
        <ele>5.4</ele>
      </trkpt>
      <trkpt lat="44.82376" lon="-0.15504">
        <ele>5.7</ele>
      </trkpt>
      <trkpt lat="44.82409" lon="-0.15549">
        <ele>6.2</ele>
      </trkpt>
      <trkpt lat="44.82422" lon="-0.15567">
        <ele>6.7</ele>
      </trkpt>
      <trkpt lat="44.82445" lon="-0.156">
        <ele>5.7</ele>
      </trkpt>
      <trkpt lat="44.82447" lon="-0.15602">
        <ele>5.7</ele>
      </trkpt>
      <trkpt lat="44.82449" lon="-0.15605">
        <ele>5.8</ele>
      </trkpt>
      <trkpt lat="44.82459" lon="-0.1562">
        <ele>5.9</ele>
      </trkpt>
      <trkpt lat="44.8246" lon="-0.1562">
        <ele>5.8</ele>
      </trkpt>
      <trkpt lat="44.82479" lon="-0.15644">
        <ele>6.3</ele>
      </trkpt>
      <trkpt lat="44.8249" lon="-0.15655">
        <ele>6.1</ele>
      </trkpt>
      <trkpt lat="44.82514" lon="-0.15678">
        <ele>6.1</ele>
      </trkpt>
      <trkpt lat="44.82551" lon="-0.15709">
        <ele>5.4</ele>
      </trkpt>
      <trkpt lat="44.82557" lon="-0.15713">
        <ele>5.2</ele>
      </trkpt>
      <trkpt lat="44.8258" lon="-0.15731">
        <ele>5.7</ele>
      </trkpt>
      <trkpt lat="44.82594" lon="-0.15738">
        <ele>5.4</ele>
      </trkpt>
      <trkpt lat="44.82611" lon="-0.15747">
        <ele>5.6</ele>
      </trkpt>
      <trkpt lat="44.82635" lon="-0.15762">
        <ele>5</ele>
      </trkpt>
      <trkpt lat="44.82678" lon="-0.15785">
        <ele>4.5</ele>
      </trkpt>
      <trkpt lat="44.82687" lon="-0.15791">
        <ele>4.5</ele>
      </trkpt>
      <trkpt lat="44.82695" lon="-0.15797">
        <ele>4.7</ele>
      </trkpt>
      <trkpt lat="44.82696" lon="-0.15798">
        <ele>4.8</ele>
      </trkpt>
      <trkpt lat="44.82711" lon="-0.15814">
        <ele>5.2</ele>
      </trkpt>
      <trkpt lat="44.82721" lon="-0.15827">
        <ele>5.6</ele>
      </trkpt>
      <trkpt lat="44.82731" lon="-0.15844">
        <ele>6.3</ele>
      </trkpt>
      <trkpt lat="44.82745" lon="-0.15868">
        <ele>6.2</ele>
      </trkpt>
      <trkpt lat="44.82757" lon="-0.15894">
        <ele>6.3</ele>
      </trkpt>
      <trkpt lat="44.82765" lon="-0.15908">
        <ele>6.5</ele>
      </trkpt>
      <trkpt lat="44.82811" lon="-0.1599">
        <ele>6</ele>
      </trkpt>
      <trkpt lat="44.82822" lon="-0.16009">
        <ele>6.1</ele>
      </trkpt>
      <trkpt lat="44.82838" lon="-0.16042">
        <ele>6</ele>
      </trkpt>
      <trkpt lat="44.82843" lon="-0.16056">
        <ele>6</ele>
      </trkpt>
      <trkpt lat="44.82847" lon="-0.1607">
        <ele>6</ele>
      </trkpt>
      <trkpt lat="44.82851" lon="-0.16085">
        <ele>6</ele>
      </trkpt>
      <trkpt lat="44.82852" lon="-0.16091">
        <ele>6</ele>
      </trkpt>
      <trkpt lat="44.82857" lon="-0.16119">
        <ele>6</ele>
      </trkpt>
      <trkpt lat="44.82872" lon="-0.16166">
        <ele>6</ele>
      </trkpt>
      <trkpt lat="44.82879" lon="-0.16186">
        <ele>6</ele>
      </trkpt>
      <trkpt lat="44.82884" lon="-0.16201">
        <ele>6</ele>
      </trkpt>
      <trkpt lat="44.82894" lon="-0.16224">
        <ele>6</ele>
      </trkpt>
      <trkpt lat="44.82906" lon="-0.16244">
        <ele>6</ele>
      </trkpt>
      <trkpt lat="44.82909" lon="-0.16247">
        <ele>6</ele>
      </trkpt>
      <trkpt lat="44.82911" lon="-0.16249">
        <ele>6</ele>
      </trkpt>
      <trkpt lat="44.82923" lon="-0.16263">
        <ele>6</ele>
      </trkpt>
      <trkpt lat="44.82941" lon="-0.16282">
        <ele>6</ele>
      </trkpt>
      <trkpt lat="44.82951" lon="-0.16294">
        <ele>6</ele>
      </trkpt>
      <trkpt lat="44.82964" lon="-0.16312">
        <ele>6</ele>
      </trkpt>
      <trkpt lat="44.82977" lon="-0.16328">
        <ele>6</ele>
      </trkpt>
      <trkpt lat="44.82983" lon="-0.16334">
        <ele>6</ele>
      </trkpt>
      <trkpt lat="44.8299" lon="-0.16339">
        <ele>6</ele>
      </trkpt>
      <trkpt lat="44.83006" lon="-0.16345">
        <ele>6</ele>
      </trkpt>
      <trkpt lat="44.8302" lon="-0.16349">
        <ele>6</ele>
      </trkpt>
      <trkpt lat="44.8303" lon="-0.16354">
        <ele>6</ele>
      </trkpt>
      <trkpt lat="44.83036" lon="-0.1636">
        <ele>6</ele>
      </trkpt>
      <trkpt lat="44.83036" lon="-0.16359">
        <ele>6</ele>
      </trkpt>
      <trkpt lat="44.83039" lon="-0.16362">
        <ele>6</ele>
      </trkpt>
      <trkpt lat="44.83042" lon="-0.16366">
        <ele>6</ele>
      </trkpt>
      <trkpt lat="44.83049" lon="-0.16382">
        <ele>6</ele>
      </trkpt>
      <trkpt lat="44.83056" lon="-0.16407">
        <ele>6</ele>
      </trkpt>
      <trkpt lat="44.83063" lon="-0.16455">
        <ele>6</ele>
      </trkpt>
      <trkpt lat="44.83063" lon="-0.16474">
        <ele>6</ele>
      </trkpt>
      <trkpt lat="44.83061" lon="-0.16492">
        <ele>6</ele>
      </trkpt>
      <trkpt lat="44.83055" lon="-0.16511">
        <ele>6.4</ele>
      </trkpt>
      <trkpt lat="44.8305" lon="-0.16526">
        <ele>6.8</ele>
      </trkpt>
      <trkpt lat="44.83042" lon="-0.1655">
        <ele>6.5</ele>
      </trkpt>
      <trkpt lat="44.83042" lon="-0.16551">
        <ele>6.5</ele>
      </trkpt>
      <trkpt lat="44.83036" lon="-0.16578">
        <ele>6.7</ele>
      </trkpt>
      <trkpt lat="44.83032" lon="-0.166">
        <ele>6.8</ele>
      </trkpt>
      <trkpt lat="44.83027" lon="-0.1662">
        <ele>7</ele>
      </trkpt>
      <trkpt lat="44.83026" lon="-0.16651">
        <ele>7</ele>
      </trkpt>
      <trkpt lat="44.8301" lon="-0.16674">
        <ele>7.6</ele>
      </trkpt>
      <trkpt lat="44.83004" lon="-0.16682">
        <ele>7.9</ele>
      </trkpt>
      <trkpt lat="44.82994" lon="-0.1669">
        <ele>8</ele>
      </trkpt>
      <trkpt lat="44.82983" lon="-0.16696">
        <ele>8</ele>
      </trkpt>
      <trkpt lat="44.82958" lon="-0.16704">
        <ele>8</ele>
      </trkpt>
      <trkpt lat="44.82913" lon="-0.16717">
        <ele>9</ele>
      </trkpt>
      <trkpt lat="44.82903" lon="-0.1672">
        <ele>9.1</ele>
      </trkpt>
      <trkpt lat="44.82899" lon="-0.16724">
        <ele>9</ele>
      </trkpt>
      <trkpt lat="44.82897" lon="-0.16729">
        <ele>9.2</ele>
      </trkpt>
      <trkpt lat="44.82897" lon="-0.16737">
        <ele>9.4</ele>
      </trkpt>
      <trkpt lat="44.82898" lon="-0.16747">
        <ele>9.6</ele>
      </trkpt>
      <trkpt lat="44.82904" lon="-0.16767">
        <ele>9.7</ele>
      </trkpt>
      <trkpt lat="44.82916" lon="-0.16795">
        <ele>9.7</ele>
      </trkpt>
      <trkpt lat="44.82918" lon="-0.16806">
        <ele>9.9</ele>
      </trkpt>
      <trkpt lat="44.82918" lon="-0.16817">
        <ele>10.3</ele>
      </trkpt>
      <trkpt lat="44.82918" lon="-0.16826">
        <ele>10.6</ele>
      </trkpt>
      <trkpt lat="44.82914" lon="-0.1684">
        <ele>11.1</ele>
      </trkpt>
      <trkpt lat="44.82921" lon="-0.16846">
        <ele>10.6</ele>
      </trkpt>
      <trkpt lat="44.82927" lon="-0.16853">
        <ele>10.1</ele>
      </trkpt>
      <trkpt lat="44.82932" lon="-0.16858">
        <ele>9.8</ele>
      </trkpt>
      <trkpt lat="44.82941" lon="-0.1687">
        <ele>9.8</ele>
      </trkpt>
      <trkpt lat="44.82952" lon="-0.16889">
        <ele>10.2</ele>
      </trkpt>
      <trkpt lat="44.82962" lon="-0.1691">
        <ele>9.6</ele>
      </trkpt>
      <trkpt lat="44.82974" lon="-0.16932">
        <ele>9.5</ele>
      </trkpt>
      <trkpt lat="44.82982" lon="-0.16947">
        <ele>9.6</ele>
      </trkpt>
      <trkpt lat="44.82993" lon="-0.16969">
        <ele>9.3</ele>
      </trkpt>
      <trkpt lat="44.83003" lon="-0.16994">
        <ele>9.7</ele>
      </trkpt>
      <trkpt lat="44.83029" lon="-0.17067">
        <ele>9.4</ele>
      </trkpt>
      <trkpt lat="44.83031" lon="-0.17073">
        <ele>9.5</ele>
      </trkpt>
      <trkpt lat="44.83049" lon="-0.17116">
        <ele>9.6</ele>
      </trkpt>
      <trkpt lat="44.83074" lon="-0.17177">
        <ele>9.5</ele>
      </trkpt>
      <trkpt lat="44.83082" lon="-0.17194">
        <ele>9.2</ele>
      </trkpt>
      <trkpt lat="44.83083" lon="-0.17198">
        <ele>9.2</ele>
      </trkpt>
      <trkpt lat="44.83111" lon="-0.1727">
        <ele>8.7</ele>
      </trkpt>
      <trkpt lat="44.8312" lon="-0.17295">
        <ele>8.8</ele>
      </trkpt>
      <trkpt lat="44.83126" lon="-0.17316">
        <ele>8.2</ele>
      </trkpt>
      <trkpt lat="44.83129" lon="-0.17328">
        <ele>7.5</ele>
      </trkpt>
      <trkpt lat="44.83132" lon="-0.17342">
        <ele>7.4</ele>
      </trkpt>
      <trkpt lat="44.83135" lon="-0.17361">
        <ele>7.7</ele>
      </trkpt>
      <trkpt lat="44.83137" lon="-0.17386">
        <ele>8.2</ele>
      </trkpt>
      <trkpt lat="44.83136" lon="-0.1741">
        <ele>7.9</ele>
      </trkpt>
      <trkpt lat="44.83136" lon="-0.17421">
        <ele>7.7</ele>
      </trkpt>
      <trkpt lat="44.83136" lon="-0.17452">
        <ele>7.6</ele>
      </trkpt>
      <trkpt lat="44.83136" lon="-0.17471">
        <ele>7.4</ele>
      </trkpt>
      <trkpt lat="44.83138" lon="-0.17484">
        <ele>7.1</ele>
      </trkpt>
      <trkpt lat="44.83142" lon="-0.175">
        <ele>7</ele>
      </trkpt>
      <trkpt lat="44.83147" lon="-0.17513">
        <ele>7</ele>
      </trkpt>
      <trkpt lat="44.83148" lon="-0.17516">
        <ele>7</ele>
      </trkpt>
      <trkpt lat="44.83152" lon="-0.17524">
        <ele>7</ele>
      </trkpt>
      <trkpt lat="44.83159" lon="-0.17534">
        <ele>7.1</ele>
      </trkpt>
      <trkpt lat="44.83165" lon="-0.17541">
        <ele>7</ele>
      </trkpt>
      <trkpt lat="44.83184" lon="-0.17561">
        <ele>6.4</ele>
      </trkpt>
      <trkpt lat="44.83191" lon="-0.17567">
        <ele>6.1</ele>
      </trkpt>
      <trkpt lat="44.83211" lon="-0.17586">
        <ele>5.4</ele>
      </trkpt>
      <trkpt lat="44.83222" lon="-0.17598">
        <ele>5</ele>
      </trkpt>
      <trkpt lat="44.83228" lon="-0.17605">
        <ele>4.7</ele>
      </trkpt>
      <trkpt lat="44.83232" lon="-0.17613">
        <ele>4.7</ele>
      </trkpt>
      <trkpt lat="44.83236" lon="-0.1762">
        <ele>4.7</ele>
      </trkpt>
      <trkpt lat="44.83238" lon="-0.17629">
        <ele>4.8</ele>
      </trkpt>
      <trkpt lat="44.8324" lon="-0.17638">
        <ele>5</ele>
      </trkpt>
      <trkpt lat="44.83241" lon="-0.17647">
        <ele>5</ele>
      </trkpt>
      <trkpt lat="44.83241" lon="-0.17656">
        <ele>5</ele>
      </trkpt>
      <trkpt lat="44.83239" lon="-0.17676">
        <ele>5</ele>
      </trkpt>
      <trkpt lat="44.83232" lon="-0.17729">
        <ele>4.6</ele>
      </trkpt>
      <trkpt lat="44.83229" lon="-0.17748">
        <ele>4.8</ele>
      </trkpt>
      <trkpt lat="44.83224" lon="-0.17793">
        <ele>4.9</ele>
      </trkpt>
      <trkpt lat="44.83223" lon="-0.17815">
        <ele>5</ele>
      </trkpt>
      <trkpt lat="44.83223" lon="-0.17826">
        <ele>5</ele>
      </trkpt>
      <trkpt lat="44.83223" lon="-0.17839">
        <ele>5</ele>
      </trkpt>
      <trkpt lat="44.83224" lon="-0.1785">
        <ele>4.9</ele>
      </trkpt>
      <trkpt lat="44.83225" lon="-0.17861">
        <ele>4.9</ele>
      </trkpt>
      <trkpt lat="44.83241" lon="-0.17967">
        <ele>4.6</ele>
      </trkpt>
      <trkpt lat="44.83246" lon="-0.1799">
        <ele>4.8</ele>
      </trkpt>
      <trkpt lat="44.8325" lon="-0.18012">
        <ele>5</ele>
      </trkpt>
      <trkpt lat="44.83258" lon="-0.18045">
        <ele>4.9</ele>
      </trkpt>
      <trkpt lat="44.83266" lon="-0.18075">
        <ele>5.3</ele>
      </trkpt>
      <trkpt lat="44.8327" lon="-0.1809">
        <ele>5.5</ele>
      </trkpt>
      <trkpt lat="44.83271" lon="-0.18097">
        <ele>5.6</ele>
      </trkpt>
      <trkpt lat="44.83272" lon="-0.18105">
        <ele>5.8</ele>
      </trkpt>
      <trkpt lat="44.83272" lon="-0.18112">
        <ele>6</ele>
      </trkpt>
      <trkpt lat="44.83271" lon="-0.1812">
        <ele>6</ele>
      </trkpt>
      <trkpt lat="44.83268" lon="-0.18137">
        <ele>6</ele>
      </trkpt>
      <trkpt lat="44.83264" lon="-0.18151">
        <ele>5.8</ele>
      </trkpt>
      <trkpt lat="44.83258" lon="-0.18172">
        <ele>5.1</ele>
      </trkpt>
      <trkpt lat="44.83245" lon="-0.18215">
        <ele>5.4</ele>
      </trkpt>
      <trkpt lat="44.83239" lon="-0.18234">
        <ele>5.3</ele>
      </trkpt>
      <trkpt lat="44.8323" lon="-0.1827">
        <ele>5.5</ele>
      </trkpt>
      <trkpt lat="44.83225" lon="-0.1829">
        <ele>6.2</ele>
      </trkpt>
      <trkpt lat="44.8322" lon="-0.18311">
        <ele>5.8</ele>
      </trkpt>
      <trkpt lat="44.83211" lon="-0.18354">
        <ele>5.2</ele>
      </trkpt>
      <trkpt lat="44.8319" lon="-0.18433">
        <ele>7.2</ele>
      </trkpt>
      <trkpt lat="44.83189" lon="-0.18436">
        <ele>7.2</ele>
      </trkpt>
      <trkpt lat="44.83178" lon="-0.1848">
        <ele>5.3</ele>
      </trkpt>
      <trkpt lat="44.83168" lon="-0.18535">
        <ele>5.8</ele>
      </trkpt>
      <trkpt lat="44.83162" lon="-0.18565">
        <ele>6.2</ele>
      </trkpt>
      <trkpt lat="44.83166" lon="-0.18571">
        <ele>6</ele>
      </trkpt>
      <trkpt lat="44.83168" lon="-0.18575">
        <ele>5.8</ele>
      </trkpt>
      <trkpt lat="44.83178" lon="-0.18592">
        <ele>4.5</ele>
      </trkpt>
      <trkpt lat="44.83179" lon="-0.18596">
        <ele>4.5</ele>
      </trkpt>
      <trkpt lat="44.83181" lon="-0.18605">
        <ele>4.6</ele>
      </trkpt>
      <trkpt lat="44.83181" lon="-0.18614">
        <ele>4.8</ele>
      </trkpt>
      <trkpt lat="44.83182" lon="-0.18616">
        <ele>4.5</ele>
      </trkpt>
      <trkpt lat="44.83183" lon="-0.18635">
        <ele>4.2</ele>
      </trkpt>
      <trkpt lat="44.83184" lon="-0.18641">
        <ele>4.1</ele>
      </trkpt>
      <trkpt lat="44.83186" lon="-0.18666">
        <ele>3.5</ele>
      </trkpt>
      <trkpt lat="44.83189" lon="-0.18717">
        <ele>2.8</ele>
      </trkpt>
      <trkpt lat="44.83191" lon="-0.18744">
        <ele>2.5</ele>
      </trkpt>
      <trkpt lat="44.83191" lon="-0.18751">
        <ele>2.5</ele>
      </trkpt>
      <trkpt lat="44.8319" lon="-0.18756">
        <ele>2.8</ele>
      </trkpt>
      <trkpt lat="44.83188" lon="-0.18767">
        <ele>3.4</ele>
      </trkpt>
      <trkpt lat="44.83186" lon="-0.18761">
        <ele>3.5</ele>
      </trkpt>
      <trkpt lat="44.83184" lon="-0.18753">
        <ele>3.6</ele>
      </trkpt>
      <trkpt lat="44.83181" lon="-0.18749">
        <ele>3.9</ele>
      </trkpt>
      <trkpt lat="44.83179" lon="-0.18746">
        <ele>4.2</ele>
      </trkpt>
      <trkpt lat="44.83176" lon="-0.18743">
        <ele>4.7</ele>
      </trkpt>
      <trkpt lat="44.83174" lon="-0.18741">
        <ele>4.9</ele>
      </trkpt>
      <trkpt lat="44.8317" lon="-0.18738">
        <ele>5.5</ele>
      </trkpt>
      <trkpt lat="44.83167" lon="-0.18734">
        <ele>6</ele>
      </trkpt>
      <trkpt lat="44.83165" lon="-0.18729">
        <ele>6</ele>
      </trkpt>
      <trkpt lat="44.83163" lon="-0.18724">
        <ele>6.1</ele>
      </trkpt>
      <trkpt lat="44.83162" lon="-0.18718">
        <ele>6.2</ele>
      </trkpt>
      <trkpt lat="44.8316" lon="-0.18709">
        <ele>6.4</ele>
      </trkpt>
      <trkpt lat="44.83158" lon="-0.18701">
        <ele>6.6</ele>
      </trkpt>
      <trkpt lat="44.83149" lon="-0.18668">
        <ele>7.6</ele>
      </trkpt>
      <trkpt lat="44.83147" lon="-0.18666">
        <ele>7.7</ele>
      </trkpt>
      <trkpt lat="44.83144" lon="-0.18664">
        <ele>7.9</ele>
      </trkpt>
      <trkpt lat="44.83142" lon="-0.18665">
        <ele>7.9</ele>
      </trkpt>
      <trkpt lat="44.83121" lon="-0.18666">
        <ele>9.3</ele>
      </trkpt>
      <trkpt lat="44.83109" lon="-0.18668">
        <ele>10</ele>
      </trkpt>
      <trkpt lat="44.83098" lon="-0.18672">
        <ele>9.9</ele>
      </trkpt>
      <trkpt lat="44.83091" lon="-0.18673">
        <ele>9.9</ele>
      </trkpt>
      <trkpt lat="44.83083" lon="-0.18675">
        <ele>10</ele>
      </trkpt>
      <trkpt lat="44.8307" lon="-0.18677">
        <ele>10</ele>
      </trkpt>
      <trkpt lat="44.83051" lon="-0.18676">
        <ele>10.2</ele>
      </trkpt>
      <trkpt lat="44.83024" lon="-0.18678">
        <ele>11.1</ele>
      </trkpt>
      <trkpt lat="44.83017" lon="-0.1868">
        <ele>11.2</ele>
      </trkpt>
      <trkpt lat="44.83002" lon="-0.18683">
        <ele>11.4</ele>
      </trkpt>
      <trkpt lat="44.82982" lon="-0.18689">
        <ele>11.7</ele>
      </trkpt>
      <trkpt lat="44.82985" lon="-0.18703">
        <ele>11.4</ele>
      </trkpt>
      <trkpt lat="44.82988" lon="-0.18717">
        <ele>11.1</ele>
      </trkpt>
      <trkpt lat="44.82985" lon="-0.18718">
        <ele>11.1</ele>
      </trkpt>
    </trkseg>
  </trk>
  <trk>
    <name><![CDATA[track]]></name>
    <extensions>
      <line xmlns="http://www.topografix.com/GPX/gpx_style/0/2">
        <color>008800</color>
        <width>4</width>
      </line>
    </extensions>
    <trkseg>
      <trkpt lat="44.66238" lon="-0.1811">
        <ele>34</ele>
      </trkpt>
      <trkpt lat="44.66222" lon="-0.18104">
        <ele>34</ele>
      </trkpt>
      <trkpt lat="44.66222" lon="-0.18112">
        <ele>34</ele>
      </trkpt>
      <trkpt lat="44.66231" lon="-0.18115">
        <ele>34</ele>
      </trkpt>
      <trkpt lat="44.66231" lon="-0.18113">
        <ele>34</ele>
      </trkpt>
      <trkpt lat="44.66226" lon="-0.18118">
        <ele>34</ele>
      </trkpt>
      <trkpt lat="44.66232" lon="-0.18115">
        <ele>34</ele>
      </trkpt>
      <trkpt lat="44.66223" lon="-0.18115">
        <ele>34</ele>
      </trkpt>
      <trkpt lat="44.66227" lon="-0.18108">
        <ele>34</ele>
      </trkpt>
      <trkpt lat="44.66235" lon="-0.18109">
        <ele>34</ele>
      </trkpt>
      <trkpt lat="44.66233" lon="-0.18107">
        <ele>34</ele>
      </trkpt>
      <trkpt lat="44.66254" lon="-0.18096">
        <ele>34</ele>
      </trkpt>
      <trkpt lat="44.66236" lon="-0.18087">
        <ele>34</ele>
      </trkpt>
      <trkpt lat="44.66231" lon="-0.18075">
        <ele>34</ele>
      </trkpt>
      <trkpt lat="44.66251" lon="-0.18065">
        <ele>34</ele>
      </trkpt>
      <trkpt lat="44.66262" lon="-0.18051">
        <ele>34</ele>
      </trkpt>
      <trkpt lat="44.66259" lon="-0.18105">
        <ele>64</ele>
      </trkpt>
      <trkpt lat="44.66233" lon="-0.18092">
        <ele>78</ele>
      </trkpt>
      <trkpt lat="44.66242" lon="-0.18082">
        <ele>97</ele>
      </trkpt>
      <trkpt lat="44.66243" lon="-0.18065">
        <ele>94</ele>
      </trkpt>
      <trkpt lat="44.66241" lon="-0.18059">
        <ele>91</ele>
      </trkpt>
      <trkpt lat="44.66232" lon="-0.18051">
        <ele>91</ele>
      </trkpt>
      <trkpt lat="44.66221" lon="-0.17956">
        <ele>86</ele>
      </trkpt>
      <trkpt lat="44.66176" lon="-0.17844">
        <ele>88</ele>
      </trkpt>
      <trkpt lat="44.6616" lon="-0.178">
        <ele>86</ele>
      </trkpt>
      <trkpt lat="44.66153" lon="-0.17774">
        <ele>85</ele>
      </trkpt>
      <trkpt lat="44.66145" lon="-0.17711">
        <ele>85</ele>
      </trkpt>
      <trkpt lat="44.66137" lon="-0.17685">
        <ele>84</ele>
      </trkpt>
      <trkpt lat="44.66099" lon="-0.17603">
        <ele>85</ele>
      </trkpt>
      <trkpt lat="44.66089" lon="-0.17574">
        <ele>84</ele>
      </trkpt>
      <trkpt lat="44.66086" lon="-0.17554">
        <ele>85</ele>
      </trkpt>
      <trkpt lat="44.66075" lon="-0.17424">
        <ele>84</ele>
      </trkpt>
      <trkpt lat="44.66075" lon="-0.1732">
        <ele>77</ele>
      </trkpt>
      <trkpt lat="44.6607" lon="-0.17235">
        <ele>75</ele>
      </trkpt>
      <trkpt lat="44.66072" lon="-0.17154">
        <ele>67</ele>
      </trkpt>
      <trkpt lat="44.66069" lon="-0.17091">
        <ele>70</ele>
      </trkpt>
      <trkpt lat="44.66073" lon="-0.17038">
        <ele>69</ele>
      </trkpt>
      <trkpt lat="44.66087" lon="-0.16969">
        <ele>71</ele>
      </trkpt>
      <trkpt lat="44.6609" lon="-0.16936">
        <ele>73</ele>
      </trkpt>
      <trkpt lat="44.66104" lon="-0.16853">
        <ele>73</ele>
      </trkpt>
      <trkpt lat="44.66105" lon="-0.1684">
        <ele>73</ele>
      </trkpt>
      <trkpt lat="44.66103" lon="-0.16833">
        <ele>73</ele>
      </trkpt>
      <trkpt lat="44.66096" lon="-0.16825">
        <ele>72</ele>
      </trkpt>
      <trkpt lat="44.66049" lon="-0.16821">
        <ele>68</ele>
      </trkpt>
      <trkpt lat="44.65956" lon="-0.16819">
        <ele>57</ele>
      </trkpt>
      <trkpt lat="44.65933" lon="-0.16825">
        <ele>59</ele>
      </trkpt>
      <trkpt lat="44.65889" lon="-0.16905">
        <ele>60</ele>
      </trkpt>
      <trkpt lat="44.65859" lon="-0.16969">
        <ele>61</ele>
      </trkpt>
      <trkpt lat="44.65854" lon="-0.16975">
        <ele>63</ele>
      </trkpt>
      <trkpt lat="44.65846" lon="-0.16975">
        <ele>62</ele>
      </trkpt>
      <trkpt lat="44.65814" lon="-0.1695">
        <ele>51</ele>
      </trkpt>
      <trkpt lat="44.65809" lon="-0.16951">
        <ele>51</ele>
      </trkpt>
      <trkpt lat="44.658" lon="-0.16962">
        <ele>53</ele>
      </trkpt>
      <trkpt lat="44.65778" lon="-0.1701">
        <ele>58</ele>
      </trkpt>
      <trkpt lat="44.65772" lon="-0.17011">
        <ele>58</ele>
      </trkpt>
      <trkpt lat="44.65763" lon="-0.17007">
        <ele>58</ele>
      </trkpt>
      <trkpt lat="44.65701" lon="-0.16956">
        <ele>61</ele>
      </trkpt>
      <trkpt lat="44.65677" lon="-0.16936">
        <ele>60</ele>
      </trkpt>
      <trkpt lat="44.6567" lon="-0.16928">
        <ele>59</ele>
      </trkpt>
      <trkpt lat="44.65659" lon="-0.16921">
        <ele>58</ele>
      </trkpt>
      <trkpt lat="44.65621" lon="-0.16889">
        <ele>55</ele>
      </trkpt>
      <trkpt lat="44.65618" lon="-0.1688">
        <ele>55</ele>
      </trkpt>
      <trkpt lat="44.65618" lon="-0.16863">
        <ele>60</ele>
      </trkpt>
      <trkpt lat="44.6563" lon="-0.16822">
        <ele>68</ele>
      </trkpt>
      <trkpt lat="44.65621" lon="-0.16804">
        <ele>69</ele>
      </trkpt>
      <trkpt lat="44.65607" lon="-0.16786">
        <ele>68</ele>
      </trkpt>
      <trkpt lat="44.65603" lon="-0.16777">
        <ele>69</ele>
      </trkpt>
      <trkpt lat="44.65604" lon="-0.16765">
        <ele>71</ele>
      </trkpt>
      <trkpt lat="44.65599" lon="-0.16755">
        <ele>72</ele>
      </trkpt>
      <trkpt lat="44.65589" lon="-0.16737">
        <ele>73</ele>
      </trkpt>
      <trkpt lat="44.65572" lon="-0.16719">
        <ele>73</ele>
      </trkpt>
      <trkpt lat="44.65557" lon="-0.16726">
        <ele>73</ele>
      </trkpt>
      <trkpt lat="44.65552" lon="-0.16724">
        <ele>73</ele>
      </trkpt>
      <trkpt lat="44.6552" lon="-0.16673">
        <ele>77</ele>
      </trkpt>
      <trkpt lat="44.65518" lon="-0.16661">
        <ele>79</ele>
      </trkpt>
      <trkpt lat="44.65569" lon="-0.16607">
        <ele>90</ele>
      </trkpt>
      <trkpt lat="44.65571" lon="-0.166">
        <ele>90</ele>
      </trkpt>
      <trkpt lat="44.65569" lon="-0.16593">
        <ele>90</ele>
      </trkpt>
      <trkpt lat="44.65549" lon="-0.16574">
        <ele>92</ele>
      </trkpt>
      <trkpt lat="44.65534" lon="-0.16562">
        <ele>88</ele>
      </trkpt>
      <trkpt lat="44.6553" lon="-0.16558">
        <ele>86</ele>
      </trkpt>
      <trkpt lat="44.65524" lon="-0.16556">
        <ele>84</ele>
      </trkpt>
      <trkpt lat="44.65514" lon="-0.16548">
        <ele>83</ele>
      </trkpt>
      <trkpt lat="44.65408" lon="-0.16458">
        <ele>78</ele>
      </trkpt>
      <trkpt lat="44.65398" lon="-0.16442">
        <ele>78</ele>
      </trkpt>
      <trkpt lat="44.65398" lon="-0.16363">
        <ele>87</ele>
      </trkpt>
      <trkpt lat="44.65409" lon="-0.16269">
        <ele>92</ele>
      </trkpt>
      <trkpt lat="44.65409" lon="-0.16238">
        <ele>94</ele>
      </trkpt>
      <trkpt lat="44.65412" lon="-0.16217">
        <ele>98</ele>
      </trkpt>
      <trkpt lat="44.65428" lon="-0.16204">
        <ele>102</ele>
      </trkpt>
      <trkpt lat="44.65455" lon="-0.16084">
        <ele>90</ele>
      </trkpt>
      <trkpt lat="44.65466" lon="-0.16045">
        <ele>81</ele>
      </trkpt>
      <trkpt lat="44.65485" lon="-0.16">
        <ele>73</ele>
      </trkpt>
      <trkpt lat="44.6549" lon="-0.15992">
        <ele>71</ele>
      </trkpt>
      <trkpt lat="44.65508" lon="-0.15947">
        <ele>65</ele>
      </trkpt>
      <trkpt lat="44.65518" lon="-0.15927">
        <ele>60</ele>
      </trkpt>
      <trkpt lat="44.65538" lon="-0.15855">
        <ele>51</ele>
      </trkpt>
      <trkpt lat="44.65569" lon="-0.15779">
        <ele>23</ele>
      </trkpt>
      <trkpt lat="44.65585" lon="-0.15702">
        <ele>22</ele>
      </trkpt>
      <trkpt lat="44.65586" lon="-0.1568">
        <ele>27</ele>
      </trkpt>
      <trkpt lat="44.65609" lon="-0.15555">
        <ele>55</ele>
      </trkpt>
      <trkpt lat="44.65613" lon="-0.15512">
        <ele>55</ele>
      </trkpt>
      <trkpt lat="44.65624" lon="-0.15471">
        <ele>57</ele>
      </trkpt>
      <trkpt lat="44.6563" lon="-0.1545">
        <ele>57</ele>
      </trkpt>
      <trkpt lat="44.65645" lon="-0.15417">
        <ele>54</ele>
      </trkpt>
      <trkpt lat="44.65656" lon="-0.15383">
        <ele>53</ele>
      </trkpt>
      <trkpt lat="44.65688" lon="-0.15304">
        <ele>57</ele>
      </trkpt>
      <trkpt lat="44.65694" lon="-0.15293">
        <ele>56</ele>
      </trkpt>
      <trkpt lat="44.65712" lon="-0.15239">
        <ele>53</ele>
      </trkpt>
      <trkpt lat="44.65725" lon="-0.15164">
        <ele>67</ele>
      </trkpt>
      <trkpt lat="44.65741" lon="-0.15093">
        <ele>84</ele>
      </trkpt>
      <trkpt lat="44.6577" lon="-0.15066">
        <ele>84</ele>
      </trkpt>
      <trkpt lat="44.65785" lon="-0.15048">
        <ele>92</ele>
      </trkpt>
      <trkpt lat="44.65807" lon="-0.1503">
        <ele>93</ele>
      </trkpt>
      <trkpt lat="44.65816" lon="-0.15013">
        <ele>93</ele>
      </trkpt>
      <trkpt lat="44.65816" lon="-0.14988">
        <ele>91</ele>
      </trkpt>
      <trkpt lat="44.65816" lon="-0.14882">
        <ele>87</ele>
      </trkpt>
      <trkpt lat="44.65807" lon="-0.1482">
        <ele>77</ele>
      </trkpt>
      <trkpt lat="44.65801" lon="-0.14807">
        <ele>75</ele>
      </trkpt>
      <trkpt lat="44.65789" lon="-0.14803">
        <ele>74</ele>
      </trkpt>
      <trkpt lat="44.65745" lon="-0.14821">
        <ele>78</ele>
      </trkpt>
      <trkpt lat="44.65724" lon="-0.14816">
        <ele>80</ele>
      </trkpt>
      <trkpt lat="44.65712" lon="-0.14796">
        <ele>81</ele>
      </trkpt>
      <trkpt lat="44.65661" lon="-0.14685">
        <ele>84</ele>
      </trkpt>
      <trkpt lat="44.65619" lon="-0.14613">
        <ele>82</ele>
      </trkpt>
      <trkpt lat="44.65596" lon="-0.14567">
        <ele>78</ele>
      </trkpt>
      <trkpt lat="44.65554" lon="-0.14471">
        <ele>78</ele>
      </trkpt>
      <trkpt lat="44.65531" lon="-0.14377">
        <ele>80</ele>
      </trkpt>
      <trkpt lat="44.65523" lon="-0.14324">
        <ele>79</ele>
      </trkpt>
      <trkpt lat="44.65506" lon="-0.14269">
        <ele>78</ele>
      </trkpt>
      <trkpt lat="44.65477" lon="-0.14119">
        <ele>80</ele>
      </trkpt>
      <trkpt lat="44.6545" lon="-0.14007">
        <ele>78</ele>
      </trkpt>
      <trkpt lat="44.65431" lon="-0.13953">
        <ele>80</ele>
      </trkpt>
      <trkpt lat="44.65399" lon="-0.13914">
        <ele>62</ele>
      </trkpt>
      <trkpt lat="44.65369" lon="-0.13853">
        <ele>44</ele>
      </trkpt>
      <trkpt lat="44.65362" lon="-0.13833">
        <ele>41</ele>
      </trkpt>
      <trkpt lat="44.65352" lon="-0.13816">
        <ele>38</ele>
      </trkpt>
      <trkpt lat="44.6533" lon="-0.13807">
        <ele>36</ele>
      </trkpt>
      <trkpt lat="44.65309" lon="-0.13831">
        <ele>31</ele>
      </trkpt>
      <trkpt lat="44.65288" lon="-0.13824">
        <ele>36</ele>
      </trkpt>
      <trkpt lat="44.6524" lon="-0.13742">
        <ele>53</ele>
      </trkpt>
      <trkpt lat="44.65233" lon="-0.13738">
        <ele>57</ele>
      </trkpt>
      <trkpt lat="44.65234" lon="-0.13741">
        <ele>55</ele>
      </trkpt>
      <trkpt lat="44.65236" lon="-0.13741">
        <ele>56</ele>
      </trkpt>
      <trkpt lat="44.65233" lon="-0.13738">
        <ele>58</ele>
      </trkpt>
      <trkpt lat="44.65234" lon="-0.13735">
        <ele>58</ele>
      </trkpt>
      <trkpt lat="44.65236" lon="-0.13739">
        <ele>58</ele>
      </trkpt>
      <trkpt lat="44.65212" lon="-0.13762">
        <ele>60</ele>
      </trkpt>
      <trkpt lat="44.65205" lon="-0.13776">
        <ele>57</ele>
      </trkpt>
      <trkpt lat="44.65187" lon="-0.13798">
        <ele>53</ele>
      </trkpt>
      <trkpt lat="44.65161" lon="-0.13835">
        <ele>55</ele>
      </trkpt>
      <trkpt lat="44.65126" lon="-0.13891">
        <ele>57</ele>
      </trkpt>
      <trkpt lat="44.65106" lon="-0.13917">
        <ele>59</ele>
      </trkpt>
      <trkpt lat="44.65091" lon="-0.13928">
        <ele>65</ele>
      </trkpt>
      <trkpt lat="44.65052" lon="-0.13969">
        <ele>64</ele>
      </trkpt>
      <trkpt lat="44.65027" lon="-0.13985">
        <ele>60</ele>
      </trkpt>
      <trkpt lat="44.65015" lon="-0.13989">
        <ele>61</ele>
      </trkpt>
      <trkpt lat="44.65003" lon="-0.13998">
        <ele>60</ele>
      </trkpt>
      <trkpt lat="44.64985" lon="-0.14004">
        <ele>64</ele>
      </trkpt>
      <trkpt lat="44.64953" lon="-0.1402">
        <ele>63</ele>
      </trkpt>
      <trkpt lat="44.64945" lon="-0.14021">
        <ele>62</ele>
      </trkpt>
      <trkpt lat="44.64931" lon="-0.14012">
        <ele>62</ele>
      </trkpt>
      <trkpt lat="44.64924" lon="-0.14003">
        <ele>62</ele>
      </trkpt>
      <trkpt lat="44.64903" lon="-0.13987">
        <ele>66</ele>
      </trkpt>
      <trkpt lat="44.64898" lon="-0.14001">
        <ele>64</ele>
      </trkpt>
      <trkpt lat="44.64887" lon="-0.14057">
        <ele>48</ele>
      </trkpt>
      <trkpt lat="44.64882" lon="-0.14064">
        <ele>48</ele>
      </trkpt>
      <trkpt lat="44.64872" lon="-0.14072">
        <ele>51</ele>
      </trkpt>
      <trkpt lat="44.64849" lon="-0.14085">
        <ele>55</ele>
      </trkpt>
      <trkpt lat="44.64819" lon="-0.14099">
        <ele>59</ele>
      </trkpt>
      <trkpt lat="44.6474" lon="-0.14126">
        <ele>68</ele>
      </trkpt>
      <trkpt lat="44.6467" lon="-0.14184">
        <ele>72</ele>
      </trkpt>
      <trkpt lat="44.64667" lon="-0.14186">
        <ele>71</ele>
      </trkpt>
      <trkpt lat="44.64657" lon="-0.14183">
        <ele>72</ele>
      </trkpt>
      <trkpt lat="44.64575" lon="-0.14247">
        <ele>73</ele>
      </trkpt>
      <trkpt lat="44.64526" lon="-0.14275">
        <ele>78</ele>
      </trkpt>
      <trkpt lat="44.64489" lon="-0.143">
        <ele>82</ele>
      </trkpt>
      <trkpt lat="44.64456" lon="-0.14317">
        <ele>82</ele>
      </trkpt>
      <trkpt lat="44.64431" lon="-0.14325">
        <ele>85</ele>
      </trkpt>
      <trkpt lat="44.64397" lon="-0.14332">
        <ele>90</ele>
      </trkpt>
      <trkpt lat="44.64389" lon="-0.14336">
        <ele>91</ele>
      </trkpt>
      <trkpt lat="44.64389" lon="-0.14356">
        <ele>90</ele>
      </trkpt>
      <trkpt lat="44.64429" lon="-0.14486">
        <ele>84</ele>
      </trkpt>
      <trkpt lat="44.64456" lon="-0.14585">
        <ele>84</ele>
      </trkpt>
      <trkpt lat="44.64452" lon="-0.14596">
        <ele>87</ele>
      </trkpt>
      <trkpt lat="44.64417" lon="-0.14618">
        <ele>88</ele>
      </trkpt>
      <trkpt lat="44.64401" lon="-0.14626">
        <ele>88</ele>
      </trkpt>
      <trkpt lat="44.64358" lon="-0.14646">
        <ele>84</ele>
      </trkpt>
      <trkpt lat="44.64305" lon="-0.14661">
        <ele>80</ele>
      </trkpt>
      <trkpt lat="44.64246" lon="-0.1469">
        <ele>73</ele>
      </trkpt>
      <trkpt lat="44.64229" lon="-0.14705">
        <ele>76</ele>
      </trkpt>
      <trkpt lat="44.6418" lon="-0.14761">
        <ele>68</ele>
      </trkpt>
      <trkpt lat="44.64149" lon="-0.14803">
        <ele>72</ele>
      </trkpt>
      <trkpt lat="44.64083" lon="-0.14881">
        <ele>64</ele>
      </trkpt>
      <trkpt lat="44.64051" lon="-0.14922">
        <ele>71</ele>
      </trkpt>
      <trkpt lat="44.64012" lon="-0.14989">
        <ele>68</ele>
      </trkpt>
      <trkpt lat="44.63999" lon="-0.15017">
        <ele>65</ele>
      </trkpt>
      <trkpt lat="44.63994" lon="-0.15022">
        <ele>64</ele>
      </trkpt>
      <trkpt lat="44.6397" lon="-0.15084">
        <ele>67</ele>
      </trkpt>
      <trkpt lat="44.63958" lon="-0.15132">
        <ele>72</ele>
      </trkpt>
      <trkpt lat="44.63953" lon="-0.15141">
        <ele>72</ele>
      </trkpt>
      <trkpt lat="44.6394" lon="-0.15177">
        <ele>75</ele>
      </trkpt>
      <trkpt lat="44.63934" lon="-0.15202">
        <ele>77</ele>
      </trkpt>
      <trkpt lat="44.63939" lon="-0.15229">
        <ele>78</ele>
      </trkpt>
      <trkpt lat="44.63957" lon="-0.15271">
        <ele>79</ele>
      </trkpt>
      <trkpt lat="44.63984" lon="-0.15327">
        <ele>73</ele>
      </trkpt>
      <trkpt lat="44.64027" lon="-0.15398">
        <ele>69</ele>
      </trkpt>
      <trkpt lat="44.64057" lon="-0.15466">
        <ele>71</ele>
      </trkpt>
      <trkpt lat="44.64068" lon="-0.15496">
        <ele>73</ele>
      </trkpt>
      <trkpt lat="44.6408" lon="-0.15511">
        <ele>72</ele>
      </trkpt>
      <trkpt lat="44.64142" lon="-0.15608">
        <ele>51</ele>
      </trkpt>
      <trkpt lat="44.64169" lon="-0.15646">
        <ele>46</ele>
      </trkpt>
      <trkpt lat="44.64175" lon="-0.15658">
        <ele>44</ele>
      </trkpt>
      <trkpt lat="44.64192" lon="-0.15683">
        <ele>46</ele>
      </trkpt>
      <trkpt lat="44.64223" lon="-0.15751">
        <ele>62</ele>
      </trkpt>
      <trkpt lat="44.64276" lon="-0.15851">
        <ele>78</ele>
      </trkpt>
      <trkpt lat="44.64303" lon="-0.15886">
        <ele>84</ele>
      </trkpt>
      <trkpt lat="44.64325" lon="-0.15908">
        <ele>84</ele>
      </trkpt>
      <trkpt lat="44.64338" lon="-0.1593">
        <ele>86</ele>
      </trkpt>
      <trkpt lat="44.64339" lon="-0.15936">
        <ele>85</ele>
      </trkpt>
      <trkpt lat="44.64231" lon="-0.16029">
        <ele>90</ele>
      </trkpt>
      <trkpt lat="44.64191" lon="-0.16067">
        <ele>91</ele>
      </trkpt>
      <trkpt lat="44.64174" lon="-0.16087">
        <ele>91</ele>
      </trkpt>
      <trkpt lat="44.64195" lon="-0.16136">
        <ele>91</ele>
      </trkpt>
      <trkpt lat="44.64217" lon="-0.16198">
        <ele>95</ele>
      </trkpt>
      <trkpt lat="44.64235" lon="-0.16273">
        <ele>96</ele>
      </trkpt>
      <trkpt lat="44.64246" lon="-0.16306">
        <ele>99</ele>
      </trkpt>
      <trkpt lat="44.64259" lon="-0.16292">
        <ele>95</ele>
      </trkpt>
      <trkpt lat="44.6426" lon="-0.16287">
        <ele>93</ele>
      </trkpt>
      <trkpt lat="44.64264" lon="-0.16283">
        <ele>92</ele>
      </trkpt>
      <trkpt lat="44.64271" lon="-0.16271">
        <ele>91</ele>
      </trkpt>
      <trkpt lat="44.64286" lon="-0.1627">
        <ele>93</ele>
      </trkpt>
      <trkpt lat="44.64302" lon="-0.16271">
        <ele>95</ele>
      </trkpt>
      <trkpt lat="44.64318" lon="-0.16278">
        <ele>96</ele>
      </trkpt>
      <trkpt lat="44.64339" lon="-0.16277">
        <ele>99</ele>
      </trkpt>
      <trkpt lat="44.64357" lon="-0.16271">
        <ele>102</ele>
      </trkpt>
      <trkpt lat="44.6438" lon="-0.16267">
        <ele>103</ele>
      </trkpt>
      <trkpt lat="44.64399" lon="-0.16267">
        <ele>103</ele>
      </trkpt>
      <trkpt lat="44.64436" lon="-0.16273">
        <ele>108</ele>
      </trkpt>
      <trkpt lat="44.64477" lon="-0.16275">
        <ele>107</ele>
      </trkpt>
      <trkpt lat="44.64612" lon="-0.16258">
        <ele>96</ele>
      </trkpt>
      <trkpt lat="44.6462" lon="-0.16283">
        <ele>97</ele>
      </trkpt>
      <trkpt lat="44.64649" lon="-0.16468">
        <ele>92</ele>
      </trkpt>
      <trkpt lat="44.64655" lon="-0.16521">
        <ele>91</ele>
      </trkpt>
      <trkpt lat="44.64653" lon="-0.16567">
        <ele>90</ele>
      </trkpt>
      <trkpt lat="44.64647" lon="-0.16611">
        <ele>87</ele>
      </trkpt>
      <trkpt lat="44.64648" lon="-0.16618">
        <ele>88</ele>
      </trkpt>
      <trkpt lat="44.64656" lon="-0.16629">
        <ele>85</ele>
      </trkpt>
      <trkpt lat="44.64659" lon="-0.16637">
        <ele>85</ele>
      </trkpt>
      <trkpt lat="44.64654" lon="-0.16708">
        <ele>83</ele>
      </trkpt>
      <trkpt lat="44.64668" lon="-0.16717">
        <ele>80</ele>
      </trkpt>
      <trkpt lat="44.64672" lon="-0.16716">
        <ele>80</ele>
      </trkpt>
      <trkpt lat="44.64677" lon="-0.16729">
        <ele>81</ele>
      </trkpt>
      <trkpt lat="44.64675" lon="-0.16761">
        <ele>80</ele>
      </trkpt>
      <trkpt lat="44.64679" lon="-0.16806">
        <ele>75</ele>
      </trkpt>
      <trkpt lat="44.64677" lon="-0.1686">
        <ele>75</ele>
      </trkpt>
      <trkpt lat="44.64655" lon="-0.16871">
        <ele>74</ele>
      </trkpt>
      <trkpt lat="44.64651" lon="-0.16875">
        <ele>74</ele>
      </trkpt>
      <trkpt lat="44.6465" lon="-0.16899">
        <ele>75</ele>
      </trkpt>
      <trkpt lat="44.64659" lon="-0.16936">
        <ele>77</ele>
      </trkpt>
      <trkpt lat="44.64668" lon="-0.16992">
        <ele>72</ele>
      </trkpt>
      <trkpt lat="44.64681" lon="-0.17051">
        <ele>75</ele>
      </trkpt>
      <trkpt lat="44.64685" lon="-0.17067">
        <ele>76</ele>
      </trkpt>
      <trkpt lat="44.64692" lon="-0.17082">
        <ele>79</ele>
      </trkpt>
      <trkpt lat="44.64697" lon="-0.17088">
        <ele>78</ele>
      </trkpt>
      <trkpt lat="44.64697" lon="-0.17096">
        <ele>78</ele>
      </trkpt>
      <trkpt lat="44.64706" lon="-0.17213">
        <ele>77</ele>
      </trkpt>
      <trkpt lat="44.64703" lon="-0.17358">
        <ele>71</ele>
      </trkpt>
      <trkpt lat="44.64705" lon="-0.17454">
        <ele>61</ele>
      </trkpt>
      <trkpt lat="44.64698" lon="-0.17634">
        <ele>73</ele>
      </trkpt>
      <trkpt lat="44.64694" lon="-0.17645">
        <ele>74</ele>
      </trkpt>
      <trkpt lat="44.64694" lon="-0.17711">
        <ele>66</ele>
      </trkpt>
      <trkpt lat="44.64697" lon="-0.17723">
        <ele>68</ele>
      </trkpt>
      <trkpt lat="44.64703" lon="-0.17731">
        <ele>71</ele>
      </trkpt>
      <trkpt lat="44.64759" lon="-0.17761">
        <ele>77</ele>
      </trkpt>
      <trkpt lat="44.6479" lon="-0.17775">
        <ele>78</ele>
      </trkpt>
      <trkpt lat="44.64813" lon="-0.1779">
        <ele>81</ele>
      </trkpt>
      <trkpt lat="44.64889" lon="-0.17823">
        <ele>75</ele>
      </trkpt>
      <trkpt lat="44.64932" lon="-0.17854">
        <ele>87</ele>
      </trkpt>
      <trkpt lat="44.6493" lon="-0.17888">
        <ele>86</ele>
      </trkpt>
      <trkpt lat="44.6493" lon="-0.17991">
        <ele>83</ele>
      </trkpt>
      <trkpt lat="44.64933" lon="-0.18017">
        <ele>85</ele>
      </trkpt>
      <trkpt lat="44.64934" lon="-0.18071">
        <ele>85</ele>
      </trkpt>
      <trkpt lat="44.64939" lon="-0.18093">
        <ele>85</ele>
      </trkpt>
      <trkpt lat="44.64934" lon="-0.18189">
        <ele>81</ele>
      </trkpt>
      <trkpt lat="44.64935" lon="-0.18226">
        <ele>81</ele>
      </trkpt>
      <trkpt lat="44.6494" lon="-0.18231">
        <ele>80</ele>
      </trkpt>
      <trkpt lat="44.64957" lon="-0.18224">
        <ele>80</ele>
      </trkpt>
      <trkpt lat="44.64995" lon="-0.18221">
        <ele>79</ele>
      </trkpt>
      <trkpt lat="44.65024" lon="-0.18199">
        <ele>81</ele>
      </trkpt>
      <trkpt lat="44.65046" lon="-0.18186">
        <ele>84</ele>
      </trkpt>
      <trkpt lat="44.65052" lon="-0.18188">
        <ele>86</ele>
      </trkpt>
      <trkpt lat="44.65127" lon="-0.18193">
        <ele>92</ele>
      </trkpt>
      <trkpt lat="44.65164" lon="-0.18185">
        <ele>86</ele>
      </trkpt>
      <trkpt lat="44.65185" lon="-0.18187">
        <ele>88</ele>
      </trkpt>
      <trkpt lat="44.652" lon="-0.18195">
        <ele>87</ele>
      </trkpt>
      <trkpt lat="44.65205" lon="-0.182">
        <ele>87</ele>
      </trkpt>
      <trkpt lat="44.6521" lon="-0.18242">
        <ele>87</ele>
      </trkpt>
      <trkpt lat="44.65221" lon="-0.18402">
        <ele>76</ele>
      </trkpt>
      <trkpt lat="44.6524" lon="-0.18514">
        <ele>73</ele>
      </trkpt>
      <trkpt lat="44.65268" lon="-0.18652">
        <ele>65</ele>
      </trkpt>
      <trkpt lat="44.65284" lon="-0.18743">
        <ele>58</ele>
      </trkpt>
      <trkpt lat="44.65316" lon="-0.18817">
        <ele>63</ele>
      </trkpt>
      <trkpt lat="44.65331" lon="-0.18841">
        <ele>65</ele>
      </trkpt>
      <trkpt lat="44.65348" lon="-0.18832">
        <ele>63</ele>
      </trkpt>
      <trkpt lat="44.65379" lon="-0.18792">
        <ele>66</ele>
      </trkpt>
      <trkpt lat="44.65412" lon="-0.18755">
        <ele>64</ele>
      </trkpt>
      <trkpt lat="44.65524" lon="-0.18687">
        <ele>69</ele>
      </trkpt>
      <trkpt lat="44.65559" lon="-0.18662">
        <ele>67</ele>
      </trkpt>
      <trkpt lat="44.65615" lon="-0.18631">
        <ele>70</ele>
      </trkpt>
      <trkpt lat="44.65628" lon="-0.18628">
        <ele>70</ele>
      </trkpt>
      <trkpt lat="44.65648" lon="-0.18642">
        <ele>74</ele>
      </trkpt>
      <trkpt lat="44.65665" lon="-0.18635">
        <ele>76</ele>
      </trkpt>
      <trkpt lat="44.65705" lon="-0.18602">
        <ele>75</ele>
      </trkpt>
      <trkpt lat="44.65724" lon="-0.18589">
        <ele>78</ele>
      </trkpt>
      <trkpt lat="44.65726" lon="-0.18585">
        <ele>78</ele>
      </trkpt>
      <trkpt lat="44.65747" lon="-0.18571">
        <ele>80</ele>
      </trkpt>
      <trkpt lat="44.65774" lon="-0.18544">
        <ele>91</ele>
      </trkpt>
      <trkpt lat="44.65794" lon="-0.18533">
        <ele>96</ele>
      </trkpt>
      <trkpt lat="44.65818" lon="-0.18522">
        <ele>96</ele>
      </trkpt>
      <trkpt lat="44.65823" lon="-0.18513">
        <ele>99</ele>
      </trkpt>
      <trkpt lat="44.65847" lon="-0.18497">
        <ele>97</ele>
      </trkpt>
      <trkpt lat="44.65851" lon="-0.18492">
        <ele>97</ele>
      </trkpt>
      <trkpt lat="44.65881" lon="-0.18467">
        <ele>100</ele>
      </trkpt>
      <trkpt lat="44.65911" lon="-0.18446">
        <ele>101</ele>
      </trkpt>
      <trkpt lat="44.65939" lon="-0.18436">
        <ele>104</ele>
      </trkpt>
      <trkpt lat="44.65961" lon="-0.18434">
        <ele>103</ele>
      </trkpt>
      <trkpt lat="44.66021" lon="-0.18439">
        <ele>103</ele>
      </trkpt>
      <trkpt lat="44.66087" lon="-0.18437">
        <ele>95</ele>
      </trkpt>
      <trkpt lat="44.66091" lon="-0.18435">
        <ele>95</ele>
      </trkpt>
      <trkpt lat="44.66099" lon="-0.18407">
        <ele>101</ele>
      </trkpt>
      <trkpt lat="44.66102" lon="-0.18384">
        <ele>101</ele>
      </trkpt>
      <trkpt lat="44.66102" lon="-0.18358">
        <ele>100</ele>
      </trkpt>
      <trkpt lat="44.66093" lon="-0.18307">
        <ele>102</ele>
      </trkpt>
      <trkpt lat="44.66093" lon="-0.18269">
        <ele>101</ele>
      </trkpt>
      <trkpt lat="44.66112" lon="-0.18233">
        <ele>98</ele>
      </trkpt>
      <trkpt lat="44.66116" lon="-0.18219">
        <ele>97</ele>
      </trkpt>
      <trkpt lat="44.66126" lon="-0.1821">
        <ele>98</ele>
      </trkpt>
      <trkpt lat="44.66145" lon="-0.18187">
        <ele>96</ele>
      </trkpt>
      <trkpt lat="44.6617" lon="-0.18181">
        <ele>99</ele>
      </trkpt>
    </trkseg>
  </trk>
  <trk>
    <name><![CDATA[NewTrack]]></name>
    <desc><![CDATA[Total: 13.6km]]></desc>
    <extensions>
      <line xmlns="http://www.topografix.com/GPX/gpx_style/0/2">
        <color>880000</color>
        <width>4</width>
      </line>
    </extensions>
    <trkseg>
      <trkpt lat="44.71463" lon="-0.22218">
        <ele>73.8</ele>
      </trkpt>
      <trkpt lat="44.71333" lon="-0.22219">
        <ele>69.1</ele>
      </trkpt>
      <trkpt lat="44.71303" lon="-0.22346">
        <ele>63.7</ele>
      </trkpt>
      <trkpt lat="44.71284" lon="-0.22405">
        <ele>62.5</ele>
      </trkpt>
      <trkpt lat="44.71275" lon="-0.22421">
        <ele>62</ele>
      </trkpt>
      <trkpt lat="44.71266" lon="-0.22431">
        <ele>61.8</ele>
      </trkpt>
      <trkpt lat="44.7123" lon="-0.22456">
        <ele>60.4</ele>
      </trkpt>
      <trkpt lat="44.71121" lon="-0.22496">
        <ele>57.1</ele>
      </trkpt>
      <trkpt lat="44.71092" lon="-0.22498">
        <ele>56.3</ele>
      </trkpt>
      <trkpt lat="44.71033" lon="-0.22489">
        <ele>56</ele>
      </trkpt>
      <trkpt lat="44.70995" lon="-0.22482">
        <ele>55.5</ele>
      </trkpt>
      <trkpt lat="44.70964" lon="-0.22453">
        <ele>55.7</ele>
      </trkpt>
      <trkpt lat="44.70839" lon="-0.22291">
        <ele>58.9</ele>
      </trkpt>
      <trkpt lat="44.70813" lon="-0.22266">
        <ele>60.3</ele>
      </trkpt>
      <trkpt lat="44.70786" lon="-0.22233">
        <ele>61.9</ele>
      </trkpt>
      <trkpt lat="44.7067" lon="-0.22285">
        <ele>66</ele>
      </trkpt>
      <trkpt lat="44.70516" lon="-0.22312">
        <ele>62.9</ele>
      </trkpt>
      <trkpt lat="44.70616" lon="-0.22445">
        <ele>59</ele>
      </trkpt>
      <trkpt lat="44.70618" lon="-0.22463">
        <ele>58.8</ele>
      </trkpt>
      <trkpt lat="44.70539" lon="-0.22618">
        <ele>62.5</ele>
      </trkpt>
      <trkpt lat="44.70411" lon="-0.22806">
        <ele>58</ele>
      </trkpt>
      <trkpt lat="44.70357" lon="-0.2288">
        <ele>57.1</ele>
      </trkpt>
      <trkpt lat="44.70296" lon="-0.22958">
        <ele>60.5</ele>
      </trkpt>
      <trkpt lat="44.70253" lon="-0.22999">
        <ele>61.1</ele>
      </trkpt>
      <trkpt lat="44.70181" lon="-0.2304">
        <ele>61</ele>
      </trkpt>
      <trkpt lat="44.70144" lon="-0.2309">
        <ele>60.6</ele>
      </trkpt>
      <trkpt lat="44.70102" lon="-0.23149">
        <ele>59.2</ele>
      </trkpt>
      <trkpt lat="44.7005" lon="-0.23053">
        <ele>63</ele>
      </trkpt>
      <trkpt lat="44.70002" lon="-0.22975">
        <ele>65.8</ele>
      </trkpt>
      <trkpt lat="44.69966" lon="-0.22861">
        <ele>70.5</ele>
      </trkpt>
      <trkpt lat="44.70031" lon="-0.22798">
        <ele>69.8</ele>
      </trkpt>
      <trkpt lat="44.70009" lon="-0.22743">
        <ele>71.3</ele>
      </trkpt>
      <trkpt lat="44.70017" lon="-0.22711">
        <ele>70.6</ele>
      </trkpt>
      <trkpt lat="44.69984" lon="-0.22645">
        <ele>71.3</ele>
      </trkpt>
      <trkpt lat="44.69937" lon="-0.22555">
        <ele>71.8</ele>
      </trkpt>
      <trkpt lat="44.69911" lon="-0.22467">
        <ele>73.4</ele>
      </trkpt>
      <trkpt lat="44.69874" lon="-0.22334">
        <ele>75.5</ele>
      </trkpt>
      <trkpt lat="44.69914" lon="-0.22265">
        <ele>77</ele>
      </trkpt>
      <trkpt lat="44.70015" lon="-0.22179">
        <ele>73.9</ele>
      </trkpt>
      <trkpt lat="44.70046" lon="-0.22127">
        <ele>73</ele>
      </trkpt>
      <trkpt lat="44.70078" lon="-0.22066">
        <ele>74.6</ele>
      </trkpt>
      <trkpt lat="44.70166" lon="-0.21982">
        <ele>76</ele>
      </trkpt>
      <trkpt lat="44.70311" lon="-0.21824">
        <ele>71.6</ele>
      </trkpt>
      <trkpt lat="44.70353" lon="-0.21772">
        <ele>75.9</ele>
      </trkpt>
      <trkpt lat="44.7041" lon="-0.21724">
        <ele>77.2</ele>
      </trkpt>
      <trkpt lat="44.70539" lon="-0.2161">
        <ele>75.2</ele>
      </trkpt>
      <trkpt lat="44.70657" lon="-0.21546">
        <ele>69</ele>
      </trkpt>
      <trkpt lat="44.70817" lon="-0.21537">
        <ele>62.6</ele>
      </trkpt>
      <trkpt lat="44.7091" lon="-0.21509">
        <ele>61</ele>
      </trkpt>
      <trkpt lat="44.71164" lon="-0.21333">
        <ele>66.1</ele>
      </trkpt>
      <trkpt lat="44.71256" lon="-0.21174">
        <ele>71.6</ele>
      </trkpt>
      <trkpt lat="44.71347" lon="-0.21041">
        <ele>74.5</ele>
      </trkpt>
      <trkpt lat="44.71745" lon="-0.20893">
        <ele>75.2</ele>
      </trkpt>
      <trkpt lat="44.71719" lon="-0.21048">
        <ele>78.1</ele>
      </trkpt>
      <trkpt lat="44.71654" lon="-0.21237">
        <ele>82</ele>
      </trkpt>
      <trkpt lat="44.71643" lon="-0.21348">
        <ele>81.9</ele>
      </trkpt>
      <trkpt lat="44.71686" lon="-0.21361">
        <ele>81.3</ele>
      </trkpt>
      <trkpt lat="44.71718" lon="-0.21413">
        <ele>79.1</ele>
      </trkpt>
      <trkpt lat="44.71796" lon="-0.21434">
        <ele>80</ele>
      </trkpt>
      <trkpt lat="44.72024" lon="-0.21494">
        <ele>84.8</ele>
      </trkpt>
      <trkpt lat="44.72048" lon="-0.21917">
        <ele>84.7</ele>
      </trkpt>
      <trkpt lat="44.72071" lon="-0.21943">
        <ele>85.5</ele>
      </trkpt>
      <trkpt lat="44.72088" lon="-0.21975">
        <ele>85.4</ele>
      </trkpt>
      <trkpt lat="44.72111" lon="-0.221">
        <ele>87</ele>
      </trkpt>
      <trkpt lat="44.72142" lon="-0.22217">
        <ele>85.2</ele>
      </trkpt>
      <trkpt lat="44.72225" lon="-0.22159">
        <ele>88.3</ele>
      </trkpt>
      <trkpt lat="44.72277" lon="-0.22322">
        <ele>91</ele>
      </trkpt>
      <trkpt lat="44.7229" lon="-0.22418">
        <ele>90</ele>
      </trkpt>
      <trkpt lat="44.72282" lon="-0.22471">
        <ele>87.2</ele>
      </trkpt>
      <trkpt lat="44.72312" lon="-0.22633">
        <ele>82.2</ele>
      </trkpt>
      <trkpt lat="44.72301" lon="-0.22718">
        <ele>79.2</ele>
      </trkpt>
      <trkpt lat="44.72283" lon="-0.22815">
        <ele>74.8</ele>
      </trkpt>
      <trkpt lat="44.72286" lon="-0.22874">
        <ele>72.8</ele>
      </trkpt>
      <trkpt lat="44.72322" lon="-0.22905">
        <ele>72.4</ele>
      </trkpt>
      <trkpt lat="44.72334" lon="-0.23096">
        <ele>75.5</ele>
      </trkpt>
      <trkpt lat="44.72214" lon="-0.23278">
        <ele>86.3</ele>
      </trkpt>
      <trkpt lat="44.7205" lon="-0.23121">
        <ele>80.2</ele>
      </trkpt>
      <trkpt lat="44.71868" lon="-0.23075">
        <ele>74</ele>
      </trkpt>
      <trkpt lat="44.7186" lon="-0.23096">
        <ele>73.9</ele>
      </trkpt>
      <trkpt lat="44.71883" lon="-0.23297">
        <ele>78.5</ele>
      </trkpt>
      <trkpt lat="44.71902" lon="-0.23457">
        <ele>79.2</ele>
      </trkpt>
      <trkpt lat="44.71877" lon="-0.23608">
        <ele>85.4</ele>
      </trkpt>
      <trkpt lat="44.71863" lon="-0.23822">
        <ele>85.5</ele>
      </trkpt>
      <trkpt lat="44.71853" lon="-0.23893">
        <ele>83.6</ele>
      </trkpt>
      <trkpt lat="44.71845" lon="-0.2399">
        <ele>80.8</ele>
      </trkpt>
      <trkpt lat="44.71876" lon="-0.24039">
        <ele>81.8</ele>
      </trkpt>
      <trkpt lat="44.71915" lon="-0.24166">
        <ele>80</ele>
      </trkpt>
      <trkpt lat="44.7177" lon="-0.24651">
        <ele>66.6</ele>
      </trkpt>
      <trkpt lat="44.71695" lon="-0.24679">
        <ele>63</ele>
      </trkpt>
      <trkpt lat="44.71657" lon="-0.24762">
        <ele>62</ele>
      </trkpt>
      <trkpt lat="44.71491" lon="-0.24498">
        <ele>65.7</ele>
      </trkpt>
      <trkpt lat="44.71427" lon="-0.24421">
        <ele>66.8</ele>
      </trkpt>
      <trkpt lat="44.71358" lon="-0.24374">
        <ele>68</ele>
      </trkpt>
      <trkpt lat="44.71218" lon="-0.24191">
        <ele>73.2</ele>
      </trkpt>
      <trkpt lat="44.71065" lon="-0.24378">
        <ele>69.9</ele>
      </trkpt>
      <trkpt lat="44.70911" lon="-0.24499">
        <ele>68.8</ele>
      </trkpt>
      <trkpt lat="44.70899" lon="-0.24352">
        <ele>66.4</ele>
      </trkpt>
      <trkpt lat="44.709" lon="-0.24183">
        <ele>64.8</ele>
      </trkpt>
      <trkpt lat="44.70866" lon="-0.24017">
        <ele>65.6</ele>
      </trkpt>
      <trkpt lat="44.70805" lon="-0.23906">
        <ele>66</ele>
      </trkpt>
      <trkpt lat="44.70792" lon="-0.23842">
        <ele>68.4</ele>
      </trkpt>
      <trkpt lat="44.70764" lon="-0.23774">
        <ele>65.8</ele>
      </trkpt>
      <trkpt lat="44.70743" lon="-0.2372">
        <ele>64</ele>
      </trkpt>
      <trkpt lat="44.70717" lon="-0.2369">
        <ele>62.7</ele>
      </trkpt>
      <trkpt lat="44.70693" lon="-0.23713">
        <ele>62.6</ele>
      </trkpt>
      <trkpt lat="44.70522" lon="-0.23513">
        <ele>56.4</ele>
      </trkpt>
      <trkpt lat="44.70664" lon="-0.23252">
        <ele>55.2</ele>
      </trkpt>
      <trkpt lat="44.70652" lon="-0.23219">
        <ele>54.8</ele>
      </trkpt>
      <trkpt lat="44.70692" lon="-0.23163">
        <ele>53.8</ele>
      </trkpt>
      <trkpt lat="44.70778" lon="-0.22895">
        <ele>54</ele>
      </trkpt>
      <trkpt lat="44.70901" lon="-0.22626">
        <ele>55.2</ele>
      </trkpt>
      <trkpt lat="44.71115" lon="-0.2251">
        <ele>57</ele>
      </trkpt>
      <trkpt lat="44.7112" lon="-0.22503">
        <ele>57</ele>
      </trkpt>
      <trkpt lat="44.71123" lon="-0.22495">
        <ele>57.1</ele>
      </trkpt>
      <trkpt lat="44.7123" lon="-0.22455">
        <ele>60.4</ele>
      </trkpt>
      <trkpt lat="44.71266" lon="-0.22432">
        <ele>61.7</ele>
      </trkpt>
      <trkpt lat="44.71284" lon="-0.22406">
        <ele>62.5</ele>
      </trkpt>
      <trkpt lat="44.71303" lon="-0.22346">
        <ele>63.7</ele>
      </trkpt>
      <trkpt lat="44.71333" lon="-0.22218">
        <ele>69.2</ele>
      </trkpt>
      <trkpt lat="44.71466" lon="-0.22217">
        <ele>74</ele>
      </trkpt>
    </trkseg>
  </trk>
  <trk>
    <name><![CDATA[NewTrack]]></name>
    <desc><![CDATA[Total: 6.1km]]></desc>
    <extensions>
      <line xmlns="http://www.topografix.com/GPX/gpx_style/0/2">
        <color>008888</color>
        <width>4</width>
      </line>
    </extensions>
    <trkseg>
      <trkpt lat="44.67209" lon="0.00675">
        <ele>68.8</ele>
      </trkpt>
      <trkpt lat="44.67233" lon="0.00782">
        <ele>70.3</ele>
      </trkpt>
      <trkpt lat="44.67234" lon="0.01082">
        <ele>62.3</ele>
      </trkpt>
      <trkpt lat="44.67239" lon="0.01141">
        <ele>57.5</ele>
      </trkpt>
      <trkpt lat="44.67348" lon="0.01609">
        <ele>44.5</ele>
      </trkpt>
      <trkpt lat="44.67355" lon="0.01673">
        <ele>45.5</ele>
      </trkpt>
      <trkpt lat="44.67352" lon="0.01742">
        <ele>46.5</ele>
      </trkpt>
      <trkpt lat="44.67363" lon="0.01852">
        <ele>53.3</ele>
      </trkpt>
      <trkpt lat="44.67355" lon="0.01893">
        <ele>57.9</ele>
      </trkpt>
      <trkpt lat="44.67226" lon="0.02136">
        <ele>64.7</ele>
      </trkpt>
      <trkpt lat="44.67067" lon="0.0203">
        <ele>82</ele>
      </trkpt>
      <trkpt lat="44.6702" lon="0.01958">
        <ele>87.3</ele>
      </trkpt>
      <trkpt lat="44.66953" lon="0.02041">
        <ele>88.6</ele>
      </trkpt>
      <trkpt lat="44.66924" lon="0.02088">
        <ele>88.9</ele>
      </trkpt>
      <trkpt lat="44.66896" lon="0.02158">
        <ele>87.9</ele>
      </trkpt>
      <trkpt lat="44.66878" lon="0.02233">
        <ele>87.8</ele>
      </trkpt>
      <trkpt lat="44.66862" lon="0.0229">
        <ele>88.9</ele>
      </trkpt>
      <trkpt lat="44.66846" lon="0.02326">
        <ele>89</ele>
      </trkpt>
      <trkpt lat="44.66759" lon="0.02491">
        <ele>90.1</ele>
      </trkpt>
      <trkpt lat="44.66703" lon="0.02597">
        <ele>92.4</ele>
      </trkpt>
      <trkpt lat="44.66686" lon="0.0269">
        <ele>94.4</ele>
      </trkpt>
      <trkpt lat="44.66679" lon="0.02731">
        <ele>94.9</ele>
      </trkpt>
      <trkpt lat="44.66638" lon="0.0284">
        <ele>95</ele>
      </trkpt>
      <trkpt lat="44.66622" lon="0.02918">
        <ele>93.8</ele>
      </trkpt>
      <trkpt lat="44.6658" lon="0.02997">
        <ele>91</ele>
      </trkpt>
      <trkpt lat="44.66514" lon="0.03067">
        <ele>89.9</ele>
      </trkpt>
      <trkpt lat="44.66474" lon="0.02814">
        <ele>91.8</ele>
      </trkpt>
      <trkpt lat="44.66385" lon="0.02551">
        <ele>94.1</ele>
      </trkpt>
      <trkpt lat="44.66287" lon="0.02394">
        <ele>94.7</ele>
      </trkpt>
      <trkpt lat="44.66263" lon="0.02281">
        <ele>92.1</ele>
      </trkpt>
      <trkpt lat="44.66314" lon="0.01816">
        <ele>94.7</ele>
      </trkpt>
      <trkpt lat="44.66286" lon="0.0174">
        <ele>96.7</ele>
      </trkpt>
      <trkpt lat="44.66293" lon="0.01711">
        <ele>96.7</ele>
      </trkpt>
      <trkpt lat="44.66229" lon="0.01695">
        <ele>96</ele>
      </trkpt>
      <trkpt lat="44.66194" lon="0.01665">
        <ele>94</ele>
      </trkpt>
      <trkpt lat="44.66175" lon="0.01467">
        <ele>92.7</ele>
      </trkpt>
      <trkpt lat="44.6619" lon="0.01347">
        <ele>90.2</ele>
      </trkpt>
      <trkpt lat="44.66201" lon="0.00794">
        <ele>86.9</ele>
      </trkpt>
      <trkpt lat="44.66683" lon="0.00753">
        <ele>61.2</ele>
      </trkpt>
      <trkpt lat="44.66718" lon="0.00749">
        <ele>59.3</ele>
      </trkpt>
      <trkpt lat="44.66766" lon="0.00693">
        <ele>52.8</ele>
      </trkpt>
      <trkpt lat="44.66778" lon="0.00637">
        <ele>45.9</ele>
      </trkpt>
      <trkpt lat="44.66799" lon="0.00505">
        <ele>39.4</ele>
      </trkpt>
      <trkpt lat="44.66818" lon="0.00497">
        <ele>38.9</ele>
      </trkpt>
      <trkpt lat="44.6694" lon="0.00501">
        <ele>39</ele>
      </trkpt>
      <trkpt lat="44.67004" lon="0.00435">
        <ele>43.8</ele>
      </trkpt>
      <trkpt lat="44.67078" lon="0.00412">
        <ele>51</ele>
      </trkpt>
      <trkpt lat="44.67188" lon="0.00404">
        <ele>58.3</ele>
      </trkpt>
      <trkpt lat="44.67173" lon="0.0045">
        <ele>55.5</ele>
      </trkpt>
      <trkpt lat="44.67168" lon="0.00467">
        <ele>54.2</ele>
      </trkpt>
      <trkpt lat="44.67124" lon="0.00496">
        <ele>56.3</ele>
      </trkpt>
      <trkpt lat="44.67108" lon="0.00539">
        <ele>60.6</ele>
      </trkpt>
      <trkpt lat="44.67128" lon="0.00564">
        <ele>62.9</ele>
      </trkpt>
      <trkpt lat="44.67183" lon="0.00595">
        <ele>65.4</ele>
      </trkpt>
      <trkpt lat="44.67207" lon="0.00668">
        <ele>68.5</ele>
      </trkpt>
    </trkseg>
  </trk>
  <trk>
    <name><![CDATA[NewTrack]]></name>
    <desc><![CDATA[Total: 17.8km]]></desc>
    <extensions>
      <line xmlns="http://www.topografix.com/GPX/gpx_style/0/2">
        <color>888800</color>
        <width>4</width>
      </line>
    </extensions>
    <trkseg>
      <trkpt lat="44.75977" lon="-0.19675">
        <ele>54.2</ele>
        <time>2016-01-27T14:50:06Z</time>
      </trkpt>
      <trkpt lat="44.75784" lon="-0.1938">
        <ele>61.9</ele>
        <time>2016-01-27T14:51:22Z</time>
      </trkpt>
      <trkpt lat="44.7573" lon="-0.19343">
        <ele>63.5</ele>
        <time>2016-01-27T14:51:38Z</time>
      </trkpt>
      <trkpt lat="44.75774" lon="-0.19295">
        <ele>62.5</ele>
        <time>2016-01-27T14:51:53Z</time>
      </trkpt>
      <trkpt lat="44.7579" lon="-0.19105">
        <ele>63</ele>
        <time>2016-01-27T14:52:29Z</time>
      </trkpt>
      <trkpt lat="44.75789" lon="-0.18845">
        <ele>57.9</ele>
        <time>2016-01-27T14:53:19Z</time>
      </trkpt>
      <trkpt lat="44.7577" lon="-0.18645">
        <ele>55.3</ele>
        <time>2016-01-27T14:53:57Z</time>
      </trkpt>
      <trkpt lat="44.75744" lon="-0.18497">
        <ele>55.4</ele>
        <time>2016-01-27T14:54:26Z</time>
      </trkpt>
      <trkpt lat="44.75726" lon="-0.18346">
        <ele>56.7</ele>
        <time>2016-01-27T14:54:55Z</time>
      </trkpt>
      <trkpt lat="44.75673" lon="-0.18164">
        <ele>53.5</ele>
        <time>2016-01-27T14:55:33Z</time>
      </trkpt>
      <trkpt lat="44.75582" lon="-0.18129">
        <ele>56.6</ele>
        <time>2016-01-27T14:55:58Z</time>
      </trkpt>
      <trkpt lat="44.75548" lon="-0.18171">
        <ele>58.3</ele>
        <time>2016-01-27T14:56:10Z</time>
      </trkpt>
      <trkpt lat="44.75511" lon="-0.18207">
        <ele>60.4</ele>
        <time>2016-01-27T14:56:22Z</time>
      </trkpt>
      <trkpt lat="44.75525" lon="-0.18252">
        <ele>62.1</ele>
        <time>2016-01-27T14:56:31Z</time>
      </trkpt>
      <trkpt lat="44.75519" lon="-0.18388">
        <ele>64.3</ele>
        <time>2016-01-27T14:56:57Z</time>
      </trkpt>
      <trkpt lat="44.75503" lon="-0.18452">
        <ele>63.9</ele>
        <time>2016-01-27T14:57:10Z</time>
      </trkpt>
      <trkpt lat="44.75477" lon="-0.1849">
        <ele>64</ele>
        <time>2016-01-27T14:57:20Z</time>
      </trkpt>
      <trkpt lat="44.75262" lon="-0.18493">
        <ele>61.8</ele>
        <time>2016-01-27T14:58:18Z</time>
      </trkpt>
      <trkpt lat="44.75239" lon="-0.18495">
        <ele>61.4</ele>
        <time>2016-01-27T14:58:24Z</time>
      </trkpt>
      <trkpt lat="44.75221" lon="-0.18517">
        <ele>61.5</ele>
        <time>2016-01-27T14:58:30Z</time>
      </trkpt>
      <trkpt lat="44.75166" lon="-0.18623">
        <ele>62.4</ele>
        <time>2016-01-27T14:58:55Z</time>
      </trkpt>
      <trkpt lat="44.75183" lon="-0.18808">
        <ele>61.8</ele>
        <time>2016-01-27T14:59:30Z</time>
      </trkpt>
      <trkpt lat="44.75186" lon="-0.18884">
        <ele>62.3</ele>
        <time>2016-01-27T14:59:45Z</time>
      </trkpt>
      <trkpt lat="44.75171" lon="-0.18968">
        <ele>60.2</ele>
        <time>2016-01-27T15:00:01Z</time>
      </trkpt>
      <trkpt lat="44.75131" lon="-0.19034">
        <ele>56.6</ele>
        <time>2016-01-27T15:00:18Z</time>
      </trkpt>
      <trkpt lat="44.74918" lon="-0.19089">
        <ele>49.1</ele>
        <time>2016-01-27T15:01:15Z</time>
      </trkpt>
      <trkpt lat="44.74908" lon="-0.19112">
        <ele>50.3</ele>
        <time>2016-01-27T15:01:21Z</time>
      </trkpt>
      <trkpt lat="44.74898" lon="-0.19212">
        <ele>53</ele>
        <time>2016-01-27T15:01:40Z</time>
      </trkpt>
      <trkpt lat="44.74875" lon="-0.19225">
        <ele>53</ele>
        <time>2016-01-27T15:01:46Z</time>
      </trkpt>
      <trkpt lat="44.74842" lon="-0.19207">
        <ele>53.7</ele>
        <time>2016-01-27T15:01:56Z</time>
      </trkpt>
      <trkpt lat="44.74584" lon="-0.19034">
        <ele>57.2</ele>
        <time>2016-01-27T15:03:12Z</time>
      </trkpt>
      <trkpt lat="44.74443" lon="-0.18926">
        <ele>55.1</ele>
        <time>2016-01-27T15:03:55Z</time>
      </trkpt>
      <trkpt lat="44.74435" lon="-0.1877">
        <ele>54.4</ele>
        <time>2016-01-27T15:04:24Z</time>
      </trkpt>
      <trkpt lat="44.7437" lon="-0.18766">
        <ele>58.1</ele>
        <time>2016-01-27T15:04:42Z</time>
      </trkpt>
      <trkpt lat="44.74345" lon="-0.18249">
        <ele>58.6</ele>
        <time>2016-01-27T15:06:20Z</time>
      </trkpt>
      <trkpt lat="44.74312" lon="-0.17973">
        <ele>60.5</ele>
        <time>2016-01-27T15:07:13Z</time>
      </trkpt>
      <trkpt lat="44.74299" lon="-0.17882">
        <ele>63.4</ele>
        <time>2016-01-27T15:07:31Z</time>
      </trkpt>
      <trkpt lat="44.74277" lon="-0.17791">
        <ele>64</ele>
        <time>2016-01-27T15:07:49Z</time>
      </trkpt>
      <trkpt lat="44.74249" lon="-0.17558">
        <ele>55.1</ele>
        <time>2016-01-27T15:08:34Z</time>
      </trkpt>
      <trkpt lat="44.7424" lon="-0.1752">
        <ele>54.5</ele>
        <time>2016-01-27T15:08:42Z</time>
      </trkpt>
      <trkpt lat="44.74189" lon="-0.174">
        <ele>48.5</ele>
        <time>2016-01-27T15:09:08Z</time>
      </trkpt>
      <trkpt lat="44.74127" lon="-0.17271">
        <ele>42.3</ele>
        <time>2016-01-27T15:09:38Z</time>
      </trkpt>
      <trkpt lat="44.74051" lon="-0.17195">
        <ele>32.2</ele>
        <time>2016-01-27T15:10:03Z</time>
      </trkpt>
      <trkpt lat="44.73997" lon="-0.17161">
        <ele>28.4</ele>
        <time>2016-01-27T15:10:19Z</time>
      </trkpt>
      <trkpt lat="44.73928" lon="-0.17163">
        <ele>28.2</ele>
        <time>2016-01-27T15:10:37Z</time>
      </trkpt>
      <trkpt lat="44.7392" lon="-0.17152">
        <ele>27.5</ele>
        <time>2016-01-27T15:10:40Z</time>
      </trkpt>
      <trkpt lat="44.73841" lon="-0.17145">
        <ele>27</ele>
        <time>2016-01-27T15:11:01Z</time>
      </trkpt>
      <trkpt lat="44.73764" lon="-0.17132">
        <ele>28.1</ele>
        <time>2016-01-27T15:11:22Z</time>
      </trkpt>
      <trkpt lat="44.73666" lon="-0.17117">
        <ele>29.2</ele>
        <time>2016-01-27T15:11:48Z</time>
      </trkpt>
      <trkpt lat="44.73619" lon="-0.17097">
        <ele>28.9</ele>
        <time>2016-01-27T15:12:01Z</time>
      </trkpt>
      <trkpt lat="44.73578" lon="-0.17069">
        <ele>28.5</ele>
        <time>2016-01-27T15:12:14Z</time>
      </trkpt>
      <trkpt lat="44.73487" lon="-0.17041">
        <ele>29.7</ele>
        <time>2016-01-27T15:12:38Z</time>
      </trkpt>
      <trkpt lat="44.73405" lon="-0.17052">
        <ele>30.4</ele>
        <time>2016-01-27T15:13:00Z</time>
      </trkpt>
      <trkpt lat="44.73332" lon="-0.17095">
        <ele>30.4</ele>
        <time>2016-01-27T15:13:21Z</time>
      </trkpt>
      <trkpt lat="44.73272" lon="-0.17157">
        <ele>32.5</ele>
        <time>2016-01-27T15:13:41Z</time>
      </trkpt>
      <trkpt lat="44.73184" lon="-0.17317">
        <ele>36.3</ele>
        <time>2016-01-27T15:14:20Z</time>
      </trkpt>
      <trkpt lat="44.73132" lon="-0.17401">
        <ele>35.2</ele>
        <time>2016-01-27T15:14:41Z</time>
      </trkpt>
      <trkpt lat="44.73078" lon="-0.17459">
        <ele>34.8</ele>
        <time>2016-01-27T15:14:59Z</time>
      </trkpt>
      <trkpt lat="44.73007" lon="-0.17509">
        <ele>36.4</ele>
        <time>2016-01-27T15:15:20Z</time>
      </trkpt>
      <trkpt lat="44.72931" lon="-0.17516">
        <ele>36.3</ele>
        <time>2016-01-27T15:15:41Z</time>
      </trkpt>
      <trkpt lat="44.72833" lon="-0.17528">
        <ele>36</ele>
        <time>2016-01-27T15:16:07Z</time>
      </trkpt>
      <trkpt lat="44.72739" lon="-0.17562">
        <ele>39.9</ele>
        <time>2016-01-27T15:16:33Z</time>
      </trkpt>
      <trkpt lat="44.72571" lon="-0.1762">
        <ele>43.6</ele>
        <time>2016-01-27T15:17:19Z</time>
      </trkpt>
      <trkpt lat="44.72509" lon="-0.17616">
        <ele>39.2</ele>
        <time>2016-01-27T15:17:35Z</time>
      </trkpt>
      <trkpt lat="44.72452" lon="-0.17592">
        <ele>39.7</ele>
        <time>2016-01-27T15:17:51Z</time>
      </trkpt>
      <trkpt lat="44.7241" lon="-0.17566">
        <ele>44.9</ele>
        <time>2016-01-27T15:18:03Z</time>
      </trkpt>
      <trkpt lat="44.72329" lon="-0.17821">
        <ele>43.9</ele>
        <time>2016-01-27T15:18:56Z</time>
      </trkpt>
      <trkpt lat="44.72236" lon="-0.18126">
        <ele>53.5</ele>
        <time>2016-01-27T15:19:59Z</time>
      </trkpt>
      <trkpt lat="44.72072" lon="-0.18353">
        <ele>59</ele>
        <time>2016-01-27T15:21:01Z</time>
      </trkpt>
      <trkpt lat="44.71869" lon="-0.18626">
        <ele>59.6</ele>
        <time>2016-01-27T15:22:16Z</time>
      </trkpt>
      <trkpt lat="44.71769" lon="-0.18759">
        <ele>67.2</ele>
        <time>2016-01-27T15:22:53Z</time>
      </trkpt>
      <trkpt lat="44.71888" lon="-0.18791">
        <ele>59.5</ele>
        <time>2016-01-27T15:23:25Z</time>
      </trkpt>
      <trkpt lat="44.721" lon="-0.1881">
        <ele>49.5</ele>
        <time>2016-01-27T15:24:22Z</time>
      </trkpt>
      <trkpt lat="44.72197" lon="-0.18824">
        <ele>48.6</ele>
        <time>2016-01-27T15:24:48Z</time>
      </trkpt>
      <trkpt lat="44.72218" lon="-0.18838">
        <ele>48.3</ele>
        <time>2016-01-27T15:24:54Z</time>
      </trkpt>
      <trkpt lat="44.72251" lon="-0.18899">
        <ele>48.3</ele>
        <time>2016-01-27T15:25:08Z</time>
      </trkpt>
      <trkpt lat="44.72275" lon="-0.18929">
        <ele>46.3</ele>
        <time>2016-01-27T15:25:17Z</time>
      </trkpt>
      <trkpt lat="44.72315" lon="-0.18924">
        <ele>44.2</ele>
        <time>2016-01-27T15:25:28Z</time>
      </trkpt>
      <trkpt lat="44.72381" lon="-0.18918">
        <ele>45.5</ele>
        <time>2016-01-27T15:25:46Z</time>
      </trkpt>
      <trkpt lat="44.72497" lon="-0.18993">
        <ele>53.6</ele>
        <time>2016-01-27T15:26:20Z</time>
      </trkpt>
      <trkpt lat="44.72517" lon="-0.18857">
        <ele>53.3</ele>
        <time>2016-01-27T15:26:46Z</time>
      </trkpt>
      <trkpt lat="44.7257" lon="-0.18777">
        <ele>56</ele>
        <time>2016-01-27T15:27:07Z</time>
      </trkpt>
      <trkpt lat="44.72663" lon="-0.18744">
        <ele>60.5</ele>
        <time>2016-01-27T15:27:32Z</time>
      </trkpt>
      <trkpt lat="44.72761" lon="-0.18728">
        <ele>65.8</ele>
        <time>2016-01-27T15:27:59Z</time>
      </trkpt>
      <trkpt lat="44.72894" lon="-0.18739">
        <ele>72.6</ele>
        <time>2016-01-27T15:28:34Z</time>
      </trkpt>
      <trkpt lat="44.73017" lon="-0.1874">
        <ele>74.7</ele>
        <time>2016-01-27T15:29:07Z</time>
      </trkpt>
      <trkpt lat="44.73058" lon="-0.18749">
        <ele>74.2</ele>
        <time>2016-01-27T15:29:18Z</time>
      </trkpt>
      <trkpt lat="44.73183" lon="-0.18874">
        <ele>74.3</ele>
        <time>2016-01-27T15:29:59Z</time>
      </trkpt>
      <trkpt lat="44.73229" lon="-0.18909">
        <ele>74.2</ele>
        <time>2016-01-27T15:30:13Z</time>
      </trkpt>
      <trkpt lat="44.73265" lon="-0.18927">
        <ele>71.7</ele>
        <time>2016-01-27T15:30:23Z</time>
      </trkpt>
      <trkpt lat="44.73304" lon="-0.18931">
        <ele>68.6</ele>
        <time>2016-01-27T15:30:34Z</time>
      </trkpt>
      <trkpt lat="44.73344" lon="-0.18907">
        <ele>65.3</ele>
        <time>2016-01-27T15:30:45Z</time>
      </trkpt>
      <trkpt lat="44.73508" lon="-0.18759">
        <ele>48.1</ele>
        <time>2016-01-27T15:31:37Z</time>
      </trkpt>
      <trkpt lat="44.73594" lon="-0.18738">
        <ele>52.2</ele>
        <time>2016-01-27T15:32:01Z</time>
      </trkpt>
      <trkpt lat="44.73639" lon="-0.18698">
        <ele>55.8</ele>
        <time>2016-01-27T15:32:15Z</time>
      </trkpt>
      <trkpt lat="44.73719" lon="-0.18624">
        <ele>59.9</ele>
        <time>2016-01-27T15:32:40Z</time>
      </trkpt>
      <trkpt lat="44.73815" lon="-0.18576">
        <ele>66.2</ele>
        <time>2016-01-27T15:33:07Z</time>
      </trkpt>
      <trkpt lat="44.73889" lon="-0.18536">
        <ele>70</ele>
        <time>2016-01-27T15:33:29Z</time>
      </trkpt>
      <trkpt lat="44.74027" lon="-0.19032">
        <ele>66</ele>
        <time>2016-01-27T15:35:10Z</time>
      </trkpt>
      <trkpt lat="44.74088" lon="-0.19366">
        <ele>67.4</ele>
        <time>2016-01-27T15:36:15Z</time>
      </trkpt>
      <trkpt lat="44.74236" lon="-0.19239">
        <ele>71.9</ele>
        <time>2016-01-27T15:37:01Z</time>
      </trkpt>
      <trkpt lat="44.74375" lon="-0.19642">
        <ele>72</ele>
        <time>2016-01-27T15:38:27Z</time>
      </trkpt>
      <trkpt lat="44.74455" lon="-0.19897">
        <ele>72.1</ele>
        <time>2016-01-27T15:39:19Z</time>
      </trkpt>
      <trkpt lat="44.74532" lon="-0.20123">
        <ele>78.4</ele>
        <time>2016-01-27T15:40:07Z</time>
      </trkpt>
      <trkpt lat="44.74594" lon="-0.20254">
        <ele>79.3</ele>
        <time>2016-01-27T15:40:37Z</time>
      </trkpt>
      <trkpt lat="44.74189" lon="-0.20637">
        <ele>72</ele>
        <time>2016-01-27T15:42:47Z</time>
      </trkpt>
      <trkpt lat="44.74137" lon="-0.20726">
        <ele>74.1</ele>
        <time>2016-01-27T15:43:09Z</time>
      </trkpt>
      <trkpt lat="44.74024" lon="-0.2096">
        <ele>77</ele>
        <time>2016-01-27T15:44:03Z</time>
      </trkpt>
      <trkpt lat="44.7384" lon="-0.21046">
        <ele>79</ele>
        <time>2016-01-27T15:44:55Z</time>
      </trkpt>
      <trkpt lat="44.73885" lon="-0.21202">
        <ele>77.1</ele>
        <time>2016-01-27T15:45:27Z</time>
      </trkpt>
      <trkpt lat="44.7389" lon="-0.21355">
        <ele>74.2</ele>
        <time>2016-01-27T15:45:56Z</time>
      </trkpt>
      <trkpt lat="44.73901" lon="-0.21505">
        <ele>71.6</ele>
        <time>2016-01-27T15:46:25Z</time>
      </trkpt>
      <trkpt lat="44.73924" lon="-0.21655">
        <ele>68.3</ele>
        <time>2016-01-27T15:46:54Z</time>
      </trkpt>
      <trkpt lat="44.73986" lon="-0.21659">
        <ele>67</ele>
        <time>2016-01-27T15:47:10Z</time>
      </trkpt>
      <trkpt lat="44.74044" lon="-0.2172">
        <ele>66.4</ele>
        <time>2016-01-27T15:47:30Z</time>
      </trkpt>
      <trkpt lat="44.74194" lon="-0.2165">
        <ele>71</ele>
        <time>2016-01-27T15:48:12Z</time>
      </trkpt>
      <trkpt lat="44.74346" lon="-0.2161">
        <ele>65.5</ele>
        <time>2016-01-27T15:48:53Z</time>
      </trkpt>
      <trkpt lat="44.74518" lon="-0.21608">
        <ele>63.1</ele>
        <time>2016-01-27T15:49:39Z</time>
      </trkpt>
      <trkpt lat="44.74648" lon="-0.21657">
        <ele>65.2</ele>
        <time>2016-01-27T15:50:15Z</time>
      </trkpt>
      <trkpt lat="44.74727" lon="-0.21649">
        <ele>67.4</ele>
        <time>2016-01-27T15:50:36Z</time>
      </trkpt>
      <trkpt lat="44.74806" lon="-0.21692">
        <ele>68</ele>
        <time>2016-01-27T15:50:58Z</time>
      </trkpt>
      <trkpt lat="44.74854" lon="-0.21699">
        <ele>67.2</ele>
        <time>2016-01-27T15:51:11Z</time>
      </trkpt>
      <trkpt lat="44.74931" lon="-0.21651">
        <ele>63.3</ele>
        <time>2016-01-27T15:51:34Z</time>
      </trkpt>
      <trkpt lat="44.75073" lon="-0.21559">
        <ele>55.8</ele>
        <time>2016-01-27T15:52:16Z</time>
      </trkpt>
      <trkpt lat="44.7524" lon="-0.21285">
        <ele>62.6</ele>
        <time>2016-01-27T15:53:24Z</time>
      </trkpt>
      <trkpt lat="44.75123" lon="-0.21488">
        <ele>56</ele>
        <time>2016-01-27T15:54:13Z</time>
      </trkpt>
      <trkpt lat="44.75434" lon="-0.21011">
        <ele>64.2</ele>
        <time>2016-01-27T15:56:16Z</time>
      </trkpt>
      <trkpt lat="44.75527" lon="-0.20887">
        <ele>60.1</ele>
        <time>2016-01-27T15:56:50Z</time>
      </trkpt>
      <trkpt lat="44.75628" lon="-0.20644">
        <ele>61.8</ele>
        <time>2016-01-27T15:57:44Z</time>
      </trkpt>
      <trkpt lat="44.75739" lon="-0.20338">
        <ele>56.4</ele>
        <time>2016-01-27T15:58:49Z</time>
      </trkpt>
      <trkpt lat="44.75748" lon="-0.20104">
        <ele>58.9</ele>
        <time>2016-01-27T15:59:34Z</time>
      </trkpt>
      <trkpt lat="44.75769" lon="-0.19984">
        <ele>62.2</ele>
        <time>2016-01-27T15:59:57Z</time>
      </trkpt>
      <trkpt lat="44.75836" lon="-0.19842">
        <ele>59.7</ele>
        <time>2016-01-27T16:00:30Z</time>
      </trkpt>
      <trkpt lat="44.75978" lon="-0.19675">
        <ele>54.2</ele>
        <time>2016-01-27T16:01:19Z</time>
      </trkpt>
    </trkseg>
  </trk>
  <trk>
    <name><![CDATA[randogps33-649]]></name>
    <extensions>
      <line xmlns="http://www.topografix.com/GPX/gpx_style/0/2">
        <color>0000FF</color>
        <width>4</width>
      </line>
    </extensions>
    <trkseg>
      <trkpt lat="44.82659" lon="-0.00221">
        <ele>12.03125</ele>
      </trkpt>
      <trkpt lat="44.82664" lon="-0.00276">
        <ele>12.964844</ele>
      </trkpt>
      <trkpt lat="44.82658" lon="-0.00284">
        <ele>13</ele>
      </trkpt>
      <trkpt lat="44.82461" lon="-0.00392">
        <ele>13</ele>
      </trkpt>
      <trkpt lat="44.82254" lon="-0.00418">
        <ele>15.125</ele>
      </trkpt>
      <trkpt lat="44.82252" lon="-0.00406">
        <ele>15.144531</ele>
      </trkpt>
      <trkpt lat="44.82213" lon="-0.00401">
        <ele>17.554688</ele>
      </trkpt>
      <trkpt lat="44.82207" lon="-0.00408">
        <ele>18.5</ele>
      </trkpt>
      <trkpt lat="44.82211" lon="-0.00424">
        <ele>18.691406</ele>
      </trkpt>
      <trkpt lat="44.82201" lon="-0.00468">
        <ele>21.417969</ele>
      </trkpt>
      <trkpt lat="44.82178" lon="-0.00508">
        <ele>25.453125</ele>
      </trkpt>
      <trkpt lat="44.8217" lon="-0.00503">
        <ele>26.960938</ele>
      </trkpt>
      <trkpt lat="44.82169" lon="-0.0049">
        <ele>26.992188</ele>
      </trkpt>
      <trkpt lat="44.82181" lon="-0.00478">
        <ele>24.960938</ele>
      </trkpt>
      <trkpt lat="44.8219" lon="-0.00457">
        <ele>23.121094</ele>
      </trkpt>
      <trkpt lat="44.82201" lon="-0.00438">
        <ele>20.714844</ele>
      </trkpt>
      <trkpt lat="44.82197" lon="-0.00424">
        <ele>20.675781</ele>
      </trkpt>
      <trkpt lat="44.82189" lon="-0.00419">
        <ele>21.53125</ele>
      </trkpt>
      <trkpt lat="44.8218" lon="-0.00431">
        <ele>23.492188</ele>
      </trkpt>
      <trkpt lat="44.82161" lon="-0.0042">
        <ele>25.46875</ele>
      </trkpt>
      <trkpt lat="44.821" lon="-0.00428">
        <ele>33.058594</ele>
      </trkpt>
      <trkpt lat="44.82099" lon="-0.00413">
        <ele>32.132812</ele>
      </trkpt>
      <trkpt lat="44.81971" lon="-0.00392">
        <ele>46.21875</ele>
      </trkpt>
      <trkpt lat="44.8197" lon="-0.00373">
        <ele>45.90625</ele>
      </trkpt>
      <trkpt lat="44.81939" lon="-0.00365">
        <ele>51.605469</ele>
      </trkpt>
      <trkpt lat="44.81931" lon="-0.00368">
        <ele>53.40625</ele>
      </trkpt>
      <trkpt lat="44.81918" lon="-0.00357">
        <ele>55.890625</ele>
      </trkpt>
      <trkpt lat="44.81905" lon="-0.00376">
        <ele>59.695312</ele>
      </trkpt>
      <trkpt lat="44.81891" lon="-0.00371">
        <ele>62.578125</ele>
      </trkpt>
      <trkpt lat="44.81857" lon="-0.00385">
        <ele>69.976562</ele>
      </trkpt>
      <trkpt lat="44.81852" lon="-0.00406">
        <ele>71.332031</ele>
      </trkpt>
      <trkpt lat="44.81847" lon="-0.00392">
        <ele>72.109375</ele>
      </trkpt>
      <trkpt lat="44.81839" lon="-0.00308">
        <ele>70.230469</ele>
      </trkpt>
      <trkpt lat="44.81828" lon="-0.00305">
        <ele>72.28125</ele>
      </trkpt>
      <trkpt lat="44.81821" lon="-0.00305">
        <ele>73.355469</ele>
      </trkpt>
      <trkpt lat="44.81745" lon="-0.0033">
        <ele>81.636719</ele>
      </trkpt>
      <trkpt lat="44.81738" lon="-0.00317">
        <ele>82.203125</ele>
      </trkpt>
      <trkpt lat="44.81749" lon="-0.00301">
        <ele>81.019531</ele>
      </trkpt>
      <trkpt lat="44.81758" lon="-0.00274">
        <ele>80.050781</ele>
      </trkpt>
      <trkpt lat="44.8177" lon="-0.00255">
        <ele>78.875</ele>
      </trkpt>
      <trkpt lat="44.81743" lon="-0.0016">
        <ele>81.945312</ele>
      </trkpt>
      <trkpt lat="44.81728" lon="-0.0013">
        <ele>83.503906</ele>
      </trkpt>
      <trkpt lat="44.81697" lon="-0.0015">
        <ele>85.800781</ele>
      </trkpt>
      <trkpt lat="44.81677" lon="-0.00083">
        <ele>88.835938</ele>
      </trkpt>
      <trkpt lat="44.81675" lon="-0.00071">
        <ele>89.238281</ele>
      </trkpt>
      <trkpt lat="44.81666" lon="-0.00065">
        <ele>90.089844</ele>
      </trkpt>
      <trkpt lat="44.81629" lon="-0.00104">
        <ele>91.132812</ele>
      </trkpt>
      <trkpt lat="44.81617" lon="-0.00124">
        <ele>91.425781</ele>
      </trkpt>
      <trkpt lat="44.81593" lon="-0.00143">
        <ele>92.074219</ele>
      </trkpt>
      <trkpt lat="44.81569" lon="-0.00164">
        <ele>92.027344</ele>
      </trkpt>
      <trkpt lat="44.8155" lon="-0.00173">
        <ele>92</ele>
      </trkpt>
      <trkpt lat="44.81543" lon="-0.00163">
        <ele>92.066406</ele>
      </trkpt>
      <trkpt lat="44.81487" lon="-0.00185">
        <ele>92</ele>
      </trkpt>
      <trkpt lat="44.81463" lon="-0.00171">
        <ele>92</ele>
      </trkpt>
      <trkpt lat="44.81432" lon="-0.00158">
        <ele>92</ele>
      </trkpt>
      <trkpt lat="44.81408" lon="-0.00153">
        <ele>92</ele>
      </trkpt>
      <trkpt lat="44.81376" lon="-0.0016">
        <ele>91.929688</ele>
      </trkpt>
      <trkpt lat="44.81368" lon="-0.00154">
        <ele>91.820312</ele>
      </trkpt>
      <trkpt lat="44.81345" lon="-0.00182">
        <ele>91.082031</ele>
      </trkpt>
      <trkpt lat="44.81336" lon="-0.00173">
        <ele>91.089844</ele>
      </trkpt>
      <trkpt lat="44.81319" lon="-0.00192">
        <ele>90.421875</ele>
      </trkpt>
      <trkpt lat="44.81309" lon="-0.00187">
        <ele>90.332031</ele>
      </trkpt>
      <trkpt lat="44.81279" lon="-0.0019">
        <ele>89.757812</ele>
      </trkpt>
      <trkpt lat="44.8126" lon="-0.00202">
        <ele>89.179688</ele>
      </trkpt>
      <trkpt lat="44.81238" lon="-0.002">
        <ele>88.828125</ele>
      </trkpt>
      <trkpt lat="44.81221" lon="-0.00179">
        <ele>88.90625</ele>
      </trkpt>
      <trkpt lat="44.81203" lon="-0.00195">
        <ele>88.1875</ele>
      </trkpt>
      <trkpt lat="44.81207" lon="-0.00213">
        <ele>87.921875</ele>
      </trkpt>
      <trkpt lat="44.8117" lon="-0.00242">
        <ele>85.964844</ele>
      </trkpt>
      <trkpt lat="44.81146" lon="-0.0026">
        <ele>85.324219</ele>
      </trkpt>
      <trkpt lat="44.81136" lon="-0.0028">
        <ele>84.953125</ele>
      </trkpt>
      <trkpt lat="44.81129" lon="-0.00325">
        <ele>84.148438</ele>
      </trkpt>
      <trkpt lat="44.8113" lon="-0.00335">
        <ele>83.945312</ele>
      </trkpt>
      <trkpt lat="44.81133" lon="-0.00345">
        <ele>83.6875</ele>
      </trkpt>
      <trkpt lat="44.8113" lon="-0.00354">
        <ele>83.441406</ele>
      </trkpt>
      <trkpt lat="44.81122" lon="-0.00398">
        <ele>82.171875</ele>
      </trkpt>
      <trkpt lat="44.8112" lon="-0.00433">
        <ele>81.523438</ele>
      </trkpt>
      <trkpt lat="44.81114" lon="-0.0046">
        <ele>80.972656</ele>
      </trkpt>
      <trkpt lat="44.81111" lon="-0.00493">
        <ele>80.398438</ele>
      </trkpt>
      <trkpt lat="44.81112" lon="-0.00522">
        <ele>79.980469</ele>
      </trkpt>
      <trkpt lat="44.81103" lon="-0.00559">
        <ele>79.007812</ele>
      </trkpt>
      <trkpt lat="44.81095" lon="-0.006">
        <ele>79.027344</ele>
      </trkpt>
      <trkpt lat="44.81094" lon="-0.00618">
        <ele>78.976562</ele>
      </trkpt>
      <trkpt lat="44.81083" lon="-0.00665">
        <ele>78.648438</ele>
      </trkpt>
      <trkpt lat="44.8108" lon="-0.00701">
        <ele>77.601562</ele>
      </trkpt>
      <trkpt lat="44.8108" lon="-0.00732">
        <ele>76.816406</ele>
      </trkpt>
      <trkpt lat="44.81074" lon="-0.00767">
        <ele>76.191406</ele>
      </trkpt>
      <trkpt lat="44.81117" lon="-0.00834">
        <ele>75.742188</ele>
      </trkpt>
      <trkpt lat="44.81117" lon="-0.00843">
        <ele>75.410156</ele>
      </trkpt>
      <trkpt lat="44.81115" lon="-0.00847">
        <ele>75.175781</ele>
      </trkpt>
      <trkpt lat="44.81102" lon="-0.00861">
        <ele>73.898438</ele>
      </trkpt>
      <trkpt lat="44.81085" lon="-0.00869">
        <ele>72.722656</ele>
      </trkpt>
      <trkpt lat="44.8107" lon="-0.00882">
        <ele>71.480469</ele>
      </trkpt>
      <trkpt lat="44.81061" lon="-0.00894">
        <ele>70.449219</ele>
      </trkpt>
      <trkpt lat="44.81048" lon="-0.00893">
        <ele>69.78125</ele>
      </trkpt>
      <trkpt lat="44.81037" lon="-0.00903">
        <ele>68.902344</ele>
      </trkpt>
      <trkpt lat="44.81022" lon="-0.00953">
        <ele>64.753906</ele>
      </trkpt>
      <trkpt lat="44.81007" lon="-0.01004">
        <ele>59.4375</ele>
      </trkpt>
      <trkpt lat="44.81006" lon="-0.0102">
        <ele>59.03125</ele>
      </trkpt>
      <trkpt lat="44.81009" lon="-0.01044">
        <ele>58.410156</ele>
      </trkpt>
      <trkpt lat="44.81005" lon="-0.01065">
        <ele>58.789062</ele>
      </trkpt>
      <trkpt lat="44.81003" lon="-0.01079">
        <ele>59.65625</ele>
      </trkpt>
      <trkpt lat="44.81012" lon="-0.0107">
        <ele>58.621094</ele>
      </trkpt>
      <trkpt lat="44.81028" lon="-0.01062">
        <ele>57.347656</ele>
      </trkpt>
      <trkpt lat="44.81035" lon="-0.01062">
        <ele>56.964844</ele>
      </trkpt>
      <trkpt lat="44.81067" lon="-0.01088">
        <ele>57.550781</ele>
      </trkpt>
      <trkpt lat="44.8108" lon="-0.01104">
        <ele>57.523438</ele>
      </trkpt>
      <trkpt lat="44.81104" lon="-0.0112">
        <ele>57.046875</ele>
      </trkpt>
      <trkpt lat="44.81115" lon="-0.0115">
        <ele>57.609375</ele>
      </trkpt>
      <trkpt lat="44.81129" lon="-0.01164">
        <ele>57.558594</ele>
      </trkpt>
      <trkpt lat="44.81148" lon="-0.01185">
        <ele>57.160156</ele>
      </trkpt>
      <trkpt lat="44.81162" lon="-0.01212">
        <ele>55.550781</ele>
      </trkpt>
      <trkpt lat="44.81173" lon="-0.01208">
        <ele>55.992188</ele>
      </trkpt>
      <trkpt lat="44.8118" lon="-0.01212">
        <ele>55.777344</ele>
      </trkpt>
      <trkpt lat="44.81201" lon="-0.01218">
        <ele>55.382812</ele>
      </trkpt>
      <trkpt lat="44.81204" lon="-0.01251">
        <ele>54.429688</ele>
      </trkpt>
      <trkpt lat="44.81215" lon="-0.01273">
        <ele>53.234375</ele>
      </trkpt>
      <trkpt lat="44.81248" lon="-0.01291">
        <ele>55.757812</ele>
      </trkpt>
      <trkpt lat="44.81262" lon="-0.01307">
        <ele>55.703125</ele>
      </trkpt>
      <trkpt lat="44.81269" lon="-0.01324">
        <ele>54.609375</ele>
      </trkpt>
      <trkpt lat="44.81281" lon="-0.01359">
        <ele>55.183594</ele>
      </trkpt>
      <trkpt lat="44.81301" lon="-0.01385">
        <ele>55.351562</ele>
      </trkpt>
      <trkpt lat="44.81309" lon="-0.01411">
        <ele>54.605469</ele>
      </trkpt>
      <trkpt lat="44.81314" lon="-0.01419">
        <ele>54.179688</ele>
      </trkpt>
      <trkpt lat="44.81322" lon="-0.01419">
        <ele>53.886719</ele>
      </trkpt>
      <trkpt lat="44.81329" lon="-0.01436">
        <ele>53.359375</ele>
      </trkpt>
      <trkpt lat="44.81346" lon="-0.01456">
        <ele>55.441406</ele>
      </trkpt>
      <trkpt lat="44.81347" lon="-0.01479">
        <ele>53.832031</ele>
      </trkpt>
      <trkpt lat="44.81356" lon="-0.0149">
        <ele>54.277344</ele>
      </trkpt>
      <trkpt lat="44.81361" lon="-0.01512">
        <ele>53.351562</ele>
      </trkpt>
      <trkpt lat="44.81383" lon="-0.01532">
        <ele>53.464844</ele>
      </trkpt>
      <trkpt lat="44.81412" lon="-0.01594">
        <ele>51.585938</ele>
      </trkpt>
      <trkpt lat="44.81422" lon="-0.01583">
        <ele>53.949219</ele>
      </trkpt>
      <trkpt lat="44.81409" lon="-0.01553">
        <ele>55.683594</ele>
      </trkpt>
      <trkpt lat="44.81409" lon="-0.01542">
        <ele>57.140625</ele>
      </trkpt>
      <trkpt lat="44.81415" lon="-0.01545">
        <ele>57.851562</ele>
      </trkpt>
      <trkpt lat="44.81428" lon="-0.01548">
        <ele>59.597656</ele>
      </trkpt>
      <trkpt lat="44.81429" lon="-0.01535">
        <ele>61.726562</ele>
      </trkpt>
      <trkpt lat="44.81423" lon="-0.0152">
        <ele>62.886719</ele>
      </trkpt>
      <trkpt lat="44.81419" lon="-0.01496">
        <ele>65.410156</ele>
      </trkpt>
      <trkpt lat="44.81417" lon="-0.01474">
        <ele>67.585938</ele>
      </trkpt>
      <trkpt lat="44.81424" lon="-0.01468">
        <ele>69.785156</ele>
      </trkpt>
      <trkpt lat="44.81433" lon="-0.01482">
        <ele>70.171875</ele>
      </trkpt>
      <trkpt lat="44.81437" lon="-0.01506">
        <ele>68.003906</ele>
      </trkpt>
      <trkpt lat="44.81437" lon="-0.01515">
        <ele>66.507812</ele>
      </trkpt>
      <trkpt lat="44.8145" lon="-0.01522">
        <ele>66.730469</ele>
      </trkpt>
      <trkpt lat="44.81467" lon="-0.01532">
        <ele>67.058594</ele>
      </trkpt>
      <trkpt lat="44.81478" lon="-0.01537">
        <ele>67.664062</ele>
      </trkpt>
      <trkpt lat="44.81489" lon="-0.01554">
        <ele>66.773438</ele>
      </trkpt>
      <trkpt lat="44.81509" lon="-0.01547">
        <ele>69.667969</ele>
      </trkpt>
      <trkpt lat="44.81528" lon="-0.0155">
        <ele>71.335938</ele>
      </trkpt>
      <trkpt lat="44.81547" lon="-0.0157">
        <ele>72.375</ele>
      </trkpt>
      <trkpt lat="44.81559" lon="-0.01587">
        <ele>72.5</ele>
      </trkpt>
      <trkpt lat="44.81562" lon="-0.01607">
        <ele>72.160156</ele>
      </trkpt>
      <trkpt lat="44.81562" lon="-0.01627">
        <ele>71.542969</ele>
      </trkpt>
      <trkpt lat="44.81577" lon="-0.01647">
        <ele>72.214844</ele>
      </trkpt>
      <trkpt lat="44.81588" lon="-0.01645">
        <ele>73.164062</ele>
      </trkpt>
      <trkpt lat="44.81594" lon="-0.01655">
        <ele>73.476562</ele>
      </trkpt>
      <trkpt lat="44.81589" lon="-0.01671">
        <ele>72.492188</ele>
      </trkpt>
      <trkpt lat="44.81599" lon="-0.01698">
        <ele>72.402344</ele>
      </trkpt>
      <trkpt lat="44.81615" lon="-0.01707">
        <ele>72.84375</ele>
      </trkpt>
      <trkpt lat="44.81634" lon="-0.0174">
        <ele>72.34375</ele>
      </trkpt>
      <trkpt lat="44.81649" lon="-0.0175">
        <ele>72.90625</ele>
      </trkpt>
      <trkpt lat="44.81653" lon="-0.01776">
        <ele>72.519531</ele>
      </trkpt>
      <trkpt lat="44.81653" lon="-0.0179">
        <ele>70.554688</ele>
      </trkpt>
      <trkpt lat="44.81659" lon="-0.01823">
        <ele>66.394531</ele>
      </trkpt>
      <trkpt lat="44.81673" lon="-0.01849">
        <ele>63.164062</ele>
      </trkpt>
      <trkpt lat="44.81633" lon="-0.01839">
        <ele>59.4375</ele>
      </trkpt>
      <trkpt lat="44.81611" lon="-0.01808">
        <ele>62.34375</ele>
      </trkpt>
      <trkpt lat="44.81606" lon="-0.01807">
        <ele>61.902344</ele>
      </trkpt>
      <trkpt lat="44.81577" lon="-0.01771">
        <ele>63.066406</ele>
      </trkpt>
      <trkpt lat="44.81573" lon="-0.01778">
        <ele>61.175781</ele>
      </trkpt>
      <trkpt lat="44.81579" lon="-0.01793">
        <ele>59.382812</ele>
      </trkpt>
      <trkpt lat="44.81588" lon="-0.01819">
        <ele>55.851562</ele>
      </trkpt>
      <trkpt lat="44.81588" lon="-0.01825">
        <ele>54.597656</ele>
      </trkpt>
      <trkpt lat="44.81605" lon="-0.0185">
        <ele>52.570312</ele>
      </trkpt>
      <trkpt lat="44.81616" lon="-0.01855">
        <ele>53.277344</ele>
      </trkpt>
      <trkpt lat="44.81622" lon="-0.01871">
        <ele>50.828125</ele>
      </trkpt>
      <trkpt lat="44.81637" lon="-0.01885">
        <ele>50.246094</ele>
      </trkpt>
      <trkpt lat="44.81654" lon="-0.01917">
        <ele>46.527344</ele>
      </trkpt>
      <trkpt lat="44.81659" lon="-0.01927">
        <ele>45.367188</ele>
      </trkpt>
      <trkpt lat="44.81676" lon="-0.01937">
        <ele>47.101562</ele>
      </trkpt>
      <trkpt lat="44.81687" lon="-0.01979">
        <ele>42.410156</ele>
      </trkpt>
      <trkpt lat="44.8168" lon="-0.01982">
        <ele>40.507812</ele>
      </trkpt>
      <trkpt lat="44.8164" lon="-0.01952">
        <ele>39.332031</ele>
      </trkpt>
      <trkpt lat="44.81628" lon="-0.01955">
        <ele>38.285156</ele>
      </trkpt>
      <trkpt lat="44.81613" lon="-0.01967">
        <ele>37.535156</ele>
      </trkpt>
      <trkpt lat="44.81609" lon="-0.01973">
        <ele>37.609375</ele>
      </trkpt>
      <trkpt lat="44.81602" lon="-0.0197">
        <ele>37.542969</ele>
      </trkpt>
      <trkpt lat="44.81602" lon="-0.01961">
        <ele>37.101562</ele>
      </trkpt>
      <trkpt lat="44.81587" lon="-0.01956">
        <ele>39.136719</ele>
      </trkpt>
      <trkpt lat="44.81553" lon="-0.01938">
        <ele>43.003906</ele>
      </trkpt>
      <trkpt lat="44.81549" lon="-0.01923">
        <ele>42.773438</ele>
      </trkpt>
      <trkpt lat="44.81542" lon="-0.01912">
        <ele>43.382812</ele>
      </trkpt>
      <trkpt lat="44.81537" lon="-0.01909">
        <ele>44.199219</ele>
      </trkpt>
      <trkpt lat="44.81517" lon="-0.01873">
        <ele>46.332031</ele>
      </trkpt>
      <trkpt lat="44.81511" lon="-0.01859">
        <ele>46.835938</ele>
      </trkpt>
      <trkpt lat="44.81501" lon="-0.01846">
        <ele>47.332031</ele>
      </trkpt>
      <trkpt lat="44.815" lon="-0.01843">
        <ele>47.289062</ele>
      </trkpt>
      <trkpt lat="44.81486" lon="-0.01832">
        <ele>48.183594</ele>
      </trkpt>
      <trkpt lat="44.81486" lon="-0.01815">
        <ele>47.796875</ele>
      </trkpt>
      <trkpt lat="44.8147" lon="-0.01805">
        <ele>50.160156</ele>
      </trkpt>
      <trkpt lat="44.81465" lon="-0.0179">
        <ele>50.191406</ele>
      </trkpt>
      <trkpt lat="44.81466" lon="-0.01779">
        <ele>49.390625</ele>
      </trkpt>
      <trkpt lat="44.81434" lon="-0.01715">
        <ele>48.234375</ele>
      </trkpt>
      <trkpt lat="44.81425" lon="-0.01701">
        <ele>49.082031</ele>
      </trkpt>
      <trkpt lat="44.81418" lon="-0.01677">
        <ele>48.894531</ele>
      </trkpt>
      <trkpt lat="44.81406" lon="-0.01668">
        <ele>49.3125</ele>
      </trkpt>
      <trkpt lat="44.81394" lon="-0.0167">
        <ele>50.382812</ele>
      </trkpt>
      <trkpt lat="44.81388" lon="-0.01682">
        <ele>52.082031</ele>
      </trkpt>
      <trkpt lat="44.81384" lon="-0.01671">
        <ele>51.261719</ele>
      </trkpt>
      <trkpt lat="44.8137" lon="-0.01663">
        <ele>53.046875</ele>
      </trkpt>
      <trkpt lat="44.81338" lon="-0.01565">
        <ele>53</ele>
      </trkpt>
      <trkpt lat="44.81332" lon="-0.01546">
        <ele>52.453125</ele>
      </trkpt>
      <trkpt lat="44.81329" lon="-0.01517">
        <ele>51.210938</ele>
      </trkpt>
      <trkpt lat="44.81327" lon="-0.0149">
        <ele>50.554688</ele>
      </trkpt>
      <trkpt lat="44.81308" lon="-0.01457">
        <ele>53.507812</ele>
      </trkpt>
      <trkpt lat="44.81297" lon="-0.01459">
        <ele>54.808594</ele>
      </trkpt>
      <trkpt lat="44.81297" lon="-0.01443">
        <ele>54.515625</ele>
      </trkpt>
      <trkpt lat="44.81281" lon="-0.01431">
        <ele>55.589844</ele>
      </trkpt>
      <trkpt lat="44.81285" lon="-0.01449">
        <ele>55.863281</ele>
      </trkpt>
      <trkpt lat="44.81252" lon="-0.01433">
        <ele>59.179688</ele>
      </trkpt>
      <trkpt lat="44.81243" lon="-0.01441">
        <ele>61.085938</ele>
      </trkpt>
      <trkpt lat="44.81241" lon="-0.0146">
        <ele>62.675781</ele>
      </trkpt>
      <trkpt lat="44.81248" lon="-0.01476">
        <ele>62.578125</ele>
      </trkpt>
      <trkpt lat="44.81257" lon="-0.01495">
        <ele>62.457031</ele>
      </trkpt>
      <trkpt lat="44.81276" lon="-0.01498">
        <ele>59.675781</ele>
      </trkpt>
      <trkpt lat="44.81278" lon="-0.01507">
        <ele>59.6875</ele>
      </trkpt>
      <trkpt lat="44.81295" lon="-0.01522">
        <ele>57.09375</ele>
      </trkpt>
      <trkpt lat="44.81306" lon="-0.01567">
        <ele>57.53125</ele>
      </trkpt>
      <trkpt lat="44.81332" lon="-0.01646">
        <ele>59.03125</ele>
      </trkpt>
      <trkpt lat="44.81362" lon="-0.01704">
        <ele>58.292969</ele>
      </trkpt>
      <trkpt lat="44.81381" lon="-0.01711">
        <ele>55.832031</ele>
      </trkpt>
      <trkpt lat="44.81395" lon="-0.01704">
        <ele>53.242188</ele>
      </trkpt>
      <trkpt lat="44.81404" lon="-0.01725">
        <ele>53.625</ele>
      </trkpt>
      <trkpt lat="44.81426" lon="-0.01751">
        <ele>52.3125</ele>
      </trkpt>
      <trkpt lat="44.81433" lon="-0.01771">
        <ele>53.054688</ele>
      </trkpt>
      <trkpt lat="44.81442" lon="-0.01812">
        <ele>55.667969</ele>
      </trkpt>
      <trkpt lat="44.8145" lon="-0.01821">
        <ele>55.167969</ele>
      </trkpt>
      <trkpt lat="44.8146" lon="-0.01857">
        <ele>55.566406</ele>
      </trkpt>
      <trkpt lat="44.81468" lon="-0.01885">
        <ele>55.976562</ele>
      </trkpt>
      <trkpt lat="44.81485" lon="-0.01928">
        <ele>55.769531</ele>
      </trkpt>
      <trkpt lat="44.81501" lon="-0.01945">
        <ele>54.019531</ele>
      </trkpt>
      <trkpt lat="44.81514" lon="-0.01967">
        <ele>53.140625</ele>
      </trkpt>
      <trkpt lat="44.81522" lon="-0.0199">
        <ele>53.867188</ele>
      </trkpt>
      <trkpt lat="44.81556" lon="-0.01999">
        <ele>49.019531</ele>
      </trkpt>
      <trkpt lat="44.81576" lon="-0.02027">
        <ele>47.3125</ele>
      </trkpt>
      <trkpt lat="44.81581" lon="-0.02047">
        <ele>48.222656</ele>
      </trkpt>
      <trkpt lat="44.81599" lon="-0.02069">
        <ele>46.886719</ele>
      </trkpt>
      <trkpt lat="44.81616" lon="-0.02092">
        <ele>45.210938</ele>
      </trkpt>
      <trkpt lat="44.8162" lon="-0.02114">
        <ele>45.640625</ele>
      </trkpt>
      <trkpt lat="44.81628" lon="-0.02143">
        <ele>44.757812</ele>
      </trkpt>
      <trkpt lat="44.81628" lon="-0.02187">
        <ele>44.824219</ele>
      </trkpt>
      <trkpt lat="44.81638" lon="-0.02205">
        <ele>42.824219</ele>
      </trkpt>
      <trkpt lat="44.81644" lon="-0.0223">
        <ele>40.792969</ele>
      </trkpt>
      <trkpt lat="44.81626" lon="-0.0225">
        <ele>40.515625</ele>
      </trkpt>
      <trkpt lat="44.81609" lon="-0.02264">
        <ele>40.269531</ele>
      </trkpt>
      <trkpt lat="44.81593" lon="-0.02264">
        <ele>41.164062</ele>
      </trkpt>
      <trkpt lat="44.81574" lon="-0.02255">
        <ele>43.339844</ele>
      </trkpt>
      <trkpt lat="44.81552" lon="-0.02243">
        <ele>46.199219</ele>
      </trkpt>
      <trkpt lat="44.81517" lon="-0.02222">
        <ele>49.804688</ele>
      </trkpt>
      <trkpt lat="44.8148" lon="-0.02196">
        <ele>51.839844</ele>
      </trkpt>
      <trkpt lat="44.81456" lon="-0.02154">
        <ele>54.777344</ele>
      </trkpt>
      <trkpt lat="44.81429" lon="-0.02112">
        <ele>58.03125</ele>
      </trkpt>
      <trkpt lat="44.81416" lon="-0.02056">
        <ele>60.402344</ele>
      </trkpt>
      <trkpt lat="44.81418" lon="-0.02024">
        <ele>61.738281</ele>
      </trkpt>
      <trkpt lat="44.81415" lon="-0.01986">
        <ele>63.101562</ele>
      </trkpt>
      <trkpt lat="44.81403" lon="-0.01973">
        <ele>63.714844</ele>
      </trkpt>
      <trkpt lat="44.81369" lon="-0.0195">
        <ele>65.007812</ele>
      </trkpt>
      <trkpt lat="44.81333" lon="-0.01923">
        <ele>65.902344</ele>
      </trkpt>
      <trkpt lat="44.81098" lon="-0.01758">
        <ele>72.605469</ele>
      </trkpt>
      <trkpt lat="44.81093" lon="-0.01763">
        <ele>72.320312</ele>
      </trkpt>
      <trkpt lat="44.81085" lon="-0.01804">
        <ele>70.550781</ele>
      </trkpt>
      <trkpt lat="44.81077" lon="-0.01809">
        <ele>70.082031</ele>
      </trkpt>
      <trkpt lat="44.81069" lon="-0.01832">
        <ele>68.789062</ele>
      </trkpt>
      <trkpt lat="44.81067" lon="-0.01844">
        <ele>67.769531</ele>
      </trkpt>
      <trkpt lat="44.81063" lon="-0.01845">
        <ele>67.578125</ele>
      </trkpt>
      <trkpt lat="44.81057" lon="-0.01872">
        <ele>65.378906</ele>
      </trkpt>
      <trkpt lat="44.81055" lon="-0.01878">
        <ele>64.828125</ele>
      </trkpt>
      <trkpt lat="44.81052" lon="-0.01877">
        <ele>64.871094</ele>
      </trkpt>
      <trkpt lat="44.8103" lon="-0.01854">
        <ele>66.878906</ele>
      </trkpt>
      <trkpt lat="44.81026" lon="-0.01856">
        <ele>66.820312</ele>
      </trkpt>
      <trkpt lat="44.81002" lon="-0.01835">
        <ele>68.652344</ele>
      </trkpt>
      <trkpt lat="44.80983" lon="-0.01854">
        <ele>68.378906</ele>
      </trkpt>
      <trkpt lat="44.8096" lon="-0.01886">
        <ele>68.359375</ele>
      </trkpt>
      <trkpt lat="44.80939" lon="-0.01912">
        <ele>69.371094</ele>
      </trkpt>
      <trkpt lat="44.80912" lon="-0.0195">
        <ele>70.8125</ele>
      </trkpt>
      <trkpt lat="44.80889" lon="-0.01977">
        <ele>72.492188</ele>
      </trkpt>
      <trkpt lat="44.80874" lon="-0.01986">
        <ele>73.03125</ele>
      </trkpt>
      <trkpt lat="44.80872" lon="-0.01974">
        <ele>73.074219</ele>
      </trkpt>
      <trkpt lat="44.80858" lon="-0.01944">
        <ele>73.398438</ele>
      </trkpt>
      <trkpt lat="44.80813" lon="-0.01874">
        <ele>75.886719</ele>
      </trkpt>
      <trkpt lat="44.80809" lon="-0.01858">
        <ele>76.480469</ele>
      </trkpt>
      <trkpt lat="44.80797" lon="-0.01832">
        <ele>77.5</ele>
      </trkpt>
      <trkpt lat="44.80786" lon="-0.01831">
        <ele>77.722656</ele>
      </trkpt>
      <trkpt lat="44.80695" lon="-0.01892">
        <ele>78.199219</ele>
      </trkpt>
      <trkpt lat="44.80645" lon="-0.0193">
        <ele>77.804688</ele>
      </trkpt>
      <trkpt lat="44.80635" lon="-0.01915">
        <ele>78.6875</ele>
      </trkpt>
      <trkpt lat="44.80606" lon="-0.01932">
        <ele>78.578125</ele>
      </trkpt>
      <trkpt lat="44.80586" lon="-0.01947">
        <ele>78.125</ele>
      </trkpt>
      <trkpt lat="44.80561" lon="-0.01955">
        <ele>78.300781</ele>
      </trkpt>
      <trkpt lat="44.80556" lon="-0.01955">
        <ele>78.421875</ele>
      </trkpt>
      <trkpt lat="44.80542" lon="-0.0197">
        <ele>78.03125</ele>
      </trkpt>
      <trkpt lat="44.80532" lon="-0.01974">
        <ele>77.894531</ele>
      </trkpt>
      <trkpt lat="44.80518" lon="-0.01967">
        <ele>78.160156</ele>
      </trkpt>
      <trkpt lat="44.80505" lon="-0.01951">
        <ele>78.722656</ele>
      </trkpt>
      <trkpt lat="44.80504" lon="-0.01938">
        <ele>79.207031</ele>
      </trkpt>
      <trkpt lat="44.80491" lon="-0.01924">
        <ele>79.703125</ele>
      </trkpt>
      <trkpt lat="44.80488" lon="-0.01905">
        <ele>80.386719</ele>
      </trkpt>
      <trkpt lat="44.80445" lon="-0.01773">
        <ele>83.375</ele>
      </trkpt>
      <trkpt lat="44.80378" lon="-0.01817">
        <ele>80.839844</ele>
      </trkpt>
      <trkpt lat="44.8029" lon="-0.01872">
        <ele>74.839844</ele>
      </trkpt>
      <trkpt lat="44.80255" lon="-0.01885">
        <ele>73.132812</ele>
      </trkpt>
      <trkpt lat="44.802" lon="-0.01919">
        <ele>73.554688</ele>
      </trkpt>
      <trkpt lat="44.80171" lon="-0.01954">
        <ele>76.085938</ele>
      </trkpt>
      <trkpt lat="44.80138" lon="-0.01971">
        <ele>78.8125</ele>
      </trkpt>
      <trkpt lat="44.80077" lon="-0.02008">
        <ele>81.964844</ele>
      </trkpt>
      <trkpt lat="44.80053" lon="-0.02023">
        <ele>82.832031</ele>
      </trkpt>
      <trkpt lat="44.80049" lon="-0.02008">
        <ele>82.980469</ele>
      </trkpt>
      <trkpt lat="44.80019" lon="-0.01991">
        <ele>84.59375</ele>
      </trkpt>
      <trkpt lat="44.79958" lon="-0.01975">
        <ele>88.136719</ele>
      </trkpt>
      <trkpt lat="44.79947" lon="-0.01968">
        <ele>88.957031</ele>
      </trkpt>
      <trkpt lat="44.79888" lon="-0.01965">
        <ele>92.808594</ele>
      </trkpt>
      <trkpt lat="44.7988" lon="-0.01958">
        <ele>93.570312</ele>
      </trkpt>
      <trkpt lat="44.79876" lon="-0.01933">
        <ele>94.03125</ele>
      </trkpt>
      <trkpt lat="44.79778" lon="-0.01968">
        <ele>95.9375</ele>
      </trkpt>
      <trkpt lat="44.79758" lon="-0.01903">
        <ele>96.496094</ele>
      </trkpt>
      <trkpt lat="44.79741" lon="-0.01855">
        <ele>97.0625</ele>
      </trkpt>
      <trkpt lat="44.79711" lon="-0.01719">
        <ele>98.835938</ele>
      </trkpt>
      <trkpt lat="44.79698" lon="-0.0166">
        <ele>98.46875</ele>
      </trkpt>
      <trkpt lat="44.79684" lon="-0.01603">
        <ele>98.882812</ele>
      </trkpt>
      <trkpt lat="44.79679" lon="-0.01581">
        <ele>98.710938</ele>
      </trkpt>
      <trkpt lat="44.79687" lon="-0.0156">
        <ele>98.980469</ele>
      </trkpt>
      <trkpt lat="44.79696" lon="-0.01546">
        <ele>99.304688</ele>
      </trkpt>
      <trkpt lat="44.79709" lon="-0.01542">
        <ele>99.777344</ele>
      </trkpt>
      <trkpt lat="44.79709" lon="-0.01515">
        <ele>99.789062</ele>
      </trkpt>
      <trkpt lat="44.79708" lon="-0.01504">
        <ele>99.761719</ele>
      </trkpt>
      <trkpt lat="44.79733" lon="-0.01476">
        <ele>100.132812</ele>
      </trkpt>
      <trkpt lat="44.79741" lon="-0.01458">
        <ele>100.34375</ele>
      </trkpt>
      <trkpt lat="44.79734" lon="-0.0142">
        <ele>100.488281</ele>
      </trkpt>
      <trkpt lat="44.79703" lon="-0.01356">
        <ele>100.140625</ele>
      </trkpt>
      <trkpt lat="44.79669" lon="-0.01249">
        <ele>102.292969</ele>
      </trkpt>
      <trkpt lat="44.79657" lon="-0.01253">
        <ele>101.757812</ele>
      </trkpt>
      <trkpt lat="44.79631" lon="-0.01259">
        <ele>100.609375</ele>
      </trkpt>
      <trkpt lat="44.79599" lon="-0.01267">
        <ele>99.203125</ele>
      </trkpt>
      <trkpt lat="44.79577" lon="-0.01267">
        <ele>98.359375</ele>
      </trkpt>
      <trkpt lat="44.79551" lon="-0.01278">
        <ele>97.054688</ele>
      </trkpt>
      <trkpt lat="44.79546" lon="-0.01268">
        <ele>97.222656</ele>
      </trkpt>
      <trkpt lat="44.79535" lon="-0.01243">
        <ele>97.726562</ele>
      </trkpt>
      <trkpt lat="44.79526" lon="-0.01222">
        <ele>98.191406</ele>
      </trkpt>
      <trkpt lat="44.79487" lon="-0.01118">
        <ele>98.78125</ele>
      </trkpt>
      <trkpt lat="44.79471" lon="-0.01119">
        <ele>98.191406</ele>
      </trkpt>
      <trkpt lat="44.79465" lon="-0.01112">
        <ele>98.003906</ele>
      </trkpt>
      <trkpt lat="44.79447" lon="-0.01019">
        <ele>95.289062</ele>
      </trkpt>
      <trkpt lat="44.79424" lon="-0.00965">
        <ele>92.625</ele>
      </trkpt>
      <trkpt lat="44.79414" lon="-0.00935">
        <ele>91.496094</ele>
      </trkpt>
      <trkpt lat="44.79393" lon="-0.00882">
        <ele>89.164062</ele>
      </trkpt>
      <trkpt lat="44.79385" lon="-0.00851">
        <ele>87.792969</ele>
      </trkpt>
      <trkpt lat="44.79392" lon="-0.0079">
        <ele>87.675781</ele>
      </trkpt>
      <trkpt lat="44.794" lon="-0.00724">
        <ele>90.203125</ele>
      </trkpt>
      <trkpt lat="44.79399" lon="-0.00688">
        <ele>91.492188</ele>
      </trkpt>
      <trkpt lat="44.79373" lon="-0.00609">
        <ele>92.414062</ele>
      </trkpt>
      <trkpt lat="44.79353" lon="-0.0059">
        <ele>91.304688</ele>
      </trkpt>
      <trkpt lat="44.79342" lon="-0.0058">
        <ele>90.664062</ele>
      </trkpt>
      <trkpt lat="44.79335" lon="-0.00542">
        <ele>91.070312</ele>
      </trkpt>
      <trkpt lat="44.79331" lon="-0.00501">
        <ele>92.195312</ele>
      </trkpt>
      <trkpt lat="44.79329" lon="-0.00484">
        <ele>92.695312</ele>
      </trkpt>
      <trkpt lat="44.79303" lon="-0.00487">
        <ele>91.328125</ele>
      </trkpt>
      <trkpt lat="44.79282" lon="-0.00482">
        <ele>90.460938</ele>
      </trkpt>
      <trkpt lat="44.79264" lon="-0.00491">
        <ele>89.355469</ele>
      </trkpt>
      <trkpt lat="44.7924" lon="-0.00494">
        <ele>88.679688</ele>
      </trkpt>
      <trkpt lat="44.79227" lon="-0.0049">
        <ele>88.601562</ele>
      </trkpt>
      <trkpt lat="44.79217" lon="-0.00485">
        <ele>88.554688</ele>
      </trkpt>
      <trkpt lat="44.79206" lon="-0.00492">
        <ele>87.8125</ele>
      </trkpt>
      <trkpt lat="44.79206" lon="-0.00542">
        <ele>86.222656</ele>
      </trkpt>
      <trkpt lat="44.79206" lon="-0.00577">
        <ele>85.898438</ele>
      </trkpt>
      <trkpt lat="44.79198" lon="-0.00588">
        <ele>85.871094</ele>
      </trkpt>
      <trkpt lat="44.79198" lon="-0.00682">
        <ele>85.035156</ele>
      </trkpt>
      <trkpt lat="44.792" lon="-0.0073">
        <ele>84.085938</ele>
      </trkpt>
      <trkpt lat="44.79182" lon="-0.0078">
        <ele>82.964844</ele>
      </trkpt>
      <trkpt lat="44.79182" lon="-0.00822">
        <ele>82.519531</ele>
      </trkpt>
      <trkpt lat="44.79168" lon="-0.00856">
        <ele>81.792969</ele>
      </trkpt>
      <trkpt lat="44.79154" lon="-0.00879">
        <ele>81.078125</ele>
      </trkpt>
      <trkpt lat="44.79144" lon="-0.00897">
        <ele>80.664062</ele>
      </trkpt>
      <trkpt lat="44.79137" lon="-0.00924">
        <ele>80.320312</ele>
      </trkpt>
      <trkpt lat="44.79096" lon="-0.01071">
        <ele>78.984375</ele>
      </trkpt>
      <trkpt lat="44.79104" lon="-0.01141">
        <ele>81.519531</ele>
      </trkpt>
      <trkpt lat="44.79015" lon="-0.01213">
        <ele>78.503906</ele>
      </trkpt>
      <trkpt lat="44.78977" lon="-0.01236">
        <ele>76.183594</ele>
      </trkpt>
      <trkpt lat="44.78975" lon="-0.01294">
        <ele>75.703125</ele>
      </trkpt>
      <trkpt lat="44.79002" lon="-0.01423">
        <ele>73.605469</ele>
      </trkpt>
      <trkpt lat="44.79022" lon="-0.01479">
        <ele>71.945312</ele>
      </trkpt>
      <trkpt lat="44.79091" lon="-0.01543">
        <ele>72.320312</ele>
      </trkpt>
      <trkpt lat="44.79119" lon="-0.01593">
        <ele>72.222656</ele>
      </trkpt>
      <trkpt lat="44.79148" lon="-0.01685">
        <ele>69.707031</ele>
      </trkpt>
      <trkpt lat="44.79165" lon="-0.01743">
        <ele>70.609375</ele>
      </trkpt>
      <trkpt lat="44.79091" lon="-0.01787">
        <ele>67.417969</ele>
      </trkpt>
      <trkpt lat="44.79057" lon="-0.0181">
        <ele>65.558594</ele>
      </trkpt>
      <trkpt lat="44.79048" lon="-0.01848">
        <ele>64.667969</ele>
      </trkpt>
      <trkpt lat="44.79055" lon="-0.01867">
        <ele>64.746094</ele>
      </trkpt>
      <trkpt lat="44.79104" lon="-0.01904">
        <ele>66.410156</ele>
      </trkpt>
      <trkpt lat="44.79136" lon="-0.01969">
        <ele>65.84375</ele>
      </trkpt>
      <trkpt lat="44.79146" lon="-0.02005">
        <ele>65.78125</ele>
      </trkpt>
      <trkpt lat="44.79162" lon="-0.02077">
        <ele>68.058594</ele>
      </trkpt>
      <trkpt lat="44.7918" lon="-0.02138">
        <ele>66.464844</ele>
      </trkpt>
      <trkpt lat="44.79201" lon="-0.02216">
        <ele>55.304688</ele>
      </trkpt>
      <trkpt lat="44.79242" lon="-0.02197">
        <ele>55.617188</ele>
      </trkpt>
      <trkpt lat="44.79237" lon="-0.02224">
        <ele>51.582031</ele>
      </trkpt>
      <trkpt lat="44.79322" lon="-0.02205">
        <ele>54.25</ele>
      </trkpt>
      <trkpt lat="44.79371" lon="-0.02176">
        <ele>59.40625</ele>
      </trkpt>
      <trkpt lat="44.79388" lon="-0.02189">
        <ele>60.523438</ele>
      </trkpt>
      <trkpt lat="44.79419" lon="-0.0213">
        <ele>66.027344</ele>
      </trkpt>
      <trkpt lat="44.79406" lon="-0.0208">
        <ele>70.773438</ele>
      </trkpt>
      <trkpt lat="44.79485" lon="-0.02079">
        <ele>77.761719</ele>
      </trkpt>
      <trkpt lat="44.79537" lon="-0.02174">
        <ele>77.914062</ele>
      </trkpt>
      <trkpt lat="44.79579" lon="-0.02235">
        <ele>79.828125</ele>
      </trkpt>
      <trkpt lat="44.79598" lon="-0.02276">
        <ele>81.550781</ele>
      </trkpt>
      <trkpt lat="44.79583" lon="-0.02305">
        <ele>81.371094</ele>
      </trkpt>
      <trkpt lat="44.79512" lon="-0.02338">
        <ele>79.777344</ele>
      </trkpt>
      <trkpt lat="44.7949" lon="-0.02347">
        <ele>79.109375</ele>
      </trkpt>
      <trkpt lat="44.79543" lon="-0.02523">
        <ele>81.210938</ele>
      </trkpt>
      <trkpt lat="44.79577" lon="-0.02662">
        <ele>83.492188</ele>
      </trkpt>
      <trkpt lat="44.79565" lon="-0.02822">
        <ele>80.988281</ele>
      </trkpt>
      <trkpt lat="44.79579" lon="-0.02863">
        <ele>80.34375</ele>
      </trkpt>
      <trkpt lat="44.79593" lon="-0.02888">
        <ele>80.84375</ele>
      </trkpt>
      <trkpt lat="44.796" lon="-0.02919">
        <ele>81.4375</ele>
      </trkpt>
      <trkpt lat="44.79601" lon="-0.02965">
        <ele>81.996094</ele>
      </trkpt>
      <trkpt lat="44.79598" lon="-0.02999">
        <ele>82.109375</ele>
      </trkpt>
      <trkpt lat="44.79592" lon="-0.03032">
        <ele>82.121094</ele>
      </trkpt>
      <trkpt lat="44.7959" lon="-0.03069">
        <ele>82.371094</ele>
      </trkpt>
      <trkpt lat="44.79591" lon="-0.03099">
        <ele>82.4375</ele>
      </trkpt>
      <trkpt lat="44.79597" lon="-0.03109">
        <ele>83.082031</ele>
      </trkpt>
      <trkpt lat="44.79595" lon="-0.03129">
        <ele>82.351562</ele>
      </trkpt>
      <trkpt lat="44.79603" lon="-0.03177">
        <ele>82.890625</ele>
      </trkpt>
      <trkpt lat="44.79603" lon="-0.03218">
        <ele>82.910156</ele>
      </trkpt>
      <trkpt lat="44.79602" lon="-0.03228">
        <ele>82.472656</ele>
      </trkpt>
      <trkpt lat="44.79599" lon="-0.03256">
        <ele>81.710938</ele>
      </trkpt>
      <trkpt lat="44.796" lon="-0.03303">
        <ele>81.117188</ele>
      </trkpt>
      <trkpt lat="44.79606" lon="-0.03354">
        <ele>79.921875</ele>
      </trkpt>
      <trkpt lat="44.79622" lon="-0.03388">
        <ele>79.234375</ele>
      </trkpt>
      <trkpt lat="44.79649" lon="-0.03406">
        <ele>80.617188</ele>
      </trkpt>
      <trkpt lat="44.79679" lon="-0.03395">
        <ele>83.28125</ele>
      </trkpt>
      <trkpt lat="44.79698" lon="-0.03391">
        <ele>84.691406</ele>
      </trkpt>
      <trkpt lat="44.79707" lon="-0.03415">
        <ele>84.878906</ele>
      </trkpt>
      <trkpt lat="44.79715" lon="-0.03435">
        <ele>85.128906</ele>
      </trkpt>
      <trkpt lat="44.79721" lon="-0.03465">
        <ele>85.492188</ele>
      </trkpt>
      <trkpt lat="44.79728" lon="-0.03488">
        <ele>85.710938</ele>
      </trkpt>
      <trkpt lat="44.79737" lon="-0.03517">
        <ele>85.398438</ele>
      </trkpt>
      <trkpt lat="44.79738" lon="-0.03525">
        <ele>85.304688</ele>
      </trkpt>
      <trkpt lat="44.7974" lon="-0.03541">
        <ele>85.125</ele>
      </trkpt>
      <trkpt lat="44.79706" lon="-0.03582">
        <ele>83.898438</ele>
      </trkpt>
      <trkpt lat="44.79703" lon="-0.03597">
        <ele>83.535156</ele>
      </trkpt>
      <trkpt lat="44.79694" lon="-0.03629">
        <ele>82.511719</ele>
      </trkpt>
      <trkpt lat="44.79688" lon="-0.03646">
        <ele>81.863281</ele>
      </trkpt>
      <trkpt lat="44.79697" lon="-0.03676">
        <ele>81.957031</ele>
      </trkpt>
      <trkpt lat="44.79703" lon="-0.03702">
        <ele>81.953125</ele>
      </trkpt>
      <trkpt lat="44.79718" lon="-0.03742">
        <ele>81.476562</ele>
      </trkpt>
      <trkpt lat="44.79726" lon="-0.03824">
        <ele>79.5625</ele>
      </trkpt>
      <trkpt lat="44.79728" lon="-0.03878">
        <ele>78.460938</ele>
      </trkpt>
      <trkpt lat="44.79725" lon="-0.03885">
        <ele>78.511719</ele>
      </trkpt>
      <trkpt lat="44.79724" lon="-0.03889">
        <ele>78.40625</ele>
      </trkpt>
      <trkpt lat="44.79721" lon="-0.03915">
        <ele>77.703125</ele>
      </trkpt>
      <trkpt lat="44.79721" lon="-0.03919">
        <ele>77.578125</ele>
      </trkpt>
      <trkpt lat="44.79722" lon="-0.0393">
        <ele>77.140625</ele>
      </trkpt>
      <trkpt lat="44.79721" lon="-0.03934">
        <ele>77.070312</ele>
      </trkpt>
      <trkpt lat="44.79717" lon="-0.03946">
        <ele>76.796875</ele>
      </trkpt>
      <trkpt lat="44.79719" lon="-0.03949">
        <ele>76.632812</ele>
      </trkpt>
      <trkpt lat="44.79722" lon="-0.03961">
        <ele>76.070312</ele>
      </trkpt>
      <trkpt lat="44.79723" lon="-0.03999">
        <ele>74.660156</ele>
      </trkpt>
      <trkpt lat="44.79719" lon="-0.04011">
        <ele>74.429688</ele>
      </trkpt>
      <trkpt lat="44.79719" lon="-0.0404">
        <ele>73.425781</ele>
      </trkpt>
      <trkpt lat="44.79711" lon="-0.04059">
        <ele>72.386719</ele>
      </trkpt>
      <trkpt lat="44.79704" lon="-0.04087">
        <ele>70.707031</ele>
      </trkpt>
      <trkpt lat="44.79697" lon="-0.04097">
        <ele>69.480469</ele>
      </trkpt>
      <trkpt lat="44.79696" lon="-0.04102">
        <ele>69.195312</ele>
      </trkpt>
      <trkpt lat="44.79696" lon="-0.04121">
        <ele>68.304688</ele>
      </trkpt>
      <trkpt lat="44.79697" lon="-0.04125">
        <ele>68.164062</ele>
      </trkpt>
      <trkpt lat="44.79702" lon="-0.0414">
        <ele>68.351562</ele>
      </trkpt>
      <trkpt lat="44.79706" lon="-0.04164">
        <ele>67.953125</ele>
      </trkpt>
      <trkpt lat="44.79713" lon="-0.0418">
        <ele>68.210938</ele>
      </trkpt>
      <trkpt lat="44.79721" lon="-0.04185">
        <ele>68.074219</ele>
      </trkpt>
      <trkpt lat="44.79721" lon="-0.04197">
        <ele>67.027344</ele>
      </trkpt>
      <trkpt lat="44.79726" lon="-0.04227">
        <ele>64.359375</ele>
      </trkpt>
      <trkpt lat="44.79729" lon="-0.04239">
        <ele>63.199219</ele>
      </trkpt>
      <trkpt lat="44.79748" lon="-0.04283">
        <ele>58.035156</ele>
      </trkpt>
      <trkpt lat="44.7975" lon="-0.04287">
        <ele>57.390625</ele>
      </trkpt>
      <trkpt lat="44.79763" lon="-0.04303">
        <ele>54.519531</ele>
      </trkpt>
      <trkpt lat="44.79778" lon="-0.04307">
        <ele>52.164062</ele>
      </trkpt>
      <trkpt lat="44.79783" lon="-0.04296">
        <ele>53.265625</ele>
      </trkpt>
      <trkpt lat="44.79794" lon="-0.0429">
        <ele>52.085938</ele>
      </trkpt>
      <trkpt lat="44.79804" lon="-0.04276">
        <ele>52.109375</ele>
      </trkpt>
      <trkpt lat="44.79806" lon="-0.04266">
        <ele>52.515625</ele>
      </trkpt>
      <trkpt lat="44.79816" lon="-0.04246">
        <ele>52.046875</ele>
      </trkpt>
      <trkpt lat="44.79816" lon="-0.0422">
        <ele>54.578125</ele>
      </trkpt>
      <trkpt lat="44.79818" lon="-0.04212">
        <ele>54.464844</ele>
      </trkpt>
      <trkpt lat="44.79817" lon="-0.04186">
        <ele>56.148438</ele>
      </trkpt>
      <trkpt lat="44.79821" lon="-0.04153">
        <ele>56.863281</ele>
      </trkpt>
      <trkpt lat="44.79816" lon="-0.0414">
        <ele>58.742188</ele>
      </trkpt>
      <trkpt lat="44.79813" lon="-0.04127">
        <ele>60.257812</ele>
      </trkpt>
      <trkpt lat="44.79818" lon="-0.04107">
        <ele>60.179688</ele>
      </trkpt>
      <trkpt lat="44.79821" lon="-0.04085">
        <ele>61.316406</ele>
      </trkpt>
      <trkpt lat="44.79829" lon="-0.04068">
        <ele>60.816406</ele>
      </trkpt>
      <trkpt lat="44.79838" lon="-0.04048">
        <ele>60.0625</ele>
      </trkpt>
      <trkpt lat="44.79846" lon="-0.04018">
        <ele>59.59375</ele>
      </trkpt>
      <trkpt lat="44.79847" lon="-0.04001">
        <ele>60.070312</ele>
      </trkpt>
      <trkpt lat="44.79846" lon="-0.03985">
        <ele>61.039062</ele>
      </trkpt>
      <trkpt lat="44.79854" lon="-0.03961">
        <ele>60.0625</ele>
      </trkpt>
      <trkpt lat="44.79858" lon="-0.03927">
        <ele>60.585938</ele>
      </trkpt>
      <trkpt lat="44.79864" lon="-0.03883">
        <ele>61.324219</ele>
      </trkpt>
      <trkpt lat="44.79876" lon="-0.03852">
        <ele>60.664062</ele>
      </trkpt>
      <trkpt lat="44.79881" lon="-0.03833">
        <ele>60.953125</ele>
      </trkpt>
      <trkpt lat="44.79884" lon="-0.03816">
        <ele>61.609375</ele>
      </trkpt>
      <trkpt lat="44.79883" lon="-0.03795">
        <ele>63.273438</ele>
      </trkpt>
      <trkpt lat="44.79882" lon="-0.03783">
        <ele>64.34375</ele>
      </trkpt>
      <trkpt lat="44.79886" lon="-0.03769">
        <ele>64.925781</ele>
      </trkpt>
      <trkpt lat="44.79883" lon="-0.03753">
        <ele>67.503906</ele>
      </trkpt>
      <trkpt lat="44.79876" lon="-0.03743">
        <ele>69.742188</ele>
      </trkpt>
      <trkpt lat="44.79872" lon="-0.03729">
        <ele>71.835938</ele>
      </trkpt>
      <trkpt lat="44.79848" lon="-0.03693">
        <ele>76.359375</ele>
      </trkpt>
      <trkpt lat="44.79835" lon="-0.03676">
        <ele>78.046875</ele>
      </trkpt>
      <trkpt lat="44.79839" lon="-0.03661">
        <ele>78.421875</ele>
      </trkpt>
      <trkpt lat="44.79902" lon="-0.03619">
        <ele>76.046875</ele>
      </trkpt>
      <trkpt lat="44.79909" lon="-0.03625">
        <ele>74.710938</ele>
      </trkpt>
      <trkpt lat="44.79919" lon="-0.03607">
        <ele>75.078125</ele>
      </trkpt>
      <trkpt lat="44.79936" lon="-0.03591">
        <ele>74.410156</ele>
      </trkpt>
      <trkpt lat="44.79956" lon="-0.03576">
        <ele>74.007812</ele>
      </trkpt>
      <trkpt lat="44.79975" lon="-0.03562">
        <ele>74.433594</ele>
      </trkpt>
      <trkpt lat="44.79996" lon="-0.03541">
        <ele>76.214844</ele>
      </trkpt>
      <trkpt lat="44.80018" lon="-0.03528">
        <ele>78.171875</ele>
      </trkpt>
      <trkpt lat="44.80044" lon="-0.03514">
        <ele>80.378906</ele>
      </trkpt>
      <trkpt lat="44.80051" lon="-0.03535">
        <ele>78.769531</ele>
      </trkpt>
      <trkpt lat="44.80069" lon="-0.0359">
        <ele>74.917969</ele>
      </trkpt>
      <trkpt lat="44.80079" lon="-0.0364">
        <ele>71.566406</ele>
      </trkpt>
      <trkpt lat="44.80087" lon="-0.0366">
        <ele>70.976562</ele>
      </trkpt>
      <trkpt lat="44.80103" lon="-0.03679">
        <ele>72.582031</ele>
      </trkpt>
      <trkpt lat="44.80105" lon="-0.0368">
        <ele>72.867188</ele>
      </trkpt>
      <trkpt lat="44.80117" lon="-0.03693">
        <ele>73.789062</ele>
      </trkpt>
      <trkpt lat="44.80119" lon="-0.03695">
        <ele>74.019531</ele>
      </trkpt>
      <trkpt lat="44.80132" lon="-0.0371">
        <ele>75.101562</ele>
      </trkpt>
      <trkpt lat="44.80132" lon="-0.03714">
        <ele>75.15625</ele>
      </trkpt>
      <trkpt lat="44.80137" lon="-0.03725">
        <ele>75.589844</ele>
      </trkpt>
      <trkpt lat="44.80141" lon="-0.03741">
        <ele>76.128906</ele>
      </trkpt>
      <trkpt lat="44.80138" lon="-0.03766">
        <ele>75.984375</ele>
      </trkpt>
      <trkpt lat="44.80136" lon="-0.0378">
        <ele>75.949219</ele>
      </trkpt>
      <trkpt lat="44.80147" lon="-0.03798">
        <ele>77.058594</ele>
      </trkpt>
      <trkpt lat="44.80158" lon="-0.03815">
        <ele>77.917969</ele>
      </trkpt>
      <trkpt lat="44.80165" lon="-0.03842">
        <ele>77.855469</ele>
      </trkpt>
      <trkpt lat="44.80172" lon="-0.03875">
        <ele>77.070312</ele>
      </trkpt>
      <trkpt lat="44.80181" lon="-0.03912">
        <ele>76.828125</ele>
      </trkpt>
      <trkpt lat="44.80194" lon="-0.03961">
        <ele>76.152344</ele>
      </trkpt>
      <trkpt lat="44.80201" lon="-0.03997">
        <ele>75.492188</ele>
      </trkpt>
      <trkpt lat="44.80204" lon="-0.04023">
        <ele>74.726562</ele>
      </trkpt>
      <trkpt lat="44.80212" lon="-0.04044">
        <ele>74.234375</ele>
      </trkpt>
      <trkpt lat="44.8021" lon="-0.04056">
        <ele>73.660156</ele>
      </trkpt>
      <trkpt lat="44.80211" lon="-0.0406">
        <ele>73.46875</ele>
      </trkpt>
      <trkpt lat="44.80212" lon="-0.04064">
        <ele>73.300781</ele>
      </trkpt>
      <trkpt lat="44.80224" lon="-0.04098">
        <ele>71.449219</ele>
      </trkpt>
      <trkpt lat="44.80235" lon="-0.04125">
        <ele>68.363281</ele>
      </trkpt>
      <trkpt lat="44.8025" lon="-0.04146">
        <ele>65.429688</ele>
      </trkpt>
      <trkpt lat="44.80263" lon="-0.04153">
        <ele>64.414062</ele>
      </trkpt>
      <trkpt lat="44.80275" lon="-0.04144">
        <ele>65.835938</ele>
      </trkpt>
      <trkpt lat="44.80277" lon="-0.04145">
        <ele>65.738281</ele>
      </trkpt>
      <trkpt lat="44.80266" lon="-0.04163">
        <ele>63.210938</ele>
      </trkpt>
      <trkpt lat="44.80264" lon="-0.04172">
        <ele>61.609375</ele>
      </trkpt>
      <trkpt lat="44.80261" lon="-0.04179">
        <ele>60.386719</ele>
      </trkpt>
      <trkpt lat="44.80262" lon="-0.04185">
        <ele>59.203125</ele>
      </trkpt>
      <trkpt lat="44.80276" lon="-0.04186">
        <ele>59.402344</ele>
      </trkpt>
      <trkpt lat="44.80283" lon="-0.042">
        <ele>57.300781</ele>
      </trkpt>
      <trkpt lat="44.80292" lon="-0.04199">
        <ele>58.121094</ele>
      </trkpt>
      <trkpt lat="44.80293" lon="-0.04191">
        <ele>59.65625</ele>
      </trkpt>
      <trkpt lat="44.80307" lon="-0.04182">
        <ele>62.054688</ele>
      </trkpt>
      <trkpt lat="44.80316" lon="-0.0418">
        <ele>62.882812</ele>
      </trkpt>
      <trkpt lat="44.80337" lon="-0.04187">
        <ele>62.164062</ele>
      </trkpt>
      <trkpt lat="44.8034" lon="-0.04189">
        <ele>61.851562</ele>
      </trkpt>
      <trkpt lat="44.80361" lon="-0.04199">
        <ele>60.019531</ele>
      </trkpt>
      <trkpt lat="44.80363" lon="-0.04202">
        <ele>59.371094</ele>
      </trkpt>
      <trkpt lat="44.80378" lon="-0.04218">
        <ele>56.390625</ele>
      </trkpt>
      <trkpt lat="44.80381" lon="-0.0422">
        <ele>55.917969</ele>
      </trkpt>
      <trkpt lat="44.80392" lon="-0.04217">
        <ele>54.210938</ele>
      </trkpt>
      <trkpt lat="44.80402" lon="-0.04211">
        <ele>53.136719</ele>
      </trkpt>
      <trkpt lat="44.80402" lon="-0.04203">
        <ele>54.558594</ele>
      </trkpt>
      <trkpt lat="44.80416" lon="-0.04192">
        <ele>53.8125</ele>
      </trkpt>
      <trkpt lat="44.80421" lon="-0.04186">
        <ele>53.835938</ele>
      </trkpt>
      <trkpt lat="44.80428" lon="-0.04186">
        <ele>52.542969</ele>
      </trkpt>
      <trkpt lat="44.80433" lon="-0.04176">
        <ele>53.472656</ele>
      </trkpt>
      <trkpt lat="44.8046" lon="-0.04156">
        <ele>50</ele>
      </trkpt>
      <trkpt lat="44.80472" lon="-0.04128">
        <ele>50.820312</ele>
      </trkpt>
      <trkpt lat="44.80481" lon="-0.04115">
        <ele>50.710938</ele>
      </trkpt>
      <trkpt lat="44.80471" lon="-0.04099">
        <ele>55.503906</ele>
      </trkpt>
      <trkpt lat="44.80473" lon="-0.04091">
        <ele>56.105469</ele>
      </trkpt>
      <trkpt lat="44.80477" lon="-0.04083">
        <ele>56.242188</ele>
      </trkpt>
      <trkpt lat="44.80479" lon="-0.04074">
        <ele>57.300781</ele>
      </trkpt>
      <trkpt lat="44.80483" lon="-0.04069">
        <ele>57.171875</ele>
      </trkpt>
      <trkpt lat="44.80489" lon="-0.04057">
        <ele>57.976562</ele>
      </trkpt>
      <trkpt lat="44.80501" lon="-0.04051">
        <ele>56.410156</ele>
      </trkpt>
      <trkpt lat="44.80518" lon="-0.04046">
        <ele>53.269531</ele>
      </trkpt>
      <trkpt lat="44.80527" lon="-0.04033">
        <ele>53.039062</ele>
      </trkpt>
      <trkpt lat="44.80537" lon="-0.04019">
        <ele>52.65625</ele>
      </trkpt>
      <trkpt lat="44.80544" lon="-0.03999">
        <ele>53.753906</ele>
      </trkpt>
      <trkpt lat="44.80545" lon="-0.03988">
        <ele>55.425781</ele>
      </trkpt>
      <trkpt lat="44.8055" lon="-0.03975">
        <ele>55.992188</ele>
      </trkpt>
      <trkpt lat="44.80548" lon="-0.03963">
        <ele>58.507812</ele>
      </trkpt>
      <trkpt lat="44.8055" lon="-0.03937">
        <ele>61.773438</ele>
      </trkpt>
      <trkpt lat="44.80556" lon="-0.03908">
        <ele>63.390625</ele>
      </trkpt>
      <trkpt lat="44.8056" lon="-0.03868">
        <ele>65.703125</ele>
      </trkpt>
      <trkpt lat="44.8057" lon="-0.0381">
        <ele>67.578125</ele>
      </trkpt>
      <trkpt lat="44.80585" lon="-0.03729">
        <ele>72.140625</ele>
      </trkpt>
      <trkpt lat="44.80588" lon="-0.03708">
        <ele>73.101562</ele>
      </trkpt>
      <trkpt lat="44.80607" lon="-0.03649">
        <ele>71.589844</ele>
      </trkpt>
      <trkpt lat="44.80609" lon="-0.03645">
        <ele>71.109375</ele>
      </trkpt>
      <trkpt lat="44.80612" lon="-0.03631">
        <ele>70</ele>
      </trkpt>
      <trkpt lat="44.80612" lon="-0.03598">
        <ele>69.375</ele>
      </trkpt>
      <trkpt lat="44.80613" lon="-0.03592">
        <ele>68.757812</ele>
      </trkpt>
      <trkpt lat="44.80614" lon="-0.03594">
        <ele>68.640625</ele>
      </trkpt>
      <trkpt lat="44.80617" lon="-0.03564">
        <ele>66.832031</ele>
      </trkpt>
      <trkpt lat="44.80623" lon="-0.03546">
        <ele>65.324219</ele>
      </trkpt>
      <trkpt lat="44.8063" lon="-0.03527">
        <ele>64.511719</ele>
      </trkpt>
      <trkpt lat="44.80645" lon="-0.03517">
        <ele>61.578125</ele>
      </trkpt>
      <trkpt lat="44.80661" lon="-0.03499">
        <ele>59.394531</ele>
      </trkpt>
      <trkpt lat="44.80674" lon="-0.03491">
        <ele>56.328125</ele>
      </trkpt>
      <trkpt lat="44.80678" lon="-0.03479">
        <ele>55.414062</ele>
      </trkpt>
      <trkpt lat="44.80679" lon="-0.03461">
        <ele>55.117188</ele>
      </trkpt>
      <trkpt lat="44.80671" lon="-0.03443">
        <ele>57.535156</ele>
      </trkpt>
      <trkpt lat="44.80665" lon="-0.03429">
        <ele>58.527344</ele>
      </trkpt>
      <trkpt lat="44.8066" lon="-0.03407">
        <ele>58.636719</ele>
      </trkpt>
      <trkpt lat="44.80651" lon="-0.03391">
        <ele>60.132812</ele>
      </trkpt>
      <trkpt lat="44.80645" lon="-0.03378">
        <ele>60.84375</ele>
      </trkpt>
      <trkpt lat="44.80641" lon="-0.0336">
        <ele>60.316406</ele>
      </trkpt>
      <trkpt lat="44.80642" lon="-0.03337">
        <ele>58.40625</ele>
      </trkpt>
      <trkpt lat="44.80644" lon="-0.03318">
        <ele>57.574219</ele>
      </trkpt>
      <trkpt lat="44.80654" lon="-0.03264">
        <ele>57.085938</ele>
      </trkpt>
      <trkpt lat="44.80656" lon="-0.03233">
        <ele>58.769531</ele>
      </trkpt>
      <trkpt lat="44.80657" lon="-0.03229">
        <ele>58.898438</ele>
      </trkpt>
      <trkpt lat="44.80663" lon="-0.03211">
        <ele>59.832031</ele>
      </trkpt>
      <trkpt lat="44.8067" lon="-0.03192">
        <ele>62.066406</ele>
      </trkpt>
      <trkpt lat="44.80681" lon="-0.03183">
        <ele>62.648438</ele>
      </trkpt>
      <trkpt lat="44.80685" lon="-0.03175">
        <ele>63.769531</ele>
      </trkpt>
      <trkpt lat="44.80694" lon="-0.03173">
        <ele>63.503906</ele>
      </trkpt>
      <trkpt lat="44.80687" lon="-0.03152">
        <ele>67.039062</ele>
      </trkpt>
      <trkpt lat="44.80688" lon="-0.03144">
        <ele>68.117188</ele>
      </trkpt>
      <trkpt lat="44.80731" lon="-0.03126">
        <ele>69.445312</ele>
      </trkpt>
      <trkpt lat="44.80765" lon="-0.03122">
        <ele>69.722656</ele>
      </trkpt>
      <trkpt lat="44.80767" lon="-0.03129">
        <ele>68.921875</ele>
      </trkpt>
      <trkpt lat="44.80776" lon="-0.03134">
        <ele>68.046875</ele>
      </trkpt>
      <trkpt lat="44.80778" lon="-0.03167">
        <ele>64.085938</ele>
      </trkpt>
      <trkpt lat="44.8078" lon="-0.0317">
        <ele>63.1875</ele>
      </trkpt>
      <trkpt lat="44.80789" lon="-0.03184">
        <ele>59.710938</ele>
      </trkpt>
      <trkpt lat="44.80803" lon="-0.03191">
        <ele>57.589844</ele>
      </trkpt>
      <trkpt lat="44.80826" lon="-0.03192">
        <ele>56.539062</ele>
      </trkpt>
      <trkpt lat="44.80828" lon="-0.0318">
        <ele>58.761719</ele>
      </trkpt>
      <trkpt lat="44.80831" lon="-0.0317">
        <ele>60.421875</ele>
      </trkpt>
      <trkpt lat="44.80842" lon="-0.03161">
        <ele>60.910156</ele>
      </trkpt>
      <trkpt lat="44.80853" lon="-0.03148">
        <ele>61.414062</ele>
      </trkpt>
      <trkpt lat="44.8087" lon="-0.03148">
        <ele>59.558594</ele>
      </trkpt>
      <trkpt lat="44.80873" lon="-0.03149">
        <ele>59.207031</ele>
      </trkpt>
      <trkpt lat="44.80887" lon="-0.03139">
        <ele>58.46875</ele>
      </trkpt>
      <trkpt lat="44.80904" lon="-0.03134">
        <ele>56.539062</ele>
      </trkpt>
      <trkpt lat="44.8091" lon="-0.03122">
        <ele>56.558594</ele>
      </trkpt>
      <trkpt lat="44.80912" lon="-0.03108">
        <ele>56.898438</ele>
      </trkpt>
      <trkpt lat="44.80911" lon="-0.03092">
        <ele>57.183594</ele>
      </trkpt>
      <trkpt lat="44.80899" lon="-0.0308">
        <ele>59.160156</ele>
      </trkpt>
      <trkpt lat="44.80886" lon="-0.03078">
        <ele>61.1875</ele>
      </trkpt>
      <trkpt lat="44.80871" lon="-0.03072">
        <ele>63.136719</ele>
      </trkpt>
      <trkpt lat="44.80857" lon="-0.03072">
        <ele>64.773438</ele>
      </trkpt>
      <trkpt lat="44.80846" lon="-0.03079">
        <ele>66.074219</ele>
      </trkpt>
      <trkpt lat="44.80843" lon="-0.03078">
        <ele>66.417969</ele>
      </trkpt>
      <trkpt lat="44.80845" lon="-0.03064">
        <ele>65.992188</ele>
      </trkpt>
      <trkpt lat="44.80855" lon="-0.03054">
        <ele>64.839844</ele>
      </trkpt>
      <trkpt lat="44.80885" lon="-0.03059">
        <ele>61.339844</ele>
      </trkpt>
      <trkpt lat="44.80898" lon="-0.03062">
        <ele>59.269531</ele>
      </trkpt>
      <trkpt lat="44.8092" lon="-0.03079">
        <ele>55.746094</ele>
      </trkpt>
      <trkpt lat="44.80926" lon="-0.0308">
        <ele>54.699219</ele>
      </trkpt>
      <trkpt lat="44.80916" lon="-0.03014">
        <ele>55.058594</ele>
      </trkpt>
      <trkpt lat="44.80914" lon="-0.02996">
        <ele>54.765625</ele>
      </trkpt>
      <trkpt lat="44.80908" lon="-0.02957">
        <ele>53.730469</ele>
      </trkpt>
      <trkpt lat="44.80897" lon="-0.02862">
        <ele>48.679688</ele>
      </trkpt>
      <trkpt lat="44.80895" lon="-0.02833">
        <ele>46.371094</ele>
      </trkpt>
      <trkpt lat="44.8089" lon="-0.02728">
        <ele>44.292969</ele>
      </trkpt>
      <trkpt lat="44.80893" lon="-0.02702">
        <ele>43.480469</ele>
      </trkpt>
      <trkpt lat="44.80903" lon="-0.02702">
        <ele>43.570312</ele>
      </trkpt>
      <trkpt lat="44.80953" lon="-0.02732">
        <ele>44.742188</ele>
      </trkpt>
      <trkpt lat="44.8098" lon="-0.02755">
        <ele>45.035156</ele>
      </trkpt>
      <trkpt lat="44.81008" lon="-0.02756">
        <ele>44.832031</ele>
      </trkpt>
      <trkpt lat="44.81066" lon="-0.02749">
        <ele>43.222656</ele>
      </trkpt>
      <trkpt lat="44.81069" lon="-0.02749">
        <ele>43.039062</ele>
      </trkpt>
      <trkpt lat="44.81083" lon="-0.02754">
        <ele>42.714844</ele>
      </trkpt>
      <trkpt lat="44.81108" lon="-0.02806">
        <ele>43.578125</ele>
      </trkpt>
      <trkpt lat="44.81119" lon="-0.02829">
        <ele>44.207031</ele>
      </trkpt>
      <trkpt lat="44.81129" lon="-0.02832">
        <ele>44.464844</ele>
      </trkpt>
      <trkpt lat="44.81225" lon="-0.02802">
        <ele>45.070312</ele>
      </trkpt>
      <trkpt lat="44.81254" lon="-0.02797">
        <ele>43.789062</ele>
      </trkpt>
      <trkpt lat="44.81272" lon="-0.02803">
        <ele>43.679688</ele>
      </trkpt>
      <trkpt lat="44.8128" lon="-0.02798">
        <ele>42.515625</ele>
      </trkpt>
      <trkpt lat="44.81259" lon="-0.0279">
        <ele>42.949219</ele>
      </trkpt>
      <trkpt lat="44.81256" lon="-0.02776">
        <ele>41.777344</ele>
      </trkpt>
      <trkpt lat="44.8126" lon="-0.02725">
        <ele>36.054688</ele>
      </trkpt>
      <trkpt lat="44.81263" lon="-0.02695">
        <ele>34.71875</ele>
      </trkpt>
      <trkpt lat="44.81263" lon="-0.02675">
        <ele>34.242188</ele>
      </trkpt>
      <trkpt lat="44.81264" lon="-0.02663">
        <ele>34.125</ele>
      </trkpt>
      <trkpt lat="44.8127" lon="-0.02674">
        <ele>34.164062</ele>
      </trkpt>
      <trkpt lat="44.81275" lon="-0.02677">
        <ele>34.167969</ele>
      </trkpt>
      <trkpt lat="44.81294" lon="-0.02674">
        <ele>34.023438</ele>
      </trkpt>
      <trkpt lat="44.81316" lon="-0.02676">
        <ele>33.871094</ele>
      </trkpt>
      <trkpt lat="44.8132" lon="-0.02667">
        <ele>33.96875</ele>
      </trkpt>
      <trkpt lat="44.81327" lon="-0.02642">
        <ele>36.597656</ele>
      </trkpt>
      <trkpt lat="44.81331" lon="-0.02633">
        <ele>37.949219</ele>
      </trkpt>
      <trkpt lat="44.8133" lon="-0.02606">
        <ele>41.242188</ele>
      </trkpt>
      <trkpt lat="44.81336" lon="-0.02583">
        <ele>45.523438</ele>
      </trkpt>
      <trkpt lat="44.81335" lon="-0.02567">
        <ele>48.070312</ele>
      </trkpt>
      <trkpt lat="44.81336" lon="-0.02537">
        <ele>52.078125</ele>
      </trkpt>
      <trkpt lat="44.81331" lon="-0.02529">
        <ele>52.660156</ele>
      </trkpt>
      <trkpt lat="44.81315" lon="-0.0253">
        <ele>50.4375</ele>
      </trkpt>
      <trkpt lat="44.81307" lon="-0.02524">
        <ele>49.800781</ele>
      </trkpt>
      <trkpt lat="44.81271" lon="-0.02528">
        <ele>43.574219</ele>
      </trkpt>
      <trkpt lat="44.8126" lon="-0.02522">
        <ele>43.984375</ele>
      </trkpt>
      <trkpt lat="44.81251" lon="-0.02518">
        <ele>44.492188</ele>
      </trkpt>
      <trkpt lat="44.81243" lon="-0.02523">
        <ele>44.105469</ele>
      </trkpt>
      <trkpt lat="44.81233" lon="-0.02519">
        <ele>44.535156</ele>
      </trkpt>
      <trkpt lat="44.81223" lon="-0.0252">
        <ele>44.582031</ele>
      </trkpt>
      <trkpt lat="44.8122" lon="-0.02509">
        <ele>45.777344</ele>
      </trkpt>
      <trkpt lat="44.8122" lon="-0.02479">
        <ele>49.953125</ele>
      </trkpt>
      <trkpt lat="44.81227" lon="-0.02463">
        <ele>52.359375</ele>
      </trkpt>
      <trkpt lat="44.81238" lon="-0.02463">
        <ele>52.035156</ele>
      </trkpt>
      <trkpt lat="44.81246" lon="-0.02445">
        <ele>54.507812</ele>
      </trkpt>
      <trkpt lat="44.81244" lon="-0.02436">
        <ele>55.773438</ele>
      </trkpt>
      <trkpt lat="44.81236" lon="-0.0243">
        <ele>56.875</ele>
      </trkpt>
      <trkpt lat="44.81232" lon="-0.02433">
        <ele>56.632812</ele>
      </trkpt>
      <trkpt lat="44.81226" lon="-0.02432">
        <ele>57.097656</ele>
      </trkpt>
      <trkpt lat="44.81223" lon="-0.02426">
        <ele>58.039062</ele>
      </trkpt>
      <trkpt lat="44.81221" lon="-0.0242">
        <ele>58.992188</ele>
      </trkpt>
      <trkpt lat="44.81221" lon="-0.02413">
        <ele>59.929688</ele>
      </trkpt>
      <trkpt lat="44.81217" lon="-0.02408">
        <ele>60.84375</ele>
      </trkpt>
      <trkpt lat="44.81217" lon="-0.02401">
        <ele>61.800781</ele>
      </trkpt>
      <trkpt lat="44.81224" lon="-0.02401">
        <ele>61.449219</ele>
      </trkpt>
      <trkpt lat="44.81237" lon="-0.02398">
        <ele>61.050781</ele>
      </trkpt>
      <trkpt lat="44.81249" lon="-0.02404">
        <ele>59.527344</ele>
      </trkpt>
      <trkpt lat="44.81264" lon="-0.024">
        <ele>58.976562</ele>
      </trkpt>
      <trkpt lat="44.81271" lon="-0.02392">
        <ele>59.523438</ele>
      </trkpt>
      <trkpt lat="44.8128" lon="-0.02382">
        <ele>59.984375</ele>
      </trkpt>
      <trkpt lat="44.81283" lon="-0.02396">
        <ele>59.003906</ele>
      </trkpt>
      <trkpt lat="44.81282" lon="-0.02415">
        <ele>57.347656</ele>
      </trkpt>
      <trkpt lat="44.81303" lon="-0.02419">
        <ele>57.710938</ele>
      </trkpt>
      <trkpt lat="44.81306" lon="-0.02423">
        <ele>57.601562</ele>
      </trkpt>
      <trkpt lat="44.8131" lon="-0.02427">
        <ele>57.578125</ele>
      </trkpt>
      <trkpt lat="44.81338" lon="-0.0243">
        <ele>58.363281</ele>
      </trkpt>
      <trkpt lat="44.81369" lon="-0.02471">
        <ele>58.582031</ele>
      </trkpt>
      <trkpt lat="44.81399" lon="-0.02505">
        <ele>58.257812</ele>
      </trkpt>
      <trkpt lat="44.81419" lon="-0.02515">
        <ele>57.304688</ele>
      </trkpt>
      <trkpt lat="44.81515" lon="-0.02569">
        <ele>50.882812</ele>
      </trkpt>
      <trkpt lat="44.8152" lon="-0.02569">
        <ele>50.679688</ele>
      </trkpt>
      <trkpt lat="44.81597" lon="-0.02603">
        <ele>46.21875</ele>
      </trkpt>
      <trkpt lat="44.81649" lon="-0.0263">
        <ele>40.179688</ele>
      </trkpt>
      <trkpt lat="44.81665" lon="-0.02635">
        <ele>38.511719</ele>
      </trkpt>
      <trkpt lat="44.81686" lon="-0.02639">
        <ele>36.410156</ele>
      </trkpt>
      <trkpt lat="44.81718" lon="-0.02651">
        <ele>33.226562</ele>
      </trkpt>
      <trkpt lat="44.81742" lon="-0.02665">
        <ele>30.988281</ele>
      </trkpt>
      <trkpt lat="44.81764" lon="-0.02659">
        <ele>29.613281</ele>
      </trkpt>
      <trkpt lat="44.8177" lon="-0.02647">
        <ele>29.65625</ele>
      </trkpt>
      <trkpt lat="44.81764" lon="-0.0258">
        <ele>31.953125</ele>
      </trkpt>
      <trkpt lat="44.81763" lon="-0.02542">
        <ele>32.363281</ele>
      </trkpt>
      <trkpt lat="44.8177" lon="-0.02509">
        <ele>31.148438</ele>
      </trkpt>
      <trkpt lat="44.81785" lon="-0.02465">
        <ele>29.574219</ele>
      </trkpt>
      <trkpt lat="44.81797" lon="-0.02424">
        <ele>27.664062</ele>
      </trkpt>
      <trkpt lat="44.818" lon="-0.02392">
        <ele>26.082031</ele>
      </trkpt>
      <trkpt lat="44.81801" lon="-0.02383">
        <ele>25.765625</ele>
      </trkpt>
      <trkpt lat="44.81816" lon="-0.02367">
        <ele>24.949219</ele>
      </trkpt>
      <trkpt lat="44.81832" lon="-0.02337">
        <ele>24.191406</ele>
      </trkpt>
      <trkpt lat="44.81841" lon="-0.02306">
        <ele>24.820312</ele>
      </trkpt>
      <trkpt lat="44.81846" lon="-0.02289">
        <ele>25.542969</ele>
      </trkpt>
      <trkpt lat="44.81886" lon="-0.02269">
        <ele>30.734375</ele>
      </trkpt>
      <trkpt lat="44.81914" lon="-0.0227">
        <ele>34.480469</ele>
      </trkpt>
      <trkpt lat="44.81941" lon="-0.02266">
        <ele>37.6875</ele>
      </trkpt>
      <trkpt lat="44.81946" lon="-0.02266">
        <ele>37.648438</ele>
      </trkpt>
      <trkpt lat="44.81969" lon="-0.02244">
        <ele>38.296875</ele>
      </trkpt>
      <trkpt lat="44.81959" lon="-0.02234">
        <ele>39.105469</ele>
      </trkpt>
      <trkpt lat="44.81953" lon="-0.02221">
        <ele>40.101562</ele>
      </trkpt>
      <trkpt lat="44.81942" lon="-0.0222">
        <ele>40.699219</ele>
      </trkpt>
      <trkpt lat="44.81922" lon="-0.02209">
        <ele>40.652344</ele>
      </trkpt>
      <trkpt lat="44.81902" lon="-0.02179">
        <ele>42.035156</ele>
      </trkpt>
      <trkpt lat="44.81894" lon="-0.0216">
        <ele>43.847656</ele>
      </trkpt>
      <trkpt lat="44.8188" lon="-0.02136">
        <ele>46.613281</ele>
      </trkpt>
      <trkpt lat="44.81884" lon="-0.02128">
        <ele>47.664062</ele>
      </trkpt>
      <trkpt lat="44.81894" lon="-0.0213">
        <ele>47.101562</ele>
      </trkpt>
      <trkpt lat="44.81911" lon="-0.02104">
        <ele>48.648438</ele>
      </trkpt>
      <trkpt lat="44.8192" lon="-0.02096">
        <ele>48.378906</ele>
      </trkpt>
      <trkpt lat="44.81927" lon="-0.02088">
        <ele>48.097656</ele>
      </trkpt>
      <trkpt lat="44.81941" lon="-0.0209">
        <ele>46.574219</ele>
      </trkpt>
      <trkpt lat="44.81946" lon="-0.02096">
        <ele>45.753906</ele>
      </trkpt>
      <trkpt lat="44.8195" lon="-0.02084">
        <ele>45.339844</ele>
      </trkpt>
      <trkpt lat="44.81943" lon="-0.0207">
        <ele>46.597656</ele>
      </trkpt>
      <trkpt lat="44.81942" lon="-0.02016">
        <ele>47.035156</ele>
      </trkpt>
      <trkpt lat="44.81944" lon="-0.01987">
        <ele>46.742188</ele>
      </trkpt>
      <trkpt lat="44.81932" lon="-0.01937">
        <ele>48.722656</ele>
      </trkpt>
      <trkpt lat="44.81931" lon="-0.01929">
        <ele>48.675781</ele>
      </trkpt>
      <trkpt lat="44.8193" lon="-0.01922">
        <ele>48.695312</ele>
      </trkpt>
      <trkpt lat="44.81934" lon="-0.01913">
        <ele>47.90625</ele>
      </trkpt>
      <trkpt lat="44.81923" lon="-0.01854">
        <ele>48.148438</ele>
      </trkpt>
      <trkpt lat="44.81907" lon="-0.01781">
        <ele>48.378906</ele>
      </trkpt>
      <trkpt lat="44.81898" lon="-0.01757">
        <ele>48.433594</ele>
      </trkpt>
      <trkpt lat="44.81885" lon="-0.01722">
        <ele>47.652344</ele>
      </trkpt>
      <trkpt lat="44.81865" lon="-0.01673">
        <ele>48.265625</ele>
      </trkpt>
      <trkpt lat="44.81839" lon="-0.01645">
        <ele>49.976562</ele>
      </trkpt>
      <trkpt lat="44.81828" lon="-0.01628">
        <ele>49.964844</ele>
      </trkpt>
      <trkpt lat="44.81824" lon="-0.01609">
        <ele>49.046875</ele>
      </trkpt>
      <trkpt lat="44.81825" lon="-0.01593">
        <ele>48.640625</ele>
      </trkpt>
      <trkpt lat="44.81821" lon="-0.01567">
        <ele>48.703125</ele>
      </trkpt>
      <trkpt lat="44.81818" lon="-0.01546">
        <ele>48.710938</ele>
      </trkpt>
      <trkpt lat="44.81808" lon="-0.01512">
        <ele>49.574219</ele>
      </trkpt>
      <trkpt lat="44.81799" lon="-0.01494">
        <ele>50.527344</ele>
      </trkpt>
      <trkpt lat="44.8179" lon="-0.0148">
        <ele>51.78125</ele>
      </trkpt>
      <trkpt lat="44.81785" lon="-0.0147">
        <ele>52.449219</ele>
      </trkpt>
      <trkpt lat="44.81756" lon="-0.01472">
        <ele>54.785156</ele>
      </trkpt>
      <trkpt lat="44.81749" lon="-0.01479">
        <ele>55.402344</ele>
      </trkpt>
      <trkpt lat="44.81753" lon="-0.01493">
        <ele>54.855469</ele>
      </trkpt>
      <trkpt lat="44.81752" lon="-0.01516">
        <ele>55.371094</ele>
      </trkpt>
      <trkpt lat="44.8175" lon="-0.01539">
        <ele>56.316406</ele>
      </trkpt>
      <trkpt lat="44.81757" lon="-0.01559">
        <ele>56.0625</ele>
      </trkpt>
      <trkpt lat="44.81755" lon="-0.01579">
        <ele>57.671875</ele>
      </trkpt>
      <trkpt lat="44.81755" lon="-0.0159">
        <ele>58.351562</ele>
      </trkpt>
      <trkpt lat="44.81754" lon="-0.01614">
        <ele>60.171875</ele>
      </trkpt>
      <trkpt lat="44.81744" lon="-0.01615">
        <ele>62.085938</ele>
      </trkpt>
      <trkpt lat="44.81721" lon="-0.01604">
        <ele>65.238281</ele>
      </trkpt>
      <trkpt lat="44.81707" lon="-0.01601">
        <ele>67</ele>
      </trkpt>
      <trkpt lat="44.81706" lon="-0.01607">
        <ele>67.644531</ele>
      </trkpt>
      <trkpt lat="44.8171" lon="-0.01628">
        <ele>68.617188</ele>
      </trkpt>
      <trkpt lat="44.81713" lon="-0.01644">
        <ele>69.539062</ele>
      </trkpt>
      <trkpt lat="44.81712" lon="-0.01687">
        <ele>72.1875</ele>
      </trkpt>
      <trkpt lat="44.81727" lon="-0.01703">
        <ele>71.425781</ele>
      </trkpt>
      <trkpt lat="44.81729" lon="-0.01711">
        <ele>71.675781</ele>
      </trkpt>
      <trkpt lat="44.8173" lon="-0.01735">
        <ele>72.320312</ele>
      </trkpt>
      <trkpt lat="44.81744" lon="-0.01757">
        <ele>71.460938</ele>
      </trkpt>
      <trkpt lat="44.81766" lon="-0.01789">
        <ele>70.859375</ele>
      </trkpt>
      <trkpt lat="44.81789" lon="-0.01802">
        <ele>68.390625</ele>
      </trkpt>
      <trkpt lat="44.81808" lon="-0.01814">
        <ele>66.640625</ele>
      </trkpt>
      <trkpt lat="44.81812" lon="-0.01822">
        <ele>66.539062</ele>
      </trkpt>
      <trkpt lat="44.81818" lon="-0.01836">
        <ele>66.511719</ele>
      </trkpt>
      <trkpt lat="44.81827" lon="-0.01864">
        <ele>66.160156</ele>
      </trkpt>
      <trkpt lat="44.8185" lon="-0.01872">
        <ele>62.375</ele>
      </trkpt>
      <trkpt lat="44.81876" lon="-0.01877">
        <ele>58.113281</ele>
      </trkpt>
      <trkpt lat="44.8189" lon="-0.01908">
        <ele>56.53125</ele>
      </trkpt>
      <trkpt lat="44.81904" lon="-0.01928">
        <ele>53.972656</ele>
      </trkpt>
      <trkpt lat="44.8191" lon="-0.01961">
        <ele>52.914062</ele>
      </trkpt>
      <trkpt lat="44.81913" lon="-0.01985">
        <ele>52.210938</ele>
      </trkpt>
      <trkpt lat="44.8192" lon="-0.02001">
        <ele>50.886719</ele>
      </trkpt>
      <trkpt lat="44.81914" lon="-0.02028">
        <ele>51.261719</ele>
      </trkpt>
      <trkpt lat="44.81911" lon="-0.02069">
        <ele>50.417969</ele>
      </trkpt>
      <trkpt lat="44.81904" lon="-0.02079">
        <ele>50.539062</ele>
      </trkpt>
      <trkpt lat="44.81894" lon="-0.02084">
        <ele>51.144531</ele>
      </trkpt>
      <trkpt lat="44.81874" lon="-0.0206">
        <ele>54.320312</ele>
      </trkpt>
      <trkpt lat="44.81849" lon="-0.02035">
        <ele>56.085938</ele>
      </trkpt>
      <trkpt lat="44.81842" lon="-0.02021">
        <ele>57.363281</ele>
      </trkpt>
      <trkpt lat="44.81837" lon="-0.02003">
        <ele>59.152344</ele>
      </trkpt>
      <trkpt lat="44.81826" lon="-0.01996">
        <ele>60.210938</ele>
      </trkpt>
      <trkpt lat="44.81816" lon="-0.01975">
        <ele>61.554688</ele>
      </trkpt>
      <trkpt lat="44.81792" lon="-0.01961">
        <ele>61.421875</ele>
      </trkpt>
      <trkpt lat="44.81777" lon="-0.01952">
        <ele>61.550781</ele>
      </trkpt>
      <trkpt lat="44.81766" lon="-0.0193">
        <ele>62.914062</ele>
      </trkpt>
      <trkpt lat="44.81751" lon="-0.01915">
        <ele>62.957031</ele>
      </trkpt>
      <trkpt lat="44.81739" lon="-0.0191">
        <ele>62.136719</ele>
      </trkpt>
      <trkpt lat="44.81722" lon="-0.01895">
        <ele>62.703125</ele>
      </trkpt>
      <trkpt lat="44.81708" lon="-0.01884">
        <ele>62.449219</ele>
      </trkpt>
      <trkpt lat="44.81713" lon="-0.01873">
        <ele>64.714844</ele>
      </trkpt>
      <trkpt lat="44.81713" lon="-0.01845">
        <ele>68.308594</ele>
      </trkpt>
      <trkpt lat="44.81712" lon="-0.01823">
        <ele>70.378906</ele>
      </trkpt>
      <trkpt lat="44.81708" lon="-0.0181">
        <ele>70.90625</ele>
      </trkpt>
      <trkpt lat="44.81709" lon="-0.01803">
        <ele>71.394531</ele>
      </trkpt>
      <trkpt lat="44.81681" lon="-0.01781">
        <ele>72.5625</ele>
      </trkpt>
      <trkpt lat="44.81653" lon="-0.0174">
        <ele>73.363281</ele>
      </trkpt>
      <trkpt lat="44.81631" lon="-0.01696">
        <ele>73.46875</ele>
      </trkpt>
      <trkpt lat="44.81615" lon="-0.01673">
        <ele>73.792969</ele>
      </trkpt>
      <trkpt lat="44.81606" lon="-0.01625">
        <ele>74.664062</ele>
      </trkpt>
      <trkpt lat="44.81605" lon="-0.01605">
        <ele>74.917969</ele>
      </trkpt>
      <trkpt lat="44.81589" lon="-0.01557">
        <ele>74.464844</ele>
      </trkpt>
      <trkpt lat="44.81566" lon="-0.01521">
        <ele>74.878906</ele>
      </trkpt>
      <trkpt lat="44.81539" lon="-0.01466">
        <ele>76.574219</ele>
      </trkpt>
      <trkpt lat="44.81531" lon="-0.01436">
        <ele>77.46875</ele>
      </trkpt>
      <trkpt lat="44.81529" lon="-0.0143">
        <ele>77.675781</ele>
      </trkpt>
      <trkpt lat="44.81519" lon="-0.01394">
        <ele>78.855469</ele>
      </trkpt>
      <trkpt lat="44.81505" lon="-0.01351">
        <ele>79.511719</ele>
      </trkpt>
      <trkpt lat="44.81499" lon="-0.01325">
        <ele>79.867188</ele>
      </trkpt>
      <trkpt lat="44.81495" lon="-0.01285">
        <ele>80.671875</ele>
      </trkpt>
      <trkpt lat="44.81488" lon="-0.01234">
        <ele>81.824219</ele>
      </trkpt>
      <trkpt lat="44.81489" lon="-0.01191">
        <ele>82.636719</ele>
      </trkpt>
      <trkpt lat="44.81489" lon="-0.01176">
        <ele>82.890625</ele>
      </trkpt>
      <trkpt lat="44.81502" lon="-0.01172">
        <ele>81.984375</ele>
      </trkpt>
      <trkpt lat="44.81582" lon="-0.01167">
        <ele>74.894531</ele>
      </trkpt>
      <trkpt lat="44.81645" lon="-0.01159">
        <ele>67.207031</ele>
      </trkpt>
      <trkpt lat="44.81715" lon="-0.01153">
        <ele>58</ele>
      </trkpt>
      <trkpt lat="44.81823" lon="-0.0114">
        <ele>46.28125</ele>
      </trkpt>
      <trkpt lat="44.81871" lon="-0.01133">
        <ele>41.664062</ele>
      </trkpt>
      <trkpt lat="44.81898" lon="-0.01138">
        <ele>40.007812</ele>
      </trkpt>
      <trkpt lat="44.81941" lon="-0.01129">
        <ele>37.757812</ele>
      </trkpt>
      <trkpt lat="44.81983" lon="-0.01129">
        <ele>35.738281</ele>
      </trkpt>
      <trkpt lat="44.81988" lon="-0.01127">
        <ele>35.484375</ele>
      </trkpt>
      <trkpt lat="44.82041" lon="-0.01115">
        <ele>33.28125</ele>
      </trkpt>
      <trkpt lat="44.82087" lon="-0.01108">
        <ele>31.433594</ele>
      </trkpt>
      <trkpt lat="44.82108" lon="-0.01111">
        <ele>30.519531</ele>
      </trkpt>
      <trkpt lat="44.82138" lon="-0.01108">
        <ele>27.617188</ele>
      </trkpt>
      <trkpt lat="44.82142" lon="-0.01122">
        <ele>27.804688</ele>
      </trkpt>
      <trkpt lat="44.82176" lon="-0.01119">
        <ele>24.707031</ele>
      </trkpt>
      <trkpt lat="44.82214" lon="-0.01118">
        <ele>21.25</ele>
      </trkpt>
      <trkpt lat="44.82241" lon="-0.01111">
        <ele>19.515625</ele>
      </trkpt>
      <trkpt lat="44.82252" lon="-0.011">
        <ele>18.660156</ele>
      </trkpt>
      <trkpt lat="44.82246" lon="-0.01052">
        <ele>17.84375</ele>
      </trkpt>
      <trkpt lat="44.82243" lon="-0.00993">
        <ele>18.003906</ele>
      </trkpt>
      <trkpt lat="44.82243" lon="-0.00946">
        <ele>18.386719</ele>
      </trkpt>
      <trkpt lat="44.82245" lon="-0.00919">
        <ele>18.289062</ele>
      </trkpt>
      <trkpt lat="44.82332" lon="-0.00875">
        <ele>14.859375</ele>
      </trkpt>
      <trkpt lat="44.82507" lon="-0.00816">
        <ele>13</ele>
      </trkpt>
      <trkpt lat="44.82584" lon="-0.0079">
        <ele>13</ele>
      </trkpt>
      <trkpt lat="44.82567" lon="-0.00726">
        <ele>13</ele>
      </trkpt>
      <trkpt lat="44.8259" lon="-0.00718">
        <ele>13</ele>
      </trkpt>
      <trkpt lat="44.82595" lon="-0.00696">
        <ele>13</ele>
      </trkpt>
      <trkpt lat="44.82588" lon="-0.00657">
        <ele>13</ele>
      </trkpt>
      <trkpt lat="44.82569" lon="-0.0058">
        <ele>13</ele>
      </trkpt>
      <trkpt lat="44.82564" lon="-0.0054">
        <ele>13.183594</ele>
      </trkpt>
      <trkpt lat="44.82548" lon="-0.00499">
        <ele>13.96875</ele>
      </trkpt>
      <trkpt lat="44.82515" lon="-0.00455">
        <ele>13.546875</ele>
      </trkpt>
      <trkpt lat="44.82481" lon="-0.0042">
        <ele>13</ele>
      </trkpt>
      <trkpt lat="44.82464" lon="-0.00391">
        <ele>13</ele>
      </trkpt>
      <trkpt lat="44.82605" lon="-0.00322">
        <ele>13</ele>
      </trkpt>
      <trkpt lat="44.82666" lon="-0.00275">
        <ele>12.960938</ele>
      </trkpt>
      <trkpt lat="44.82661" lon="-0.00223">
        <ele>12.078125</ele>
      </trkpt>
    </trkseg>
  </trk>
  <trk>
    <name><![CDATA[randogps33-518]]></name>
    <extensions>
      <line xmlns="http://www.topografix.com/GPX/gpx_style/0/2">
        <color>0000FF</color>
        <width>4</width>
      </line>
    </extensions>
    <trkseg>
      <trkpt lat="44.64844" lon="-0.21">
        <ele>125.11</ele>
        <time>2017-01-26T08:28:08Z</time>
      </trkpt>
      <trkpt lat="44.64841" lon="-0.21002">
        <ele>121.74</ele>
        <time>2017-01-26T08:28:21Z</time>
      </trkpt>
      <trkpt lat="44.6484" lon="-0.21002">
        <ele>118.38</ele>
        <time>2017-01-26T08:28:29Z</time>
      </trkpt>
      <trkpt lat="44.6484" lon="-0.21002">
        <ele>117.42</ele>
        <time>2017-01-26T08:28:31Z</time>
      </trkpt>
      <trkpt lat="44.64838" lon="-0.21002">
        <ele>115.5</ele>
        <time>2017-01-26T08:28:35Z</time>
      </trkpt>
      <trkpt lat="44.64837" lon="-0.21002">
        <ele>112.13</ele>
        <time>2017-01-26T08:28:41Z</time>
      </trkpt>
      <trkpt lat="44.64837" lon="-0.21001">
        <ele>110.21</ele>
        <time>2017-01-26T08:28:45Z</time>
      </trkpt>
      <trkpt lat="44.64837" lon="-0.21001">
        <ele>108.77</ele>
        <time>2017-01-26T08:28:48Z</time>
      </trkpt>
      <trkpt lat="44.64839" lon="-0.21002">
        <ele>105.4</ele>
        <time>2017-01-26T08:28:58Z</time>
      </trkpt>
      <trkpt lat="44.64841" lon="-0.21006">
        <ele>105.4</ele>
        <time>2017-01-26T08:29:20Z</time>
      </trkpt>
      <trkpt lat="44.6484" lon="-0.21008">
        <ele>105.4</ele>
        <time>2017-01-26T08:29:37Z</time>
      </trkpt>
      <trkpt lat="44.64842" lon="-0.21006">
        <ele>105.88</ele>
        <time>2017-01-26T08:29:52Z</time>
      </trkpt>
      <trkpt lat="44.64841" lon="-0.21005">
        <ele>105.4</ele>
        <time>2017-01-26T08:30:06Z</time>
      </trkpt>
      <trkpt lat="44.64842" lon="-0.21005">
        <ele>105.88</ele>
        <time>2017-01-26T08:30:20Z</time>
      </trkpt>
      <trkpt lat="44.64842" lon="-0.21005">
        <ele>105.88</ele>
        <time>2017-01-26T08:30:31Z</time>
      </trkpt>
      <trkpt lat="44.64842" lon="-0.21003">
        <ele>106.36</ele>
        <time>2017-01-26T08:30:44Z</time>
      </trkpt>
      <trkpt lat="44.64843" lon="-0.21002">
        <ele>106.36</ele>
        <time>2017-01-26T08:31:06Z</time>
      </trkpt>
      <trkpt lat="44.64847" lon="-0.20996">
        <ele>106.36</ele>
        <time>2017-01-26T08:31:18Z</time>
      </trkpt>
      <trkpt lat="44.64849" lon="-0.20993">
        <ele>106.36</ele>
        <time>2017-01-26T08:31:25Z</time>
      </trkpt>
      <trkpt lat="44.64863" lon="-0.20978">
        <ele>106.84</ele>
        <time>2017-01-26T08:31:41Z</time>
      </trkpt>
      <trkpt lat="44.64868" lon="-0.20972">
        <ele>106.84</ele>
        <time>2017-01-26T08:31:51Z</time>
      </trkpt>
      <trkpt lat="44.64867" lon="-0.20966">
        <ele>106.36</ele>
        <time>2017-01-26T08:31:56Z</time>
      </trkpt>
      <trkpt lat="44.64858" lon="-0.20939">
        <ele>107.32</ele>
        <time>2017-01-26T08:32:14Z</time>
      </trkpt>
      <trkpt lat="44.64857" lon="-0.20936">
        <ele>107.32</ele>
        <time>2017-01-26T08:32:28Z</time>
      </trkpt>
      <trkpt lat="44.64856" lon="-0.20929">
        <ele>107.32</ele>
        <time>2017-01-26T08:32:40Z</time>
      </trkpt>
      <trkpt lat="44.64854" lon="-0.20919">
        <ele>107.81</ele>
        <time>2017-01-26T08:32:49Z</time>
      </trkpt>
      <trkpt lat="44.64853" lon="-0.20916">
        <ele>107.81</ele>
        <time>2017-01-26T08:32:51Z</time>
      </trkpt>
      <trkpt lat="44.64851" lon="-0.20897">
        <ele>108.29</ele>
        <time>2017-01-26T08:33:02Z</time>
      </trkpt>
      <trkpt lat="44.64847" lon="-0.20892">
        <ele>108.77</ele>
        <time>2017-01-26T08:33:16Z</time>
      </trkpt>
      <trkpt lat="44.64843" lon="-0.2088">
        <ele>108.29</ele>
        <time>2017-01-26T08:33:31Z</time>
      </trkpt>
      <trkpt lat="44.64844" lon="-0.2088">
        <ele>108.77</ele>
        <time>2017-01-26T08:33:34Z</time>
      </trkpt>
      <trkpt lat="44.64847" lon="-0.20887">
        <ele>108.77</ele>
        <time>2017-01-26T08:33:39Z</time>
      </trkpt>
      <trkpt lat="44.64851" lon="-0.20888">
        <ele>108.29</ele>
        <time>2017-01-26T08:33:54Z</time>
      </trkpt>
      <trkpt lat="44.64851" lon="-0.20888">
        <ele>103.48</ele>
        <time>2017-01-26T08:34:11Z</time>
      </trkpt>
      <trkpt lat="44.64851" lon="-0.20888">
        <ele>114.53</ele>
        <time>2017-01-26T08:34:12Z</time>
      </trkpt>
      <trkpt lat="44.64851" lon="-0.20888">
        <ele>108.77</ele>
        <time>2017-01-26T08:34:13Z</time>
      </trkpt>
      <trkpt lat="44.64852" lon="-0.20888">
        <ele>108.77</ele>
        <time>2017-01-26T08:34:27Z</time>
      </trkpt>
      <trkpt lat="44.64854" lon="-0.20897">
        <ele>108.77</ele>
        <time>2017-01-26T08:34:32Z</time>
      </trkpt>
      <trkpt lat="44.64863" lon="-0.20928">
        <ele>108.29</ele>
        <time>2017-01-26T08:34:51Z</time>
      </trkpt>
      <trkpt lat="44.64864" lon="-0.20935">
        <ele>108.29</ele>
        <time>2017-01-26T08:34:54Z</time>
      </trkpt>
      <trkpt lat="44.64869" lon="-0.20961">
        <ele>108.77</ele>
        <time>2017-01-26T08:35:11Z</time>
      </trkpt>
      <trkpt lat="44.6487" lon="-0.20962">
        <ele>108.77</ele>
        <time>2017-01-26T08:35:26Z</time>
      </trkpt>
      <trkpt lat="44.64872" lon="-0.20962">
        <ele>108.29</ele>
        <time>2017-01-26T08:35:39Z</time>
      </trkpt>
      <trkpt lat="44.64872" lon="-0.20962">
        <ele>108.29</ele>
        <time>2017-01-26T08:35:51Z</time>
      </trkpt>
      <trkpt lat="44.64872" lon="-0.20963">
        <ele>108.29</ele>
        <time>2017-01-26T08:36:12Z</time>
      </trkpt>
      <trkpt lat="44.6487" lon="-0.20977">
        <ele>107.81</ele>
        <time>2017-01-26T08:36:22Z</time>
      </trkpt>
      <trkpt lat="44.6485" lon="-0.20992">
        <ele>108.29</ele>
        <time>2017-01-26T08:36:40Z</time>
      </trkpt>
      <trkpt lat="44.6484" lon="-0.21005">
        <ele>107.81</ele>
        <time>2017-01-26T08:36:51Z</time>
      </trkpt>
      <trkpt lat="44.64829" lon="-0.21018">
        <ele>108.29</ele>
        <time>2017-01-26T08:37:07Z</time>
      </trkpt>
      <trkpt lat="44.64834" lon="-0.21015">
        <ele>108.29</ele>
        <time>2017-01-26T08:37:12Z</time>
      </trkpt>
      <trkpt lat="44.64847" lon="-0.21029">
        <ele>107.81</ele>
        <time>2017-01-26T08:37:27Z</time>
      </trkpt>
      <trkpt lat="44.64849" lon="-0.21033">
        <ele>107.32</ele>
        <time>2017-01-26T08:37:40Z</time>
      </trkpt>
      <trkpt lat="44.6485" lon="-0.21033">
        <ele>107.32</ele>
        <time>2017-01-26T08:37:43Z</time>
      </trkpt>
      <trkpt lat="44.64864" lon="-0.21014">
        <ele>107.32</ele>
        <time>2017-01-26T08:37:59Z</time>
      </trkpt>
      <trkpt lat="44.64864" lon="-0.21002">
        <ele>107.81</ele>
        <time>2017-01-26T08:38:06Z</time>
      </trkpt>
      <trkpt lat="44.64868" lon="-0.20991">
        <ele>108.29</ele>
        <time>2017-01-26T08:38:14Z</time>
      </trkpt>
      <trkpt lat="44.64869" lon="-0.20966">
        <ele>108.29</ele>
        <time>2017-01-26T08:38:30Z</time>
      </trkpt>
      <trkpt lat="44.64861" lon="-0.20941">
        <ele>108.77</ele>
        <time>2017-01-26T08:38:46Z</time>
      </trkpt>
      <trkpt lat="44.64859" lon="-0.20938">
        <ele>108.77</ele>
        <time>2017-01-26T08:38:48Z</time>
      </trkpt>
      <trkpt lat="44.64855" lon="-0.20931">
        <ele>108.77</ele>
        <time>2017-01-26T08:38:53Z</time>
      </trkpt>
      <trkpt lat="44.64855" lon="-0.20921">
        <ele>109.25</ele>
        <time>2017-01-26T08:38:58Z</time>
      </trkpt>
      <trkpt lat="44.6485" lon="-0.20898">
        <ele>109.73</ele>
        <time>2017-01-26T08:39:10Z</time>
      </trkpt>
      <trkpt lat="44.64839" lon="-0.20864">
        <ele>109.73</ele>
        <time>2017-01-26T08:39:28Z</time>
      </trkpt>
      <trkpt lat="44.6483" lon="-0.20837">
        <ele>108.77</ele>
        <time>2017-01-26T08:39:43Z</time>
      </trkpt>
      <trkpt lat="44.64818" lon="-0.20811">
        <ele>108.29</ele>
        <time>2017-01-26T08:40:01Z</time>
      </trkpt>
      <trkpt lat="44.64818" lon="-0.20812">
        <ele>108.29</ele>
        <time>2017-01-26T08:40:06Z</time>
      </trkpt>
      <trkpt lat="44.64815" lon="-0.20813">
        <ele>108.29</ele>
        <time>2017-01-26T08:40:09Z</time>
      </trkpt>
      <trkpt lat="44.64811" lon="-0.20814">
        <ele>108.77</ele>
        <time>2017-01-26T08:40:24Z</time>
      </trkpt>
      <trkpt lat="44.64814" lon="-0.20812">
        <ele>108.77</ele>
        <time>2017-01-26T08:40:37Z</time>
      </trkpt>
      <trkpt lat="44.64818" lon="-0.20811">
        <ele>106.84</ele>
        <time>2017-01-26T08:40:41Z</time>
      </trkpt>
      <trkpt lat="44.64819" lon="-0.20811">
        <ele>111.65</ele>
        <time>2017-01-26T08:40:42Z</time>
      </trkpt>
      <trkpt lat="44.64819" lon="-0.20811">
        <ele>108.77</ele>
        <time>2017-01-26T08:40:43Z</time>
      </trkpt>
      <trkpt lat="44.64821" lon="-0.20814">
        <ele>108.77</ele>
        <time>2017-01-26T08:40:46Z</time>
      </trkpt>
      <trkpt lat="44.64823" lon="-0.20818">
        <ele>104.44</ele>
        <time>2017-01-26T08:40:50Z</time>
      </trkpt>
      <trkpt lat="44.64823" lon="-0.20819">
        <ele>114.05</ele>
        <time>2017-01-26T08:40:51Z</time>
      </trkpt>
      <trkpt lat="44.64823" lon="-0.2082">
        <ele>109.25</ele>
        <time>2017-01-26T08:40:52Z</time>
      </trkpt>
      <trkpt lat="44.64827" lon="-0.20827">
        <ele>109.25</ele>
        <time>2017-01-26T08:41:06Z</time>
      </trkpt>
      <trkpt lat="44.64837" lon="-0.20857">
        <ele>110.21</ele>
        <time>2017-01-26T08:41:21Z</time>
      </trkpt>
      <trkpt lat="44.64844" lon="-0.20881">
        <ele>110.21</ele>
        <time>2017-01-26T08:41:34Z</time>
      </trkpt>
      <trkpt lat="44.64848" lon="-0.20892">
        <ele>110.21</ele>
        <time>2017-01-26T08:41:40Z</time>
      </trkpt>
      <trkpt lat="44.64859" lon="-0.2093">
        <ele>109.73</ele>
        <time>2017-01-26T08:42:01Z</time>
      </trkpt>
      <trkpt lat="44.64866" lon="-0.20957">
        <ele>109.25</ele>
        <time>2017-01-26T08:42:17Z</time>
      </trkpt>
      <trkpt lat="44.64867" lon="-0.2096">
        <ele>109.25</ele>
        <time>2017-01-26T08:42:20Z</time>
      </trkpt>
      <trkpt lat="44.64871" lon="-0.20971">
        <ele>109.25</ele>
        <time>2017-01-26T08:42:26Z</time>
      </trkpt>
      <trkpt lat="44.64872" lon="-0.20996">
        <ele>108.77</ele>
        <time>2017-01-26T08:42:42Z</time>
      </trkpt>
      <trkpt lat="44.64873" lon="-0.20999">
        <ele>108.77</ele>
        <time>2017-01-26T08:42:54Z</time>
      </trkpt>
      <trkpt lat="44.64871" lon="-0.21008">
        <ele>108.29</ele>
        <time>2017-01-26T08:43:05Z</time>
      </trkpt>
      <trkpt lat="44.64889" lon="-0.20999">
        <ele>108.29</ele>
        <time>2017-01-26T08:43:21Z</time>
      </trkpt>
      <trkpt lat="44.64896" lon="-0.20997">
        <ele>108.77</ele>
        <time>2017-01-26T08:43:31Z</time>
      </trkpt>
      <trkpt lat="44.64897" lon="-0.20998">
        <ele>108.77</ele>
        <time>2017-01-26T08:43:44Z</time>
      </trkpt>
      <trkpt lat="44.64897" lon="-0.20998">
        <ele>108.77</ele>
        <time>2017-01-26T08:43:45Z</time>
      </trkpt>
      <trkpt lat="44.64907" lon="-0.20984">
        <ele>107.81</ele>
        <time>2017-01-26T08:43:58Z</time>
      </trkpt>
      <trkpt lat="44.64915" lon="-0.20974">
        <ele>107.32</ele>
        <time>2017-01-26T08:44:07Z</time>
      </trkpt>
      <trkpt lat="44.64922" lon="-0.20951">
        <ele>106.84</ele>
        <time>2017-01-26T08:44:25Z</time>
      </trkpt>
      <trkpt lat="44.64923" lon="-0.20953">
        <ele>106.84</ele>
        <time>2017-01-26T08:44:30Z</time>
      </trkpt>
      <trkpt lat="44.64913" lon="-0.20979">
        <ele>107.32</ele>
        <time>2017-01-26T08:44:45Z</time>
      </trkpt>
      <trkpt lat="44.64906" lon="-0.20997">
        <ele>108.29</ele>
        <time>2017-01-26T08:44:57Z</time>
      </trkpt>
      <trkpt lat="44.64905" lon="-0.20997">
        <ele>108.29</ele>
        <time>2017-01-26T08:45:09Z</time>
      </trkpt>
      <trkpt lat="44.64913" lon="-0.21009">
        <ele>107.32</ele>
        <time>2017-01-26T08:45:24Z</time>
      </trkpt>
      <trkpt lat="44.64918" lon="-0.21014">
        <ele>106.84</ele>
        <time>2017-01-26T08:45:30Z</time>
      </trkpt>
      <trkpt lat="44.64922" lon="-0.21019">
        <ele>106.36</ele>
        <time>2017-01-26T08:45:34Z</time>
      </trkpt>
      <trkpt lat="44.64933" lon="-0.21031">
        <ele>105.88</ele>
        <time>2017-01-26T08:45:44Z</time>
      </trkpt>
      <trkpt lat="44.64945" lon="-0.21048">
        <ele>104.92</ele>
        <time>2017-01-26T08:45:57Z</time>
      </trkpt>
      <trkpt lat="44.64959" lon="-0.21069">
        <ele>105.4</ele>
        <time>2017-01-26T08:46:12Z</time>
      </trkpt>
      <trkpt lat="44.64973" lon="-0.21088">
        <ele>103.48</ele>
        <time>2017-01-26T08:46:26Z</time>
      </trkpt>
      <trkpt lat="44.64976" lon="-0.2109">
        <ele>103.48</ele>
        <time>2017-01-26T08:46:29Z</time>
      </trkpt>
      <trkpt lat="44.64989" lon="-0.21106">
        <ele>103</ele>
        <time>2017-01-26T08:46:42Z</time>
      </trkpt>
      <trkpt lat="44.64993" lon="-0.21113">
        <ele>103</ele>
        <time>2017-01-26T08:46:46Z</time>
      </trkpt>
      <trkpt lat="44.65006" lon="-0.21131">
        <ele>102.52</ele>
        <time>2017-01-26T08:46:59Z</time>
      </trkpt>
      <trkpt lat="44.6502" lon="-0.21152">
        <ele>102.04</ele>
        <time>2017-01-26T08:47:14Z</time>
      </trkpt>
      <trkpt lat="44.65036" lon="-0.21172">
        <ele>101.56</ele>
        <time>2017-01-26T08:47:29Z</time>
      </trkpt>
      <trkpt lat="44.65052" lon="-0.21193">
        <ele>101.08</ele>
        <time>2017-01-26T08:47:45Z</time>
      </trkpt>
      <trkpt lat="44.6506" lon="-0.21204">
        <ele>101.08</ele>
        <time>2017-01-26T08:47:53Z</time>
      </trkpt>
      <trkpt lat="44.65066" lon="-0.21217">
        <ele>101.08</ele>
        <time>2017-01-26T08:48:01Z</time>
      </trkpt>
      <trkpt lat="44.65084" lon="-0.21241">
        <ele>101.56</ele>
        <time>2017-01-26T08:48:19Z</time>
      </trkpt>
      <trkpt lat="44.65101" lon="-0.21262">
        <ele>102.04</ele>
        <time>2017-01-26T08:48:34Z</time>
      </trkpt>
      <trkpt lat="44.6511" lon="-0.21275">
        <ele>101.56</ele>
        <time>2017-01-26T08:48:48Z</time>
      </trkpt>
      <trkpt lat="44.65104" lon="-0.2127">
        <ele>101.56</ele>
        <time>2017-01-26T08:48:54Z</time>
      </trkpt>
      <trkpt lat="44.65102" lon="-0.21275">
        <ele>101.56</ele>
        <time>2017-01-26T08:48:59Z</time>
      </trkpt>
      <trkpt lat="44.65099" lon="-0.21286">
        <ele>100.11</ele>
        <time>2017-01-26T08:49:07Z</time>
      </trkpt>
      <trkpt lat="44.65089" lon="-0.21299">
        <ele>97.23</ele>
        <time>2017-01-26T08:49:20Z</time>
      </trkpt>
      <trkpt lat="44.65087" lon="-0.21302">
        <ele>96.75</ele>
        <time>2017-01-26T08:49:23Z</time>
      </trkpt>
      <trkpt lat="44.65072" lon="-0.21322">
        <ele>93.39</ele>
        <time>2017-01-26T08:49:41Z</time>
      </trkpt>
      <trkpt lat="44.65066" lon="-0.21328">
        <ele>92.42</ele>
        <time>2017-01-26T08:49:47Z</time>
      </trkpt>
      <trkpt lat="44.65048" lon="-0.21347">
        <ele>89.54</ele>
        <time>2017-01-26T08:50:07Z</time>
      </trkpt>
      <trkpt lat="44.65048" lon="-0.21349">
        <ele>90.02</ele>
        <time>2017-01-26T08:50:12Z</time>
      </trkpt>
      <trkpt lat="44.6504" lon="-0.2136">
        <ele>88.1</ele>
        <time>2017-01-26T08:50:21Z</time>
      </trkpt>
      <trkpt lat="44.65036" lon="-0.2138">
        <ele>87.14</ele>
        <time>2017-01-26T08:50:34Z</time>
      </trkpt>
      <trkpt lat="44.65046" lon="-0.21404">
        <ele>86.18</ele>
        <time>2017-01-26T08:50:49Z</time>
      </trkpt>
      <trkpt lat="44.65047" lon="-0.21407">
        <ele>81.85</ele>
        <time>2017-01-26T08:50:51Z</time>
      </trkpt>
      <trkpt lat="44.65048" lon="-0.21409">
        <ele>88.1</ele>
        <time>2017-01-26T08:50:52Z</time>
      </trkpt>
      <trkpt lat="44.6505" lon="-0.21414">
        <ele>85.69</ele>
        <time>2017-01-26T08:50:55Z</time>
      </trkpt>
      <trkpt lat="44.6505" lon="-0.21416">
        <ele>85.69</ele>
        <time>2017-01-26T08:50:56Z</time>
      </trkpt>
      <trkpt lat="44.65053" lon="-0.21423">
        <ele>85.21</ele>
        <time>2017-01-26T08:51:00Z</time>
      </trkpt>
      <trkpt lat="44.65056" lon="-0.21436">
        <ele>84.73</ele>
        <time>2017-01-26T08:51:08Z</time>
      </trkpt>
      <trkpt lat="44.65057" lon="-0.21439">
        <ele>84.25</ele>
        <time>2017-01-26T08:51:10Z</time>
      </trkpt>
      <trkpt lat="44.65058" lon="-0.21442">
        <ele>84.25</ele>
        <time>2017-01-26T08:51:12Z</time>
      </trkpt>
      <trkpt lat="44.65066" lon="-0.21463">
        <ele>83.29</ele>
        <time>2017-01-26T08:51:25Z</time>
      </trkpt>
      <trkpt lat="44.65074" lon="-0.2149">
        <ele>81.85</ele>
        <time>2017-01-26T08:51:41Z</time>
      </trkpt>
      <trkpt lat="44.65081" lon="-0.21507">
        <ele>80.89</ele>
        <time>2017-01-26T08:51:52Z</time>
      </trkpt>
      <trkpt lat="44.65084" lon="-0.2152">
        <ele>80.41</ele>
        <time>2017-01-26T08:52:00Z</time>
      </trkpt>
      <trkpt lat="44.65087" lon="-0.21528">
        <ele>79.93</ele>
        <time>2017-01-26T08:52:05Z</time>
      </trkpt>
      <trkpt lat="44.65092" lon="-0.2155">
        <ele>78.97</ele>
        <time>2017-01-26T08:52:18Z</time>
      </trkpt>
      <trkpt lat="44.65097" lon="-0.21564">
        <ele>78</ele>
        <time>2017-01-26T08:52:27Z</time>
      </trkpt>
      <trkpt lat="44.65108" lon="-0.21594">
        <ele>77.04</ele>
        <time>2017-01-26T08:52:47Z</time>
      </trkpt>
      <trkpt lat="44.6511" lon="-0.21607">
        <ele>76.08</ele>
        <time>2017-01-26T08:53:00Z</time>
      </trkpt>
      <trkpt lat="44.65109" lon="-0.21609">
        <ele>76.56</ele>
        <time>2017-01-26T08:53:02Z</time>
      </trkpt>
      <trkpt lat="44.65104" lon="-0.21616">
        <ele>76.56</ele>
        <time>2017-01-26T08:53:08Z</time>
      </trkpt>
      <trkpt lat="44.65102" lon="-0.21623">
        <ele>75.6</ele>
        <time>2017-01-26T08:53:13Z</time>
      </trkpt>
      <trkpt lat="44.65091" lon="-0.21636">
        <ele>75.12</ele>
        <time>2017-01-26T08:53:29Z</time>
      </trkpt>
      <trkpt lat="44.65086" lon="-0.21639">
        <ele>74.64</ele>
        <time>2017-01-26T08:53:44Z</time>
      </trkpt>
      <trkpt lat="44.65066" lon="-0.21659">
        <ele>74.16</ele>
        <time>2017-01-26T08:54:03Z</time>
      </trkpt>
      <trkpt lat="44.65049" lon="-0.2168">
        <ele>73.68</ele>
        <time>2017-01-26T08:54:21Z</time>
      </trkpt>
      <trkpt lat="44.65032" lon="-0.21696">
        <ele>73.2</ele>
        <time>2017-01-26T08:54:38Z</time>
      </trkpt>
      <trkpt lat="44.65027" lon="-0.21702">
        <ele>73.2</ele>
        <time>2017-01-26T08:54:52Z</time>
      </trkpt>
      <trkpt lat="44.65021" lon="-0.21707">
        <ele>73.2</ele>
        <time>2017-01-26T08:55:02Z</time>
      </trkpt>
      <trkpt lat="44.65009" lon="-0.21721">
        <ele>72.24</ele>
        <time>2017-01-26T08:55:17Z</time>
      </trkpt>
      <trkpt lat="44.64993" lon="-0.21739">
        <ele>72.24</ele>
        <time>2017-01-26T08:55:35Z</time>
      </trkpt>
      <trkpt lat="44.64991" lon="-0.21746">
        <ele>71.76</ele>
        <time>2017-01-26T08:55:50Z</time>
      </trkpt>
      <trkpt lat="44.6499" lon="-0.21751">
        <ele>71.27</ele>
        <time>2017-01-26T08:55:55Z</time>
      </trkpt>
      <trkpt lat="44.64998" lon="-0.21769">
        <ele>70.79</ele>
        <time>2017-01-26T08:56:08Z</time>
      </trkpt>
      <trkpt lat="44.65014" lon="-0.21781">
        <ele>70.31</ele>
        <time>2017-01-26T08:56:25Z</time>
      </trkpt>
      <trkpt lat="44.65025" lon="-0.21793">
        <ele>69.83</ele>
        <time>2017-01-26T08:56:37Z</time>
      </trkpt>
      <trkpt lat="44.65039" lon="-0.21803">
        <ele>69.35</ele>
        <time>2017-01-26T08:56:52Z</time>
      </trkpt>
      <trkpt lat="44.65051" lon="-0.21817">
        <ele>68.87</ele>
        <time>2017-01-26T08:57:06Z</time>
      </trkpt>
      <trkpt lat="44.65061" lon="-0.21826">
        <ele>68.87</ele>
        <time>2017-01-26T08:57:19Z</time>
      </trkpt>
      <trkpt lat="44.65066" lon="-0.21839">
        <ele>68.87</ele>
        <time>2017-01-26T08:57:33Z</time>
      </trkpt>
      <trkpt lat="44.65068" lon="-0.21848">
        <ele>68.39</ele>
        <time>2017-01-26T08:57:39Z</time>
      </trkpt>
      <trkpt lat="44.6507" lon="-0.21853">
        <ele>68.39</ele>
        <time>2017-01-26T08:57:43Z</time>
      </trkpt>
      <trkpt lat="44.6507" lon="-0.21859">
        <ele>68.39</ele>
        <time>2017-01-26T08:57:53Z</time>
      </trkpt>
      <trkpt lat="44.65072" lon="-0.21882">
        <ele>68.39</ele>
        <time>2017-01-26T08:58:09Z</time>
      </trkpt>
      <trkpt lat="44.65075" lon="-0.21903">
        <ele>67.91</ele>
        <time>2017-01-26T08:58:22Z</time>
      </trkpt>
      <trkpt lat="44.65076" lon="-0.21912">
        <ele>64.55</ele>
        <time>2017-01-26T08:58:27Z</time>
      </trkpt>
      <trkpt lat="44.65077" lon="-0.21914">
        <ele>70.79</ele>
        <time>2017-01-26T08:58:28Z</time>
      </trkpt>
      <trkpt lat="44.65077" lon="-0.21916">
        <ele>66.47</ele>
        <time>2017-01-26T08:58:29Z</time>
      </trkpt>
      <trkpt lat="44.6508" lon="-0.21946">
        <ele>66.95</ele>
        <time>2017-01-26T08:58:46Z</time>
      </trkpt>
      <trkpt lat="44.65081" lon="-0.21952">
        <ele>66.95</ele>
        <time>2017-01-26T08:58:50Z</time>
      </trkpt>
      <trkpt lat="44.65086" lon="-0.2198">
        <ele>66.95</ele>
        <time>2017-01-26T08:59:07Z</time>
      </trkpt>
      <trkpt lat="44.65089" lon="-0.22007">
        <ele>66.47</ele>
        <time>2017-01-26T08:59:23Z</time>
      </trkpt>
      <trkpt lat="44.65093" lon="-0.22035">
        <ele>65.51</ele>
        <time>2017-01-26T08:59:39Z</time>
      </trkpt>
      <trkpt lat="44.65094" lon="-0.22058">
        <ele>65.51</ele>
        <time>2017-01-26T08:59:53Z</time>
      </trkpt>
      <trkpt lat="44.65093" lon="-0.2206">
        <ele>65.03</ele>
        <time>2017-01-26T09:00:06Z</time>
      </trkpt>
      <trkpt lat="44.65091" lon="-0.22062">
        <ele>65.99</ele>
        <time>2017-01-26T09:00:13Z</time>
      </trkpt>
      <trkpt lat="44.65094" lon="-0.2209">
        <ele>65.03</ele>
        <time>2017-01-26T09:00:30Z</time>
      </trkpt>
      <trkpt lat="44.65095" lon="-0.22096">
        <ele>68.39</ele>
        <time>2017-01-26T09:00:34Z</time>
      </trkpt>
      <trkpt lat="44.65095" lon="-0.22101">
        <ele>62.62</ele>
        <time>2017-01-26T09:00:37Z</time>
      </trkpt>
      <trkpt lat="44.65095" lon="-0.22103">
        <ele>66.47</ele>
        <time>2017-01-26T09:00:38Z</time>
      </trkpt>
      <trkpt lat="44.65096" lon="-0.22112">
        <ele>63.58</ele>
        <time>2017-01-26T09:00:43Z</time>
      </trkpt>
      <trkpt lat="44.65096" lon="-0.22113">
        <ele>66.47</ele>
        <time>2017-01-26T09:00:44Z</time>
      </trkpt>
      <trkpt lat="44.65098" lon="-0.22132">
        <ele>65.03</ele>
        <time>2017-01-26T09:00:56Z</time>
      </trkpt>
      <trkpt lat="44.651" lon="-0.22138">
        <ele>65.03</ele>
        <time>2017-01-26T09:01:00Z</time>
      </trkpt>
      <trkpt lat="44.65102" lon="-0.22154">
        <ele>65.03</ele>
        <time>2017-01-26T09:01:09Z</time>
      </trkpt>
      <trkpt lat="44.65105" lon="-0.22181">
        <ele>65.03</ele>
        <time>2017-01-26T09:01:24Z</time>
      </trkpt>
      <trkpt lat="44.65106" lon="-0.22184">
        <ele>64.55</ele>
        <time>2017-01-26T09:01:26Z</time>
      </trkpt>
      <trkpt lat="44.65111" lon="-0.2222">
        <ele>64.55</ele>
        <time>2017-01-26T09:01:46Z</time>
      </trkpt>
      <trkpt lat="44.65114" lon="-0.22251">
        <ele>64.55</ele>
        <time>2017-01-26T09:02:04Z</time>
      </trkpt>
      <trkpt lat="44.65128" lon="-0.22266">
        <ele>64.07</ele>
        <time>2017-01-26T09:02:19Z</time>
      </trkpt>
      <trkpt lat="44.65138" lon="-0.22281">
        <ele>63.58</ele>
        <time>2017-01-26T09:02:31Z</time>
      </trkpt>
      <trkpt lat="44.65144" lon="-0.22291">
        <ele>63.58</ele>
        <time>2017-01-26T09:02:38Z</time>
      </trkpt>
      <trkpt lat="44.65147" lon="-0.223">
        <ele>63.58</ele>
        <time>2017-01-26T09:02:44Z</time>
      </trkpt>
      <trkpt lat="44.65154" lon="-0.22307">
        <ele>63.58</ele>
        <time>2017-01-26T09:02:51Z</time>
      </trkpt>
      <trkpt lat="44.65175" lon="-0.22296">
        <ele>63.1</ele>
        <time>2017-01-26T09:03:10Z</time>
      </trkpt>
      <trkpt lat="44.65194" lon="-0.22281">
        <ele>63.58</ele>
        <time>2017-01-26T09:03:28Z</time>
      </trkpt>
      <trkpt lat="44.65208" lon="-0.22271">
        <ele>64.07</ele>
        <time>2017-01-26T09:03:40Z</time>
      </trkpt>
      <trkpt lat="44.6521" lon="-0.22268">
        <ele>63.58</ele>
        <time>2017-01-26T09:03:53Z</time>
      </trkpt>
      <trkpt lat="44.6521" lon="-0.22268">
        <ele>64.07</ele>
        <time>2017-01-26T09:04:19Z</time>
      </trkpt>
      <trkpt lat="44.65216" lon="-0.22263">
        <ele>64.07</ele>
        <time>2017-01-26T09:04:31Z</time>
      </trkpt>
      <trkpt lat="44.65228" lon="-0.22254">
        <ele>64.07</ele>
        <time>2017-01-26T09:04:45Z</time>
      </trkpt>
      <trkpt lat="44.65234" lon="-0.2225">
        <ele>65.51</ele>
        <time>2017-01-26T09:04:58Z</time>
      </trkpt>
      <trkpt lat="44.65237" lon="-0.22249">
        <ele>64.07</ele>
        <time>2017-01-26T09:05:10Z</time>
      </trkpt>
      <trkpt lat="44.6524" lon="-0.22247">
        <ele>65.03</ele>
        <time>2017-01-26T09:05:14Z</time>
      </trkpt>
      <trkpt lat="44.65254" lon="-0.22236">
        <ele>65.03</ele>
        <time>2017-01-26T09:05:28Z</time>
      </trkpt>
      <trkpt lat="44.6526" lon="-0.22233">
        <ele>65.03</ele>
        <time>2017-01-26T09:05:34Z</time>
      </trkpt>
      <trkpt lat="44.65264" lon="-0.22229">
        <ele>64.55</ele>
        <time>2017-01-26T09:05:38Z</time>
      </trkpt>
      <trkpt lat="44.65279" lon="-0.22218">
        <ele>65.03</ele>
        <time>2017-01-26T09:05:54Z</time>
      </trkpt>
      <trkpt lat="44.65289" lon="-0.22211">
        <ele>65.51</ele>
        <time>2017-01-26T09:06:07Z</time>
      </trkpt>
      <trkpt lat="44.65272" lon="-0.22223">
        <ele>65.03</ele>
        <time>2017-01-26T09:06:24Z</time>
      </trkpt>
      <trkpt lat="44.65256" lon="-0.22235">
        <ele>65.03</ele>
        <time>2017-01-26T09:06:40Z</time>
      </trkpt>
      <trkpt lat="44.65243" lon="-0.22246">
        <ele>65.51</ele>
        <time>2017-01-26T09:06:55Z</time>
      </trkpt>
      <trkpt lat="44.65245" lon="-0.22255">
        <ele>65.51</ele>
        <time>2017-01-26T09:07:03Z</time>
      </trkpt>
      <trkpt lat="44.6525" lon="-0.22266">
        <ele>65.51</ele>
        <time>2017-01-26T09:07:12Z</time>
      </trkpt>
      <trkpt lat="44.65258" lon="-0.22287">
        <ele>64.55</ele>
        <time>2017-01-26T09:07:27Z</time>
      </trkpt>
      <trkpt lat="44.65267" lon="-0.22308">
        <ele>64.07</ele>
        <time>2017-01-26T09:07:41Z</time>
      </trkpt>
      <trkpt lat="44.65273" lon="-0.22324">
        <ele>64.07</ele>
        <time>2017-01-26T09:07:53Z</time>
      </trkpt>
      <trkpt lat="44.65282" lon="-0.22343">
        <ele>64.07</ele>
        <time>2017-01-26T09:08:08Z</time>
      </trkpt>
      <trkpt lat="44.65284" lon="-0.2235">
        <ele>64.07</ele>
        <time>2017-01-26T09:08:13Z</time>
      </trkpt>
      <trkpt lat="44.65294" lon="-0.22365">
        <ele>64.07</ele>
        <time>2017-01-26T09:08:27Z</time>
      </trkpt>
      <trkpt lat="44.65308" lon="-0.22353">
        <ele>64.55</ele>
        <time>2017-01-26T09:08:41Z</time>
      </trkpt>
      <trkpt lat="44.65321" lon="-0.22341">
        <ele>65.03</ele>
        <time>2017-01-26T09:08:54Z</time>
      </trkpt>
      <trkpt lat="44.65334" lon="-0.22357">
        <ele>65.03</ele>
        <time>2017-01-26T09:09:10Z</time>
      </trkpt>
      <trkpt lat="44.65346" lon="-0.22379">
        <ele>64.55</ele>
        <time>2017-01-26T09:09:25Z</time>
      </trkpt>
      <trkpt lat="44.65358" lon="-0.22399">
        <ele>64.55</ele>
        <time>2017-01-26T09:09:41Z</time>
      </trkpt>
      <trkpt lat="44.65363" lon="-0.22409">
        <ele>64.55</ele>
        <time>2017-01-26T09:09:52Z</time>
      </trkpt>
      <trkpt lat="44.65366" lon="-0.22409">
        <ele>65.51</ele>
        <time>2017-01-26T09:10:05Z</time>
      </trkpt>
      <trkpt lat="44.65368" lon="-0.22408">
        <ele>60.7</ele>
        <time>2017-01-26T09:10:26Z</time>
      </trkpt>
      <trkpt lat="44.65368" lon="-0.22408">
        <ele>64.55</ele>
        <time>2017-01-26T09:10:27Z</time>
      </trkpt>
      <trkpt lat="44.65369" lon="-0.22411">
        <ele>65.51</ele>
        <time>2017-01-26T09:10:29Z</time>
      </trkpt>
      <trkpt lat="44.6537" lon="-0.22414">
        <ele>65.03</ele>
        <time>2017-01-26T09:10:32Z</time>
      </trkpt>
      <trkpt lat="44.65374" lon="-0.22417">
        <ele>65.03</ele>
        <time>2017-01-26T09:10:36Z</time>
      </trkpt>
      <trkpt lat="44.65377" lon="-0.22424">
        <ele>65.03</ele>
        <time>2017-01-26T09:10:41Z</time>
      </trkpt>
      <trkpt lat="44.65381" lon="-0.22432">
        <ele>65.03</ele>
        <time>2017-01-26T09:10:48Z</time>
      </trkpt>
      <trkpt lat="44.65393" lon="-0.22451">
        <ele>65.03</ele>
        <time>2017-01-26T09:11:04Z</time>
      </trkpt>
      <trkpt lat="44.65403" lon="-0.22469">
        <ele>65.03</ele>
        <time>2017-01-26T09:11:19Z</time>
      </trkpt>
      <trkpt lat="44.65414" lon="-0.22487">
        <ele>64.55</ele>
        <time>2017-01-26T09:11:34Z</time>
      </trkpt>
      <trkpt lat="44.65425" lon="-0.22507">
        <ele>64.07</ele>
        <time>2017-01-26T09:11:50Z</time>
      </trkpt>
      <trkpt lat="44.65438" lon="-0.22522">
        <ele>63.58</ele>
        <time>2017-01-26T09:12:04Z</time>
      </trkpt>
      <trkpt lat="44.65454" lon="-0.22532">
        <ele>63.58</ele>
        <time>2017-01-26T09:12:21Z</time>
      </trkpt>
      <trkpt lat="44.65469" lon="-0.2254">
        <ele>63.58</ele>
        <time>2017-01-26T09:12:36Z</time>
      </trkpt>
      <trkpt lat="44.65474" lon="-0.22541">
        <ele>59.74</ele>
        <time>2017-01-26T09:12:42Z</time>
      </trkpt>
      <trkpt lat="44.65474" lon="-0.22541">
        <ele>71.76</ele>
        <time>2017-01-26T09:12:43Z</time>
      </trkpt>
      <trkpt lat="44.65474" lon="-0.22541">
        <ele>64.55</ele>
        <time>2017-01-26T09:12:44Z</time>
      </trkpt>
      <trkpt lat="44.65471" lon="-0.2254">
        <ele>63.58</ele>
        <time>2017-01-26T09:12:46Z</time>
      </trkpt>
      <trkpt lat="44.6546" lon="-0.22535">
        <ele>63.1</ele>
        <time>2017-01-26T09:12:58Z</time>
      </trkpt>
      <trkpt lat="44.65442" lon="-0.22523">
        <ele>63.1</ele>
        <time>2017-01-26T09:13:14Z</time>
      </trkpt>
      <trkpt lat="44.6544" lon="-0.22517">
        <ele>63.58</ele>
        <time>2017-01-26T09:13:19Z</time>
      </trkpt>
      <trkpt lat="44.65449" lon="-0.22502">
        <ele>67.91</ele>
        <time>2017-01-26T09:13:31Z</time>
      </trkpt>
      <trkpt lat="44.6545" lon="-0.22499">
        <ele>64.55</ele>
        <time>2017-01-26T09:13:34Z</time>
      </trkpt>
      <trkpt lat="44.65468" lon="-0.22479">
        <ele>65.51</ele>
        <time>2017-01-26T09:13:53Z</time>
      </trkpt>
      <trkpt lat="44.65485" lon="-0.22456">
        <ele>66.47</ele>
        <time>2017-01-26T09:14:12Z</time>
      </trkpt>
      <trkpt lat="44.65504" lon="-0.22435">
        <ele>66.95</ele>
        <time>2017-01-26T09:14:31Z</time>
      </trkpt>
      <trkpt lat="44.65519" lon="-0.22416">
        <ele>67.91</ele>
        <time>2017-01-26T09:14:50Z</time>
      </trkpt>
      <trkpt lat="44.65534" lon="-0.22398">
        <ele>68.87</ele>
        <time>2017-01-26T09:15:06Z</time>
      </trkpt>
      <trkpt lat="44.65536" lon="-0.22396">
        <ele>68.87</ele>
        <time>2017-01-26T09:15:08Z</time>
      </trkpt>
      <trkpt lat="44.65549" lon="-0.22378">
        <ele>70.31</ele>
        <time>2017-01-26T09:15:24Z</time>
      </trkpt>
      <trkpt lat="44.65566" lon="-0.22361">
        <ele>71.76</ele>
        <time>2017-01-26T09:15:41Z</time>
      </trkpt>
      <trkpt lat="44.65566" lon="-0.2236">
        <ele>71.76</ele>
        <time>2017-01-26T09:15:50Z</time>
      </trkpt>
      <trkpt lat="44.65569" lon="-0.22357">
        <ele>71.76</ele>
        <time>2017-01-26T09:15:53Z</time>
      </trkpt>
      <trkpt lat="44.65586" lon="-0.22333">
        <ele>73.2</ele>
        <time>2017-01-26T09:16:13Z</time>
      </trkpt>
      <trkpt lat="44.656" lon="-0.22315">
        <ele>75.6</ele>
        <time>2017-01-26T09:16:31Z</time>
      </trkpt>
      <trkpt lat="44.65604" lon="-0.22309">
        <ele>75.6</ele>
        <time>2017-01-26T09:16:36Z</time>
      </trkpt>
      <trkpt lat="44.65607" lon="-0.22305">
        <ele>72.72</ele>
        <time>2017-01-26T09:16:40Z</time>
      </trkpt>
      <trkpt lat="44.65608" lon="-0.22305">
        <ele>80.41</ele>
        <time>2017-01-26T09:16:41Z</time>
      </trkpt>
      <trkpt lat="44.65609" lon="-0.22304">
        <ele>74.16</ele>
        <time>2017-01-26T09:16:42Z</time>
      </trkpt>
      <trkpt lat="44.6562" lon="-0.22287">
        <ele>75.6</ele>
        <time>2017-01-26T09:16:56Z</time>
      </trkpt>
      <trkpt lat="44.65616" lon="-0.22275">
        <ele>75.6</ele>
        <time>2017-01-26T09:17:04Z</time>
      </trkpt>
      <trkpt lat="44.65612" lon="-0.22266">
        <ele>76.08</ele>
        <time>2017-01-26T09:17:11Z</time>
      </trkpt>
      <trkpt lat="44.65602" lon="-0.22242">
        <ele>76.56</ele>
        <time>2017-01-26T09:17:27Z</time>
      </trkpt>
      <trkpt lat="44.65592" lon="-0.22219">
        <ele>77.04</ele>
        <time>2017-01-26T09:17:43Z</time>
      </trkpt>
      <trkpt lat="44.65583" lon="-0.22204">
        <ele>77.52</ele>
        <time>2017-01-26T09:17:54Z</time>
      </trkpt>
      <trkpt lat="44.6557" lon="-0.2218">
        <ele>77.52</ele>
        <time>2017-01-26T09:18:12Z</time>
      </trkpt>
      <trkpt lat="44.65569" lon="-0.22179">
        <ele>73.68</ele>
        <time>2017-01-26T09:18:14Z</time>
      </trkpt>
      <trkpt lat="44.65569" lon="-0.22179">
        <ele>78.97</ele>
        <time>2017-01-26T09:18:15Z</time>
      </trkpt>
      <trkpt lat="44.65568" lon="-0.22178">
        <ele>77.52</ele>
        <time>2017-01-26T09:18:19Z</time>
      </trkpt>
      <trkpt lat="44.65569" lon="-0.22169">
        <ele>78.48</ele>
        <time>2017-01-26T09:18:27Z</time>
      </trkpt>
      <trkpt lat="44.65571" lon="-0.22166">
        <ele>78</ele>
        <time>2017-01-26T09:18:30Z</time>
      </trkpt>
      <trkpt lat="44.65581" lon="-0.22153">
        <ele>78</ele>
        <time>2017-01-26T09:18:41Z</time>
      </trkpt>
      <trkpt lat="44.65599" lon="-0.22134">
        <ele>77.04</ele>
        <time>2017-01-26T09:18:58Z</time>
      </trkpt>
      <trkpt lat="44.65611" lon="-0.22119">
        <ele>75.6</ele>
        <time>2017-01-26T09:19:12Z</time>
      </trkpt>
      <trkpt lat="44.65616" lon="-0.22114">
        <ele>75.12</ele>
        <time>2017-01-26T09:19:16Z</time>
      </trkpt>
      <trkpt lat="44.65636" lon="-0.22095">
        <ele>75.12</ele>
        <time>2017-01-26T09:19:34Z</time>
      </trkpt>
      <trkpt lat="44.6565" lon="-0.22083">
        <ele>73.2</ele>
        <time>2017-01-26T09:19:49Z</time>
      </trkpt>
      <trkpt lat="44.65665" lon="-0.22068">
        <ele>72.72</ele>
        <time>2017-01-26T09:20:03Z</time>
      </trkpt>
      <trkpt lat="44.65673" lon="-0.2206">
        <ele>72.24</ele>
        <time>2017-01-26T09:20:11Z</time>
      </trkpt>
      <trkpt lat="44.65679" lon="-0.22053">
        <ele>67.43</ele>
        <time>2017-01-26T09:20:17Z</time>
      </trkpt>
      <trkpt lat="44.6568" lon="-0.2205">
        <ele>81.85</ele>
        <time>2017-01-26T09:20:19Z</time>
      </trkpt>
      <trkpt lat="44.65681" lon="-0.22049">
        <ele>71.76</ele>
        <time>2017-01-26T09:20:20Z</time>
      </trkpt>
      <trkpt lat="44.65685" lon="-0.22042">
        <ele>70.79</ele>
        <time>2017-01-26T09:20:33Z</time>
      </trkpt>
      <trkpt lat="44.65683" lon="-0.22039">
        <ele>70.79</ele>
        <time>2017-01-26T09:20:43Z</time>
      </trkpt>
      <trkpt lat="44.65683" lon="-0.22042">
        <ele>70.79</ele>
        <time>2017-01-26T09:20:52Z</time>
      </trkpt>
      <trkpt lat="44.65682" lon="-0.22047">
        <ele>71.27</ele>
        <time>2017-01-26T09:20:57Z</time>
      </trkpt>
      <trkpt lat="44.65678" lon="-0.22047">
        <ele>71.76</ele>
        <time>2017-01-26T09:21:07Z</time>
      </trkpt>
      <trkpt lat="44.65677" lon="-0.22043">
        <ele>71.76</ele>
        <time>2017-01-26T09:21:10Z</time>
      </trkpt>
      <trkpt lat="44.65664" lon="-0.22032">
        <ele>71.76</ele>
        <time>2017-01-26T09:21:23Z</time>
      </trkpt>
      <trkpt lat="44.65647" lon="-0.22026">
        <ele>71.76</ele>
        <time>2017-01-26T09:21:37Z</time>
      </trkpt>
      <trkpt lat="44.65634" lon="-0.2202">
        <ele>72.72</ele>
        <time>2017-01-26T09:21:49Z</time>
      </trkpt>
      <trkpt lat="44.65618" lon="-0.22009">
        <ele>75.12</ele>
        <time>2017-01-26T09:22:06Z</time>
      </trkpt>
      <trkpt lat="44.65614" lon="-0.22005">
        <ele>69.83</ele>
        <time>2017-01-26T09:22:12Z</time>
      </trkpt>
      <trkpt lat="44.65613" lon="-0.22005">
        <ele>76.08</ele>
        <time>2017-01-26T09:22:13Z</time>
      </trkpt>
      <trkpt lat="44.65613" lon="-0.22005">
        <ele>70.79</ele>
        <time>2017-01-26T09:22:18Z</time>
      </trkpt>
      <trkpt lat="44.65613" lon="-0.22005">
        <ele>78</ele>
        <time>2017-01-26T09:22:20Z</time>
      </trkpt>
      <trkpt lat="44.65613" lon="-0.22004">
        <ele>73.2</ele>
        <time>2017-01-26T09:22:21Z</time>
      </trkpt>
      <trkpt lat="44.65613" lon="-0.22004">
        <ele>69.35</ele>
        <time>2017-01-26T09:22:22Z</time>
      </trkpt>
      <trkpt lat="44.65613" lon="-0.22005">
        <ele>78</ele>
        <time>2017-01-26T09:22:23Z</time>
      </trkpt>
      <trkpt lat="44.65613" lon="-0.22005">
        <ele>73.68</ele>
        <time>2017-01-26T09:22:24Z</time>
      </trkpt>
      <trkpt lat="44.65605" lon="-0.21998">
        <ele>73.68</ele>
        <time>2017-01-26T09:22:39Z</time>
      </trkpt>
      <trkpt lat="44.65601" lon="-0.21992">
        <ele>74.16</ele>
        <time>2017-01-26T09:22:45Z</time>
      </trkpt>
      <trkpt lat="44.65587" lon="-0.21975">
        <ele>74.16</ele>
        <time>2017-01-26T09:23:02Z</time>
      </trkpt>
      <trkpt lat="44.65585" lon="-0.21972">
        <ele>74.64</ele>
        <time>2017-01-26T09:23:08Z</time>
      </trkpt>
      <trkpt lat="44.65579" lon="-0.21964">
        <ele>74.64</ele>
        <time>2017-01-26T09:23:17Z</time>
      </trkpt>
      <trkpt lat="44.65564" lon="-0.21945">
        <ele>75.6</ele>
        <time>2017-01-26T09:23:34Z</time>
      </trkpt>
      <trkpt lat="44.65549" lon="-0.21924">
        <ele>75.6</ele>
        <time>2017-01-26T09:23:53Z</time>
      </trkpt>
      <trkpt lat="44.65539" lon="-0.2191">
        <ele>76.56</ele>
        <time>2017-01-26T09:24:09Z</time>
      </trkpt>
      <trkpt lat="44.65539" lon="-0.21909">
        <ele>76.08</ele>
        <time>2017-01-26T09:24:14Z</time>
      </trkpt>
      <trkpt lat="44.65536" lon="-0.21904">
        <ele>76.56</ele>
        <time>2017-01-26T09:24:19Z</time>
      </trkpt>
      <trkpt lat="44.6552" lon="-0.21883">
        <ele>76.56</ele>
        <time>2017-01-26T09:24:37Z</time>
      </trkpt>
      <trkpt lat="44.65505" lon="-0.21864">
        <ele>78</ele>
        <time>2017-01-26T09:24:54Z</time>
      </trkpt>
      <trkpt lat="44.65499" lon="-0.2184">
        <ele>78.48</ele>
        <time>2017-01-26T09:25:09Z</time>
      </trkpt>
      <trkpt lat="44.65486" lon="-0.21822">
        <ele>78.97</ele>
        <time>2017-01-26T09:25:25Z</time>
      </trkpt>
      <trkpt lat="44.65471" lon="-0.218">
        <ele>79.93</ele>
        <time>2017-01-26T09:25:42Z</time>
      </trkpt>
      <trkpt lat="44.65456" lon="-0.21779">
        <ele>81.37</ele>
        <time>2017-01-26T09:25:58Z</time>
      </trkpt>
      <trkpt lat="44.65441" lon="-0.21755">
        <ele>82.33</ele>
        <time>2017-01-26T09:26:15Z</time>
      </trkpt>
      <trkpt lat="44.65428" lon="-0.21737">
        <ele>83.77</ele>
        <time>2017-01-26T09:26:29Z</time>
      </trkpt>
      <trkpt lat="44.65413" lon="-0.21713">
        <ele>85.69</ele>
        <time>2017-01-26T09:26:48Z</time>
      </trkpt>
      <trkpt lat="44.65407" lon="-0.21702">
        <ele>86.66</ele>
        <time>2017-01-26T09:27:05Z</time>
      </trkpt>
      <trkpt lat="44.654" lon="-0.21691">
        <ele>87.14</ele>
        <time>2017-01-26T09:27:19Z</time>
      </trkpt>
      <trkpt lat="44.6539" lon="-0.21679">
        <ele>88.58</ele>
        <time>2017-01-26T09:27:32Z</time>
      </trkpt>
      <trkpt lat="44.65376" lon="-0.21659">
        <ele>90.02</ele>
        <time>2017-01-26T09:27:50Z</time>
      </trkpt>
      <trkpt lat="44.65374" lon="-0.21657">
        <ele>90.02</ele>
        <time>2017-01-26T09:27:52Z</time>
      </trkpt>
      <trkpt lat="44.65365" lon="-0.21648">
        <ele>90.98</ele>
        <time>2017-01-26T09:28:01Z</time>
      </trkpt>
      <trkpt lat="44.65351" lon="-0.21626">
        <ele>92.42</ele>
        <time>2017-01-26T09:28:18Z</time>
      </trkpt>
      <trkpt lat="44.65345" lon="-0.21614">
        <ele>93.39</ele>
        <time>2017-01-26T09:28:27Z</time>
      </trkpt>
      <trkpt lat="44.65331" lon="-0.21592">
        <ele>94.83</ele>
        <time>2017-01-26T09:28:44Z</time>
      </trkpt>
      <trkpt lat="44.65328" lon="-0.21576">
        <ele>95.79</ele>
        <time>2017-01-26T09:28:58Z</time>
      </trkpt>
      <trkpt lat="44.65335" lon="-0.21571">
        <ele>96.27</ele>
        <time>2017-01-26T09:29:05Z</time>
      </trkpt>
      <trkpt lat="44.65337" lon="-0.21569">
        <ele>96.27</ele>
        <time>2017-01-26T09:29:08Z</time>
      </trkpt>
      <trkpt lat="44.65353" lon="-0.2155">
        <ele>96.27</ele>
        <time>2017-01-26T09:29:25Z</time>
      </trkpt>
      <trkpt lat="44.65358" lon="-0.21544">
        <ele>95.79</ele>
        <time>2017-01-26T09:29:30Z</time>
      </trkpt>
      <trkpt lat="44.65368" lon="-0.21531">
        <ele>94.83</ele>
        <time>2017-01-26T09:29:41Z</time>
      </trkpt>
      <trkpt lat="44.65386" lon="-0.21507">
        <ele>93.39</ele>
        <time>2017-01-26T09:30:01Z</time>
      </trkpt>
      <trkpt lat="44.65392" lon="-0.21501">
        <ele>92.9</ele>
        <time>2017-01-26T09:30:07Z</time>
      </trkpt>
      <trkpt lat="44.65405" lon="-0.21486">
        <ele>92.42</ele>
        <time>2017-01-26T09:30:19Z</time>
      </trkpt>
      <trkpt lat="44.65411" lon="-0.21479">
        <ele>92.42</ele>
        <time>2017-01-26T09:30:25Z</time>
      </trkpt>
      <trkpt lat="44.65425" lon="-0.21461">
        <ele>91.46</ele>
        <time>2017-01-26T09:30:41Z</time>
      </trkpt>
      <trkpt lat="44.65429" lon="-0.21455">
        <ele>90.98</ele>
        <time>2017-01-26T09:30:47Z</time>
      </trkpt>
      <trkpt lat="44.65437" lon="-0.21446">
        <ele>90.5</ele>
        <time>2017-01-26T09:30:55Z</time>
      </trkpt>
      <trkpt lat="44.65443" lon="-0.21437">
        <ele>89.54</ele>
        <time>2017-01-26T09:31:02Z</time>
      </trkpt>
      <trkpt lat="44.65444" lon="-0.21434">
        <ele>89.06</ele>
        <time>2017-01-26T09:31:04Z</time>
      </trkpt>
      <trkpt lat="44.65453" lon="-0.21417">
        <ele>86.18</ele>
        <time>2017-01-26T09:31:19Z</time>
      </trkpt>
      <trkpt lat="44.65455" lon="-0.21411">
        <ele>85.69</ele>
        <time>2017-01-26T09:31:23Z</time>
      </trkpt>
      <trkpt lat="44.65469" lon="-0.21389">
        <ele>81.85</ele>
        <time>2017-01-26T09:31:40Z</time>
      </trkpt>
      <trkpt lat="44.65472" lon="-0.21385">
        <ele>81.37</ele>
        <time>2017-01-26T09:31:43Z</time>
      </trkpt>
      <trkpt lat="44.65475" lon="-0.21382">
        <ele>80.89</ele>
        <time>2017-01-26T09:31:47Z</time>
      </trkpt>
      <trkpt lat="44.65484" lon="-0.21366">
        <ele>78.48</ele>
        <time>2017-01-26T09:32:01Z</time>
      </trkpt>
      <trkpt lat="44.65495" lon="-0.2135">
        <ele>77.52</ele>
        <time>2017-01-26T09:32:14Z</time>
      </trkpt>
      <trkpt lat="44.65505" lon="-0.2133">
        <ele>76.56</ele>
        <time>2017-01-26T09:32:29Z</time>
      </trkpt>
      <trkpt lat="44.65516" lon="-0.21314">
        <ele>75.6</ele>
        <time>2017-01-26T09:32:42Z</time>
      </trkpt>
      <trkpt lat="44.65527" lon="-0.21293">
        <ele>74.64</ele>
        <time>2017-01-26T09:32:57Z</time>
      </trkpt>
      <trkpt lat="44.6554" lon="-0.2127">
        <ele>73.68</ele>
        <time>2017-01-26T09:33:13Z</time>
      </trkpt>
      <trkpt lat="44.65543" lon="-0.21266">
        <ele>73.68</ele>
        <time>2017-01-26T09:33:16Z</time>
      </trkpt>
      <trkpt lat="44.65552" lon="-0.2125">
        <ele>73.2</ele>
        <time>2017-01-26T09:33:27Z</time>
      </trkpt>
      <trkpt lat="44.65555" lon="-0.21243">
        <ele>72.72</ele>
        <time>2017-01-26T09:33:32Z</time>
      </trkpt>
      <trkpt lat="44.65556" lon="-0.21241">
        <ele>72.72</ele>
        <time>2017-01-26T09:33:34Z</time>
      </trkpt>
      <trkpt lat="44.65563" lon="-0.21229">
        <ele>73.2</ele>
        <time>2017-01-26T09:33:44Z</time>
      </trkpt>
      <trkpt lat="44.65565" lon="-0.21228">
        <ele>73.2</ele>
        <time>2017-01-26T09:33:46Z</time>
      </trkpt>
      <trkpt lat="44.65573" lon="-0.21217">
        <ele>72.72</ele>
        <time>2017-01-26T09:33:56Z</time>
      </trkpt>
      <trkpt lat="44.65588" lon="-0.21193">
        <ele>72.24</ele>
        <time>2017-01-26T09:34:14Z</time>
      </trkpt>
      <trkpt lat="44.65602" lon="-0.21171">
        <ele>72.24</ele>
        <time>2017-01-26T09:34:30Z</time>
      </trkpt>
      <trkpt lat="44.65608" lon="-0.21162">
        <ele>72.24</ele>
        <time>2017-01-26T09:34:38Z</time>
      </trkpt>
      <trkpt lat="44.65613" lon="-0.21153">
        <ele>72.24</ele>
        <time>2017-01-26T09:34:45Z</time>
      </trkpt>
      <trkpt lat="44.65616" lon="-0.21149">
        <ele>72.24</ele>
        <time>2017-01-26T09:34:48Z</time>
      </trkpt>
      <trkpt lat="44.65627" lon="-0.2113">
        <ele>71.27</ele>
        <time>2017-01-26T09:35:02Z</time>
      </trkpt>
      <trkpt lat="44.65634" lon="-0.21111">
        <ele>71.76</ele>
        <time>2017-01-26T09:35:17Z</time>
      </trkpt>
      <trkpt lat="44.65628" lon="-0.21107">
        <ele>71.76</ele>
        <time>2017-01-26T09:35:22Z</time>
      </trkpt>
      <trkpt lat="44.65611" lon="-0.21094">
        <ele>72.72</ele>
        <time>2017-01-26T09:35:39Z</time>
      </trkpt>
      <trkpt lat="44.65597" lon="-0.21084">
        <ele>73.2</ele>
        <time>2017-01-26T09:35:54Z</time>
      </trkpt>
      <trkpt lat="44.65581" lon="-0.21072">
        <ele>74.16</ele>
        <time>2017-01-26T09:36:08Z</time>
      </trkpt>
      <trkpt lat="44.65565" lon="-0.21059">
        <ele>74.64</ele>
        <time>2017-01-26T09:36:24Z</time>
      </trkpt>
      <trkpt lat="44.65564" lon="-0.21058">
        <ele>75.12</ele>
        <time>2017-01-26T09:36:25Z</time>
      </trkpt>
      <trkpt lat="44.6555" lon="-0.21047">
        <ele>76.08</ele>
        <time>2017-01-26T09:36:37Z</time>
      </trkpt>
      <trkpt lat="44.65539" lon="-0.2104">
        <ele>77.04</ele>
        <time>2017-01-26T09:36:48Z</time>
      </trkpt>
      <trkpt lat="44.65528" lon="-0.21031">
        <ele>77.52</ele>
        <time>2017-01-26T09:37:01Z</time>
      </trkpt>
      <trkpt lat="44.65522" lon="-0.21026">
        <ele>78.48</ele>
        <time>2017-01-26T09:37:07Z</time>
      </trkpt>
      <trkpt lat="44.6552" lon="-0.21024">
        <ele>78.48</ele>
        <time>2017-01-26T09:37:09Z</time>
      </trkpt>
      <trkpt lat="44.65514" lon="-0.21019">
        <ele>78.97</ele>
        <time>2017-01-26T09:37:16Z</time>
      </trkpt>
      <trkpt lat="44.65508" lon="-0.21014">
        <ele>79.45</ele>
        <time>2017-01-26T09:37:23Z</time>
      </trkpt>
      <trkpt lat="44.65493" lon="-0.21002">
        <ele>80.89</ele>
        <time>2017-01-26T09:37:37Z</time>
      </trkpt>
      <trkpt lat="44.6549" lon="-0.2099">
        <ele>81.85</ele>
        <time>2017-01-26T09:37:52Z</time>
      </trkpt>
      <trkpt lat="44.65489" lon="-0.20982">
        <ele>81.85</ele>
        <time>2017-01-26T09:38:02Z</time>
      </trkpt>
      <trkpt lat="44.65487" lon="-0.20974">
        <ele>82.33</ele>
        <time>2017-01-26T09:38:07Z</time>
      </trkpt>
      <trkpt lat="44.65485" lon="-0.20948">
        <ele>83.29</ele>
        <time>2017-01-26T09:38:25Z</time>
      </trkpt>
      <trkpt lat="44.65481" lon="-0.20936">
        <ele>83.29</ele>
        <time>2017-01-26T09:38:33Z</time>
      </trkpt>
      <trkpt lat="44.65478" lon="-0.20916">
        <ele>82.81</ele>
        <time>2017-01-26T09:38:45Z</time>
      </trkpt>
      <trkpt lat="44.65475" lon="-0.20896">
        <ele>83.29</ele>
        <time>2017-01-26T09:38:59Z</time>
      </trkpt>
      <trkpt lat="44.65469" lon="-0.2087">
        <ele>83.29</ele>
        <time>2017-01-26T09:39:15Z</time>
      </trkpt>
      <trkpt lat="44.65468" lon="-0.20869">
        <ele>83.29</ele>
        <time>2017-01-26T09:39:16Z</time>
      </trkpt>
      <trkpt lat="44.65464" lon="-0.20848">
        <ele>83.29</ele>
        <time>2017-01-26T09:39:31Z</time>
      </trkpt>
      <trkpt lat="44.65463" lon="-0.20836">
        <ele>83.29</ele>
        <time>2017-01-26T09:39:41Z</time>
      </trkpt>
      <trkpt lat="44.65459" lon="-0.20814">
        <ele>82.81</ele>
        <time>2017-01-26T09:39:56Z</time>
      </trkpt>
      <trkpt lat="44.65459" lon="-0.2081">
        <ele>83.77</ele>
        <time>2017-01-26T09:40:05Z</time>
      </trkpt>
      <trkpt lat="44.65459" lon="-0.20809">
        <ele>83.77</ele>
        <time>2017-01-26T09:40:07Z</time>
      </trkpt>
      <trkpt lat="44.65458" lon="-0.20807">
        <ele>82.81</ele>
        <time>2017-01-26T09:40:10Z</time>
      </trkpt>
      <trkpt lat="44.65451" lon="-0.20801">
        <ele>83.29</ele>
        <time>2017-01-26T09:40:20Z</time>
      </trkpt>
      <trkpt lat="44.65448" lon="-0.20801">
        <ele>83.29</ele>
        <time>2017-01-26T09:40:23Z</time>
      </trkpt>
      <trkpt lat="44.65443" lon="-0.208">
        <ele>83.77</ele>
        <time>2017-01-26T09:40:38Z</time>
      </trkpt>
      <trkpt lat="44.65436" lon="-0.20799">
        <ele>84.25</ele>
        <time>2017-01-26T09:41:01Z</time>
      </trkpt>
      <trkpt lat="44.65435" lon="-0.20799">
        <ele>84.25</ele>
        <time>2017-01-26T09:41:02Z</time>
      </trkpt>
      <trkpt lat="44.65427" lon="-0.208">
        <ele>84.73</ele>
        <time>2017-01-26T09:41:09Z</time>
      </trkpt>
      <trkpt lat="44.65405" lon="-0.208">
        <ele>85.69</ele>
        <time>2017-01-26T09:41:28Z</time>
      </trkpt>
      <trkpt lat="44.65402" lon="-0.20801">
        <ele>85.69</ele>
        <time>2017-01-26T09:41:31Z</time>
      </trkpt>
      <trkpt lat="44.65395" lon="-0.20799">
        <ele>86.18</ele>
        <time>2017-01-26T09:41:38Z</time>
      </trkpt>
      <trkpt lat="44.65386" lon="-0.208">
        <ele>86.66</ele>
        <time>2017-01-26T09:41:46Z</time>
      </trkpt>
      <trkpt lat="44.65366" lon="-0.20797">
        <ele>87.62</ele>
        <time>2017-01-26T09:42:03Z</time>
      </trkpt>
      <trkpt lat="44.65365" lon="-0.20791">
        <ele>87.62</ele>
        <time>2017-01-26T09:42:07Z</time>
      </trkpt>
      <trkpt lat="44.65364" lon="-0.20765">
        <ele>86.66</ele>
        <time>2017-01-26T09:42:23Z</time>
      </trkpt>
      <trkpt lat="44.65365" lon="-0.20751">
        <ele>85.69</ele>
        <time>2017-01-26T09:42:32Z</time>
      </trkpt>
      <trkpt lat="44.65365" lon="-0.20716">
        <ele>84.73</ele>
        <time>2017-01-26T09:42:52Z</time>
      </trkpt>
      <trkpt lat="44.65364" lon="-0.20683">
        <ele>83.29</ele>
        <time>2017-01-26T09:43:10Z</time>
      </trkpt>
      <trkpt lat="44.65364" lon="-0.20652">
        <ele>82.81</ele>
        <time>2017-01-26T09:43:29Z</time>
      </trkpt>
      <trkpt lat="44.65362" lon="-0.20622">
        <ele>82.33</ele>
        <time>2017-01-26T09:43:46Z</time>
      </trkpt>
      <trkpt lat="44.65362" lon="-0.20593">
        <ele>80.89</ele>
        <time>2017-01-26T09:44:02Z</time>
      </trkpt>
      <trkpt lat="44.65359" lon="-0.20587">
        <ele>80.41</ele>
        <time>2017-01-26T09:44:08Z</time>
      </trkpt>
      <trkpt lat="44.65343" lon="-0.20577">
        <ele>78.97</ele>
        <time>2017-01-26T09:44:22Z</time>
      </trkpt>
      <trkpt lat="44.65342" lon="-0.20577">
        <ele>78.48</ele>
        <time>2017-01-26T09:44:23Z</time>
      </trkpt>
      <trkpt lat="44.6534" lon="-0.20576">
        <ele>78.48</ele>
        <time>2017-01-26T09:44:25Z</time>
      </trkpt>
      <trkpt lat="44.65332" lon="-0.20574">
        <ele>78</ele>
        <time>2017-01-26T09:44:33Z</time>
      </trkpt>
      <trkpt lat="44.65333" lon="-0.20573">
        <ele>78.48</ele>
        <time>2017-01-26T09:44:35Z</time>
      </trkpt>
      <trkpt lat="44.65335" lon="-0.20575">
        <ele>78.48</ele>
        <time>2017-01-26T09:44:37Z</time>
      </trkpt>
      <trkpt lat="44.65353" lon="-0.20579">
        <ele>80.41</ele>
        <time>2017-01-26T09:44:53Z</time>
      </trkpt>
      <trkpt lat="44.65356" lon="-0.20573">
        <ele>80.41</ele>
        <time>2017-01-26T09:45:08Z</time>
      </trkpt>
      <trkpt lat="44.65357" lon="-0.2057">
        <ele>79.93</ele>
        <time>2017-01-26T09:45:18Z</time>
      </trkpt>
      <trkpt lat="44.6536" lon="-0.20544">
        <ele>78.48</ele>
        <time>2017-01-26T09:45:35Z</time>
      </trkpt>
      <trkpt lat="44.65362" lon="-0.20521">
        <ele>77.52</ele>
        <time>2017-01-26T09:45:48Z</time>
      </trkpt>
      <trkpt lat="44.65363" lon="-0.20495">
        <ele>76.56</ele>
        <time>2017-01-26T09:46:04Z</time>
      </trkpt>
      <trkpt lat="44.65363" lon="-0.20487">
        <ele>75.6</ele>
        <time>2017-01-26T09:46:09Z</time>
      </trkpt>
      <trkpt lat="44.65355" lon="-0.20485">
        <ele>75.6</ele>
        <time>2017-01-26T09:46:18Z</time>
      </trkpt>
      <trkpt lat="44.65337" lon="-0.20485">
        <ele>75.6</ele>
        <time>2017-01-26T09:46:34Z</time>
      </trkpt>
      <trkpt lat="44.65322" lon="-0.20481">
        <ele>74.64</ele>
        <time>2017-01-26T09:46:49Z</time>
      </trkpt>
      <trkpt lat="44.65313" lon="-0.20475">
        <ele>72.72</ele>
        <time>2017-01-26T09:47:04Z</time>
      </trkpt>
      <trkpt lat="44.65309" lon="-0.20465">
        <ele>72.24</ele>
        <time>2017-01-26T09:47:18Z</time>
      </trkpt>
      <trkpt lat="44.65309" lon="-0.20469">
        <ele>72.72</ele>
        <time>2017-01-26T09:47:29Z</time>
      </trkpt>
      <trkpt lat="44.65301" lon="-0.20476">
        <ele>72.24</ele>
        <time>2017-01-26T09:47:38Z</time>
      </trkpt>
      <trkpt lat="44.65296" lon="-0.20477">
        <ele>70.79</ele>
        <time>2017-01-26T09:47:43Z</time>
      </trkpt>
      <trkpt lat="44.65279" lon="-0.20473">
        <ele>68.39</ele>
        <time>2017-01-26T09:48:00Z</time>
      </trkpt>
      <trkpt lat="44.6527" lon="-0.20469">
        <ele>67.91</ele>
        <time>2017-01-26T09:48:15Z</time>
      </trkpt>
      <trkpt lat="44.65269" lon="-0.20468">
        <ele>67.43</ele>
        <time>2017-01-26T09:48:25Z</time>
      </trkpt>
      <trkpt lat="44.65262" lon="-0.2046">
        <ele>65.99</ele>
        <time>2017-01-26T09:48:34Z</time>
      </trkpt>
      <trkpt lat="44.65262" lon="-0.20442">
        <ele>65.51</ele>
        <time>2017-01-26T09:48:48Z</time>
      </trkpt>
      <trkpt lat="44.65263" lon="-0.20439">
        <ele>65.99</ele>
        <time>2017-01-26T09:48:50Z</time>
      </trkpt>
      <trkpt lat="44.65265" lon="-0.20422">
        <ele>65.03</ele>
        <time>2017-01-26T09:49:02Z</time>
      </trkpt>
      <trkpt lat="44.65267" lon="-0.20408">
        <ele>64.55</ele>
        <time>2017-01-26T09:49:17Z</time>
      </trkpt>
      <trkpt lat="44.65267" lon="-0.20406">
        <ele>64.55</ele>
        <time>2017-01-26T09:49:28Z</time>
      </trkpt>
      <trkpt lat="44.65268" lon="-0.204">
        <ele>64.55</ele>
        <time>2017-01-26T09:49:42Z</time>
      </trkpt>
      <trkpt lat="44.65269" lon="-0.20386">
        <ele>64.07</ele>
        <time>2017-01-26T09:49:54Z</time>
      </trkpt>
      <trkpt lat="44.6527" lon="-0.20383">
        <ele>64.07</ele>
        <time>2017-01-26T09:49:57Z</time>
      </trkpt>
      <trkpt lat="44.65272" lon="-0.20363">
        <ele>63.58</ele>
        <time>2017-01-26T09:50:12Z</time>
      </trkpt>
      <trkpt lat="44.65274" lon="-0.2034">
        <ele>62.62</ele>
        <time>2017-01-26T09:50:28Z</time>
      </trkpt>
      <trkpt lat="44.65276" lon="-0.20321">
        <ele>63.1</ele>
        <time>2017-01-26T09:50:43Z</time>
      </trkpt>
      <trkpt lat="44.65284" lon="-0.20304">
        <ele>63.58</ele>
        <time>2017-01-26T09:50:58Z</time>
      </trkpt>
      <trkpt lat="44.65286" lon="-0.20301">
        <ele>63.1</ele>
        <time>2017-01-26T09:51:01Z</time>
      </trkpt>
      <trkpt lat="44.65294" lon="-0.20286">
        <ele>62.14</ele>
        <time>2017-01-26T09:51:15Z</time>
      </trkpt>
      <trkpt lat="44.653" lon="-0.20275">
        <ele>62.14</ele>
        <time>2017-01-26T09:51:26Z</time>
      </trkpt>
      <trkpt lat="44.65304" lon="-0.2027">
        <ele>61.66</ele>
        <time>2017-01-26T09:51:32Z</time>
      </trkpt>
      <trkpt lat="44.65311" lon="-0.20258">
        <ele>62.14</ele>
        <time>2017-01-26T09:51:46Z</time>
      </trkpt>
      <trkpt lat="44.65314" lon="-0.20254">
        <ele>62.14</ele>
        <time>2017-01-26T09:51:50Z</time>
      </trkpt>
      <trkpt lat="44.65323" lon="-0.20236">
        <ele>61.66</ele>
        <time>2017-01-26T09:52:07Z</time>
      </trkpt>
      <trkpt lat="44.65333" lon="-0.20219">
        <ele>62.14</ele>
        <time>2017-01-26T09:52:24Z</time>
      </trkpt>
      <trkpt lat="44.65342" lon="-0.20203">
        <ele>61.66</ele>
        <time>2017-01-26T09:52:40Z</time>
      </trkpt>
      <trkpt lat="44.65341" lon="-0.20184">
        <ele>61.18</ele>
        <time>2017-01-26T09:52:53Z</time>
      </trkpt>
      <trkpt lat="44.65341" lon="-0.20182">
        <ele>60.7</ele>
        <time>2017-01-26T09:52:55Z</time>
      </trkpt>
      <trkpt lat="44.65338" lon="-0.20162">
        <ele>60.7</ele>
        <time>2017-01-26T09:53:09Z</time>
      </trkpt>
      <trkpt lat="44.65338" lon="-0.2016">
        <ele>60.7</ele>
        <time>2017-01-26T09:53:11Z</time>
      </trkpt>
      <trkpt lat="44.65334" lon="-0.20157">
        <ele>61.18</ele>
        <time>2017-01-26T09:53:15Z</time>
      </trkpt>
      <trkpt lat="44.65318" lon="-0.20162">
        <ele>61.66</ele>
        <time>2017-01-26T09:53:32Z</time>
      </trkpt>
      <trkpt lat="44.65306" lon="-0.20166">
        <ele>61.66</ele>
        <time>2017-01-26T09:53:46Z</time>
      </trkpt>
      <trkpt lat="44.6529" lon="-0.20174">
        <ele>61.66</ele>
        <time>2017-01-26T09:54:02Z</time>
      </trkpt>
      <trkpt lat="44.65286" lon="-0.20176">
        <ele>61.66</ele>
        <time>2017-01-26T09:54:06Z</time>
      </trkpt>
      <trkpt lat="44.65283" lon="-0.20186">
        <ele>62.14</ele>
        <time>2017-01-26T09:54:13Z</time>
      </trkpt>
      <trkpt lat="44.65278" lon="-0.20205">
        <ele>62.14</ele>
        <time>2017-01-26T09:54:29Z</time>
      </trkpt>
      <trkpt lat="44.65273" lon="-0.2021">
        <ele>62.14</ele>
        <time>2017-01-26T09:54:36Z</time>
      </trkpt>
      <trkpt lat="44.6527" lon="-0.2021">
        <ele>61.66</ele>
        <time>2017-01-26T09:54:39Z</time>
      </trkpt>
      <trkpt lat="44.65268" lon="-0.2021">
        <ele>57.82</ele>
        <time>2017-01-26T09:54:45Z</time>
      </trkpt>
      <trkpt lat="44.65268" lon="-0.2021">
        <ele>64.55</ele>
        <time>2017-01-26T09:54:46Z</time>
      </trkpt>
      <trkpt lat="44.65256" lon="-0.20215">
        <ele>62.14</ele>
        <time>2017-01-26T09:54:59Z</time>
      </trkpt>
      <trkpt lat="44.65241" lon="-0.20219">
        <ele>62.62</ele>
        <time>2017-01-26T09:55:15Z</time>
      </trkpt>
      <trkpt lat="44.65228" lon="-0.2022">
        <ele>62.14</ele>
        <time>2017-01-26T09:55:27Z</time>
      </trkpt>
      <trkpt lat="44.65224" lon="-0.2022">
        <ele>62.62</ele>
        <time>2017-01-26T09:55:31Z</time>
      </trkpt>
      <trkpt lat="44.65219" lon="-0.20221">
        <ele>62.62</ele>
        <time>2017-01-26T09:55:36Z</time>
      </trkpt>
      <trkpt lat="44.65203" lon="-0.20221">
        <ele>63.1</ele>
        <time>2017-01-26T09:55:53Z</time>
      </trkpt>
      <trkpt lat="44.65197" lon="-0.2022">
        <ele>64.07</ele>
        <time>2017-01-26T09:55:59Z</time>
      </trkpt>
      <trkpt lat="44.65192" lon="-0.20218">
        <ele>59.74</ele>
        <time>2017-01-26T09:56:05Z</time>
      </trkpt>
      <trkpt lat="44.65191" lon="-0.20218">
        <ele>64.55</ele>
        <time>2017-01-26T09:56:06Z</time>
      </trkpt>
      <trkpt lat="44.6519" lon="-0.20218">
        <ele>71.76</ele>
        <time>2017-01-26T09:56:07Z</time>
      </trkpt>
      <trkpt lat="44.6519" lon="-0.20218">
        <ele>65.51</ele>
        <time>2017-01-26T09:56:08Z</time>
      </trkpt>
      <trkpt lat="44.65189" lon="-0.20218">
        <ele>65.03</ele>
        <time>2017-01-26T09:56:09Z</time>
      </trkpt>
      <trkpt lat="44.65179" lon="-0.20216">
        <ele>65.03</ele>
        <time>2017-01-26T09:56:22Z</time>
      </trkpt>
      <trkpt lat="44.65177" lon="-0.20211">
        <ele>65.03</ele>
        <time>2017-01-26T09:56:28Z</time>
      </trkpt>
      <trkpt lat="44.65176" lon="-0.20203">
        <ele>65.51</ele>
        <time>2017-01-26T09:56:38Z</time>
      </trkpt>
      <trkpt lat="44.65175" lon="-0.20185">
        <ele>65.03</ele>
        <time>2017-01-26T09:56:53Z</time>
      </trkpt>
      <trkpt lat="44.65174" lon="-0.20183">
        <ele>63.58</ele>
        <time>2017-01-26T09:56:55Z</time>
      </trkpt>
      <trkpt lat="44.65172" lon="-0.20179">
        <ele>65.51</ele>
        <time>2017-01-26T09:57:06Z</time>
      </trkpt>
      <trkpt lat="44.65169" lon="-0.20178">
        <ele>65.03</ele>
        <time>2017-01-26T09:57:15Z</time>
      </trkpt>
      <trkpt lat="44.65144" lon="-0.20174">
        <ele>64.55</ele>
        <time>2017-01-26T09:57:36Z</time>
      </trkpt>
      <trkpt lat="44.65126" lon="-0.20172">
        <ele>64.55</ele>
        <time>2017-01-26T09:57:52Z</time>
      </trkpt>
      <trkpt lat="44.65104" lon="-0.20169">
        <ele>65.03</ele>
        <time>2017-01-26T09:58:11Z</time>
      </trkpt>
      <trkpt lat="44.65081" lon="-0.20166">
        <ele>65.51</ele>
        <time>2017-01-26T09:58:30Z</time>
      </trkpt>
      <trkpt lat="44.65063" lon="-0.20165">
        <ele>65.99</ele>
        <time>2017-01-26T09:58:44Z</time>
      </trkpt>
      <trkpt lat="44.65058" lon="-0.20164">
        <ele>65.99</ele>
        <time>2017-01-26T09:58:48Z</time>
      </trkpt>
      <trkpt lat="44.65044" lon="-0.20161">
        <ele>66.47</ele>
        <time>2017-01-26T09:58:59Z</time>
      </trkpt>
      <trkpt lat="44.65025" lon="-0.20158">
        <ele>66.95</ele>
        <time>2017-01-26T09:59:15Z</time>
      </trkpt>
      <trkpt lat="44.65021" lon="-0.20158">
        <ele>65.99</ele>
        <time>2017-01-26T09:59:18Z</time>
      </trkpt>
      <trkpt lat="44.65" lon="-0.20148">
        <ele>67.43</ele>
        <time>2017-01-26T09:59:36Z</time>
      </trkpt>
      <trkpt lat="44.64982" lon="-0.20134">
        <ele>66.95</ele>
        <time>2017-01-26T09:59:53Z</time>
      </trkpt>
      <trkpt lat="44.64964" lon="-0.2012">
        <ele>67.91</ele>
        <time>2017-01-26T10:00:09Z</time>
      </trkpt>
      <trkpt lat="44.64963" lon="-0.20119">
        <ele>64.55</ele>
        <time>2017-01-26T10:00:10Z</time>
      </trkpt>
      <trkpt lat="44.64962" lon="-0.20118">
        <ele>68.39</ele>
        <time>2017-01-26T10:00:11Z</time>
      </trkpt>
      <trkpt lat="44.64957" lon="-0.20114">
        <ele>67.91</ele>
        <time>2017-01-26T10:00:18Z</time>
      </trkpt>
      <trkpt lat="44.64955" lon="-0.20113">
        <ele>67.43</ele>
        <time>2017-01-26T10:00:20Z</time>
      </trkpt>
      <trkpt lat="44.64929" lon="-0.20091">
        <ele>67.43</ele>
        <time>2017-01-26T10:00:43Z</time>
      </trkpt>
      <trkpt lat="44.64909" lon="-0.20076">
        <ele>68.39</ele>
        <time>2017-01-26T10:01:01Z</time>
      </trkpt>
      <trkpt lat="44.64885" lon="-0.20055">
        <ele>68.87</ele>
        <time>2017-01-26T10:01:22Z</time>
      </trkpt>
      <trkpt lat="44.64869" lon="-0.20037">
        <ele>69.83</ele>
        <time>2017-01-26T10:01:39Z</time>
      </trkpt>
      <trkpt lat="44.64855" lon="-0.2002">
        <ele>70.31</ele>
        <time>2017-01-26T10:01:53Z</time>
      </trkpt>
      <trkpt lat="44.6484" lon="-0.19999">
        <ele>70.79</ele>
        <time>2017-01-26T10:02:10Z</time>
      </trkpt>
      <trkpt lat="44.64823" lon="-0.19976">
        <ele>71.27</ele>
        <time>2017-01-26T10:02:29Z</time>
      </trkpt>
      <trkpt lat="44.64807" lon="-0.19952">
        <ele>71.27</ele>
        <time>2017-01-26T10:02:47Z</time>
      </trkpt>
      <trkpt lat="44.64794" lon="-0.19932">
        <ele>71.76</ele>
        <time>2017-01-26T10:03:03Z</time>
      </trkpt>
      <trkpt lat="44.64777" lon="-0.19904">
        <ele>72.24</ele>
        <time>2017-01-26T10:03:23Z</time>
      </trkpt>
      <trkpt lat="44.64763" lon="-0.1988">
        <ele>72.72</ele>
        <time>2017-01-26T10:03:40Z</time>
      </trkpt>
      <trkpt lat="44.64748" lon="-0.19856">
        <ele>73.68</ele>
        <time>2017-01-26T10:03:58Z</time>
      </trkpt>
      <trkpt lat="44.64736" lon="-0.19834">
        <ele>75.12</ele>
        <time>2017-01-26T10:04:15Z</time>
      </trkpt>
      <trkpt lat="44.64736" lon="-0.19833">
        <ele>74.64</ele>
        <time>2017-01-26T10:04:18Z</time>
      </trkpt>
      <trkpt lat="44.64732" lon="-0.19825">
        <ele>74.64</ele>
        <time>2017-01-26T10:04:24Z</time>
      </trkpt>
      <trkpt lat="44.6473" lon="-0.19822">
        <ele>74.64</ele>
        <time>2017-01-26T10:04:26Z</time>
      </trkpt>
      <trkpt lat="44.64723" lon="-0.19792">
        <ele>75.6</ele>
        <time>2017-01-26T10:04:44Z</time>
      </trkpt>
      <trkpt lat="44.64718" lon="-0.19765">
        <ele>76.56</ele>
        <time>2017-01-26T10:05:01Z</time>
      </trkpt>
      <trkpt lat="44.64715" lon="-0.1975">
        <ele>76.08</ele>
        <time>2017-01-26T10:05:10Z</time>
      </trkpt>
      <trkpt lat="44.64711" lon="-0.19725">
        <ele>76.08</ele>
        <time>2017-01-26T10:05:24Z</time>
      </trkpt>
      <trkpt lat="44.64706" lon="-0.19703">
        <ele>75.12</ele>
        <time>2017-01-26T10:05:37Z</time>
      </trkpt>
      <trkpt lat="44.64702" lon="-0.19677">
        <ele>74.64</ele>
        <time>2017-01-26T10:05:51Z</time>
      </trkpt>
      <trkpt lat="44.64701" lon="-0.1967">
        <ele>74.64</ele>
        <time>2017-01-26T10:05:56Z</time>
      </trkpt>
      <trkpt lat="44.64695" lon="-0.19646">
        <ele>74.16</ele>
        <time>2017-01-26T10:06:11Z</time>
      </trkpt>
      <trkpt lat="44.64688" lon="-0.19624">
        <ele>74.16</ele>
        <time>2017-01-26T10:06:25Z</time>
      </trkpt>
      <trkpt lat="44.64679" lon="-0.19596">
        <ele>73.68</ele>
        <time>2017-01-26T10:06:43Z</time>
      </trkpt>
      <trkpt lat="44.64679" lon="-0.19592">
        <ele>73.68</ele>
        <time>2017-01-26T10:06:46Z</time>
      </trkpt>
      <trkpt lat="44.64673" lon="-0.19571">
        <ele>72.72</ele>
        <time>2017-01-26T10:07:01Z</time>
      </trkpt>
      <trkpt lat="44.64664" lon="-0.19545">
        <ele>72.72</ele>
        <time>2017-01-26T10:07:17Z</time>
      </trkpt>
      <trkpt lat="44.64659" lon="-0.19524">
        <ele>71.76</ele>
        <time>2017-01-26T10:07:29Z</time>
      </trkpt>
      <trkpt lat="44.64652" lon="-0.19498">
        <ele>71.76</ele>
        <time>2017-01-26T10:07:44Z</time>
      </trkpt>
      <trkpt lat="44.64647" lon="-0.19479">
        <ele>71.27</ele>
        <time>2017-01-26T10:07:55Z</time>
      </trkpt>
      <trkpt lat="44.64644" lon="-0.19469">
        <ele>70.79</ele>
        <time>2017-01-26T10:08:01Z</time>
      </trkpt>
      <trkpt lat="44.64639" lon="-0.19456">
        <ele>70.79</ele>
        <time>2017-01-26T10:08:09Z</time>
      </trkpt>
      <trkpt lat="44.64633" lon="-0.19436">
        <ele>70.79</ele>
        <time>2017-01-26T10:08:22Z</time>
      </trkpt>
      <trkpt lat="44.64624" lon="-0.19408">
        <ele>69.35</ele>
        <time>2017-01-26T10:08:39Z</time>
      </trkpt>
      <trkpt lat="44.6462" lon="-0.19387">
        <ele>69.35</ele>
        <time>2017-01-26T10:08:52Z</time>
      </trkpt>
      <trkpt lat="44.64619" lon="-0.19378">
        <ele>69.35</ele>
        <time>2017-01-26T10:08:57Z</time>
      </trkpt>
      <trkpt lat="44.64614" lon="-0.19368">
        <ele>69.35</ele>
        <time>2017-01-26T10:09:09Z</time>
      </trkpt>
      <trkpt lat="44.64611" lon="-0.19356">
        <ele>68.87</ele>
        <time>2017-01-26T10:09:21Z</time>
      </trkpt>
      <trkpt lat="44.64605" lon="-0.19329">
        <ele>68.39</ele>
        <time>2017-01-26T10:09:37Z</time>
      </trkpt>
      <trkpt lat="44.64599" lon="-0.19302">
        <ele>67.91</ele>
        <time>2017-01-26T10:09:53Z</time>
      </trkpt>
      <trkpt lat="44.64594" lon="-0.19272">
        <ele>67.43</ele>
        <time>2017-01-26T10:10:12Z</time>
      </trkpt>
      <trkpt lat="44.64589" lon="-0.19248">
        <ele>67.43</ele>
        <time>2017-01-26T10:10:30Z</time>
      </trkpt>
      <trkpt lat="44.64591" lon="-0.19254">
        <ele>67.43</ele>
        <time>2017-01-26T10:10:34Z</time>
      </trkpt>
      <trkpt lat="44.64596" lon="-0.19286">
        <ele>67.91</ele>
        <time>2017-01-26T10:10:52Z</time>
      </trkpt>
      <trkpt lat="44.646" lon="-0.1931">
        <ele>68.39</ele>
        <time>2017-01-26T10:11:07Z</time>
      </trkpt>
      <trkpt lat="44.64589" lon="-0.19328">
        <ele>68.87</ele>
        <time>2017-01-26T10:11:23Z</time>
      </trkpt>
      <trkpt lat="44.64577" lon="-0.19354">
        <ele>70.31</ele>
        <time>2017-01-26T10:11:43Z</time>
      </trkpt>
      <trkpt lat="44.64576" lon="-0.19356">
        <ele>70.31</ele>
        <time>2017-01-26T10:11:45Z</time>
      </trkpt>
      <trkpt lat="44.64574" lon="-0.19359">
        <ele>70.31</ele>
        <time>2017-01-26T10:11:47Z</time>
      </trkpt>
      <trkpt lat="44.64561" lon="-0.19387">
        <ele>71.27</ele>
        <time>2017-01-26T10:12:05Z</time>
      </trkpt>
      <trkpt lat="44.64551" lon="-0.19407">
        <ele>72.24</ele>
        <time>2017-01-26T10:12:19Z</time>
      </trkpt>
      <trkpt lat="44.64536" lon="-0.19425">
        <ele>73.68</ele>
        <time>2017-01-26T10:12:37Z</time>
      </trkpt>
      <trkpt lat="44.64528" lon="-0.19432">
        <ele>74.16</ele>
        <time>2017-01-26T10:12:50Z</time>
      </trkpt>
      <trkpt lat="44.64527" lon="-0.19433">
        <ele>74.16</ele>
        <time>2017-01-26T10:13:05Z</time>
      </trkpt>
      <trkpt lat="44.64527" lon="-0.19434">
        <ele>74.16</ele>
        <time>2017-01-26T10:13:36Z</time>
      </trkpt>
      <trkpt lat="44.64527" lon="-0.19433">
        <ele>74.16</ele>
        <time>2017-01-26T10:14:15Z</time>
      </trkpt>
      <trkpt lat="44.64519" lon="-0.19439">
        <ele>75.12</ele>
        <time>2017-01-26T10:14:29Z</time>
      </trkpt>
      <trkpt lat="44.64516" lon="-0.19442">
        <ele>75.6</ele>
        <time>2017-01-26T10:14:32Z</time>
      </trkpt>
      <trkpt lat="44.64507" lon="-0.19457">
        <ele>77.04</ele>
        <time>2017-01-26T10:14:45Z</time>
      </trkpt>
      <trkpt lat="44.64495" lon="-0.19471">
        <ele>78.48</ele>
        <time>2017-01-26T10:14:59Z</time>
      </trkpt>
      <trkpt lat="44.64489" lon="-0.19477">
        <ele>79.93</ele>
        <time>2017-01-26T10:15:05Z</time>
      </trkpt>
      <trkpt lat="44.64472" lon="-0.19495">
        <ele>81.37</ele>
        <time>2017-01-26T10:15:23Z</time>
      </trkpt>
      <trkpt lat="44.64456" lon="-0.19513">
        <ele>82.81</ele>
        <time>2017-01-26T10:15:40Z</time>
      </trkpt>
      <trkpt lat="44.6444" lon="-0.19528">
        <ele>84.25</ele>
        <time>2017-01-26T10:15:56Z</time>
      </trkpt>
      <trkpt lat="44.64427" lon="-0.19544">
        <ele>85.69</ele>
        <time>2017-01-26T10:16:13Z</time>
      </trkpt>
      <trkpt lat="44.64413" lon="-0.1956">
        <ele>87.62</ele>
        <time>2017-01-26T10:16:29Z</time>
      </trkpt>
      <trkpt lat="44.644" lon="-0.19571">
        <ele>89.06</ele>
        <time>2017-01-26T10:16:43Z</time>
      </trkpt>
      <trkpt lat="44.64385" lon="-0.19584">
        <ele>90.02</ele>
        <time>2017-01-26T10:16:59Z</time>
      </trkpt>
      <trkpt lat="44.64373" lon="-0.19598">
        <ele>91.94</ele>
        <time>2017-01-26T10:17:17Z</time>
      </trkpt>
      <trkpt lat="44.64373" lon="-0.19598">
        <ele>91.46</ele>
        <time>2017-01-26T10:17:23Z</time>
      </trkpt>
      <trkpt lat="44.6437" lon="-0.19595">
        <ele>91.46</ele>
        <time>2017-01-26T10:17:26Z</time>
      </trkpt>
      <trkpt lat="44.64364" lon="-0.19582">
        <ele>91.46</ele>
        <time>2017-01-26T10:17:37Z</time>
      </trkpt>
      <trkpt lat="44.64358" lon="-0.19577">
        <ele>85.21</ele>
        <time>2017-01-26T10:17:44Z</time>
      </trkpt>
      <trkpt lat="44.64357" lon="-0.19577">
        <ele>89.54</ele>
        <time>2017-01-26T10:17:45Z</time>
      </trkpt>
      <trkpt lat="44.64355" lon="-0.19576">
        <ele>90.02</ele>
        <time>2017-01-26T10:17:47Z</time>
      </trkpt>
      <trkpt lat="44.6435" lon="-0.19572">
        <ele>88.58</ele>
        <time>2017-01-26T10:18:03Z</time>
      </trkpt>
      <trkpt lat="44.64344" lon="-0.19568">
        <ele>88.58</ele>
        <time>2017-01-26T10:18:16Z</time>
      </trkpt>
      <trkpt lat="44.64341" lon="-0.19567">
        <ele>88.1</ele>
        <time>2017-01-26T10:18:22Z</time>
      </trkpt>
      <trkpt lat="44.64336" lon="-0.19566">
        <ele>87.14</ele>
        <time>2017-01-26T10:18:26Z</time>
      </trkpt>
      <trkpt lat="44.64332" lon="-0.19564">
        <ele>87.14</ele>
        <time>2017-01-26T10:18:30Z</time>
      </trkpt>
      <trkpt lat="44.64323" lon="-0.19558">
        <ele>87.14</ele>
        <time>2017-01-26T10:18:38Z</time>
      </trkpt>
      <trkpt lat="44.64303" lon="-0.19546">
        <ele>86.18</ele>
        <time>2017-01-26T10:18:57Z</time>
      </trkpt>
      <trkpt lat="44.64289" lon="-0.1954">
        <ele>86.18</ele>
        <time>2017-01-26T10:19:12Z</time>
      </trkpt>
      <trkpt lat="44.64275" lon="-0.19532">
        <ele>86.18</ele>
        <time>2017-01-26T10:19:27Z</time>
      </trkpt>
      <trkpt lat="44.6426" lon="-0.19522">
        <ele>85.69</ele>
        <time>2017-01-26T10:19:41Z</time>
      </trkpt>
      <trkpt lat="44.64246" lon="-0.19516">
        <ele>85.21</ele>
        <time>2017-01-26T10:19:54Z</time>
      </trkpt>
      <trkpt lat="44.64234" lon="-0.19509">
        <ele>85.21</ele>
        <time>2017-01-26T10:20:06Z</time>
      </trkpt>
      <trkpt lat="44.64222" lon="-0.19502">
        <ele>85.69</ele>
        <time>2017-01-26T10:20:21Z</time>
      </trkpt>
      <trkpt lat="44.64208" lon="-0.19495">
        <ele>85.21</ele>
        <time>2017-01-26T10:20:36Z</time>
      </trkpt>
      <trkpt lat="44.64192" lon="-0.19487">
        <ele>85.21</ele>
        <time>2017-01-26T10:20:52Z</time>
      </trkpt>
      <trkpt lat="44.64174" lon="-0.19477">
        <ele>85.21</ele>
        <time>2017-01-26T10:21:10Z</time>
      </trkpt>
      <trkpt lat="44.64156" lon="-0.19463">
        <ele>84.73</ele>
        <time>2017-01-26T10:21:28Z</time>
      </trkpt>
      <trkpt lat="44.6414" lon="-0.19444">
        <ele>84.25</ele>
        <time>2017-01-26T10:21:46Z</time>
      </trkpt>
      <trkpt lat="44.64138" lon="-0.19443">
        <ele>84.25</ele>
        <time>2017-01-26T10:22:01Z</time>
      </trkpt>
      <trkpt lat="44.64131" lon="-0.19434">
        <ele>83.77</ele>
        <time>2017-01-26T10:22:14Z</time>
      </trkpt>
      <trkpt lat="44.64125" lon="-0.19434">
        <ele>83.29</ele>
        <time>2017-01-26T10:22:25Z</time>
      </trkpt>
      <trkpt lat="44.64124" lon="-0.19436">
        <ele>83.29</ele>
        <time>2017-01-26T10:22:28Z</time>
      </trkpt>
      <trkpt lat="44.64113" lon="-0.19445">
        <ele>82.81</ele>
        <time>2017-01-26T10:22:42Z</time>
      </trkpt>
      <trkpt lat="44.6411" lon="-0.19446">
        <ele>82.81</ele>
        <time>2017-01-26T10:22:46Z</time>
      </trkpt>
      <trkpt lat="44.64104" lon="-0.1945">
        <ele>82.33</ele>
        <time>2017-01-26T10:22:55Z</time>
      </trkpt>
      <trkpt lat="44.64095" lon="-0.19456">
        <ele>81.37</ele>
        <time>2017-01-26T10:23:06Z</time>
      </trkpt>
      <trkpt lat="44.64082" lon="-0.19465">
        <ele>80.89</ele>
        <time>2017-01-26T10:23:22Z</time>
      </trkpt>
      <trkpt lat="44.64078" lon="-0.19467">
        <ele>80.41</ele>
        <time>2017-01-26T10:23:27Z</time>
      </trkpt>
      <trkpt lat="44.64075" lon="-0.1947">
        <ele>79.93</ele>
        <time>2017-01-26T10:23:32Z</time>
      </trkpt>
      <trkpt lat="44.64064" lon="-0.19479">
        <ele>79.45</ele>
        <time>2017-01-26T10:23:47Z</time>
      </trkpt>
      <trkpt lat="44.64052" lon="-0.19488">
        <ele>78.48</ele>
        <time>2017-01-26T10:24:01Z</time>
      </trkpt>
      <trkpt lat="44.64046" lon="-0.19493">
        <ele>78</ele>
        <time>2017-01-26T10:24:13Z</time>
      </trkpt>
      <trkpt lat="44.64046" lon="-0.19493">
        <ele>78.48</ele>
        <time>2017-01-26T10:24:36Z</time>
      </trkpt>
      <trkpt lat="44.64043" lon="-0.19498">
        <ele>77.52</ele>
        <time>2017-01-26T10:24:50Z</time>
      </trkpt>
      <trkpt lat="44.64043" lon="-0.19498">
        <ele>76.08</ele>
        <time>2017-01-26T10:25:09Z</time>
      </trkpt>
      <trkpt lat="44.64043" lon="-0.19498">
        <ele>79.45</ele>
        <time>2017-01-26T10:25:10Z</time>
      </trkpt>
      <trkpt lat="44.64043" lon="-0.19498">
        <ele>78</ele>
        <time>2017-01-26T10:25:39Z</time>
      </trkpt>
      <trkpt lat="44.64043" lon="-0.19497">
        <ele>70.31</ele>
        <time>2017-01-26T10:25:47Z</time>
      </trkpt>
      <trkpt lat="44.64043" lon="-0.19497">
        <ele>74.64</ele>
        <time>2017-01-26T10:25:51Z</time>
      </trkpt>
      <trkpt lat="44.64043" lon="-0.19497">
        <ele>79.93</ele>
        <time>2017-01-26T10:25:52Z</time>
      </trkpt>
      <trkpt lat="44.64043" lon="-0.19497">
        <ele>76.56</ele>
        <time>2017-01-26T10:25:54Z</time>
      </trkpt>
      <trkpt lat="44.64043" lon="-0.19498">
        <ele>80.89</ele>
        <time>2017-01-26T10:25:55Z</time>
      </trkpt>
      <trkpt lat="44.64043" lon="-0.19498">
        <ele>77.04</ele>
        <time>2017-01-26T10:25:56Z</time>
      </trkpt>
      <trkpt lat="44.64043" lon="-0.19498">
        <ele>80.41</ele>
        <time>2017-01-26T10:26:01Z</time>
      </trkpt>
      <trkpt lat="44.64043" lon="-0.19498">
        <ele>76.08</ele>
        <time>2017-01-26T10:26:10Z</time>
      </trkpt>
      <trkpt lat="44.64043" lon="-0.19498">
        <ele>81.85</ele>
        <time>2017-01-26T10:26:12Z</time>
      </trkpt>
      <trkpt lat="44.64043" lon="-0.19498">
        <ele>80.89</ele>
        <time>2017-01-26T10:26:13Z</time>
      </trkpt>
      <trkpt lat="44.64043" lon="-0.19498">
        <ele>78</ele>
        <time>2017-01-26T10:26:15Z</time>
      </trkpt>
      <trkpt lat="44.64043" lon="-0.19498">
        <ele>81.85</ele>
        <time>2017-01-26T10:26:23Z</time>
      </trkpt>
      <trkpt lat="44.64043" lon="-0.19498">
        <ele>78</ele>
        <time>2017-01-26T10:26:24Z</time>
      </trkpt>
      <trkpt lat="44.64037" lon="-0.19499">
        <ele>78</ele>
        <time>2017-01-26T10:26:42Z</time>
      </trkpt>
      <trkpt lat="44.64032" lon="-0.195">
        <ele>77.52</ele>
        <time>2017-01-26T10:26:48Z</time>
      </trkpt>
      <trkpt lat="44.64028" lon="-0.19503">
        <ele>77.52</ele>
        <time>2017-01-26T10:26:55Z</time>
      </trkpt>
      <trkpt lat="44.64021" lon="-0.19507">
        <ele>78.48</ele>
        <time>2017-01-26T10:27:03Z</time>
      </trkpt>
      <trkpt lat="44.64019" lon="-0.19509">
        <ele>77.52</ele>
        <time>2017-01-26T10:27:06Z</time>
      </trkpt>
      <trkpt lat="44.64014" lon="-0.19515">
        <ele>77.52</ele>
        <time>2017-01-26T10:27:14Z</time>
      </trkpt>
      <trkpt lat="44.64005" lon="-0.19523">
        <ele>76.56</ele>
        <time>2017-01-26T10:27:29Z</time>
      </trkpt>
      <trkpt lat="44.63998" lon="-0.19533">
        <ele>77.04</ele>
        <time>2017-01-26T10:27:45Z</time>
      </trkpt>
      <trkpt lat="44.63985" lon="-0.19545">
        <ele>76.08</ele>
        <time>2017-01-26T10:28:01Z</time>
      </trkpt>
      <trkpt lat="44.63983" lon="-0.1956">
        <ele>75.6</ele>
        <time>2017-01-26T10:28:16Z</time>
      </trkpt>
      <trkpt lat="44.6399" lon="-0.19574">
        <ele>75.6</ele>
        <time>2017-01-26T10:28:29Z</time>
      </trkpt>
      <trkpt lat="44.63998" lon="-0.19593">
        <ele>75.6</ele>
        <time>2017-01-26T10:28:45Z</time>
      </trkpt>
      <trkpt lat="44.64001" lon="-0.19598">
        <ele>76.08</ele>
        <time>2017-01-26T10:28:49Z</time>
      </trkpt>
      <trkpt lat="44.6401" lon="-0.19617">
        <ele>76.08</ele>
        <time>2017-01-26T10:29:06Z</time>
      </trkpt>
      <trkpt lat="44.64017" lon="-0.19637">
        <ele>76.56</ele>
        <time>2017-01-26T10:29:21Z</time>
      </trkpt>
      <trkpt lat="44.64018" lon="-0.19654">
        <ele>76.56</ele>
        <time>2017-01-26T10:29:35Z</time>
      </trkpt>
      <trkpt lat="44.64008" lon="-0.19661">
        <ele>76.08</ele>
        <time>2017-01-26T10:29:49Z</time>
      </trkpt>
      <trkpt lat="44.63993" lon="-0.19671">
        <ele>75.12</ele>
        <time>2017-01-26T10:30:05Z</time>
      </trkpt>
      <trkpt lat="44.63981" lon="-0.1968">
        <ele>74.16</ele>
        <time>2017-01-26T10:30:19Z</time>
      </trkpt>
      <trkpt lat="44.63979" lon="-0.19682">
        <ele>74.16</ele>
        <time>2017-01-26T10:30:22Z</time>
      </trkpt>
      <trkpt lat="44.63962" lon="-0.19693">
        <ele>72.72</ele>
        <time>2017-01-26T10:30:40Z</time>
      </trkpt>
      <trkpt lat="44.63959" lon="-0.19698">
        <ele>72.24</ele>
        <time>2017-01-26T10:30:54Z</time>
      </trkpt>
      <trkpt lat="44.63948" lon="-0.19705">
        <ele>71.27</ele>
        <time>2017-01-26T10:31:08Z</time>
      </trkpt>
      <trkpt lat="44.63945" lon="-0.1971">
        <ele>71.27</ele>
        <time>2017-01-26T10:31:20Z</time>
      </trkpt>
      <trkpt lat="44.63935" lon="-0.19723">
        <ele>70.31</ele>
        <time>2017-01-26T10:31:34Z</time>
      </trkpt>
      <trkpt lat="44.63928" lon="-0.19732">
        <ele>69.83</ele>
        <time>2017-01-26T10:31:43Z</time>
      </trkpt>
      <trkpt lat="44.63916" lon="-0.19742">
        <ele>69.35</ele>
        <time>2017-01-26T10:31:59Z</time>
      </trkpt>
      <trkpt lat="44.63902" lon="-0.19755">
        <ele>68.39</ele>
        <time>2017-01-26T10:32:17Z</time>
      </trkpt>
      <trkpt lat="44.63901" lon="-0.19756">
        <ele>68.39</ele>
        <time>2017-01-26T10:32:19Z</time>
      </trkpt>
      <trkpt lat="44.63891" lon="-0.1975">
        <ele>67.91</ele>
        <time>2017-01-26T10:32:29Z</time>
      </trkpt>
      <trkpt lat="44.6389" lon="-0.19748">
        <ele>67.43</ele>
        <time>2017-01-26T10:32:31Z</time>
      </trkpt>
      <trkpt lat="44.63885" lon="-0.19741">
        <ele>67.91</ele>
        <time>2017-01-26T10:32:40Z</time>
      </trkpt>
      <trkpt lat="44.63884" lon="-0.19736">
        <ele>67.91</ele>
        <time>2017-01-26T10:32:44Z</time>
      </trkpt>
      <trkpt lat="44.63871" lon="-0.19715">
        <ele>67.91</ele>
        <time>2017-01-26T10:33:01Z</time>
      </trkpt>
      <trkpt lat="44.63861" lon="-0.19702">
        <ele>67.43</ele>
        <time>2017-01-26T10:33:13Z</time>
      </trkpt>
      <trkpt lat="44.63852" lon="-0.19688">
        <ele>66.95</ele>
        <time>2017-01-26T10:33:27Z</time>
      </trkpt>
      <trkpt lat="44.63842" lon="-0.1967">
        <ele>67.43</ele>
        <time>2017-01-26T10:33:41Z</time>
      </trkpt>
      <trkpt lat="44.63831" lon="-0.19655">
        <ele>67.91</ele>
        <time>2017-01-26T10:33:56Z</time>
      </trkpt>
      <trkpt lat="44.63815" lon="-0.1964">
        <ele>68.39</ele>
        <time>2017-01-26T10:34:12Z</time>
      </trkpt>
      <trkpt lat="44.63802" lon="-0.19626">
        <ele>68.39</ele>
        <time>2017-01-26T10:34:28Z</time>
      </trkpt>
      <trkpt lat="44.638" lon="-0.19625">
        <ele>68.87</ele>
        <time>2017-01-26T10:34:30Z</time>
      </trkpt>
      <trkpt lat="44.63784" lon="-0.19608">
        <ele>69.35</ele>
        <time>2017-01-26T10:34:49Z</time>
      </trkpt>
      <trkpt lat="44.63785" lon="-0.19607">
        <ele>69.83</ele>
        <time>2017-01-26T10:35:05Z</time>
      </trkpt>
      <trkpt lat="44.63779" lon="-0.19599">
        <ele>69.83</ele>
        <time>2017-01-26T10:35:21Z</time>
      </trkpt>
      <trkpt lat="44.6378" lon="-0.196">
        <ele>70.31</ele>
        <time>2017-01-26T10:35:34Z</time>
      </trkpt>
      <trkpt lat="44.6378" lon="-0.196">
        <ele>69.83</ele>
        <time>2017-01-26T10:35:51Z</time>
      </trkpt>
      <trkpt lat="44.6378" lon="-0.196">
        <ele>70.31</ele>
        <time>2017-01-26T10:36:15Z</time>
      </trkpt>
      <trkpt lat="44.63778" lon="-0.19598">
        <ele>70.31</ele>
        <time>2017-01-26T10:36:35Z</time>
      </trkpt>
      <trkpt lat="44.63774" lon="-0.19592">
        <ele>70.79</ele>
        <time>2017-01-26T10:36:47Z</time>
      </trkpt>
      <trkpt lat="44.63769" lon="-0.19585">
        <ele>70.79</ele>
        <time>2017-01-26T10:37:00Z</time>
      </trkpt>
      <trkpt lat="44.63759" lon="-0.19566">
        <ele>70.79</ele>
        <time>2017-01-26T10:37:13Z</time>
      </trkpt>
      <trkpt lat="44.63758" lon="-0.19565">
        <ele>70.79</ele>
        <time>2017-01-26T10:37:14Z</time>
      </trkpt>
      <trkpt lat="44.63749" lon="-0.19549">
        <ele>70.79</ele>
        <time>2017-01-26T10:37:27Z</time>
      </trkpt>
      <trkpt lat="44.63736" lon="-0.19533">
        <ele>70.79</ele>
        <time>2017-01-26T10:37:42Z</time>
      </trkpt>
      <trkpt lat="44.63721" lon="-0.19515">
        <ele>70.31</ele>
        <time>2017-01-26T10:37:59Z</time>
      </trkpt>
      <trkpt lat="44.63707" lon="-0.19494">
        <ele>69.83</ele>
        <time>2017-01-26T10:38:16Z</time>
      </trkpt>
      <trkpt lat="44.63692" lon="-0.19473">
        <ele>68.39</ele>
        <time>2017-01-26T10:38:33Z</time>
      </trkpt>
      <trkpt lat="44.6368" lon="-0.19455">
        <ele>67.91</ele>
        <time>2017-01-26T10:38:48Z</time>
      </trkpt>
      <trkpt lat="44.63677" lon="-0.19452">
        <ele>67.43</ele>
        <time>2017-01-26T10:38:51Z</time>
      </trkpt>
      <trkpt lat="44.63673" lon="-0.19446">
        <ele>66.95</ele>
        <time>2017-01-26T10:38:56Z</time>
      </trkpt>
      <trkpt lat="44.6367" lon="-0.19445">
        <ele>67.43</ele>
        <time>2017-01-26T10:39:00Z</time>
      </trkpt>
      <trkpt lat="44.63656" lon="-0.19466">
        <ele>66.95</ele>
        <time>2017-01-26T10:39:18Z</time>
      </trkpt>
      <trkpt lat="44.63642" lon="-0.19484">
        <ele>66.47</ele>
        <time>2017-01-26T10:39:34Z</time>
      </trkpt>
      <trkpt lat="44.63627" lon="-0.19502">
        <ele>66.47</ele>
        <time>2017-01-26T10:39:51Z</time>
      </trkpt>
      <trkpt lat="44.63611" lon="-0.19523">
        <ele>65.99</ele>
        <time>2017-01-26T10:40:08Z</time>
      </trkpt>
      <trkpt lat="44.63597" lon="-0.19541">
        <ele>65.99</ele>
        <time>2017-01-26T10:40:24Z</time>
      </trkpt>
      <trkpt lat="44.63583" lon="-0.19559">
        <ele>65.51</ele>
        <time>2017-01-26T10:40:41Z</time>
      </trkpt>
      <trkpt lat="44.63567" lon="-0.1958">
        <ele>65.03</ele>
        <time>2017-01-26T10:40:58Z</time>
      </trkpt>
      <trkpt lat="44.63552" lon="-0.19601">
        <ele>64.07</ele>
        <time>2017-01-26T10:41:16Z</time>
      </trkpt>
      <trkpt lat="44.63537" lon="-0.19621">
        <ele>63.58</ele>
        <time>2017-01-26T10:41:32Z</time>
      </trkpt>
      <trkpt lat="44.63514" lon="-0.19641">
        <ele>63.1</ele>
        <time>2017-01-26T10:41:53Z</time>
      </trkpt>
      <trkpt lat="44.63498" lon="-0.19652">
        <ele>62.14</ele>
        <time>2017-01-26T10:42:09Z</time>
      </trkpt>
      <trkpt lat="44.63484" lon="-0.1967">
        <ele>61.18</ele>
        <time>2017-01-26T10:42:25Z</time>
      </trkpt>
      <trkpt lat="44.63483" lon="-0.19696">
        <ele>61.18</ele>
        <time>2017-01-26T10:42:41Z</time>
      </trkpt>
      <trkpt lat="44.63484" lon="-0.19697">
        <ele>60.7</ele>
        <time>2017-01-26T10:42:48Z</time>
      </trkpt>
      <trkpt lat="44.63484" lon="-0.19668">
        <ele>60.7</ele>
        <time>2017-01-26T10:43:05Z</time>
      </trkpt>
      <trkpt lat="44.63479" lon="-0.19642">
        <ele>60.22</ele>
        <time>2017-01-26T10:43:20Z</time>
      </trkpt>
      <trkpt lat="44.63466" lon="-0.19611">
        <ele>58.78</ele>
        <time>2017-01-26T10:43:40Z</time>
      </trkpt>
      <trkpt lat="44.63455" lon="-0.19585">
        <ele>56.86</ele>
        <time>2017-01-26T10:43:57Z</time>
      </trkpt>
      <trkpt lat="44.63443" lon="-0.19561">
        <ele>55.89</ele>
        <time>2017-01-26T10:44:15Z</time>
      </trkpt>
      <trkpt lat="44.63432" lon="-0.19535">
        <ele>53.97</ele>
        <time>2017-01-26T10:44:32Z</time>
      </trkpt>
      <trkpt lat="44.63421" lon="-0.19511">
        <ele>53.49</ele>
        <time>2017-01-26T10:44:49Z</time>
      </trkpt>
      <trkpt lat="44.63413" lon="-0.19489">
        <ele>52.53</ele>
        <time>2017-01-26T10:45:05Z</time>
      </trkpt>
      <trkpt lat="44.63411" lon="-0.19482">
        <ele>52.53</ele>
        <time>2017-01-26T10:45:09Z</time>
      </trkpt>
      <trkpt lat="44.63402" lon="-0.19457">
        <ele>52.53</ele>
        <time>2017-01-26T10:45:24Z</time>
      </trkpt>
      <trkpt lat="44.63401" lon="-0.19447">
        <ele>52.53</ele>
        <time>2017-01-26T10:45:36Z</time>
      </trkpt>
      <trkpt lat="44.63394" lon="-0.19428">
        <ele>53.97</ele>
        <time>2017-01-26T10:45:48Z</time>
      </trkpt>
      <trkpt lat="44.63393" lon="-0.19423">
        <ele>53.97</ele>
        <time>2017-01-26T10:45:51Z</time>
      </trkpt>
      <trkpt lat="44.63392" lon="-0.1942">
        <ele>54.45</ele>
        <time>2017-01-26T10:45:53Z</time>
      </trkpt>
      <trkpt lat="44.6339" lon="-0.19411">
        <ele>54.93</ele>
        <time>2017-01-26T10:45:58Z</time>
      </trkpt>
      <trkpt lat="44.63382" lon="-0.19389">
        <ele>57.82</ele>
        <time>2017-01-26T10:46:14Z</time>
      </trkpt>
      <trkpt lat="44.63381" lon="-0.19386">
        <ele>57.82</ele>
        <time>2017-01-26T10:46:16Z</time>
      </trkpt>
      <trkpt lat="44.63379" lon="-0.19378">
        <ele>58.78</ele>
        <time>2017-01-26T10:46:20Z</time>
      </trkpt>
      <trkpt lat="44.63372" lon="-0.19352">
        <ele>61.66</ele>
        <time>2017-01-26T10:46:38Z</time>
      </trkpt>
      <trkpt lat="44.63369" lon="-0.19339">
        <ele>65.03</ele>
        <time>2017-01-26T10:46:51Z</time>
      </trkpt>
      <trkpt lat="44.63367" lon="-0.19333">
        <ele>63.58</ele>
        <time>2017-01-26T10:47:04Z</time>
      </trkpt>
      <trkpt lat="44.63365" lon="-0.19327">
        <ele>66.95</ele>
        <time>2017-01-26T10:47:11Z</time>
      </trkpt>
      <trkpt lat="44.63365" lon="-0.19325">
        <ele>64.07</ele>
        <time>2017-01-26T10:47:12Z</time>
      </trkpt>
      <trkpt lat="44.63358" lon="-0.19319">
        <ele>65.03</ele>
        <time>2017-01-26T10:47:21Z</time>
      </trkpt>
      <trkpt lat="44.63342" lon="-0.19333">
        <ele>66.47</ele>
        <time>2017-01-26T10:47:37Z</time>
      </trkpt>
      <trkpt lat="44.63328" lon="-0.19348">
        <ele>66.95</ele>
        <time>2017-01-26T10:47:49Z</time>
      </trkpt>
      <trkpt lat="44.63317" lon="-0.19357">
        <ele>72.24</ele>
        <time>2017-01-26T10:48:02Z</time>
      </trkpt>
      <trkpt lat="44.63317" lon="-0.19357">
        <ele>67.43</ele>
        <time>2017-01-26T10:48:03Z</time>
      </trkpt>
      <trkpt lat="44.63316" lon="-0.19357">
        <ele>71.76</ele>
        <time>2017-01-26T10:48:08Z</time>
      </trkpt>
      <trkpt lat="44.63316" lon="-0.19358">
        <ele>67.91</ele>
        <time>2017-01-26T10:48:09Z</time>
      </trkpt>
      <trkpt lat="44.63315" lon="-0.19358">
        <ele>71.76</ele>
        <time>2017-01-26T10:48:24Z</time>
      </trkpt>
      <trkpt lat="44.63315" lon="-0.19358">
        <ele>68.39</ele>
        <time>2017-01-26T10:48:25Z</time>
      </trkpt>
      <trkpt lat="44.63315" lon="-0.19358">
        <ele>65.03</ele>
        <time>2017-01-26T10:48:26Z</time>
      </trkpt>
      <trkpt lat="44.63315" lon="-0.19358">
        <ele>65.51</ele>
        <time>2017-01-26T10:48:27Z</time>
      </trkpt>
      <trkpt lat="44.63315" lon="-0.19358">
        <ele>71.76</ele>
        <time>2017-01-26T10:48:28Z</time>
      </trkpt>
      <trkpt lat="44.63315" lon="-0.19358">
        <ele>67.91</ele>
        <time>2017-01-26T10:48:29Z</time>
      </trkpt>
      <trkpt lat="44.63317" lon="-0.19357">
        <ele>67.91</ele>
        <time>2017-01-26T10:48:38Z</time>
      </trkpt>
      <trkpt lat="44.63335" lon="-0.1934">
        <ele>66.47</ele>
        <time>2017-01-26T10:48:54Z</time>
      </trkpt>
      <trkpt lat="44.63349" lon="-0.19326">
        <ele>66.47</ele>
        <time>2017-01-26T10:49:07Z</time>
      </trkpt>
      <trkpt lat="44.63362" lon="-0.19308">
        <ele>65.51</ele>
        <time>2017-01-26T10:49:21Z</time>
      </trkpt>
      <trkpt lat="44.63359" lon="-0.19285">
        <ele>65.51</ele>
        <time>2017-01-26T10:49:35Z</time>
      </trkpt>
      <trkpt lat="44.63352" lon="-0.19262">
        <ele>65.03</ele>
        <time>2017-01-26T10:49:50Z</time>
      </trkpt>
      <trkpt lat="44.63351" lon="-0.19245">
        <ele>64.07</ele>
        <time>2017-01-26T10:50:01Z</time>
      </trkpt>
      <trkpt lat="44.63347" lon="-0.19223">
        <ele>63.1</ele>
        <time>2017-01-26T10:50:12Z</time>
      </trkpt>
      <trkpt lat="44.63344" lon="-0.19198">
        <ele>62.14</ele>
        <time>2017-01-26T10:50:24Z</time>
      </trkpt>
      <trkpt lat="44.63342" lon="-0.19171">
        <ele>60.7</ele>
        <time>2017-01-26T10:50:36Z</time>
      </trkpt>
      <trkpt lat="44.63341" lon="-0.19164">
        <ele>60.22</ele>
        <time>2017-01-26T10:50:40Z</time>
      </trkpt>
      <trkpt lat="44.6334" lon="-0.19139">
        <ele>59.74</ele>
        <time>2017-01-26T10:50:53Z</time>
      </trkpt>
      <trkpt lat="44.6334" lon="-0.19137">
        <ele>59.74</ele>
        <time>2017-01-26T10:50:54Z</time>
      </trkpt>
      <trkpt lat="44.63341" lon="-0.1913">
        <ele>59.74</ele>
        <time>2017-01-26T10:50:58Z</time>
      </trkpt>
      <trkpt lat="44.6336" lon="-0.19101">
        <ele>59.26</ele>
        <time>2017-01-26T10:51:18Z</time>
      </trkpt>
      <trkpt lat="44.63364" lon="-0.19097">
        <ele>58.78</ele>
        <time>2017-01-26T10:51:22Z</time>
      </trkpt>
      <trkpt lat="44.6338" lon="-0.19079">
        <ele>59.74</ele>
        <time>2017-01-26T10:51:39Z</time>
      </trkpt>
      <trkpt lat="44.63394" lon="-0.19062">
        <ele>59.74</ele>
        <time>2017-01-26T10:51:54Z</time>
      </trkpt>
      <trkpt lat="44.63411" lon="-0.19037">
        <ele>60.7</ele>
        <time>2017-01-26T10:52:14Z</time>
      </trkpt>
      <trkpt lat="44.6343" lon="-0.19013">
        <ele>60.7</ele>
        <time>2017-01-26T10:52:31Z</time>
      </trkpt>
      <trkpt lat="44.63438" lon="-0.18991">
        <ele>61.18</ele>
        <time>2017-01-26T10:52:44Z</time>
      </trkpt>
      <trkpt lat="44.63438" lon="-0.18967">
        <ele>62.14</ele>
        <time>2017-01-26T10:52:58Z</time>
      </trkpt>
      <trkpt lat="44.63428" lon="-0.18941">
        <ele>62.62</ele>
        <time>2017-01-26T10:53:16Z</time>
      </trkpt>
      <trkpt lat="44.63417" lon="-0.18913">
        <ele>63.58</ele>
        <time>2017-01-26T10:53:32Z</time>
      </trkpt>
      <trkpt lat="44.63415" lon="-0.1889">
        <ele>65.03</ele>
        <time>2017-01-26T10:53:45Z</time>
      </trkpt>
      <trkpt lat="44.63415" lon="-0.18888">
        <ele>65.03</ele>
        <time>2017-01-26T10:53:46Z</time>
      </trkpt>
      <trkpt lat="44.63419" lon="-0.18859">
        <ele>65.03</ele>
        <time>2017-01-26T10:54:03Z</time>
      </trkpt>
      <trkpt lat="44.63425" lon="-0.18832">
        <ele>68.87</ele>
        <time>2017-01-26T10:54:19Z</time>
      </trkpt>
      <trkpt lat="44.63425" lon="-0.18828">
        <ele>65.99</ele>
        <time>2017-01-26T10:54:21Z</time>
      </trkpt>
      <trkpt lat="44.63426" lon="-0.18817">
        <ele>65.99</ele>
        <time>2017-01-26T10:54:27Z</time>
      </trkpt>
      <trkpt lat="44.63427" lon="-0.18799">
        <ele>66.47</ele>
        <time>2017-01-26T10:54:41Z</time>
      </trkpt>
      <trkpt lat="44.63427" lon="-0.18799">
        <ele>66.47</ele>
        <time>2017-01-26T10:55:03Z</time>
      </trkpt>
      <trkpt lat="44.63428" lon="-0.18799">
        <ele>66.47</ele>
        <time>2017-01-26T10:55:22Z</time>
      </trkpt>
      <trkpt lat="44.63428" lon="-0.18799">
        <ele>66.47</ele>
        <time>2017-01-26T10:55:30Z</time>
      </trkpt>
      <trkpt lat="44.63428" lon="-0.18794">
        <ele>65.99</ele>
        <time>2017-01-26T10:55:34Z</time>
      </trkpt>
      <trkpt lat="44.63433" lon="-0.18767">
        <ele>66.47</ele>
        <time>2017-01-26T10:55:52Z</time>
      </trkpt>
      <trkpt lat="44.63438" lon="-0.18737">
        <ele>66.47</ele>
        <time>2017-01-26T10:56:10Z</time>
      </trkpt>
      <trkpt lat="44.63439" lon="-0.18724">
        <ele>66.95</ele>
        <time>2017-01-26T10:56:17Z</time>
      </trkpt>
      <trkpt lat="44.63439" lon="-0.1871">
        <ele>67.43</ele>
        <time>2017-01-26T10:56:25Z</time>
      </trkpt>
      <trkpt lat="44.63439" lon="-0.18682">
        <ele>65.99</ele>
        <time>2017-01-26T10:56:41Z</time>
      </trkpt>
      <trkpt lat="44.6344" lon="-0.18649">
        <ele>66.47</ele>
        <time>2017-01-26T10:56:59Z</time>
      </trkpt>
      <trkpt lat="44.63441" lon="-0.18615">
        <ele>67.43</ele>
        <time>2017-01-26T10:57:17Z</time>
      </trkpt>
      <trkpt lat="44.63442" lon="-0.18605">
        <ele>66.95</ele>
        <time>2017-01-26T10:57:23Z</time>
      </trkpt>
      <trkpt lat="44.63442" lon="-0.18577">
        <ele>66.95</ele>
        <time>2017-01-26T10:57:38Z</time>
      </trkpt>
      <trkpt lat="44.63443" lon="-0.1855">
        <ele>67.43</ele>
        <time>2017-01-26T10:57:53Z</time>
      </trkpt>
      <trkpt lat="44.63443" lon="-0.18549">
        <ele>66.95</ele>
        <time>2017-01-26T10:57:54Z</time>
      </trkpt>
      <trkpt lat="44.63443" lon="-0.18516">
        <ele>66.95</ele>
        <time>2017-01-26T10:58:12Z</time>
      </trkpt>
      <trkpt lat="44.63445" lon="-0.18486">
        <ele>67.91</ele>
        <time>2017-01-26T10:58:29Z</time>
      </trkpt>
      <trkpt lat="44.63445" lon="-0.18457">
        <ele>67.91</ele>
        <time>2017-01-26T10:58:46Z</time>
      </trkpt>
      <trkpt lat="44.63447" lon="-0.18427">
        <ele>68.39</ele>
        <time>2017-01-26T10:59:03Z</time>
      </trkpt>
      <trkpt lat="44.63451" lon="-0.18401">
        <ele>68.87</ele>
        <time>2017-01-26T10:59:18Z</time>
      </trkpt>
      <trkpt lat="44.63458" lon="-0.1839">
        <ele>69.35</ele>
        <time>2017-01-26T10:59:27Z</time>
      </trkpt>
      <trkpt lat="44.63464" lon="-0.18377">
        <ele>69.35</ele>
        <time>2017-01-26T10:59:36Z</time>
      </trkpt>
      <trkpt lat="44.63468" lon="-0.18371">
        <ele>69.35</ele>
        <time>2017-01-26T10:59:40Z</time>
      </trkpt>
      <trkpt lat="44.63482" lon="-0.18352">
        <ele>69.35</ele>
        <time>2017-01-26T10:59:55Z</time>
      </trkpt>
      <trkpt lat="44.63495" lon="-0.18332">
        <ele>69.83</ele>
        <time>2017-01-26T11:00:10Z</time>
      </trkpt>
      <trkpt lat="44.63507" lon="-0.18312">
        <ele>69.83</ele>
        <time>2017-01-26T11:00:24Z</time>
      </trkpt>
      <trkpt lat="44.63519" lon="-0.18284">
        <ele>69.83</ele>
        <time>2017-01-26T11:00:42Z</time>
      </trkpt>
      <trkpt lat="44.63531" lon="-0.1826">
        <ele>70.79</ele>
        <time>2017-01-26T11:00:58Z</time>
      </trkpt>
      <trkpt lat="44.63541" lon="-0.18239">
        <ele>71.27</ele>
        <time>2017-01-26T11:01:12Z</time>
      </trkpt>
      <trkpt lat="44.63556" lon="-0.18221">
        <ele>71.76</ele>
        <time>2017-01-26T11:01:28Z</time>
      </trkpt>
      <trkpt lat="44.63576" lon="-0.18205">
        <ele>72.24</ele>
        <time>2017-01-26T11:01:47Z</time>
      </trkpt>
      <trkpt lat="44.63591" lon="-0.18197">
        <ele>72.72</ele>
        <time>2017-01-26T11:02:00Z</time>
      </trkpt>
      <trkpt lat="44.63605" lon="-0.18188">
        <ele>73.2</ele>
        <time>2017-01-26T11:02:14Z</time>
      </trkpt>
      <trkpt lat="44.63618" lon="-0.18182">
        <ele>74.16</ele>
        <time>2017-01-26T11:02:25Z</time>
      </trkpt>
      <trkpt lat="44.63632" lon="-0.18177">
        <ele>74.16</ele>
        <time>2017-01-26T11:02:38Z</time>
      </trkpt>
      <trkpt lat="44.63636" lon="-0.18176">
        <ele>74.64</ele>
        <time>2017-01-26T11:02:41Z</time>
      </trkpt>
      <trkpt lat="44.63648" lon="-0.18168">
        <ele>75.12</ele>
        <time>2017-01-26T11:02:51Z</time>
      </trkpt>
      <trkpt lat="44.63663" lon="-0.18157">
        <ele>74.16</ele>
        <time>2017-01-26T11:03:04Z</time>
      </trkpt>
      <trkpt lat="44.63672" lon="-0.18143">
        <ele>75.12</ele>
        <time>2017-01-26T11:03:15Z</time>
      </trkpt>
      <trkpt lat="44.63676" lon="-0.18121">
        <ele>74.16</ele>
        <time>2017-01-26T11:03:28Z</time>
      </trkpt>
      <trkpt lat="44.63678" lon="-0.18117">
        <ele>75.12</ele>
        <time>2017-01-26T11:03:30Z</time>
      </trkpt>
      <trkpt lat="44.63679" lon="-0.18095">
        <ele>74.64</ele>
        <time>2017-01-26T11:03:44Z</time>
      </trkpt>
      <trkpt lat="44.6368" lon="-0.1809">
        <ele>74.16</ele>
        <time>2017-01-26T11:03:48Z</time>
      </trkpt>
      <trkpt lat="44.63678" lon="-0.18076">
        <ele>73.68</ele>
        <time>2017-01-26T11:03:56Z</time>
      </trkpt>
      <trkpt lat="44.63678" lon="-0.1807">
        <ele>73.2</ele>
        <time>2017-01-26T11:03:59Z</time>
      </trkpt>
      <trkpt lat="44.63678" lon="-0.18057">
        <ele>75.6</ele>
        <time>2017-01-26T11:04:07Z</time>
      </trkpt>
      <trkpt lat="44.63677" lon="-0.1804">
        <ele>75.12</ele>
        <time>2017-01-26T11:04:16Z</time>
      </trkpt>
      <trkpt lat="44.63677" lon="-0.18033">
        <ele>74.16</ele>
        <time>2017-01-26T11:04:20Z</time>
      </trkpt>
      <trkpt lat="44.63679" lon="-0.18026">
        <ele>75.6</ele>
        <time>2017-01-26T11:04:24Z</time>
      </trkpt>
      <trkpt lat="44.63679" lon="-0.18024">
        <ele>75.6</ele>
        <time>2017-01-26T11:04:25Z</time>
      </trkpt>
      <trkpt lat="44.63679" lon="-0.18016">
        <ele>75.12</ele>
        <time>2017-01-26T11:04:30Z</time>
      </trkpt>
      <trkpt lat="44.63679" lon="-0.18009">
        <ele>76.08</ele>
        <time>2017-01-26T11:04:34Z</time>
      </trkpt>
      <trkpt lat="44.63677" lon="-0.1799">
        <ele>75.6</ele>
        <time>2017-01-26T11:04:46Z</time>
      </trkpt>
      <trkpt lat="44.63677" lon="-0.17989">
        <ele>75.6</ele>
        <time>2017-01-26T11:04:47Z</time>
      </trkpt>
      <trkpt lat="44.63675" lon="-0.17975">
        <ele>77.52</ele>
        <time>2017-01-26T11:04:55Z</time>
      </trkpt>
      <trkpt lat="44.63676" lon="-0.17969">
        <ele>76.56</ele>
        <time>2017-01-26T11:04:59Z</time>
      </trkpt>
      <trkpt lat="44.63674" lon="-0.17961">
        <ele>75.6</ele>
        <time>2017-01-26T11:05:04Z</time>
      </trkpt>
      <trkpt lat="44.63674" lon="-0.17942">
        <ele>77.04</ele>
        <time>2017-01-26T11:05:14Z</time>
      </trkpt>
      <trkpt lat="44.63673" lon="-0.17913">
        <ele>76.56</ele>
        <time>2017-01-26T11:05:31Z</time>
      </trkpt>
      <trkpt lat="44.63674" lon="-0.17911">
        <ele>77.52</ele>
        <time>2017-01-26T11:05:33Z</time>
      </trkpt>
      <trkpt lat="44.63674" lon="-0.17897">
        <ele>76.56</ele>
        <time>2017-01-26T11:05:42Z</time>
      </trkpt>
      <trkpt lat="44.63673" lon="-0.1789">
        <ele>77.52</ele>
        <time>2017-01-26T11:05:46Z</time>
      </trkpt>
      <trkpt lat="44.63669" lon="-0.17868">
        <ele>77.52</ele>
        <time>2017-01-26T11:05:58Z</time>
      </trkpt>
      <trkpt lat="44.63667" lon="-0.17846">
        <ele>76.56</ele>
        <time>2017-01-26T11:06:11Z</time>
      </trkpt>
      <trkpt lat="44.63667" lon="-0.17841">
        <ele>77.04</ele>
        <time>2017-01-26T11:06:14Z</time>
      </trkpt>
      <trkpt lat="44.63664" lon="-0.17818">
        <ele>77.04</ele>
        <time>2017-01-26T11:06:28Z</time>
      </trkpt>
      <trkpt lat="44.63663" lon="-0.17798">
        <ele>77.04</ele>
        <time>2017-01-26T11:06:41Z</time>
      </trkpt>
      <trkpt lat="44.63668" lon="-0.17768">
        <ele>78</ele>
        <time>2017-01-26T11:06:57Z</time>
      </trkpt>
      <trkpt lat="44.63672" lon="-0.17739">
        <ele>78</ele>
        <time>2017-01-26T11:07:14Z</time>
      </trkpt>
      <trkpt lat="44.63673" lon="-0.17729">
        <ele>78</ele>
        <time>2017-01-26T11:07:20Z</time>
      </trkpt>
      <trkpt lat="44.63677" lon="-0.17701">
        <ele>78.48</ele>
        <time>2017-01-26T11:07:36Z</time>
      </trkpt>
      <trkpt lat="44.63682" lon="-0.17673">
        <ele>78.97</ele>
        <time>2017-01-26T11:07:52Z</time>
      </trkpt>
      <trkpt lat="44.63683" lon="-0.17668">
        <ele>78.97</ele>
        <time>2017-01-26T11:07:55Z</time>
      </trkpt>
      <trkpt lat="44.63683" lon="-0.1766">
        <ele>79.45</ele>
        <time>2017-01-26T11:08:01Z</time>
      </trkpt>
      <trkpt lat="44.6369" lon="-0.17639">
        <ele>79.93</ele>
        <time>2017-01-26T11:08:16Z</time>
      </trkpt>
      <trkpt lat="44.63697" lon="-0.17621">
        <ele>80.89</ele>
        <time>2017-01-26T11:08:31Z</time>
      </trkpt>
      <trkpt lat="44.63696" lon="-0.17619">
        <ele>80.41</ele>
        <time>2017-01-26T11:08:48Z</time>
      </trkpt>
      <trkpt lat="44.63695" lon="-0.17616">
        <ele>80.41</ele>
        <time>2017-01-26T11:09:08Z</time>
      </trkpt>
      <trkpt lat="44.63691" lon="-0.17609">
        <ele>79.93</ele>
        <time>2017-01-26T11:09:23Z</time>
      </trkpt>
      <trkpt lat="44.63691" lon="-0.17609">
        <ele>80.41</ele>
        <time>2017-01-26T11:09:39Z</time>
      </trkpt>
      <trkpt lat="44.637" lon="-0.17607">
        <ele>80.89</ele>
        <time>2017-01-26T11:09:50Z</time>
      </trkpt>
      <trkpt lat="44.63705" lon="-0.17605">
        <ele>81.85</ele>
        <time>2017-01-26T11:10:05Z</time>
      </trkpt>
      <trkpt lat="44.63712" lon="-0.176">
        <ele>81.85</ele>
        <time>2017-01-26T11:10:16Z</time>
      </trkpt>
      <trkpt lat="44.63731" lon="-0.17594">
        <ele>83.77</ele>
        <time>2017-01-26T11:10:33Z</time>
      </trkpt>
      <trkpt lat="44.63741" lon="-0.17591">
        <ele>83.77</ele>
        <time>2017-01-26T11:10:44Z</time>
      </trkpt>
      <trkpt lat="44.63752" lon="-0.1759">
        <ele>84.73</ele>
        <time>2017-01-26T11:10:54Z</time>
      </trkpt>
      <trkpt lat="44.63756" lon="-0.17589">
        <ele>84.73</ele>
        <time>2017-01-26T11:10:58Z</time>
      </trkpt>
      <trkpt lat="44.63775" lon="-0.17577">
        <ele>85.21</ele>
        <time>2017-01-26T11:11:15Z</time>
      </trkpt>
      <trkpt lat="44.63778" lon="-0.17577">
        <ele>85.21</ele>
        <time>2017-01-26T11:11:20Z</time>
      </trkpt>
      <trkpt lat="44.63788" lon="-0.1758">
        <ele>84.25</ele>
        <time>2017-01-26T11:11:34Z</time>
      </trkpt>
      <trkpt lat="44.63793" lon="-0.17582">
        <ele>84.25</ele>
        <time>2017-01-26T11:11:47Z</time>
      </trkpt>
      <trkpt lat="44.63792" lon="-0.17582">
        <ele>84.25</ele>
        <time>2017-01-26T11:12:02Z</time>
      </trkpt>
      <trkpt lat="44.63785" lon="-0.17576">
        <ele>84.73</ele>
        <time>2017-01-26T11:12:15Z</time>
      </trkpt>
      <trkpt lat="44.63783" lon="-0.17566">
        <ele>84.73</ele>
        <time>2017-01-26T11:12:23Z</time>
      </trkpt>
      <trkpt lat="44.63783" lon="-0.17554">
        <ele>83.77</ele>
        <time>2017-01-26T11:12:28Z</time>
      </trkpt>
      <trkpt lat="44.6378" lon="-0.17541">
        <ele>83.29</ele>
        <time>2017-01-26T11:12:35Z</time>
      </trkpt>
      <trkpt lat="44.63775" lon="-0.17523">
        <ele>83.77</ele>
        <time>2017-01-26T11:12:44Z</time>
      </trkpt>
      <trkpt lat="44.63766" lon="-0.17496">
        <ele>83.29</ele>
        <time>2017-01-26T11:13:01Z</time>
      </trkpt>
      <trkpt lat="44.63757" lon="-0.17477">
        <ele>83.77</ele>
        <time>2017-01-26T11:13:15Z</time>
      </trkpt>
      <trkpt lat="44.63755" lon="-0.17467">
        <ele>83.29</ele>
        <time>2017-01-26T11:13:21Z</time>
      </trkpt>
      <trkpt lat="44.63748" lon="-0.17462">
        <ele>82.33</ele>
        <time>2017-01-26T11:13:29Z</time>
      </trkpt>
      <trkpt lat="44.63741" lon="-0.17448">
        <ele>82.81</ele>
        <time>2017-01-26T11:13:41Z</time>
      </trkpt>
      <trkpt lat="44.63736" lon="-0.17445">
        <ele>82.33</ele>
        <time>2017-01-26T11:13:50Z</time>
      </trkpt>
      <trkpt lat="44.63734" lon="-0.17441">
        <ele>81.85</ele>
        <time>2017-01-26T11:13:56Z</time>
      </trkpt>
      <trkpt lat="44.63732" lon="-0.17439">
        <ele>81.37</ele>
        <time>2017-01-26T11:13:58Z</time>
      </trkpt>
      <trkpt lat="44.63724" lon="-0.17437">
        <ele>81.85</ele>
        <time>2017-01-26T11:14:08Z</time>
      </trkpt>
      <trkpt lat="44.63716" lon="-0.17436">
        <ele>81.85</ele>
        <time>2017-01-26T11:14:21Z</time>
      </trkpt>
      <trkpt lat="44.63715" lon="-0.17436">
        <ele>81.37</ele>
        <time>2017-01-26T11:14:37Z</time>
      </trkpt>
      <trkpt lat="44.63714" lon="-0.17436">
        <ele>81.85</ele>
        <time>2017-01-26T11:14:50Z</time>
      </trkpt>
      <trkpt lat="44.63713" lon="-0.17436">
        <ele>81.37</ele>
        <time>2017-01-26T11:15:09Z</time>
      </trkpt>
      <trkpt lat="44.63714" lon="-0.17436">
        <ele>93.87</ele>
        <time>2017-01-26T11:56:11Z</time>
      </trkpt>
      <trkpt lat="44.63717" lon="-0.17437">
        <ele>92.9</ele>
        <time>2017-01-26T11:56:25Z</time>
      </trkpt>
      <trkpt lat="44.63717" lon="-0.17436">
        <ele>89.54</ele>
        <time>2017-01-26T11:56:31Z</time>
      </trkpt>
      <trkpt lat="44.63717" lon="-0.17436">
        <ele>86.18</ele>
        <time>2017-01-26T11:56:35Z</time>
      </trkpt>
      <trkpt lat="44.63716" lon="-0.17436">
        <ele>83.29</ele>
        <time>2017-01-26T11:56:40Z</time>
      </trkpt>
      <trkpt lat="44.63717" lon="-0.17436">
        <ele>81.85</ele>
        <time>2017-01-26T11:56:43Z</time>
      </trkpt>
      <trkpt lat="44.63716" lon="-0.17439">
        <ele>78.97</ele>
        <time>2017-01-26T11:56:49Z</time>
      </trkpt>
      <trkpt lat="44.63717" lon="-0.17438">
        <ele>75.6</ele>
        <time>2017-01-26T11:57:00Z</time>
      </trkpt>
      <trkpt lat="44.63715" lon="-0.17438">
        <ele>74.16</ele>
        <time>2017-01-26T11:57:15Z</time>
      </trkpt>
      <trkpt lat="44.63715" lon="-0.17436">
        <ele>74.16</ele>
        <time>2017-01-26T11:57:42Z</time>
      </trkpt>
      <trkpt lat="44.63719" lon="-0.17435">
        <ele>73.68</ele>
        <time>2017-01-26T11:57:54Z</time>
      </trkpt>
      <trkpt lat="44.63723" lon="-0.17436">
        <ele>73.68</ele>
        <time>2017-01-26T11:58:09Z</time>
      </trkpt>
      <trkpt lat="44.6373" lon="-0.17437">
        <ele>74.16</ele>
        <time>2017-01-26T11:58:19Z</time>
      </trkpt>
      <trkpt lat="44.63733" lon="-0.17438">
        <ele>73.68</ele>
        <time>2017-01-26T11:58:21Z</time>
      </trkpt>
      <trkpt lat="44.63741" lon="-0.17439">
        <ele>74.16</ele>
        <time>2017-01-26T11:58:28Z</time>
      </trkpt>
      <trkpt lat="44.63754" lon="-0.1744">
        <ele>75.6</ele>
        <time>2017-01-26T11:58:41Z</time>
      </trkpt>
      <trkpt lat="44.63757" lon="-0.17437">
        <ele>76.08</ele>
        <time>2017-01-26T11:58:54Z</time>
      </trkpt>
      <trkpt lat="44.63757" lon="-0.17433">
        <ele>75.6</ele>
        <time>2017-01-26T11:59:08Z</time>
      </trkpt>
      <trkpt lat="44.63758" lon="-0.17429">
        <ele>74.64</ele>
        <time>2017-01-26T11:59:16Z</time>
      </trkpt>
      <trkpt lat="44.63766" lon="-0.17404">
        <ele>76.08</ele>
        <time>2017-01-26T11:59:33Z</time>
      </trkpt>
      <trkpt lat="44.63767" lon="-0.17398">
        <ele>76.08</ele>
        <time>2017-01-26T11:59:49Z</time>
      </trkpt>
      <trkpt lat="44.63768" lon="-0.17397">
        <ele>76.08</ele>
        <time>2017-01-26T11:59:53Z</time>
      </trkpt>
      <trkpt lat="44.63769" lon="-0.17393">
        <ele>76.08</ele>
        <time>2017-01-26T11:59:56Z</time>
      </trkpt>
      <trkpt lat="44.63774" lon="-0.17379">
        <ele>77.52</ele>
        <time>2017-01-26T12:00:05Z</time>
      </trkpt>
      <trkpt lat="44.63778" lon="-0.17367">
        <ele>76.56</ele>
        <time>2017-01-26T12:00:13Z</time>
      </trkpt>
      <trkpt lat="44.63784" lon="-0.17341">
        <ele>76.56</ele>
        <time>2017-01-26T12:00:29Z</time>
      </trkpt>
      <trkpt lat="44.63793" lon="-0.17319">
        <ele>77.52</ele>
        <time>2017-01-26T12:00:43Z</time>
      </trkpt>
      <trkpt lat="44.63795" lon="-0.17307">
        <ele>77.04</ele>
        <time>2017-01-26T12:00:53Z</time>
      </trkpt>
      <trkpt lat="44.63798" lon="-0.17293">
        <ele>77.04</ele>
        <time>2017-01-26T12:01:02Z</time>
      </trkpt>
      <trkpt lat="44.63799" lon="-0.1729">
        <ele>77.04</ele>
        <time>2017-01-26T12:01:04Z</time>
      </trkpt>
      <trkpt lat="44.63808" lon="-0.17265">
        <ele>77.52</ele>
        <time>2017-01-26T12:01:19Z</time>
      </trkpt>
      <trkpt lat="44.6381" lon="-0.17247">
        <ele>77.04</ele>
        <time>2017-01-26T12:01:30Z</time>
      </trkpt>
      <trkpt lat="44.63816" lon="-0.17229">
        <ele>77.52</ele>
        <time>2017-01-26T12:01:41Z</time>
      </trkpt>
      <trkpt lat="44.63823" lon="-0.17206">
        <ele>77.04</ele>
        <time>2017-01-26T12:01:55Z</time>
      </trkpt>
      <trkpt lat="44.63829" lon="-0.1718">
        <ele>78</ele>
        <time>2017-01-26T12:02:09Z</time>
      </trkpt>
      <trkpt lat="44.6383" lon="-0.17177">
        <ele>77.52</ele>
        <time>2017-01-26T12:02:11Z</time>
      </trkpt>
      <trkpt lat="44.63833" lon="-0.17169">
        <ele>78</ele>
        <time>2017-01-26T12:02:16Z</time>
      </trkpt>
      <trkpt lat="44.63837" lon="-0.17152">
        <ele>77.04</ele>
        <time>2017-01-26T12:02:26Z</time>
      </trkpt>
      <trkpt lat="44.63837" lon="-0.17146">
        <ele>78</ele>
        <time>2017-01-26T12:02:29Z</time>
      </trkpt>
      <trkpt lat="44.63838" lon="-0.17138">
        <ele>77.52</ele>
        <time>2017-01-26T12:02:33Z</time>
      </trkpt>
      <trkpt lat="44.6384" lon="-0.1713">
        <ele>78.97</ele>
        <time>2017-01-26T12:02:37Z</time>
      </trkpt>
      <trkpt lat="44.63839" lon="-0.17102">
        <ele>78.48</ele>
        <time>2017-01-26T12:02:53Z</time>
      </trkpt>
      <trkpt lat="44.63836" lon="-0.17083">
        <ele>79.93</ele>
        <time>2017-01-26T12:03:02Z</time>
      </trkpt>
      <trkpt lat="44.63831" lon="-0.17059">
        <ele>80.41</ele>
        <time>2017-01-26T12:03:16Z</time>
      </trkpt>
      <trkpt lat="44.63824" lon="-0.17028">
        <ele>80.41</ele>
        <time>2017-01-26T12:03:33Z</time>
      </trkpt>
      <trkpt lat="44.6382" lon="-0.1701">
        <ele>81.37</ele>
        <time>2017-01-26T12:03:42Z</time>
      </trkpt>
      <trkpt lat="44.63813" lon="-0.1698">
        <ele>81.85</ele>
        <time>2017-01-26T12:04:00Z</time>
      </trkpt>
      <trkpt lat="44.63808" lon="-0.16967">
        <ele>83.29</ele>
        <time>2017-01-26T12:04:13Z</time>
      </trkpt>
      <trkpt lat="44.63807" lon="-0.16957">
        <ele>82.81</ele>
        <time>2017-01-26T12:04:20Z</time>
      </trkpt>
      <trkpt lat="44.63806" lon="-0.1695">
        <ele>82.81</ele>
        <time>2017-01-26T12:04:25Z</time>
      </trkpt>
      <trkpt lat="44.63797" lon="-0.16927">
        <ele>82.81</ele>
        <time>2017-01-26T12:04:40Z</time>
      </trkpt>
      <trkpt lat="44.6379" lon="-0.16896">
        <ele>82.33</ele>
        <time>2017-01-26T12:04:58Z</time>
      </trkpt>
      <trkpt lat="44.63781" lon="-0.16864">
        <ele>81.85</ele>
        <time>2017-01-26T12:05:15Z</time>
      </trkpt>
      <trkpt lat="44.63775" lon="-0.16838">
        <ele>81.37</ele>
        <time>2017-01-26T12:05:29Z</time>
      </trkpt>
      <trkpt lat="44.63775" lon="-0.16821">
        <ele>81.37</ele>
        <time>2017-01-26T12:05:38Z</time>
      </trkpt>
      <trkpt lat="44.63784" lon="-0.1681">
        <ele>81.85</ele>
        <time>2017-01-26T12:05:48Z</time>
      </trkpt>
      <trkpt lat="44.63802" lon="-0.16803">
        <ele>82.81</ele>
        <time>2017-01-26T12:06:03Z</time>
      </trkpt>
      <trkpt lat="44.63806" lon="-0.16801">
        <ele>84.25</ele>
        <time>2017-01-26T12:06:06Z</time>
      </trkpt>
      <trkpt lat="44.63826" lon="-0.16796">
        <ele>84.25</ele>
        <time>2017-01-26T12:06:21Z</time>
      </trkpt>
      <trkpt lat="44.63847" lon="-0.1679">
        <ele>85.69</ele>
        <time>2017-01-26T12:06:37Z</time>
      </trkpt>
      <trkpt lat="44.6387" lon="-0.16783">
        <ele>87.14</ele>
        <time>2017-01-26T12:06:54Z</time>
      </trkpt>
      <trkpt lat="44.6389" lon="-0.16775">
        <ele>88.1</ele>
        <time>2017-01-26T12:07:10Z</time>
      </trkpt>
      <trkpt lat="44.63904" lon="-0.16758">
        <ele>88.1</ele>
        <time>2017-01-26T12:07:25Z</time>
      </trkpt>
      <trkpt lat="44.63917" lon="-0.16736">
        <ele>86.66</ele>
        <time>2017-01-26T12:07:40Z</time>
      </trkpt>
      <trkpt lat="44.6393" lon="-0.16709">
        <ele>86.18</ele>
        <time>2017-01-26T12:07:57Z</time>
      </trkpt>
      <trkpt lat="44.63948" lon="-0.16691">
        <ele>86.66</ele>
        <time>2017-01-26T12:08:14Z</time>
      </trkpt>
      <trkpt lat="44.63971" lon="-0.16684">
        <ele>86.18</ele>
        <time>2017-01-26T12:08:32Z</time>
      </trkpt>
      <trkpt lat="44.63993" lon="-0.16676">
        <ele>86.18</ele>
        <time>2017-01-26T12:08:48Z</time>
      </trkpt>
      <trkpt lat="44.64014" lon="-0.16672">
        <ele>86.18</ele>
        <time>2017-01-26T12:09:04Z</time>
      </trkpt>
      <trkpt lat="44.64036" lon="-0.16664">
        <ele>86.66</ele>
        <time>2017-01-26T12:09:21Z</time>
      </trkpt>
      <trkpt lat="44.64058" lon="-0.16659">
        <ele>86.66</ele>
        <time>2017-01-26T12:09:38Z</time>
      </trkpt>
      <trkpt lat="44.64081" lon="-0.16654">
        <ele>86.18</ele>
        <time>2017-01-26T12:09:55Z</time>
      </trkpt>
      <trkpt lat="44.64102" lon="-0.16651">
        <ele>86.66</ele>
        <time>2017-01-26T12:10:12Z</time>
      </trkpt>
      <trkpt lat="44.64121" lon="-0.1665">
        <ele>86.66</ele>
        <time>2017-01-26T12:10:27Z</time>
      </trkpt>
      <trkpt lat="44.6414" lon="-0.16645">
        <ele>86.66</ele>
        <time>2017-01-26T12:10:43Z</time>
      </trkpt>
      <trkpt lat="44.64152" lon="-0.16641">
        <ele>86.66</ele>
        <time>2017-01-26T12:10:52Z</time>
      </trkpt>
      <trkpt lat="44.64168" lon="-0.16631">
        <ele>86.66</ele>
        <time>2017-01-26T12:11:05Z</time>
      </trkpt>
      <trkpt lat="44.64181" lon="-0.16618">
        <ele>86.18</ele>
        <time>2017-01-26T12:11:16Z</time>
      </trkpt>
      <trkpt lat="44.64182" lon="-0.16615">
        <ele>85.69</ele>
        <time>2017-01-26T12:11:18Z</time>
      </trkpt>
      <trkpt lat="44.64193" lon="-0.166">
        <ele>84.73</ele>
        <time>2017-01-26T12:11:30Z</time>
      </trkpt>
      <trkpt lat="44.64194" lon="-0.16599">
        <ele>85.21</ele>
        <time>2017-01-26T12:11:31Z</time>
      </trkpt>
      <trkpt lat="44.64202" lon="-0.16592">
        <ele>85.21</ele>
        <time>2017-01-26T12:11:38Z</time>
      </trkpt>
      <trkpt lat="44.64211" lon="-0.16575">
        <ele>84.73</ele>
        <time>2017-01-26T12:11:49Z</time>
      </trkpt>
      <trkpt lat="44.64214" lon="-0.1657">
        <ele>84.73</ele>
        <time>2017-01-26T12:11:53Z</time>
      </trkpt>
      <trkpt lat="44.64225" lon="-0.16544">
        <ele>85.21</ele>
        <time>2017-01-26T12:12:09Z</time>
      </trkpt>
      <trkpt lat="44.64235" lon="-0.16518">
        <ele>85.21</ele>
        <time>2017-01-26T12:12:25Z</time>
      </trkpt>
      <trkpt lat="44.64241" lon="-0.16493">
        <ele>85.69</ele>
        <time>2017-01-26T12:12:39Z</time>
      </trkpt>
      <trkpt lat="44.64245" lon="-0.16466">
        <ele>86.66</ele>
        <time>2017-01-26T12:12:57Z</time>
      </trkpt>
      <trkpt lat="44.64247" lon="-0.16458">
        <ele>86.66</ele>
        <time>2017-01-26T12:13:01Z</time>
      </trkpt>
      <trkpt lat="44.6425" lon="-0.16431">
        <ele>87.62</ele>
        <time>2017-01-26T12:13:17Z</time>
      </trkpt>
      <trkpt lat="44.6425" lon="-0.16404">
        <ele>87.62</ele>
        <time>2017-01-26T12:13:32Z</time>
      </trkpt>
      <trkpt lat="44.64251" lon="-0.16381">
        <ele>89.06</ele>
        <time>2017-01-26T12:13:46Z</time>
      </trkpt>
      <trkpt lat="44.64248" lon="-0.1637">
        <ele>89.06</ele>
        <time>2017-01-26T12:13:52Z</time>
      </trkpt>
      <trkpt lat="44.6425" lon="-0.16353">
        <ele>90.02</ele>
        <time>2017-01-26T12:14:02Z</time>
      </trkpt>
      <trkpt lat="44.64251" lon="-0.16345">
        <ele>90.5</ele>
        <time>2017-01-26T12:14:07Z</time>
      </trkpt>
      <trkpt lat="44.64251" lon="-0.1634">
        <ele>90.5</ele>
        <time>2017-01-26T12:14:10Z</time>
      </trkpt>
      <trkpt lat="44.64251" lon="-0.16326">
        <ele>90.98</ele>
        <time>2017-01-26T12:14:17Z</time>
      </trkpt>
      <trkpt lat="44.64251" lon="-0.16313">
        <ele>90.02</ele>
        <time>2017-01-26T12:14:24Z</time>
      </trkpt>
      <trkpt lat="44.64242" lon="-0.1629">
        <ele>88.58</ele>
        <time>2017-01-26T12:14:37Z</time>
      </trkpt>
      <trkpt lat="44.64235" lon="-0.16273">
        <ele>89.06</ele>
        <time>2017-01-26T12:14:47Z</time>
      </trkpt>
      <trkpt lat="44.64227" lon="-0.16243">
        <ele>87.62</ele>
        <time>2017-01-26T12:15:04Z</time>
      </trkpt>
      <trkpt lat="44.64226" lon="-0.16239">
        <ele>87.14</ele>
        <time>2017-01-26T12:15:07Z</time>
      </trkpt>
      <trkpt lat="44.64222" lon="-0.16215">
        <ele>87.14</ele>
        <time>2017-01-26T12:15:20Z</time>
      </trkpt>
      <trkpt lat="44.64221" lon="-0.16204">
        <ele>86.18</ele>
        <time>2017-01-26T12:15:28Z</time>
      </trkpt>
      <trkpt lat="44.64214" lon="-0.16186">
        <ele>86.66</ele>
        <time>2017-01-26T12:15:40Z</time>
      </trkpt>
      <trkpt lat="44.6421" lon="-0.16176">
        <ele>86.66</ele>
        <time>2017-01-26T12:15:45Z</time>
      </trkpt>
      <trkpt lat="44.64204" lon="-0.16154">
        <ele>86.18</ele>
        <time>2017-01-26T12:15:59Z</time>
      </trkpt>
      <trkpt lat="44.64196" lon="-0.16134">
        <ele>85.69</ele>
        <time>2017-01-26T12:16:11Z</time>
      </trkpt>
      <trkpt lat="44.64186" lon="-0.1611">
        <ele>84.73</ele>
        <time>2017-01-26T12:16:26Z</time>
      </trkpt>
      <trkpt lat="44.64179" lon="-0.16087">
        <ele>84.73</ele>
        <time>2017-01-26T12:16:41Z</time>
      </trkpt>
      <trkpt lat="44.64182" lon="-0.16075">
        <ele>84.73</ele>
        <time>2017-01-26T12:16:49Z</time>
      </trkpt>
      <trkpt lat="44.64185" lon="-0.16072">
        <ele>84.73</ele>
        <time>2017-01-26T12:16:53Z</time>
      </trkpt>
      <trkpt lat="44.64196" lon="-0.16063">
        <ele>84.25</ele>
        <time>2017-01-26T12:17:06Z</time>
      </trkpt>
      <trkpt lat="44.64197" lon="-0.16062">
        <ele>83.77</ele>
        <time>2017-01-26T12:17:07Z</time>
      </trkpt>
      <trkpt lat="44.642" lon="-0.16061">
        <ele>83.29</ele>
        <time>2017-01-26T12:17:23Z</time>
      </trkpt>
      <trkpt lat="44.64203" lon="-0.16057">
        <ele>82.81</ele>
        <time>2017-01-26T12:17:32Z</time>
      </trkpt>
      <trkpt lat="44.64211" lon="-0.16049">
        <ele>82.81</ele>
        <time>2017-01-26T12:17:44Z</time>
      </trkpt>
      <trkpt lat="44.64212" lon="-0.16048">
        <ele>82.81</ele>
        <time>2017-01-26T12:17:45Z</time>
      </trkpt>
      <trkpt lat="44.6423" lon="-0.16033">
        <ele>81.85</ele>
        <time>2017-01-26T12:18:03Z</time>
      </trkpt>
      <trkpt lat="44.64238" lon="-0.16025">
        <ele>81.85</ele>
        <time>2017-01-26T12:18:12Z</time>
      </trkpt>
      <trkpt lat="44.6425" lon="-0.16015">
        <ele>81.85</ele>
        <time>2017-01-26T12:18:26Z</time>
      </trkpt>
      <trkpt lat="44.64266" lon="-0.15999">
        <ele>81.85</ele>
        <time>2017-01-26T12:18:44Z</time>
      </trkpt>
      <trkpt lat="44.64269" lon="-0.15997">
        <ele>82.33</ele>
        <time>2017-01-26T12:18:47Z</time>
      </trkpt>
      <trkpt lat="44.64282" lon="-0.15988">
        <ele>82.81</ele>
        <time>2017-01-26T12:19:01Z</time>
      </trkpt>
      <trkpt lat="44.64296" lon="-0.15974">
        <ele>82.81</ele>
        <time>2017-01-26T12:19:17Z</time>
      </trkpt>
      <trkpt lat="44.64309" lon="-0.15962">
        <ele>82.81</ele>
        <time>2017-01-26T12:19:33Z</time>
      </trkpt>
      <trkpt lat="44.64322" lon="-0.15952">
        <ele>82.33</ele>
        <time>2017-01-26T12:19:47Z</time>
      </trkpt>
      <trkpt lat="44.64336" lon="-0.15939">
        <ele>81.37</ele>
        <time>2017-01-26T12:20:03Z</time>
      </trkpt>
      <trkpt lat="44.64337" lon="-0.15931">
        <ele>80.41</ele>
        <time>2017-01-26T12:20:11Z</time>
      </trkpt>
      <trkpt lat="44.64334" lon="-0.15925">
        <ele>79.93</ele>
        <time>2017-01-26T12:20:15Z</time>
      </trkpt>
      <trkpt lat="44.6433" lon="-0.15912">
        <ele>80.89</ele>
        <time>2017-01-26T12:20:24Z</time>
      </trkpt>
      <trkpt lat="44.64316" lon="-0.15895">
        <ele>80.89</ele>
        <time>2017-01-26T12:20:40Z</time>
      </trkpt>
      <trkpt lat="44.64312" lon="-0.15892">
        <ele>80.41</ele>
        <time>2017-01-26T12:20:44Z</time>
      </trkpt>
      <trkpt lat="44.64296" lon="-0.15876">
        <ele>80.41</ele>
        <time>2017-01-26T12:20:59Z</time>
      </trkpt>
      <trkpt lat="44.6428" lon="-0.15857">
        <ele>80.41</ele>
        <time>2017-01-26T12:21:16Z</time>
      </trkpt>
      <trkpt lat="44.64275" lon="-0.15848">
        <ele>79.45</ele>
        <time>2017-01-26T12:21:23Z</time>
      </trkpt>
      <trkpt lat="44.64265" lon="-0.15827">
        <ele>78.48</ele>
        <time>2017-01-26T12:21:36Z</time>
      </trkpt>
      <trkpt lat="44.64255" lon="-0.15813">
        <ele>78.48</ele>
        <time>2017-01-26T12:21:47Z</time>
      </trkpt>
      <trkpt lat="44.64247" lon="-0.15795">
        <ele>77.52</ele>
        <time>2017-01-26T12:21:59Z</time>
      </trkpt>
      <trkpt lat="44.64232" lon="-0.15769">
        <ele>76.08</ele>
        <time>2017-01-26T12:22:16Z</time>
      </trkpt>
      <trkpt lat="44.64219" lon="-0.15746">
        <ele>76.08</ele>
        <time>2017-01-26T12:22:29Z</time>
      </trkpt>
      <trkpt lat="44.64211" lon="-0.15732">
        <ele>75.6</ele>
        <time>2017-01-26T12:22:41Z</time>
      </trkpt>
      <trkpt lat="44.6421" lon="-0.15731">
        <ele>75.12</ele>
        <time>2017-01-26T12:22:42Z</time>
      </trkpt>
      <trkpt lat="44.64201" lon="-0.15714">
        <ele>74.64</ele>
        <time>2017-01-26T12:22:55Z</time>
      </trkpt>
      <trkpt lat="44.64194" lon="-0.15694">
        <ele>72.72</ele>
        <time>2017-01-26T12:23:10Z</time>
      </trkpt>
      <trkpt lat="44.64185" lon="-0.15678">
        <ele>71.27</ele>
        <time>2017-01-26T12:23:25Z</time>
      </trkpt>
      <trkpt lat="44.64175" lon="-0.15659">
        <ele>70.79</ele>
        <time>2017-01-26T12:23:39Z</time>
      </trkpt>
      <trkpt lat="44.64158" lon="-0.15632">
        <ele>71.76</ele>
        <time>2017-01-26T12:23:55Z</time>
      </trkpt>
      <trkpt lat="44.6415" lon="-0.15619">
        <ele>72.72</ele>
        <time>2017-01-26T12:24:06Z</time>
      </trkpt>
      <trkpt lat="44.64135" lon="-0.15596">
        <ele>73.2</ele>
        <time>2017-01-26T12:24:23Z</time>
      </trkpt>
      <trkpt lat="44.64125" lon="-0.15578">
        <ele>74.16</ele>
        <time>2017-01-26T12:24:36Z</time>
      </trkpt>
      <trkpt lat="44.64113" lon="-0.15559">
        <ele>75.12</ele>
        <time>2017-01-26T12:24:49Z</time>
      </trkpt>
      <trkpt lat="44.64098" lon="-0.15537">
        <ele>75.6</ele>
        <time>2017-01-26T12:25:04Z</time>
      </trkpt>
      <trkpt lat="44.64083" lon="-0.15516">
        <ele>76.56</ele>
        <time>2017-01-26T12:25:21Z</time>
      </trkpt>
      <trkpt lat="44.64082" lon="-0.15512">
        <ele>76.56</ele>
        <time>2017-01-26T12:25:23Z</time>
      </trkpt>
      <trkpt lat="44.6407" lon="-0.15488">
        <ele>77.04</ele>
        <time>2017-01-26T12:25:38Z</time>
      </trkpt>
      <trkpt lat="44.64057" lon="-0.15464">
        <ele>77.04</ele>
        <time>2017-01-26T12:25:54Z</time>
      </trkpt>
      <trkpt lat="44.64046" lon="-0.1544">
        <ele>77.04</ele>
        <time>2017-01-26T12:26:10Z</time>
      </trkpt>
      <trkpt lat="44.64035" lon="-0.15419">
        <ele>77.52</ele>
        <time>2017-01-26T12:26:24Z</time>
      </trkpt>
      <trkpt lat="44.64023" lon="-0.15393">
        <ele>77.52</ele>
        <time>2017-01-26T12:26:40Z</time>
      </trkpt>
      <trkpt lat="44.64012" lon="-0.15372">
        <ele>77.04</ele>
        <time>2017-01-26T12:26:55Z</time>
      </trkpt>
      <trkpt lat="44.64007" lon="-0.15364">
        <ele>77.04</ele>
        <time>2017-01-26T12:27:00Z</time>
      </trkpt>
      <trkpt lat="44.63994" lon="-0.15336">
        <ele>77.04</ele>
        <time>2017-01-26T12:27:18Z</time>
      </trkpt>
      <trkpt lat="44.6398" lon="-0.15312">
        <ele>76.56</ele>
        <time>2017-01-26T12:27:34Z</time>
      </trkpt>
      <trkpt lat="44.63971" lon="-0.15297">
        <ele>75.6</ele>
        <time>2017-01-26T12:27:44Z</time>
      </trkpt>
      <trkpt lat="44.6396" lon="-0.15273">
        <ele>75.12</ele>
        <time>2017-01-26T12:28:00Z</time>
      </trkpt>
      <trkpt lat="44.63955" lon="-0.15261">
        <ele>75.12</ele>
        <time>2017-01-26T12:28:08Z</time>
      </trkpt>
      <trkpt lat="44.63944" lon="-0.15239">
        <ele>74.16</ele>
        <time>2017-01-26T12:28:22Z</time>
      </trkpt>
      <trkpt lat="44.63935" lon="-0.15227">
        <ele>73.2</ele>
        <time>2017-01-26T12:28:31Z</time>
      </trkpt>
      <trkpt lat="44.63928" lon="-0.15224">
        <ele>73.2</ele>
        <time>2017-01-26T12:28:36Z</time>
      </trkpt>
      <trkpt lat="44.6391" lon="-0.15244">
        <ele>74.16</ele>
        <time>2017-01-26T12:28:52Z</time>
      </trkpt>
      <trkpt lat="44.63894" lon="-0.15258">
        <ele>75.12</ele>
        <time>2017-01-26T12:29:06Z</time>
      </trkpt>
      <trkpt lat="44.63889" lon="-0.15261">
        <ele>79.45</ele>
        <time>2017-01-26T12:29:10Z</time>
      </trkpt>
      <trkpt lat="44.63888" lon="-0.15262">
        <ele>74.64</ele>
        <time>2017-01-26T12:29:11Z</time>
      </trkpt>
      <trkpt lat="44.63884" lon="-0.15264">
        <ele>74.64</ele>
        <time>2017-01-26T12:29:15Z</time>
      </trkpt>
      <trkpt lat="44.63877" lon="-0.15267">
        <ele>74.16</ele>
        <time>2017-01-26T12:29:20Z</time>
      </trkpt>
      <trkpt lat="44.63857" lon="-0.15278">
        <ele>74.16</ele>
        <time>2017-01-26T12:29:35Z</time>
      </trkpt>
      <trkpt lat="44.63843" lon="-0.15286">
        <ele>74.16</ele>
        <time>2017-01-26T12:29:47Z</time>
      </trkpt>
      <trkpt lat="44.63824" lon="-0.15296">
        <ele>72.24</ele>
        <time>2017-01-26T12:30:03Z</time>
      </trkpt>
      <trkpt lat="44.63806" lon="-0.15306">
        <ele>71.27</ele>
        <time>2017-01-26T12:30:18Z</time>
      </trkpt>
      <trkpt lat="44.63785" lon="-0.15311">
        <ele>70.31</ele>
        <time>2017-01-26T12:30:34Z</time>
      </trkpt>
      <trkpt lat="44.63782" lon="-0.15311">
        <ele>70.79</ele>
        <time>2017-01-26T12:30:37Z</time>
      </trkpt>
      <trkpt lat="44.63762" lon="-0.15321">
        <ele>69.35</ele>
        <time>2017-01-26T12:30:53Z</time>
      </trkpt>
      <trkpt lat="44.63743" lon="-0.15332">
        <ele>67.43</ele>
        <time>2017-01-26T12:31:07Z</time>
      </trkpt>
      <trkpt lat="44.63725" lon="-0.15341">
        <ele>65.51</ele>
        <time>2017-01-26T12:31:20Z</time>
      </trkpt>
      <trkpt lat="44.63718" lon="-0.15345">
        <ele>65.03</ele>
        <time>2017-01-26T12:31:26Z</time>
      </trkpt>
      <trkpt lat="44.63712" lon="-0.15349">
        <ele>64.55</ele>
        <time>2017-01-26T12:31:31Z</time>
      </trkpt>
      <trkpt lat="44.63689" lon="-0.15363">
        <ele>62.62</ele>
        <time>2017-01-26T12:31:49Z</time>
      </trkpt>
      <trkpt lat="44.63669" lon="-0.15374">
        <ele>61.66</ele>
        <time>2017-01-26T12:32:04Z</time>
      </trkpt>
      <trkpt lat="44.63651" lon="-0.15383">
        <ele>62.62</ele>
        <time>2017-01-26T12:32:18Z</time>
      </trkpt>
      <trkpt lat="44.63648" lon="-0.15387">
        <ele>62.62</ele>
        <time>2017-01-26T12:32:29Z</time>
      </trkpt>
      <trkpt lat="44.63647" lon="-0.15386">
        <ele>62.62</ele>
        <time>2017-01-26T12:32:31Z</time>
      </trkpt>
      <trkpt lat="44.6364" lon="-0.15386">
        <ele>63.1</ele>
        <time>2017-01-26T12:32:39Z</time>
      </trkpt>
      <trkpt lat="44.63623" lon="-0.15372">
        <ele>64.07</ele>
        <time>2017-01-26T12:32:52Z</time>
      </trkpt>
      <trkpt lat="44.63611" lon="-0.15355">
        <ele>65.03</ele>
        <time>2017-01-26T12:33:03Z</time>
      </trkpt>
      <trkpt lat="44.63597" lon="-0.1534">
        <ele>65.99</ele>
        <time>2017-01-26T12:33:16Z</time>
      </trkpt>
      <trkpt lat="44.6358" lon="-0.15322">
        <ele>66.95</ele>
        <time>2017-01-26T12:33:31Z</time>
      </trkpt>
      <trkpt lat="44.63566" lon="-0.15308">
        <ele>65.99</ele>
        <time>2017-01-26T12:33:44Z</time>
      </trkpt>
      <trkpt lat="44.6356" lon="-0.15303">
        <ele>66.95</ele>
        <time>2017-01-26T12:33:49Z</time>
      </trkpt>
      <trkpt lat="44.63556" lon="-0.15299">
        <ele>66.95</ele>
        <time>2017-01-26T12:33:53Z</time>
      </trkpt>
      <trkpt lat="44.63544" lon="-0.15289">
        <ele>63.1</ele>
        <time>2017-01-26T12:34:03Z</time>
      </trkpt>
      <trkpt lat="44.63543" lon="-0.15288">
        <ele>73.68</ele>
        <time>2017-01-26T12:34:04Z</time>
      </trkpt>
      <trkpt lat="44.63542" lon="-0.15287">
        <ele>67.91</ele>
        <time>2017-01-26T12:34:05Z</time>
      </trkpt>
      <trkpt lat="44.63539" lon="-0.15285">
        <ele>66.95</ele>
        <time>2017-01-26T12:34:08Z</time>
      </trkpt>
      <trkpt lat="44.63525" lon="-0.15272">
        <ele>66.95</ele>
        <time>2017-01-26T12:34:21Z</time>
      </trkpt>
      <trkpt lat="44.6351" lon="-0.15263">
        <ele>66.95</ele>
        <time>2017-01-26T12:34:32Z</time>
      </trkpt>
      <trkpt lat="44.63505" lon="-0.15264">
        <ele>67.43</ele>
        <time>2017-01-26T12:34:36Z</time>
      </trkpt>
      <trkpt lat="44.63501" lon="-0.15266">
        <ele>66.95</ele>
        <time>2017-01-26T12:34:39Z</time>
      </trkpt>
      <trkpt lat="44.63491" lon="-0.15272">
        <ele>67.43</ele>
        <time>2017-01-26T12:34:46Z</time>
      </trkpt>
      <trkpt lat="44.63474" lon="-0.15286">
        <ele>68.39</ele>
        <time>2017-01-26T12:35:01Z</time>
      </trkpt>
      <trkpt lat="44.63457" lon="-0.15297">
        <ele>67.91</ele>
        <time>2017-01-26T12:35:15Z</time>
      </trkpt>
      <trkpt lat="44.63441" lon="-0.15309">
        <ele>68.39</ele>
        <time>2017-01-26T12:35:28Z</time>
      </trkpt>
      <trkpt lat="44.6343" lon="-0.15319">
        <ele>69.35</ele>
        <time>2017-01-26T12:35:39Z</time>
      </trkpt>
      <trkpt lat="44.63419" lon="-0.15329">
        <ele>70.31</ele>
        <time>2017-01-26T12:35:50Z</time>
      </trkpt>
      <trkpt lat="44.63404" lon="-0.15342">
        <ele>72.72</ele>
        <time>2017-01-26T12:36:04Z</time>
      </trkpt>
      <trkpt lat="44.63402" lon="-0.15344">
        <ele>73.2</ele>
        <time>2017-01-26T12:36:06Z</time>
      </trkpt>
      <trkpt lat="44.634" lon="-0.15345">
        <ele>73.2</ele>
        <time>2017-01-26T12:36:08Z</time>
      </trkpt>
      <trkpt lat="44.63396" lon="-0.15353">
        <ele>74.16</ele>
        <time>2017-01-26T12:36:13Z</time>
      </trkpt>
      <trkpt lat="44.63381" lon="-0.15365">
        <ele>76.08</ele>
        <time>2017-01-26T12:36:27Z</time>
      </trkpt>
      <trkpt lat="44.63373" lon="-0.15371">
        <ele>77.04</ele>
        <time>2017-01-26T12:36:35Z</time>
      </trkpt>
      <trkpt lat="44.63362" lon="-0.15378">
        <ele>78.97</ele>
        <time>2017-01-26T12:36:45Z</time>
      </trkpt>
      <trkpt lat="44.6336" lon="-0.1538">
        <ele>79.45</ele>
        <time>2017-01-26T12:36:47Z</time>
      </trkpt>
      <trkpt lat="44.63346" lon="-0.15394">
        <ele>80.41</ele>
        <time>2017-01-26T12:37:03Z</time>
      </trkpt>
      <trkpt lat="44.63332" lon="-0.15405">
        <ele>80.89</ele>
        <time>2017-01-26T12:37:18Z</time>
      </trkpt>
      <trkpt lat="44.63317" lon="-0.15416">
        <ele>80.41</ele>
        <time>2017-01-26T12:37:32Z</time>
      </trkpt>
      <trkpt lat="44.63302" lon="-0.15426">
        <ele>80.41</ele>
        <time>2017-01-26T12:37:45Z</time>
      </trkpt>
      <trkpt lat="44.63295" lon="-0.15428">
        <ele>79.93</ele>
        <time>2017-01-26T12:37:50Z</time>
      </trkpt>
      <trkpt lat="44.6329" lon="-0.15433">
        <ele>78.97</ele>
        <time>2017-01-26T12:37:57Z</time>
      </trkpt>
      <trkpt lat="44.63284" lon="-0.15439">
        <ele>78.97</ele>
        <time>2017-01-26T12:38:11Z</time>
      </trkpt>
      <trkpt lat="44.6328" lon="-0.15443">
        <ele>78.48</ele>
        <time>2017-01-26T12:38:23Z</time>
      </trkpt>
      <trkpt lat="44.63278" lon="-0.15447">
        <ele>78</ele>
        <time>2017-01-26T12:38:37Z</time>
      </trkpt>
      <trkpt lat="44.63276" lon="-0.15451">
        <ele>77.52</ele>
        <time>2017-01-26T12:38:41Z</time>
      </trkpt>
      <trkpt lat="44.63261" lon="-0.15469">
        <ele>75.6</ele>
        <time>2017-01-26T12:38:57Z</time>
      </trkpt>
      <trkpt lat="44.63251" lon="-0.15486">
        <ele>74.16</ele>
        <time>2017-01-26T12:39:11Z</time>
      </trkpt>
      <trkpt lat="44.63249" lon="-0.15491">
        <ele>73.68</ele>
        <time>2017-01-26T12:39:14Z</time>
      </trkpt>
      <trkpt lat="44.63245" lon="-0.15497">
        <ele>73.2</ele>
        <time>2017-01-26T12:39:18Z</time>
      </trkpt>
      <trkpt lat="44.63228" lon="-0.15523">
        <ele>71.76</ele>
        <time>2017-01-26T12:39:37Z</time>
      </trkpt>
      <trkpt lat="44.63226" lon="-0.15527">
        <ele>71.27</ele>
        <time>2017-01-26T12:39:40Z</time>
      </trkpt>
      <trkpt lat="44.63225" lon="-0.1553">
        <ele>71.27</ele>
        <time>2017-01-26T12:39:42Z</time>
      </trkpt>
      <trkpt lat="44.6321" lon="-0.15551">
        <ele>70.31</ele>
        <time>2017-01-26T12:40:00Z</time>
      </trkpt>
      <trkpt lat="44.63199" lon="-0.15571">
        <ele>69.35</ele>
        <time>2017-01-26T12:40:16Z</time>
      </trkpt>
      <trkpt lat="44.63183" lon="-0.15595">
        <ele>67.91</ele>
        <time>2017-01-26T12:40:34Z</time>
      </trkpt>
      <trkpt lat="44.6317" lon="-0.15622">
        <ele>66.95</ele>
        <time>2017-01-26T12:40:52Z</time>
      </trkpt>
      <trkpt lat="44.63156" lon="-0.1565">
        <ele>65.99</ele>
        <time>2017-01-26T12:41:12Z</time>
      </trkpt>
      <trkpt lat="44.63144" lon="-0.1568">
        <ele>65.99</ele>
        <time>2017-01-26T12:41:32Z</time>
      </trkpt>
      <trkpt lat="44.63129" lon="-0.15712">
        <ele>65.99</ele>
        <time>2017-01-26T12:41:53Z</time>
      </trkpt>
      <trkpt lat="44.63119" lon="-0.15733">
        <ele>65.99</ele>
        <time>2017-01-26T12:42:06Z</time>
      </trkpt>
      <trkpt lat="44.63114" lon="-0.15742">
        <ele>65.99</ele>
        <time>2017-01-26T12:42:13Z</time>
      </trkpt>
      <trkpt lat="44.631" lon="-0.15767">
        <ele>65.99</ele>
        <time>2017-01-26T12:42:31Z</time>
      </trkpt>
      <trkpt lat="44.63082" lon="-0.15795">
        <ele>66.47</ele>
        <time>2017-01-26T12:42:51Z</time>
      </trkpt>
      <trkpt lat="44.63062" lon="-0.15818">
        <ele>66.47</ele>
        <time>2017-01-26T12:43:10Z</time>
      </trkpt>
      <trkpt lat="44.63042" lon="-0.15838">
        <ele>65.99</ele>
        <time>2017-01-26T12:43:30Z</time>
      </trkpt>
      <trkpt lat="44.63023" lon="-0.15858">
        <ele>65.99</ele>
        <time>2017-01-26T12:43:47Z</time>
      </trkpt>
      <trkpt lat="44.62997" lon="-0.15875">
        <ele>65.51</ele>
        <time>2017-01-26T12:44:08Z</time>
      </trkpt>
      <trkpt lat="44.6297" lon="-0.15882">
        <ele>64.55</ele>
        <time>2017-01-26T12:44:27Z</time>
      </trkpt>
      <trkpt lat="44.62945" lon="-0.15888">
        <ele>63.58</ele>
        <time>2017-01-26T12:44:45Z</time>
      </trkpt>
      <trkpt lat="44.6292" lon="-0.15894">
        <ele>64.07</ele>
        <time>2017-01-26T12:45:02Z</time>
      </trkpt>
      <trkpt lat="44.62893" lon="-0.15908">
        <ele>64.07</ele>
        <time>2017-01-26T12:45:22Z</time>
      </trkpt>
      <trkpt lat="44.62876" lon="-0.15921">
        <ele>64.55</ele>
        <time>2017-01-26T12:45:37Z</time>
      </trkpt>
      <trkpt lat="44.62852" lon="-0.15939">
        <ele>64.07</ele>
        <time>2017-01-26T12:45:56Z</time>
      </trkpt>
      <trkpt lat="44.62828" lon="-0.15956">
        <ele>64.07</ele>
        <time>2017-01-26T12:46:14Z</time>
      </trkpt>
      <trkpt lat="44.62807" lon="-0.15973">
        <ele>65.03</ele>
        <time>2017-01-26T12:46:32Z</time>
      </trkpt>
      <trkpt lat="44.62786" lon="-0.15989">
        <ele>65.99</ele>
        <time>2017-01-26T12:46:49Z</time>
      </trkpt>
      <trkpt lat="44.62763" lon="-0.16007">
        <ele>66.47</ele>
        <time>2017-01-26T12:47:08Z</time>
      </trkpt>
      <trkpt lat="44.62742" lon="-0.16023">
        <ele>66.95</ele>
        <time>2017-01-26T12:47:26Z</time>
      </trkpt>
      <trkpt lat="44.62722" lon="-0.16036">
        <ele>67.91</ele>
        <time>2017-01-26T12:47:43Z</time>
      </trkpt>
      <trkpt lat="44.62708" lon="-0.16047">
        <ele>68.39</ele>
        <time>2017-01-26T12:47:56Z</time>
      </trkpt>
      <trkpt lat="44.62695" lon="-0.1606">
        <ele>69.35</ele>
        <time>2017-01-26T12:48:09Z</time>
      </trkpt>
      <trkpt lat="44.62673" lon="-0.16074">
        <ele>70.31</ele>
        <time>2017-01-26T12:48:26Z</time>
      </trkpt>
      <trkpt lat="44.62651" lon="-0.16084">
        <ele>70.79</ele>
        <time>2017-01-26T12:48:43Z</time>
      </trkpt>
      <trkpt lat="44.6263" lon="-0.1609">
        <ele>72.24</ele>
        <time>2017-01-26T12:48:59Z</time>
      </trkpt>
      <trkpt lat="44.62617" lon="-0.16095">
        <ele>73.2</ele>
        <time>2017-01-26T12:49:09Z</time>
      </trkpt>
      <trkpt lat="44.62612" lon="-0.16096">
        <ele>73.2</ele>
        <time>2017-01-26T12:49:13Z</time>
      </trkpt>
      <trkpt lat="44.62604" lon="-0.16101">
        <ele>74.16</ele>
        <time>2017-01-26T12:49:22Z</time>
      </trkpt>
      <trkpt lat="44.62599" lon="-0.16103">
        <ele>74.16</ele>
        <time>2017-01-26T12:49:26Z</time>
      </trkpt>
      <trkpt lat="44.62578" lon="-0.16113">
        <ele>75.12</ele>
        <time>2017-01-26T12:49:43Z</time>
      </trkpt>
      <trkpt lat="44.6256" lon="-0.16124">
        <ele>76.08</ele>
        <time>2017-01-26T12:49:58Z</time>
      </trkpt>
      <trkpt lat="44.62541" lon="-0.16137">
        <ele>76.08</ele>
        <time>2017-01-26T12:50:13Z</time>
      </trkpt>
      <trkpt lat="44.62519" lon="-0.16151">
        <ele>76.08</ele>
        <time>2017-01-26T12:50:29Z</time>
      </trkpt>
      <trkpt lat="44.62502" lon="-0.16166">
        <ele>76.56</ele>
        <time>2017-01-26T12:50:44Z</time>
      </trkpt>
      <trkpt lat="44.62481" lon="-0.16184">
        <ele>78</ele>
        <time>2017-01-26T12:51:01Z</time>
      </trkpt>
      <trkpt lat="44.62461" lon="-0.16204">
        <ele>78</ele>
        <time>2017-01-26T12:51:19Z</time>
      </trkpt>
      <trkpt lat="44.62438" lon="-0.16223">
        <ele>78</ele>
        <time>2017-01-26T12:51:37Z</time>
      </trkpt>
      <trkpt lat="44.62417" lon="-0.16241">
        <ele>78.97</ele>
        <time>2017-01-26T12:51:55Z</time>
      </trkpt>
      <trkpt lat="44.62402" lon="-0.16252">
        <ele>79.93</ele>
        <time>2017-01-26T12:52:09Z</time>
      </trkpt>
      <trkpt lat="44.624" lon="-0.16253">
        <ele>79.93</ele>
        <time>2017-01-26T12:52:11Z</time>
      </trkpt>
      <trkpt lat="44.62383" lon="-0.16265">
        <ele>80.89</ele>
        <time>2017-01-26T12:52:25Z</time>
      </trkpt>
      <trkpt lat="44.62367" lon="-0.16274">
        <ele>82.81</ele>
        <time>2017-01-26T12:52:41Z</time>
      </trkpt>
      <trkpt lat="44.62352" lon="-0.16288">
        <ele>84.73</ele>
        <time>2017-01-26T12:52:55Z</time>
      </trkpt>
      <trkpt lat="44.62339" lon="-0.16304">
        <ele>87.14</ele>
        <time>2017-01-26T12:53:11Z</time>
      </trkpt>
      <trkpt lat="44.6233" lon="-0.16317">
        <ele>88.1</ele>
        <time>2017-01-26T12:53:22Z</time>
      </trkpt>
      <trkpt lat="44.62315" lon="-0.16341">
        <ele>89.54</ele>
        <time>2017-01-26T12:53:39Z</time>
      </trkpt>
      <trkpt lat="44.6231" lon="-0.16353">
        <ele>90.02</ele>
        <time>2017-01-26T12:53:47Z</time>
      </trkpt>
      <trkpt lat="44.62307" lon="-0.1636">
        <ele>90.98</ele>
        <time>2017-01-26T12:53:52Z</time>
      </trkpt>
      <trkpt lat="44.62306" lon="-0.16365">
        <ele>90.98</ele>
        <time>2017-01-26T12:54:07Z</time>
      </trkpt>
      <trkpt lat="44.62304" lon="-0.16368">
        <ele>90.98</ele>
        <time>2017-01-26T12:54:15Z</time>
      </trkpt>
      <trkpt lat="44.62292" lon="-0.1639">
        <ele>90.5</ele>
        <time>2017-01-26T12:54:29Z</time>
      </trkpt>
      <trkpt lat="44.62279" lon="-0.16416">
        <ele>90.98</ele>
        <time>2017-01-26T12:54:46Z</time>
      </trkpt>
      <trkpt lat="44.62265" lon="-0.16441">
        <ele>90.98</ele>
        <time>2017-01-26T12:55:03Z</time>
      </trkpt>
      <trkpt lat="44.62256" lon="-0.16461">
        <ele>91.94</ele>
        <time>2017-01-26T12:55:20Z</time>
      </trkpt>
      <trkpt lat="44.62253" lon="-0.16465">
        <ele>91.94</ele>
        <time>2017-01-26T12:55:29Z</time>
      </trkpt>
      <trkpt lat="44.6225" lon="-0.16472">
        <ele>92.42</ele>
        <time>2017-01-26T12:55:33Z</time>
      </trkpt>
      <trkpt lat="44.62235" lon="-0.16501">
        <ele>93.87</ele>
        <time>2017-01-26T12:55:53Z</time>
      </trkpt>
      <trkpt lat="44.62221" lon="-0.16527">
        <ele>96.27</ele>
        <time>2017-01-26T12:56:13Z</time>
      </trkpt>
      <trkpt lat="44.62221" lon="-0.16534">
        <ele>95.79</ele>
        <time>2017-01-26T12:56:20Z</time>
      </trkpt>
      <trkpt lat="44.6222" lon="-0.16537">
        <ele>95.79</ele>
        <time>2017-01-26T12:56:23Z</time>
      </trkpt>
      <trkpt lat="44.62217" lon="-0.16546">
        <ele>96.27</ele>
        <time>2017-01-26T12:56:29Z</time>
      </trkpt>
      <trkpt lat="44.6222" lon="-0.16554">
        <ele>96.75</ele>
        <time>2017-01-26T12:56:36Z</time>
      </trkpt>
      <trkpt lat="44.62238" lon="-0.16563">
        <ele>97.23</ele>
        <time>2017-01-26T12:56:53Z</time>
      </trkpt>
      <trkpt lat="44.62259" lon="-0.16572">
        <ele>97.71</ele>
        <time>2017-01-26T12:57:11Z</time>
      </trkpt>
      <trkpt lat="44.62276" lon="-0.16581">
        <ele>98.19</ele>
        <time>2017-01-26T12:57:27Z</time>
      </trkpt>
      <trkpt lat="44.62281" lon="-0.16581">
        <ele>97.71</ele>
        <time>2017-01-26T12:57:31Z</time>
      </trkpt>
      <trkpt lat="44.62297" lon="-0.16591">
        <ele>98.19</ele>
        <time>2017-01-26T12:57:47Z</time>
      </trkpt>
      <trkpt lat="44.62305" lon="-0.16594">
        <ele>98.67</ele>
        <time>2017-01-26T12:58:00Z</time>
      </trkpt>
      <trkpt lat="44.6231" lon="-0.16591">
        <ele>98.67</ele>
        <time>2017-01-26T12:58:11Z</time>
      </trkpt>
      <trkpt lat="44.62312" lon="-0.16588">
        <ele>98.19</ele>
        <time>2017-01-26T12:58:16Z</time>
      </trkpt>
      <trkpt lat="44.62314" lon="-0.16567">
        <ele>97.23</ele>
        <time>2017-01-26T12:58:42Z</time>
      </trkpt>
      <trkpt lat="44.62316" lon="-0.16556">
        <ele>96.27</ele>
        <time>2017-01-26T12:58:50Z</time>
      </trkpt>
      <trkpt lat="44.62318" lon="-0.16549">
        <ele>95.31</ele>
        <time>2017-01-26T12:58:55Z</time>
      </trkpt>
      <trkpt lat="44.62322" lon="-0.16545">
        <ele>94.83</ele>
        <time>2017-01-26T12:59:00Z</time>
      </trkpt>
      <trkpt lat="44.62329" lon="-0.16545">
        <ele>95.31</ele>
        <time>2017-01-26T12:59:06Z</time>
      </trkpt>
      <trkpt lat="44.62333" lon="-0.16544">
        <ele>95.31</ele>
        <time>2017-01-26T12:59:21Z</time>
      </trkpt>
      <trkpt lat="44.62343" lon="-0.16546">
        <ele>95.31</ele>
        <time>2017-01-26T12:59:31Z</time>
      </trkpt>
      <trkpt lat="44.62359" lon="-0.16547">
        <ele>95.79</ele>
        <time>2017-01-26T12:59:48Z</time>
      </trkpt>
      <trkpt lat="44.62365" lon="-0.16552">
        <ele>95.79</ele>
        <time>2017-01-26T12:59:58Z</time>
      </trkpt>
      <trkpt lat="44.62365" lon="-0.16554">
        <ele>95.79</ele>
        <time>2017-01-26T12:59:59Z</time>
      </trkpt>
      <trkpt lat="44.62365" lon="-0.16571">
        <ele>96.75</ele>
        <time>2017-01-26T13:00:11Z</time>
      </trkpt>
      <trkpt lat="44.62365" lon="-0.16592">
        <ele>97.23</ele>
        <time>2017-01-26T13:00:25Z</time>
      </trkpt>
      <trkpt lat="44.62367" lon="-0.16606">
        <ele>97.71</ele>
        <time>2017-01-26T13:00:35Z</time>
      </trkpt>
      <trkpt lat="44.6237" lon="-0.16629">
        <ele>98.19</ele>
        <time>2017-01-26T13:00:51Z</time>
      </trkpt>
      <trkpt lat="44.62374" lon="-0.16635">
        <ele>99.15</ele>
        <time>2017-01-26T13:01:02Z</time>
      </trkpt>
      <trkpt lat="44.62373" lon="-0.16635">
        <ele>98.67</ele>
        <time>2017-01-26T13:01:23Z</time>
      </trkpt>
      <trkpt lat="44.62373" lon="-0.16635">
        <ele>98.19</ele>
        <time>2017-01-26T13:01:58Z</time>
      </trkpt>
      <trkpt lat="44.62373" lon="-0.16635">
        <ele>98.19</ele>
        <time>2017-01-26T13:02:10Z</time>
      </trkpt>
      <trkpt lat="44.62382" lon="-0.16632">
        <ele>97.71</ele>
        <time>2017-01-26T13:02:19Z</time>
      </trkpt>
      <trkpt lat="44.62384" lon="-0.16633">
        <ele>96.75</ele>
        <time>2017-01-26T13:02:31Z</time>
      </trkpt>
      <trkpt lat="44.6239" lon="-0.16636">
        <ele>97.71</ele>
        <time>2017-01-26T13:02:42Z</time>
      </trkpt>
      <trkpt lat="44.62392" lon="-0.1664">
        <ele>97.71</ele>
        <time>2017-01-26T13:02:49Z</time>
      </trkpt>
      <trkpt lat="44.62395" lon="-0.16658">
        <ele>97.23</ele>
        <time>2017-01-26T13:03:03Z</time>
      </trkpt>
      <trkpt lat="44.624" lon="-0.16679">
        <ele>95.79</ele>
        <time>2017-01-26T13:03:19Z</time>
      </trkpt>
      <trkpt lat="44.62399" lon="-0.16682">
        <ele>95.31</ele>
        <time>2017-01-26T13:03:26Z</time>
      </trkpt>
      <trkpt lat="44.624" lon="-0.16684">
        <ele>95.79</ele>
        <time>2017-01-26T13:03:28Z</time>
      </trkpt>
      <trkpt lat="44.62403" lon="-0.16698">
        <ele>94.83</ele>
        <time>2017-01-26T13:03:39Z</time>
      </trkpt>
      <trkpt lat="44.62408" lon="-0.16722">
        <ele>92.9</ele>
        <time>2017-01-26T13:03:55Z</time>
      </trkpt>
      <trkpt lat="44.6241" lon="-0.16728">
        <ele>92.42</ele>
        <time>2017-01-26T13:03:59Z</time>
      </trkpt>
      <trkpt lat="44.62414" lon="-0.16753">
        <ele>90.5</ele>
        <time>2017-01-26T13:04:15Z</time>
      </trkpt>
      <trkpt lat="44.62416" lon="-0.16778">
        <ele>89.06</ele>
        <time>2017-01-26T13:04:31Z</time>
      </trkpt>
      <trkpt lat="44.62418" lon="-0.16803">
        <ele>86.66</ele>
        <time>2017-01-26T13:04:46Z</time>
      </trkpt>
      <trkpt lat="44.62418" lon="-0.16813">
        <ele>85.69</ele>
        <time>2017-01-26T13:04:53Z</time>
      </trkpt>
      <trkpt lat="44.62417" lon="-0.16824">
        <ele>84.73</ele>
        <time>2017-01-26T13:04:59Z</time>
      </trkpt>
      <trkpt lat="44.6242" lon="-0.1685">
        <ele>83.77</ele>
        <time>2017-01-26T13:05:16Z</time>
      </trkpt>
      <trkpt lat="44.62421" lon="-0.16856">
        <ele>82.33</ele>
        <time>2017-01-26T13:05:20Z</time>
      </trkpt>
      <trkpt lat="44.62423" lon="-0.16888">
        <ele>79.93</ele>
        <time>2017-01-26T13:05:40Z</time>
      </trkpt>
      <trkpt lat="44.62426" lon="-0.16915">
        <ele>78.48</ele>
        <time>2017-01-26T13:05:58Z</time>
      </trkpt>
      <trkpt lat="44.62431" lon="-0.16936">
        <ele>78</ele>
        <time>2017-01-26T13:06:13Z</time>
      </trkpt>
      <trkpt lat="44.62435" lon="-0.1696">
        <ele>77.52</ele>
        <time>2017-01-26T13:06:28Z</time>
      </trkpt>
      <trkpt lat="44.62441" lon="-0.16987">
        <ele>77.04</ele>
        <time>2017-01-26T13:06:46Z</time>
      </trkpt>
      <trkpt lat="44.62447" lon="-0.17016">
        <ele>76.56</ele>
        <time>2017-01-26T13:07:05Z</time>
      </trkpt>
      <trkpt lat="44.62454" lon="-0.17041">
        <ele>76.08</ele>
        <time>2017-01-26T13:07:21Z</time>
      </trkpt>
      <trkpt lat="44.6246" lon="-0.17066">
        <ele>76.08</ele>
        <time>2017-01-26T13:07:36Z</time>
      </trkpt>
      <trkpt lat="44.62465" lon="-0.17084">
        <ele>75.6</ele>
        <time>2017-01-26T13:07:49Z</time>
      </trkpt>
      <trkpt lat="44.62474" lon="-0.17109">
        <ele>75.6</ele>
        <time>2017-01-26T13:08:06Z</time>
      </trkpt>
      <trkpt lat="44.62481" lon="-0.17137">
        <ele>75.6</ele>
        <time>2017-01-26T13:08:24Z</time>
      </trkpt>
      <trkpt lat="44.62488" lon="-0.17163">
        <ele>75.12</ele>
        <time>2017-01-26T13:08:42Z</time>
      </trkpt>
      <trkpt lat="44.62498" lon="-0.1719">
        <ele>75.12</ele>
        <time>2017-01-26T13:08:59Z</time>
      </trkpt>
      <trkpt lat="44.62506" lon="-0.17216">
        <ele>75.12</ele>
        <time>2017-01-26T13:09:16Z</time>
      </trkpt>
      <trkpt lat="44.62513" lon="-0.17246">
        <ele>75.12</ele>
        <time>2017-01-26T13:09:34Z</time>
      </trkpt>
      <trkpt lat="44.62516" lon="-0.17274">
        <ele>74.64</ele>
        <time>2017-01-26T13:09:52Z</time>
      </trkpt>
      <trkpt lat="44.62521" lon="-0.17295">
        <ele>75.12</ele>
        <time>2017-01-26T13:10:06Z</time>
      </trkpt>
      <trkpt lat="44.62527" lon="-0.17302">
        <ele>75.12</ele>
        <time>2017-01-26T13:10:13Z</time>
      </trkpt>
      <trkpt lat="44.62531" lon="-0.1733">
        <ele>75.12</ele>
        <time>2017-01-26T13:10:30Z</time>
      </trkpt>
      <trkpt lat="44.62532" lon="-0.17359">
        <ele>75.12</ele>
        <time>2017-01-26T13:10:47Z</time>
      </trkpt>
      <trkpt lat="44.62534" lon="-0.17382">
        <ele>75.6</ele>
        <time>2017-01-26T13:11:02Z</time>
      </trkpt>
      <trkpt lat="44.62534" lon="-0.17388">
        <ele>75.12</ele>
        <time>2017-01-26T13:11:06Z</time>
      </trkpt>
      <trkpt lat="44.6254" lon="-0.17411">
        <ele>75.12</ele>
        <time>2017-01-26T13:11:21Z</time>
      </trkpt>
      <trkpt lat="44.62546" lon="-0.1743">
        <ele>74.16</ele>
        <time>2017-01-26T13:11:36Z</time>
      </trkpt>
      <trkpt lat="44.62548" lon="-0.17434">
        <ele>74.16</ele>
        <time>2017-01-26T13:11:48Z</time>
      </trkpt>
      <trkpt lat="44.62548" lon="-0.17434">
        <ele>74.16</ele>
        <time>2017-01-26T13:12:09Z</time>
      </trkpt>
      <trkpt lat="44.62548" lon="-0.17434">
        <ele>74.16</ele>
        <time>2017-01-26T13:12:22Z</time>
      </trkpt>
      <trkpt lat="44.62548" lon="-0.17435">
        <ele>74.16</ele>
        <time>2017-01-26T13:12:37Z</time>
      </trkpt>
      <trkpt lat="44.62548" lon="-0.17435">
        <ele>74.16</ele>
        <time>2017-01-26T13:12:40Z</time>
      </trkpt>
      <trkpt lat="44.6255" lon="-0.17441">
        <ele>74.16</ele>
        <time>2017-01-26T13:12:52Z</time>
      </trkpt>
      <trkpt lat="44.62551" lon="-0.17442">
        <ele>74.16</ele>
        <time>2017-01-26T13:12:54Z</time>
      </trkpt>
      <trkpt lat="44.62558" lon="-0.17443">
        <ele>74.16</ele>
        <time>2017-01-26T13:13:08Z</time>
      </trkpt>
      <trkpt lat="44.62556" lon="-0.17445">
        <ele>73.68</ele>
        <time>2017-01-26T13:13:21Z</time>
      </trkpt>
      <trkpt lat="44.62555" lon="-0.17446">
        <ele>74.16</ele>
        <time>2017-01-26T13:13:22Z</time>
      </trkpt>
      <trkpt lat="44.62554" lon="-0.17449">
        <ele>73.2</ele>
        <time>2017-01-26T13:13:24Z</time>
      </trkpt>
      <trkpt lat="44.62548" lon="-0.17468">
        <ele>73.2</ele>
        <time>2017-01-26T13:13:36Z</time>
      </trkpt>
      <trkpt lat="44.62544" lon="-0.17485">
        <ele>72.72</ele>
        <time>2017-01-26T13:13:48Z</time>
      </trkpt>
      <trkpt lat="44.62538" lon="-0.17505">
        <ele>72.24</ele>
        <time>2017-01-26T13:14:01Z</time>
      </trkpt>
      <trkpt lat="44.6253" lon="-0.17525">
        <ele>71.76</ele>
        <time>2017-01-26T13:14:14Z</time>
      </trkpt>
      <trkpt lat="44.62526" lon="-0.17543">
        <ele>70.31</ele>
        <time>2017-01-26T13:14:26Z</time>
      </trkpt>
      <trkpt lat="44.62519" lon="-0.17569">
        <ele>69.35</ele>
        <time>2017-01-26T13:14:42Z</time>
      </trkpt>
      <trkpt lat="44.62512" lon="-0.17592">
        <ele>68.39</ele>
        <time>2017-01-26T13:14:57Z</time>
      </trkpt>
      <trkpt lat="44.62505" lon="-0.17623">
        <ele>66.95</ele>
        <time>2017-01-26T13:15:14Z</time>
      </trkpt>
      <trkpt lat="44.62499" lon="-0.17645">
        <ele>65.99</ele>
        <time>2017-01-26T13:15:28Z</time>
      </trkpt>
      <trkpt lat="44.62492" lon="-0.17674">
        <ele>65.03</ele>
        <time>2017-01-26T13:15:45Z</time>
      </trkpt>
      <trkpt lat="44.62485" lon="-0.17703">
        <ele>63.58</ele>
        <time>2017-01-26T13:16:02Z</time>
      </trkpt>
      <trkpt lat="44.62478" lon="-0.17729">
        <ele>62.14</ele>
        <time>2017-01-26T13:16:17Z</time>
      </trkpt>
      <trkpt lat="44.62472" lon="-0.17752">
        <ele>62.14</ele>
        <time>2017-01-26T13:16:31Z</time>
      </trkpt>
      <trkpt lat="44.62468" lon="-0.17782">
        <ele>62.14</ele>
        <time>2017-01-26T13:16:48Z</time>
      </trkpt>
      <trkpt lat="44.62466" lon="-0.17811">
        <ele>61.66</ele>
        <time>2017-01-26T13:17:04Z</time>
      </trkpt>
      <trkpt lat="44.62466" lon="-0.17842">
        <ele>61.18</ele>
        <time>2017-01-26T13:17:22Z</time>
      </trkpt>
      <trkpt lat="44.62469" lon="-0.17867">
        <ele>61.18</ele>
        <time>2017-01-26T13:17:37Z</time>
      </trkpt>
      <trkpt lat="44.62469" lon="-0.17868">
        <ele>61.18</ele>
        <time>2017-01-26T13:17:38Z</time>
      </trkpt>
      <trkpt lat="44.62469" lon="-0.17875">
        <ele>61.18</ele>
        <time>2017-01-26T13:17:42Z</time>
      </trkpt>
      <trkpt lat="44.6247" lon="-0.17907">
        <ele>60.7</ele>
        <time>2017-01-26T13:18:00Z</time>
      </trkpt>
      <trkpt lat="44.62472" lon="-0.17935">
        <ele>61.18</ele>
        <time>2017-01-26T13:18:15Z</time>
      </trkpt>
      <trkpt lat="44.62474" lon="-0.17964">
        <ele>60.7</ele>
        <time>2017-01-26T13:18:33Z</time>
      </trkpt>
      <trkpt lat="44.62474" lon="-0.17984">
        <ele>60.7</ele>
        <time>2017-01-26T13:18:46Z</time>
      </trkpt>
      <trkpt lat="44.62476" lon="-0.18014">
        <ele>61.18</ele>
        <time>2017-01-26T13:19:05Z</time>
      </trkpt>
      <trkpt lat="44.62477" lon="-0.18044">
        <ele>60.7</ele>
        <time>2017-01-26T13:19:24Z</time>
      </trkpt>
      <trkpt lat="44.62478" lon="-0.18068">
        <ele>60.7</ele>
        <time>2017-01-26T13:19:39Z</time>
      </trkpt>
      <trkpt lat="44.62482" lon="-0.181">
        <ele>59.74</ele>
        <time>2017-01-26T13:19:58Z</time>
      </trkpt>
      <trkpt lat="44.62482" lon="-0.18129">
        <ele>59.26</ele>
        <time>2017-01-26T13:20:14Z</time>
      </trkpt>
      <trkpt lat="44.62482" lon="-0.18147">
        <ele>58.78</ele>
        <time>2017-01-26T13:20:24Z</time>
      </trkpt>
      <trkpt lat="44.62482" lon="-0.18154">
        <ele>58.3</ele>
        <time>2017-01-26T13:20:28Z</time>
      </trkpt>
      <trkpt lat="44.62484" lon="-0.18184">
        <ele>57.34</ele>
        <time>2017-01-26T13:20:46Z</time>
      </trkpt>
      <trkpt lat="44.6249" lon="-0.18211">
        <ele>56.86</ele>
        <time>2017-01-26T13:21:02Z</time>
      </trkpt>
      <trkpt lat="44.62494" lon="-0.18242">
        <ele>55.41</ele>
        <time>2017-01-26T13:21:20Z</time>
      </trkpt>
      <trkpt lat="44.62497" lon="-0.18271">
        <ele>54.93</ele>
        <time>2017-01-26T13:21:38Z</time>
      </trkpt>
      <trkpt lat="44.62499" lon="-0.18299">
        <ele>53.97</ele>
        <time>2017-01-26T13:21:55Z</time>
      </trkpt>
      <trkpt lat="44.62497" lon="-0.18321">
        <ele>53.01</ele>
        <time>2017-01-26T13:22:09Z</time>
      </trkpt>
      <trkpt lat="44.62491" lon="-0.18345">
        <ele>52.05</ele>
        <time>2017-01-26T13:22:25Z</time>
      </trkpt>
      <trkpt lat="44.62483" lon="-0.18368">
        <ele>53.01</ele>
        <time>2017-01-26T13:22:41Z</time>
      </trkpt>
      <trkpt lat="44.62477" lon="-0.1838">
        <ele>53.49</ele>
        <time>2017-01-26T13:22:53Z</time>
      </trkpt>
      <trkpt lat="44.62475" lon="-0.18394">
        <ele>53.97</ele>
        <time>2017-01-26T13:23:07Z</time>
      </trkpt>
      <trkpt lat="44.62462" lon="-0.18421">
        <ele>54.45</ele>
        <time>2017-01-26T13:23:22Z</time>
      </trkpt>
      <trkpt lat="44.62461" lon="-0.1843">
        <ele>54.45</ele>
        <time>2017-01-26T13:23:25Z</time>
      </trkpt>
      <trkpt lat="44.62461" lon="-0.18435">
        <ele>54.45</ele>
        <time>2017-01-26T13:23:27Z</time>
      </trkpt>
      <trkpt lat="44.62466" lon="-0.1846">
        <ele>54.93</ele>
        <time>2017-01-26T13:23:42Z</time>
      </trkpt>
      <trkpt lat="44.62474" lon="-0.18478">
        <ele>55.89</ele>
        <time>2017-01-26T13:23:55Z</time>
      </trkpt>
      <trkpt lat="44.62478" lon="-0.18488">
        <ele>56.37</ele>
        <time>2017-01-26T13:24:01Z</time>
      </trkpt>
      <trkpt lat="44.62487" lon="-0.18509">
        <ele>57.34</ele>
        <time>2017-01-26T13:24:17Z</time>
      </trkpt>
      <trkpt lat="44.6249" lon="-0.1853">
        <ele>58.3</ele>
        <time>2017-01-26T13:24:31Z</time>
      </trkpt>
      <trkpt lat="44.62496" lon="-0.18555">
        <ele>58.78</ele>
        <time>2017-01-26T13:24:47Z</time>
      </trkpt>
      <trkpt lat="44.62501" lon="-0.18586">
        <ele>59.74</ele>
        <time>2017-01-26T13:25:04Z</time>
      </trkpt>
      <trkpt lat="44.62507" lon="-0.18607">
        <ele>60.7</ele>
        <time>2017-01-26T13:25:19Z</time>
      </trkpt>
      <trkpt lat="44.62512" lon="-0.18627">
        <ele>61.18</ele>
        <time>2017-01-26T13:25:34Z</time>
      </trkpt>
      <trkpt lat="44.62518" lon="-0.18642">
        <ele>62.62</ele>
        <time>2017-01-26T13:25:49Z</time>
      </trkpt>
      <trkpt lat="44.62523" lon="-0.18667">
        <ele>64.07</ele>
        <time>2017-01-26T13:26:04Z</time>
      </trkpt>
      <trkpt lat="44.62524" lon="-0.18668">
        <ele>64.07</ele>
        <time>2017-01-26T13:26:05Z</time>
      </trkpt>
      <trkpt lat="44.62525" lon="-0.18688">
        <ele>65.03</ele>
        <time>2017-01-26T13:26:19Z</time>
      </trkpt>
      <trkpt lat="44.62529" lon="-0.18703">
        <ele>66.47</ele>
        <time>2017-01-26T13:26:32Z</time>
      </trkpt>
      <trkpt lat="44.62536" lon="-0.18719">
        <ele>67.43</ele>
        <time>2017-01-26T13:26:46Z</time>
      </trkpt>
      <trkpt lat="44.62537" lon="-0.18732">
        <ele>67.91</ele>
        <time>2017-01-26T13:27:00Z</time>
      </trkpt>
      <trkpt lat="44.62545" lon="-0.18757">
        <ele>69.35</ele>
        <time>2017-01-26T13:27:15Z</time>
      </trkpt>
      <trkpt lat="44.62547" lon="-0.18761">
        <ele>69.83</ele>
        <time>2017-01-26T13:27:31Z</time>
      </trkpt>
      <trkpt lat="44.62551" lon="-0.18773">
        <ele>70.79</ele>
        <time>2017-01-26T13:27:43Z</time>
      </trkpt>
      <trkpt lat="44.62553" lon="-0.18795">
        <ele>72.24</ele>
        <time>2017-01-26T13:27:58Z</time>
      </trkpt>
      <trkpt lat="44.62554" lon="-0.188">
        <ele>73.2</ele>
        <time>2017-01-26T13:28:04Z</time>
      </trkpt>
      <trkpt lat="44.62564" lon="-0.18819">
        <ele>75.12</ele>
        <time>2017-01-26T13:28:20Z</time>
      </trkpt>
      <trkpt lat="44.62568" lon="-0.1883">
        <ele>76.08</ele>
        <time>2017-01-26T13:28:28Z</time>
      </trkpt>
      <trkpt lat="44.62569" lon="-0.18837">
        <ele>76.56</ele>
        <time>2017-01-26T13:28:32Z</time>
      </trkpt>
      <trkpt lat="44.62573" lon="-0.18862">
        <ele>78.97</ele>
        <time>2017-01-26T13:28:48Z</time>
      </trkpt>
      <trkpt lat="44.62579" lon="-0.18882">
        <ele>80.41</ele>
        <time>2017-01-26T13:29:02Z</time>
      </trkpt>
      <trkpt lat="44.62584" lon="-0.18896">
        <ele>81.85</ele>
        <time>2017-01-26T13:29:15Z</time>
      </trkpt>
      <trkpt lat="44.62589" lon="-0.18915">
        <ele>83.29</ele>
        <time>2017-01-26T13:29:29Z</time>
      </trkpt>
      <trkpt lat="44.62595" lon="-0.18936">
        <ele>85.21</ele>
        <time>2017-01-26T13:29:43Z</time>
      </trkpt>
      <trkpt lat="44.62597" lon="-0.1894">
        <ele>85.21</ele>
        <time>2017-01-26T13:29:47Z</time>
      </trkpt>
      <trkpt lat="44.62606" lon="-0.18938">
        <ele>85.69</ele>
        <time>2017-01-26T13:30:01Z</time>
      </trkpt>
      <trkpt lat="44.62613" lon="-0.18933">
        <ele>85.21</ele>
        <time>2017-01-26T13:30:16Z</time>
      </trkpt>
      <trkpt lat="44.6262" lon="-0.18928">
        <ele>84.73</ele>
        <time>2017-01-26T13:30:30Z</time>
      </trkpt>
      <trkpt lat="44.62624" lon="-0.18925">
        <ele>84.25</ele>
        <time>2017-01-26T13:30:41Z</time>
      </trkpt>
      <trkpt lat="44.62647" lon="-0.18909">
        <ele>83.29</ele>
        <time>2017-01-26T13:30:59Z</time>
      </trkpt>
      <trkpt lat="44.62668" lon="-0.18894">
        <ele>81.37</ele>
        <time>2017-01-26T13:31:16Z</time>
      </trkpt>
      <trkpt lat="44.6268" lon="-0.18884">
        <ele>80.89</ele>
        <time>2017-01-26T13:31:27Z</time>
      </trkpt>
      <trkpt lat="44.62692" lon="-0.18871">
        <ele>80.41</ele>
        <time>2017-01-26T13:31:39Z</time>
      </trkpt>
      <trkpt lat="44.62713" lon="-0.18856">
        <ele>80.41</ele>
        <time>2017-01-26T13:31:58Z</time>
      </trkpt>
      <trkpt lat="44.62724" lon="-0.18847">
        <ele>80.41</ele>
        <time>2017-01-26T13:32:10Z</time>
      </trkpt>
      <trkpt lat="44.62727" lon="-0.18845">
        <ele>80.89</ele>
        <time>2017-01-26T13:32:17Z</time>
      </trkpt>
      <trkpt lat="44.62731" lon="-0.18842">
        <ele>78.97</ele>
        <time>2017-01-26T13:32:25Z</time>
      </trkpt>
      <trkpt lat="44.6274" lon="-0.1883">
        <ele>80.89</ele>
        <time>2017-01-26T13:32:37Z</time>
      </trkpt>
      <trkpt lat="44.62749" lon="-0.1882">
        <ele>80.89</ele>
        <time>2017-01-26T13:32:48Z</time>
      </trkpt>
      <trkpt lat="44.62751" lon="-0.18817">
        <ele>80.41</ele>
        <time>2017-01-26T13:32:52Z</time>
      </trkpt>
      <trkpt lat="44.62757" lon="-0.18819">
        <ele>80.41</ele>
        <time>2017-01-26T13:32:57Z</time>
      </trkpt>
      <trkpt lat="44.62764" lon="-0.18833">
        <ele>77.04</ele>
        <time>2017-01-26T13:33:08Z</time>
      </trkpt>
      <trkpt lat="44.62765" lon="-0.18835">
        <ele>81.85</ele>
        <time>2017-01-26T13:33:09Z</time>
      </trkpt>
      <trkpt lat="44.62773" lon="-0.18857">
        <ele>80.89</ele>
        <time>2017-01-26T13:33:25Z</time>
      </trkpt>
      <trkpt lat="44.62784" lon="-0.18887">
        <ele>81.37</ele>
        <time>2017-01-26T13:33:44Z</time>
      </trkpt>
      <trkpt lat="44.62794" lon="-0.18914">
        <ele>81.85</ele>
        <time>2017-01-26T13:34:02Z</time>
      </trkpt>
      <trkpt lat="44.62802" lon="-0.18937">
        <ele>82.33</ele>
        <time>2017-01-26T13:34:18Z</time>
      </trkpt>
      <trkpt lat="44.62812" lon="-0.18963">
        <ele>82.81</ele>
        <time>2017-01-26T13:34:35Z</time>
      </trkpt>
      <trkpt lat="44.62826" lon="-0.18995">
        <ele>82.33</ele>
        <time>2017-01-26T13:34:56Z</time>
      </trkpt>
      <trkpt lat="44.62837" lon="-0.19029">
        <ele>80.89</ele>
        <time>2017-01-26T13:35:17Z</time>
      </trkpt>
      <trkpt lat="44.62844" lon="-0.19054">
        <ele>79.45</ele>
        <time>2017-01-26T13:35:33Z</time>
      </trkpt>
      <trkpt lat="44.62845" lon="-0.19057">
        <ele>79.45</ele>
        <time>2017-01-26T13:35:35Z</time>
      </trkpt>
      <trkpt lat="44.62855" lon="-0.19085">
        <ele>78</ele>
        <time>2017-01-26T13:35:53Z</time>
      </trkpt>
      <trkpt lat="44.62864" lon="-0.19108">
        <ele>76.56</ele>
        <time>2017-01-26T13:36:09Z</time>
      </trkpt>
      <trkpt lat="44.62867" lon="-0.19117">
        <ele>76.08</ele>
        <time>2017-01-26T13:36:15Z</time>
      </trkpt>
      <trkpt lat="44.62874" lon="-0.19136">
        <ele>75.12</ele>
        <time>2017-01-26T13:36:28Z</time>
      </trkpt>
      <trkpt lat="44.62883" lon="-0.19162">
        <ele>73.68</ele>
        <time>2017-01-26T13:36:45Z</time>
      </trkpt>
      <trkpt lat="44.62884" lon="-0.19167">
        <ele>73.2</ele>
        <time>2017-01-26T13:36:48Z</time>
      </trkpt>
      <trkpt lat="44.62892" lon="-0.19198">
        <ele>71.76</ele>
        <time>2017-01-26T13:37:07Z</time>
      </trkpt>
      <trkpt lat="44.62894" lon="-0.19204">
        <ele>71.27</ele>
        <time>2017-01-26T13:37:20Z</time>
      </trkpt>
      <trkpt lat="44.62894" lon="-0.19203">
        <ele>71.76</ele>
        <time>2017-01-26T13:37:24Z</time>
      </trkpt>
      <trkpt lat="44.629" lon="-0.19227">
        <ele>70.31</ele>
        <time>2017-01-26T13:37:41Z</time>
      </trkpt>
      <trkpt lat="44.62911" lon="-0.1926">
        <ele>68.87</ele>
        <time>2017-01-26T13:38:01Z</time>
      </trkpt>
      <trkpt lat="44.6292" lon="-0.19291">
        <ele>67.91</ele>
        <time>2017-01-26T13:38:21Z</time>
      </trkpt>
      <trkpt lat="44.62932" lon="-0.19323">
        <ele>66.95</ele>
        <time>2017-01-26T13:38:40Z</time>
      </trkpt>
      <trkpt lat="44.62941" lon="-0.19352">
        <ele>66.95</ele>
        <time>2017-01-26T13:38:57Z</time>
      </trkpt>
      <trkpt lat="44.62952" lon="-0.19381">
        <ele>65.99</ele>
        <time>2017-01-26T13:39:15Z</time>
      </trkpt>
      <trkpt lat="44.62965" lon="-0.19415">
        <ele>65.03</ele>
        <time>2017-01-26T13:39:33Z</time>
      </trkpt>
      <trkpt lat="44.62967" lon="-0.19446">
        <ele>64.55</ele>
        <time>2017-01-26T13:39:51Z</time>
      </trkpt>
      <trkpt lat="44.62976" lon="-0.19477">
        <ele>63.58</ele>
        <time>2017-01-26T13:40:09Z</time>
      </trkpt>
      <trkpt lat="44.62982" lon="-0.19499">
        <ele>63.1</ele>
        <time>2017-01-26T13:40:24Z</time>
      </trkpt>
      <trkpt lat="44.62984" lon="-0.19501">
        <ele>63.1</ele>
        <time>2017-01-26T13:40:41Z</time>
      </trkpt>
      <trkpt lat="44.62984" lon="-0.19501">
        <ele>63.1</ele>
        <time>2017-01-26T13:41:02Z</time>
      </trkpt>
      <trkpt lat="44.62983" lon="-0.19501">
        <ele>63.1</ele>
        <time>2017-01-26T13:41:30Z</time>
      </trkpt>
      <trkpt lat="44.62985" lon="-0.19513">
        <ele>63.1</ele>
        <time>2017-01-26T13:41:53Z</time>
      </trkpt>
      <trkpt lat="44.62992" lon="-0.19539">
        <ele>62.62</ele>
        <time>2017-01-26T13:42:08Z</time>
      </trkpt>
      <trkpt lat="44.63004" lon="-0.1955">
        <ele>62.14</ele>
        <time>2017-01-26T13:42:21Z</time>
      </trkpt>
      <trkpt lat="44.63024" lon="-0.19545">
        <ele>62.14</ele>
        <time>2017-01-26T13:42:39Z</time>
      </trkpt>
      <trkpt lat="44.63042" lon="-0.1954">
        <ele>62.14</ele>
        <time>2017-01-26T13:42:53Z</time>
      </trkpt>
      <trkpt lat="44.63044" lon="-0.1954">
        <ele>62.14</ele>
        <time>2017-01-26T13:42:54Z</time>
      </trkpt>
      <trkpt lat="44.63061" lon="-0.19537">
        <ele>62.14</ele>
        <time>2017-01-26T13:43:08Z</time>
      </trkpt>
      <trkpt lat="44.63083" lon="-0.19532">
        <ele>60.7</ele>
        <time>2017-01-26T13:43:24Z</time>
      </trkpt>
      <trkpt lat="44.631" lon="-0.1953">
        <ele>58.78</ele>
        <time>2017-01-26T13:43:39Z</time>
      </trkpt>
      <trkpt lat="44.63121" lon="-0.19526">
        <ele>57.82</ele>
        <time>2017-01-26T13:43:56Z</time>
      </trkpt>
      <trkpt lat="44.63145" lon="-0.19525">
        <ele>60.22</ele>
        <time>2017-01-26T13:44:13Z</time>
      </trkpt>
      <trkpt lat="44.63166" lon="-0.19521">
        <ele>60.7</ele>
        <time>2017-01-26T13:44:28Z</time>
      </trkpt>
      <trkpt lat="44.63182" lon="-0.19517">
        <ele>61.18</ele>
        <time>2017-01-26T13:44:42Z</time>
      </trkpt>
      <trkpt lat="44.63189" lon="-0.19514">
        <ele>61.18</ele>
        <time>2017-01-26T13:44:49Z</time>
      </trkpt>
      <trkpt lat="44.63201" lon="-0.19498">
        <ele>61.66</ele>
        <time>2017-01-26T13:45:04Z</time>
      </trkpt>
      <trkpt lat="44.63202" lon="-0.19496">
        <ele>62.14</ele>
        <time>2017-01-26T13:45:06Z</time>
      </trkpt>
      <trkpt lat="44.6321" lon="-0.19484">
        <ele>62.14</ele>
        <time>2017-01-26T13:45:15Z</time>
      </trkpt>
      <trkpt lat="44.63222" lon="-0.1947">
        <ele>63.1</ele>
        <time>2017-01-26T13:45:28Z</time>
      </trkpt>
      <trkpt lat="44.63224" lon="-0.19466">
        <ele>63.58</ele>
        <time>2017-01-26T13:45:31Z</time>
      </trkpt>
      <trkpt lat="44.6323" lon="-0.1946">
        <ele>63.58</ele>
        <time>2017-01-26T13:45:37Z</time>
      </trkpt>
      <trkpt lat="44.63233" lon="-0.19457">
        <ele>64.07</ele>
        <time>2017-01-26T13:45:40Z</time>
      </trkpt>
      <trkpt lat="44.63238" lon="-0.19451">
        <ele>64.55</ele>
        <time>2017-01-26T13:45:46Z</time>
      </trkpt>
      <trkpt lat="44.6325" lon="-0.1944">
        <ele>65.03</ele>
        <time>2017-01-26T13:45:56Z</time>
      </trkpt>
      <trkpt lat="44.6326" lon="-0.19425">
        <ele>66.47</ele>
        <time>2017-01-26T13:46:08Z</time>
      </trkpt>
      <trkpt lat="44.63277" lon="-0.19409">
        <ele>66.47</ele>
        <time>2017-01-26T13:46:24Z</time>
      </trkpt>
      <trkpt lat="44.63292" lon="-0.1939">
        <ele>66.47</ele>
        <time>2017-01-26T13:46:40Z</time>
      </trkpt>
      <trkpt lat="44.63295" lon="-0.19386">
        <ele>66.95</ele>
        <time>2017-01-26T13:46:43Z</time>
      </trkpt>
      <trkpt lat="44.63308" lon="-0.19363">
        <ele>66.47</ele>
        <time>2017-01-26T13:47:01Z</time>
      </trkpt>
      <trkpt lat="44.63324" lon="-0.19347">
        <ele>65.03</ele>
        <time>2017-01-26T13:47:17Z</time>
      </trkpt>
      <trkpt lat="44.63327" lon="-0.19343">
        <ele>65.03</ele>
        <time>2017-01-26T13:47:20Z</time>
      </trkpt>
      <trkpt lat="44.63332" lon="-0.19338">
        <ele>65.03</ele>
        <time>2017-01-26T13:47:25Z</time>
      </trkpt>
      <trkpt lat="44.63349" lon="-0.19322">
        <ele>64.55</ele>
        <time>2017-01-26T13:47:41Z</time>
      </trkpt>
      <trkpt lat="44.63353" lon="-0.19317">
        <ele>63.58</ele>
        <time>2017-01-26T13:47:46Z</time>
      </trkpt>
      <trkpt lat="44.6336" lon="-0.19319">
        <ele>63.1</ele>
        <time>2017-01-26T13:47:52Z</time>
      </trkpt>
      <trkpt lat="44.63362" lon="-0.19321">
        <ele>63.1</ele>
        <time>2017-01-26T13:47:54Z</time>
      </trkpt>
      <trkpt lat="44.63369" lon="-0.19348">
        <ele>61.18</ele>
        <time>2017-01-26T13:48:09Z</time>
      </trkpt>
      <trkpt lat="44.63374" lon="-0.19367">
        <ele>59.26</ele>
        <time>2017-01-26T13:48:22Z</time>
      </trkpt>
      <trkpt lat="44.63374" lon="-0.1937">
        <ele>58.78</ele>
        <time>2017-01-26T13:48:24Z</time>
      </trkpt>
      <trkpt lat="44.63378" lon="-0.19385">
        <ele>57.34</ele>
        <time>2017-01-26T13:48:39Z</time>
      </trkpt>
      <trkpt lat="44.63382" lon="-0.19395">
        <ele>56.37</ele>
        <time>2017-01-26T13:48:57Z</time>
      </trkpt>
      <trkpt lat="44.63387" lon="-0.1941">
        <ele>54.45</ele>
        <time>2017-01-26T13:49:15Z</time>
      </trkpt>
      <trkpt lat="44.63392" lon="-0.19431">
        <ele>52.53</ele>
        <time>2017-01-26T13:49:31Z</time>
      </trkpt>
      <trkpt lat="44.63397" lon="-0.19451">
        <ele>51.57</ele>
        <time>2017-01-26T13:49:45Z</time>
      </trkpt>
      <trkpt lat="44.63401" lon="-0.19469">
        <ele>51.09</ele>
        <time>2017-01-26T13:49:58Z</time>
      </trkpt>
      <trkpt lat="44.63404" lon="-0.19475">
        <ele>51.09</ele>
        <time>2017-01-26T13:50:02Z</time>
      </trkpt>
      <trkpt lat="44.63406" lon="-0.19487">
        <ele>51.09</ele>
        <time>2017-01-26T13:50:10Z</time>
      </trkpt>
      <trkpt lat="44.63412" lon="-0.19505">
        <ele>51.57</ele>
        <time>2017-01-26T13:50:24Z</time>
      </trkpt>
      <trkpt lat="44.63421" lon="-0.19523">
        <ele>52.05</ele>
        <time>2017-01-26T13:50:39Z</time>
      </trkpt>
      <trkpt lat="44.6343" lon="-0.19539">
        <ele>53.01</ele>
        <time>2017-01-26T13:50:53Z</time>
      </trkpt>
      <trkpt lat="44.63433" lon="-0.19546">
        <ele>53.01</ele>
        <time>2017-01-26T13:50:57Z</time>
      </trkpt>
      <trkpt lat="44.63438" lon="-0.19558">
        <ele>56.37</ele>
        <time>2017-01-26T13:51:06Z</time>
      </trkpt>
      <trkpt lat="44.63439" lon="-0.1956">
        <ele>54.45</ele>
        <time>2017-01-26T13:51:07Z</time>
      </trkpt>
      <trkpt lat="44.63449" lon="-0.19583">
        <ele>55.41</ele>
        <time>2017-01-26T13:51:24Z</time>
      </trkpt>
      <trkpt lat="44.6346" lon="-0.19602">
        <ele>56.37</ele>
        <time>2017-01-26T13:51:39Z</time>
      </trkpt>
      <trkpt lat="44.63467" lon="-0.19618">
        <ele>57.34</ele>
        <time>2017-01-26T13:51:53Z</time>
      </trkpt>
      <trkpt lat="44.63476" lon="-0.19638">
        <ele>58.3</ele>
        <time>2017-01-26T13:52:07Z</time>
      </trkpt>
      <trkpt lat="44.63476" lon="-0.19643">
        <ele>58.78</ele>
        <time>2017-01-26T13:52:10Z</time>
      </trkpt>
      <trkpt lat="44.63478" lon="-0.1965">
        <ele>59.26</ele>
        <time>2017-01-26T13:52:27Z</time>
      </trkpt>
      <trkpt lat="44.63479" lon="-0.1965">
        <ele>58.78</ele>
        <time>2017-01-26T13:52:43Z</time>
      </trkpt>
      <trkpt lat="44.6348" lon="-0.1965">
        <ele>58.78</ele>
        <time>2017-01-26T13:53:09Z</time>
      </trkpt>
      <trkpt lat="44.6348" lon="-0.1965">
        <ele>62.14</ele>
        <time>2017-01-26T13:53:18Z</time>
      </trkpt>
      <trkpt lat="44.6348" lon="-0.1965">
        <ele>58.78</ele>
        <time>2017-01-26T13:53:19Z</time>
      </trkpt>
      <trkpt lat="44.6348" lon="-0.19651">
        <ele>56.37</ele>
        <time>2017-01-26T13:53:37Z</time>
      </trkpt>
      <trkpt lat="44.6348" lon="-0.19651">
        <ele>60.22</ele>
        <time>2017-01-26T13:53:38Z</time>
      </trkpt>
      <trkpt lat="44.63479" lon="-0.19651">
        <ele>58.3</ele>
        <time>2017-01-26T13:54:03Z</time>
      </trkpt>
      <trkpt lat="44.63479" lon="-0.19651">
        <ele>58.78</ele>
        <time>2017-01-26T13:54:29Z</time>
      </trkpt>
      <trkpt lat="44.6348" lon="-0.19651">
        <ele>58.3</ele>
        <time>2017-01-26T13:54:50Z</time>
      </trkpt>
      <trkpt lat="44.63482" lon="-0.19658">
        <ele>58.78</ele>
        <time>2017-01-26T13:55:04Z</time>
      </trkpt>
      <trkpt lat="44.63483" lon="-0.19663">
        <ele>59.26</ele>
        <time>2017-01-26T13:55:27Z</time>
      </trkpt>
      <trkpt lat="44.63483" lon="-0.19664">
        <ele>59.26</ele>
        <time>2017-01-26T13:55:28Z</time>
      </trkpt>
      <trkpt lat="44.63483" lon="-0.19671">
        <ele>59.74</ele>
        <time>2017-01-26T13:55:32Z</time>
      </trkpt>
      <trkpt lat="44.6348" lon="-0.19686">
        <ele>59.26</ele>
        <time>2017-01-26T13:55:41Z</time>
      </trkpt>
      <trkpt lat="44.63483" lon="-0.19717">
        <ele>58.78</ele>
        <time>2017-01-26T13:55:58Z</time>
      </trkpt>
      <trkpt lat="44.63489" lon="-0.19748">
        <ele>59.26</ele>
        <time>2017-01-26T13:56:16Z</time>
      </trkpt>
      <trkpt lat="44.63494" lon="-0.19775">
        <ele>59.26</ele>
        <time>2017-01-26T13:56:32Z</time>
      </trkpt>
      <trkpt lat="44.63501" lon="-0.19788">
        <ele>59.26</ele>
        <time>2017-01-26T13:56:43Z</time>
      </trkpt>
      <trkpt lat="44.63507" lon="-0.19793">
        <ele>59.74</ele>
        <time>2017-01-26T13:56:48Z</time>
      </trkpt>
      <trkpt lat="44.63525" lon="-0.19816">
        <ele>58.3</ele>
        <time>2017-01-26T13:57:07Z</time>
      </trkpt>
      <trkpt lat="44.63533" lon="-0.19828">
        <ele>58.3</ele>
        <time>2017-01-26T13:57:17Z</time>
      </trkpt>
      <trkpt lat="44.63537" lon="-0.19832">
        <ele>58.3</ele>
        <time>2017-01-26T13:57:21Z</time>
      </trkpt>
      <trkpt lat="44.6354" lon="-0.19841">
        <ele>57.34</ele>
        <time>2017-01-26T13:57:27Z</time>
      </trkpt>
      <trkpt lat="44.63536" lon="-0.1985">
        <ele>56.86</ele>
        <time>2017-01-26T13:57:33Z</time>
      </trkpt>
      <trkpt lat="44.63525" lon="-0.19872">
        <ele>55.41</ele>
        <time>2017-01-26T13:57:48Z</time>
      </trkpt>
      <trkpt lat="44.63523" lon="-0.19875">
        <ele>55.41</ele>
        <time>2017-01-26T13:57:50Z</time>
      </trkpt>
      <trkpt lat="44.63521" lon="-0.19876">
        <ele>55.41</ele>
        <time>2017-01-26T13:57:52Z</time>
      </trkpt>
      <trkpt lat="44.63518" lon="-0.19881">
        <ele>55.41</ele>
        <time>2017-01-26T13:57:56Z</time>
      </trkpt>
      <trkpt lat="44.63508" lon="-0.19893">
        <ele>54.45</ele>
        <time>2017-01-26T13:58:08Z</time>
      </trkpt>
      <trkpt lat="44.63495" lon="-0.19925">
        <ele>53.97</ele>
        <time>2017-01-26T13:58:27Z</time>
      </trkpt>
      <trkpt lat="44.63494" lon="-0.19927">
        <ele>53.97</ele>
        <time>2017-01-26T13:58:28Z</time>
      </trkpt>
      <trkpt lat="44.63495" lon="-0.1993">
        <ele>53.97</ele>
        <time>2017-01-26T13:58:30Z</time>
      </trkpt>
      <trkpt lat="44.6351" lon="-0.19944">
        <ele>53.97</ele>
        <time>2017-01-26T13:58:46Z</time>
      </trkpt>
      <trkpt lat="44.63523" lon="-0.19957">
        <ele>53.97</ele>
        <time>2017-01-26T13:59:00Z</time>
      </trkpt>
      <trkpt lat="44.6354" lon="-0.1997">
        <ele>53.49</ele>
        <time>2017-01-26T13:59:16Z</time>
      </trkpt>
      <trkpt lat="44.63564" lon="-0.19991">
        <ele>53.97</ele>
        <time>2017-01-26T13:59:36Z</time>
      </trkpt>
      <trkpt lat="44.63589" lon="-0.20012">
        <ele>53.49</ele>
        <time>2017-01-26T13:59:58Z</time>
      </trkpt>
      <trkpt lat="44.63608" lon="-0.20032">
        <ele>54.45</ele>
        <time>2017-01-26T14:00:17Z</time>
      </trkpt>
      <trkpt lat="44.6363" lon="-0.2005">
        <ele>54.93</ele>
        <time>2017-01-26T14:00:35Z</time>
      </trkpt>
      <trkpt lat="44.6365" lon="-0.20062">
        <ele>54.45</ele>
        <time>2017-01-26T14:00:52Z</time>
      </trkpt>
      <trkpt lat="44.63673" lon="-0.20076">
        <ele>54.93</ele>
        <time>2017-01-26T14:01:11Z</time>
      </trkpt>
      <trkpt lat="44.6369" lon="-0.20088">
        <ele>54.93</ele>
        <time>2017-01-26T14:01:24Z</time>
      </trkpt>
      <trkpt lat="44.63711" lon="-0.20101">
        <ele>55.41</ele>
        <time>2017-01-26T14:01:42Z</time>
      </trkpt>
      <trkpt lat="44.63714" lon="-0.20103">
        <ele>55.89</ele>
        <time>2017-01-26T14:01:45Z</time>
      </trkpt>
      <trkpt lat="44.63734" lon="-0.20122">
        <ele>55.89</ele>
        <time>2017-01-26T14:02:03Z</time>
      </trkpt>
      <trkpt lat="44.6375" lon="-0.20139">
        <ele>55.89</ele>
        <time>2017-01-26T14:02:19Z</time>
      </trkpt>
      <trkpt lat="44.63768" lon="-0.20155">
        <ele>55.89</ele>
        <time>2017-01-26T14:02:35Z</time>
      </trkpt>
      <trkpt lat="44.63772" lon="-0.20159">
        <ele>56.37</ele>
        <time>2017-01-26T14:02:46Z</time>
      </trkpt>
      <trkpt lat="44.63771" lon="-0.20159">
        <ele>55.41</ele>
        <time>2017-01-26T14:02:54Z</time>
      </trkpt>
      <trkpt lat="44.63757" lon="-0.20147">
        <ele>54.93</ele>
        <time>2017-01-26T14:03:10Z</time>
      </trkpt>
      <trkpt lat="44.63752" lon="-0.20142">
        <ele>54.93</ele>
        <time>2017-01-26T14:03:25Z</time>
      </trkpt>
      <trkpt lat="44.63758" lon="-0.20133">
        <ele>55.89</ele>
        <time>2017-01-26T14:03:38Z</time>
      </trkpt>
      <trkpt lat="44.63759" lon="-0.20133">
        <ele>55.89</ele>
        <time>2017-01-26T14:03:40Z</time>
      </trkpt>
      <trkpt lat="44.63761" lon="-0.20129">
        <ele>56.37</ele>
        <time>2017-01-26T14:03:48Z</time>
      </trkpt>
      <trkpt lat="44.6376" lon="-0.20131">
        <ele>56.37</ele>
        <time>2017-01-26T14:03:50Z</time>
      </trkpt>
      <trkpt lat="44.63756" lon="-0.20137">
        <ele>55.89</ele>
        <time>2017-01-26T14:03:55Z</time>
      </trkpt>
      <trkpt lat="44.63736" lon="-0.20125">
        <ele>54.93</ele>
        <time>2017-01-26T14:04:14Z</time>
      </trkpt>
      <trkpt lat="44.63718" lon="-0.20108">
        <ele>54.93</ele>
        <time>2017-01-26T14:04:31Z</time>
      </trkpt>
      <trkpt lat="44.63706" lon="-0.20101">
        <ele>54.93</ele>
        <time>2017-01-26T14:04:43Z</time>
      </trkpt>
      <trkpt lat="44.63696" lon="-0.20121">
        <ele>54.45</ele>
        <time>2017-01-26T14:04:59Z</time>
      </trkpt>
      <trkpt lat="44.63687" lon="-0.20139">
        <ele>54.45</ele>
        <time>2017-01-26T14:05:14Z</time>
      </trkpt>
      <trkpt lat="44.63679" lon="-0.20161">
        <ele>53.97</ele>
        <time>2017-01-26T14:05:29Z</time>
      </trkpt>
      <trkpt lat="44.63673" lon="-0.2018">
        <ele>54.93</ele>
        <time>2017-01-26T14:05:44Z</time>
      </trkpt>
      <trkpt lat="44.63675" lon="-0.20185">
        <ele>54.93</ele>
        <time>2017-01-26T14:05:54Z</time>
      </trkpt>
      <trkpt lat="44.63684" lon="-0.20193">
        <ele>54.93</ele>
        <time>2017-01-26T14:06:07Z</time>
      </trkpt>
      <trkpt lat="44.63687" lon="-0.20196">
        <ele>54.45</ele>
        <time>2017-01-26T14:06:22Z</time>
      </trkpt>
      <trkpt lat="44.637" lon="-0.20207">
        <ele>55.41</ele>
        <time>2017-01-26T14:06:36Z</time>
      </trkpt>
      <trkpt lat="44.63713" lon="-0.20217">
        <ele>56.37</ele>
        <time>2017-01-26T14:06:52Z</time>
      </trkpt>
      <trkpt lat="44.63722" lon="-0.20225">
        <ele>56.86</ele>
        <time>2017-01-26T14:07:06Z</time>
      </trkpt>
      <trkpt lat="44.63734" lon="-0.20235">
        <ele>56.86</ele>
        <time>2017-01-26T14:07:20Z</time>
      </trkpt>
      <trkpt lat="44.63751" lon="-0.2025">
        <ele>57.34</ele>
        <time>2017-01-26T14:07:39Z</time>
      </trkpt>
      <trkpt lat="44.63767" lon="-0.20264">
        <ele>58.3</ele>
        <time>2017-01-26T14:07:56Z</time>
      </trkpt>
      <trkpt lat="44.63783" lon="-0.20276">
        <ele>58.3</ele>
        <time>2017-01-26T14:08:11Z</time>
      </trkpt>
      <trkpt lat="44.63797" lon="-0.20288">
        <ele>58.78</ele>
        <time>2017-01-26T14:08:27Z</time>
      </trkpt>
      <trkpt lat="44.63817" lon="-0.20302">
        <ele>58.78</ele>
        <time>2017-01-26T14:08:44Z</time>
      </trkpt>
      <trkpt lat="44.63831" lon="-0.20315">
        <ele>58.3</ele>
        <time>2017-01-26T14:08:59Z</time>
      </trkpt>
      <trkpt lat="44.63847" lon="-0.20327">
        <ele>58.78</ele>
        <time>2017-01-26T14:09:16Z</time>
      </trkpt>
      <trkpt lat="44.63861" lon="-0.20339">
        <ele>58.78</ele>
        <time>2017-01-26T14:09:31Z</time>
      </trkpt>
      <trkpt lat="44.6387" lon="-0.20348">
        <ele>59.26</ele>
        <time>2017-01-26T14:09:41Z</time>
      </trkpt>
      <trkpt lat="44.63882" lon="-0.20356">
        <ele>59.26</ele>
        <time>2017-01-26T14:09:52Z</time>
      </trkpt>
      <trkpt lat="44.63895" lon="-0.20367">
        <ele>59.74</ele>
        <time>2017-01-26T14:10:06Z</time>
      </trkpt>
      <trkpt lat="44.63907" lon="-0.20378">
        <ele>59.74</ele>
        <time>2017-01-26T14:10:18Z</time>
      </trkpt>
      <trkpt lat="44.63922" lon="-0.20391">
        <ele>60.22</ele>
        <time>2017-01-26T14:10:34Z</time>
      </trkpt>
      <trkpt lat="44.63935" lon="-0.20405">
        <ele>60.7</ele>
        <time>2017-01-26T14:10:48Z</time>
      </trkpt>
      <trkpt lat="44.63946" lon="-0.20426">
        <ele>61.18</ele>
        <time>2017-01-26T14:11:04Z</time>
      </trkpt>
      <trkpt lat="44.63961" lon="-0.20446">
        <ele>61.66</ele>
        <time>2017-01-26T14:11:22Z</time>
      </trkpt>
      <trkpt lat="44.63973" lon="-0.20463">
        <ele>61.66</ele>
        <time>2017-01-26T14:11:38Z</time>
      </trkpt>
      <trkpt lat="44.63978" lon="-0.20471">
        <ele>61.66</ele>
        <time>2017-01-26T14:11:51Z</time>
      </trkpt>
      <trkpt lat="44.63978" lon="-0.2047">
        <ele>61.18</ele>
        <time>2017-01-26T14:12:09Z</time>
      </trkpt>
      <trkpt lat="44.63978" lon="-0.2047">
        <ele>61.18</ele>
        <time>2017-01-26T14:12:22Z</time>
      </trkpt>
      <trkpt lat="44.63978" lon="-0.20475">
        <ele>61.66</ele>
        <time>2017-01-26T14:12:34Z</time>
      </trkpt>
      <trkpt lat="44.63979" lon="-0.20476">
        <ele>61.18</ele>
        <time>2017-01-26T14:12:46Z</time>
      </trkpt>
      <trkpt lat="44.6398" lon="-0.20477">
        <ele>61.18</ele>
        <time>2017-01-26T14:12:47Z</time>
      </trkpt>
      <trkpt lat="44.63998" lon="-0.20496">
        <ele>61.66</ele>
        <time>2017-01-26T14:13:06Z</time>
      </trkpt>
      <trkpt lat="44.64001" lon="-0.205">
        <ele>62.14</ele>
        <time>2017-01-26T14:13:10Z</time>
      </trkpt>
      <trkpt lat="44.6401" lon="-0.20514">
        <ele>62.14</ele>
        <time>2017-01-26T14:13:21Z</time>
      </trkpt>
      <trkpt lat="44.64023" lon="-0.20535">
        <ele>62.62</ele>
        <time>2017-01-26T14:13:38Z</time>
      </trkpt>
      <trkpt lat="44.64034" lon="-0.20552">
        <ele>62.62</ele>
        <time>2017-01-26T14:13:53Z</time>
      </trkpt>
      <trkpt lat="44.64035" lon="-0.20554">
        <ele>62.62</ele>
        <time>2017-01-26T14:13:55Z</time>
      </trkpt>
      <trkpt lat="44.64042" lon="-0.20573">
        <ele>63.58</ele>
        <time>2017-01-26T14:14:09Z</time>
      </trkpt>
      <trkpt lat="44.64033" lon="-0.20573">
        <ele>64.07</ele>
        <time>2017-01-26T14:14:20Z</time>
      </trkpt>
      <trkpt lat="44.64034" lon="-0.20573">
        <ele>64.07</ele>
        <time>2017-01-26T14:14:24Z</time>
      </trkpt>
      <trkpt lat="44.64049" lon="-0.20578">
        <ele>63.58</ele>
        <time>2017-01-26T14:14:37Z</time>
      </trkpt>
      <trkpt lat="44.64051" lon="-0.2059">
        <ele>63.1</ele>
        <time>2017-01-26T14:14:44Z</time>
      </trkpt>
      <trkpt lat="44.64051" lon="-0.20594">
        <ele>66.95</ele>
        <time>2017-01-26T14:14:46Z</time>
      </trkpt>
      <trkpt lat="44.64051" lon="-0.20595">
        <ele>61.66</ele>
        <time>2017-01-26T14:14:47Z</time>
      </trkpt>
      <trkpt lat="44.6405" lon="-0.20597">
        <ele>66.95</ele>
        <time>2017-01-26T14:14:48Z</time>
      </trkpt>
      <trkpt lat="44.64047" lon="-0.20615">
        <ele>63.58</ele>
        <time>2017-01-26T14:14:58Z</time>
      </trkpt>
      <trkpt lat="44.64043" lon="-0.20637">
        <ele>64.07</ele>
        <time>2017-01-26T14:15:11Z</time>
      </trkpt>
      <trkpt lat="44.64043" lon="-0.20648">
        <ele>64.07</ele>
        <time>2017-01-26T14:15:16Z</time>
      </trkpt>
      <trkpt lat="44.64037" lon="-0.20681">
        <ele>65.51</ele>
        <time>2017-01-26T14:15:34Z</time>
      </trkpt>
      <trkpt lat="44.64033" lon="-0.20709">
        <ele>65.99</ele>
        <time>2017-01-26T14:15:51Z</time>
      </trkpt>
      <trkpt lat="44.64031" lon="-0.20728">
        <ele>66.95</ele>
        <time>2017-01-26T14:16:03Z</time>
      </trkpt>
      <trkpt lat="44.64025" lon="-0.20752">
        <ele>68.87</ele>
        <time>2017-01-26T14:16:21Z</time>
      </trkpt>
      <trkpt lat="44.64013" lon="-0.20781">
        <ele>70.31</ele>
        <time>2017-01-26T14:16:40Z</time>
      </trkpt>
      <trkpt lat="44.64004" lon="-0.20798">
        <ele>71.27</ele>
        <time>2017-01-26T14:16:53Z</time>
      </trkpt>
      <trkpt lat="44.64003" lon="-0.20801">
        <ele>66.47</ele>
        <time>2017-01-26T14:16:55Z</time>
      </trkpt>
      <trkpt lat="44.64002" lon="-0.20802">
        <ele>74.64</ele>
        <time>2017-01-26T14:16:56Z</time>
      </trkpt>
      <trkpt lat="44.64" lon="-0.20806">
        <ele>71.76</ele>
        <time>2017-01-26T14:16:59Z</time>
      </trkpt>
      <trkpt lat="44.63989" lon="-0.2083">
        <ele>73.2</ele>
        <time>2017-01-26T14:17:15Z</time>
      </trkpt>
      <trkpt lat="44.63978" lon="-0.20849">
        <ele>74.64</ele>
        <time>2017-01-26T14:17:29Z</time>
      </trkpt>
      <trkpt lat="44.63973" lon="-0.20859">
        <ele>76.08</ele>
        <time>2017-01-26T14:17:39Z</time>
      </trkpt>
      <trkpt lat="44.63971" lon="-0.2086">
        <ele>76.08</ele>
        <time>2017-01-26T14:17:53Z</time>
      </trkpt>
      <trkpt lat="44.6397" lon="-0.20864">
        <ele>77.04</ele>
        <time>2017-01-26T14:18:08Z</time>
      </trkpt>
      <trkpt lat="44.63962" lon="-0.20879">
        <ele>78</ele>
        <time>2017-01-26T14:18:22Z</time>
      </trkpt>
      <trkpt lat="44.63951" lon="-0.20901">
        <ele>80.89</ele>
        <time>2017-01-26T14:18:37Z</time>
      </trkpt>
      <trkpt lat="44.6394" lon="-0.20922">
        <ele>84.25</ele>
        <time>2017-01-26T14:18:53Z</time>
      </trkpt>
      <trkpt lat="44.63935" lon="-0.20931">
        <ele>85.69</ele>
        <time>2017-01-26T14:19:02Z</time>
      </trkpt>
      <trkpt lat="44.63926" lon="-0.20943">
        <ele>88.1</ele>
        <time>2017-01-26T14:19:14Z</time>
      </trkpt>
      <trkpt lat="44.63917" lon="-0.20965">
        <ele>90.98</ele>
        <time>2017-01-26T14:19:31Z</time>
      </trkpt>
      <trkpt lat="44.63911" lon="-0.20977">
        <ele>92.42</ele>
        <time>2017-01-26T14:19:45Z</time>
      </trkpt>
      <trkpt lat="44.63908" lon="-0.20982">
        <ele>92.42</ele>
        <time>2017-01-26T14:19:59Z</time>
      </trkpt>
      <trkpt lat="44.63908" lon="-0.20982">
        <ele>93.87</ele>
        <time>2017-01-26T14:20:08Z</time>
      </trkpt>
      <trkpt lat="44.63908" lon="-0.20983">
        <ele>92.42</ele>
        <time>2017-01-26T14:20:24Z</time>
      </trkpt>
      <trkpt lat="44.63907" lon="-0.20986">
        <ele>94.35</ele>
        <time>2017-01-26T14:20:37Z</time>
      </trkpt>
      <trkpt lat="44.639" lon="-0.20996">
        <ele>95.79</ele>
        <time>2017-01-26T14:20:51Z</time>
      </trkpt>
      <trkpt lat="44.63897" lon="-0.20999">
        <ele>96.27</ele>
        <time>2017-01-26T14:20:57Z</time>
      </trkpt>
      <trkpt lat="44.63879" lon="-0.20997">
        <ele>95.31</ele>
        <time>2017-01-26T14:21:15Z</time>
      </trkpt>
      <trkpt lat="44.63868" lon="-0.20994">
        <ele>96.27</ele>
        <time>2017-01-26T14:21:31Z</time>
      </trkpt>
      <trkpt lat="44.63857" lon="-0.20998">
        <ele>98.19</ele>
        <time>2017-01-26T14:21:43Z</time>
      </trkpt>
      <trkpt lat="44.63854" lon="-0.21024">
        <ele>99.15</ele>
        <time>2017-01-26T14:21:58Z</time>
      </trkpt>
      <trkpt lat="44.63852" lon="-0.21048">
        <ele>100.6</ele>
        <time>2017-01-26T14:22:13Z</time>
      </trkpt>
      <trkpt lat="44.63852" lon="-0.21057">
        <ele>101.56</ele>
        <time>2017-01-26T14:22:19Z</time>
      </trkpt>
      <trkpt lat="44.63852" lon="-0.21063">
        <ele>101.56</ele>
        <time>2017-01-26T14:22:23Z</time>
      </trkpt>
      <trkpt lat="44.63856" lon="-0.21095">
        <ele>101.56</ele>
        <time>2017-01-26T14:22:41Z</time>
      </trkpt>
      <trkpt lat="44.63858" lon="-0.21098">
        <ele>101.08</ele>
        <time>2017-01-26T14:22:54Z</time>
      </trkpt>
      <trkpt lat="44.63859" lon="-0.21099">
        <ele>101.08</ele>
        <time>2017-01-26T14:23:08Z</time>
      </trkpt>
      <trkpt lat="44.63859" lon="-0.21099">
        <ele>101.08</ele>
        <time>2017-01-26T14:23:27Z</time>
      </trkpt>
      <trkpt lat="44.63852" lon="-0.21103">
        <ele>101.08</ele>
        <time>2017-01-26T14:23:41Z</time>
      </trkpt>
      <trkpt lat="44.63852" lon="-0.21102">
        <ele>100.6</ele>
        <time>2017-01-26T14:24:00Z</time>
      </trkpt>
      <trkpt lat="44.63873" lon="-0.21108">
        <ele>101.56</ele>
        <time>2017-01-26T14:24:16Z</time>
      </trkpt>
      <trkpt lat="44.63871" lon="-0.21112">
        <ele>102.52</ele>
        <time>2017-01-26T14:24:22Z</time>
      </trkpt>
      <trkpt lat="44.63869" lon="-0.21113">
        <ele>102.04</ele>
        <time>2017-01-26T14:24:33Z</time>
      </trkpt>
      <trkpt lat="44.63882" lon="-0.21117">
        <ele>102.52</ele>
        <time>2017-01-26T14:24:50Z</time>
      </trkpt>
      <trkpt lat="44.63886" lon="-0.21127">
        <ele>103.48</ele>
        <time>2017-01-26T14:25:04Z</time>
      </trkpt>
      <trkpt lat="44.63883" lon="-0.21135">
        <ele>103.48</ele>
        <time>2017-01-26T14:25:23Z</time>
      </trkpt>
      <trkpt lat="44.63877" lon="-0.21144">
        <ele>103</ele>
        <time>2017-01-26T14:25:36Z</time>
      </trkpt>
      <trkpt lat="44.63875" lon="-0.21147">
        <ele>103</ele>
        <time>2017-01-26T14:25:41Z</time>
      </trkpt>
      <trkpt lat="44.63867" lon="-0.21168">
        <ele>101.56</ele>
        <time>2017-01-26T14:25:57Z</time>
      </trkpt>
      <trkpt lat="44.63859" lon="-0.21189">
        <ele>100.11</ele>
        <time>2017-01-26T14:26:13Z</time>
      </trkpt>
      <trkpt lat="44.63859" lon="-0.2119">
        <ele>100.11</ele>
        <time>2017-01-26T14:26:14Z</time>
      </trkpt>
      <trkpt lat="44.63857" lon="-0.21194">
        <ele>100.6</ele>
        <time>2017-01-26T14:26:18Z</time>
      </trkpt>
      <trkpt lat="44.6385" lon="-0.21216">
        <ele>97.71</ele>
        <time>2017-01-26T14:26:35Z</time>
      </trkpt>
      <trkpt lat="44.63845" lon="-0.21233">
        <ele>95.79</ele>
        <time>2017-01-26T14:26:50Z</time>
      </trkpt>
      <trkpt lat="44.63844" lon="-0.21239">
        <ele>93.87</ele>
        <time>2017-01-26T14:27:05Z</time>
      </trkpt>
      <trkpt lat="44.63844" lon="-0.2124">
        <ele>93.39</ele>
        <time>2017-01-26T14:27:15Z</time>
      </trkpt>
      <trkpt lat="44.63843" lon="-0.21242">
        <ele>93.39</ele>
        <time>2017-01-26T14:27:24Z</time>
      </trkpt>
      <trkpt lat="44.63845" lon="-0.21238">
        <ele>94.83</ele>
        <time>2017-01-26T14:27:36Z</time>
      </trkpt>
      <trkpt lat="44.6384" lon="-0.21226">
        <ele>94.83</ele>
        <time>2017-01-26T14:27:50Z</time>
      </trkpt>
      <trkpt lat="44.63837" lon="-0.21224">
        <ele>94.83</ele>
        <time>2017-01-26T14:27:54Z</time>
      </trkpt>
      <trkpt lat="44.63825" lon="-0.21212">
        <ele>96.27</ele>
        <time>2017-01-26T14:28:09Z</time>
      </trkpt>
      <trkpt lat="44.63819" lon="-0.21205">
        <ele>96.27</ele>
        <time>2017-01-26T14:28:16Z</time>
      </trkpt>
      <trkpt lat="44.63816" lon="-0.21202">
        <ele>96.27</ele>
        <time>2017-01-26T14:28:20Z</time>
      </trkpt>
      <trkpt lat="44.63802" lon="-0.21187">
        <ele>94.35</ele>
        <time>2017-01-26T14:28:35Z</time>
      </trkpt>
      <trkpt lat="44.6379" lon="-0.21172">
        <ele>95.31</ele>
        <time>2017-01-26T14:28:51Z</time>
      </trkpt>
      <trkpt lat="44.63785" lon="-0.21165">
        <ele>94.35</ele>
        <time>2017-01-26T14:28:56Z</time>
      </trkpt>
      <trkpt lat="44.63774" lon="-0.21161">
        <ele>93.39</ele>
        <time>2017-01-26T14:29:11Z</time>
      </trkpt>
      <trkpt lat="44.63779" lon="-0.21175">
        <ele>92.42</ele>
        <time>2017-01-26T14:29:24Z</time>
      </trkpt>
      <trkpt lat="44.63782" lon="-0.2118">
        <ele>92.42</ele>
        <time>2017-01-26T14:29:40Z</time>
      </trkpt>
      <trkpt lat="44.63783" lon="-0.21181">
        <ele>92.42</ele>
        <time>2017-01-26T14:29:41Z</time>
      </trkpt>
      <trkpt lat="44.63787" lon="-0.21187">
        <ele>92.42</ele>
        <time>2017-01-26T14:29:53Z</time>
      </trkpt>
      <trkpt lat="44.63789" lon="-0.21189">
        <ele>91.94</ele>
        <time>2017-01-26T14:30:09Z</time>
      </trkpt>
      <trkpt lat="44.63799" lon="-0.21203">
        <ele>91.94</ele>
        <time>2017-01-26T14:30:22Z</time>
      </trkpt>
      <trkpt lat="44.63814" lon="-0.21221">
        <ele>91.94</ele>
        <time>2017-01-26T14:30:40Z</time>
      </trkpt>
      <trkpt lat="44.63815" lon="-0.21222">
        <ele>91.46</ele>
        <time>2017-01-26T14:30:41Z</time>
      </trkpt>
      <trkpt lat="44.63821" lon="-0.21234">
        <ele>91.46</ele>
        <time>2017-01-26T14:30:51Z</time>
      </trkpt>
      <trkpt lat="44.63835" lon="-0.21255">
        <ele>90.98</ele>
        <time>2017-01-26T14:31:08Z</time>
      </trkpt>
      <trkpt lat="44.6384" lon="-0.21262">
        <ele>90.98</ele>
        <time>2017-01-26T14:31:16Z</time>
      </trkpt>
      <trkpt lat="44.63854" lon="-0.2127">
        <ele>90.98</ele>
        <time>2017-01-26T14:31:28Z</time>
      </trkpt>
      <trkpt lat="44.6387" lon="-0.21281">
        <ele>90.5</ele>
        <time>2017-01-26T14:31:43Z</time>
      </trkpt>
      <trkpt lat="44.63886" lon="-0.2129">
        <ele>90.5</ele>
        <time>2017-01-26T14:31:59Z</time>
      </trkpt>
      <trkpt lat="44.63889" lon="-0.21293">
        <ele>90.02</ele>
        <time>2017-01-26T14:32:02Z</time>
      </trkpt>
      <trkpt lat="44.63893" lon="-0.21296">
        <ele>90.02</ele>
        <time>2017-01-26T14:32:06Z</time>
      </trkpt>
      <trkpt lat="44.63894" lon="-0.21299">
        <ele>89.54</ele>
        <time>2017-01-26T14:32:08Z</time>
      </trkpt>
      <trkpt lat="44.63892" lon="-0.21308">
        <ele>87.14</ele>
        <time>2017-01-26T14:32:15Z</time>
      </trkpt>
      <trkpt lat="44.63892" lon="-0.21309">
        <ele>90.5</ele>
        <time>2017-01-26T14:32:16Z</time>
      </trkpt>
      <trkpt lat="44.63891" lon="-0.21311">
        <ele>87.62</ele>
        <time>2017-01-26T14:32:17Z</time>
      </trkpt>
      <trkpt lat="44.6389" lon="-0.21315">
        <ele>87.62</ele>
        <time>2017-01-26T14:32:21Z</time>
      </trkpt>
      <trkpt lat="44.63887" lon="-0.21324">
        <ele>86.66</ele>
        <time>2017-01-26T14:32:26Z</time>
      </trkpt>
      <trkpt lat="44.63884" lon="-0.21335">
        <ele>85.21</ele>
        <time>2017-01-26T14:32:40Z</time>
      </trkpt>
      <trkpt lat="44.63878" lon="-0.21357">
        <ele>84.25</ele>
        <time>2017-01-26T14:32:55Z</time>
      </trkpt>
      <trkpt lat="44.63872" lon="-0.21374">
        <ele>84.25</ele>
        <time>2017-01-26T14:33:08Z</time>
      </trkpt>
      <trkpt lat="44.63867" lon="-0.21389">
        <ele>82.33</ele>
        <time>2017-01-26T14:33:19Z</time>
      </trkpt>
      <trkpt lat="44.63867" lon="-0.2139">
        <ele>86.18</ele>
        <time>2017-01-26T14:33:20Z</time>
      </trkpt>
      <trkpt lat="44.63865" lon="-0.21395">
        <ele>83.29</ele>
        <time>2017-01-26T14:33:23Z</time>
      </trkpt>
      <trkpt lat="44.63859" lon="-0.21414">
        <ele>82.81</ele>
        <time>2017-01-26T14:33:38Z</time>
      </trkpt>
      <trkpt lat="44.63852" lon="-0.2143">
        <ele>82.81</ele>
        <time>2017-01-26T14:33:52Z</time>
      </trkpt>
      <trkpt lat="44.63846" lon="-0.21445">
        <ele>83.29</ele>
        <time>2017-01-26T14:34:03Z</time>
      </trkpt>
      <trkpt lat="44.63837" lon="-0.21465">
        <ele>84.25</ele>
        <time>2017-01-26T14:34:18Z</time>
      </trkpt>
      <trkpt lat="44.63828" lon="-0.21485">
        <ele>83.29</ele>
        <time>2017-01-26T14:34:33Z</time>
      </trkpt>
      <trkpt lat="44.63826" lon="-0.21491">
        <ele>82.81</ele>
        <time>2017-01-26T14:34:37Z</time>
      </trkpt>
      <trkpt lat="44.63817" lon="-0.21515">
        <ele>82.33</ele>
        <time>2017-01-26T14:34:54Z</time>
      </trkpt>
      <trkpt lat="44.63808" lon="-0.21532">
        <ele>78.97</ele>
        <time>2017-01-26T14:35:07Z</time>
      </trkpt>
      <trkpt lat="44.638" lon="-0.21556">
        <ele>78.48</ele>
        <time>2017-01-26T14:35:24Z</time>
      </trkpt>
      <trkpt lat="44.63792" lon="-0.21578">
        <ele>77.04</ele>
        <time>2017-01-26T14:35:39Z</time>
      </trkpt>
      <trkpt lat="44.63782" lon="-0.21598">
        <ele>75.6</ele>
        <time>2017-01-26T14:35:54Z</time>
      </trkpt>
      <trkpt lat="44.63775" lon="-0.21619">
        <ele>73.68</ele>
        <time>2017-01-26T14:36:10Z</time>
      </trkpt>
      <trkpt lat="44.63767" lon="-0.21646">
        <ele>72.24</ele>
        <time>2017-01-26T14:36:28Z</time>
      </trkpt>
      <trkpt lat="44.63758" lon="-0.21668">
        <ele>71.76</ele>
        <time>2017-01-26T14:36:43Z</time>
      </trkpt>
      <trkpt lat="44.63755" lon="-0.21679">
        <ele>68.39</ele>
        <time>2017-01-26T14:36:50Z</time>
      </trkpt>
      <trkpt lat="44.63754" lon="-0.2168">
        <ele>73.68</ele>
        <time>2017-01-26T14:36:51Z</time>
      </trkpt>
      <trkpt lat="44.63753" lon="-0.21684">
        <ele>70.31</ele>
        <time>2017-01-26T14:36:54Z</time>
      </trkpt>
      <trkpt lat="44.63745" lon="-0.21705">
        <ele>69.35</ele>
        <time>2017-01-26T14:37:09Z</time>
      </trkpt>
      <trkpt lat="44.63743" lon="-0.2171">
        <ele>68.87</ele>
        <time>2017-01-26T14:37:13Z</time>
      </trkpt>
      <trkpt lat="44.63736" lon="-0.21734">
        <ele>67.91</ele>
        <time>2017-01-26T14:37:29Z</time>
      </trkpt>
      <trkpt lat="44.63736" lon="-0.21735">
        <ele>67.91</ele>
        <time>2017-01-26T14:37:30Z</time>
      </trkpt>
      <trkpt lat="44.63733" lon="-0.21749">
        <ele>66.95</ele>
        <time>2017-01-26T14:37:40Z</time>
      </trkpt>
      <trkpt lat="44.63724" lon="-0.21776">
        <ele>65.51</ele>
        <time>2017-01-26T14:37:59Z</time>
      </trkpt>
      <trkpt lat="44.63713" lon="-0.21801">
        <ele>64.55</ele>
        <time>2017-01-26T14:38:17Z</time>
      </trkpt>
      <trkpt lat="44.63703" lon="-0.21828">
        <ele>64.07</ele>
        <time>2017-01-26T14:38:37Z</time>
      </trkpt>
      <trkpt lat="44.63698" lon="-0.2184">
        <ele>63.58</ele>
        <time>2017-01-26T14:38:46Z</time>
      </trkpt>
      <trkpt lat="44.63689" lon="-0.21859">
        <ele>62.62</ele>
        <time>2017-01-26T14:39:01Z</time>
      </trkpt>
      <trkpt lat="44.63681" lon="-0.21878">
        <ele>61.66</ele>
        <time>2017-01-26T14:39:16Z</time>
      </trkpt>
      <trkpt lat="44.63673" lon="-0.21898">
        <ele>61.18</ele>
        <time>2017-01-26T14:39:32Z</time>
      </trkpt>
      <trkpt lat="44.6367" lon="-0.21907">
        <ele>60.7</ele>
        <time>2017-01-26T14:39:44Z</time>
      </trkpt>
      <trkpt lat="44.63667" lon="-0.21913">
        <ele>60.7</ele>
        <time>2017-01-26T14:39:48Z</time>
      </trkpt>
      <trkpt lat="44.63659" lon="-0.21934">
        <ele>60.7</ele>
        <time>2017-01-26T14:40:05Z</time>
      </trkpt>
      <trkpt lat="44.63651" lon="-0.21953">
        <ele>60.22</ele>
        <time>2017-01-26T14:40:20Z</time>
      </trkpt>
      <trkpt lat="44.63645" lon="-0.21969">
        <ele>59.74</ele>
        <time>2017-01-26T14:40:33Z</time>
      </trkpt>
      <trkpt lat="44.63646" lon="-0.2197">
        <ele>59.74</ele>
        <time>2017-01-26T14:40:35Z</time>
      </trkpt>
      <trkpt lat="44.6366" lon="-0.21977">
        <ele>60.22</ele>
        <time>2017-01-26T14:40:49Z</time>
      </trkpt>
      <trkpt lat="44.63679" lon="-0.21993">
        <ele>59.74</ele>
        <time>2017-01-26T14:41:07Z</time>
      </trkpt>
      <trkpt lat="44.63696" lon="-0.22009">
        <ele>60.22</ele>
        <time>2017-01-26T14:41:24Z</time>
      </trkpt>
      <trkpt lat="44.63706" lon="-0.22021">
        <ele>60.22</ele>
        <time>2017-01-26T14:41:35Z</time>
      </trkpt>
      <trkpt lat="44.6372" lon="-0.22033">
        <ele>60.7</ele>
        <time>2017-01-26T14:41:48Z</time>
      </trkpt>
      <trkpt lat="44.63738" lon="-0.22049">
        <ele>61.18</ele>
        <time>2017-01-26T14:42:06Z</time>
      </trkpt>
      <trkpt lat="44.63754" lon="-0.22064">
        <ele>61.66</ele>
        <time>2017-01-26T14:42:22Z</time>
      </trkpt>
      <trkpt lat="44.6377" lon="-0.22079">
        <ele>62.14</ele>
        <time>2017-01-26T14:42:37Z</time>
      </trkpt>
      <trkpt lat="44.63789" lon="-0.22091">
        <ele>62.14</ele>
        <time>2017-01-26T14:42:53Z</time>
      </trkpt>
      <trkpt lat="44.63808" lon="-0.22084">
        <ele>63.1</ele>
        <time>2017-01-26T14:43:10Z</time>
      </trkpt>
      <trkpt lat="44.63824" lon="-0.22073">
        <ele>63.1</ele>
        <time>2017-01-26T14:43:27Z</time>
      </trkpt>
      <trkpt lat="44.63823" lon="-0.22073">
        <ele>68.39</ele>
        <time>2017-01-26T14:43:33Z</time>
      </trkpt>
      <trkpt lat="44.63823" lon="-0.22072">
        <ele>64.07</ele>
        <time>2017-01-26T14:43:34Z</time>
      </trkpt>
      <trkpt lat="44.63823" lon="-0.22073">
        <ele>60.7</ele>
        <time>2017-01-26T14:43:36Z</time>
      </trkpt>
      <trkpt lat="44.63823" lon="-0.22072">
        <ele>65.51</ele>
        <time>2017-01-26T14:43:38Z</time>
      </trkpt>
      <trkpt lat="44.63831" lon="-0.22064">
        <ele>64.07</ele>
        <time>2017-01-26T14:43:49Z</time>
      </trkpt>
      <trkpt lat="44.63845" lon="-0.22054">
        <ele>59.26</ele>
        <time>2017-01-26T14:44:01Z</time>
      </trkpt>
      <trkpt lat="44.63846" lon="-0.22053">
        <ele>69.35</ele>
        <time>2017-01-26T14:44:02Z</time>
      </trkpt>
      <trkpt lat="44.63847" lon="-0.22053">
        <ele>65.03</ele>
        <time>2017-01-26T14:44:03Z</time>
      </trkpt>
      <trkpt lat="44.63864" lon="-0.2204">
        <ele>65.51</ele>
        <time>2017-01-26T14:44:19Z</time>
      </trkpt>
      <trkpt lat="44.63875" lon="-0.22031">
        <ele>65.51</ele>
        <time>2017-01-26T14:44:33Z</time>
      </trkpt>
      <trkpt lat="44.63892" lon="-0.22017">
        <ele>66.95</ele>
        <time>2017-01-26T14:44:49Z</time>
      </trkpt>
      <trkpt lat="44.63906" lon="-0.22006">
        <ele>66.47</ele>
        <time>2017-01-26T14:45:03Z</time>
      </trkpt>
      <trkpt lat="44.63924" lon="-0.21991">
        <ele>69.35</ele>
        <time>2017-01-26T14:45:20Z</time>
      </trkpt>
      <trkpt lat="44.63939" lon="-0.21976">
        <ele>70.31</ele>
        <time>2017-01-26T14:45:36Z</time>
      </trkpt>
      <trkpt lat="44.63952" lon="-0.21973">
        <ele>70.31</ele>
        <time>2017-01-26T14:45:49Z</time>
      </trkpt>
      <trkpt lat="44.63954" lon="-0.21977">
        <ele>69.83</ele>
        <time>2017-01-26T14:45:52Z</time>
      </trkpt>
      <trkpt lat="44.63956" lon="-0.21983">
        <ele>69.35</ele>
        <time>2017-01-26T14:45:56Z</time>
      </trkpt>
      <trkpt lat="44.63957" lon="-0.21987">
        <ele>68.87</ele>
        <time>2017-01-26T14:45:58Z</time>
      </trkpt>
      <trkpt lat="44.63963" lon="-0.2201">
        <ele>66.47</ele>
        <time>2017-01-26T14:46:13Z</time>
      </trkpt>
      <trkpt lat="44.63967" lon="-0.22025">
        <ele>65.03</ele>
        <time>2017-01-26T14:46:27Z</time>
      </trkpt>
      <trkpt lat="44.63967" lon="-0.22026">
        <ele>65.03</ele>
        <time>2017-01-26T14:46:28Z</time>
      </trkpt>
      <trkpt lat="44.6397" lon="-0.22043">
        <ele>64.07</ele>
        <time>2017-01-26T14:46:39Z</time>
      </trkpt>
      <trkpt lat="44.6398" lon="-0.22043">
        <ele>65.03</ele>
        <time>2017-01-26T14:46:55Z</time>
      </trkpt>
      <trkpt lat="44.63984" lon="-0.22038">
        <ele>65.03</ele>
        <time>2017-01-26T14:47:12Z</time>
      </trkpt>
      <trkpt lat="44.63987" lon="-0.22037">
        <ele>65.03</ele>
        <time>2017-01-26T14:47:15Z</time>
      </trkpt>
      <trkpt lat="44.64003" lon="-0.22028">
        <ele>65.51</ele>
        <time>2017-01-26T14:47:31Z</time>
      </trkpt>
      <trkpt lat="44.64013" lon="-0.2202">
        <ele>65.99</ele>
        <time>2017-01-26T14:47:42Z</time>
      </trkpt>
      <trkpt lat="44.64028" lon="-0.22011">
        <ele>66.47</ele>
        <time>2017-01-26T14:47:56Z</time>
      </trkpt>
      <trkpt lat="44.64045" lon="-0.22">
        <ele>66.95</ele>
        <time>2017-01-26T14:48:13Z</time>
      </trkpt>
      <trkpt lat="44.64055" lon="-0.21992">
        <ele>66.95</ele>
        <time>2017-01-26T14:48:24Z</time>
      </trkpt>
      <trkpt lat="44.64063" lon="-0.21986">
        <ele>67.43</ele>
        <time>2017-01-26T14:48:33Z</time>
      </trkpt>
      <trkpt lat="44.64076" lon="-0.21974">
        <ele>67.91</ele>
        <time>2017-01-26T14:48:50Z</time>
      </trkpt>
      <trkpt lat="44.64082" lon="-0.2197">
        <ele>67.91</ele>
        <time>2017-01-26T14:49:04Z</time>
      </trkpt>
      <trkpt lat="44.64084" lon="-0.21965">
        <ele>67.91</ele>
        <time>2017-01-26T14:49:20Z</time>
      </trkpt>
      <trkpt lat="44.64093" lon="-0.21958">
        <ele>68.39</ele>
        <time>2017-01-26T14:49:33Z</time>
      </trkpt>
      <trkpt lat="44.64101" lon="-0.21954">
        <ele>68.39</ele>
        <time>2017-01-26T14:49:42Z</time>
      </trkpt>
      <trkpt lat="44.64108" lon="-0.2195">
        <ele>68.87</ele>
        <time>2017-01-26T14:49:49Z</time>
      </trkpt>
      <trkpt lat="44.64124" lon="-0.21938">
        <ele>69.35</ele>
        <time>2017-01-26T14:50:05Z</time>
      </trkpt>
      <trkpt lat="44.64126" lon="-0.21937">
        <ele>69.35</ele>
        <time>2017-01-26T14:50:08Z</time>
      </trkpt>
      <trkpt lat="44.64128" lon="-0.21932">
        <ele>69.35</ele>
        <time>2017-01-26T14:50:11Z</time>
      </trkpt>
      <trkpt lat="44.64129" lon="-0.21927">
        <ele>73.68</ele>
        <time>2017-01-26T14:50:15Z</time>
      </trkpt>
      <trkpt lat="44.64129" lon="-0.21926">
        <ele>69.83</ele>
        <time>2017-01-26T14:50:16Z</time>
      </trkpt>
      <trkpt lat="44.64131" lon="-0.21921">
        <ele>69.83</ele>
        <time>2017-01-26T14:50:26Z</time>
      </trkpt>
      <trkpt lat="44.64134" lon="-0.21895">
        <ele>70.31</ele>
        <time>2017-01-26T14:50:42Z</time>
      </trkpt>
      <trkpt lat="44.64139" lon="-0.21879">
        <ele>69.83</ele>
        <time>2017-01-26T14:50:57Z</time>
      </trkpt>
      <trkpt lat="44.64141" lon="-0.21878">
        <ele>70.79</ele>
        <time>2017-01-26T14:51:03Z</time>
      </trkpt>
      <trkpt lat="44.64148" lon="-0.21859">
        <ele>70.79</ele>
        <time>2017-01-26T14:51:18Z</time>
      </trkpt>
      <trkpt lat="44.64153" lon="-0.21841">
        <ele>72.24</ele>
        <time>2017-01-26T14:51:34Z</time>
      </trkpt>
      <trkpt lat="44.64154" lon="-0.21839">
        <ele>71.76</ele>
        <time>2017-01-26T14:51:42Z</time>
      </trkpt>
      <trkpt lat="44.64155" lon="-0.21833">
        <ele>72.24</ele>
        <time>2017-01-26T14:51:47Z</time>
      </trkpt>
      <trkpt lat="44.6416" lon="-0.21814">
        <ele>72.72</ele>
        <time>2017-01-26T14:52:03Z</time>
      </trkpt>
      <trkpt lat="44.64165" lon="-0.21797">
        <ele>76.56</ele>
        <time>2017-01-26T14:52:17Z</time>
      </trkpt>
      <trkpt lat="44.64165" lon="-0.21795">
        <ele>72.72</ele>
        <time>2017-01-26T14:52:18Z</time>
      </trkpt>
      <trkpt lat="44.64167" lon="-0.21792">
        <ele>73.68</ele>
        <time>2017-01-26T14:52:21Z</time>
      </trkpt>
      <trkpt lat="44.64173" lon="-0.21774">
        <ele>75.12</ele>
        <time>2017-01-26T14:52:37Z</time>
      </trkpt>
      <trkpt lat="44.64176" lon="-0.21764">
        <ele>75.12</ele>
        <time>2017-01-26T14:52:51Z</time>
      </trkpt>
      <trkpt lat="44.64176" lon="-0.2176">
        <ele>75.12</ele>
        <time>2017-01-26T14:52:54Z</time>
      </trkpt>
      <trkpt lat="44.64175" lon="-0.21735">
        <ele>75.6</ele>
        <time>2017-01-26T14:53:11Z</time>
      </trkpt>
      <trkpt lat="44.64177" lon="-0.21711">
        <ele>76.08</ele>
        <time>2017-01-26T14:53:28Z</time>
      </trkpt>
      <trkpt lat="44.64177" lon="-0.21714">
        <ele>76.56</ele>
        <time>2017-01-26T14:53:38Z</time>
      </trkpt>
      <trkpt lat="44.64177" lon="-0.21725">
        <ele>76.08</ele>
        <time>2017-01-26T14:53:45Z</time>
      </trkpt>
      <trkpt lat="44.64174" lon="-0.21747">
        <ele>75.6</ele>
        <time>2017-01-26T14:53:59Z</time>
      </trkpt>
      <trkpt lat="44.64173" lon="-0.21754">
        <ele>75.12</ele>
        <time>2017-01-26T14:54:03Z</time>
      </trkpt>
      <trkpt lat="44.64169" lon="-0.21767">
        <ele>75.12</ele>
        <time>2017-01-26T14:54:13Z</time>
      </trkpt>
      <trkpt lat="44.64167" lon="-0.21758">
        <ele>74.64</ele>
        <time>2017-01-26T14:54:20Z</time>
      </trkpt>
      <trkpt lat="44.64169" lon="-0.2174">
        <ele>75.6</ele>
        <time>2017-01-26T14:54:34Z</time>
      </trkpt>
      <trkpt lat="44.64165" lon="-0.21717">
        <ele>77.04</ele>
        <time>2017-01-26T14:54:51Z</time>
      </trkpt>
      <trkpt lat="44.64165" lon="-0.21692">
        <ele>78.48</ele>
        <time>2017-01-26T14:55:08Z</time>
      </trkpt>
      <trkpt lat="44.64159" lon="-0.21672">
        <ele>79.45</ele>
        <time>2017-01-26T14:55:25Z</time>
      </trkpt>
      <trkpt lat="44.64153" lon="-0.21649">
        <ele>81.37</ele>
        <time>2017-01-26T14:55:43Z</time>
      </trkpt>
      <trkpt lat="44.64151" lon="-0.21633">
        <ele>83.29</ele>
        <time>2017-01-26T14:56:01Z</time>
      </trkpt>
      <trkpt lat="44.64146" lon="-0.21618">
        <ele>84.73</ele>
        <time>2017-01-26T14:56:17Z</time>
      </trkpt>
      <trkpt lat="44.64143" lon="-0.21606">
        <ele>86.18</ele>
        <time>2017-01-26T14:56:31Z</time>
      </trkpt>
      <trkpt lat="44.64138" lon="-0.21591">
        <ele>87.62</ele>
        <time>2017-01-26T14:56:45Z</time>
      </trkpt>
      <trkpt lat="44.64137" lon="-0.21585">
        <ele>88.1</ele>
        <time>2017-01-26T14:56:58Z</time>
      </trkpt>
      <trkpt lat="44.64132" lon="-0.21576">
        <ele>88.58</ele>
        <time>2017-01-26T14:57:14Z</time>
      </trkpt>
      <trkpt lat="44.64119" lon="-0.21577">
        <ele>89.06</ele>
        <time>2017-01-26T14:57:28Z</time>
      </trkpt>
      <trkpt lat="44.64108" lon="-0.21572">
        <ele>89.54</ele>
        <time>2017-01-26T14:57:44Z</time>
      </trkpt>
      <trkpt lat="44.64105" lon="-0.21563">
        <ele>89.54</ele>
        <time>2017-01-26T14:57:57Z</time>
      </trkpt>
      <trkpt lat="44.64099" lon="-0.21547">
        <ele>90.98</ele>
        <time>2017-01-26T14:58:09Z</time>
      </trkpt>
      <trkpt lat="44.64093" lon="-0.21527">
        <ele>93.39</ele>
        <time>2017-01-26T14:58:26Z</time>
      </trkpt>
      <trkpt lat="44.64093" lon="-0.21526">
        <ele>92.9</ele>
        <time>2017-01-26T14:58:27Z</time>
      </trkpt>
      <trkpt lat="44.6409" lon="-0.21519">
        <ele>93.39</ele>
        <time>2017-01-26T14:58:32Z</time>
      </trkpt>
      <trkpt lat="44.64084" lon="-0.21502">
        <ele>96.27</ele>
        <time>2017-01-26T14:58:48Z</time>
      </trkpt>
      <trkpt lat="44.64087" lon="-0.21499">
        <ele>96.75</ele>
        <time>2017-01-26T14:58:53Z</time>
      </trkpt>
      <trkpt lat="44.64088" lon="-0.21498">
        <ele>96.75</ele>
        <time>2017-01-26T14:58:55Z</time>
      </trkpt>
      <trkpt lat="44.64093" lon="-0.21493">
        <ele>96.75</ele>
        <time>2017-01-26T14:59:02Z</time>
      </trkpt>
      <trkpt lat="44.64105" lon="-0.2148">
        <ele>97.23</ele>
        <time>2017-01-26T14:59:18Z</time>
      </trkpt>
      <trkpt lat="44.64116" lon="-0.2147">
        <ele>97.71</ele>
        <time>2017-01-26T14:59:30Z</time>
      </trkpt>
      <trkpt lat="44.64139" lon="-0.2147">
        <ele>95.79</ele>
        <time>2017-01-26T14:59:51Z</time>
      </trkpt>
      <trkpt lat="44.64142" lon="-0.21471">
        <ele>95.31</ele>
        <time>2017-01-26T14:59:54Z</time>
      </trkpt>
      <trkpt lat="44.64148" lon="-0.21474">
        <ele>94.35</ele>
        <time>2017-01-26T15:00:00Z</time>
      </trkpt>
      <trkpt lat="44.64151" lon="-0.21476">
        <ele>93.87</ele>
        <time>2017-01-26T15:00:04Z</time>
      </trkpt>
      <trkpt lat="44.64163" lon="-0.21488">
        <ele>91.94</ele>
        <time>2017-01-26T15:00:18Z</time>
      </trkpt>
      <trkpt lat="44.64171" lon="-0.21504">
        <ele>90.02</ele>
        <time>2017-01-26T15:00:32Z</time>
      </trkpt>
      <trkpt lat="44.64182" lon="-0.21517">
        <ele>88.1</ele>
        <time>2017-01-26T15:00:48Z</time>
      </trkpt>
      <trkpt lat="44.64202" lon="-0.21517">
        <ele>88.58</ele>
        <time>2017-01-26T15:01:04Z</time>
      </trkpt>
      <trkpt lat="44.64214" lon="-0.21516">
        <ele>90.02</ele>
        <time>2017-01-26T15:01:18Z</time>
      </trkpt>
      <trkpt lat="44.64231" lon="-0.21511">
        <ele>91.46</ele>
        <time>2017-01-26T15:01:33Z</time>
      </trkpt>
      <trkpt lat="44.64233" lon="-0.2151">
        <ele>91.94</ele>
        <time>2017-01-26T15:01:36Z</time>
      </trkpt>
      <trkpt lat="44.64252" lon="-0.21507">
        <ele>92.9</ele>
        <time>2017-01-26T15:01:53Z</time>
      </trkpt>
      <trkpt lat="44.64269" lon="-0.21503">
        <ele>92.42</ele>
        <time>2017-01-26T15:02:08Z</time>
      </trkpt>
      <trkpt lat="44.6428" lon="-0.21499">
        <ele>93.39</ele>
        <time>2017-01-26T15:02:19Z</time>
      </trkpt>
      <trkpt lat="44.64289" lon="-0.21494">
        <ele>93.87</ele>
        <time>2017-01-26T15:02:29Z</time>
      </trkpt>
      <trkpt lat="44.64305" lon="-0.21486">
        <ele>95.79</ele>
        <time>2017-01-26T15:02:46Z</time>
      </trkpt>
      <trkpt lat="44.64317" lon="-0.21479">
        <ele>96.75</ele>
        <time>2017-01-26T15:03:01Z</time>
      </trkpt>
      <trkpt lat="44.64331" lon="-0.21471">
        <ele>98.19</ele>
        <time>2017-01-26T15:03:17Z</time>
      </trkpt>
      <trkpt lat="44.64343" lon="-0.21464">
        <ele>99.15</ele>
        <time>2017-01-26T15:03:30Z</time>
      </trkpt>
      <trkpt lat="44.64347" lon="-0.21459">
        <ele>99.15</ele>
        <time>2017-01-26T15:03:35Z</time>
      </trkpt>
      <trkpt lat="44.64347" lon="-0.21452">
        <ele>99.15</ele>
        <time>2017-01-26T15:03:40Z</time>
      </trkpt>
      <trkpt lat="44.64348" lon="-0.21438">
        <ele>102.04</ele>
        <time>2017-01-26T15:03:51Z</time>
      </trkpt>
      <trkpt lat="44.64348" lon="-0.21407">
        <ele>101.08</ele>
        <time>2017-01-26T15:04:10Z</time>
      </trkpt>
      <trkpt lat="44.64349" lon="-0.21389">
        <ele>101.56</ele>
        <time>2017-01-26T15:04:24Z</time>
      </trkpt>
      <trkpt lat="44.64349" lon="-0.21388">
        <ele>101.56</ele>
        <time>2017-01-26T15:04:25Z</time>
      </trkpt>
      <trkpt lat="44.64351" lon="-0.21381">
        <ele>101.56</ele>
        <time>2017-01-26T15:04:31Z</time>
      </trkpt>
      <trkpt lat="44.64357" lon="-0.21376">
        <ele>102.04</ele>
        <time>2017-01-26T15:04:40Z</time>
      </trkpt>
      <trkpt lat="44.64362" lon="-0.21381">
        <ele>102.04</ele>
        <time>2017-01-26T15:04:46Z</time>
      </trkpt>
      <trkpt lat="44.64369" lon="-0.21377">
        <ele>102.52</ele>
        <time>2017-01-26T15:04:54Z</time>
      </trkpt>
      <trkpt lat="44.64382" lon="-0.21379">
        <ele>102.04</ele>
        <time>2017-01-26T15:05:10Z</time>
      </trkpt>
      <trkpt lat="44.64388" lon="-0.21372">
        <ele>101.08</ele>
        <time>2017-01-26T15:05:26Z</time>
      </trkpt>
      <trkpt lat="44.6439" lon="-0.21367">
        <ele>101.56</ele>
        <time>2017-01-26T15:05:47Z</time>
      </trkpt>
      <trkpt lat="44.6439" lon="-0.21366">
        <ele>101.56</ele>
        <time>2017-01-26T15:05:48Z</time>
      </trkpt>
      <trkpt lat="44.64395" lon="-0.21338">
        <ele>99.63</ele>
        <time>2017-01-26T15:06:07Z</time>
      </trkpt>
      <trkpt lat="44.64398" lon="-0.21328">
        <ele>98.19</ele>
        <time>2017-01-26T15:06:14Z</time>
      </trkpt>
      <trkpt lat="44.64397" lon="-0.21318">
        <ele>97.23</ele>
        <time>2017-01-26T15:06:29Z</time>
      </trkpt>
      <trkpt lat="44.64397" lon="-0.21313">
        <ele>96.27</ele>
        <time>2017-01-26T15:07:02Z</time>
      </trkpt>
      <trkpt lat="44.64395" lon="-0.21296">
        <ele>92.9</ele>
        <time>2017-01-26T15:07:18Z</time>
      </trkpt>
      <trkpt lat="44.64396" lon="-0.21287">
        <ele>90.98</ele>
        <time>2017-01-26T15:07:35Z</time>
      </trkpt>
      <trkpt lat="44.64391" lon="-0.21266">
        <ele>87.62</ele>
        <time>2017-01-26T15:07:48Z</time>
      </trkpt>
      <trkpt lat="44.6439" lon="-0.21265">
        <ele>87.62</ele>
        <time>2017-01-26T15:07:49Z</time>
      </trkpt>
      <trkpt lat="44.64387" lon="-0.21243">
        <ele>85.69</ele>
        <time>2017-01-26T15:08:05Z</time>
      </trkpt>
      <trkpt lat="44.64394" lon="-0.21228">
        <ele>87.62</ele>
        <time>2017-01-26T15:08:19Z</time>
      </trkpt>
      <trkpt lat="44.644" lon="-0.21225">
        <ele>89.06</ele>
        <time>2017-01-26T15:08:32Z</time>
      </trkpt>
      <trkpt lat="44.64406" lon="-0.21223">
        <ele>90.5</ele>
        <time>2017-01-26T15:08:48Z</time>
      </trkpt>
      <trkpt lat="44.64408" lon="-0.21222">
        <ele>90.98</ele>
        <time>2017-01-26T15:08:51Z</time>
      </trkpt>
      <trkpt lat="44.64422" lon="-0.21217">
        <ele>93.39</ele>
        <time>2017-01-26T15:09:05Z</time>
      </trkpt>
      <trkpt lat="44.64422" lon="-0.21217">
        <ele>93.39</ele>
        <time>2017-01-26T15:09:22Z</time>
      </trkpt>
      <trkpt lat="44.64427" lon="-0.21213">
        <ele>93.87</ele>
        <time>2017-01-26T15:09:35Z</time>
      </trkpt>
      <trkpt lat="44.64435" lon="-0.2121">
        <ele>96.27</ele>
        <time>2017-01-26T15:09:47Z</time>
      </trkpt>
      <trkpt lat="44.64438" lon="-0.21209">
        <ele>97.23</ele>
        <time>2017-01-26T15:09:59Z</time>
      </trkpt>
      <trkpt lat="44.64443" lon="-0.21209">
        <ele>98.19</ele>
        <time>2017-01-26T15:10:10Z</time>
      </trkpt>
      <trkpt lat="44.64447" lon="-0.21214">
        <ele>98.67</ele>
        <time>2017-01-26T15:10:26Z</time>
      </trkpt>
      <trkpt lat="44.64449" lon="-0.21209">
        <ele>98.67</ele>
        <time>2017-01-26T15:10:39Z</time>
      </trkpt>
      <trkpt lat="44.6445" lon="-0.21208">
        <ele>99.15</ele>
        <time>2017-01-26T15:11:00Z</time>
      </trkpt>
      <trkpt lat="44.64452" lon="-0.21204">
        <ele>100.11</ele>
        <time>2017-01-26T15:11:18Z</time>
      </trkpt>
      <trkpt lat="44.64452" lon="-0.21203">
        <ele>100.11</ele>
        <time>2017-01-26T15:11:19Z</time>
      </trkpt>
      <trkpt lat="44.64453" lon="-0.2119">
        <ele>99.15</ele>
        <time>2017-01-26T15:11:35Z</time>
      </trkpt>
      <trkpt lat="44.64453" lon="-0.21187">
        <ele>98.67</ele>
        <time>2017-01-26T15:11:56Z</time>
      </trkpt>
      <trkpt lat="44.64452" lon="-0.21183">
        <ele>98.67</ele>
        <time>2017-01-26T15:12:05Z</time>
      </trkpt>
      <trkpt lat="44.64452" lon="-0.21178">
        <ele>99.15</ele>
        <time>2017-01-26T15:12:10Z</time>
      </trkpt>
      <trkpt lat="44.64451" lon="-0.21176">
        <ele>97.71</ele>
        <time>2017-01-26T15:12:19Z</time>
      </trkpt>
      <trkpt lat="44.64446" lon="-0.21152">
        <ele>96.75</ele>
        <time>2017-01-26T15:12:36Z</time>
      </trkpt>
      <trkpt lat="44.64444" lon="-0.21134">
        <ele>94.35</ele>
        <time>2017-01-26T15:12:49Z</time>
      </trkpt>
      <trkpt lat="44.64445" lon="-0.21122">
        <ele>93.87</ele>
        <time>2017-01-26T15:13:00Z</time>
      </trkpt>
      <trkpt lat="44.64445" lon="-0.21107">
        <ele>90.5</ele>
        <time>2017-01-26T15:13:12Z</time>
      </trkpt>
      <trkpt lat="44.64444" lon="-0.21105">
        <ele>90.5</ele>
        <time>2017-01-26T15:13:13Z</time>
      </trkpt>
      <trkpt lat="44.64444" lon="-0.21081">
        <ele>88.1</ele>
        <time>2017-01-26T15:13:30Z</time>
      </trkpt>
      <trkpt lat="44.64444" lon="-0.21078">
        <ele>87.14</ele>
        <time>2017-01-26T15:13:32Z</time>
      </trkpt>
      <trkpt lat="44.64444" lon="-0.21062">
        <ele>83.29</ele>
        <time>2017-01-26T15:13:43Z</time>
      </trkpt>
      <trkpt lat="44.64444" lon="-0.21061">
        <ele>87.14</ele>
        <time>2017-01-26T15:13:44Z</time>
      </trkpt>
      <trkpt lat="44.64444" lon="-0.21059">
        <ele>83.77</ele>
        <time>2017-01-26T15:13:45Z</time>
      </trkpt>
      <trkpt lat="44.64444" lon="-0.21057">
        <ele>84.25</ele>
        <time>2017-01-26T15:13:47Z</time>
      </trkpt>
      <trkpt lat="44.64444" lon="-0.21042">
        <ele>82.33</ele>
        <time>2017-01-26T15:13:57Z</time>
      </trkpt>
      <trkpt lat="44.64443" lon="-0.2103">
        <ele>80.89</ele>
        <time>2017-01-26T15:14:05Z</time>
      </trkpt>
      <trkpt lat="44.64443" lon="-0.21013">
        <ele>79.93</ele>
        <time>2017-01-26T15:14:15Z</time>
      </trkpt>
      <trkpt lat="44.64442" lon="-0.21005">
        <ele>79.45</ele>
        <time>2017-01-26T15:14:21Z</time>
      </trkpt>
      <trkpt lat="44.64445" lon="-0.21">
        <ele>78.97</ele>
        <time>2017-01-26T15:14:26Z</time>
      </trkpt>
      <trkpt lat="44.64453" lon="-0.20998">
        <ele>79.93</ele>
        <time>2017-01-26T15:14:41Z</time>
      </trkpt>
      <trkpt lat="44.64471" lon="-0.20991">
        <ele>81.85</ele>
        <time>2017-01-26T15:14:57Z</time>
      </trkpt>
      <trkpt lat="44.64481" lon="-0.20986">
        <ele>83.77</ele>
        <time>2017-01-26T15:15:11Z</time>
      </trkpt>
      <trkpt lat="44.64482" lon="-0.20986">
        <ele>83.77</ele>
        <time>2017-01-26T15:15:24Z</time>
      </trkpt>
      <trkpt lat="44.64486" lon="-0.20989">
        <ele>85.21</ele>
        <time>2017-01-26T15:15:42Z</time>
      </trkpt>
      <trkpt lat="44.64494" lon="-0.21001">
        <ele>86.18</ele>
        <time>2017-01-26T15:15:55Z</time>
      </trkpt>
      <trkpt lat="44.64494" lon="-0.21">
        <ele>86.18</ele>
        <time>2017-01-26T15:16:00Z</time>
      </trkpt>
      <trkpt lat="44.64489" lon="-0.20994">
        <ele>84.25</ele>
        <time>2017-01-26T15:16:06Z</time>
      </trkpt>
      <trkpt lat="44.64488" lon="-0.20986">
        <ele>84.25</ele>
        <time>2017-01-26T15:16:16Z</time>
      </trkpt>
      <trkpt lat="44.64487" lon="-0.20978">
        <ele>83.77</ele>
        <time>2017-01-26T15:16:21Z</time>
      </trkpt>
      <trkpt lat="44.64487" lon="-0.20965">
        <ele>82.33</ele>
        <time>2017-01-26T15:16:30Z</time>
      </trkpt>
      <trkpt lat="44.64481" lon="-0.20932">
        <ele>79.93</ele>
        <time>2017-01-26T15:16:51Z</time>
      </trkpt>
      <trkpt lat="44.64477" lon="-0.2091">
        <ele>77.04</ele>
        <time>2017-01-26T15:17:04Z</time>
      </trkpt>
      <trkpt lat="44.64476" lon="-0.20908">
        <ele>77.04</ele>
        <time>2017-01-26T15:17:05Z</time>
      </trkpt>
      <trkpt lat="44.64484" lon="-0.20881">
        <ele>78</ele>
        <time>2017-01-26T15:17:24Z</time>
      </trkpt>
      <trkpt lat="44.645" lon="-0.20859">
        <ele>78.48</ele>
        <time>2017-01-26T15:17:42Z</time>
      </trkpt>
      <trkpt lat="44.64497" lon="-0.2083">
        <ele>78.97</ele>
        <time>2017-01-26T15:17:59Z</time>
      </trkpt>
      <trkpt lat="44.64495" lon="-0.20814">
        <ele>79.45</ele>
        <time>2017-01-26T15:18:16Z</time>
      </trkpt>
      <trkpt lat="44.64495" lon="-0.20818">
        <ele>79.45</ele>
        <time>2017-01-26T15:18:33Z</time>
      </trkpt>
      <trkpt lat="44.645" lon="-0.20851">
        <ele>78.97</ele>
        <time>2017-01-26T15:18:52Z</time>
      </trkpt>
      <trkpt lat="44.64504" lon="-0.20868">
        <ele>78.97</ele>
        <time>2017-01-26T15:19:04Z</time>
      </trkpt>
      <trkpt lat="44.64506" lon="-0.20865">
        <ele>79.45</ele>
        <time>2017-01-26T15:19:15Z</time>
      </trkpt>
      <trkpt lat="44.64509" lon="-0.20859">
        <ele>80.41</ele>
        <time>2017-01-26T15:19:27Z</time>
      </trkpt>
      <trkpt lat="44.64504" lon="-0.20837">
        <ele>80.41</ele>
        <time>2017-01-26T15:19:44Z</time>
      </trkpt>
      <trkpt lat="44.64505" lon="-0.20818">
        <ele>81.37</ele>
        <time>2017-01-26T15:19:59Z</time>
      </trkpt>
      <trkpt lat="44.64507" lon="-0.20817">
        <ele>81.37</ele>
        <time>2017-01-26T15:20:01Z</time>
      </trkpt>
      <trkpt lat="44.64522" lon="-0.2081">
        <ele>81.37</ele>
        <time>2017-01-26T15:20:15Z</time>
      </trkpt>
      <trkpt lat="44.64534" lon="-0.20801">
        <ele>82.33</ele>
        <time>2017-01-26T15:20:27Z</time>
      </trkpt>
      <trkpt lat="44.64538" lon="-0.20798">
        <ele>82.81</ele>
        <time>2017-01-26T15:20:31Z</time>
      </trkpt>
      <trkpt lat="44.64556" lon="-0.20791">
        <ele>84.25</ele>
        <time>2017-01-26T15:20:48Z</time>
      </trkpt>
      <trkpt lat="44.64573" lon="-0.20781">
        <ele>85.69</ele>
        <time>2017-01-26T15:21:05Z</time>
      </trkpt>
      <trkpt lat="44.64583" lon="-0.20775">
        <ele>88.1</ele>
        <time>2017-01-26T15:21:18Z</time>
      </trkpt>
      <trkpt lat="44.64591" lon="-0.20771">
        <ele>88.58</ele>
        <time>2017-01-26T15:21:32Z</time>
      </trkpt>
      <trkpt lat="44.64599" lon="-0.20766">
        <ele>90.5</ele>
        <time>2017-01-26T15:21:46Z</time>
      </trkpt>
      <trkpt lat="44.64602" lon="-0.20765">
        <ele>90.98</ele>
        <time>2017-01-26T15:22:03Z</time>
      </trkpt>
      <trkpt lat="44.64603" lon="-0.20773">
        <ele>91.46</ele>
        <time>2017-01-26T15:22:16Z</time>
      </trkpt>
      <trkpt lat="44.64604" lon="-0.20775">
        <ele>91.46</ele>
        <time>2017-01-26T15:22:17Z</time>
      </trkpt>
      <trkpt lat="44.64606" lon="-0.2078">
        <ele>91.94</ele>
        <time>2017-01-26T15:22:21Z</time>
      </trkpt>
      <trkpt lat="44.64607" lon="-0.20792">
        <ele>91.94</ele>
        <time>2017-01-26T15:22:30Z</time>
      </trkpt>
      <trkpt lat="44.64607" lon="-0.20808">
        <ele>91.94</ele>
        <time>2017-01-26T15:22:44Z</time>
      </trkpt>
      <trkpt lat="44.64613" lon="-0.20818">
        <ele>92.42</ele>
        <time>2017-01-26T15:23:00Z</time>
      </trkpt>
      <trkpt lat="44.64615" lon="-0.20829">
        <ele>93.87</ele>
        <time>2017-01-26T15:23:17Z</time>
      </trkpt>
      <trkpt lat="44.64616" lon="-0.20832">
        <ele>93.39</ele>
        <time>2017-01-26T15:23:35Z</time>
      </trkpt>
      <trkpt lat="44.64618" lon="-0.20836">
        <ele>94.35</ele>
        <time>2017-01-26T15:23:39Z</time>
      </trkpt>
      <trkpt lat="44.64624" lon="-0.20846">
        <ele>94.83</ele>
        <time>2017-01-26T15:23:52Z</time>
      </trkpt>
      <trkpt lat="44.64624" lon="-0.20847">
        <ele>94.83</ele>
        <time>2017-01-26T15:24:07Z</time>
      </trkpt>
      <trkpt lat="44.64622" lon="-0.20842">
        <ele>93.87</ele>
        <time>2017-01-26T15:24:19Z</time>
      </trkpt>
      <trkpt lat="44.64622" lon="-0.20841">
        <ele>93.87</ele>
        <time>2017-01-26T15:24:22Z</time>
      </trkpt>
      <trkpt lat="44.64616" lon="-0.20824">
        <ele>92.9</ele>
        <time>2017-01-26T15:24:35Z</time>
      </trkpt>
      <trkpt lat="44.64608" lon="-0.20817">
        <ele>90.98</ele>
        <time>2017-01-26T15:24:49Z</time>
      </trkpt>
      <trkpt lat="44.64607" lon="-0.2082">
        <ele>90.5</ele>
        <time>2017-01-26T15:24:52Z</time>
      </trkpt>
      <trkpt lat="44.64609" lon="-0.20832">
        <ele>90.5</ele>
        <time>2017-01-26T15:25:05Z</time>
      </trkpt>
      <trkpt lat="44.64609" lon="-0.20833">
        <ele>90.5</ele>
        <time>2017-01-26T15:25:06Z</time>
      </trkpt>
      <trkpt lat="44.64612" lon="-0.20837">
        <ele>90.98</ele>
        <time>2017-01-26T15:25:11Z</time>
      </trkpt>
      <trkpt lat="44.64615" lon="-0.20843">
        <ele>91.46</ele>
        <time>2017-01-26T15:25:16Z</time>
      </trkpt>
      <trkpt lat="44.64617" lon="-0.20845">
        <ele>91.94</ele>
        <time>2017-01-26T15:25:19Z</time>
      </trkpt>
      <trkpt lat="44.6462" lon="-0.2085">
        <ele>92.42</ele>
        <time>2017-01-26T15:25:33Z</time>
      </trkpt>
      <trkpt lat="44.64623" lon="-0.20861">
        <ele>93.39</ele>
        <time>2017-01-26T15:25:49Z</time>
      </trkpt>
      <trkpt lat="44.64629" lon="-0.20876">
        <ele>94.35</ele>
        <time>2017-01-26T15:26:03Z</time>
      </trkpt>
      <trkpt lat="44.64629" lon="-0.2088">
        <ele>94.83</ele>
        <time>2017-01-26T15:26:20Z</time>
      </trkpt>
      <trkpt lat="44.64632" lon="-0.20884">
        <ele>95.79</ele>
        <time>2017-01-26T15:26:44Z</time>
      </trkpt>
      <trkpt lat="44.64634" lon="-0.20887">
        <ele>95.79</ele>
        <time>2017-01-26T15:26:47Z</time>
      </trkpt>
      <trkpt lat="44.64637" lon="-0.20898">
        <ele>98.67</ele>
        <time>2017-01-26T15:26:56Z</time>
      </trkpt>
      <trkpt lat="44.64637" lon="-0.20899">
        <ele>93.39</ele>
        <time>2017-01-26T15:26:57Z</time>
      </trkpt>
      <trkpt lat="44.64637" lon="-0.209">
        <ele>98.67</ele>
        <time>2017-01-26T15:26:58Z</time>
      </trkpt>
      <trkpt lat="44.6464" lon="-0.20917">
        <ele>97.71</ele>
        <time>2017-01-26T15:27:13Z</time>
      </trkpt>
      <trkpt lat="44.64638" lon="-0.2093">
        <ele>98.67</ele>
        <time>2017-01-26T15:27:28Z</time>
      </trkpt>
      <trkpt lat="44.64638" lon="-0.20931">
        <ele>98.67</ele>
        <time>2017-01-26T15:27:29Z</time>
      </trkpt>
      <trkpt lat="44.64635" lon="-0.20951">
        <ele>99.15</ele>
        <time>2017-01-26T15:27:49Z</time>
      </trkpt>
      <trkpt lat="44.64636" lon="-0.20951">
        <ele>99.15</ele>
        <time>2017-01-26T15:28:04Z</time>
      </trkpt>
      <trkpt lat="44.64635" lon="-0.20957">
        <ele>99.15</ele>
        <time>2017-01-26T15:28:16Z</time>
      </trkpt>
      <trkpt lat="44.64635" lon="-0.20985">
        <ele>100.11</ele>
        <time>2017-01-26T15:28:33Z</time>
      </trkpt>
      <trkpt lat="44.64638" lon="-0.21002">
        <ele>101.08</ele>
        <time>2017-01-26T15:28:45Z</time>
      </trkpt>
      <trkpt lat="44.6464" lon="-0.21019">
        <ele>101.56</ele>
        <time>2017-01-26T15:28:57Z</time>
      </trkpt>
      <trkpt lat="44.64644" lon="-0.21035">
        <ele>102.04</ele>
        <time>2017-01-26T15:29:12Z</time>
      </trkpt>
      <trkpt lat="44.64645" lon="-0.21035">
        <ele>102.04</ele>
        <time>2017-01-26T15:29:29Z</time>
      </trkpt>
      <trkpt lat="44.64656" lon="-0.21029">
        <ele>103.48</ele>
        <time>2017-01-26T15:29:45Z</time>
      </trkpt>
      <trkpt lat="44.6466" lon="-0.21028">
        <ele>100.11</ele>
        <time>2017-01-26T15:29:50Z</time>
      </trkpt>
      <trkpt lat="44.6466" lon="-0.21027">
        <ele>108.29</ele>
        <time>2017-01-26T15:29:51Z</time>
      </trkpt>
      <trkpt lat="44.6466" lon="-0.21027">
        <ele>104.92</ele>
        <time>2017-01-26T15:29:52Z</time>
      </trkpt>
      <trkpt lat="44.64668" lon="-0.21022">
        <ele>105.4</ele>
        <time>2017-01-26T15:30:06Z</time>
      </trkpt>
      <trkpt lat="44.6467" lon="-0.21022">
        <ele>105.4</ele>
        <time>2017-01-26T15:30:10Z</time>
      </trkpt>
      <trkpt lat="44.64681" lon="-0.21015">
        <ele>107.32</ele>
        <time>2017-01-26T15:30:24Z</time>
      </trkpt>
      <trkpt lat="44.64684" lon="-0.21014">
        <ele>106.84</ele>
        <time>2017-01-26T15:30:27Z</time>
      </trkpt>
      <trkpt lat="44.64688" lon="-0.21011">
        <ele>106.84</ele>
        <time>2017-01-26T15:30:32Z</time>
      </trkpt>
      <trkpt lat="44.64691" lon="-0.2101">
        <ele>107.32</ele>
        <time>2017-01-26T15:30:35Z</time>
      </trkpt>
      <trkpt lat="44.64698" lon="-0.21007">
        <ele>108.77</ele>
        <time>2017-01-26T15:30:42Z</time>
      </trkpt>
      <trkpt lat="44.64707" lon="-0.21002">
        <ele>108.77</ele>
        <time>2017-01-26T15:30:55Z</time>
      </trkpt>
      <trkpt lat="44.64708" lon="-0.21002">
        <ele>108.77</ele>
        <time>2017-01-26T15:30:56Z</time>
      </trkpt>
      <trkpt lat="44.64713" lon="-0.21">
        <ele>109.25</ele>
        <time>2017-01-26T15:31:02Z</time>
      </trkpt>
      <trkpt lat="44.6473" lon="-0.20992">
        <ele>111.17</ele>
        <time>2017-01-26T15:31:19Z</time>
      </trkpt>
      <trkpt lat="44.64748" lon="-0.20983">
        <ele>112.13</ele>
        <time>2017-01-26T15:31:37Z</time>
      </trkpt>
      <trkpt lat="44.64757" lon="-0.2098">
        <ele>113.57</ele>
        <time>2017-01-26T15:31:52Z</time>
      </trkpt>
      <trkpt lat="44.64758" lon="-0.20979">
        <ele>113.57</ele>
        <time>2017-01-26T15:31:53Z</time>
      </trkpt>
      <trkpt lat="44.64776" lon="-0.20973">
        <ele>114.53</ele>
        <time>2017-01-26T15:32:10Z</time>
      </trkpt>
      <trkpt lat="44.6478" lon="-0.2097">
        <ele>114.53</ele>
        <time>2017-01-26T15:32:15Z</time>
      </trkpt>
      <trkpt lat="44.64797" lon="-0.20965">
        <ele>114.53</ele>
        <time>2017-01-26T15:32:32Z</time>
      </trkpt>
      <trkpt lat="44.64812" lon="-0.2096">
        <ele>114.53</ele>
        <time>2017-01-26T15:32:48Z</time>
      </trkpt>
      <trkpt lat="44.64818" lon="-0.20962">
        <ele>114.53</ele>
        <time>2017-01-26T15:33:00Z</time>
      </trkpt>
      <trkpt lat="44.64822" lon="-0.20966">
        <ele>114.53</ele>
        <time>2017-01-26T15:33:04Z</time>
      </trkpt>
      <trkpt lat="44.64825" lon="-0.20974">
        <ele>114.53</ele>
        <time>2017-01-26T15:33:10Z</time>
      </trkpt>
      <trkpt lat="44.64835" lon="-0.20993">
        <ele>113.57</ele>
        <time>2017-01-26T15:33:29Z</time>
      </trkpt>
      <trkpt lat="44.64839" lon="-0.20999">
        <ele>112.13</ele>
        <time>2017-01-26T15:33:36Z</time>
      </trkpt>
      <trkpt lat="44.64843" lon="-0.21004">
        <ele>112.13</ele>
        <time>2017-01-26T15:33:49Z</time>
      </trkpt>
      <trkpt lat="44.64843" lon="-0.21003">
        <ele>112.13</ele>
        <time>2017-01-26T15:34:08Z</time>
      </trkpt>
      <trkpt lat="44.64844" lon="-0.21002">
        <ele>111.65</ele>
        <time>2017-01-26T15:34:37Z</time>
      </trkpt>
      <trkpt lat="44.64843" lon="-0.21002">
        <ele>112.13</ele>
        <time>2017-01-26T15:34:54Z</time>
      </trkpt>
      <trkpt lat="44.64842" lon="-0.21002">
        <ele>112.13</ele>
        <time>2017-01-26T15:35:16Z</time>
      </trkpt>
      <trkpt lat="44.64842" lon="-0.21002">
        <ele>111.65</ele>
        <time>2017-01-26T15:35:48Z</time>
      </trkpt>
    </trkseg>
  </trk>
  <trk>
    <name><![CDATA[Itinéraire de 33 Le Bourg, 33420 Camiac-et-Saint-Denis, France à 33 Le Bourg, 33420 Camiac-et-Saint-Denis, France_Itinéraire de 33 Le Bourg, 33420 Camiac-et-Saint-Denis, France à 33 Le Bourg, 33420 Camiac-et-Saint-Denis, France]]></name>
    <desc><![CDATA[This is track no: 1]]></desc>
    <extensions>
      <line xmlns="http://www.topografix.com/GPX/gpx_style/0/2">
        <color>00FF00</color>
        <width>4</width>
      </line>
    </extensions>
    <trkseg>
      <trkpt lat="44.79476" lon="-0.27436">
        <ele>43.7</ele>
      </trkpt>
      <trkpt lat="44.79471" lon="-0.27442">
        <ele>43</ele>
      </trkpt>
      <trkpt lat="44.79471" lon="-0.27468">
        <ele>46.4</ele>
      </trkpt>
      <trkpt lat="44.79472" lon="-0.27486">
        <ele>48</ele>
      </trkpt>
      <trkpt lat="44.79476" lon="-0.27513">
        <ele>49.6</ele>
      </trkpt>
      <trkpt lat="44.7948" lon="-0.27536">
        <ele>50.5</ele>
      </trkpt>
      <trkpt lat="44.7948" lon="-0.27557">
        <ele>51.1</ele>
      </trkpt>
      <trkpt lat="44.79482" lon="-0.27572">
        <ele>51.6</ele>
      </trkpt>
      <trkpt lat="44.79486" lon="-0.27601">
        <ele>52.6</ele>
      </trkpt>
      <trkpt lat="44.79491" lon="-0.27637">
        <ele>53.9</ele>
      </trkpt>
      <trkpt lat="44.79493" lon="-0.27659">
        <ele>54.2</ele>
      </trkpt>
      <trkpt lat="44.79493" lon="-0.27675">
        <ele>54.8</ele>
      </trkpt>
      <trkpt lat="44.79491" lon="-0.27693">
        <ele>55.9</ele>
      </trkpt>
      <trkpt lat="44.79483" lon="-0.27721">
        <ele>56.4</ele>
      </trkpt>
      <trkpt lat="44.79471" lon="-0.27758">
        <ele>57.3</ele>
      </trkpt>
      <trkpt lat="44.79457" lon="-0.27796">
        <ele>58.7</ele>
      </trkpt>
      <trkpt lat="44.79438" lon="-0.27828">
        <ele>59.9</ele>
      </trkpt>
      <trkpt lat="44.79421" lon="-0.27851">
        <ele>60.6</ele>
      </trkpt>
      <trkpt lat="44.79395" lon="-0.27882">
        <ele>60.8</ele>
      </trkpt>
      <trkpt lat="44.79371" lon="-0.27916">
        <ele>60.3</ele>
      </trkpt>
      <trkpt lat="44.79386" lon="-0.27954">
        <ele>61.9</ele>
      </trkpt>
      <trkpt lat="44.79404" lon="-0.28016">
        <ele>63.4</ele>
      </trkpt>
      <trkpt lat="44.79424" lon="-0.28072">
        <ele>64</ele>
      </trkpt>
      <trkpt lat="44.79433" lon="-0.28092">
        <ele>64.6</ele>
      </trkpt>
      <trkpt lat="44.79442" lon="-0.28106">
        <ele>64.9</ele>
      </trkpt>
      <trkpt lat="44.79452" lon="-0.28118">
        <ele>65.2</ele>
      </trkpt>
      <trkpt lat="44.7947" lon="-0.28126">
        <ele>65.4</ele>
      </trkpt>
      <trkpt lat="44.79502" lon="-0.28135">
        <ele>66.2</ele>
      </trkpt>
      <trkpt lat="44.79534" lon="-0.28146">
        <ele>66.8</ele>
      </trkpt>
      <trkpt lat="44.79554" lon="-0.28159">
        <ele>66.1</ele>
      </trkpt>
      <trkpt lat="44.79578" lon="-0.28181">
        <ele>64.5</ele>
      </trkpt>
      <trkpt lat="44.79605" lon="-0.28212">
        <ele>62.9</ele>
      </trkpt>
      <trkpt lat="44.79612" lon="-0.28223">
        <ele>62.1</ele>
      </trkpt>
      <trkpt lat="44.79634" lon="-0.28257">
        <ele>63.5</ele>
      </trkpt>
      <trkpt lat="44.79663" lon="-0.2831">
        <ele>64.5</ele>
      </trkpt>
      <trkpt lat="44.7968" lon="-0.28346">
        <ele>65.8</ele>
      </trkpt>
      <trkpt lat="44.797" lon="-0.28395">
        <ele>67</ele>
      </trkpt>
      <trkpt lat="44.79721" lon="-0.28466">
        <ele>68.9</ele>
      </trkpt>
      <trkpt lat="44.79745" lon="-0.28547">
        <ele>73.4</ele>
      </trkpt>
      <trkpt lat="44.79751" lon="-0.28574">
        <ele>73.7</ele>
      </trkpt>
      <trkpt lat="44.79755" lon="-0.28619">
        <ele>75.2</ele>
      </trkpt>
      <trkpt lat="44.7976" lon="-0.28658">
        <ele>74.8</ele>
      </trkpt>
      <trkpt lat="44.79765" lon="-0.28682">
        <ele>73.9</ele>
      </trkpt>
      <trkpt lat="44.79778" lon="-0.28722">
        <ele>72</ele>
      </trkpt>
      <trkpt lat="44.79806" lon="-0.28803">
        <ele>69.1</ele>
      </trkpt>
      <trkpt lat="44.79834" lon="-0.28877">
        <ele>67.4</ele>
      </trkpt>
      <trkpt lat="44.79855" lon="-0.2893">
        <ele>66.6</ele>
      </trkpt>
      <trkpt lat="44.79878" lon="-0.28978">
        <ele>66</ele>
      </trkpt>
      <trkpt lat="44.79888" lon="-0.28999">
        <ele>66</ele>
      </trkpt>
      <trkpt lat="44.79907" lon="-0.29028">
        <ele>65.3</ele>
      </trkpt>
      <trkpt lat="44.79906" lon="-0.29095">
        <ele>65.6</ele>
      </trkpt>
      <trkpt lat="44.79948" lon="-0.29085">
        <ele>65</ele>
      </trkpt>
      <trkpt lat="44.8" lon="-0.29072">
        <ele>65</ele>
      </trkpt>
      <trkpt lat="44.80063" lon="-0.29059">
        <ele>66.2</ele>
      </trkpt>
      <trkpt lat="44.80103" lon="-0.29047">
        <ele>67.3</ele>
      </trkpt>
      <trkpt lat="44.80122" lon="-0.29036">
        <ele>67.4</ele>
      </trkpt>
      <trkpt lat="44.80172" lon="-0.2901">
        <ele>67.5</ele>
      </trkpt>
      <trkpt lat="44.80222" lon="-0.28985">
        <ele>66.5</ele>
      </trkpt>
      <trkpt lat="44.80274" lon="-0.28968">
        <ele>64.9</ele>
      </trkpt>
      <trkpt lat="44.80312" lon="-0.28954">
        <ele>63.8</ele>
      </trkpt>
      <trkpt lat="44.80323" lon="-0.28946">
        <ele>63.4</ele>
      </trkpt>
      <trkpt lat="44.80337" lon="-0.28934">
        <ele>62.9</ele>
      </trkpt>
      <trkpt lat="44.80373" lon="-0.28903">
        <ele>63</ele>
      </trkpt>
      <trkpt lat="44.80419" lon="-0.28871">
        <ele>63.7</ele>
      </trkpt>
      <trkpt lat="44.80462" lon="-0.28839">
        <ele>65.4</ele>
      </trkpt>
      <trkpt lat="44.80491" lon="-0.28811">
        <ele>65.5</ele>
      </trkpt>
      <trkpt lat="44.80525" lon="-0.28783">
        <ele>65.7</ele>
      </trkpt>
      <trkpt lat="44.80539" lon="-0.28776">
        <ele>66</ele>
      </trkpt>
      <trkpt lat="44.80557" lon="-0.28771">
        <ele>65.9</ele>
      </trkpt>
      <trkpt lat="44.80578" lon="-0.28774">
        <ele>65.2</ele>
      </trkpt>
      <trkpt lat="44.80594" lon="-0.28779">
        <ele>65</ele>
      </trkpt>
      <trkpt lat="44.80612" lon="-0.28791">
        <ele>65</ele>
      </trkpt>
      <trkpt lat="44.80633" lon="-0.28801">
        <ele>65</ele>
      </trkpt>
      <trkpt lat="44.80637" lon="-0.28802">
        <ele>65</ele>
      </trkpt>
      <trkpt lat="44.8064" lon="-0.28802">
        <ele>65</ele>
      </trkpt>
      <trkpt lat="44.80643" lon="-0.28802">
        <ele>65</ele>
      </trkpt>
      <trkpt lat="44.80646" lon="-0.28801">
        <ele>65</ele>
      </trkpt>
      <trkpt lat="44.80651" lon="-0.288">
        <ele>65</ele>
      </trkpt>
      <trkpt lat="44.80654" lon="-0.28799">
        <ele>65</ele>
      </trkpt>
      <trkpt lat="44.80657" lon="-0.28797">
        <ele>65</ele>
      </trkpt>
      <trkpt lat="44.80661" lon="-0.28796">
        <ele>65</ele>
      </trkpt>
      <trkpt lat="44.80667" lon="-0.28795">
        <ele>65</ele>
      </trkpt>
      <trkpt lat="44.80671" lon="-0.28796">
        <ele>64.9</ele>
      </trkpt>
      <trkpt lat="44.80674" lon="-0.28797">
        <ele>64.8</ele>
      </trkpt>
      <trkpt lat="44.80678" lon="-0.288">
        <ele>64.7</ele>
      </trkpt>
      <trkpt lat="44.80683" lon="-0.28809">
        <ele>64.4</ele>
      </trkpt>
      <trkpt lat="44.80695" lon="-0.28833">
        <ele>64</ele>
      </trkpt>
      <trkpt lat="44.80712" lon="-0.28875">
        <ele>63.7</ele>
      </trkpt>
      <trkpt lat="44.80739" lon="-0.28934">
        <ele>61.4</ele>
      </trkpt>
      <trkpt lat="44.80764" lon="-0.28984">
        <ele>59.1</ele>
      </trkpt>
      <trkpt lat="44.80795" lon="-0.29036">
        <ele>56.3</ele>
      </trkpt>
      <trkpt lat="44.80817" lon="-0.2907">
        <ele>55.3</ele>
      </trkpt>
      <trkpt lat="44.80823" lon="-0.29078">
        <ele>55.1</ele>
      </trkpt>
      <trkpt lat="44.80824" lon="-0.29079">
        <ele>55.1</ele>
      </trkpt>
      <trkpt lat="44.80829" lon="-0.29085">
        <ele>55</ele>
      </trkpt>
      <trkpt lat="44.80834" lon="-0.29086">
        <ele>55</ele>
      </trkpt>
      <trkpt lat="44.8084" lon="-0.29086">
        <ele>54.8</ele>
      </trkpt>
      <trkpt lat="44.80844" lon="-0.29085">
        <ele>54.6</ele>
      </trkpt>
      <trkpt lat="44.80851" lon="-0.29079">
        <ele>54.6</ele>
      </trkpt>
      <trkpt lat="44.80861" lon="-0.2907">
        <ele>55</ele>
      </trkpt>
      <trkpt lat="44.80897" lon="-0.29032">
        <ele>57.8</ele>
      </trkpt>
      <trkpt lat="44.80931" lon="-0.29">
        <ele>59</ele>
      </trkpt>
      <trkpt lat="44.80941" lon="-0.28992">
        <ele>59</ele>
      </trkpt>
      <trkpt lat="44.80964" lon="-0.28985">
        <ele>58.3</ele>
      </trkpt>
      <trkpt lat="44.80985" lon="-0.28987">
        <ele>57.3</ele>
      </trkpt>
      <trkpt lat="44.81026" lon="-0.28991">
        <ele>55.7</ele>
      </trkpt>
      <trkpt lat="44.81092" lon="-0.29">
        <ele>52.7</ele>
      </trkpt>
      <trkpt lat="44.81104" lon="-0.29004">
        <ele>52.4</ele>
      </trkpt>
      <trkpt lat="44.81131" lon="-0.29013">
        <ele>52.1</ele>
      </trkpt>
      <trkpt lat="44.81141" lon="-0.29013">
        <ele>51.9</ele>
      </trkpt>
      <trkpt lat="44.81151" lon="-0.2901">
        <ele>51.6</ele>
      </trkpt>
      <trkpt lat="44.81165" lon="-0.29005">
        <ele>51.1</ele>
      </trkpt>
      <trkpt lat="44.81178" lon="-0.28995">
        <ele>51.2</ele>
      </trkpt>
      <trkpt lat="44.8119" lon="-0.28984">
        <ele>51.2</ele>
      </trkpt>
      <trkpt lat="44.81198" lon="-0.28979">
        <ele>50.9</ele>
      </trkpt>
      <trkpt lat="44.81212" lon="-0.28972">
        <ele>50.4</ele>
      </trkpt>
      <trkpt lat="44.81236" lon="-0.28962">
        <ele>50.7</ele>
      </trkpt>
      <trkpt lat="44.81275" lon="-0.28948">
        <ele>50.2</ele>
      </trkpt>
      <trkpt lat="44.81306" lon="-0.28934">
        <ele>50</ele>
      </trkpt>
      <trkpt lat="44.81333" lon="-0.28922">
        <ele>50.2</ele>
      </trkpt>
      <trkpt lat="44.8135" lon="-0.28918">
        <ele>50</ele>
      </trkpt>
      <trkpt lat="44.81378" lon="-0.28912">
        <ele>49.4</ele>
      </trkpt>
      <trkpt lat="44.81405" lon="-0.28903">
        <ele>48.7</ele>
      </trkpt>
      <trkpt lat="44.81422" lon="-0.28897">
        <ele>48.1</ele>
      </trkpt>
      <trkpt lat="44.81446" lon="-0.28885">
        <ele>47.1</ele>
      </trkpt>
      <trkpt lat="44.81467" lon="-0.28935">
        <ele>48.1</ele>
      </trkpt>
      <trkpt lat="44.81471" lon="-0.28945">
        <ele>48.2</ele>
      </trkpt>
      <trkpt lat="44.81474" lon="-0.28955">
        <ele>48.9</ele>
      </trkpt>
      <trkpt lat="44.81475" lon="-0.28968">
        <ele>49.8</ele>
      </trkpt>
      <trkpt lat="44.81476" lon="-0.28983">
        <ele>50.2</ele>
      </trkpt>
      <trkpt lat="44.81475" lon="-0.29014">
        <ele>50.7</ele>
      </trkpt>
      <trkpt lat="44.81473" lon="-0.29093">
        <ele>52.4</ele>
      </trkpt>
      <trkpt lat="44.81472" lon="-0.29147">
        <ele>54</ele>
      </trkpt>
      <trkpt lat="44.81471" lon="-0.29197">
        <ele>55.2</ele>
      </trkpt>
      <trkpt lat="44.81471" lon="-0.29202">
        <ele>55.4</ele>
      </trkpt>
      <trkpt lat="44.81471" lon="-0.29209">
        <ele>55.7</ele>
      </trkpt>
      <trkpt lat="44.8147" lon="-0.29234">
        <ele>56.3</ele>
      </trkpt>
      <trkpt lat="44.81471" lon="-0.29252">
        <ele>56.3</ele>
      </trkpt>
      <trkpt lat="44.81474" lon="-0.29285">
        <ele>58.2</ele>
      </trkpt>
      <trkpt lat="44.81483" lon="-0.29335">
        <ele>59.5</ele>
      </trkpt>
      <trkpt lat="44.81495" lon="-0.29408">
        <ele>59.2</ele>
      </trkpt>
      <trkpt lat="44.81509" lon="-0.29471">
        <ele>60.6</ele>
      </trkpt>
      <trkpt lat="44.81521" lon="-0.29526">
        <ele>61.2</ele>
      </trkpt>
      <trkpt lat="44.81525" lon="-0.2955">
        <ele>61.8</ele>
      </trkpt>
      <trkpt lat="44.81527" lon="-0.29565">
        <ele>62</ele>
      </trkpt>
      <trkpt lat="44.8153" lon="-0.29611">
        <ele>62.1</ele>
      </trkpt>
      <trkpt lat="44.81532" lon="-0.29647">
        <ele>62.4</ele>
      </trkpt>
      <trkpt lat="44.81536" lon="-0.29675">
        <ele>63.3</ele>
      </trkpt>
      <trkpt lat="44.81538" lon="-0.29686">
        <ele>63.7</ele>
      </trkpt>
      <trkpt lat="44.81542" lon="-0.2971">
        <ele>64</ele>
      </trkpt>
      <trkpt lat="44.81552" lon="-0.2976">
        <ele>64</ele>
      </trkpt>
      <trkpt lat="44.81556" lon="-0.29777">
        <ele>64</ele>
      </trkpt>
      <trkpt lat="44.81557" lon="-0.29792">
        <ele>64.6</ele>
      </trkpt>
      <trkpt lat="44.81556" lon="-0.29812">
        <ele>65.3</ele>
      </trkpt>
      <trkpt lat="44.81549" lon="-0.29859">
        <ele>66.5</ele>
      </trkpt>
      <trkpt lat="44.81539" lon="-0.29895">
        <ele>65.8</ele>
      </trkpt>
      <trkpt lat="44.81531" lon="-0.29927">
        <ele>65.6</ele>
      </trkpt>
      <trkpt lat="44.81515" lon="-0.29973">
        <ele>66.6</ele>
      </trkpt>
      <trkpt lat="44.81501" lon="-0.3001">
        <ele>67</ele>
      </trkpt>
      <trkpt lat="44.81485" lon="-0.30052">
        <ele>68.3</ele>
      </trkpt>
      <trkpt lat="44.81479" lon="-0.30072">
        <ele>68.8</ele>
      </trkpt>
      <trkpt lat="44.81473" lon="-0.30091">
        <ele>69.3</ele>
      </trkpt>
      <trkpt lat="44.81467" lon="-0.30123">
        <ele>70</ele>
      </trkpt>
      <trkpt lat="44.81458" lon="-0.30183">
        <ele>69.4</ele>
      </trkpt>
      <trkpt lat="44.81453" lon="-0.30224">
        <ele>68.3</ele>
      </trkpt>
      <trkpt lat="44.81449" lon="-0.30246">
        <ele>67.9</ele>
      </trkpt>
      <trkpt lat="44.81442" lon="-0.30275">
        <ele>68.1</ele>
      </trkpt>
      <trkpt lat="44.8143" lon="-0.30307">
        <ele>68</ele>
      </trkpt>
      <trkpt lat="44.81418" lon="-0.3033">
        <ele>68</ele>
      </trkpt>
      <trkpt lat="44.81403" lon="-0.3035">
        <ele>68.5</ele>
      </trkpt>
      <trkpt lat="44.81378" lon="-0.30382">
        <ele>69</ele>
      </trkpt>
      <trkpt lat="44.81365" lon="-0.30402">
        <ele>69</ele>
      </trkpt>
      <trkpt lat="44.81362" lon="-0.30408">
        <ele>69</ele>
      </trkpt>
      <trkpt lat="44.81353" lon="-0.30422">
        <ele>68.7</ele>
      </trkpt>
      <trkpt lat="44.81347" lon="-0.30445">
        <ele>68.5</ele>
      </trkpt>
      <trkpt lat="44.81339" lon="-0.30475">
        <ele>67.2</ele>
      </trkpt>
      <trkpt lat="44.81308" lon="-0.3059">
        <ele>64.2</ele>
      </trkpt>
      <trkpt lat="44.81299" lon="-0.30638">
        <ele>63.5</ele>
      </trkpt>
      <trkpt lat="44.81298" lon="-0.30641">
        <ele>63.5</ele>
      </trkpt>
      <trkpt lat="44.8129" lon="-0.30683">
        <ele>62.9</ele>
      </trkpt>
      <trkpt lat="44.81286" lon="-0.30727">
        <ele>62.5</ele>
      </trkpt>
      <trkpt lat="44.81285" lon="-0.3077">
        <ele>62.1</ele>
      </trkpt>
      <trkpt lat="44.81287" lon="-0.3083">
        <ele>60.7</ele>
      </trkpt>
      <trkpt lat="44.81289" lon="-0.30868">
        <ele>60.6</ele>
      </trkpt>
      <trkpt lat="44.81294" lon="-0.30911">
        <ele>60.7</ele>
      </trkpt>
      <trkpt lat="44.81301" lon="-0.30955">
        <ele>61.2</ele>
      </trkpt>
      <trkpt lat="44.81306" lon="-0.30987">
        <ele>61.5</ele>
      </trkpt>
      <trkpt lat="44.81309" lon="-0.3102">
        <ele>62.6</ele>
      </trkpt>
      <trkpt lat="44.81308" lon="-0.31049">
        <ele>63</ele>
      </trkpt>
      <trkpt lat="44.81306" lon="-0.31072">
        <ele>63.6</ele>
      </trkpt>
      <trkpt lat="44.81304" lon="-0.31082">
        <ele>64</ele>
      </trkpt>
      <trkpt lat="44.81302" lon="-0.31091">
        <ele>63.7</ele>
      </trkpt>
      <trkpt lat="44.81296" lon="-0.31111">
        <ele>63</ele>
      </trkpt>
      <trkpt lat="44.8129" lon="-0.31137">
        <ele>61.5</ele>
      </trkpt>
      <trkpt lat="44.81347" lon="-0.31124">
        <ele>63.5</ele>
      </trkpt>
      <trkpt lat="44.81387" lon="-0.31119">
        <ele>63.3</ele>
      </trkpt>
      <trkpt lat="44.81418" lon="-0.31112">
        <ele>62.9</ele>
      </trkpt>
      <trkpt lat="44.81502" lon="-0.31086">
        <ele>58</ele>
      </trkpt>
      <trkpt lat="44.81577" lon="-0.3106">
        <ele>55.9</ele>
      </trkpt>
      <trkpt lat="44.8159" lon="-0.31056">
        <ele>55.7</ele>
      </trkpt>
      <trkpt lat="44.81601" lon="-0.31053">
        <ele>55.4</ele>
      </trkpt>
      <trkpt lat="44.81621" lon="-0.31049">
        <ele>55.2</ele>
      </trkpt>
      <trkpt lat="44.81627" lon="-0.3105">
        <ele>55.2</ele>
      </trkpt>
      <trkpt lat="44.81639" lon="-0.31052">
        <ele>55.1</ele>
      </trkpt>
      <trkpt lat="44.81648" lon="-0.31051">
        <ele>54.6</ele>
      </trkpt>
      <trkpt lat="44.8166" lon="-0.31048">
        <ele>54</ele>
      </trkpt>
      <trkpt lat="44.81673" lon="-0.31044">
        <ele>53.5</ele>
      </trkpt>
      <trkpt lat="44.81677" lon="-0.31043">
        <ele>53.4</ele>
      </trkpt>
      <trkpt lat="44.81702" lon="-0.31044">
        <ele>52.4</ele>
      </trkpt>
      <trkpt lat="44.81767" lon="-0.31028">
        <ele>51.4</ele>
      </trkpt>
      <trkpt lat="44.81804" lon="-0.31013">
        <ele>51</ele>
      </trkpt>
      <trkpt lat="44.81839" lon="-0.30995">
        <ele>50.1</ele>
      </trkpt>
      <trkpt lat="44.81886" lon="-0.30964">
        <ele>50.3</ele>
      </trkpt>
      <trkpt lat="44.81911" lon="-0.30947">
        <ele>50.9</ele>
      </trkpt>
      <trkpt lat="44.81923" lon="-0.30936">
        <ele>51.1</ele>
      </trkpt>
      <trkpt lat="44.81938" lon="-0.30932">
        <ele>50.7</ele>
      </trkpt>
      <trkpt lat="44.81965" lon="-0.30926">
        <ele>50.4</ele>
      </trkpt>
      <trkpt lat="44.81984" lon="-0.30924">
        <ele>50.5</ele>
      </trkpt>
      <trkpt lat="44.82" lon="-0.30923">
        <ele>50.5</ele>
      </trkpt>
      <trkpt lat="44.82003" lon="-0.30927">
        <ele>50.3</ele>
      </trkpt>
      <trkpt lat="44.82007" lon="-0.30931">
        <ele>50.1</ele>
      </trkpt>
      <trkpt lat="44.82018" lon="-0.30937">
        <ele>50</ele>
      </trkpt>
      <trkpt lat="44.82029" lon="-0.30943">
        <ele>50.1</ele>
      </trkpt>
      <trkpt lat="44.82047" lon="-0.3095">
        <ele>49.6</ele>
      </trkpt>
      <trkpt lat="44.8207" lon="-0.30958">
        <ele>49.3</ele>
      </trkpt>
      <trkpt lat="44.82094" lon="-0.30968">
        <ele>49.2</ele>
      </trkpt>
      <trkpt lat="44.82114" lon="-0.30978">
        <ele>48.8</ele>
      </trkpt>
      <trkpt lat="44.82131" lon="-0.30989">
        <ele>48.8</ele>
      </trkpt>
      <trkpt lat="44.82143" lon="-0.30998">
        <ele>49</ele>
      </trkpt>
      <trkpt lat="44.82149" lon="-0.31005">
        <ele>48.9</ele>
      </trkpt>
      <trkpt lat="44.82155" lon="-0.31017">
        <ele>48.7</ele>
      </trkpt>
      <trkpt lat="44.82162" lon="-0.31035">
        <ele>48.6</ele>
      </trkpt>
      <trkpt lat="44.82166" lon="-0.31053">
        <ele>48.1</ele>
      </trkpt>
      <trkpt lat="44.82169" lon="-0.31072">
        <ele>47.3</ele>
      </trkpt>
      <trkpt lat="44.8217" lon="-0.31089">
        <ele>46.7</ele>
      </trkpt>
      <trkpt lat="44.82171" lon="-0.31114">
        <ele>46</ele>
      </trkpt>
      <trkpt lat="44.82172" lon="-0.31151">
        <ele>46.6</ele>
      </trkpt>
      <trkpt lat="44.82173" lon="-0.31171">
        <ele>47.4</ele>
      </trkpt>
      <trkpt lat="44.82178" lon="-0.31179">
        <ele>47.9</ele>
      </trkpt>
      <trkpt lat="44.82187" lon="-0.31188">
        <ele>48.5</ele>
      </trkpt>
      <trkpt lat="44.82195" lon="-0.31194">
        <ele>49</ele>
      </trkpt>
      <trkpt lat="44.82203" lon="-0.312">
        <ele>49.3</ele>
      </trkpt>
      <trkpt lat="44.8221" lon="-0.31206">
        <ele>49.6</ele>
      </trkpt>
      <trkpt lat="44.82213" lon="-0.31212">
        <ele>49.8</ele>
      </trkpt>
      <trkpt lat="44.82216" lon="-0.3122">
        <ele>50.1</ele>
      </trkpt>
      <trkpt lat="44.82219" lon="-0.3123">
        <ele>50.1</ele>
      </trkpt>
      <trkpt lat="44.82222" lon="-0.31251">
        <ele>50</ele>
      </trkpt>
      <trkpt lat="44.82222" lon="-0.31261">
        <ele>50</ele>
      </trkpt>
      <trkpt lat="44.82243" lon="-0.31265">
        <ele>48.5</ele>
      </trkpt>
      <trkpt lat="44.82261" lon="-0.3127">
        <ele>47.6</ele>
      </trkpt>
      <trkpt lat="44.82277" lon="-0.31276">
        <ele>47</ele>
      </trkpt>
      <trkpt lat="44.82286" lon="-0.31283">
        <ele>46.6</ele>
      </trkpt>
      <trkpt lat="44.82292" lon="-0.31292">
        <ele>46.5</ele>
      </trkpt>
      <trkpt lat="44.82297" lon="-0.313">
        <ele>46.6</ele>
      </trkpt>
      <trkpt lat="44.82305" lon="-0.31313">
        <ele>47.2</ele>
      </trkpt>
      <trkpt lat="44.82318" lon="-0.31334">
        <ele>48.5</ele>
      </trkpt>
      <trkpt lat="44.82329" lon="-0.31349">
        <ele>49.3</ele>
      </trkpt>
      <trkpt lat="44.82343" lon="-0.31367">
        <ele>51</ele>
      </trkpt>
      <trkpt lat="44.82351" lon="-0.31377">
        <ele>51.9</ele>
      </trkpt>
      <trkpt lat="44.82359" lon="-0.31383">
        <ele>52.8</ele>
      </trkpt>
      <trkpt lat="44.82368" lon="-0.31387">
        <ele>53.5</ele>
      </trkpt>
      <trkpt lat="44.82375" lon="-0.31388">
        <ele>54</ele>
      </trkpt>
      <trkpt lat="44.82382" lon="-0.31389">
        <ele>54.5</ele>
      </trkpt>
      <trkpt lat="44.82388" lon="-0.31388">
        <ele>54.9</ele>
      </trkpt>
      <trkpt lat="44.82397" lon="-0.31387">
        <ele>54.9</ele>
      </trkpt>
      <trkpt lat="44.82407" lon="-0.31385">
        <ele>54.9</ele>
      </trkpt>
      <trkpt lat="44.82417" lon="-0.31381">
        <ele>54.7</ele>
      </trkpt>
      <trkpt lat="44.82441" lon="-0.31372">
        <ele>54.9</ele>
      </trkpt>
      <trkpt lat="44.82474" lon="-0.31355">
        <ele>54.4</ele>
      </trkpt>
      <trkpt lat="44.82501" lon="-0.3134">
        <ele>52.2</ele>
      </trkpt>
      <trkpt lat="44.82517" lon="-0.3133">
        <ele>52</ele>
      </trkpt>
      <trkpt lat="44.82517" lon="-0.31329">
        <ele>51.9</ele>
      </trkpt>
      <trkpt lat="44.82516" lon="-0.31328">
        <ele>51.9</ele>
      </trkpt>
      <trkpt lat="44.82515" lon="-0.31328">
        <ele>51.9</ele>
      </trkpt>
      <trkpt lat="44.82514" lon="-0.31327">
        <ele>51.9</ele>
      </trkpt>
      <trkpt lat="44.82513" lon="-0.31326">
        <ele>51.9</ele>
      </trkpt>
      <trkpt lat="44.82513" lon="-0.31325">
        <ele>51.8</ele>
      </trkpt>
      <trkpt lat="44.82512" lon="-0.31323">
        <ele>51.8</ele>
      </trkpt>
      <trkpt lat="44.82511" lon="-0.31322">
        <ele>51.8</ele>
      </trkpt>
      <trkpt lat="44.82511" lon="-0.31321">
        <ele>51.7</ele>
      </trkpt>
      <trkpt lat="44.8251" lon="-0.3132">
        <ele>51.7</ele>
      </trkpt>
      <trkpt lat="44.8251" lon="-0.31318">
        <ele>51.6</ele>
      </trkpt>
      <trkpt lat="44.8251" lon="-0.31317">
        <ele>51.6</ele>
      </trkpt>
      <trkpt lat="44.82509" lon="-0.31315">
        <ele>51.6</ele>
      </trkpt>
      <trkpt lat="44.82509" lon="-0.31314">
        <ele>51.5</ele>
      </trkpt>
      <trkpt lat="44.82509" lon="-0.31312">
        <ele>51.5</ele>
      </trkpt>
      <trkpt lat="44.82509" lon="-0.31311">
        <ele>51.5</ele>
      </trkpt>
      <trkpt lat="44.82509" lon="-0.3131">
        <ele>51.4</ele>
      </trkpt>
      <trkpt lat="44.82509" lon="-0.31308">
        <ele>51.4</ele>
      </trkpt>
      <trkpt lat="44.82509" lon="-0.31307">
        <ele>51.4</ele>
      </trkpt>
      <trkpt lat="44.8251" lon="-0.31305">
        <ele>51.3</ele>
      </trkpt>
      <trkpt lat="44.8251" lon="-0.31304">
        <ele>51.3</ele>
      </trkpt>
      <trkpt lat="44.8251" lon="-0.31302">
        <ele>51.2</ele>
      </trkpt>
      <trkpt lat="44.82511" lon="-0.31301">
        <ele>51.2</ele>
      </trkpt>
      <trkpt lat="44.82511" lon="-0.313">
        <ele>51.2</ele>
      </trkpt>
      <trkpt lat="44.82512" lon="-0.31299">
        <ele>51.1</ele>
      </trkpt>
      <trkpt lat="44.82512" lon="-0.31297">
        <ele>51</ele>
      </trkpt>
      <trkpt lat="44.82513" lon="-0.31296">
        <ele>51</ele>
      </trkpt>
      <trkpt lat="44.82514" lon="-0.31295">
        <ele>50.9</ele>
      </trkpt>
      <trkpt lat="44.82515" lon="-0.31294">
        <ele>50.9</ele>
      </trkpt>
      <trkpt lat="44.82516" lon="-0.31293">
        <ele>50.8</ele>
      </trkpt>
      <trkpt lat="44.8246" lon="-0.31129">
        <ele>46.1</ele>
      </trkpt>
      <trkpt lat="44.82474" lon="-0.31122">
        <ele>45.4</ele>
      </trkpt>
      <trkpt lat="44.82481" lon="-0.3112">
        <ele>45.3</ele>
      </trkpt>
      <trkpt lat="44.82495" lon="-0.31117">
        <ele>45.2</ele>
      </trkpt>
      <trkpt lat="44.82552" lon="-0.3111">
        <ele>47.7</ele>
      </trkpt>
      <trkpt lat="44.8257" lon="-0.31109">
        <ele>48.4</ele>
      </trkpt>
      <trkpt lat="44.82605" lon="-0.3111">
        <ele>49</ele>
      </trkpt>
      <trkpt lat="44.82648" lon="-0.31113">
        <ele>48.7</ele>
      </trkpt>
      <trkpt lat="44.82693" lon="-0.31116">
        <ele>48</ele>
      </trkpt>
      <trkpt lat="44.82736" lon="-0.31119">
        <ele>47.3</ele>
      </trkpt>
      <trkpt lat="44.8278" lon="-0.31121">
        <ele>47.4</ele>
      </trkpt>
      <trkpt lat="44.82834" lon="-0.31123">
        <ele>48.4</ele>
      </trkpt>
      <trkpt lat="44.82858" lon="-0.31123">
        <ele>47.5</ele>
      </trkpt>
      <trkpt lat="44.82867" lon="-0.31122">
        <ele>47.3</ele>
      </trkpt>
      <trkpt lat="44.82878" lon="-0.3112">
        <ele>46.9</ele>
      </trkpt>
      <trkpt lat="44.82883" lon="-0.31118">
        <ele>46.7</ele>
      </trkpt>
      <trkpt lat="44.82889" lon="-0.31114">
        <ele>46.2</ele>
      </trkpt>
      <trkpt lat="44.82897" lon="-0.31108">
        <ele>45.7</ele>
      </trkpt>
      <trkpt lat="44.82922" lon="-0.3106">
        <ele>43.8</ele>
      </trkpt>
      <trkpt lat="44.82941" lon="-0.31016">
        <ele>42.2</ele>
      </trkpt>
      <trkpt lat="44.82966" lon="-0.30962">
        <ele>42.6</ele>
      </trkpt>
      <trkpt lat="44.82992" lon="-0.30912">
        <ele>42.3</ele>
      </trkpt>
      <trkpt lat="44.83007" lon="-0.30887">
        <ele>41.8</ele>
      </trkpt>
      <trkpt lat="44.83022" lon="-0.30876">
        <ele>41.9</ele>
      </trkpt>
      <trkpt lat="44.83033" lon="-0.30868">
        <ele>42.5</ele>
      </trkpt>
      <trkpt lat="44.83043" lon="-0.30861">
        <ele>43</ele>
      </trkpt>
      <trkpt lat="44.83072" lon="-0.30841">
        <ele>43.9</ele>
      </trkpt>
      <trkpt lat="44.83088" lon="-0.30828">
        <ele>44</ele>
      </trkpt>
      <trkpt lat="44.83104" lon="-0.30815">
        <ele>43.9</ele>
      </trkpt>
      <trkpt lat="44.83111" lon="-0.30808">
        <ele>43.9</ele>
      </trkpt>
      <trkpt lat="44.8314" lon="-0.30777">
        <ele>43.1</ele>
      </trkpt>
      <trkpt lat="44.8316" lon="-0.30758">
        <ele>43.9</ele>
      </trkpt>
      <trkpt lat="44.83169" lon="-0.30748">
        <ele>44.2</ele>
      </trkpt>
      <trkpt lat="44.83184" lon="-0.30737">
        <ele>45.4</ele>
      </trkpt>
      <trkpt lat="44.83194" lon="-0.30731">
        <ele>46</ele>
      </trkpt>
      <trkpt lat="44.83199" lon="-0.30727">
        <ele>46.3</ele>
      </trkpt>
      <trkpt lat="44.83218" lon="-0.30722">
        <ele>47.7</ele>
      </trkpt>
      <trkpt lat="44.83248" lon="-0.30716">
        <ele>48.9</ele>
      </trkpt>
      <trkpt lat="44.83276" lon="-0.3071">
        <ele>49.5</ele>
      </trkpt>
      <trkpt lat="44.83302" lon="-0.30705">
        <ele>50.3</ele>
      </trkpt>
      <trkpt lat="44.8332" lon="-0.30699">
        <ele>51</ele>
      </trkpt>
      <trkpt lat="44.83341" lon="-0.30692">
        <ele>52</ele>
      </trkpt>
      <trkpt lat="44.8336" lon="-0.30683">
        <ele>52.4</ele>
      </trkpt>
      <trkpt lat="44.83376" lon="-0.30671">
        <ele>52.4</ele>
      </trkpt>
      <trkpt lat="44.83398" lon="-0.30655">
        <ele>52</ele>
      </trkpt>
      <trkpt lat="44.83414" lon="-0.30646">
        <ele>51.2</ele>
      </trkpt>
      <trkpt lat="44.83427" lon="-0.30643">
        <ele>50.6</ele>
      </trkpt>
      <trkpt lat="44.83453" lon="-0.3064">
        <ele>49.7</ele>
      </trkpt>
      <trkpt lat="44.83489" lon="-0.3064">
        <ele>48.4</ele>
      </trkpt>
      <trkpt lat="44.83504" lon="-0.3064">
        <ele>48</ele>
      </trkpt>
      <trkpt lat="44.83515" lon="-0.3064">
        <ele>48</ele>
      </trkpt>
      <trkpt lat="44.83543" lon="-0.30643">
        <ele>47.9</ele>
      </trkpt>
      <trkpt lat="44.83562" lon="-0.30645">
        <ele>47.8</ele>
      </trkpt>
      <trkpt lat="44.83577" lon="-0.30642">
        <ele>48</ele>
      </trkpt>
      <trkpt lat="44.83589" lon="-0.30634">
        <ele>48.2</ele>
      </trkpt>
      <trkpt lat="44.83604" lon="-0.30618">
        <ele>48.7</ele>
      </trkpt>
      <trkpt lat="44.83618" lon="-0.30601">
        <ele>49.1</ele>
      </trkpt>
      <trkpt lat="44.83621" lon="-0.30594">
        <ele>49.2</ele>
      </trkpt>
      <trkpt lat="44.8363" lon="-0.3056">
        <ele>49.1</ele>
      </trkpt>
      <trkpt lat="44.83648" lon="-0.3049">
        <ele>47.9</ele>
      </trkpt>
      <trkpt lat="44.83655" lon="-0.3046">
        <ele>47.4</ele>
      </trkpt>
      <trkpt lat="44.83664" lon="-0.30421">
        <ele>47</ele>
      </trkpt>
      <trkpt lat="44.83676" lon="-0.30375">
        <ele>47</ele>
      </trkpt>
      <trkpt lat="44.83676" lon="-0.30364">
        <ele>47</ele>
      </trkpt>
      <trkpt lat="44.83676" lon="-0.30352">
        <ele>47</ele>
      </trkpt>
      <trkpt lat="44.83676" lon="-0.3034">
        <ele>47</ele>
      </trkpt>
      <trkpt lat="44.83675" lon="-0.30315">
        <ele>47</ele>
      </trkpt>
      <trkpt lat="44.83672" lon="-0.30283">
        <ele>46.2</ele>
      </trkpt>
      <trkpt lat="44.83672" lon="-0.30266">
        <ele>46</ele>
      </trkpt>
      <trkpt lat="44.83674" lon="-0.30256">
        <ele>46</ele>
      </trkpt>
      <trkpt lat="44.83676" lon="-0.30248">
        <ele>46</ele>
      </trkpt>
      <trkpt lat="44.83682" lon="-0.30235">
        <ele>46</ele>
      </trkpt>
      <trkpt lat="44.83693" lon="-0.30217">
        <ele>46</ele>
      </trkpt>
      <trkpt lat="44.83703" lon="-0.302">
        <ele>45.6</ele>
      </trkpt>
      <trkpt lat="44.83708" lon="-0.3019">
        <ele>45.5</ele>
      </trkpt>
      <trkpt lat="44.83711" lon="-0.30179">
        <ele>45.4</ele>
      </trkpt>
      <trkpt lat="44.83719" lon="-0.30153">
        <ele>45.1</ele>
      </trkpt>
      <trkpt lat="44.83722" lon="-0.30146">
        <ele>45</ele>
      </trkpt>
      <trkpt lat="44.83726" lon="-0.30137">
        <ele>45</ele>
      </trkpt>
      <trkpt lat="44.83735" lon="-0.30118">
        <ele>45.3</ele>
      </trkpt>
      <trkpt lat="44.83745" lon="-0.30099">
        <ele>45.8</ele>
      </trkpt>
      <trkpt lat="44.83776" lon="-0.30039">
        <ele>47.9</ele>
      </trkpt>
      <trkpt lat="44.83789" lon="-0.30012">
        <ele>49.4</ele>
      </trkpt>
      <trkpt lat="44.83794" lon="-0.3">
        <ele>50.3</ele>
      </trkpt>
      <trkpt lat="44.83796" lon="-0.29993">
        <ele>50.7</ele>
      </trkpt>
      <trkpt lat="44.83799" lon="-0.29983">
        <ele>51.2</ele>
      </trkpt>
      <trkpt lat="44.83799" lon="-0.29978">
        <ele>51.2</ele>
      </trkpt>
      <trkpt lat="44.838" lon="-0.29968">
        <ele>51.5</ele>
      </trkpt>
      <trkpt lat="44.83801" lon="-0.29961">
        <ele>51.8</ele>
      </trkpt>
      <trkpt lat="44.83802" lon="-0.2995">
        <ele>52.3</ele>
      </trkpt>
      <trkpt lat="44.83804" lon="-0.29934">
        <ele>53.2</ele>
      </trkpt>
      <trkpt lat="44.83807" lon="-0.29923">
        <ele>53.9</ele>
      </trkpt>
      <trkpt lat="44.83822" lon="-0.2989">
        <ele>55.6</ele>
      </trkpt>
      <trkpt lat="44.83829" lon="-0.29878">
        <ele>56.2</ele>
      </trkpt>
      <trkpt lat="44.83832" lon="-0.29873">
        <ele>56.5</ele>
      </trkpt>
      <trkpt lat="44.83845" lon="-0.29858">
        <ele>57.5</ele>
      </trkpt>
      <trkpt lat="44.83856" lon="-0.29844">
        <ele>58.4</ele>
      </trkpt>
      <trkpt lat="44.83861" lon="-0.29835">
        <ele>58.9</ele>
      </trkpt>
      <trkpt lat="44.83867" lon="-0.29823">
        <ele>58.6</ele>
      </trkpt>
      <trkpt lat="44.83882" lon="-0.29791">
        <ele>57.5</ele>
      </trkpt>
      <trkpt lat="44.83894" lon="-0.29764">
        <ele>56.6</ele>
      </trkpt>
      <trkpt lat="44.83898" lon="-0.29751">
        <ele>56.3</ele>
      </trkpt>
      <trkpt lat="44.8391" lon="-0.29717">
        <ele>55.7</ele>
      </trkpt>
      <trkpt lat="44.8392" lon="-0.2969">
        <ele>54.9</ele>
      </trkpt>
      <trkpt lat="44.83924" lon="-0.29682">
        <ele>54.9</ele>
      </trkpt>
      <trkpt lat="44.83934" lon="-0.29665">
        <ele>54.8</ele>
      </trkpt>
      <trkpt lat="44.83939" lon="-0.29659">
        <ele>54.6</ele>
      </trkpt>
      <trkpt lat="44.83946" lon="-0.29652">
        <ele>54.4</ele>
      </trkpt>
      <trkpt lat="44.83955" lon="-0.29645">
        <ele>54.1</ele>
      </trkpt>
      <trkpt lat="44.83959" lon="-0.29643">
        <ele>53.9</ele>
      </trkpt>
      <trkpt lat="44.83974" lon="-0.2964">
        <ele>53</ele>
      </trkpt>
      <trkpt lat="44.84008" lon="-0.29639">
        <ele>53</ele>
      </trkpt>
      <trkpt lat="44.84034" lon="-0.29638">
        <ele>53</ele>
      </trkpt>
      <trkpt lat="44.84057" lon="-0.29638">
        <ele>53.1</ele>
      </trkpt>
      <trkpt lat="44.84082" lon="-0.2964">
        <ele>53.9</ele>
      </trkpt>
      <trkpt lat="44.84097" lon="-0.29639">
        <ele>54.5</ele>
      </trkpt>
      <trkpt lat="44.84105" lon="-0.29636">
        <ele>54.9</ele>
      </trkpt>
      <trkpt lat="44.84111" lon="-0.29632">
        <ele>55.2</ele>
      </trkpt>
      <trkpt lat="44.84114" lon="-0.2963">
        <ele>55.4</ele>
      </trkpt>
      <trkpt lat="44.84117" lon="-0.29626">
        <ele>55.7</ele>
      </trkpt>
      <trkpt lat="44.8412" lon="-0.29622">
        <ele>55.9</ele>
      </trkpt>
      <trkpt lat="44.84124" lon="-0.29616">
        <ele>56.3</ele>
      </trkpt>
      <trkpt lat="44.84128" lon="-0.29608">
        <ele>56.7</ele>
      </trkpt>
      <trkpt lat="44.8413" lon="-0.29599">
        <ele>57.1</ele>
      </trkpt>
      <trkpt lat="44.84134" lon="-0.29577">
        <ele>57.9</ele>
      </trkpt>
      <trkpt lat="44.84135" lon="-0.29568">
        <ele>57.9</ele>
      </trkpt>
      <trkpt lat="44.84138" lon="-0.29559">
        <ele>58</ele>
      </trkpt>
      <trkpt lat="44.84139" lon="-0.29555">
        <ele>58</ele>
      </trkpt>
      <trkpt lat="44.84146" lon="-0.29541">
        <ele>58.8</ele>
      </trkpt>
      <trkpt lat="44.84155" lon="-0.29526">
        <ele>59.6</ele>
      </trkpt>
      <trkpt lat="44.84163" lon="-0.29513">
        <ele>60.4</ele>
      </trkpt>
      <trkpt lat="44.84168" lon="-0.29504">
        <ele>60.9</ele>
      </trkpt>
      <trkpt lat="44.84174" lon="-0.29491">
        <ele>61.1</ele>
      </trkpt>
      <trkpt lat="44.84178" lon="-0.29478">
        <ele>61.3</ele>
      </trkpt>
      <trkpt lat="44.84188" lon="-0.29438">
        <ele>61.8</ele>
      </trkpt>
      <trkpt lat="44.84198" lon="-0.29407">
        <ele>61.8</ele>
      </trkpt>
      <trkpt lat="44.84213" lon="-0.29365">
        <ele>61.8</ele>
      </trkpt>
      <trkpt lat="44.84219" lon="-0.29354">
        <ele>61.9</ele>
      </trkpt>
      <trkpt lat="44.84223" lon="-0.29349">
        <ele>62.1</ele>
      </trkpt>
      <trkpt lat="44.84226" lon="-0.29347">
        <ele>62.3</ele>
      </trkpt>
      <trkpt lat="44.84222" lon="-0.29325">
        <ele>62</ele>
      </trkpt>
      <trkpt lat="44.84216" lon="-0.29294">
        <ele>61.9</ele>
      </trkpt>
      <trkpt lat="44.8421" lon="-0.29263">
        <ele>62.3</ele>
      </trkpt>
      <trkpt lat="44.84208" lon="-0.29246">
        <ele>62.6</ele>
      </trkpt>
      <trkpt lat="44.84206" lon="-0.29213">
        <ele>63</ele>
      </trkpt>
      <trkpt lat="44.84204" lon="-0.29166">
        <ele>63.4</ele>
      </trkpt>
      <trkpt lat="44.84201" lon="-0.29129">
        <ele>64</ele>
      </trkpt>
      <trkpt lat="44.84201" lon="-0.29118">
        <ele>64</ele>
      </trkpt>
      <trkpt lat="44.84201" lon="-0.29103">
        <ele>64.3</ele>
      </trkpt>
      <trkpt lat="44.84199" lon="-0.2907">
        <ele>65.2</ele>
      </trkpt>
      <trkpt lat="44.84197" lon="-0.29051">
        <ele>65.3</ele>
      </trkpt>
      <trkpt lat="44.84195" lon="-0.29038">
        <ele>65.7</ele>
      </trkpt>
      <trkpt lat="44.84193" lon="-0.29025">
        <ele>66.1</ele>
      </trkpt>
      <trkpt lat="44.84185" lon="-0.29001">
        <ele>67.3</ele>
      </trkpt>
      <trkpt lat="44.84174" lon="-0.28969">
        <ele>67.4</ele>
      </trkpt>
      <trkpt lat="44.84166" lon="-0.28936">
        <ele>68.3</ele>
      </trkpt>
      <trkpt lat="44.84162" lon="-0.28919">
        <ele>68.7</ele>
      </trkpt>
      <trkpt lat="44.8416" lon="-0.289">
        <ele>69.5</ele>
      </trkpt>
      <trkpt lat="44.84159" lon="-0.28881">
        <ele>70.3</ele>
      </trkpt>
      <trkpt lat="44.84159" lon="-0.28872">
        <ele>70.6</ele>
      </trkpt>
      <trkpt lat="44.84176" lon="-0.28863">
        <ele>71</ele>
      </trkpt>
      <trkpt lat="44.84181" lon="-0.2886">
        <ele>71</ele>
      </trkpt>
      <trkpt lat="44.84193" lon="-0.28852">
        <ele>71</ele>
      </trkpt>
      <trkpt lat="44.842" lon="-0.28847">
        <ele>70.9</ele>
      </trkpt>
      <trkpt lat="44.84212" lon="-0.28835">
        <ele>70.4</ele>
      </trkpt>
      <trkpt lat="44.84166" lon="-0.28753">
        <ele>70</ele>
      </trkpt>
      <trkpt lat="44.84156" lon="-0.28724">
        <ele>68.9</ele>
      </trkpt>
      <trkpt lat="44.84149" lon="-0.28701">
        <ele>68.8</ele>
      </trkpt>
      <trkpt lat="44.84147" lon="-0.28693">
        <ele>68.7</ele>
      </trkpt>
      <trkpt lat="44.84135" lon="-0.28667">
        <ele>69.1</ele>
      </trkpt>
      <trkpt lat="44.8412" lon="-0.28644">
        <ele>68.9</ele>
      </trkpt>
      <trkpt lat="44.84097" lon="-0.28602">
        <ele>68.7</ele>
      </trkpt>
      <trkpt lat="44.84093" lon="-0.28593">
        <ele>68.5</ele>
      </trkpt>
      <trkpt lat="44.84084" lon="-0.28569">
        <ele>67.5</ele>
      </trkpt>
      <trkpt lat="44.84058" lon="-0.28492">
        <ele>66.9</ele>
      </trkpt>
      <trkpt lat="44.84056" lon="-0.28485">
        <ele>67</ele>
      </trkpt>
      <trkpt lat="44.84049" lon="-0.28452">
        <ele>67</ele>
      </trkpt>
      <trkpt lat="44.84047" lon="-0.28433">
        <ele>67</ele>
      </trkpt>
      <trkpt lat="44.84039" lon="-0.28396">
        <ele>67</ele>
      </trkpt>
      <trkpt lat="44.84024" lon="-0.28324">
        <ele>67</ele>
      </trkpt>
      <trkpt lat="44.84002" lon="-0.28241">
        <ele>66.1</ele>
      </trkpt>
      <trkpt lat="44.83977" lon="-0.28146">
        <ele>64.2</ele>
      </trkpt>
      <trkpt lat="44.83968" lon="-0.2811">
        <ele>63.8</ele>
      </trkpt>
      <trkpt lat="44.83963" lon="-0.28089">
        <ele>63.7</ele>
      </trkpt>
      <trkpt lat="44.83948" lon="-0.2803">
        <ele>64.1</ele>
      </trkpt>
      <trkpt lat="44.83936" lon="-0.27981">
        <ele>63.4</ele>
      </trkpt>
      <trkpt lat="44.83927" lon="-0.27954">
        <ele>63.2</ele>
      </trkpt>
      <trkpt lat="44.83924" lon="-0.27945">
        <ele>63.2</ele>
      </trkpt>
      <trkpt lat="44.83911" lon="-0.27918">
        <ele>63.6</ele>
      </trkpt>
      <trkpt lat="44.83894" lon="-0.27885">
        <ele>63.5</ele>
      </trkpt>
      <trkpt lat="44.83889" lon="-0.27868">
        <ele>63.8</ele>
      </trkpt>
      <trkpt lat="44.83886" lon="-0.27856">
        <ele>64</ele>
      </trkpt>
      <trkpt lat="44.83883" lon="-0.27838">
        <ele>64.4</ele>
      </trkpt>
      <trkpt lat="44.8388" lon="-0.27824">
        <ele>64.6</ele>
      </trkpt>
      <trkpt lat="44.83879" lon="-0.27813">
        <ele>64.8</ele>
      </trkpt>
      <trkpt lat="44.83877" lon="-0.2779">
        <ele>65</ele>
      </trkpt>
      <trkpt lat="44.83873" lon="-0.27758">
        <ele>65.2</ele>
      </trkpt>
      <trkpt lat="44.83872" lon="-0.27739">
        <ele>65.4</ele>
      </trkpt>
      <trkpt lat="44.83872" lon="-0.27723">
        <ele>65.8</ele>
      </trkpt>
      <trkpt lat="44.83873" lon="-0.27714">
        <ele>66</ele>
      </trkpt>
      <trkpt lat="44.83875" lon="-0.27701">
        <ele>66.4</ele>
      </trkpt>
      <trkpt lat="44.83881" lon="-0.27666">
        <ele>67.5</ele>
      </trkpt>
      <trkpt lat="44.83894" lon="-0.27602">
        <ele>69.2</ele>
      </trkpt>
      <trkpt lat="44.83896" lon="-0.27589">
        <ele>69.3</ele>
      </trkpt>
      <trkpt lat="44.83897" lon="-0.27582">
        <ele>69.3</ele>
      </trkpt>
      <trkpt lat="44.83897" lon="-0.27579">
        <ele>69.3</ele>
      </trkpt>
      <trkpt lat="44.83897" lon="-0.27576">
        <ele>69.4</ele>
      </trkpt>
      <trkpt lat="44.83897" lon="-0.27573">
        <ele>69.4</ele>
      </trkpt>
      <trkpt lat="44.83896" lon="-0.27571">
        <ele>69.4</ele>
      </trkpt>
      <trkpt lat="44.83895" lon="-0.27564">
        <ele>69.4</ele>
      </trkpt>
      <trkpt lat="44.83866" lon="-0.27521">
        <ele>69.8</ele>
      </trkpt>
      <trkpt lat="44.83844" lon="-0.27488">
        <ele>69</ele>
      </trkpt>
      <trkpt lat="44.83809" lon="-0.27426">
        <ele>65.8</ele>
      </trkpt>
      <trkpt lat="44.83775" lon="-0.27367">
        <ele>62.2</ele>
      </trkpt>
      <trkpt lat="44.8376" lon="-0.27341">
        <ele>61.5</ele>
      </trkpt>
      <trkpt lat="44.83751" lon="-0.27331">
        <ele>61</ele>
      </trkpt>
      <trkpt lat="44.83735" lon="-0.27317">
        <ele>60.7</ele>
      </trkpt>
      <trkpt lat="44.8371" lon="-0.27299">
        <ele>59.3</ele>
      </trkpt>
      <trkpt lat="44.83691" lon="-0.27273">
        <ele>58.1</ele>
      </trkpt>
      <trkpt lat="44.83674" lon="-0.27235">
        <ele>56.7</ele>
      </trkpt>
      <trkpt lat="44.83672" lon="-0.27228">
        <ele>56.4</ele>
      </trkpt>
      <trkpt lat="44.8367" lon="-0.27222">
        <ele>56.1</ele>
      </trkpt>
      <trkpt lat="44.83645" lon="-0.27178">
        <ele>54.5</ele>
      </trkpt>
      <trkpt lat="44.83602" lon="-0.27106">
        <ele>51.8</ele>
      </trkpt>
      <trkpt lat="44.8358" lon="-0.27069">
        <ele>50</ele>
      </trkpt>
      <trkpt lat="44.83571" lon="-0.27046">
        <ele>49.2</ele>
      </trkpt>
      <trkpt lat="44.83567" lon="-0.27029">
        <ele>48.5</ele>
      </trkpt>
      <trkpt lat="44.83566" lon="-0.27008">
        <ele>48.4</ele>
      </trkpt>
      <trkpt lat="44.83567" lon="-0.26986">
        <ele>48.1</ele>
      </trkpt>
      <trkpt lat="44.83572" lon="-0.26954">
        <ele>47.8</ele>
      </trkpt>
      <trkpt lat="44.83575" lon="-0.26922">
        <ele>47.5</ele>
      </trkpt>
      <trkpt lat="44.83575" lon="-0.26901">
        <ele>47.4</ele>
      </trkpt>
      <trkpt lat="44.8357" lon="-0.2688">
        <ele>47.4</ele>
      </trkpt>
      <trkpt lat="44.83553" lon="-0.26832">
        <ele>46.9</ele>
      </trkpt>
      <trkpt lat="44.83542" lon="-0.26792">
        <ele>48.5</ele>
      </trkpt>
      <trkpt lat="44.83528" lon="-0.26742">
        <ele>49</ele>
      </trkpt>
      <trkpt lat="44.83516" lon="-0.26695">
        <ele>47.7</ele>
      </trkpt>
      <trkpt lat="44.83507" lon="-0.26656">
        <ele>45.2</ele>
      </trkpt>
      <trkpt lat="44.83506" lon="-0.26643">
        <ele>44.9</ele>
      </trkpt>
      <trkpt lat="44.8351" lon="-0.26634">
        <ele>44.3</ele>
      </trkpt>
      <trkpt lat="44.83498" lon="-0.26621">
        <ele>43.5</ele>
      </trkpt>
      <trkpt lat="44.83487" lon="-0.26605">
        <ele>41.1</ele>
      </trkpt>
      <trkpt lat="44.83476" lon="-0.26581">
        <ele>39</ele>
      </trkpt>
      <trkpt lat="44.83464" lon="-0.26564">
        <ele>36.9</ele>
      </trkpt>
      <trkpt lat="44.83459" lon="-0.26552">
        <ele>35.9</ele>
      </trkpt>
      <trkpt lat="44.83449" lon="-0.26537">
        <ele>35.1</ele>
      </trkpt>
      <trkpt lat="44.83437" lon="-0.26512">
        <ele>34.3</ele>
      </trkpt>
      <trkpt lat="44.83428" lon="-0.26489">
        <ele>33.8</ele>
      </trkpt>
      <trkpt lat="44.83424" lon="-0.26472">
        <ele>33.7</ele>
      </trkpt>
      <trkpt lat="44.83417" lon="-0.26449">
        <ele>34</ele>
      </trkpt>
      <trkpt lat="44.83411" lon="-0.26437">
        <ele>33.1</ele>
      </trkpt>
      <trkpt lat="44.83402" lon="-0.26441">
        <ele>32.8</ele>
      </trkpt>
      <trkpt lat="44.83391" lon="-0.26453">
        <ele>32.2</ele>
      </trkpt>
      <trkpt lat="44.8337" lon="-0.26483">
        <ele>30</ele>
      </trkpt>
      <trkpt lat="44.83342" lon="-0.26516">
        <ele>28</ele>
      </trkpt>
      <trkpt lat="44.83311" lon="-0.2655">
        <ele>28.2</ele>
      </trkpt>
      <trkpt lat="44.83288" lon="-0.26565">
        <ele>28.1</ele>
      </trkpt>
      <trkpt lat="44.8328" lon="-0.2655">
        <ele>28</ele>
      </trkpt>
      <trkpt lat="44.83269" lon="-0.26533">
        <ele>27.6</ele>
      </trkpt>
      <trkpt lat="44.83255" lon="-0.26516">
        <ele>26.7</ele>
      </trkpt>
      <trkpt lat="44.83239" lon="-0.26502">
        <ele>25.6</ele>
      </trkpt>
      <trkpt lat="44.83218" lon="-0.2649">
        <ele>24.8</ele>
      </trkpt>
      <trkpt lat="44.83195" lon="-0.26477">
        <ele>23.9</ele>
      </trkpt>
      <trkpt lat="44.83168" lon="-0.26464">
        <ele>21.7</ele>
      </trkpt>
      <trkpt lat="44.8315" lon="-0.26453">
        <ele>20.4</ele>
      </trkpt>
      <trkpt lat="44.83132" lon="-0.26439">
        <ele>18.7</ele>
      </trkpt>
      <trkpt lat="44.83117" lon="-0.26429">
        <ele>18</ele>
      </trkpt>
      <trkpt lat="44.83107" lon="-0.26422">
        <ele>17.7</ele>
      </trkpt>
      <trkpt lat="44.83097" lon="-0.26418">
        <ele>17.4</ele>
      </trkpt>
      <trkpt lat="44.83062" lon="-0.26409">
        <ele>16.7</ele>
      </trkpt>
      <trkpt lat="44.83021" lon="-0.26399">
        <ele>16</ele>
      </trkpt>
      <trkpt lat="44.82993" lon="-0.26395">
        <ele>16</ele>
      </trkpt>
      <trkpt lat="44.82974" lon="-0.26394">
        <ele>16</ele>
      </trkpt>
      <trkpt lat="44.8297" lon="-0.26395">
        <ele>16</ele>
      </trkpt>
      <trkpt lat="44.82957" lon="-0.26395">
        <ele>16</ele>
      </trkpt>
      <trkpt lat="44.82952" lon="-0.26396">
        <ele>16</ele>
      </trkpt>
      <trkpt lat="44.8294" lon="-0.26398">
        <ele>16</ele>
      </trkpt>
      <trkpt lat="44.82924" lon="-0.26402">
        <ele>16</ele>
      </trkpt>
      <trkpt lat="44.82907" lon="-0.26411">
        <ele>16.3</ele>
      </trkpt>
      <trkpt lat="44.82898" lon="-0.26415">
        <ele>16.7</ele>
      </trkpt>
      <trkpt lat="44.82894" lon="-0.26417">
        <ele>16.8</ele>
      </trkpt>
      <trkpt lat="44.82872" lon="-0.26421">
        <ele>17.6</ele>
      </trkpt>
      <trkpt lat="44.82837" lon="-0.26423">
        <ele>19.1</ele>
      </trkpt>
      <trkpt lat="44.82815" lon="-0.26425">
        <ele>20</ele>
      </trkpt>
      <trkpt lat="44.82798" lon="-0.26431">
        <ele>20.8</ele>
      </trkpt>
      <trkpt lat="44.82786" lon="-0.26437">
        <ele>21.4</ele>
      </trkpt>
      <trkpt lat="44.82766" lon="-0.26449">
        <ele>23.3</ele>
      </trkpt>
      <trkpt lat="44.82742" lon="-0.26466">
        <ele>25.6</ele>
      </trkpt>
      <trkpt lat="44.82722" lon="-0.26482">
        <ele>26.7</ele>
      </trkpt>
      <trkpt lat="44.82699" lon="-0.26498">
        <ele>29.6</ele>
      </trkpt>
      <trkpt lat="44.82666" lon="-0.26517">
        <ele>32.6</ele>
      </trkpt>
      <trkpt lat="44.82656" lon="-0.26521">
        <ele>33.2</ele>
      </trkpt>
      <trkpt lat="44.8263" lon="-0.26533">
        <ele>35</ele>
      </trkpt>
      <trkpt lat="44.82613" lon="-0.26543">
        <ele>36.1</ele>
      </trkpt>
      <trkpt lat="44.82598" lon="-0.26559">
        <ele>37.4</ele>
      </trkpt>
      <trkpt lat="44.82578" lon="-0.26583">
        <ele>40</ele>
      </trkpt>
      <trkpt lat="44.82553" lon="-0.26618">
        <ele>42.6</ele>
      </trkpt>
      <trkpt lat="44.82517" lon="-0.26664">
        <ele>46.8</ele>
      </trkpt>
      <trkpt lat="44.82501" lon="-0.26682">
        <ele>47.6</ele>
      </trkpt>
      <trkpt lat="44.82484" lon="-0.267">
        <ele>48.2</ele>
      </trkpt>
      <trkpt lat="44.8247" lon="-0.26714">
        <ele>48.7</ele>
      </trkpt>
      <trkpt lat="44.82457" lon="-0.26723">
        <ele>49</ele>
      </trkpt>
      <trkpt lat="44.82424" lon="-0.26748">
        <ele>49.2</ele>
      </trkpt>
      <trkpt lat="44.82402" lon="-0.26769">
        <ele>50</ele>
      </trkpt>
      <trkpt lat="44.82389" lon="-0.26783">
        <ele>50.2</ele>
      </trkpt>
      <trkpt lat="44.82377" lon="-0.268">
        <ele>50.7</ele>
      </trkpt>
      <trkpt lat="44.82359" lon="-0.26827">
        <ele>51.8</ele>
      </trkpt>
      <trkpt lat="44.82339" lon="-0.26852">
        <ele>52.8</ele>
      </trkpt>
      <trkpt lat="44.82323" lon="-0.26868">
        <ele>53.4</ele>
      </trkpt>
      <trkpt lat="44.82304" lon="-0.26889">
        <ele>54</ele>
      </trkpt>
      <trkpt lat="44.82292" lon="-0.26907">
        <ele>54.2</ele>
      </trkpt>
      <trkpt lat="44.8228" lon="-0.26927">
        <ele>53.6</ele>
      </trkpt>
      <trkpt lat="44.82251" lon="-0.26976">
        <ele>53.4</ele>
      </trkpt>
      <trkpt lat="44.82223" lon="-0.27024">
        <ele>52.9</ele>
      </trkpt>
      <trkpt lat="44.82203" lon="-0.27061">
        <ele>51.9</ele>
      </trkpt>
      <trkpt lat="44.82197" lon="-0.2707">
        <ele>51.2</ele>
      </trkpt>
      <trkpt lat="44.82194" lon="-0.27075">
        <ele>51</ele>
      </trkpt>
      <trkpt lat="44.82184" lon="-0.27087">
        <ele>50.6</ele>
      </trkpt>
      <trkpt lat="44.82163" lon="-0.27106">
        <ele>49.2</ele>
      </trkpt>
      <trkpt lat="44.82135" lon="-0.27129">
        <ele>48.9</ele>
      </trkpt>
      <trkpt lat="44.821" lon="-0.27155">
        <ele>47.8</ele>
      </trkpt>
      <trkpt lat="44.82054" lon="-0.2719">
        <ele>46.2</ele>
      </trkpt>
      <trkpt lat="44.82026" lon="-0.27211">
        <ele>46</ele>
      </trkpt>
      <trkpt lat="44.81996" lon="-0.27232">
        <ele>46.4</ele>
      </trkpt>
      <trkpt lat="44.81981" lon="-0.27244">
        <ele>46.9</ele>
      </trkpt>
      <trkpt lat="44.81973" lon="-0.27249">
        <ele>47</ele>
      </trkpt>
      <trkpt lat="44.81956" lon="-0.2726">
        <ele>47.1</ele>
      </trkpt>
      <trkpt lat="44.81915" lon="-0.27276">
        <ele>46.9</ele>
      </trkpt>
      <trkpt lat="44.81899" lon="-0.27282">
        <ele>46.4</ele>
      </trkpt>
      <trkpt lat="44.81872" lon="-0.27304">
        <ele>46</ele>
      </trkpt>
      <trkpt lat="44.81853" lon="-0.27327">
        <ele>45.6</ele>
      </trkpt>
      <trkpt lat="44.81841" lon="-0.2734">
        <ele>45.2</ele>
      </trkpt>
      <trkpt lat="44.8182" lon="-0.2736">
        <ele>44.5</ele>
      </trkpt>
      <trkpt lat="44.81812" lon="-0.27366">
        <ele>44.4</ele>
      </trkpt>
      <trkpt lat="44.81787" lon="-0.27384">
        <ele>45.1</ele>
      </trkpt>
      <trkpt lat="44.8174" lon="-0.27429">
        <ele>46.2</ele>
      </trkpt>
      <trkpt lat="44.81696" lon="-0.27476">
        <ele>48.1</ele>
      </trkpt>
      <trkpt lat="44.81675" lon="-0.27499">
        <ele>49.7</ele>
      </trkpt>
      <trkpt lat="44.8164" lon="-0.27521">
        <ele>51.7</ele>
      </trkpt>
      <trkpt lat="44.81561" lon="-0.27563">
        <ele>54</ele>
      </trkpt>
      <trkpt lat="44.81558" lon="-0.27565">
        <ele>54.2</ele>
      </trkpt>
      <trkpt lat="44.81524" lon="-0.2758">
        <ele>55.3</ele>
      </trkpt>
      <trkpt lat="44.81466" lon="-0.27602">
        <ele>57.5</ele>
      </trkpt>
      <trkpt lat="44.81416" lon="-0.27622">
        <ele>58.4</ele>
      </trkpt>
      <trkpt lat="44.81367" lon="-0.27651">
        <ele>57.2</ele>
      </trkpt>
      <trkpt lat="44.81325" lon="-0.27678">
        <ele>56</ele>
      </trkpt>
      <trkpt lat="44.81309" lon="-0.27693">
        <ele>55.2</ele>
      </trkpt>
      <trkpt lat="44.81301" lon="-0.27708">
        <ele>55.1</ele>
      </trkpt>
      <trkpt lat="44.81299" lon="-0.27714">
        <ele>55.1</ele>
      </trkpt>
      <trkpt lat="44.81296" lon="-0.27726">
        <ele>55</ele>
      </trkpt>
      <trkpt lat="44.81293" lon="-0.2775">
        <ele>55.1</ele>
      </trkpt>
      <trkpt lat="44.8129" lon="-0.27756">
        <ele>55</ele>
      </trkpt>
      <trkpt lat="44.81282" lon="-0.2776">
        <ele>54.6</ele>
      </trkpt>
      <trkpt lat="44.8124" lon="-0.27777">
        <ele>53.6</ele>
      </trkpt>
      <trkpt lat="44.81192" lon="-0.27791">
        <ele>52.3</ele>
      </trkpt>
      <trkpt lat="44.81155" lon="-0.27808">
        <ele>50.2</ele>
      </trkpt>
      <trkpt lat="44.81121" lon="-0.27825">
        <ele>48.2</ele>
      </trkpt>
      <trkpt lat="44.81073" lon="-0.27851">
        <ele>47.5</ele>
      </trkpt>
      <trkpt lat="44.81017" lon="-0.27883">
        <ele>47.2</ele>
      </trkpt>
      <trkpt lat="44.8098" lon="-0.27905">
        <ele>47.9</ele>
      </trkpt>
      <trkpt lat="44.80962" lon="-0.27918">
        <ele>48.4</ele>
      </trkpt>
      <trkpt lat="44.80949" lon="-0.2793">
        <ele>48.9</ele>
      </trkpt>
      <trkpt lat="44.8092" lon="-0.27957">
        <ele>50.3</ele>
      </trkpt>
      <trkpt lat="44.80855" lon="-0.2802">
        <ele>53</ele>
      </trkpt>
      <trkpt lat="44.80805" lon="-0.28068">
        <ele>54.9</ele>
      </trkpt>
      <trkpt lat="44.80798" lon="-0.28072">
        <ele>55.3</ele>
      </trkpt>
      <trkpt lat="44.80778" lon="-0.28065">
        <ele>55.3</ele>
      </trkpt>
      <trkpt lat="44.80777" lon="-0.28065">
        <ele>55.4</ele>
      </trkpt>
      <trkpt lat="44.80756" lon="-0.28056">
        <ele>55</ele>
      </trkpt>
      <trkpt lat="44.80731" lon="-0.28049">
        <ele>56.3</ele>
      </trkpt>
      <trkpt lat="44.80707" lon="-0.28047">
        <ele>56.5</ele>
      </trkpt>
      <trkpt lat="44.80673" lon="-0.28047">
        <ele>56.1</ele>
      </trkpt>
      <trkpt lat="44.8062" lon="-0.28049">
        <ele>55.2</ele>
      </trkpt>
      <trkpt lat="44.80581" lon="-0.28052">
        <ele>54.9</ele>
      </trkpt>
      <trkpt lat="44.80506" lon="-0.28059">
        <ele>54.1</ele>
      </trkpt>
      <trkpt lat="44.80486" lon="-0.28063">
        <ele>54.3</ele>
      </trkpt>
      <trkpt lat="44.80434" lon="-0.2808">
        <ele>55.4</ele>
      </trkpt>
      <trkpt lat="44.80394" lon="-0.28093">
        <ele>56.9</ele>
      </trkpt>
      <trkpt lat="44.80383" lon="-0.28093">
        <ele>57.1</ele>
      </trkpt>
      <trkpt lat="44.80366" lon="-0.28089">
        <ele>57.2</ele>
      </trkpt>
      <trkpt lat="44.8035" lon="-0.28082">
        <ele>57.5</ele>
      </trkpt>
      <trkpt lat="44.80312" lon="-0.28066">
        <ele>59.2</ele>
      </trkpt>
      <trkpt lat="44.80289" lon="-0.28062">
        <ele>59.8</ele>
      </trkpt>
      <trkpt lat="44.8027" lon="-0.28063">
        <ele>60.5</ele>
      </trkpt>
      <trkpt lat="44.80235" lon="-0.28069">
        <ele>62.3</ele>
      </trkpt>
      <trkpt lat="44.80179" lon="-0.28081">
        <ele>64.6</ele>
      </trkpt>
      <trkpt lat="44.80152" lon="-0.28085">
        <ele>65.6</ele>
      </trkpt>
      <trkpt lat="44.80132" lon="-0.28088">
        <ele>66.5</ele>
      </trkpt>
      <trkpt lat="44.80118" lon="-0.28088">
        <ele>67</ele>
      </trkpt>
      <trkpt lat="44.80095" lon="-0.28085">
        <ele>66.5</ele>
      </trkpt>
      <trkpt lat="44.80031" lon="-0.2808">
        <ele>65.1</ele>
      </trkpt>
      <trkpt lat="44.80023" lon="-0.28078">
        <ele>64.9</ele>
      </trkpt>
      <trkpt lat="44.79999" lon="-0.28072">
        <ele>64.4</ele>
      </trkpt>
      <trkpt lat="44.79992" lon="-0.28071">
        <ele>64.3</ele>
      </trkpt>
      <trkpt lat="44.79942" lon="-0.2806">
        <ele>63.2</ele>
      </trkpt>
      <trkpt lat="44.79907" lon="-0.28056">
        <ele>62.7</ele>
      </trkpt>
      <trkpt lat="44.79889" lon="-0.28055">
        <ele>62</ele>
      </trkpt>
      <trkpt lat="44.79871" lon="-0.28056">
        <ele>62</ele>
      </trkpt>
      <trkpt lat="44.79842" lon="-0.28061">
        <ele>61.6</ele>
      </trkpt>
      <trkpt lat="44.79815" lon="-0.28068">
        <ele>61.6</ele>
      </trkpt>
      <trkpt lat="44.79782" lon="-0.28084">
        <ele>61.2</ele>
      </trkpt>
      <trkpt lat="44.79747" lon="-0.28107">
        <ele>60.9</ele>
      </trkpt>
      <trkpt lat="44.7972" lon="-0.28129">
        <ele>60.6</ele>
      </trkpt>
      <trkpt lat="44.79663" lon="-0.28181">
        <ele>61.5</ele>
      </trkpt>
      <trkpt lat="44.79612" lon="-0.28223">
        <ele>62.1</ele>
      </trkpt>
      <trkpt lat="44.79605" lon="-0.28212">
        <ele>62.9</ele>
      </trkpt>
      <trkpt lat="44.79578" lon="-0.28181">
        <ele>64.5</ele>
      </trkpt>
      <trkpt lat="44.79554" lon="-0.28159">
        <ele>66.1</ele>
      </trkpt>
      <trkpt lat="44.79534" lon="-0.28146">
        <ele>66.8</ele>
      </trkpt>
      <trkpt lat="44.79502" lon="-0.28135">
        <ele>66.2</ele>
      </trkpt>
      <trkpt lat="44.7947" lon="-0.28126">
        <ele>65.4</ele>
      </trkpt>
      <trkpt lat="44.79452" lon="-0.28118">
        <ele>65.2</ele>
      </trkpt>
      <trkpt lat="44.79442" lon="-0.28106">
        <ele>64.9</ele>
      </trkpt>
      <trkpt lat="44.79433" lon="-0.28092">
        <ele>64.6</ele>
      </trkpt>
      <trkpt lat="44.79424" lon="-0.28072">
        <ele>64</ele>
      </trkpt>
      <trkpt lat="44.79404" lon="-0.28016">
        <ele>63.4</ele>
      </trkpt>
      <trkpt lat="44.79386" lon="-0.27954">
        <ele>61.9</ele>
      </trkpt>
      <trkpt lat="44.79371" lon="-0.27916">
        <ele>60.3</ele>
      </trkpt>
      <trkpt lat="44.79395" lon="-0.27882">
        <ele>60.8</ele>
      </trkpt>
      <trkpt lat="44.79421" lon="-0.27851">
        <ele>60.6</ele>
      </trkpt>
      <trkpt lat="44.79438" lon="-0.27828">
        <ele>59.9</ele>
      </trkpt>
      <trkpt lat="44.79457" lon="-0.27796">
        <ele>58.7</ele>
      </trkpt>
      <trkpt lat="44.79471" lon="-0.27758">
        <ele>57.3</ele>
      </trkpt>
      <trkpt lat="44.79483" lon="-0.27721">
        <ele>56.4</ele>
      </trkpt>
      <trkpt lat="44.79491" lon="-0.27693">
        <ele>55.9</ele>
      </trkpt>
      <trkpt lat="44.79493" lon="-0.27675">
        <ele>54.8</ele>
      </trkpt>
      <trkpt lat="44.79493" lon="-0.27659">
        <ele>54.2</ele>
      </trkpt>
      <trkpt lat="44.79491" lon="-0.27637">
        <ele>53.9</ele>
      </trkpt>
      <trkpt lat="44.79486" lon="-0.27601">
        <ele>52.6</ele>
      </trkpt>
      <trkpt lat="44.79482" lon="-0.27572">
        <ele>51.6</ele>
      </trkpt>
      <trkpt lat="44.7948" lon="-0.27557">
        <ele>51.1</ele>
      </trkpt>
      <trkpt lat="44.7948" lon="-0.27536">
        <ele>50.5</ele>
      </trkpt>
      <trkpt lat="44.79476" lon="-0.27513">
        <ele>49.6</ele>
      </trkpt>
      <trkpt lat="44.79472" lon="-0.27486">
        <ele>48</ele>
      </trkpt>
      <trkpt lat="44.79471" lon="-0.27468">
        <ele>46.4</ele>
      </trkpt>
      <trkpt lat="44.79471" lon="-0.27442">
        <ele>43</ele>
      </trkpt>
    </trkseg>
  </trk>
  <trk>
    <name><![CDATA[randogps33-548]]></name>
    <extensions>
      <line xmlns="http://www.topografix.com/GPX/gpx_style/0/2">
        <color>0000FF</color>
        <width>4</width>
      </line>
    </extensions>
    <trkseg>
      <trkpt lat="44.74918" lon="-0.07485">
        <ele>71.76</ele>
        <time>2014-11-23T08:21:07Z</time>
      </trkpt>
      <trkpt lat="44.74918" lon="-0.07485">
        <ele>73.2</ele>
        <time>2014-11-23T08:21:08Z</time>
      </trkpt>
      <trkpt lat="44.74919" lon="-0.07489">
        <ele>72.24</ele>
        <time>2014-11-23T08:21:35Z</time>
      </trkpt>
      <trkpt lat="44.74917" lon="-0.07487">
        <ele>72.24</ele>
        <time>2014-11-23T08:22:07Z</time>
      </trkpt>
      <trkpt lat="44.74916" lon="-0.0749">
        <ele>72.72</ele>
        <time>2014-11-23T08:22:37Z</time>
      </trkpt>
      <trkpt lat="44.74917" lon="-0.07491">
        <ele>72.72</ele>
        <time>2014-11-23T08:23:02Z</time>
      </trkpt>
      <trkpt lat="44.74919" lon="-0.07487">
        <ele>72.72</ele>
        <time>2014-11-23T08:23:21Z</time>
      </trkpt>
      <trkpt lat="44.7492" lon="-0.07485">
        <ele>73.2</ele>
        <time>2014-11-23T08:23:35Z</time>
      </trkpt>
      <trkpt lat="44.74922" lon="-0.07496">
        <ele>73.2</ele>
        <time>2014-11-23T08:23:48Z</time>
      </trkpt>
      <trkpt lat="44.7492" lon="-0.07501">
        <ele>73.2</ele>
        <time>2014-11-23T08:23:55Z</time>
      </trkpt>
      <trkpt lat="44.74915" lon="-0.07518">
        <ele>72.24</ele>
        <time>2014-11-23T08:24:11Z</time>
      </trkpt>
      <trkpt lat="44.74907" lon="-0.07532">
        <ele>71.76</ele>
        <time>2014-11-23T08:24:29Z</time>
      </trkpt>
      <trkpt lat="44.74909" lon="-0.07535">
        <ele>72.24</ele>
        <time>2014-11-23T08:24:48Z</time>
      </trkpt>
      <trkpt lat="44.74909" lon="-0.07537">
        <ele>71.27</ele>
        <time>2014-11-23T08:25:07Z</time>
      </trkpt>
      <trkpt lat="44.74911" lon="-0.0753">
        <ele>72.72</ele>
        <time>2014-11-23T08:25:22Z</time>
      </trkpt>
      <trkpt lat="44.74911" lon="-0.07531">
        <ele>72.24</ele>
        <time>2014-11-23T08:25:38Z</time>
      </trkpt>
      <trkpt lat="44.74911" lon="-0.0753">
        <ele>71.27</ele>
        <time>2014-11-23T08:26:02Z</time>
      </trkpt>
      <trkpt lat="44.74911" lon="-0.0753">
        <ele>71.76</ele>
        <time>2014-11-23T08:26:15Z</time>
      </trkpt>
      <trkpt lat="44.74911" lon="-0.0753">
        <ele>71.76</ele>
        <time>2014-11-23T08:26:33Z</time>
      </trkpt>
      <trkpt lat="44.74912" lon="-0.07527">
        <ele>71.27</ele>
        <time>2014-11-23T08:26:53Z</time>
      </trkpt>
      <trkpt lat="44.74911" lon="-0.07524">
        <ele>71.27</ele>
        <time>2014-11-23T08:27:19Z</time>
      </trkpt>
      <trkpt lat="44.7491" lon="-0.07526">
        <ele>71.27</ele>
        <time>2014-11-23T08:27:42Z</time>
      </trkpt>
      <trkpt lat="44.74909" lon="-0.07525">
        <ele>71.27</ele>
        <time>2014-11-23T08:28:10Z</time>
      </trkpt>
      <trkpt lat="44.7491" lon="-0.07521">
        <ele>71.76</ele>
        <time>2014-11-23T08:28:42Z</time>
      </trkpt>
      <trkpt lat="44.74911" lon="-0.07523">
        <ele>71.76</ele>
        <time>2014-11-23T08:29:03Z</time>
      </trkpt>
      <trkpt lat="44.7491" lon="-0.07521">
        <ele>71.27</ele>
        <time>2014-11-23T08:29:27Z</time>
      </trkpt>
      <trkpt lat="44.74912" lon="-0.07525">
        <ele>71.76</ele>
        <time>2014-11-23T08:29:55Z</time>
      </trkpt>
      <trkpt lat="44.74913" lon="-0.07523">
        <ele>72.24</ele>
        <time>2014-11-23T08:30:27Z</time>
      </trkpt>
      <trkpt lat="44.74917" lon="-0.07528">
        <ele>71.76</ele>
        <time>2014-11-23T08:30:57Z</time>
      </trkpt>
      <trkpt lat="44.74915" lon="-0.07529">
        <ele>72.72</ele>
        <time>2014-11-23T08:31:20Z</time>
      </trkpt>
      <trkpt lat="44.74911" lon="-0.07526">
        <ele>72.72</ele>
        <time>2014-11-23T08:31:44Z</time>
      </trkpt>
      <trkpt lat="44.74911" lon="-0.07525">
        <ele>72.24</ele>
        <time>2014-11-23T08:32:16Z</time>
      </trkpt>
      <trkpt lat="44.74908" lon="-0.07533">
        <ele>71.76</ele>
        <time>2014-11-23T08:32:28Z</time>
      </trkpt>
      <trkpt lat="44.74911" lon="-0.07533">
        <ele>71.76</ele>
        <time>2014-11-23T08:32:53Z</time>
      </trkpt>
      <trkpt lat="44.74913" lon="-0.07548">
        <ele>71.27</ele>
        <time>2014-11-23T08:33:12Z</time>
      </trkpt>
      <trkpt lat="44.74911" lon="-0.07559">
        <ele>71.27</ele>
        <time>2014-11-23T08:33:22Z</time>
      </trkpt>
      <trkpt lat="44.74919" lon="-0.07585">
        <ele>70.31</ele>
        <time>2014-11-23T08:33:41Z</time>
      </trkpt>
      <trkpt lat="44.74922" lon="-0.07608">
        <ele>69.35</ele>
        <time>2014-11-23T08:33:57Z</time>
      </trkpt>
      <trkpt lat="44.74933" lon="-0.07635">
        <ele>67.91</ele>
        <time>2014-11-23T08:34:17Z</time>
      </trkpt>
      <trkpt lat="44.74936" lon="-0.0767">
        <ele>66.47</ele>
        <time>2014-11-23T08:34:38Z</time>
      </trkpt>
      <trkpt lat="44.74926" lon="-0.07688">
        <ele>63.1</ele>
        <time>2014-11-23T08:34:52Z</time>
      </trkpt>
      <trkpt lat="44.7491" lon="-0.07716">
        <ele>59.74</ele>
        <time>2014-11-23T08:35:14Z</time>
      </trkpt>
      <trkpt lat="44.74893" lon="-0.07743">
        <ele>57.34</ele>
        <time>2014-11-23T08:35:35Z</time>
      </trkpt>
      <trkpt lat="44.74879" lon="-0.07778">
        <ele>55.41</ele>
        <time>2014-11-23T08:35:58Z</time>
      </trkpt>
      <trkpt lat="44.74871" lon="-0.0781">
        <ele>54.93</ele>
        <time>2014-11-23T08:36:19Z</time>
      </trkpt>
      <trkpt lat="44.74869" lon="-0.07842">
        <ele>55.41</ele>
        <time>2014-11-23T08:36:39Z</time>
      </trkpt>
      <trkpt lat="44.7487" lon="-0.07883">
        <ele>56.86</ele>
        <time>2014-11-23T08:37:03Z</time>
      </trkpt>
      <trkpt lat="44.74872" lon="-0.07924">
        <ele>58.3</ele>
        <time>2014-11-23T08:37:27Z</time>
      </trkpt>
      <trkpt lat="44.74874" lon="-0.07964">
        <ele>59.26</ele>
        <time>2014-11-23T08:37:51Z</time>
      </trkpt>
      <trkpt lat="44.74874" lon="-0.07987">
        <ele>60.22</ele>
        <time>2014-11-23T08:38:08Z</time>
      </trkpt>
      <trkpt lat="44.74878" lon="-0.08028">
        <ele>61.66</ele>
        <time>2014-11-23T08:38:31Z</time>
      </trkpt>
      <trkpt lat="44.74879" lon="-0.08072">
        <ele>62.62</ele>
        <time>2014-11-23T08:38:56Z</time>
      </trkpt>
      <trkpt lat="44.74879" lon="-0.08105">
        <ele>64.07</ele>
        <time>2014-11-23T08:39:16Z</time>
      </trkpt>
      <trkpt lat="44.7488" lon="-0.08142">
        <ele>65.03</ele>
        <time>2014-11-23T08:39:39Z</time>
      </trkpt>
      <trkpt lat="44.74878" lon="-0.08182">
        <ele>65.51</ele>
        <time>2014-11-23T08:40:04Z</time>
      </trkpt>
      <trkpt lat="44.74876" lon="-0.08217">
        <ele>65.51</ele>
        <time>2014-11-23T08:40:26Z</time>
      </trkpt>
      <trkpt lat="44.74875" lon="-0.08237">
        <ele>64.07</ele>
        <time>2014-11-23T08:40:38Z</time>
      </trkpt>
      <trkpt lat="44.74875" lon="-0.0824">
        <ele>65.51</ele>
        <time>2014-11-23T08:40:40Z</time>
      </trkpt>
      <trkpt lat="44.74872" lon="-0.08251">
        <ele>65.99</ele>
        <time>2014-11-23T08:40:48Z</time>
      </trkpt>
      <trkpt lat="44.7487" lon="-0.08258">
        <ele>61.66</ele>
        <time>2014-11-23T08:40:54Z</time>
      </trkpt>
      <trkpt lat="44.74869" lon="-0.08259">
        <ele>70.79</ele>
        <time>2014-11-23T08:40:55Z</time>
      </trkpt>
      <trkpt lat="44.74869" lon="-0.0826">
        <ele>65.51</ele>
        <time>2014-11-23T08:40:56Z</time>
      </trkpt>
      <trkpt lat="44.74851" lon="-0.08278">
        <ele>66.95</ele>
        <time>2014-11-23T08:41:16Z</time>
      </trkpt>
      <trkpt lat="44.74835" lon="-0.08296">
        <ele>68.39</ele>
        <time>2014-11-23T08:41:32Z</time>
      </trkpt>
      <trkpt lat="44.74811" lon="-0.08312">
        <ele>69.35</ele>
        <time>2014-11-23T08:41:54Z</time>
      </trkpt>
      <trkpt lat="44.74791" lon="-0.08326">
        <ele>71.27</ele>
        <time>2014-11-23T08:42:13Z</time>
      </trkpt>
      <trkpt lat="44.74767" lon="-0.08334">
        <ele>72.24</ele>
        <time>2014-11-23T08:42:35Z</time>
      </trkpt>
      <trkpt lat="44.74762" lon="-0.08322">
        <ele>67.91</ele>
        <time>2014-11-23T08:42:44Z</time>
      </trkpt>
      <trkpt lat="44.74762" lon="-0.08321">
        <ele>75.6</ele>
        <time>2014-11-23T08:42:45Z</time>
      </trkpt>
      <trkpt lat="44.74761" lon="-0.08317">
        <ele>72.24</ele>
        <time>2014-11-23T08:42:47Z</time>
      </trkpt>
      <trkpt lat="44.74753" lon="-0.08292">
        <ele>73.68</ele>
        <time>2014-11-23T08:43:04Z</time>
      </trkpt>
      <trkpt lat="44.74748" lon="-0.08277">
        <ele>70.79</ele>
        <time>2014-11-23T08:43:14Z</time>
      </trkpt>
      <trkpt lat="44.74748" lon="-0.08273">
        <ele>73.68</ele>
        <time>2014-11-23T08:43:16Z</time>
      </trkpt>
      <trkpt lat="44.74747" lon="-0.0827">
        <ele>72.72</ele>
        <time>2014-11-23T08:43:18Z</time>
      </trkpt>
      <trkpt lat="44.74744" lon="-0.0826">
        <ele>75.6</ele>
        <time>2014-11-23T08:43:25Z</time>
      </trkpt>
      <trkpt lat="44.74744" lon="-0.08257">
        <ele>71.27</ele>
        <time>2014-11-23T08:43:27Z</time>
      </trkpt>
      <trkpt lat="44.74743" lon="-0.08256">
        <ele>71.27</ele>
        <time>2014-11-23T08:43:28Z</time>
      </trkpt>
      <trkpt lat="44.74741" lon="-0.08245">
        <ele>69.35</ele>
        <time>2014-11-23T08:43:35Z</time>
      </trkpt>
      <trkpt lat="44.74737" lon="-0.08238">
        <ele>72.72</ele>
        <time>2014-11-23T08:43:40Z</time>
      </trkpt>
      <trkpt lat="44.74736" lon="-0.08231">
        <ele>69.35</ele>
        <time>2014-11-23T08:43:45Z</time>
      </trkpt>
      <trkpt lat="44.74735" lon="-0.08229">
        <ele>75.12</ele>
        <time>2014-11-23T08:43:46Z</time>
      </trkpt>
      <trkpt lat="44.74734" lon="-0.08226">
        <ele>71.27</ele>
        <time>2014-11-23T08:43:48Z</time>
      </trkpt>
      <trkpt lat="44.7473" lon="-0.08211">
        <ele>75.12</ele>
        <time>2014-11-23T08:43:58Z</time>
      </trkpt>
      <trkpt lat="44.74729" lon="-0.08209">
        <ele>72.24</ele>
        <time>2014-11-23T08:43:59Z</time>
      </trkpt>
      <trkpt lat="44.74728" lon="-0.08204">
        <ele>72.24</ele>
        <time>2014-11-23T08:44:03Z</time>
      </trkpt>
      <trkpt lat="44.74725" lon="-0.08195">
        <ele>72.72</ele>
        <time>2014-11-23T08:44:09Z</time>
      </trkpt>
      <trkpt lat="44.74725" lon="-0.08192">
        <ele>75.12</ele>
        <time>2014-11-23T08:44:11Z</time>
      </trkpt>
      <trkpt lat="44.74724" lon="-0.0819">
        <ele>71.27</ele>
        <time>2014-11-23T08:44:13Z</time>
      </trkpt>
      <trkpt lat="44.74714" lon="-0.08175">
        <ele>72.24</ele>
        <time>2014-11-23T08:44:28Z</time>
      </trkpt>
      <trkpt lat="44.74699" lon="-0.08166">
        <ele>71.76</ele>
        <time>2014-11-23T08:44:44Z</time>
      </trkpt>
      <trkpt lat="44.74697" lon="-0.08164">
        <ele>74.64</ele>
        <time>2014-11-23T08:44:46Z</time>
      </trkpt>
      <trkpt lat="44.74678" lon="-0.08145">
        <ele>73.2</ele>
        <time>2014-11-23T08:45:08Z</time>
      </trkpt>
      <trkpt lat="44.74677" lon="-0.08144">
        <ele>73.2</ele>
        <time>2014-11-23T08:45:10Z</time>
      </trkpt>
      <trkpt lat="44.7466" lon="-0.0813">
        <ele>73.68</ele>
        <time>2014-11-23T08:45:27Z</time>
      </trkpt>
      <trkpt lat="44.74642" lon="-0.0811">
        <ele>74.16</ele>
        <time>2014-11-23T08:45:49Z</time>
      </trkpt>
      <trkpt lat="44.74627" lon="-0.08095">
        <ele>74.64</ele>
        <time>2014-11-23T08:46:06Z</time>
      </trkpt>
      <trkpt lat="44.74609" lon="-0.08074">
        <ele>75.6</ele>
        <time>2014-11-23T08:46:26Z</time>
      </trkpt>
      <trkpt lat="44.74601" lon="-0.08062">
        <ele>74.64</ele>
        <time>2014-11-23T08:46:35Z</time>
      </trkpt>
      <trkpt lat="44.74589" lon="-0.08046">
        <ele>76.08</ele>
        <time>2014-11-23T08:46:50Z</time>
      </trkpt>
      <trkpt lat="44.74575" lon="-0.08021">
        <ele>75.6</ele>
        <time>2014-11-23T08:47:09Z</time>
      </trkpt>
      <trkpt lat="44.74558" lon="-0.07994">
        <ele>74.16</ele>
        <time>2014-11-23T08:47:31Z</time>
      </trkpt>
      <trkpt lat="44.74544" lon="-0.07973">
        <ele>75.12</ele>
        <time>2014-11-23T08:47:48Z</time>
      </trkpt>
      <trkpt lat="44.74532" lon="-0.0795">
        <ele>75.12</ele>
        <time>2014-11-23T08:48:05Z</time>
      </trkpt>
      <trkpt lat="44.74516" lon="-0.07925">
        <ele>75.6</ele>
        <time>2014-11-23T08:48:24Z</time>
      </trkpt>
      <trkpt lat="44.7451" lon="-0.07916">
        <ele>74.16</ele>
        <time>2014-11-23T08:48:31Z</time>
      </trkpt>
      <trkpt lat="44.74494" lon="-0.07894">
        <ele>74.64</ele>
        <time>2014-11-23T08:48:49Z</time>
      </trkpt>
      <trkpt lat="44.74483" lon="-0.07869">
        <ele>74.16</ele>
        <time>2014-11-23T08:49:06Z</time>
      </trkpt>
      <trkpt lat="44.74482" lon="-0.07866">
        <ele>73.2</ele>
        <time>2014-11-23T08:49:08Z</time>
      </trkpt>
      <trkpt lat="44.74471" lon="-0.0784">
        <ele>74.16</ele>
        <time>2014-11-23T08:49:27Z</time>
      </trkpt>
      <trkpt lat="44.74459" lon="-0.07812">
        <ele>74.16</ele>
        <time>2014-11-23T08:49:47Z</time>
      </trkpt>
      <trkpt lat="44.74458" lon="-0.07809">
        <ele>74.16</ele>
        <time>2014-11-23T08:49:49Z</time>
      </trkpt>
      <trkpt lat="44.74448" lon="-0.07784">
        <ele>74.64</ele>
        <time>2014-11-23T08:50:07Z</time>
      </trkpt>
      <trkpt lat="44.74439" lon="-0.07754">
        <ele>74.16</ele>
        <time>2014-11-23T08:50:27Z</time>
      </trkpt>
      <trkpt lat="44.74429" lon="-0.07715">
        <ele>74.16</ele>
        <time>2014-11-23T08:50:51Z</time>
      </trkpt>
      <trkpt lat="44.74423" lon="-0.07687">
        <ele>74.16</ele>
        <time>2014-11-23T08:51:08Z</time>
      </trkpt>
      <trkpt lat="44.74415" lon="-0.07649">
        <ele>73.2</ele>
        <time>2014-11-23T08:51:30Z</time>
      </trkpt>
      <trkpt lat="44.74413" lon="-0.07641">
        <ele>74.64</ele>
        <time>2014-11-23T08:51:35Z</time>
      </trkpt>
      <trkpt lat="44.74411" lon="-0.07622">
        <ele>74.16</ele>
        <time>2014-11-23T08:51:54Z</time>
      </trkpt>
      <trkpt lat="44.7441" lon="-0.07617">
        <ele>72.72</ele>
        <time>2014-11-23T08:51:58Z</time>
      </trkpt>
      <trkpt lat="44.74407" lon="-0.07616">
        <ele>74.16</ele>
        <time>2014-11-23T08:52:07Z</time>
      </trkpt>
      <trkpt lat="44.74393" lon="-0.07634">
        <ele>74.64</ele>
        <time>2014-11-23T08:52:24Z</time>
      </trkpt>
      <trkpt lat="44.74374" lon="-0.07644">
        <ele>74.64</ele>
        <time>2014-11-23T08:52:42Z</time>
      </trkpt>
      <trkpt lat="44.7436" lon="-0.07634">
        <ele>74.16</ele>
        <time>2014-11-23T08:52:57Z</time>
      </trkpt>
      <trkpt lat="44.74354" lon="-0.07625">
        <ele>75.6</ele>
        <time>2014-11-23T08:53:05Z</time>
      </trkpt>
      <trkpt lat="44.74353" lon="-0.07622">
        <ele>75.6</ele>
        <time>2014-11-23T08:53:07Z</time>
      </trkpt>
      <trkpt lat="44.7435" lon="-0.0761">
        <ele>75.6</ele>
        <time>2014-11-23T08:53:15Z</time>
      </trkpt>
      <trkpt lat="44.74337" lon="-0.07573">
        <ele>75.12</ele>
        <time>2014-11-23T08:53:39Z</time>
      </trkpt>
      <trkpt lat="44.74323" lon="-0.07542">
        <ele>74.16</ele>
        <time>2014-11-23T08:54:01Z</time>
      </trkpt>
      <trkpt lat="44.74302" lon="-0.07533">
        <ele>73.2</ele>
        <time>2014-11-23T08:54:20Z</time>
      </trkpt>
      <trkpt lat="44.74276" lon="-0.07534">
        <ele>71.27</ele>
        <time>2014-11-23T08:54:41Z</time>
      </trkpt>
      <trkpt lat="44.74249" lon="-0.07545">
        <ele>69.35</ele>
        <time>2014-11-23T08:55:04Z</time>
      </trkpt>
      <trkpt lat="44.74223" lon="-0.07557">
        <ele>67.91</ele>
        <time>2014-11-23T08:55:26Z</time>
      </trkpt>
      <trkpt lat="44.74189" lon="-0.07565">
        <ele>67.43</ele>
        <time>2014-11-23T08:55:54Z</time>
      </trkpt>
      <trkpt lat="44.74159" lon="-0.07576">
        <ele>66.95</ele>
        <time>2014-11-23T08:56:18Z</time>
      </trkpt>
      <trkpt lat="44.74129" lon="-0.07582">
        <ele>65.03</ele>
        <time>2014-11-23T08:56:42Z</time>
      </trkpt>
      <trkpt lat="44.741" lon="-0.07591">
        <ele>64.55</ele>
        <time>2014-11-23T08:57:05Z</time>
      </trkpt>
      <trkpt lat="44.74069" lon="-0.07597">
        <ele>63.58</ele>
        <time>2014-11-23T08:57:30Z</time>
      </trkpt>
      <trkpt lat="44.74042" lon="-0.07606">
        <ele>62.62</ele>
        <time>2014-11-23T08:57:54Z</time>
      </trkpt>
      <trkpt lat="44.74017" lon="-0.07618">
        <ele>62.62</ele>
        <time>2014-11-23T08:58:16Z</time>
      </trkpt>
      <trkpt lat="44.73993" lon="-0.07629">
        <ele>63.1</ele>
        <time>2014-11-23T08:58:38Z</time>
      </trkpt>
      <trkpt lat="44.7397" lon="-0.07642">
        <ele>63.58</ele>
        <time>2014-11-23T08:58:57Z</time>
      </trkpt>
      <trkpt lat="44.73944" lon="-0.07659">
        <ele>65.03</ele>
        <time>2014-11-23T08:59:20Z</time>
      </trkpt>
      <trkpt lat="44.73919" lon="-0.07671">
        <ele>66.95</ele>
        <time>2014-11-23T08:59:43Z</time>
      </trkpt>
      <trkpt lat="44.73908" lon="-0.0767">
        <ele>68.87</ele>
        <time>2014-11-23T08:59:59Z</time>
      </trkpt>
      <trkpt lat="44.73892" lon="-0.07681">
        <ele>69.35</ele>
        <time>2014-11-23T09:00:13Z</time>
      </trkpt>
      <trkpt lat="44.73869" lon="-0.07695">
        <ele>70.79</ele>
        <time>2014-11-23T09:00:33Z</time>
      </trkpt>
      <trkpt lat="44.73847" lon="-0.07707">
        <ele>71.27</ele>
        <time>2014-11-23T09:00:53Z</time>
      </trkpt>
      <trkpt lat="44.73823" lon="-0.0772">
        <ele>71.27</ele>
        <time>2014-11-23T09:01:14Z</time>
      </trkpt>
      <trkpt lat="44.73805" lon="-0.07729">
        <ele>71.76</ele>
        <time>2014-11-23T09:01:31Z</time>
      </trkpt>
      <trkpt lat="44.73782" lon="-0.0774">
        <ele>71.76</ele>
        <time>2014-11-23T09:01:54Z</time>
      </trkpt>
      <trkpt lat="44.73778" lon="-0.07744">
        <ele>71.76</ele>
        <time>2014-11-23T09:01:58Z</time>
      </trkpt>
      <trkpt lat="44.73765" lon="-0.07746">
        <ele>71.76</ele>
        <time>2014-11-23T09:02:13Z</time>
      </trkpt>
      <trkpt lat="44.73755" lon="-0.07732">
        <ele>70.79</ele>
        <time>2014-11-23T09:02:26Z</time>
      </trkpt>
      <trkpt lat="44.7375" lon="-0.07705">
        <ele>70.79</ele>
        <time>2014-11-23T09:02:44Z</time>
      </trkpt>
      <trkpt lat="44.73747" lon="-0.07669">
        <ele>69.83</ele>
        <time>2014-11-23T09:03:06Z</time>
      </trkpt>
      <trkpt lat="44.73743" lon="-0.07624">
        <ele>67.43</ele>
        <time>2014-11-23T09:03:32Z</time>
      </trkpt>
      <trkpt lat="44.73732" lon="-0.07584">
        <ele>65.03</ele>
        <time>2014-11-23T09:03:56Z</time>
      </trkpt>
      <trkpt lat="44.73723" lon="-0.07556">
        <ele>65.51</ele>
        <time>2014-11-23T09:04:16Z</time>
      </trkpt>
      <trkpt lat="44.73714" lon="-0.07529">
        <ele>66.95</ele>
        <time>2014-11-23T09:04:34Z</time>
      </trkpt>
      <trkpt lat="44.73708" lon="-0.07501">
        <ele>66.95</ele>
        <time>2014-11-23T09:04:52Z</time>
      </trkpt>
      <trkpt lat="44.73703" lon="-0.07474">
        <ele>68.39</ele>
        <time>2014-11-23T09:05:10Z</time>
      </trkpt>
      <trkpt lat="44.73698" lon="-0.07442">
        <ele>68.39</ele>
        <time>2014-11-23T09:05:29Z</time>
      </trkpt>
      <trkpt lat="44.73694" lon="-0.07416">
        <ele>69.35</ele>
        <time>2014-11-23T09:05:47Z</time>
      </trkpt>
      <trkpt lat="44.73693" lon="-0.07406">
        <ele>70.31</ele>
        <time>2014-11-23T09:05:54Z</time>
      </trkpt>
      <trkpt lat="44.73692" lon="-0.07403">
        <ele>69.83</ele>
        <time>2014-11-23T09:05:56Z</time>
      </trkpt>
      <trkpt lat="44.73688" lon="-0.07375">
        <ele>69.35</ele>
        <time>2014-11-23T09:06:14Z</time>
      </trkpt>
      <trkpt lat="44.73685" lon="-0.07347">
        <ele>69.83</ele>
        <time>2014-11-23T09:06:31Z</time>
      </trkpt>
      <trkpt lat="44.73684" lon="-0.07343">
        <ele>70.79</ele>
        <time>2014-11-23T09:06:33Z</time>
      </trkpt>
      <trkpt lat="44.73681" lon="-0.07323">
        <ele>70.79</ele>
        <time>2014-11-23T09:06:45Z</time>
      </trkpt>
      <trkpt lat="44.73673" lon="-0.07293">
        <ele>70.79</ele>
        <time>2014-11-23T09:07:04Z</time>
      </trkpt>
      <trkpt lat="44.73664" lon="-0.07263">
        <ele>71.27</ele>
        <time>2014-11-23T09:07:23Z</time>
      </trkpt>
      <trkpt lat="44.73652" lon="-0.07246">
        <ele>72.24</ele>
        <time>2014-11-23T09:07:40Z</time>
      </trkpt>
      <trkpt lat="44.7365" lon="-0.07248">
        <ele>72.72</ele>
        <time>2014-11-23T09:07:54Z</time>
      </trkpt>
      <trkpt lat="44.73649" lon="-0.07249">
        <ele>72.24</ele>
        <time>2014-11-23T09:08:27Z</time>
      </trkpt>
      <trkpt lat="44.73649" lon="-0.0725">
        <ele>71.76</ele>
        <time>2014-11-23T09:08:33Z</time>
      </trkpt>
      <trkpt lat="44.73657" lon="-0.0723">
        <ele>70.79</ele>
        <time>2014-11-23T09:08:45Z</time>
      </trkpt>
      <trkpt lat="44.73656" lon="-0.07227">
        <ele>69.83</ele>
        <time>2014-11-23T09:08:47Z</time>
      </trkpt>
      <trkpt lat="44.7365" lon="-0.07206">
        <ele>70.79</ele>
        <time>2014-11-23T09:09:04Z</time>
      </trkpt>
      <trkpt lat="44.73643" lon="-0.07182">
        <ele>70.79</ele>
        <time>2014-11-23T09:09:20Z</time>
      </trkpt>
      <trkpt lat="44.73642" lon="-0.07173">
        <ele>71.76</ele>
        <time>2014-11-23T09:09:27Z</time>
      </trkpt>
      <trkpt lat="44.73639" lon="-0.07162">
        <ele>71.27</ele>
        <time>2014-11-23T09:09:34Z</time>
      </trkpt>
      <trkpt lat="44.73634" lon="-0.07135">
        <ele>72.72</ele>
        <time>2014-11-23T09:09:51Z</time>
      </trkpt>
      <trkpt lat="44.73633" lon="-0.07119">
        <ele>73.2</ele>
        <time>2014-11-23T09:10:06Z</time>
      </trkpt>
      <trkpt lat="44.73633" lon="-0.07101">
        <ele>73.2</ele>
        <time>2014-11-23T09:10:18Z</time>
      </trkpt>
      <trkpt lat="44.73634" lon="-0.07069">
        <ele>73.68</ele>
        <time>2014-11-23T09:10:35Z</time>
      </trkpt>
      <trkpt lat="44.73637" lon="-0.07032">
        <ele>73.68</ele>
        <time>2014-11-23T09:10:56Z</time>
      </trkpt>
      <trkpt lat="44.73638" lon="-0.06993">
        <ele>73.68</ele>
        <time>2014-11-23T09:11:18Z</time>
      </trkpt>
      <trkpt lat="44.73641" lon="-0.06957">
        <ele>73.68</ele>
        <time>2014-11-23T09:11:39Z</time>
      </trkpt>
      <trkpt lat="44.7364" lon="-0.0693">
        <ele>73.2</ele>
        <time>2014-11-23T09:11:57Z</time>
      </trkpt>
      <trkpt lat="44.73639" lon="-0.06929">
        <ele>75.12</ele>
        <time>2014-11-23T09:11:59Z</time>
      </trkpt>
      <trkpt lat="44.73621" lon="-0.06933">
        <ele>72.72</ele>
        <time>2014-11-23T09:12:16Z</time>
      </trkpt>
      <trkpt lat="44.73619" lon="-0.06933">
        <ele>73.68</ele>
        <time>2014-11-23T09:12:18Z</time>
      </trkpt>
      <trkpt lat="44.73595" lon="-0.06942">
        <ele>74.64</ele>
        <time>2014-11-23T09:12:37Z</time>
      </trkpt>
      <trkpt lat="44.73578" lon="-0.06947">
        <ele>75.6</ele>
        <time>2014-11-23T09:12:52Z</time>
      </trkpt>
      <trkpt lat="44.73554" lon="-0.06954">
        <ele>76.08</ele>
        <time>2014-11-23T09:13:13Z</time>
      </trkpt>
      <trkpt lat="44.73529" lon="-0.06965">
        <ele>77.52</ele>
        <time>2014-11-23T09:13:33Z</time>
      </trkpt>
      <trkpt lat="44.73516" lon="-0.0697">
        <ele>78</ele>
        <time>2014-11-23T09:13:47Z</time>
      </trkpt>
      <trkpt lat="44.73493" lon="-0.0698">
        <ele>79.45</ele>
        <time>2014-11-23T09:14:07Z</time>
      </trkpt>
      <trkpt lat="44.73473" lon="-0.0699">
        <ele>80.89</ele>
        <time>2014-11-23T09:14:25Z</time>
      </trkpt>
      <trkpt lat="44.73454" lon="-0.06998">
        <ele>81.85</ele>
        <time>2014-11-23T09:14:43Z</time>
      </trkpt>
      <trkpt lat="44.73434" lon="-0.07007">
        <ele>83.77</ele>
        <time>2014-11-23T09:15:02Z</time>
      </trkpt>
      <trkpt lat="44.73434" lon="-0.07006">
        <ele>83.29</ele>
        <time>2014-11-23T09:15:17Z</time>
      </trkpt>
      <trkpt lat="44.7342" lon="-0.07013">
        <ele>83.77</ele>
        <time>2014-11-23T09:15:36Z</time>
      </trkpt>
      <trkpt lat="44.73397" lon="-0.07024">
        <ele>85.21</ele>
        <time>2014-11-23T09:15:56Z</time>
      </trkpt>
      <trkpt lat="44.73377" lon="-0.07031">
        <ele>86.66</ele>
        <time>2014-11-23T09:16:14Z</time>
      </trkpt>
      <trkpt lat="44.7336" lon="-0.07041">
        <ele>88.1</ele>
        <time>2014-11-23T09:16:30Z</time>
      </trkpt>
      <trkpt lat="44.73337" lon="-0.07051">
        <ele>90.5</ele>
        <time>2014-11-23T09:16:50Z</time>
      </trkpt>
      <trkpt lat="44.73315" lon="-0.07054">
        <ele>90.02</ele>
        <time>2014-11-23T09:17:11Z</time>
      </trkpt>
      <trkpt lat="44.73294" lon="-0.07048">
        <ele>89.06</ele>
        <time>2014-11-23T09:17:31Z</time>
      </trkpt>
      <trkpt lat="44.73269" lon="-0.07051">
        <ele>87.14</ele>
        <time>2014-11-23T09:17:52Z</time>
      </trkpt>
      <trkpt lat="44.7324" lon="-0.07061">
        <ele>87.62</ele>
        <time>2014-11-23T09:18:15Z</time>
      </trkpt>
      <trkpt lat="44.73216" lon="-0.07068">
        <ele>86.66</ele>
        <time>2014-11-23T09:18:36Z</time>
      </trkpt>
      <trkpt lat="44.73194" lon="-0.07074">
        <ele>86.18</ele>
        <time>2014-11-23T09:18:57Z</time>
      </trkpt>
      <trkpt lat="44.73175" lon="-0.07077">
        <ele>86.66</ele>
        <time>2014-11-23T09:19:16Z</time>
      </trkpt>
      <trkpt lat="44.73155" lon="-0.07081">
        <ele>87.14</ele>
        <time>2014-11-23T09:19:33Z</time>
      </trkpt>
      <trkpt lat="44.73133" lon="-0.07086">
        <ele>87.14</ele>
        <time>2014-11-23T09:19:53Z</time>
      </trkpt>
      <trkpt lat="44.7312" lon="-0.07091">
        <ele>87.62</ele>
        <time>2014-11-23T09:20:09Z</time>
      </trkpt>
      <trkpt lat="44.73109" lon="-0.07087">
        <ele>88.58</ele>
        <time>2014-11-23T09:20:26Z</time>
      </trkpt>
      <trkpt lat="44.73101" lon="-0.07094">
        <ele>88.58</ele>
        <time>2014-11-23T09:20:50Z</time>
      </trkpt>
      <trkpt lat="44.73081" lon="-0.07101">
        <ele>90.02</ele>
        <time>2014-11-23T09:21:08Z</time>
      </trkpt>
      <trkpt lat="44.73076" lon="-0.07105">
        <ele>90.02</ele>
        <time>2014-11-23T09:21:27Z</time>
      </trkpt>
      <trkpt lat="44.73079" lon="-0.07101">
        <ele>90.02</ele>
        <time>2014-11-23T09:21:53Z</time>
      </trkpt>
      <trkpt lat="44.73077" lon="-0.07106">
        <ele>89.54</ele>
        <time>2014-11-23T09:22:17Z</time>
      </trkpt>
      <trkpt lat="44.73077" lon="-0.07107">
        <ele>89.54</ele>
        <time>2014-11-23T09:22:43Z</time>
      </trkpt>
      <trkpt lat="44.73079" lon="-0.07107">
        <ele>90.5</ele>
        <time>2014-11-23T09:23:00Z</time>
      </trkpt>
      <trkpt lat="44.73074" lon="-0.07105">
        <ele>90.02</ele>
        <time>2014-11-23T09:23:21Z</time>
      </trkpt>
      <trkpt lat="44.73076" lon="-0.07106">
        <ele>90.5</ele>
        <time>2014-11-23T09:23:42Z</time>
      </trkpt>
      <trkpt lat="44.73076" lon="-0.07106">
        <ele>90.02</ele>
        <time>2014-11-23T09:24:04Z</time>
      </trkpt>
      <trkpt lat="44.7308" lon="-0.07107">
        <ele>90.5</ele>
        <time>2014-11-23T09:24:29Z</time>
      </trkpt>
      <trkpt lat="44.73078" lon="-0.0711">
        <ele>90.5</ele>
        <time>2014-11-23T09:24:48Z</time>
      </trkpt>
      <trkpt lat="44.73073" lon="-0.07108">
        <ele>90.98</ele>
        <time>2014-11-23T09:25:02Z</time>
      </trkpt>
      <trkpt lat="44.73074" lon="-0.07108">
        <ele>91.46</ele>
        <time>2014-11-23T09:25:18Z</time>
      </trkpt>
      <trkpt lat="44.7308" lon="-0.071">
        <ele>91.94</ele>
        <time>2014-11-23T09:25:46Z</time>
      </trkpt>
      <trkpt lat="44.73076" lon="-0.071">
        <ele>91.46</ele>
        <time>2014-11-23T09:26:11Z</time>
      </trkpt>
      <trkpt lat="44.73076" lon="-0.07095">
        <ele>92.42</ele>
        <time>2014-11-23T09:26:32Z</time>
      </trkpt>
      <trkpt lat="44.73062" lon="-0.07108">
        <ele>93.39</ele>
        <time>2014-11-23T09:26:50Z</time>
      </trkpt>
      <trkpt lat="44.7306" lon="-0.07108">
        <ele>93.39</ele>
        <time>2014-11-23T09:27:11Z</time>
      </trkpt>
      <trkpt lat="44.73061" lon="-0.07096">
        <ele>93.87</ele>
        <time>2014-11-23T09:27:28Z</time>
      </trkpt>
      <trkpt lat="44.73045" lon="-0.07107">
        <ele>94.83</ele>
        <time>2014-11-23T09:27:43Z</time>
      </trkpt>
      <trkpt lat="44.73038" lon="-0.07109">
        <ele>95.79</ele>
        <time>2014-11-23T09:27:51Z</time>
      </trkpt>
      <trkpt lat="44.73022" lon="-0.0711">
        <ele>97.71</ele>
        <time>2014-11-23T09:28:07Z</time>
      </trkpt>
      <trkpt lat="44.73008" lon="-0.07109">
        <ele>99.15</ele>
        <time>2014-11-23T09:28:23Z</time>
      </trkpt>
      <trkpt lat="44.72987" lon="-0.07106">
        <ele>101.08</ele>
        <time>2014-11-23T09:28:41Z</time>
      </trkpt>
      <trkpt lat="44.72968" lon="-0.07105">
        <ele>102.04</ele>
        <time>2014-11-23T09:28:59Z</time>
      </trkpt>
      <trkpt lat="44.7295" lon="-0.07113">
        <ele>102.04</ele>
        <time>2014-11-23T09:29:16Z</time>
      </trkpt>
      <trkpt lat="44.72931" lon="-0.07128">
        <ele>102.04</ele>
        <time>2014-11-23T09:29:37Z</time>
      </trkpt>
      <trkpt lat="44.72914" lon="-0.07151">
        <ele>101.08</ele>
        <time>2014-11-23T09:29:58Z</time>
      </trkpt>
      <trkpt lat="44.729" lon="-0.07171">
        <ele>101.56</ele>
        <time>2014-11-23T09:30:16Z</time>
      </trkpt>
      <trkpt lat="44.72886" lon="-0.07191">
        <ele>101.56</ele>
        <time>2014-11-23T09:30:32Z</time>
      </trkpt>
      <trkpt lat="44.72875" lon="-0.0721">
        <ele>101.56</ele>
        <time>2014-11-23T09:30:47Z</time>
      </trkpt>
      <trkpt lat="44.72866" lon="-0.07221">
        <ele>101.56</ele>
        <time>2014-11-23T09:31:00Z</time>
      </trkpt>
      <trkpt lat="44.72856" lon="-0.07235">
        <ele>101.08</ele>
        <time>2014-11-23T09:31:14Z</time>
      </trkpt>
      <trkpt lat="44.7284" lon="-0.0725">
        <ele>101.08</ele>
        <time>2014-11-23T09:31:31Z</time>
      </trkpt>
      <trkpt lat="44.72821" lon="-0.07264">
        <ele>101.08</ele>
        <time>2014-11-23T09:31:51Z</time>
      </trkpt>
      <trkpt lat="44.728" lon="-0.07278">
        <ele>101.08</ele>
        <time>2014-11-23T09:32:10Z</time>
      </trkpt>
      <trkpt lat="44.72781" lon="-0.07292">
        <ele>101.08</ele>
        <time>2014-11-23T09:32:27Z</time>
      </trkpt>
      <trkpt lat="44.72763" lon="-0.07303">
        <ele>101.56</ele>
        <time>2014-11-23T09:32:45Z</time>
      </trkpt>
      <trkpt lat="44.72743" lon="-0.0731">
        <ele>102.52</ele>
        <time>2014-11-23T09:33:02Z</time>
      </trkpt>
      <trkpt lat="44.72721" lon="-0.0732">
        <ele>101.08</ele>
        <time>2014-11-23T09:33:22Z</time>
      </trkpt>
      <trkpt lat="44.72704" lon="-0.07333">
        <ele>100.11</ele>
        <time>2014-11-23T09:33:42Z</time>
      </trkpt>
      <trkpt lat="44.72684" lon="-0.07342">
        <ele>98.67</ele>
        <time>2014-11-23T09:34:01Z</time>
      </trkpt>
      <trkpt lat="44.72665" lon="-0.07348">
        <ele>96.75</ele>
        <time>2014-11-23T09:34:20Z</time>
      </trkpt>
      <trkpt lat="44.72653" lon="-0.07352">
        <ele>95.31</ele>
        <time>2014-11-23T09:34:36Z</time>
      </trkpt>
      <trkpt lat="44.72633" lon="-0.07362">
        <ele>94.35</ele>
        <time>2014-11-23T09:34:53Z</time>
      </trkpt>
      <trkpt lat="44.72611" lon="-0.07371">
        <ele>91.94</ele>
        <time>2014-11-23T09:35:14Z</time>
      </trkpt>
      <trkpt lat="44.72594" lon="-0.07378">
        <ele>90.98</ele>
        <time>2014-11-23T09:35:31Z</time>
      </trkpt>
      <trkpt lat="44.72578" lon="-0.07388">
        <ele>89.54</ele>
        <time>2014-11-23T09:35:48Z</time>
      </trkpt>
      <trkpt lat="44.7256" lon="-0.07396">
        <ele>89.54</ele>
        <time>2014-11-23T09:36:04Z</time>
      </trkpt>
      <trkpt lat="44.72542" lon="-0.07403">
        <ele>88.1</ele>
        <time>2014-11-23T09:36:19Z</time>
      </trkpt>
      <trkpt lat="44.72524" lon="-0.0741">
        <ele>86.66</ele>
        <time>2014-11-23T09:36:36Z</time>
      </trkpt>
      <trkpt lat="44.72506" lon="-0.07415">
        <ele>85.69</ele>
        <time>2014-11-23T09:36:53Z</time>
      </trkpt>
      <trkpt lat="44.7249" lon="-0.07423">
        <ele>84.73</ele>
        <time>2014-11-23T09:37:10Z</time>
      </trkpt>
      <trkpt lat="44.72472" lon="-0.07435">
        <ele>83.77</ele>
        <time>2014-11-23T09:37:30Z</time>
      </trkpt>
      <trkpt lat="44.72452" lon="-0.07446">
        <ele>83.77</ele>
        <time>2014-11-23T09:37:46Z</time>
      </trkpt>
      <trkpt lat="44.7244" lon="-0.07449">
        <ele>82.81</ele>
        <time>2014-11-23T09:37:58Z</time>
      </trkpt>
      <trkpt lat="44.72418" lon="-0.07459">
        <ele>81.85</ele>
        <time>2014-11-23T09:38:16Z</time>
      </trkpt>
      <trkpt lat="44.72398" lon="-0.07464">
        <ele>82.81</ele>
        <time>2014-11-23T09:38:34Z</time>
      </trkpt>
      <trkpt lat="44.72379" lon="-0.07471">
        <ele>83.29</ele>
        <time>2014-11-23T09:38:50Z</time>
      </trkpt>
      <trkpt lat="44.72358" lon="-0.07477">
        <ele>83.77</ele>
        <time>2014-11-23T09:39:09Z</time>
      </trkpt>
      <trkpt lat="44.72336" lon="-0.07486">
        <ele>83.29</ele>
        <time>2014-11-23T09:39:28Z</time>
      </trkpt>
      <trkpt lat="44.72315" lon="-0.07489">
        <ele>82.33</ele>
        <time>2014-11-23T09:39:45Z</time>
      </trkpt>
      <trkpt lat="44.72297" lon="-0.0749">
        <ele>81.85</ele>
        <time>2014-11-23T09:39:59Z</time>
      </trkpt>
      <trkpt lat="44.72276" lon="-0.07494">
        <ele>81.37</ele>
        <time>2014-11-23T09:40:18Z</time>
      </trkpt>
      <trkpt lat="44.72259" lon="-0.07495">
        <ele>80.41</ele>
        <time>2014-11-23T09:40:35Z</time>
      </trkpt>
      <trkpt lat="44.72238" lon="-0.07501">
        <ele>80.41</ele>
        <time>2014-11-23T09:40:51Z</time>
      </trkpt>
      <trkpt lat="44.72215" lon="-0.07507">
        <ele>79.93</ele>
        <time>2014-11-23T09:41:10Z</time>
      </trkpt>
      <trkpt lat="44.72195" lon="-0.07511">
        <ele>79.45</ele>
        <time>2014-11-23T09:41:27Z</time>
      </trkpt>
      <trkpt lat="44.72178" lon="-0.07513">
        <ele>79.45</ele>
        <time>2014-11-23T09:41:43Z</time>
      </trkpt>
      <trkpt lat="44.72153" lon="-0.07521">
        <ele>79.45</ele>
        <time>2014-11-23T09:42:03Z</time>
      </trkpt>
      <trkpt lat="44.72132" lon="-0.07525">
        <ele>78</ele>
        <time>2014-11-23T09:42:21Z</time>
      </trkpt>
      <trkpt lat="44.72111" lon="-0.07526">
        <ele>77.04</ele>
        <time>2014-11-23T09:42:39Z</time>
      </trkpt>
      <trkpt lat="44.72101" lon="-0.07529">
        <ele>77.04</ele>
        <time>2014-11-23T09:42:50Z</time>
      </trkpt>
      <trkpt lat="44.72072" lon="-0.07536">
        <ele>75.6</ele>
        <time>2014-11-23T09:43:12Z</time>
      </trkpt>
      <trkpt lat="44.72054" lon="-0.0754">
        <ele>76.08</ele>
        <time>2014-11-23T09:43:28Z</time>
      </trkpt>
      <trkpt lat="44.72034" lon="-0.07548">
        <ele>72.72</ele>
        <time>2014-11-23T09:43:44Z</time>
      </trkpt>
      <trkpt lat="44.72015" lon="-0.07555">
        <ele>71.76</ele>
        <time>2014-11-23T09:43:59Z</time>
      </trkpt>
      <trkpt lat="44.71997" lon="-0.07561">
        <ele>70.31</ele>
        <time>2014-11-23T09:44:16Z</time>
      </trkpt>
      <trkpt lat="44.7198" lon="-0.07566">
        <ele>68.87</ele>
        <time>2014-11-23T09:44:34Z</time>
      </trkpt>
      <trkpt lat="44.71967" lon="-0.07579">
        <ele>67.43</ele>
        <time>2014-11-23T09:44:51Z</time>
      </trkpt>
      <trkpt lat="44.71962" lon="-0.07595">
        <ele>67.43</ele>
        <time>2014-11-23T09:45:07Z</time>
      </trkpt>
      <trkpt lat="44.71947" lon="-0.0761">
        <ele>66.47</ele>
        <time>2014-11-23T09:45:23Z</time>
      </trkpt>
      <trkpt lat="44.71932" lon="-0.07624">
        <ele>65.99</ele>
        <time>2014-11-23T09:45:39Z</time>
      </trkpt>
      <trkpt lat="44.71918" lon="-0.07637">
        <ele>65.99</ele>
        <time>2014-11-23T09:45:54Z</time>
      </trkpt>
      <trkpt lat="44.71903" lon="-0.07649">
        <ele>65.51</ele>
        <time>2014-11-23T09:46:07Z</time>
      </trkpt>
      <trkpt lat="44.71887" lon="-0.07657">
        <ele>65.99</ele>
        <time>2014-11-23T09:46:21Z</time>
      </trkpt>
      <trkpt lat="44.71886" lon="-0.07657">
        <ele>66.47</ele>
        <time>2014-11-23T09:46:22Z</time>
      </trkpt>
      <trkpt lat="44.71868" lon="-0.07667">
        <ele>66.95</ele>
        <time>2014-11-23T09:46:39Z</time>
      </trkpt>
      <trkpt lat="44.7185" lon="-0.07678">
        <ele>68.87</ele>
        <time>2014-11-23T09:46:58Z</time>
      </trkpt>
      <trkpt lat="44.71842" lon="-0.07684">
        <ele>68.39</ele>
        <time>2014-11-23T09:47:11Z</time>
      </trkpt>
      <trkpt lat="44.71826" lon="-0.07696">
        <ele>69.35</ele>
        <time>2014-11-23T09:47:25Z</time>
      </trkpt>
      <trkpt lat="44.71813" lon="-0.07703">
        <ele>69.83</ele>
        <time>2014-11-23T09:47:38Z</time>
      </trkpt>
      <trkpt lat="44.71795" lon="-0.07716">
        <ele>70.79</ele>
        <time>2014-11-23T09:47:54Z</time>
      </trkpt>
      <trkpt lat="44.71782" lon="-0.07725">
        <ele>71.27</ele>
        <time>2014-11-23T09:48:08Z</time>
      </trkpt>
      <trkpt lat="44.7178" lon="-0.07727">
        <ele>71.27</ele>
        <time>2014-11-23T09:48:10Z</time>
      </trkpt>
      <trkpt lat="44.71776" lon="-0.07729">
        <ele>71.27</ele>
        <time>2014-11-23T09:48:14Z</time>
      </trkpt>
      <trkpt lat="44.71759" lon="-0.07741">
        <ele>72.72</ele>
        <time>2014-11-23T09:48:31Z</time>
      </trkpt>
      <trkpt lat="44.71745" lon="-0.07749">
        <ele>72.24</ele>
        <time>2014-11-23T09:48:46Z</time>
      </trkpt>
      <trkpt lat="44.71745" lon="-0.07748">
        <ele>72.24</ele>
        <time>2014-11-23T09:49:02Z</time>
      </trkpt>
      <trkpt lat="44.71742" lon="-0.07748">
        <ele>72.72</ele>
        <time>2014-11-23T09:49:19Z</time>
      </trkpt>
      <trkpt lat="44.7174" lon="-0.07746">
        <ele>72.24</ele>
        <time>2014-11-23T09:49:22Z</time>
      </trkpt>
      <trkpt lat="44.71742" lon="-0.07736">
        <ele>73.68</ele>
        <time>2014-11-23T09:49:34Z</time>
      </trkpt>
      <trkpt lat="44.71742" lon="-0.07728">
        <ele>73.68</ele>
        <time>2014-11-23T09:49:44Z</time>
      </trkpt>
      <trkpt lat="44.71733" lon="-0.07725">
        <ele>74.64</ele>
        <time>2014-11-23T09:49:51Z</time>
      </trkpt>
      <trkpt lat="44.71727" lon="-0.07716">
        <ele>74.64</ele>
        <time>2014-11-23T09:50:04Z</time>
      </trkpt>
      <trkpt lat="44.71726" lon="-0.07717">
        <ele>74.64</ele>
        <time>2014-11-23T09:50:36Z</time>
      </trkpt>
      <trkpt lat="44.7173" lon="-0.07722">
        <ele>74.64</ele>
        <time>2014-11-23T09:50:57Z</time>
      </trkpt>
      <trkpt lat="44.71741" lon="-0.07729">
        <ele>74.16</ele>
        <time>2014-11-23T09:51:10Z</time>
      </trkpt>
      <trkpt lat="44.71751" lon="-0.07737">
        <ele>73.2</ele>
        <time>2014-11-23T09:51:24Z</time>
      </trkpt>
      <trkpt lat="44.71752" lon="-0.07741">
        <ele>72.72</ele>
        <time>2014-11-23T09:51:38Z</time>
      </trkpt>
      <trkpt lat="44.71752" lon="-0.07741">
        <ele>72.72</ele>
        <time>2014-11-23T09:51:57Z</time>
      </trkpt>
      <trkpt lat="44.71756" lon="-0.07739">
        <ele>71.76</ele>
        <time>2014-11-23T09:52:19Z</time>
      </trkpt>
      <trkpt lat="44.71758" lon="-0.0774">
        <ele>71.27</ele>
        <time>2014-11-23T09:52:31Z</time>
      </trkpt>
      <trkpt lat="44.71753" lon="-0.07739">
        <ele>72.72</ele>
        <time>2014-11-23T09:52:53Z</time>
      </trkpt>
      <trkpt lat="44.71744" lon="-0.07746">
        <ele>72.72</ele>
        <time>2014-11-23T09:53:07Z</time>
      </trkpt>
      <trkpt lat="44.71745" lon="-0.07748">
        <ele>72.72</ele>
        <time>2014-11-23T09:53:21Z</time>
      </trkpt>
      <trkpt lat="44.71746" lon="-0.07748">
        <ele>73.2</ele>
        <time>2014-11-23T09:53:45Z</time>
      </trkpt>
      <trkpt lat="44.71745" lon="-0.07748">
        <ele>70.31</ele>
        <time>2014-11-23T09:54:02Z</time>
      </trkpt>
      <trkpt lat="44.71745" lon="-0.07748">
        <ele>71.76</ele>
        <time>2014-11-23T09:54:03Z</time>
      </trkpt>
      <trkpt lat="44.71745" lon="-0.07747">
        <ele>77.04</ele>
        <time>2014-11-23T09:54:04Z</time>
      </trkpt>
      <trkpt lat="44.71745" lon="-0.07747">
        <ele>73.68</ele>
        <time>2014-11-23T09:54:05Z</time>
      </trkpt>
      <trkpt lat="44.71744" lon="-0.07749">
        <ele>73.2</ele>
        <time>2014-11-23T09:54:25Z</time>
      </trkpt>
      <trkpt lat="44.71744" lon="-0.0775">
        <ele>74.16</ele>
        <time>2014-11-23T09:54:43Z</time>
      </trkpt>
      <trkpt lat="44.71746" lon="-0.07749">
        <ele>73.2</ele>
        <time>2014-11-23T09:55:02Z</time>
      </trkpt>
      <trkpt lat="44.71745" lon="-0.07747">
        <ele>73.2</ele>
        <time>2014-11-23T09:55:19Z</time>
      </trkpt>
      <trkpt lat="44.71746" lon="-0.07745">
        <ele>73.68</ele>
        <time>2014-11-23T09:55:32Z</time>
      </trkpt>
      <trkpt lat="44.71733" lon="-0.07752">
        <ele>73.68</ele>
        <time>2014-11-23T09:55:44Z</time>
      </trkpt>
      <trkpt lat="44.71717" lon="-0.07765">
        <ele>72.72</ele>
        <time>2014-11-23T09:56:00Z</time>
      </trkpt>
      <trkpt lat="44.71694" lon="-0.07781">
        <ele>71.27</ele>
        <time>2014-11-23T09:56:22Z</time>
      </trkpt>
      <trkpt lat="44.71675" lon="-0.07795">
        <ele>69.83</ele>
        <time>2014-11-23T09:56:40Z</time>
      </trkpt>
      <trkpt lat="44.71656" lon="-0.0781">
        <ele>68.39</ele>
        <time>2014-11-23T09:56:59Z</time>
      </trkpt>
      <trkpt lat="44.71637" lon="-0.07822">
        <ele>67.43</ele>
        <time>2014-11-23T09:57:16Z</time>
      </trkpt>
      <trkpt lat="44.71631" lon="-0.07825">
        <ele>65.99</ele>
        <time>2014-11-23T09:57:22Z</time>
      </trkpt>
      <trkpt lat="44.71629" lon="-0.07827">
        <ele>67.43</ele>
        <time>2014-11-23T09:57:24Z</time>
      </trkpt>
      <trkpt lat="44.71609" lon="-0.07841">
        <ele>66.47</ele>
        <time>2014-11-23T09:57:42Z</time>
      </trkpt>
      <trkpt lat="44.71594" lon="-0.07853">
        <ele>66.47</ele>
        <time>2014-11-23T09:57:58Z</time>
      </trkpt>
      <trkpt lat="44.7157" lon="-0.07867">
        <ele>65.99</ele>
        <time>2014-11-23T09:58:20Z</time>
      </trkpt>
      <trkpt lat="44.71541" lon="-0.07882">
        <ele>66.95</ele>
        <time>2014-11-23T09:58:44Z</time>
      </trkpt>
      <trkpt lat="44.71517" lon="-0.07895">
        <ele>66.95</ele>
        <time>2014-11-23T09:59:05Z</time>
      </trkpt>
      <trkpt lat="44.71496" lon="-0.07909">
        <ele>66.95</ele>
        <time>2014-11-23T09:59:24Z</time>
      </trkpt>
      <trkpt lat="44.71479" lon="-0.07928">
        <ele>66.47</ele>
        <time>2014-11-23T09:59:43Z</time>
      </trkpt>
      <trkpt lat="44.71463" lon="-0.07948">
        <ele>65.99</ele>
        <time>2014-11-23T10:00:01Z</time>
      </trkpt>
      <trkpt lat="44.71463" lon="-0.07949">
        <ele>66.47</ele>
        <time>2014-11-23T10:00:02Z</time>
      </trkpt>
      <trkpt lat="44.71463" lon="-0.07958">
        <ele>66.47</ele>
        <time>2014-11-23T10:00:11Z</time>
      </trkpt>
      <trkpt lat="44.71465" lon="-0.07961">
        <ele>65.99</ele>
        <time>2014-11-23T10:00:13Z</time>
      </trkpt>
      <trkpt lat="44.71475" lon="-0.07978">
        <ele>65.51</ele>
        <time>2014-11-23T10:00:29Z</time>
      </trkpt>
      <trkpt lat="44.71495" lon="-0.08005">
        <ele>63.58</ele>
        <time>2014-11-23T10:00:53Z</time>
      </trkpt>
      <trkpt lat="44.71512" lon="-0.08033">
        <ele>62.62</ele>
        <time>2014-11-23T10:01:16Z</time>
      </trkpt>
      <trkpt lat="44.71524" lon="-0.08053">
        <ele>61.18</ele>
        <time>2014-11-23T10:01:34Z</time>
      </trkpt>
      <trkpt lat="44.71541" lon="-0.0808">
        <ele>59.74</ele>
        <time>2014-11-23T10:01:56Z</time>
      </trkpt>
      <trkpt lat="44.71556" lon="-0.08103">
        <ele>59.26</ele>
        <time>2014-11-23T10:02:14Z</time>
      </trkpt>
      <trkpt lat="44.71573" lon="-0.0813">
        <ele>60.22</ele>
        <time>2014-11-23T10:02:37Z</time>
      </trkpt>
      <trkpt lat="44.71584" lon="-0.08133">
        <ele>61.18</ele>
        <time>2014-11-23T10:02:55Z</time>
      </trkpt>
      <trkpt lat="44.71598" lon="-0.08134">
        <ele>61.18</ele>
        <time>2014-11-23T10:03:05Z</time>
      </trkpt>
      <trkpt lat="44.71633" lon="-0.08131">
        <ele>62.62</ele>
        <time>2014-11-23T10:03:30Z</time>
      </trkpt>
      <trkpt lat="44.71664" lon="-0.08124">
        <ele>63.1</ele>
        <time>2014-11-23T10:03:55Z</time>
      </trkpt>
      <trkpt lat="44.71687" lon="-0.08111">
        <ele>63.58</ele>
        <time>2014-11-23T10:04:16Z</time>
      </trkpt>
      <trkpt lat="44.71718" lon="-0.08097">
        <ele>64.55</ele>
        <time>2014-11-23T10:04:43Z</time>
      </trkpt>
      <trkpt lat="44.71742" lon="-0.08089">
        <ele>65.51</ele>
        <time>2014-11-23T10:05:05Z</time>
      </trkpt>
      <trkpt lat="44.71762" lon="-0.08104">
        <ele>67.43</ele>
        <time>2014-11-23T10:05:25Z</time>
      </trkpt>
      <trkpt lat="44.71776" lon="-0.08124">
        <ele>68.39</ele>
        <time>2014-11-23T10:05:44Z</time>
      </trkpt>
      <trkpt lat="44.71793" lon="-0.08138">
        <ele>69.83</ele>
        <time>2014-11-23T10:06:03Z</time>
      </trkpt>
      <trkpt lat="44.71815" lon="-0.08154">
        <ele>71.27</ele>
        <time>2014-11-23T10:06:25Z</time>
      </trkpt>
      <trkpt lat="44.71834" lon="-0.08167">
        <ele>72.24</ele>
        <time>2014-11-23T10:06:44Z</time>
      </trkpt>
      <trkpt lat="44.71852" lon="-0.08174">
        <ele>75.12</ele>
        <time>2014-11-23T10:07:03Z</time>
      </trkpt>
      <trkpt lat="44.71855" lon="-0.08175">
        <ele>75.12</ele>
        <time>2014-11-23T10:07:06Z</time>
      </trkpt>
      <trkpt lat="44.71872" lon="-0.08178">
        <ele>76.08</ele>
        <time>2014-11-23T10:07:23Z</time>
      </trkpt>
      <trkpt lat="44.71875" lon="-0.0818">
        <ele>76.08</ele>
        <time>2014-11-23T10:07:27Z</time>
      </trkpt>
      <trkpt lat="44.71904" lon="-0.0819">
        <ele>77.52</ele>
        <time>2014-11-23T10:07:49Z</time>
      </trkpt>
      <trkpt lat="44.71926" lon="-0.08207">
        <ele>77.52</ele>
        <time>2014-11-23T10:08:11Z</time>
      </trkpt>
      <trkpt lat="44.71934" lon="-0.08211">
        <ele>77.52</ele>
        <time>2014-11-23T10:08:25Z</time>
      </trkpt>
      <trkpt lat="44.71933" lon="-0.08214">
        <ele>77.52</ele>
        <time>2014-11-23T10:08:36Z</time>
      </trkpt>
      <trkpt lat="44.71944" lon="-0.08231">
        <ele>78</ele>
        <time>2014-11-23T10:08:53Z</time>
      </trkpt>
      <trkpt lat="44.71963" lon="-0.08259">
        <ele>78</ele>
        <time>2014-11-23T10:09:15Z</time>
      </trkpt>
      <trkpt lat="44.71976" lon="-0.08278">
        <ele>78.48</ele>
        <time>2014-11-23T10:09:31Z</time>
      </trkpt>
      <trkpt lat="44.71978" lon="-0.08282">
        <ele>78</ele>
        <time>2014-11-23T10:09:34Z</time>
      </trkpt>
      <trkpt lat="44.71992" lon="-0.08309">
        <ele>78.97</ele>
        <time>2014-11-23T10:09:56Z</time>
      </trkpt>
      <trkpt lat="44.72004" lon="-0.08325">
        <ele>79.45</ele>
        <time>2014-11-23T10:10:13Z</time>
      </trkpt>
      <trkpt lat="44.72011" lon="-0.08331">
        <ele>79.93</ele>
        <time>2014-11-23T10:10:28Z</time>
      </trkpt>
      <trkpt lat="44.72014" lon="-0.08331">
        <ele>80.41</ele>
        <time>2014-11-23T10:10:55Z</time>
      </trkpt>
      <trkpt lat="44.7201" lon="-0.08333">
        <ele>79.93</ele>
        <time>2014-11-23T10:11:11Z</time>
      </trkpt>
      <trkpt lat="44.72014" lon="-0.08334">
        <ele>79.45</ele>
        <time>2014-11-23T10:11:26Z</time>
      </trkpt>
      <trkpt lat="44.72035" lon="-0.08328">
        <ele>78.48</ele>
        <time>2014-11-23T10:11:44Z</time>
      </trkpt>
      <trkpt lat="44.72052" lon="-0.08319">
        <ele>80.89</ele>
        <time>2014-11-23T10:11:59Z</time>
      </trkpt>
      <trkpt lat="44.72062" lon="-0.08334">
        <ele>80.41</ele>
        <time>2014-11-23T10:12:14Z</time>
      </trkpt>
      <trkpt lat="44.72073" lon="-0.08356">
        <ele>79.93</ele>
        <time>2014-11-23T10:12:29Z</time>
      </trkpt>
      <trkpt lat="44.72085" lon="-0.08374">
        <ele>79.45</ele>
        <time>2014-11-23T10:12:44Z</time>
      </trkpt>
      <trkpt lat="44.72101" lon="-0.08396">
        <ele>79.45</ele>
        <time>2014-11-23T10:13:02Z</time>
      </trkpt>
      <trkpt lat="44.72115" lon="-0.08415">
        <ele>78.48</ele>
        <time>2014-11-23T10:13:19Z</time>
      </trkpt>
      <trkpt lat="44.72132" lon="-0.08428">
        <ele>77.52</ele>
        <time>2014-11-23T10:13:36Z</time>
      </trkpt>
      <trkpt lat="44.72145" lon="-0.08442">
        <ele>76.56</ele>
        <time>2014-11-23T10:13:54Z</time>
      </trkpt>
      <trkpt lat="44.72165" lon="-0.08457">
        <ele>75.12</ele>
        <time>2014-11-23T10:14:13Z</time>
      </trkpt>
      <trkpt lat="44.72184" lon="-0.08474">
        <ele>74.64</ele>
        <time>2014-11-23T10:14:31Z</time>
      </trkpt>
      <trkpt lat="44.72199" lon="-0.08489">
        <ele>73.2</ele>
        <time>2014-11-23T10:14:48Z</time>
      </trkpt>
      <trkpt lat="44.72215" lon="-0.08513">
        <ele>71.27</ele>
        <time>2014-11-23T10:15:07Z</time>
      </trkpt>
      <trkpt lat="44.72225" lon="-0.08533">
        <ele>70.79</ele>
        <time>2014-11-23T10:15:24Z</time>
      </trkpt>
      <trkpt lat="44.72234" lon="-0.08552">
        <ele>69.83</ele>
        <time>2014-11-23T10:15:42Z</time>
      </trkpt>
      <trkpt lat="44.72248" lon="-0.0856">
        <ele>69.83</ele>
        <time>2014-11-23T10:16:00Z</time>
      </trkpt>
      <trkpt lat="44.72266" lon="-0.08561">
        <ele>69.83</ele>
        <time>2014-11-23T10:16:14Z</time>
      </trkpt>
      <trkpt lat="44.72287" lon="-0.08563">
        <ele>69.83</ele>
        <time>2014-11-23T10:16:31Z</time>
      </trkpt>
      <trkpt lat="44.72309" lon="-0.08569">
        <ele>69.83</ele>
        <time>2014-11-23T10:16:51Z</time>
      </trkpt>
      <trkpt lat="44.72329" lon="-0.08573">
        <ele>70.31</ele>
        <time>2014-11-23T10:17:09Z</time>
      </trkpt>
      <trkpt lat="44.72347" lon="-0.08583">
        <ele>70.79</ele>
        <time>2014-11-23T10:17:26Z</time>
      </trkpt>
      <trkpt lat="44.72359" lon="-0.08593">
        <ele>70.79</ele>
        <time>2014-11-23T10:17:41Z</time>
      </trkpt>
      <trkpt lat="44.72366" lon="-0.08596">
        <ele>71.27</ele>
        <time>2014-11-23T10:17:48Z</time>
      </trkpt>
      <trkpt lat="44.72385" lon="-0.08602">
        <ele>71.76</ele>
        <time>2014-11-23T10:18:05Z</time>
      </trkpt>
      <trkpt lat="44.72386" lon="-0.08604">
        <ele>71.76</ele>
        <time>2014-11-23T10:18:20Z</time>
      </trkpt>
      <trkpt lat="44.72387" lon="-0.08607">
        <ele>71.27</ele>
        <time>2014-11-23T10:18:45Z</time>
      </trkpt>
      <trkpt lat="44.72387" lon="-0.08608">
        <ele>71.27</ele>
        <time>2014-11-23T10:19:08Z</time>
      </trkpt>
      <trkpt lat="44.72386" lon="-0.08604">
        <ele>71.76</ele>
        <time>2014-11-23T10:19:24Z</time>
      </trkpt>
      <trkpt lat="44.72394" lon="-0.08608">
        <ele>71.76</ele>
        <time>2014-11-23T10:19:33Z</time>
      </trkpt>
      <trkpt lat="44.72414" lon="-0.08609">
        <ele>71.27</ele>
        <time>2014-11-23T10:19:50Z</time>
      </trkpt>
      <trkpt lat="44.72428" lon="-0.08611">
        <ele>71.27</ele>
        <time>2014-11-23T10:20:03Z</time>
      </trkpt>
      <trkpt lat="44.72443" lon="-0.08615">
        <ele>71.76</ele>
        <time>2014-11-23T10:20:17Z</time>
      </trkpt>
      <trkpt lat="44.72461" lon="-0.08621">
        <ele>72.24</ele>
        <time>2014-11-23T10:20:33Z</time>
      </trkpt>
      <trkpt lat="44.7248" lon="-0.08625">
        <ele>72.24</ele>
        <time>2014-11-23T10:20:52Z</time>
      </trkpt>
      <trkpt lat="44.72494" lon="-0.0863">
        <ele>72.72</ele>
        <time>2014-11-23T10:21:08Z</time>
      </trkpt>
      <trkpt lat="44.72503" lon="-0.08634">
        <ele>73.2</ele>
        <time>2014-11-23T10:21:20Z</time>
      </trkpt>
      <trkpt lat="44.72525" lon="-0.08634">
        <ele>73.68</ele>
        <time>2014-11-23T10:21:35Z</time>
      </trkpt>
      <trkpt lat="44.7254" lon="-0.08636">
        <ele>74.64</ele>
        <time>2014-11-23T10:21:50Z</time>
      </trkpt>
      <trkpt lat="44.72545" lon="-0.08637">
        <ele>74.64</ele>
        <time>2014-11-23T10:21:54Z</time>
      </trkpt>
      <trkpt lat="44.72566" lon="-0.08641">
        <ele>75.6</ele>
        <time>2014-11-23T10:22:09Z</time>
      </trkpt>
      <trkpt lat="44.72586" lon="-0.08645">
        <ele>77.04</ele>
        <time>2014-11-23T10:22:26Z</time>
      </trkpt>
      <trkpt lat="44.72603" lon="-0.08648">
        <ele>78</ele>
        <time>2014-11-23T10:22:44Z</time>
      </trkpt>
      <trkpt lat="44.72624" lon="-0.08655">
        <ele>78.48</ele>
        <time>2014-11-23T10:23:01Z</time>
      </trkpt>
      <trkpt lat="44.72641" lon="-0.08662">
        <ele>78.97</ele>
        <time>2014-11-23T10:23:17Z</time>
      </trkpt>
      <trkpt lat="44.72661" lon="-0.08668">
        <ele>79.45</ele>
        <time>2014-11-23T10:23:36Z</time>
      </trkpt>
      <trkpt lat="44.72676" lon="-0.08678">
        <ele>80.41</ele>
        <time>2014-11-23T10:23:54Z</time>
      </trkpt>
      <trkpt lat="44.72697" lon="-0.08685">
        <ele>81.85</ele>
        <time>2014-11-23T10:24:14Z</time>
      </trkpt>
      <trkpt lat="44.72719" lon="-0.08693">
        <ele>82.81</ele>
        <time>2014-11-23T10:24:32Z</time>
      </trkpt>
      <trkpt lat="44.72738" lon="-0.087">
        <ele>83.77</ele>
        <time>2014-11-23T10:24:49Z</time>
      </trkpt>
      <trkpt lat="44.72754" lon="-0.08707">
        <ele>84.25</ele>
        <time>2014-11-23T10:25:06Z</time>
      </trkpt>
      <trkpt lat="44.72777" lon="-0.08718">
        <ele>84.73</ele>
        <time>2014-11-23T10:25:23Z</time>
      </trkpt>
      <trkpt lat="44.72794" lon="-0.08726">
        <ele>85.21</ele>
        <time>2014-11-23T10:25:42Z</time>
      </trkpt>
      <trkpt lat="44.72815" lon="-0.08731">
        <ele>86.18</ele>
        <time>2014-11-23T10:25:59Z</time>
      </trkpt>
      <trkpt lat="44.7284" lon="-0.08743">
        <ele>87.62</ele>
        <time>2014-11-23T10:26:19Z</time>
      </trkpt>
      <trkpt lat="44.72855" lon="-0.08745">
        <ele>88.58</ele>
        <time>2014-11-23T10:26:34Z</time>
      </trkpt>
      <trkpt lat="44.72874" lon="-0.0874">
        <ele>89.54</ele>
        <time>2014-11-23T10:26:51Z</time>
      </trkpt>
      <trkpt lat="44.72889" lon="-0.08738">
        <ele>90.02</ele>
        <time>2014-11-23T10:27:06Z</time>
      </trkpt>
      <trkpt lat="44.72909" lon="-0.08733">
        <ele>90.98</ele>
        <time>2014-11-23T10:27:24Z</time>
      </trkpt>
      <trkpt lat="44.72914" lon="-0.08732">
        <ele>90.5</ele>
        <time>2014-11-23T10:27:28Z</time>
      </trkpt>
      <trkpt lat="44.72932" lon="-0.08723">
        <ele>91.46</ele>
        <time>2014-11-23T10:27:47Z</time>
      </trkpt>
      <trkpt lat="44.72951" lon="-0.08709">
        <ele>91.46</ele>
        <time>2014-11-23T10:28:04Z</time>
      </trkpt>
      <trkpt lat="44.7297" lon="-0.08695">
        <ele>90.5</ele>
        <time>2014-11-23T10:28:23Z</time>
      </trkpt>
      <trkpt lat="44.72984" lon="-0.0869">
        <ele>90.5</ele>
        <time>2014-11-23T10:28:39Z</time>
      </trkpt>
      <trkpt lat="44.72982" lon="-0.08675">
        <ele>90.5</ele>
        <time>2014-11-23T10:28:55Z</time>
      </trkpt>
      <trkpt lat="44.7298" lon="-0.08672">
        <ele>90.5</ele>
        <time>2014-11-23T10:29:33Z</time>
      </trkpt>
      <trkpt lat="44.72984" lon="-0.08689">
        <ele>90.98</ele>
        <time>2014-11-23T10:30:01Z</time>
      </trkpt>
      <trkpt lat="44.72984" lon="-0.08696">
        <ele>90.98</ele>
        <time>2014-11-23T10:30:17Z</time>
      </trkpt>
      <trkpt lat="44.72985" lon="-0.08696">
        <ele>90.98</ele>
        <time>2014-11-23T10:30:39Z</time>
      </trkpt>
      <trkpt lat="44.72984" lon="-0.08695">
        <ele>90.98</ele>
        <time>2014-11-23T10:31:01Z</time>
      </trkpt>
      <trkpt lat="44.72985" lon="-0.08699">
        <ele>90.98</ele>
        <time>2014-11-23T10:31:25Z</time>
      </trkpt>
      <trkpt lat="44.72985" lon="-0.08699">
        <ele>90.98</ele>
        <time>2014-11-23T10:31:48Z</time>
      </trkpt>
      <trkpt lat="44.72986" lon="-0.08695">
        <ele>91.46</ele>
        <time>2014-11-23T10:32:09Z</time>
      </trkpt>
      <trkpt lat="44.72986" lon="-0.08695">
        <ele>90.98</ele>
        <time>2014-11-23T10:32:27Z</time>
      </trkpt>
      <trkpt lat="44.72986" lon="-0.08694">
        <ele>91.94</ele>
        <time>2014-11-23T10:32:53Z</time>
      </trkpt>
      <trkpt lat="44.72986" lon="-0.08698">
        <ele>91.94</ele>
        <time>2014-11-23T10:33:17Z</time>
      </trkpt>
      <trkpt lat="44.72987" lon="-0.087">
        <ele>91.94</ele>
        <time>2014-11-23T10:33:39Z</time>
      </trkpt>
      <trkpt lat="44.72988" lon="-0.08701">
        <ele>91.94</ele>
        <time>2014-11-23T10:34:01Z</time>
      </trkpt>
      <trkpt lat="44.72988" lon="-0.08701">
        <ele>91.94</ele>
        <time>2014-11-23T10:34:24Z</time>
      </trkpt>
      <trkpt lat="44.72985" lon="-0.08701">
        <ele>91.94</ele>
        <time>2014-11-23T10:34:40Z</time>
      </trkpt>
      <trkpt lat="44.72985" lon="-0.08701">
        <ele>92.42</ele>
        <time>2014-11-23T10:34:56Z</time>
      </trkpt>
      <trkpt lat="44.72984" lon="-0.08704">
        <ele>92.9</ele>
        <time>2014-11-23T10:35:19Z</time>
      </trkpt>
      <trkpt lat="44.72985" lon="-0.08705">
        <ele>91.94</ele>
        <time>2014-11-23T10:35:42Z</time>
      </trkpt>
      <trkpt lat="44.72987" lon="-0.08712">
        <ele>92.42</ele>
        <time>2014-11-23T10:35:58Z</time>
      </trkpt>
      <trkpt lat="44.72988" lon="-0.08729">
        <ele>92.9</ele>
        <time>2014-11-23T10:36:12Z</time>
      </trkpt>
      <trkpt lat="44.72988" lon="-0.08748">
        <ele>93.39</ele>
        <time>2014-11-23T10:36:26Z</time>
      </trkpt>
      <trkpt lat="44.72986" lon="-0.08768">
        <ele>93.39</ele>
        <time>2014-11-23T10:36:41Z</time>
      </trkpt>
      <trkpt lat="44.72986" lon="-0.08792">
        <ele>94.35</ele>
        <time>2014-11-23T10:36:58Z</time>
      </trkpt>
      <trkpt lat="44.72983" lon="-0.08817">
        <ele>94.83</ele>
        <time>2014-11-23T10:37:15Z</time>
      </trkpt>
      <trkpt lat="44.72982" lon="-0.08836">
        <ele>94.83</ele>
        <time>2014-11-23T10:37:28Z</time>
      </trkpt>
      <trkpt lat="44.72982" lon="-0.08861">
        <ele>95.31</ele>
        <time>2014-11-23T10:37:44Z</time>
      </trkpt>
      <trkpt lat="44.72981" lon="-0.08883">
        <ele>95.31</ele>
        <time>2014-11-23T10:37:59Z</time>
      </trkpt>
      <trkpt lat="44.72981" lon="-0.08907">
        <ele>94.83</ele>
        <time>2014-11-23T10:38:15Z</time>
      </trkpt>
      <trkpt lat="44.72978" lon="-0.08934">
        <ele>95.31</ele>
        <time>2014-11-23T10:38:33Z</time>
      </trkpt>
      <trkpt lat="44.72977" lon="-0.08962">
        <ele>94.83</ele>
        <time>2014-11-23T10:38:50Z</time>
      </trkpt>
      <trkpt lat="44.72976" lon="-0.08992">
        <ele>94.83</ele>
        <time>2014-11-23T10:39:09Z</time>
      </trkpt>
      <trkpt lat="44.72974" lon="-0.09018">
        <ele>93.87</ele>
        <time>2014-11-23T10:39:26Z</time>
      </trkpt>
      <trkpt lat="44.72972" lon="-0.09041">
        <ele>93.39</ele>
        <time>2014-11-23T10:39:42Z</time>
      </trkpt>
      <trkpt lat="44.7297" lon="-0.09067">
        <ele>92.9</ele>
        <time>2014-11-23T10:39:59Z</time>
      </trkpt>
      <trkpt lat="44.72974" lon="-0.0907">
        <ele>92.42</ele>
        <time>2014-11-23T10:40:12Z</time>
      </trkpt>
      <trkpt lat="44.72991" lon="-0.09062">
        <ele>91.46</ele>
        <time>2014-11-23T10:40:29Z</time>
      </trkpt>
      <trkpt lat="44.72992" lon="-0.09062">
        <ele>91.46</ele>
        <time>2014-11-23T10:40:30Z</time>
      </trkpt>
      <trkpt lat="44.7301" lon="-0.09052">
        <ele>91.46</ele>
        <time>2014-11-23T10:40:48Z</time>
      </trkpt>
      <trkpt lat="44.73034" lon="-0.09043">
        <ele>90.98</ele>
        <time>2014-11-23T10:41:07Z</time>
      </trkpt>
      <trkpt lat="44.73055" lon="-0.09033">
        <ele>90.5</ele>
        <time>2014-11-23T10:41:29Z</time>
      </trkpt>
      <trkpt lat="44.73078" lon="-0.09022">
        <ele>89.54</ele>
        <time>2014-11-23T10:41:50Z</time>
      </trkpt>
      <trkpt lat="44.73085" lon="-0.09019">
        <ele>89.54</ele>
        <time>2014-11-23T10:41:56Z</time>
      </trkpt>
      <trkpt lat="44.73104" lon="-0.09024">
        <ele>88.58</ele>
        <time>2014-11-23T10:42:12Z</time>
      </trkpt>
      <trkpt lat="44.73126" lon="-0.09028">
        <ele>87.62</ele>
        <time>2014-11-23T10:42:31Z</time>
      </trkpt>
      <trkpt lat="44.73152" lon="-0.09032">
        <ele>87.62</ele>
        <time>2014-11-23T10:42:50Z</time>
      </trkpt>
      <trkpt lat="44.73169" lon="-0.09039">
        <ele>86.66</ele>
        <time>2014-11-23T10:43:08Z</time>
      </trkpt>
      <trkpt lat="44.73189" lon="-0.09042">
        <ele>86.18</ele>
        <time>2014-11-23T10:43:26Z</time>
      </trkpt>
      <trkpt lat="44.73208" lon="-0.09049">
        <ele>84.73</ele>
        <time>2014-11-23T10:43:43Z</time>
      </trkpt>
      <trkpt lat="44.73225" lon="-0.09052">
        <ele>83.29</ele>
        <time>2014-11-23T10:43:59Z</time>
      </trkpt>
      <trkpt lat="44.73245" lon="-0.09057">
        <ele>81.85</ele>
        <time>2014-11-23T10:44:18Z</time>
      </trkpt>
      <trkpt lat="44.73266" lon="-0.09062">
        <ele>79.93</ele>
        <time>2014-11-23T10:44:36Z</time>
      </trkpt>
      <trkpt lat="44.73285" lon="-0.09066">
        <ele>78.48</ele>
        <time>2014-11-23T10:44:53Z</time>
      </trkpt>
      <trkpt lat="44.73307" lon="-0.09068">
        <ele>78</ele>
        <time>2014-11-23T10:45:12Z</time>
      </trkpt>
      <trkpt lat="44.73331" lon="-0.0907">
        <ele>78</ele>
        <time>2014-11-23T10:45:33Z</time>
      </trkpt>
      <trkpt lat="44.73359" lon="-0.0907">
        <ele>78</ele>
        <time>2014-11-23T10:45:56Z</time>
      </trkpt>
      <trkpt lat="44.73383" lon="-0.09071">
        <ele>77.04</ele>
        <time>2014-11-23T10:46:15Z</time>
      </trkpt>
      <trkpt lat="44.73405" lon="-0.09072">
        <ele>76.56</ele>
        <time>2014-11-23T10:46:34Z</time>
      </trkpt>
      <trkpt lat="44.73428" lon="-0.09075">
        <ele>77.52</ele>
        <time>2014-11-23T10:46:53Z</time>
      </trkpt>
      <trkpt lat="44.73452" lon="-0.09079">
        <ele>77.52</ele>
        <time>2014-11-23T10:47:14Z</time>
      </trkpt>
      <trkpt lat="44.73474" lon="-0.09084">
        <ele>77.04</ele>
        <time>2014-11-23T10:47:32Z</time>
      </trkpt>
      <trkpt lat="44.73494" lon="-0.09091">
        <ele>76.56</ele>
        <time>2014-11-23T10:47:49Z</time>
      </trkpt>
      <trkpt lat="44.73516" lon="-0.09109">
        <ele>76.56</ele>
        <time>2014-11-23T10:48:09Z</time>
      </trkpt>
      <trkpt lat="44.73519" lon="-0.09116">
        <ele>76.08</ele>
        <time>2014-11-23T10:48:14Z</time>
      </trkpt>
      <trkpt lat="44.73535" lon="-0.09149">
        <ele>76.08</ele>
        <time>2014-11-23T10:48:38Z</time>
      </trkpt>
      <trkpt lat="44.73548" lon="-0.09177">
        <ele>75.12</ele>
        <time>2014-11-23T10:48:59Z</time>
      </trkpt>
      <trkpt lat="44.73559" lon="-0.09203">
        <ele>74.16</ele>
        <time>2014-11-23T10:49:19Z</time>
      </trkpt>
      <trkpt lat="44.73561" lon="-0.09206">
        <ele>74.64</ele>
        <time>2014-11-23T10:49:21Z</time>
      </trkpt>
      <trkpt lat="44.7357" lon="-0.09228">
        <ele>73.68</ele>
        <time>2014-11-23T10:49:38Z</time>
      </trkpt>
      <trkpt lat="44.73581" lon="-0.09257">
        <ele>73.2</ele>
        <time>2014-11-23T10:49:59Z</time>
      </trkpt>
      <trkpt lat="44.7359" lon="-0.09281">
        <ele>72.72</ele>
        <time>2014-11-23T10:50:17Z</time>
      </trkpt>
      <trkpt lat="44.73604" lon="-0.09309">
        <ele>71.76</ele>
        <time>2014-11-23T10:50:37Z</time>
      </trkpt>
      <trkpt lat="44.73608" lon="-0.09335">
        <ele>70.79</ele>
        <time>2014-11-23T10:50:55Z</time>
      </trkpt>
      <trkpt lat="44.73604" lon="-0.0934">
        <ele>71.76</ele>
        <time>2014-11-23T10:51:00Z</time>
      </trkpt>
      <trkpt lat="44.73599" lon="-0.09347">
        <ele>71.27</ele>
        <time>2014-11-23T10:51:05Z</time>
      </trkpt>
      <trkpt lat="44.73574" lon="-0.09373">
        <ele>69.83</ele>
        <time>2014-11-23T10:51:29Z</time>
      </trkpt>
      <trkpt lat="44.73564" lon="-0.09384">
        <ele>70.31</ele>
        <time>2014-11-23T10:51:44Z</time>
      </trkpt>
      <trkpt lat="44.73544" lon="-0.09411">
        <ele>69.35</ele>
        <time>2014-11-23T10:52:06Z</time>
      </trkpt>
      <trkpt lat="44.73527" lon="-0.09432">
        <ele>68.87</ele>
        <time>2014-11-23T10:52:25Z</time>
      </trkpt>
      <trkpt lat="44.73512" lon="-0.09452">
        <ele>68.87</ele>
        <time>2014-11-23T10:52:42Z</time>
      </trkpt>
      <trkpt lat="44.73496" lon="-0.09477">
        <ele>68.39</ele>
        <time>2014-11-23T10:53:02Z</time>
      </trkpt>
      <trkpt lat="44.73481" lon="-0.09506">
        <ele>67.43</ele>
        <time>2014-11-23T10:53:23Z</time>
      </trkpt>
      <trkpt lat="44.73472" lon="-0.09531">
        <ele>66.95</ele>
        <time>2014-11-23T10:53:41Z</time>
      </trkpt>
      <trkpt lat="44.73467" lon="-0.09547">
        <ele>67.43</ele>
        <time>2014-11-23T10:53:54Z</time>
      </trkpt>
      <trkpt lat="44.7347" lon="-0.0955">
        <ele>67.43</ele>
        <time>2014-11-23T10:53:58Z</time>
      </trkpt>
      <trkpt lat="44.73494" lon="-0.09551">
        <ele>67.43</ele>
        <time>2014-11-23T10:54:19Z</time>
      </trkpt>
      <trkpt lat="44.73506" lon="-0.09552">
        <ele>67.43</ele>
        <time>2014-11-23T10:54:33Z</time>
      </trkpt>
      <trkpt lat="44.73507" lon="-0.09552">
        <ele>67.43</ele>
        <time>2014-11-23T10:54:35Z</time>
      </trkpt>
      <trkpt lat="44.7351" lon="-0.09552">
        <ele>67.43</ele>
        <time>2014-11-23T10:54:37Z</time>
      </trkpt>
      <trkpt lat="44.73511" lon="-0.09551">
        <ele>67.43</ele>
        <time>2014-11-23T10:54:39Z</time>
      </trkpt>
      <trkpt lat="44.73536" lon="-0.09563">
        <ele>67.91</ele>
        <time>2014-11-23T10:55:01Z</time>
      </trkpt>
      <trkpt lat="44.73559" lon="-0.0958">
        <ele>68.39</ele>
        <time>2014-11-23T10:55:20Z</time>
      </trkpt>
      <trkpt lat="44.73575" lon="-0.0959">
        <ele>67.91</ele>
        <time>2014-11-23T10:55:34Z</time>
      </trkpt>
      <trkpt lat="44.73599" lon="-0.09597">
        <ele>67.43</ele>
        <time>2014-11-23T10:55:55Z</time>
      </trkpt>
      <trkpt lat="44.73623" lon="-0.096">
        <ele>68.39</ele>
        <time>2014-11-23T10:56:15Z</time>
      </trkpt>
      <trkpt lat="44.73632" lon="-0.09602">
        <ele>68.39</ele>
        <time>2014-11-23T10:56:27Z</time>
      </trkpt>
      <trkpt lat="44.73648" lon="-0.09606">
        <ele>69.35</ele>
        <time>2014-11-23T10:56:41Z</time>
      </trkpt>
      <trkpt lat="44.73672" lon="-0.09613">
        <ele>68.39</ele>
        <time>2014-11-23T10:57:00Z</time>
      </trkpt>
      <trkpt lat="44.73692" lon="-0.09619">
        <ele>68.39</ele>
        <time>2014-11-23T10:57:17Z</time>
      </trkpt>
      <trkpt lat="44.73717" lon="-0.09626">
        <ele>68.39</ele>
        <time>2014-11-23T10:57:35Z</time>
      </trkpt>
      <trkpt lat="44.73737" lon="-0.09645">
        <ele>68.39</ele>
        <time>2014-11-23T10:57:55Z</time>
      </trkpt>
      <trkpt lat="44.73757" lon="-0.09665">
        <ele>68.39</ele>
        <time>2014-11-23T10:58:16Z</time>
      </trkpt>
      <trkpt lat="44.73784" lon="-0.0968">
        <ele>69.35</ele>
        <time>2014-11-23T10:58:38Z</time>
      </trkpt>
      <trkpt lat="44.73805" lon="-0.09696">
        <ele>69.83</ele>
        <time>2014-11-23T10:58:57Z</time>
      </trkpt>
      <trkpt lat="44.73823" lon="-0.09719">
        <ele>70.79</ele>
        <time>2014-11-23T10:59:16Z</time>
      </trkpt>
      <trkpt lat="44.7384" lon="-0.09741">
        <ele>70.31</ele>
        <time>2014-11-23T10:59:35Z</time>
      </trkpt>
      <trkpt lat="44.73861" lon="-0.09757">
        <ele>71.76</ele>
        <time>2014-11-23T10:59:55Z</time>
      </trkpt>
      <trkpt lat="44.73879" lon="-0.09764">
        <ele>72.24</ele>
        <time>2014-11-23T11:00:11Z</time>
      </trkpt>
      <trkpt lat="44.73886" lon="-0.09774">
        <ele>71.76</ele>
        <time>2014-11-23T11:00:26Z</time>
      </trkpt>
      <trkpt lat="44.73885" lon="-0.09772">
        <ele>72.72</ele>
        <time>2014-11-23T11:00:43Z</time>
      </trkpt>
      <trkpt lat="44.7389" lon="-0.09775">
        <ele>72.24</ele>
        <time>2014-11-23T11:00:54Z</time>
      </trkpt>
      <trkpt lat="44.739" lon="-0.09777">
        <ele>72.72</ele>
        <time>2014-11-23T11:01:11Z</time>
      </trkpt>
      <trkpt lat="44.73922" lon="-0.09788">
        <ele>72.72</ele>
        <time>2014-11-23T11:01:31Z</time>
      </trkpt>
      <trkpt lat="44.73949" lon="-0.09802">
        <ele>72.24</ele>
        <time>2014-11-23T11:01:55Z</time>
      </trkpt>
      <trkpt lat="44.73971" lon="-0.09813">
        <ele>71.76</ele>
        <time>2014-11-23T11:02:13Z</time>
      </trkpt>
      <trkpt lat="44.7399" lon="-0.09825">
        <ele>71.27</ele>
        <time>2014-11-23T11:02:31Z</time>
      </trkpt>
      <trkpt lat="44.74003" lon="-0.09832">
        <ele>71.27</ele>
        <time>2014-11-23T11:02:52Z</time>
      </trkpt>
      <trkpt lat="44.74015" lon="-0.09838">
        <ele>70.31</ele>
        <time>2014-11-23T11:03:08Z</time>
      </trkpt>
      <trkpt lat="44.74036" lon="-0.09846">
        <ele>69.83</ele>
        <time>2014-11-23T11:03:28Z</time>
      </trkpt>
      <trkpt lat="44.74059" lon="-0.09855">
        <ele>68.87</ele>
        <time>2014-11-23T11:03:48Z</time>
      </trkpt>
      <trkpt lat="44.74076" lon="-0.0986">
        <ele>69.83</ele>
        <time>2014-11-23T11:04:04Z</time>
      </trkpt>
      <trkpt lat="44.74082" lon="-0.09861">
        <ele>69.35</ele>
        <time>2014-11-23T11:04:19Z</time>
      </trkpt>
      <trkpt lat="44.74089" lon="-0.09864">
        <ele>68.87</ele>
        <time>2014-11-23T11:04:26Z</time>
      </trkpt>
      <trkpt lat="44.74104" lon="-0.09867">
        <ele>67.91</ele>
        <time>2014-11-23T11:04:43Z</time>
      </trkpt>
      <trkpt lat="44.74104" lon="-0.09867">
        <ele>68.87</ele>
        <time>2014-11-23T11:04:57Z</time>
      </trkpt>
      <trkpt lat="44.74107" lon="-0.09867">
        <ele>69.35</ele>
        <time>2014-11-23T11:05:15Z</time>
      </trkpt>
      <trkpt lat="44.74111" lon="-0.09866">
        <ele>68.87</ele>
        <time>2014-11-23T11:05:34Z</time>
      </trkpt>
      <trkpt lat="44.74136" lon="-0.09876">
        <ele>69.35</ele>
        <time>2014-11-23T11:05:52Z</time>
      </trkpt>
      <trkpt lat="44.74161" lon="-0.09884">
        <ele>68.87</ele>
        <time>2014-11-23T11:06:09Z</time>
      </trkpt>
      <trkpt lat="44.74185" lon="-0.09892">
        <ele>68.39</ele>
        <time>2014-11-23T11:06:28Z</time>
      </trkpt>
      <trkpt lat="44.74193" lon="-0.099">
        <ele>67.91</ele>
        <time>2014-11-23T11:06:42Z</time>
      </trkpt>
      <trkpt lat="44.74208" lon="-0.09921">
        <ele>65.99</ele>
        <time>2014-11-23T11:06:59Z</time>
      </trkpt>
      <trkpt lat="44.74224" lon="-0.09949">
        <ele>64.55</ele>
        <time>2014-11-23T11:07:20Z</time>
      </trkpt>
      <trkpt lat="44.74233" lon="-0.09965">
        <ele>63.1</ele>
        <time>2014-11-23T11:07:37Z</time>
      </trkpt>
      <trkpt lat="44.74235" lon="-0.09967">
        <ele>63.58</ele>
        <time>2014-11-23T11:07:39Z</time>
      </trkpt>
      <trkpt lat="44.74251" lon="-0.09998">
        <ele>62.62</ele>
        <time>2014-11-23T11:08:01Z</time>
      </trkpt>
      <trkpt lat="44.74266" lon="-0.10009">
        <ele>62.62</ele>
        <time>2014-11-23T11:08:17Z</time>
      </trkpt>
      <trkpt lat="44.74274" lon="-0.1001">
        <ele>64.07</ele>
        <time>2014-11-23T11:08:31Z</time>
      </trkpt>
      <trkpt lat="44.74273" lon="-0.10002">
        <ele>63.1</ele>
        <time>2014-11-23T11:08:43Z</time>
      </trkpt>
      <trkpt lat="44.74275" lon="-0.10006">
        <ele>63.58</ele>
        <time>2014-11-23T11:09:02Z</time>
      </trkpt>
      <trkpt lat="44.74281" lon="-0.10004">
        <ele>63.58</ele>
        <time>2014-11-23T11:09:22Z</time>
      </trkpt>
      <trkpt lat="44.74283" lon="-0.10004">
        <ele>62.62</ele>
        <time>2014-11-23T11:09:43Z</time>
      </trkpt>
      <trkpt lat="44.74278" lon="-0.10007">
        <ele>63.58</ele>
        <time>2014-11-23T11:10:01Z</time>
      </trkpt>
      <trkpt lat="44.74275" lon="-0.10008">
        <ele>63.58</ele>
        <time>2014-11-23T11:10:26Z</time>
      </trkpt>
      <trkpt lat="44.74273" lon="-0.10009">
        <ele>63.58</ele>
        <time>2014-11-23T11:10:45Z</time>
      </trkpt>
      <trkpt lat="44.74274" lon="-0.10008">
        <ele>63.58</ele>
        <time>2014-11-23T11:11:02Z</time>
      </trkpt>
      <trkpt lat="44.74274" lon="-0.10009">
        <ele>63.1</ele>
        <time>2014-11-23T11:11:20Z</time>
      </trkpt>
      <trkpt lat="44.74273" lon="-0.1001">
        <ele>63.1</ele>
        <time>2014-11-23T11:11:40Z</time>
      </trkpt>
      <trkpt lat="44.74277" lon="-0.1001">
        <ele>63.58</ele>
        <time>2014-11-23T11:11:58Z</time>
      </trkpt>
      <trkpt lat="44.74274" lon="-0.10016">
        <ele>64.07</ele>
        <time>2014-11-23T11:12:30Z</time>
      </trkpt>
      <trkpt lat="44.74274" lon="-0.10015">
        <ele>63.58</ele>
        <time>2014-11-23T11:12:53Z</time>
      </trkpt>
      <trkpt lat="44.74272" lon="-0.10011">
        <ele>63.58</ele>
        <time>2014-11-23T11:13:16Z</time>
      </trkpt>
      <trkpt lat="44.74274" lon="-0.10011">
        <ele>63.1</ele>
        <time>2014-11-23T11:13:38Z</time>
      </trkpt>
      <trkpt lat="44.74275" lon="-0.10014">
        <ele>64.55</ele>
        <time>2014-11-23T11:14:01Z</time>
      </trkpt>
      <trkpt lat="44.74273" lon="-0.10013">
        <ele>63.58</ele>
        <time>2014-11-23T11:14:23Z</time>
      </trkpt>
      <trkpt lat="44.74274" lon="-0.10016">
        <ele>64.07</ele>
        <time>2014-11-23T11:14:45Z</time>
      </trkpt>
      <trkpt lat="44.74275" lon="-0.10016">
        <ele>64.07</ele>
        <time>2014-11-23T11:15:09Z</time>
      </trkpt>
      <trkpt lat="44.74275" lon="-0.10013">
        <ele>64.55</ele>
        <time>2014-11-23T11:15:29Z</time>
      </trkpt>
      <trkpt lat="44.74274" lon="-0.10005">
        <ele>64.55</ele>
        <time>2014-11-23T11:15:48Z</time>
      </trkpt>
      <trkpt lat="44.74273" lon="-0.1001">
        <ele>64.55</ele>
        <time>2014-11-23T11:16:05Z</time>
      </trkpt>
      <trkpt lat="44.74273" lon="-0.10016">
        <ele>64.55</ele>
        <time>2014-11-23T11:16:19Z</time>
      </trkpt>
      <trkpt lat="44.74266" lon="-0.1002">
        <ele>64.07</ele>
        <time>2014-11-23T11:16:36Z</time>
      </trkpt>
      <trkpt lat="44.74263" lon="-0.10019">
        <ele>64.07</ele>
        <time>2014-11-23T11:16:38Z</time>
      </trkpt>
      <trkpt lat="44.74256" lon="-0.10012">
        <ele>63.58</ele>
        <time>2014-11-23T11:16:51Z</time>
      </trkpt>
      <trkpt lat="44.74252" lon="-0.10007">
        <ele>63.58</ele>
        <time>2014-11-23T11:16:57Z</time>
      </trkpt>
      <trkpt lat="44.74238" lon="-0.0998">
        <ele>63.58</ele>
        <time>2014-11-23T11:17:18Z</time>
      </trkpt>
      <trkpt lat="44.74227" lon="-0.09961">
        <ele>64.55</ele>
        <time>2014-11-23T11:17:35Z</time>
      </trkpt>
      <trkpt lat="44.74213" lon="-0.09942">
        <ele>65.51</ele>
        <time>2014-11-23T11:17:53Z</time>
      </trkpt>
      <trkpt lat="44.74201" lon="-0.09925">
        <ele>66.95</ele>
        <time>2014-11-23T11:18:10Z</time>
      </trkpt>
      <trkpt lat="44.74188" lon="-0.09903">
        <ele>68.39</ele>
        <time>2014-11-23T11:18:29Z</time>
      </trkpt>
      <trkpt lat="44.74171" lon="-0.09894">
        <ele>69.83</ele>
        <time>2014-11-23T11:18:48Z</time>
      </trkpt>
      <trkpt lat="44.74154" lon="-0.09889">
        <ele>70.31</ele>
        <time>2014-11-23T11:19:05Z</time>
      </trkpt>
      <trkpt lat="44.74137" lon="-0.0988">
        <ele>70.79</ele>
        <time>2014-11-23T11:19:24Z</time>
      </trkpt>
      <trkpt lat="44.74117" lon="-0.09876">
        <ele>70.79</ele>
        <time>2014-11-23T11:19:43Z</time>
      </trkpt>
      <trkpt lat="44.74109" lon="-0.09859">
        <ele>68.39</ele>
        <time>2014-11-23T11:19:59Z</time>
      </trkpt>
      <trkpt lat="44.74112" lon="-0.09826">
        <ele>66.95</ele>
        <time>2014-11-23T11:20:18Z</time>
      </trkpt>
      <trkpt lat="44.74114" lon="-0.09799">
        <ele>67.91</ele>
        <time>2014-11-23T11:20:37Z</time>
      </trkpt>
      <trkpt lat="44.74114" lon="-0.09773">
        <ele>67.43</ele>
        <time>2014-11-23T11:20:54Z</time>
      </trkpt>
      <trkpt lat="44.7411" lon="-0.09741">
        <ele>66.95</ele>
        <time>2014-11-23T11:21:14Z</time>
      </trkpt>
      <trkpt lat="44.74109" lon="-0.09732">
        <ele>66.47</ele>
        <time>2014-11-23T11:21:19Z</time>
      </trkpt>
      <trkpt lat="44.74104" lon="-0.09696">
        <ele>65.99</ele>
        <time>2014-11-23T11:21:39Z</time>
      </trkpt>
      <trkpt lat="44.74098" lon="-0.09661">
        <ele>65.99</ele>
        <time>2014-11-23T11:21:58Z</time>
      </trkpt>
      <trkpt lat="44.74094" lon="-0.0963">
        <ele>65.99</ele>
        <time>2014-11-23T11:22:16Z</time>
      </trkpt>
      <trkpt lat="44.74091" lon="-0.096">
        <ele>64.07</ele>
        <time>2014-11-23T11:22:34Z</time>
      </trkpt>
      <trkpt lat="44.74087" lon="-0.09568">
        <ele>63.1</ele>
        <time>2014-11-23T11:22:52Z</time>
      </trkpt>
      <trkpt lat="44.74078" lon="-0.09537">
        <ele>60.7</ele>
        <time>2014-11-23T11:23:13Z</time>
      </trkpt>
      <trkpt lat="44.74072" lon="-0.09512">
        <ele>58.78</ele>
        <time>2014-11-23T11:23:29Z</time>
      </trkpt>
      <trkpt lat="44.74072" lon="-0.09476">
        <ele>57.34</ele>
        <time>2014-11-23T11:23:50Z</time>
      </trkpt>
      <trkpt lat="44.74076" lon="-0.09459">
        <ele>58.3</ele>
        <time>2014-11-23T11:24:02Z</time>
      </trkpt>
      <trkpt lat="44.74088" lon="-0.0943">
        <ele>58.3</ele>
        <time>2014-11-23T11:24:21Z</time>
      </trkpt>
      <trkpt lat="44.74097" lon="-0.094">
        <ele>58.3</ele>
        <time>2014-11-23T11:24:40Z</time>
      </trkpt>
      <trkpt lat="44.74105" lon="-0.09374">
        <ele>60.22</ele>
        <time>2014-11-23T11:24:57Z</time>
      </trkpt>
      <trkpt lat="44.74111" lon="-0.09346">
        <ele>60.22</ele>
        <time>2014-11-23T11:25:15Z</time>
      </trkpt>
      <trkpt lat="44.74117" lon="-0.09318">
        <ele>61.66</ele>
        <time>2014-11-23T11:25:33Z</time>
      </trkpt>
      <trkpt lat="44.74121" lon="-0.09292">
        <ele>64.07</ele>
        <time>2014-11-23T11:25:50Z</time>
      </trkpt>
      <trkpt lat="44.74125" lon="-0.09269">
        <ele>65.51</ele>
        <time>2014-11-23T11:26:06Z</time>
      </trkpt>
      <trkpt lat="44.74126" lon="-0.09244">
        <ele>65.03</ele>
        <time>2014-11-23T11:26:22Z</time>
      </trkpt>
      <trkpt lat="44.74124" lon="-0.09219">
        <ele>66.95</ele>
        <time>2014-11-23T11:26:38Z</time>
      </trkpt>
      <trkpt lat="44.74126" lon="-0.09211">
        <ele>66.95</ele>
        <time>2014-11-23T11:26:43Z</time>
      </trkpt>
      <trkpt lat="44.74139" lon="-0.09195">
        <ele>68.39</ele>
        <time>2014-11-23T11:26:59Z</time>
      </trkpt>
      <trkpt lat="44.74153" lon="-0.09178">
        <ele>69.35</ele>
        <time>2014-11-23T11:27:17Z</time>
      </trkpt>
      <trkpt lat="44.74167" lon="-0.09159">
        <ele>70.79</ele>
        <time>2014-11-23T11:27:36Z</time>
      </trkpt>
      <trkpt lat="44.74183" lon="-0.09139">
        <ele>71.76</ele>
        <time>2014-11-23T11:27:54Z</time>
      </trkpt>
      <trkpt lat="44.74196" lon="-0.09116">
        <ele>72.72</ele>
        <time>2014-11-23T11:28:14Z</time>
      </trkpt>
      <trkpt lat="44.74207" lon="-0.09097">
        <ele>73.68</ele>
        <time>2014-11-23T11:28:31Z</time>
      </trkpt>
      <trkpt lat="44.74216" lon="-0.09074">
        <ele>73.2</ele>
        <time>2014-11-23T11:28:47Z</time>
      </trkpt>
      <trkpt lat="44.74225" lon="-0.0905">
        <ele>72.24</ele>
        <time>2014-11-23T11:29:04Z</time>
      </trkpt>
      <trkpt lat="44.74235" lon="-0.09022">
        <ele>70.79</ele>
        <time>2014-11-23T11:29:23Z</time>
      </trkpt>
      <trkpt lat="44.74242" lon="-0.08993">
        <ele>71.27</ele>
        <time>2014-11-23T11:29:42Z</time>
      </trkpt>
      <trkpt lat="44.74243" lon="-0.08958">
        <ele>69.83</ele>
        <time>2014-11-23T11:30:03Z</time>
      </trkpt>
      <trkpt lat="44.74244" lon="-0.08932">
        <ele>69.83</ele>
        <time>2014-11-23T11:30:18Z</time>
      </trkpt>
      <trkpt lat="44.7425" lon="-0.08904">
        <ele>68.87</ele>
        <time>2014-11-23T11:30:35Z</time>
      </trkpt>
      <trkpt lat="44.74257" lon="-0.08879">
        <ele>68.87</ele>
        <time>2014-11-23T11:30:52Z</time>
      </trkpt>
      <trkpt lat="44.74264" lon="-0.08858">
        <ele>66.95</ele>
        <time>2014-11-23T11:31:08Z</time>
      </trkpt>
      <trkpt lat="44.74274" lon="-0.08831">
        <ele>65.51</ele>
        <time>2014-11-23T11:31:26Z</time>
      </trkpt>
      <trkpt lat="44.74289" lon="-0.08813">
        <ele>64.07</ele>
        <time>2014-11-23T11:31:44Z</time>
      </trkpt>
      <trkpt lat="44.74299" lon="-0.0879">
        <ele>62.62</ele>
        <time>2014-11-23T11:32:01Z</time>
      </trkpt>
      <trkpt lat="44.74312" lon="-0.08769">
        <ele>60.22</ele>
        <time>2014-11-23T11:32:20Z</time>
      </trkpt>
      <trkpt lat="44.7432" lon="-0.08758">
        <ele>59.26</ele>
        <time>2014-11-23T11:32:35Z</time>
      </trkpt>
      <trkpt lat="44.7434" lon="-0.08734">
        <ele>56.86</ele>
        <time>2014-11-23T11:32:57Z</time>
      </trkpt>
      <trkpt lat="44.74348" lon="-0.08722">
        <ele>56.37</ele>
        <time>2014-11-23T11:33:07Z</time>
      </trkpt>
      <trkpt lat="44.74361" lon="-0.08707">
        <ele>55.89</ele>
        <time>2014-11-23T11:33:24Z</time>
      </trkpt>
      <trkpt lat="44.7437" lon="-0.08682">
        <ele>53.97</ele>
        <time>2014-11-23T11:33:43Z</time>
      </trkpt>
      <trkpt lat="44.7437" lon="-0.08658">
        <ele>52.53</ele>
        <time>2014-11-23T11:34:00Z</time>
      </trkpt>
      <trkpt lat="44.74372" lon="-0.0863">
        <ele>52.05</ele>
        <time>2014-11-23T11:34:20Z</time>
      </trkpt>
      <trkpt lat="44.74372" lon="-0.08606">
        <ele>50.13</ele>
        <time>2014-11-23T11:34:36Z</time>
      </trkpt>
      <trkpt lat="44.74371" lon="-0.08584">
        <ele>49.65</ele>
        <time>2014-11-23T11:34:49Z</time>
      </trkpt>
      <trkpt lat="44.74375" lon="-0.08577">
        <ele>49.16</ele>
        <time>2014-11-23T11:34:55Z</time>
      </trkpt>
      <trkpt lat="44.74384" lon="-0.08555">
        <ele>49.16</ele>
        <time>2014-11-23T11:35:13Z</time>
      </trkpt>
      <trkpt lat="44.74386" lon="-0.08554">
        <ele>50.13</ele>
        <time>2014-11-23T11:35:32Z</time>
      </trkpt>
      <trkpt lat="44.74385" lon="-0.08561">
        <ele>49.65</ele>
        <time>2014-11-23T11:35:49Z</time>
      </trkpt>
      <trkpt lat="44.74387" lon="-0.08564">
        <ele>50.61</ele>
        <time>2014-11-23T11:36:14Z</time>
      </trkpt>
      <trkpt lat="44.74385" lon="-0.08559">
        <ele>50.13</ele>
        <time>2014-11-23T11:36:38Z</time>
      </trkpt>
      <trkpt lat="44.74385" lon="-0.08558">
        <ele>50.13</ele>
        <time>2014-11-23T11:37:02Z</time>
      </trkpt>
      <trkpt lat="44.74384" lon="-0.08562">
        <ele>50.13</ele>
        <time>2014-11-23T11:37:33Z</time>
      </trkpt>
      <trkpt lat="44.74384" lon="-0.08555">
        <ele>50.61</ele>
        <time>2014-11-23T11:37:59Z</time>
      </trkpt>
      <trkpt lat="44.74385" lon="-0.08558">
        <ele>51.09</ele>
        <time>2014-11-23T11:38:23Z</time>
      </trkpt>
      <trkpt lat="44.74386" lon="-0.0856">
        <ele>51.57</ele>
        <time>2014-11-23T11:38:42Z</time>
      </trkpt>
      <trkpt lat="44.74387" lon="-0.08561">
        <ele>51.57</ele>
        <time>2014-11-23T11:38:59Z</time>
      </trkpt>
      <trkpt lat="44.74388" lon="-0.08559">
        <ele>51.57</ele>
        <time>2014-11-23T11:39:22Z</time>
      </trkpt>
      <trkpt lat="44.74392" lon="-0.08551">
        <ele>51.57</ele>
        <time>2014-11-23T11:39:36Z</time>
      </trkpt>
      <trkpt lat="44.74404" lon="-0.08549">
        <ele>52.05</ele>
        <time>2014-11-23T11:39:54Z</time>
      </trkpt>
      <trkpt lat="44.74405" lon="-0.0855">
        <ele>52.05</ele>
        <time>2014-11-23T11:39:55Z</time>
      </trkpt>
      <trkpt lat="44.74424" lon="-0.08554">
        <ele>53.97</ele>
        <time>2014-11-23T11:40:11Z</time>
      </trkpt>
      <trkpt lat="44.7444" lon="-0.08557">
        <ele>55.89</ele>
        <time>2014-11-23T11:40:25Z</time>
      </trkpt>
      <trkpt lat="44.74449" lon="-0.08553">
        <ele>56.86</ele>
        <time>2014-11-23T11:40:38Z</time>
      </trkpt>
      <trkpt lat="44.74458" lon="-0.08544">
        <ele>57.82</ele>
        <time>2014-11-23T11:40:54Z</time>
      </trkpt>
      <trkpt lat="44.74466" lon="-0.08535">
        <ele>58.3</ele>
        <time>2014-11-23T11:41:05Z</time>
      </trkpt>
      <trkpt lat="44.74479" lon="-0.08525">
        <ele>59.74</ele>
        <time>2014-11-23T11:41:21Z</time>
      </trkpt>
      <trkpt lat="44.74498" lon="-0.08504">
        <ele>60.22</ele>
        <time>2014-11-23T11:41:42Z</time>
      </trkpt>
      <trkpt lat="44.74509" lon="-0.08491">
        <ele>60.7</ele>
        <time>2014-11-23T11:41:56Z</time>
      </trkpt>
      <trkpt lat="44.74528" lon="-0.08468">
        <ele>60.7</ele>
        <time>2014-11-23T11:42:17Z</time>
      </trkpt>
      <trkpt lat="44.74543" lon="-0.08447">
        <ele>61.18</ele>
        <time>2014-11-23T11:42:36Z</time>
      </trkpt>
      <trkpt lat="44.74552" lon="-0.08435">
        <ele>62.14</ele>
        <time>2014-11-23T11:42:50Z</time>
      </trkpt>
      <trkpt lat="44.74573" lon="-0.08399">
        <ele>62.14</ele>
        <time>2014-11-23T11:43:17Z</time>
      </trkpt>
      <trkpt lat="44.74591" lon="-0.08373">
        <ele>63.1</ele>
        <time>2014-11-23T11:43:38Z</time>
      </trkpt>
      <trkpt lat="44.74614" lon="-0.08354">
        <ele>64.07</ele>
        <time>2014-11-23T11:44:02Z</time>
      </trkpt>
      <trkpt lat="44.74638" lon="-0.08342">
        <ele>65.51</ele>
        <time>2014-11-23T11:44:24Z</time>
      </trkpt>
      <trkpt lat="44.74661" lon="-0.08332">
        <ele>66.95</ele>
        <time>2014-11-23T11:44:46Z</time>
      </trkpt>
      <trkpt lat="44.74687" lon="-0.08322">
        <ele>66.95</ele>
        <time>2014-11-23T11:45:10Z</time>
      </trkpt>
      <trkpt lat="44.74714" lon="-0.0832">
        <ele>67.43</ele>
        <time>2014-11-23T11:45:33Z</time>
      </trkpt>
      <trkpt lat="44.74739" lon="-0.08325">
        <ele>67.91</ele>
        <time>2014-11-23T11:45:54Z</time>
      </trkpt>
      <trkpt lat="44.74765" lon="-0.08331">
        <ele>66.95</ele>
        <time>2014-11-23T11:46:17Z</time>
      </trkpt>
      <trkpt lat="44.7479" lon="-0.08321">
        <ele>65.51</ele>
        <time>2014-11-23T11:46:41Z</time>
      </trkpt>
      <trkpt lat="44.74804" lon="-0.08309">
        <ele>64.55</ele>
        <time>2014-11-23T11:47:00Z</time>
      </trkpt>
      <trkpt lat="44.74829" lon="-0.08294">
        <ele>62.62</ele>
        <time>2014-11-23T11:47:23Z</time>
      </trkpt>
      <trkpt lat="44.74846" lon="-0.08279">
        <ele>61.18</ele>
        <time>2014-11-23T11:47:42Z</time>
      </trkpt>
      <trkpt lat="44.7487" lon="-0.08259">
        <ele>59.74</ele>
        <time>2014-11-23T11:48:08Z</time>
      </trkpt>
      <trkpt lat="44.74872" lon="-0.08255">
        <ele>58.78</ele>
        <time>2014-11-23T11:48:20Z</time>
      </trkpt>
      <trkpt lat="44.74873" lon="-0.0825">
        <ele>58.78</ele>
        <time>2014-11-23T11:48:26Z</time>
      </trkpt>
      <trkpt lat="44.74874" lon="-0.08207">
        <ele>57.82</ele>
        <time>2014-11-23T11:48:50Z</time>
      </trkpt>
      <trkpt lat="44.74878" lon="-0.08171">
        <ele>57.82</ele>
        <time>2014-11-23T11:49:11Z</time>
      </trkpt>
      <trkpt lat="44.7488" lon="-0.08136">
        <ele>57.34</ele>
        <time>2014-11-23T11:49:30Z</time>
      </trkpt>
      <trkpt lat="44.7488" lon="-0.08108">
        <ele>56.86</ele>
        <time>2014-11-23T11:49:48Z</time>
      </trkpt>
      <trkpt lat="44.74878" lon="-0.08078">
        <ele>55.89</ele>
        <time>2014-11-23T11:50:08Z</time>
      </trkpt>
      <trkpt lat="44.74878" lon="-0.08057">
        <ele>55.41</ele>
        <time>2014-11-23T11:50:23Z</time>
      </trkpt>
      <trkpt lat="44.74876" lon="-0.08017">
        <ele>53.49</ele>
        <time>2014-11-23T11:50:46Z</time>
      </trkpt>
      <trkpt lat="44.74874" lon="-0.07976">
        <ele>52.05</ele>
        <time>2014-11-23T11:51:10Z</time>
      </trkpt>
      <trkpt lat="44.74871" lon="-0.07934">
        <ele>50.61</ele>
        <time>2014-11-23T11:51:35Z</time>
      </trkpt>
      <trkpt lat="44.74869" lon="-0.07893">
        <ele>48.2</ele>
        <time>2014-11-23T11:51:59Z</time>
      </trkpt>
      <trkpt lat="44.74868" lon="-0.0785">
        <ele>46.28</ele>
        <time>2014-11-23T11:52:24Z</time>
      </trkpt>
      <trkpt lat="44.74868" lon="-0.07807">
        <ele>46.76</ele>
        <time>2014-11-23T11:52:48Z</time>
      </trkpt>
      <trkpt lat="44.74876" lon="-0.07773">
        <ele>45.8</ele>
        <time>2014-11-23T11:53:08Z</time>
      </trkpt>
      <trkpt lat="44.74879" lon="-0.0776">
        <ele>46.28</ele>
        <time>2014-11-23T11:53:16Z</time>
      </trkpt>
      <trkpt lat="44.7489" lon="-0.07738">
        <ele>48.68</ele>
        <time>2014-11-23T11:53:30Z</time>
      </trkpt>
      <trkpt lat="44.74905" lon="-0.07718">
        <ele>50.61</ele>
        <time>2014-11-23T11:53:51Z</time>
      </trkpt>
      <trkpt lat="44.74917" lon="-0.07695">
        <ele>53.49</ele>
        <time>2014-11-23T11:54:12Z</time>
      </trkpt>
      <trkpt lat="44.74928" lon="-0.07677">
        <ele>55.41</ele>
        <time>2014-11-23T11:54:29Z</time>
      </trkpt>
      <trkpt lat="44.74936" lon="-0.07657">
        <ele>58.3</ele>
        <time>2014-11-23T11:54:46Z</time>
      </trkpt>
      <trkpt lat="44.7493" lon="-0.07636">
        <ele>58.78</ele>
        <time>2014-11-23T11:55:04Z</time>
      </trkpt>
      <trkpt lat="44.74928" lon="-0.07631">
        <ele>59.74</ele>
        <time>2014-11-23T11:55:08Z</time>
      </trkpt>
      <trkpt lat="44.7492" lon="-0.07601">
        <ele>61.18</ele>
        <time>2014-11-23T11:55:28Z</time>
      </trkpt>
      <trkpt lat="44.74913" lon="-0.07574">
        <ele>62.14</ele>
        <time>2014-11-23T11:55:47Z</time>
      </trkpt>
      <trkpt lat="44.74908" lon="-0.07548">
        <ele>61.66</ele>
        <time>2014-11-23T11:56:04Z</time>
      </trkpt>
      <trkpt lat="44.74908" lon="-0.07541">
        <ele>62.14</ele>
        <time>2014-11-23T11:56:20Z</time>
      </trkpt>
      <trkpt lat="44.74913" lon="-0.07516">
        <ele>63.1</ele>
        <time>2014-11-23T11:56:38Z</time>
      </trkpt>
      <trkpt lat="44.74918" lon="-0.07492">
        <ele>64.07</ele>
        <time>2014-11-23T11:56:56Z</time>
      </trkpt>
      <trkpt lat="44.74918" lon="-0.07485">
        <ele>64.07</ele>
        <time>2014-11-23T11:57:10Z</time>
      </trkpt>
      <trkpt lat="44.7492" lon="-0.07487">
        <ele>63.1</ele>
        <time>2014-11-23T11:57:28Z</time>
      </trkpt>
      <trkpt lat="44.74921" lon="-0.07487">
        <ele>61.18</ele>
        <time>2014-11-23T11:57:49Z</time>
      </trkpt>
      <trkpt lat="44.74919" lon="-0.07487">
        <ele>74.16</ele>
        <time>2014-11-23T12:57:56Z</time>
      </trkpt>
      <trkpt lat="44.74924" lon="-0.07433">
        <ele>73.68</ele>
        <time>2014-11-23T12:57:57Z</time>
      </trkpt>
      <trkpt lat="44.7492" lon="-0.07483">
        <ele>70.79</ele>
        <time>2014-11-23T12:58:16Z</time>
      </trkpt>
      <trkpt lat="44.74921" lon="-0.07484">
        <ele>69.35</ele>
        <time>2014-11-23T12:58:20Z</time>
      </trkpt>
      <trkpt lat="44.74923" lon="-0.07486">
        <ele>66.95</ele>
        <time>2014-11-23T12:58:39Z</time>
      </trkpt>
      <trkpt lat="44.74922" lon="-0.07482">
        <ele>65.03</ele>
        <time>2014-11-23T12:59:06Z</time>
      </trkpt>
      <trkpt lat="44.74923" lon="-0.07485">
        <ele>65.51</ele>
        <time>2014-11-23T12:59:31Z</time>
      </trkpt>
      <trkpt lat="44.74922" lon="-0.07485">
        <ele>65.03</ele>
        <time>2014-11-23T12:59:49Z</time>
      </trkpt>
      <trkpt lat="44.74924" lon="-0.07487">
        <ele>65.51</ele>
        <time>2014-11-23T13:00:05Z</time>
      </trkpt>
      <trkpt lat="44.74923" lon="-0.07487">
        <ele>65.51</ele>
        <time>2014-11-23T13:00:12Z</time>
      </trkpt>
      <trkpt lat="44.74915" lon="-0.0749">
        <ele>65.51</ele>
        <time>2014-11-23T13:00:44Z</time>
      </trkpt>
      <trkpt lat="44.74916" lon="-0.07489">
        <ele>65.03</ele>
        <time>2014-11-23T13:01:05Z</time>
      </trkpt>
      <trkpt lat="44.74917" lon="-0.07489">
        <ele>66.47</ele>
        <time>2014-11-23T13:01:20Z</time>
      </trkpt>
      <trkpt lat="44.74919" lon="-0.07495">
        <ele>65.99</ele>
        <time>2014-11-23T13:01:37Z</time>
      </trkpt>
      <trkpt lat="44.74916" lon="-0.0751">
        <ele>65.51</ele>
        <time>2014-11-23T13:01:52Z</time>
      </trkpt>
      <trkpt lat="44.74917" lon="-0.07521">
        <ele>65.03</ele>
        <time>2014-11-23T13:02:06Z</time>
      </trkpt>
      <trkpt lat="44.74908" lon="-0.07532">
        <ele>64.07</ele>
        <time>2014-11-23T13:02:21Z</time>
      </trkpt>
      <trkpt lat="44.74895" lon="-0.07554">
        <ele>62.62</ele>
        <time>2014-11-23T13:02:39Z</time>
      </trkpt>
      <trkpt lat="44.74879" lon="-0.07554">
        <ele>62.62</ele>
        <time>2014-11-23T13:02:55Z</time>
      </trkpt>
      <trkpt lat="44.74878" lon="-0.07527">
        <ele>64.07</ele>
        <time>2014-11-23T13:03:13Z</time>
      </trkpt>
      <trkpt lat="44.74882" lon="-0.07511">
        <ele>63.58</ele>
        <time>2014-11-23T13:03:35Z</time>
      </trkpt>
      <trkpt lat="44.74896" lon="-0.07504">
        <ele>62.62</ele>
        <time>2014-11-23T13:04:05Z</time>
      </trkpt>
      <trkpt lat="44.7489" lon="-0.07512">
        <ele>63.1</ele>
        <time>2014-11-23T13:04:28Z</time>
      </trkpt>
      <trkpt lat="44.74886" lon="-0.07516">
        <ele>63.1</ele>
        <time>2014-11-23T13:04:31Z</time>
      </trkpt>
      <trkpt lat="44.74883" lon="-0.07542">
        <ele>61.66</ele>
        <time>2014-11-23T13:04:48Z</time>
      </trkpt>
      <trkpt lat="44.74889" lon="-0.07553">
        <ele>61.18</ele>
        <time>2014-11-23T13:05:03Z</time>
      </trkpt>
      <trkpt lat="44.74892" lon="-0.07551">
        <ele>61.66</ele>
        <time>2014-11-23T13:05:06Z</time>
      </trkpt>
      <trkpt lat="44.74907" lon="-0.07541">
        <ele>61.18</ele>
        <time>2014-11-23T13:05:23Z</time>
      </trkpt>
      <trkpt lat="44.74917" lon="-0.07535">
        <ele>62.62</ele>
        <time>2014-11-23T13:05:39Z</time>
      </trkpt>
      <trkpt lat="44.74917" lon="-0.07528">
        <ele>62.62</ele>
        <time>2014-11-23T13:05:53Z</time>
      </trkpt>
      <trkpt lat="44.74918" lon="-0.07522">
        <ele>62.62</ele>
        <time>2014-11-23T13:06:03Z</time>
      </trkpt>
      <trkpt lat="44.7492" lon="-0.07523">
        <ele>62.62</ele>
        <time>2014-11-23T13:06:24Z</time>
      </trkpt>
      <trkpt lat="44.74919" lon="-0.07521">
        <ele>63.1</ele>
        <time>2014-11-23T13:06:49Z</time>
      </trkpt>
      <trkpt lat="44.74917" lon="-0.07521">
        <ele>62.62</ele>
        <time>2014-11-23T13:07:10Z</time>
      </trkpt>
      <trkpt lat="44.74918" lon="-0.07522">
        <ele>62.62</ele>
        <time>2014-11-23T13:07:32Z</time>
      </trkpt>
      <trkpt lat="44.74917" lon="-0.07518">
        <ele>62.62</ele>
        <time>2014-11-23T13:07:54Z</time>
      </trkpt>
      <trkpt lat="44.74919" lon="-0.07519">
        <ele>62.14</ele>
        <time>2014-11-23T13:08:11Z</time>
      </trkpt>
      <trkpt lat="44.74919" lon="-0.07519">
        <ele>62.62</ele>
        <time>2014-11-23T13:08:28Z</time>
      </trkpt>
      <trkpt lat="44.7492" lon="-0.07522">
        <ele>61.66</ele>
        <time>2014-11-23T13:08:47Z</time>
      </trkpt>
      <trkpt lat="44.74916" lon="-0.07526">
        <ele>62.62</ele>
        <time>2014-11-23T13:09:03Z</time>
      </trkpt>
      <trkpt lat="44.74917" lon="-0.07522">
        <ele>62.14</ele>
        <time>2014-11-23T13:09:23Z</time>
      </trkpt>
      <trkpt lat="44.74915" lon="-0.0752">
        <ele>62.14</ele>
        <time>2014-11-23T13:09:36Z</time>
      </trkpt>
      <trkpt lat="44.74913" lon="-0.0752">
        <ele>62.62</ele>
        <time>2014-11-23T13:10:04Z</time>
      </trkpt>
      <trkpt lat="44.74913" lon="-0.07521">
        <ele>62.14</ele>
        <time>2014-11-23T13:10:18Z</time>
      </trkpt>
      <trkpt lat="44.74916" lon="-0.07519">
        <ele>62.62</ele>
        <time>2014-11-23T13:10:37Z</time>
      </trkpt>
      <trkpt lat="44.74916" lon="-0.07517">
        <ele>62.14</ele>
        <time>2014-11-23T13:11:05Z</time>
      </trkpt>
      <trkpt lat="44.74912" lon="-0.07518">
        <ele>62.62</ele>
        <time>2014-11-23T13:11:24Z</time>
      </trkpt>
      <trkpt lat="44.74912" lon="-0.07519">
        <ele>62.62</ele>
        <time>2014-11-23T13:11:50Z</time>
      </trkpt>
      <trkpt lat="44.74913" lon="-0.07517">
        <ele>62.14</ele>
        <time>2014-11-23T13:12:05Z</time>
      </trkpt>
      <trkpt lat="44.74915" lon="-0.07519">
        <ele>62.62</ele>
        <time>2014-11-23T13:12:20Z</time>
      </trkpt>
      <trkpt lat="44.74922" lon="-0.07523">
        <ele>62.14</ele>
        <time>2014-11-23T13:12:34Z</time>
      </trkpt>
      <trkpt lat="44.74932" lon="-0.0753">
        <ele>62.62</ele>
        <time>2014-11-23T13:12:47Z</time>
      </trkpt>
      <trkpt lat="44.74944" lon="-0.07529">
        <ele>62.62</ele>
        <time>2014-11-23T13:13:03Z</time>
      </trkpt>
      <trkpt lat="44.74947" lon="-0.0753">
        <ele>62.14</ele>
        <time>2014-11-23T13:13:25Z</time>
      </trkpt>
      <trkpt lat="44.7495" lon="-0.07528">
        <ele>62.62</ele>
        <time>2014-11-23T13:13:39Z</time>
      </trkpt>
      <trkpt lat="44.74954" lon="-0.07539">
        <ele>62.14</ele>
        <time>2014-11-23T13:13:53Z</time>
      </trkpt>
      <trkpt lat="44.74955" lon="-0.07543">
        <ele>62.14</ele>
        <time>2014-11-23T13:13:56Z</time>
      </trkpt>
      <trkpt lat="44.74966" lon="-0.07565">
        <ele>61.18</ele>
        <time>2014-11-23T13:14:15Z</time>
      </trkpt>
      <trkpt lat="44.74976" lon="-0.07588">
        <ele>60.7</ele>
        <time>2014-11-23T13:14:32Z</time>
      </trkpt>
      <trkpt lat="44.74985" lon="-0.07604">
        <ele>59.74</ele>
        <time>2014-11-23T13:14:49Z</time>
      </trkpt>
      <trkpt lat="44.74989" lon="-0.0761">
        <ele>59.74</ele>
        <time>2014-11-23T13:14:54Z</time>
      </trkpt>
      <trkpt lat="44.7499" lon="-0.07622">
        <ele>59.26</ele>
        <time>2014-11-23T13:15:04Z</time>
      </trkpt>
      <trkpt lat="44.74994" lon="-0.07634">
        <ele>58.78</ele>
        <time>2014-11-23T13:15:17Z</time>
      </trkpt>
      <trkpt lat="44.75009" lon="-0.07666">
        <ele>57.82</ele>
        <time>2014-11-23T13:15:40Z</time>
      </trkpt>
      <trkpt lat="44.75017" lon="-0.07678">
        <ele>57.34</ele>
        <time>2014-11-23T13:15:55Z</time>
      </trkpt>
      <trkpt lat="44.75032" lon="-0.07689">
        <ele>54.45</ele>
        <time>2014-11-23T13:16:14Z</time>
      </trkpt>
      <trkpt lat="44.7504" lon="-0.07702">
        <ele>52.53</ele>
        <time>2014-11-23T13:16:29Z</time>
      </trkpt>
      <trkpt lat="44.75046" lon="-0.07716">
        <ele>51.57</ele>
        <time>2014-11-23T13:16:43Z</time>
      </trkpt>
      <trkpt lat="44.75054" lon="-0.07735">
        <ele>49.16</ele>
        <time>2014-11-23T13:17:00Z</time>
      </trkpt>
      <trkpt lat="44.75058" lon="-0.07764">
        <ele>46.76</ele>
        <time>2014-11-23T13:17:21Z</time>
      </trkpt>
      <trkpt lat="44.75062" lon="-0.0779">
        <ele>44.36</ele>
        <time>2014-11-23T13:17:39Z</time>
      </trkpt>
      <trkpt lat="44.75063" lon="-0.07818">
        <ele>42.92</ele>
        <time>2014-11-23T13:17:58Z</time>
      </trkpt>
      <trkpt lat="44.75062" lon="-0.07824">
        <ele>42.44</ele>
        <time>2014-11-23T13:18:02Z</time>
      </trkpt>
      <trkpt lat="44.75067" lon="-0.07851">
        <ele>41.95</ele>
        <time>2014-11-23T13:18:22Z</time>
      </trkpt>
      <trkpt lat="44.75073" lon="-0.07866">
        <ele>40.51</ele>
        <time>2014-11-23T13:18:39Z</time>
      </trkpt>
      <trkpt lat="44.75077" lon="-0.07862">
        <ele>40.03</ele>
        <time>2014-11-23T13:18:48Z</time>
      </trkpt>
      <trkpt lat="44.75094" lon="-0.07863">
        <ele>37.15</ele>
        <time>2014-11-23T13:19:05Z</time>
      </trkpt>
      <trkpt lat="44.75113" lon="-0.07869">
        <ele>34.74</ele>
        <time>2014-11-23T13:19:26Z</time>
      </trkpt>
      <trkpt lat="44.75132" lon="-0.07876">
        <ele>31.86</ele>
        <time>2014-11-23T13:19:46Z</time>
      </trkpt>
      <trkpt lat="44.75134" lon="-0.07877">
        <ele>31.38</ele>
        <time>2014-11-23T13:19:48Z</time>
      </trkpt>
      <trkpt lat="44.75149" lon="-0.07904">
        <ele>29.94</ele>
        <time>2014-11-23T13:20:08Z</time>
      </trkpt>
      <trkpt lat="44.75159" lon="-0.07925">
        <ele>29.46</ele>
        <time>2014-11-23T13:20:25Z</time>
      </trkpt>
      <trkpt lat="44.75161" lon="-0.07947">
        <ele>29.94</ele>
        <time>2014-11-23T13:20:42Z</time>
      </trkpt>
      <trkpt lat="44.75151" lon="-0.07976">
        <ele>30.42</ele>
        <time>2014-11-23T13:21:00Z</time>
      </trkpt>
      <trkpt lat="44.75144" lon="-0.07996">
        <ele>29.46</ele>
        <time>2014-11-23T13:21:17Z</time>
      </trkpt>
      <trkpt lat="44.75153" lon="-0.08031">
        <ele>29.46</ele>
        <time>2014-11-23T13:21:39Z</time>
      </trkpt>
      <trkpt lat="44.75166" lon="-0.08062">
        <ele>28.98</ele>
        <time>2014-11-23T13:21:58Z</time>
      </trkpt>
      <trkpt lat="44.75169" lon="-0.08088">
        <ele>29.94</ele>
        <time>2014-11-23T13:22:19Z</time>
      </trkpt>
      <trkpt lat="44.75164" lon="-0.08106">
        <ele>28.98</ele>
        <time>2014-11-23T13:22:36Z</time>
      </trkpt>
      <trkpt lat="44.75164" lon="-0.08107">
        <ele>28.98</ele>
        <time>2014-11-23T13:23:01Z</time>
      </trkpt>
      <trkpt lat="44.75167" lon="-0.08107">
        <ele>29.46</ele>
        <time>2014-11-23T13:23:25Z</time>
      </trkpt>
      <trkpt lat="44.7516" lon="-0.08104">
        <ele>29.46</ele>
        <time>2014-11-23T13:23:44Z</time>
      </trkpt>
      <trkpt lat="44.75157" lon="-0.08105">
        <ele>29.46</ele>
        <time>2014-11-23T13:24:04Z</time>
      </trkpt>
      <trkpt lat="44.75159" lon="-0.08104">
        <ele>29.94</ele>
        <time>2014-11-23T13:24:34Z</time>
      </trkpt>
      <trkpt lat="44.75159" lon="-0.08105">
        <ele>30.42</ele>
        <time>2014-11-23T13:25:00Z</time>
      </trkpt>
      <trkpt lat="44.75161" lon="-0.08108">
        <ele>30.42</ele>
        <time>2014-11-23T13:25:20Z</time>
      </trkpt>
      <trkpt lat="44.7516" lon="-0.08122">
        <ele>30.9</ele>
        <time>2014-11-23T13:25:34Z</time>
      </trkpt>
      <trkpt lat="44.75159" lon="-0.08132">
        <ele>31.38</ele>
        <time>2014-11-23T13:25:44Z</time>
      </trkpt>
      <trkpt lat="44.75158" lon="-0.08142">
        <ele>31.86</ele>
        <time>2014-11-23T13:25:57Z</time>
      </trkpt>
      <trkpt lat="44.75155" lon="-0.0815">
        <ele>32.34</ele>
        <time>2014-11-23T13:26:13Z</time>
      </trkpt>
      <trkpt lat="44.75161" lon="-0.08164">
        <ele>32.82</ele>
        <time>2014-11-23T13:26:27Z</time>
      </trkpt>
      <trkpt lat="44.75165" lon="-0.08185">
        <ele>33.78</ele>
        <time>2014-11-23T13:26:45Z</time>
      </trkpt>
      <trkpt lat="44.75167" lon="-0.08197">
        <ele>34.26</ele>
        <time>2014-11-23T13:27:03Z</time>
      </trkpt>
      <trkpt lat="44.75175" lon="-0.08227">
        <ele>34.74</ele>
        <time>2014-11-23T13:27:21Z</time>
      </trkpt>
      <trkpt lat="44.75175" lon="-0.08239">
        <ele>34.74</ele>
        <time>2014-11-23T13:27:28Z</time>
      </trkpt>
      <trkpt lat="44.75172" lon="-0.08269">
        <ele>34.74</ele>
        <time>2014-11-23T13:27:46Z</time>
      </trkpt>
      <trkpt lat="44.75161" lon="-0.08296">
        <ele>37.15</ele>
        <time>2014-11-23T13:28:06Z</time>
      </trkpt>
      <trkpt lat="44.75153" lon="-0.08307">
        <ele>39.07</ele>
        <time>2014-11-23T13:28:20Z</time>
      </trkpt>
      <trkpt lat="44.75154" lon="-0.08314">
        <ele>39.07</ele>
        <time>2014-11-23T13:28:34Z</time>
      </trkpt>
      <trkpt lat="44.75155" lon="-0.08334">
        <ele>38.59</ele>
        <time>2014-11-23T13:28:47Z</time>
      </trkpt>
      <trkpt lat="44.75157" lon="-0.08344">
        <ele>39.07</ele>
        <time>2014-11-23T13:29:02Z</time>
      </trkpt>
      <trkpt lat="44.75159" lon="-0.08348">
        <ele>38.59</ele>
        <time>2014-11-23T13:29:11Z</time>
      </trkpt>
      <trkpt lat="44.75165" lon="-0.08376">
        <ele>38.59</ele>
        <time>2014-11-23T13:29:30Z</time>
      </trkpt>
      <trkpt lat="44.7517" lon="-0.08399">
        <ele>38.11</ele>
        <time>2014-11-23T13:29:45Z</time>
      </trkpt>
      <trkpt lat="44.75174" lon="-0.08419">
        <ele>37.63</ele>
        <time>2014-11-23T13:30:00Z</time>
      </trkpt>
      <trkpt lat="44.75179" lon="-0.08435">
        <ele>37.63</ele>
        <time>2014-11-23T13:30:15Z</time>
      </trkpt>
      <trkpt lat="44.75181" lon="-0.08457">
        <ele>37.15</ele>
        <time>2014-11-23T13:30:32Z</time>
      </trkpt>
      <trkpt lat="44.75178" lon="-0.08471">
        <ele>37.63</ele>
        <time>2014-11-23T13:30:42Z</time>
      </trkpt>
      <trkpt lat="44.75168" lon="-0.08493">
        <ele>37.15</ele>
        <time>2014-11-23T13:31:01Z</time>
      </trkpt>
      <trkpt lat="44.75175" lon="-0.08521">
        <ele>36.67</ele>
        <time>2014-11-23T13:31:24Z</time>
      </trkpt>
      <trkpt lat="44.7515" lon="-0.08547">
        <ele>36.19</ele>
        <time>2014-11-23T13:31:45Z</time>
      </trkpt>
      <trkpt lat="44.75126" lon="-0.08571">
        <ele>36.67</ele>
        <time>2014-11-23T13:32:05Z</time>
      </trkpt>
      <trkpt lat="44.75119" lon="-0.08582">
        <ele>37.15</ele>
        <time>2014-11-23T13:32:23Z</time>
      </trkpt>
      <trkpt lat="44.75113" lon="-0.08594">
        <ele>36.19</ele>
        <time>2014-11-23T13:32:38Z</time>
      </trkpt>
      <trkpt lat="44.75109" lon="-0.08622">
        <ele>36.67</ele>
        <time>2014-11-23T13:32:56Z</time>
      </trkpt>
      <trkpt lat="44.7511" lon="-0.08636">
        <ele>36.67</ele>
        <time>2014-11-23T13:33:04Z</time>
      </trkpt>
      <trkpt lat="44.75119" lon="-0.08666">
        <ele>36.67</ele>
        <time>2014-11-23T13:33:25Z</time>
      </trkpt>
      <trkpt lat="44.75124" lon="-0.08695">
        <ele>37.15</ele>
        <time>2014-11-23T13:33:45Z</time>
      </trkpt>
      <trkpt lat="44.75126" lon="-0.08729">
        <ele>36.67</ele>
        <time>2014-11-23T13:34:06Z</time>
      </trkpt>
      <trkpt lat="44.75118" lon="-0.08762">
        <ele>36.67</ele>
        <time>2014-11-23T13:34:27Z</time>
      </trkpt>
      <trkpt lat="44.75102" lon="-0.08793">
        <ele>37.15</ele>
        <time>2014-11-23T13:34:46Z</time>
      </trkpt>
      <trkpt lat="44.75096" lon="-0.08822">
        <ele>36.67</ele>
        <time>2014-11-23T13:35:05Z</time>
      </trkpt>
      <trkpt lat="44.75093" lon="-0.08834">
        <ele>36.19</ele>
        <time>2014-11-23T13:35:15Z</time>
      </trkpt>
      <trkpt lat="44.75094" lon="-0.08836">
        <ele>36.19</ele>
        <time>2014-11-23T13:35:31Z</time>
      </trkpt>
      <trkpt lat="44.75102" lon="-0.08838">
        <ele>36.19</ele>
        <time>2014-11-23T13:35:44Z</time>
      </trkpt>
      <trkpt lat="44.75114" lon="-0.08833">
        <ele>36.19</ele>
        <time>2014-11-23T13:36:00Z</time>
      </trkpt>
      <trkpt lat="44.75118" lon="-0.08821">
        <ele>36.19</ele>
        <time>2014-11-23T13:36:12Z</time>
      </trkpt>
      <trkpt lat="44.75129" lon="-0.08799">
        <ele>37.63</ele>
        <time>2014-11-23T13:36:30Z</time>
      </trkpt>
      <trkpt lat="44.75131" lon="-0.08791">
        <ele>37.15</ele>
        <time>2014-11-23T13:36:36Z</time>
      </trkpt>
      <trkpt lat="44.7514" lon="-0.08769">
        <ele>38.11</ele>
        <time>2014-11-23T13:36:53Z</time>
      </trkpt>
      <trkpt lat="44.7514" lon="-0.08768">
        <ele>37.63</ele>
        <time>2014-11-23T13:36:54Z</time>
      </trkpt>
      <trkpt lat="44.75144" lon="-0.08738">
        <ele>37.63</ele>
        <time>2014-11-23T13:37:14Z</time>
      </trkpt>
      <trkpt lat="44.75145" lon="-0.08715">
        <ele>37.63</ele>
        <time>2014-11-23T13:37:29Z</time>
      </trkpt>
      <trkpt lat="44.75148" lon="-0.08691">
        <ele>37.15</ele>
        <time>2014-11-23T13:37:44Z</time>
      </trkpt>
      <trkpt lat="44.75149" lon="-0.08671">
        <ele>36.67</ele>
        <time>2014-11-23T13:37:58Z</time>
      </trkpt>
      <trkpt lat="44.75151" lon="-0.08643">
        <ele>36.67</ele>
        <time>2014-11-23T13:38:16Z</time>
      </trkpt>
      <trkpt lat="44.7516" lon="-0.08624">
        <ele>37.63</ele>
        <time>2014-11-23T13:38:31Z</time>
      </trkpt>
      <trkpt lat="44.75164" lon="-0.08619">
        <ele>37.63</ele>
        <time>2014-11-23T13:38:35Z</time>
      </trkpt>
      <trkpt lat="44.75177" lon="-0.08609">
        <ele>37.63</ele>
        <time>2014-11-23T13:38:49Z</time>
      </trkpt>
      <trkpt lat="44.75192" lon="-0.08609">
        <ele>40.03</ele>
        <time>2014-11-23T13:39:04Z</time>
      </trkpt>
      <trkpt lat="44.75205" lon="-0.08613">
        <ele>42.92</ele>
        <time>2014-11-23T13:39:19Z</time>
      </trkpt>
      <trkpt lat="44.75218" lon="-0.08611">
        <ele>45.32</ele>
        <time>2014-11-23T13:39:34Z</time>
      </trkpt>
      <trkpt lat="44.75223" lon="-0.08611">
        <ele>46.76</ele>
        <time>2014-11-23T13:39:49Z</time>
      </trkpt>
      <trkpt lat="44.75227" lon="-0.08613">
        <ele>46.28</ele>
        <time>2014-11-23T13:40:06Z</time>
      </trkpt>
      <trkpt lat="44.75225" lon="-0.08613">
        <ele>45.32</ele>
        <time>2014-11-23T13:40:33Z</time>
      </trkpt>
      <trkpt lat="44.75224" lon="-0.08617">
        <ele>45.8</ele>
        <time>2014-11-23T13:41:00Z</time>
      </trkpt>
      <trkpt lat="44.75224" lon="-0.08617">
        <ele>45.32</ele>
        <time>2014-11-23T13:41:28Z</time>
      </trkpt>
      <trkpt lat="44.75219" lon="-0.08619">
        <ele>45.8</ele>
        <time>2014-11-23T13:41:50Z</time>
      </trkpt>
      <trkpt lat="44.75223" lon="-0.08617">
        <ele>45.32</ele>
        <time>2014-11-23T13:42:12Z</time>
      </trkpt>
      <trkpt lat="44.7522" lon="-0.08621">
        <ele>45.8</ele>
        <time>2014-11-23T13:42:31Z</time>
      </trkpt>
      <trkpt lat="44.75218" lon="-0.08627">
        <ele>46.28</ele>
        <time>2014-11-23T13:42:57Z</time>
      </trkpt>
      <trkpt lat="44.75217" lon="-0.08624">
        <ele>45.8</ele>
        <time>2014-11-23T13:43:31Z</time>
      </trkpt>
      <trkpt lat="44.75218" lon="-0.08623">
        <ele>46.28</ele>
        <time>2014-11-23T13:44:08Z</time>
      </trkpt>
      <trkpt lat="44.75221" lon="-0.08613">
        <ele>45.8</ele>
        <time>2014-11-23T13:44:32Z</time>
      </trkpt>
      <trkpt lat="44.75213" lon="-0.08619">
        <ele>45.8</ele>
        <time>2014-11-23T13:44:51Z</time>
      </trkpt>
      <trkpt lat="44.752" lon="-0.08618">
        <ele>42.44</ele>
        <time>2014-11-23T13:45:07Z</time>
      </trkpt>
      <trkpt lat="44.75183" lon="-0.08617">
        <ele>39.07</ele>
        <time>2014-11-23T13:45:26Z</time>
      </trkpt>
      <trkpt lat="44.75175" lon="-0.08613">
        <ele>37.15</ele>
        <time>2014-11-23T13:45:38Z</time>
      </trkpt>
      <trkpt lat="44.75194" lon="-0.08594">
        <ele>36.67</ele>
        <time>2014-11-23T13:45:55Z</time>
      </trkpt>
      <trkpt lat="44.75201" lon="-0.0859">
        <ele>37.15</ele>
        <time>2014-11-23T13:46:10Z</time>
      </trkpt>
      <trkpt lat="44.75215" lon="-0.08583">
        <ele>37.15</ele>
        <time>2014-11-23T13:46:24Z</time>
      </trkpt>
      <trkpt lat="44.75225" lon="-0.0858">
        <ele>36.67</ele>
        <time>2014-11-23T13:46:33Z</time>
      </trkpt>
      <trkpt lat="44.75231" lon="-0.08576">
        <ele>36.67</ele>
        <time>2014-11-23T13:46:41Z</time>
      </trkpt>
      <trkpt lat="44.75248" lon="-0.08598">
        <ele>36.19</ele>
        <time>2014-11-23T13:46:57Z</time>
      </trkpt>
      <trkpt lat="44.75264" lon="-0.08612">
        <ele>36.67</ele>
        <time>2014-11-23T13:47:14Z</time>
      </trkpt>
      <trkpt lat="44.75274" lon="-0.08626">
        <ele>36.19</ele>
        <time>2014-11-23T13:47:29Z</time>
      </trkpt>
      <trkpt lat="44.75287" lon="-0.08635">
        <ele>36.19</ele>
        <time>2014-11-23T13:47:45Z</time>
      </trkpt>
      <trkpt lat="44.75295" lon="-0.0864">
        <ele>36.67</ele>
        <time>2014-11-23T13:47:54Z</time>
      </trkpt>
      <trkpt lat="44.75314" lon="-0.08643">
        <ele>35.71</ele>
        <time>2014-11-23T13:48:11Z</time>
      </trkpt>
      <trkpt lat="44.75328" lon="-0.08647">
        <ele>35.23</ele>
        <time>2014-11-23T13:48:25Z</time>
      </trkpt>
      <trkpt lat="44.75335" lon="-0.08654">
        <ele>35.23</ele>
        <time>2014-11-23T13:48:44Z</time>
      </trkpt>
      <trkpt lat="44.75344" lon="-0.08654">
        <ele>35.23</ele>
        <time>2014-11-23T13:49:04Z</time>
      </trkpt>
      <trkpt lat="44.7535" lon="-0.08655">
        <ele>35.23</ele>
        <time>2014-11-23T13:49:18Z</time>
      </trkpt>
      <trkpt lat="44.75362" lon="-0.08659">
        <ele>35.23</ele>
        <time>2014-11-23T13:49:34Z</time>
      </trkpt>
      <trkpt lat="44.75377" lon="-0.08657">
        <ele>35.23</ele>
        <time>2014-11-23T13:49:54Z</time>
      </trkpt>
      <trkpt lat="44.75394" lon="-0.08671">
        <ele>35.71</ele>
        <time>2014-11-23T13:50:12Z</time>
      </trkpt>
      <trkpt lat="44.75416" lon="-0.08684">
        <ele>34.74</ele>
        <time>2014-11-23T13:50:37Z</time>
      </trkpt>
      <trkpt lat="44.75413" lon="-0.08691">
        <ele>35.71</ele>
        <time>2014-11-23T13:50:55Z</time>
      </trkpt>
      <trkpt lat="44.75417" lon="-0.08689">
        <ele>35.23</ele>
        <time>2014-11-23T13:51:11Z</time>
      </trkpt>
      <trkpt lat="44.75413" lon="-0.08691">
        <ele>35.23</ele>
        <time>2014-11-23T13:51:36Z</time>
      </trkpt>
      <trkpt lat="44.75414" lon="-0.08694">
        <ele>35.23</ele>
        <time>2014-11-23T13:51:55Z</time>
      </trkpt>
      <trkpt lat="44.75412" lon="-0.0869">
        <ele>34.74</ele>
        <time>2014-11-23T13:52:12Z</time>
      </trkpt>
      <trkpt lat="44.75417" lon="-0.08683">
        <ele>34.74</ele>
        <time>2014-11-23T13:52:36Z</time>
      </trkpt>
      <trkpt lat="44.75417" lon="-0.08691">
        <ele>34.74</ele>
        <time>2014-11-23T13:52:59Z</time>
      </trkpt>
      <trkpt lat="44.75415" lon="-0.0869">
        <ele>35.23</ele>
        <time>2014-11-23T13:53:16Z</time>
      </trkpt>
      <trkpt lat="44.75411" lon="-0.08698">
        <ele>34.74</ele>
        <time>2014-11-23T13:53:35Z</time>
      </trkpt>
      <trkpt lat="44.75408" lon="-0.08701">
        <ele>35.71</ele>
        <time>2014-11-23T13:54:00Z</time>
      </trkpt>
      <trkpt lat="44.75418" lon="-0.08691">
        <ele>34.74</ele>
        <time>2014-11-23T13:54:12Z</time>
      </trkpt>
      <trkpt lat="44.75431" lon="-0.08707">
        <ele>35.71</ele>
        <time>2014-11-23T13:54:29Z</time>
      </trkpt>
      <trkpt lat="44.7545" lon="-0.08726">
        <ele>36.19</ele>
        <time>2014-11-23T13:54:49Z</time>
      </trkpt>
      <trkpt lat="44.75455" lon="-0.0873">
        <ele>36.67</ele>
        <time>2014-11-23T13:54:54Z</time>
      </trkpt>
      <trkpt lat="44.75473" lon="-0.08747">
        <ele>36.67</ele>
        <time>2014-11-23T13:55:15Z</time>
      </trkpt>
      <trkpt lat="44.75486" lon="-0.08758">
        <ele>36.67</ele>
        <time>2014-11-23T13:55:29Z</time>
      </trkpt>
      <trkpt lat="44.75505" lon="-0.08754">
        <ele>35.23</ele>
        <time>2014-11-23T13:55:46Z</time>
      </trkpt>
      <trkpt lat="44.75507" lon="-0.0875">
        <ele>35.71</ele>
        <time>2014-11-23T13:55:50Z</time>
      </trkpt>
      <trkpt lat="44.7551" lon="-0.0874">
        <ele>35.71</ele>
        <time>2014-11-23T13:55:57Z</time>
      </trkpt>
      <trkpt lat="44.75514" lon="-0.08723">
        <ele>36.19</ele>
        <time>2014-11-23T13:56:07Z</time>
      </trkpt>
      <trkpt lat="44.7552" lon="-0.08704">
        <ele>36.19</ele>
        <time>2014-11-23T13:56:17Z</time>
      </trkpt>
      <trkpt lat="44.75532" lon="-0.08685">
        <ele>39.07</ele>
        <time>2014-11-23T13:56:34Z</time>
      </trkpt>
      <trkpt lat="44.75532" lon="-0.08676">
        <ele>39.07</ele>
        <time>2014-11-23T13:56:41Z</time>
      </trkpt>
      <trkpt lat="44.75535" lon="-0.08651">
        <ele>40.99</ele>
        <time>2014-11-23T13:56:58Z</time>
      </trkpt>
      <trkpt lat="44.75536" lon="-0.08647">
        <ele>41.47</ele>
        <time>2014-11-23T13:57:01Z</time>
      </trkpt>
      <trkpt lat="44.75544" lon="-0.08629">
        <ele>44.84</ele>
        <time>2014-11-23T13:57:16Z</time>
      </trkpt>
      <trkpt lat="44.75555" lon="-0.08613">
        <ele>46.76</ele>
        <time>2014-11-23T13:57:32Z</time>
      </trkpt>
      <trkpt lat="44.75567" lon="-0.08603">
        <ele>48.2</ele>
        <time>2014-11-23T13:57:47Z</time>
      </trkpt>
      <trkpt lat="44.75583" lon="-0.08588">
        <ele>50.13</ele>
        <time>2014-11-23T13:58:04Z</time>
      </trkpt>
      <trkpt lat="44.75602" lon="-0.08576">
        <ele>51.57</ele>
        <time>2014-11-23T13:58:24Z</time>
      </trkpt>
      <trkpt lat="44.7562" lon="-0.08562">
        <ele>52.53</ele>
        <time>2014-11-23T13:58:44Z</time>
      </trkpt>
      <trkpt lat="44.75625" lon="-0.08558">
        <ele>53.49</ele>
        <time>2014-11-23T13:58:49Z</time>
      </trkpt>
      <trkpt lat="44.7564" lon="-0.08543">
        <ele>55.41</ele>
        <time>2014-11-23T13:59:07Z</time>
      </trkpt>
      <trkpt lat="44.7565" lon="-0.08531">
        <ele>56.86</ele>
        <time>2014-11-23T13:59:24Z</time>
      </trkpt>
      <trkpt lat="44.75646" lon="-0.08532">
        <ele>56.86</ele>
        <time>2014-11-23T13:59:41Z</time>
      </trkpt>
      <trkpt lat="44.75647" lon="-0.08539">
        <ele>56.86</ele>
        <time>2014-11-23T14:00:11Z</time>
      </trkpt>
      <trkpt lat="44.75652" lon="-0.08535">
        <ele>56.86</ele>
        <time>2014-11-23T14:00:30Z</time>
      </trkpt>
      <trkpt lat="44.7565" lon="-0.08539">
        <ele>57.34</ele>
        <time>2014-11-23T14:00:48Z</time>
      </trkpt>
      <trkpt lat="44.75651" lon="-0.0854">
        <ele>57.34</ele>
        <time>2014-11-23T14:01:14Z</time>
      </trkpt>
      <trkpt lat="44.75647" lon="-0.08537">
        <ele>56.86</ele>
        <time>2014-11-23T14:01:39Z</time>
      </trkpt>
      <trkpt lat="44.75648" lon="-0.08535">
        <ele>57.82</ele>
        <time>2014-11-23T14:02:18Z</time>
      </trkpt>
      <trkpt lat="44.75649" lon="-0.08536">
        <ele>57.82</ele>
        <time>2014-11-23T14:02:43Z</time>
      </trkpt>
      <trkpt lat="44.7565" lon="-0.08531">
        <ele>57.34</ele>
        <time>2014-11-23T14:03:17Z</time>
      </trkpt>
      <trkpt lat="44.75647" lon="-0.08534">
        <ele>57.34</ele>
        <time>2014-11-23T14:03:33Z</time>
      </trkpt>
      <trkpt lat="44.75645" lon="-0.08523">
        <ele>56.86</ele>
        <time>2014-11-23T14:03:38Z</time>
      </trkpt>
      <trkpt lat="44.75645" lon="-0.08515">
        <ele>56.86</ele>
        <time>2014-11-23T14:03:42Z</time>
      </trkpt>
      <trkpt lat="44.75653" lon="-0.08521">
        <ele>57.34</ele>
        <time>2014-11-23T14:03:55Z</time>
      </trkpt>
      <trkpt lat="44.75659" lon="-0.08531">
        <ele>57.34</ele>
        <time>2014-11-23T14:04:05Z</time>
      </trkpt>
      <trkpt lat="44.75673" lon="-0.0855">
        <ele>56.86</ele>
        <time>2014-11-23T14:04:24Z</time>
      </trkpt>
      <trkpt lat="44.75682" lon="-0.08568">
        <ele>57.34</ele>
        <time>2014-11-23T14:04:38Z</time>
      </trkpt>
      <trkpt lat="44.75694" lon="-0.08596">
        <ele>57.34</ele>
        <time>2014-11-23T14:04:59Z</time>
      </trkpt>
      <trkpt lat="44.75701" lon="-0.08618">
        <ele>57.34</ele>
        <time>2014-11-23T14:05:15Z</time>
      </trkpt>
      <trkpt lat="44.75712" lon="-0.08643">
        <ele>57.82</ele>
        <time>2014-11-23T14:05:33Z</time>
      </trkpt>
      <trkpt lat="44.75716" lon="-0.08658">
        <ele>57.82</ele>
        <time>2014-11-23T14:05:43Z</time>
      </trkpt>
      <trkpt lat="44.75721" lon="-0.0868">
        <ele>57.34</ele>
        <time>2014-11-23T14:05:58Z</time>
      </trkpt>
      <trkpt lat="44.75728" lon="-0.08709">
        <ele>56.86</ele>
        <time>2014-11-23T14:06:17Z</time>
      </trkpt>
      <trkpt lat="44.75734" lon="-0.08741">
        <ele>55.89</ele>
        <time>2014-11-23T14:06:38Z</time>
      </trkpt>
      <trkpt lat="44.75739" lon="-0.08775">
        <ele>53.97</ele>
        <time>2014-11-23T14:06:59Z</time>
      </trkpt>
      <trkpt lat="44.7574" lon="-0.08778">
        <ele>53.97</ele>
        <time>2014-11-23T14:07:01Z</time>
      </trkpt>
      <trkpt lat="44.75745" lon="-0.08784">
        <ele>53.97</ele>
        <time>2014-11-23T14:07:07Z</time>
      </trkpt>
      <trkpt lat="44.75747" lon="-0.08783">
        <ele>53.97</ele>
        <time>2014-11-23T14:07:11Z</time>
      </trkpt>
      <trkpt lat="44.75764" lon="-0.08769">
        <ele>54.93</ele>
        <time>2014-11-23T14:07:28Z</time>
      </trkpt>
      <trkpt lat="44.75781" lon="-0.08751">
        <ele>54.93</ele>
        <time>2014-11-23T14:07:46Z</time>
      </trkpt>
      <trkpt lat="44.75799" lon="-0.08739">
        <ele>56.37</ele>
        <time>2014-11-23T14:08:03Z</time>
      </trkpt>
      <trkpt lat="44.75816" lon="-0.08725">
        <ele>57.34</ele>
        <time>2014-11-23T14:08:20Z</time>
      </trkpt>
      <trkpt lat="44.75834" lon="-0.08713">
        <ele>59.26</ele>
        <time>2014-11-23T14:08:38Z</time>
      </trkpt>
      <trkpt lat="44.75852" lon="-0.087">
        <ele>60.7</ele>
        <time>2014-11-23T14:08:56Z</time>
      </trkpt>
      <trkpt lat="44.75856" lon="-0.08697">
        <ele>61.18</ele>
        <time>2014-11-23T14:09:00Z</time>
      </trkpt>
      <trkpt lat="44.75863" lon="-0.08691">
        <ele>62.62</ele>
        <time>2014-11-23T14:09:07Z</time>
      </trkpt>
      <trkpt lat="44.75879" lon="-0.08681">
        <ele>64.07</ele>
        <time>2014-11-23T14:09:23Z</time>
      </trkpt>
      <trkpt lat="44.75895" lon="-0.08669">
        <ele>65.99</ele>
        <time>2014-11-23T14:09:40Z</time>
      </trkpt>
      <trkpt lat="44.75912" lon="-0.08659">
        <ele>66.47</ele>
        <time>2014-11-23T14:09:57Z</time>
      </trkpt>
      <trkpt lat="44.7593" lon="-0.08647">
        <ele>68.39</ele>
        <time>2014-11-23T14:10:16Z</time>
      </trkpt>
      <trkpt lat="44.75947" lon="-0.08637">
        <ele>69.35</ele>
        <time>2014-11-23T14:10:33Z</time>
      </trkpt>
      <trkpt lat="44.75966" lon="-0.08624">
        <ele>70.79</ele>
        <time>2014-11-23T14:10:53Z</time>
      </trkpt>
      <trkpt lat="44.75974" lon="-0.08621">
        <ele>71.27</ele>
        <time>2014-11-23T14:11:00Z</time>
      </trkpt>
      <trkpt lat="44.75994" lon="-0.08607">
        <ele>72.24</ele>
        <time>2014-11-23T14:11:20Z</time>
      </trkpt>
      <trkpt lat="44.76012" lon="-0.08598">
        <ele>73.68</ele>
        <time>2014-11-23T14:11:37Z</time>
      </trkpt>
      <trkpt lat="44.7603" lon="-0.08586">
        <ele>74.16</ele>
        <time>2014-11-23T14:11:55Z</time>
      </trkpt>
      <trkpt lat="44.76049" lon="-0.08572">
        <ele>75.6</ele>
        <time>2014-11-23T14:12:14Z</time>
      </trkpt>
      <trkpt lat="44.7607" lon="-0.08558">
        <ele>77.04</ele>
        <time>2014-11-23T14:12:35Z</time>
      </trkpt>
      <trkpt lat="44.76092" lon="-0.08544">
        <ele>78</ele>
        <time>2014-11-23T14:12:55Z</time>
      </trkpt>
      <trkpt lat="44.76112" lon="-0.08534">
        <ele>78</ele>
        <time>2014-11-23T14:13:13Z</time>
      </trkpt>
      <trkpt lat="44.76127" lon="-0.08529">
        <ele>78.97</ele>
        <time>2014-11-23T14:13:27Z</time>
      </trkpt>
      <trkpt lat="44.76151" lon="-0.0852">
        <ele>79.45</ele>
        <time>2014-11-23T14:13:48Z</time>
      </trkpt>
      <trkpt lat="44.76158" lon="-0.08518">
        <ele>79.45</ele>
        <time>2014-11-23T14:13:54Z</time>
      </trkpt>
      <trkpt lat="44.76179" lon="-0.08509">
        <ele>80.41</ele>
        <time>2014-11-23T14:14:12Z</time>
      </trkpt>
      <trkpt lat="44.76198" lon="-0.085">
        <ele>80.41</ele>
        <time>2014-11-23T14:14:30Z</time>
      </trkpt>
      <trkpt lat="44.76217" lon="-0.08496">
        <ele>81.37</ele>
        <time>2014-11-23T14:14:47Z</time>
      </trkpt>
      <trkpt lat="44.76219" lon="-0.08491">
        <ele>80.89</ele>
        <time>2014-11-23T14:15:00Z</time>
      </trkpt>
      <trkpt lat="44.76221" lon="-0.08493">
        <ele>80.89</ele>
        <time>2014-11-23T14:15:23Z</time>
      </trkpt>
      <trkpt lat="44.76218" lon="-0.08496">
        <ele>80.89</ele>
        <time>2014-11-23T14:15:48Z</time>
      </trkpt>
      <trkpt lat="44.76218" lon="-0.08489">
        <ele>80.89</ele>
        <time>2014-11-23T14:16:05Z</time>
      </trkpt>
      <trkpt lat="44.76215" lon="-0.08461">
        <ele>80.89</ele>
        <time>2014-11-23T14:16:23Z</time>
      </trkpt>
      <trkpt lat="44.76215" lon="-0.08457">
        <ele>80.89</ele>
        <time>2014-11-23T14:16:47Z</time>
      </trkpt>
      <trkpt lat="44.76217" lon="-0.08458">
        <ele>81.37</ele>
        <time>2014-11-23T14:17:16Z</time>
      </trkpt>
      <trkpt lat="44.76216" lon="-0.0846">
        <ele>81.37</ele>
        <time>2014-11-23T14:17:37Z</time>
      </trkpt>
      <trkpt lat="44.76216" lon="-0.08459">
        <ele>81.37</ele>
        <time>2014-11-23T14:17:57Z</time>
      </trkpt>
      <trkpt lat="44.76217" lon="-0.08458">
        <ele>81.37</ele>
        <time>2014-11-23T14:18:12Z</time>
      </trkpt>
      <trkpt lat="44.76219" lon="-0.08458">
        <ele>81.37</ele>
        <time>2014-11-23T14:18:36Z</time>
      </trkpt>
      <trkpt lat="44.76219" lon="-0.08457">
        <ele>82.33</ele>
        <time>2014-11-23T14:18:55Z</time>
      </trkpt>
      <trkpt lat="44.76212" lon="-0.08445">
        <ele>80.89</ele>
        <time>2014-11-23T14:19:14Z</time>
      </trkpt>
      <trkpt lat="44.76206" lon="-0.08419">
        <ele>80.89</ele>
        <time>2014-11-23T14:19:30Z</time>
      </trkpt>
      <trkpt lat="44.76199" lon="-0.08385">
        <ele>80.41</ele>
        <time>2014-11-23T14:19:50Z</time>
      </trkpt>
      <trkpt lat="44.7619" lon="-0.0835">
        <ele>80.41</ele>
        <time>2014-11-23T14:20:12Z</time>
      </trkpt>
      <trkpt lat="44.76183" lon="-0.08319">
        <ele>79.93</ele>
        <time>2014-11-23T14:20:30Z</time>
      </trkpt>
      <trkpt lat="44.76174" lon="-0.08286">
        <ele>79.45</ele>
        <time>2014-11-23T14:20:50Z</time>
      </trkpt>
      <trkpt lat="44.76166" lon="-0.08253">
        <ele>79.45</ele>
        <time>2014-11-23T14:21:11Z</time>
      </trkpt>
      <trkpt lat="44.76159" lon="-0.08227">
        <ele>78.97</ele>
        <time>2014-11-23T14:21:27Z</time>
      </trkpt>
      <trkpt lat="44.7615" lon="-0.08196">
        <ele>77.52</ele>
        <time>2014-11-23T14:21:48Z</time>
      </trkpt>
      <trkpt lat="44.76141" lon="-0.08168">
        <ele>77.04</ele>
        <time>2014-11-23T14:22:06Z</time>
      </trkpt>
      <trkpt lat="44.76132" lon="-0.0814">
        <ele>75.6</ele>
        <time>2014-11-23T14:22:25Z</time>
      </trkpt>
      <trkpt lat="44.76122" lon="-0.08118">
        <ele>74.64</ele>
        <time>2014-11-23T14:22:42Z</time>
      </trkpt>
      <trkpt lat="44.76112" lon="-0.08091">
        <ele>72.24</ele>
        <time>2014-11-23T14:23:02Z</time>
      </trkpt>
      <trkpt lat="44.76102" lon="-0.08064">
        <ele>70.31</ele>
        <time>2014-11-23T14:23:21Z</time>
      </trkpt>
      <trkpt lat="44.76091" lon="-0.08037">
        <ele>68.87</ele>
        <time>2014-11-23T14:23:40Z</time>
      </trkpt>
      <trkpt lat="44.76086" lon="-0.08025">
        <ele>68.87</ele>
        <time>2014-11-23T14:23:49Z</time>
      </trkpt>
      <trkpt lat="44.76076" lon="-0.07999">
        <ele>67.43</ele>
        <time>2014-11-23T14:24:08Z</time>
      </trkpt>
      <trkpt lat="44.76063" lon="-0.07975">
        <ele>66.47</ele>
        <time>2014-11-23T14:24:27Z</time>
      </trkpt>
      <trkpt lat="44.76052" lon="-0.0795">
        <ele>65.99</ele>
        <time>2014-11-23T14:24:44Z</time>
      </trkpt>
      <trkpt lat="44.7604" lon="-0.07924">
        <ele>64.55</ele>
        <time>2014-11-23T14:25:03Z</time>
      </trkpt>
      <trkpt lat="44.76028" lon="-0.07892">
        <ele>63.58</ele>
        <time>2014-11-23T14:25:24Z</time>
      </trkpt>
      <trkpt lat="44.76017" lon="-0.07865">
        <ele>63.58</ele>
        <time>2014-11-23T14:25:42Z</time>
      </trkpt>
      <trkpt lat="44.76007" lon="-0.07834">
        <ele>62.62</ele>
        <time>2014-11-23T14:26:02Z</time>
      </trkpt>
      <trkpt lat="44.75997" lon="-0.07812">
        <ele>63.58</ele>
        <time>2014-11-23T14:26:18Z</time>
      </trkpt>
      <trkpt lat="44.75996" lon="-0.07811">
        <ele>63.58</ele>
        <time>2014-11-23T14:26:19Z</time>
      </trkpt>
      <trkpt lat="44.75989" lon="-0.07787">
        <ele>63.1</ele>
        <time>2014-11-23T14:26:36Z</time>
      </trkpt>
      <trkpt lat="44.75982" lon="-0.07763">
        <ele>63.58</ele>
        <time>2014-11-23T14:26:52Z</time>
      </trkpt>
      <trkpt lat="44.75979" lon="-0.07748">
        <ele>64.07</ele>
        <time>2014-11-23T14:27:02Z</time>
      </trkpt>
      <trkpt lat="44.75977" lon="-0.07725">
        <ele>65.03</ele>
        <time>2014-11-23T14:27:18Z</time>
      </trkpt>
      <trkpt lat="44.75978" lon="-0.07703">
        <ele>65.51</ele>
        <time>2014-11-23T14:27:35Z</time>
      </trkpt>
      <trkpt lat="44.75978" lon="-0.07691">
        <ele>66.47</ele>
        <time>2014-11-23T14:27:43Z</time>
      </trkpt>
      <trkpt lat="44.75982" lon="-0.07684">
        <ele>66.47</ele>
        <time>2014-11-23T14:27:47Z</time>
      </trkpt>
      <trkpt lat="44.75981" lon="-0.07664">
        <ele>65.51</ele>
        <time>2014-11-23T14:28:02Z</time>
      </trkpt>
      <trkpt lat="44.75973" lon="-0.07642">
        <ele>65.99</ele>
        <time>2014-11-23T14:28:18Z</time>
      </trkpt>
      <trkpt lat="44.7597" lon="-0.07629">
        <ele>65.51</ele>
        <time>2014-11-23T14:28:31Z</time>
      </trkpt>
      <trkpt lat="44.7597" lon="-0.07624">
        <ele>65.51</ele>
        <time>2014-11-23T14:28:46Z</time>
      </trkpt>
      <trkpt lat="44.7597" lon="-0.07621">
        <ele>65.51</ele>
        <time>2014-11-23T14:28:58Z</time>
      </trkpt>
      <trkpt lat="44.75974" lon="-0.07624">
        <ele>65.51</ele>
        <time>2014-11-23T14:29:27Z</time>
      </trkpt>
      <trkpt lat="44.75973" lon="-0.07625">
        <ele>65.51</ele>
        <time>2014-11-23T14:29:46Z</time>
      </trkpt>
      <trkpt lat="44.75973" lon="-0.07621">
        <ele>65.51</ele>
        <time>2014-11-23T14:30:05Z</time>
      </trkpt>
      <trkpt lat="44.75966" lon="-0.07617">
        <ele>65.51</ele>
        <time>2014-11-23T14:30:18Z</time>
      </trkpt>
      <trkpt lat="44.75965" lon="-0.07615">
        <ele>65.51</ele>
        <time>2014-11-23T14:30:38Z</time>
      </trkpt>
      <trkpt lat="44.75968" lon="-0.07614">
        <ele>65.51</ele>
        <time>2014-11-23T14:30:56Z</time>
      </trkpt>
      <trkpt lat="44.7596" lon="-0.07614">
        <ele>65.03</ele>
        <time>2014-11-23T14:31:13Z</time>
      </trkpt>
      <trkpt lat="44.75938" lon="-0.07613">
        <ele>64.55</ele>
        <time>2014-11-23T14:31:30Z</time>
      </trkpt>
      <trkpt lat="44.75916" lon="-0.0761">
        <ele>64.07</ele>
        <time>2014-11-23T14:31:48Z</time>
      </trkpt>
      <trkpt lat="44.75909" lon="-0.07608">
        <ele>63.58</ele>
        <time>2014-11-23T14:31:55Z</time>
      </trkpt>
      <trkpt lat="44.7589" lon="-0.0761">
        <ele>63.1</ele>
        <time>2014-11-23T14:32:12Z</time>
      </trkpt>
      <trkpt lat="44.75869" lon="-0.07608">
        <ele>62.14</ele>
        <time>2014-11-23T14:32:29Z</time>
      </trkpt>
      <trkpt lat="44.75866" lon="-0.07609">
        <ele>62.14</ele>
        <time>2014-11-23T14:32:31Z</time>
      </trkpt>
      <trkpt lat="44.75853" lon="-0.07605">
        <ele>61.18</ele>
        <time>2014-11-23T14:32:46Z</time>
      </trkpt>
      <trkpt lat="44.75838" lon="-0.07603">
        <ele>60.7</ele>
        <time>2014-11-23T14:33:00Z</time>
      </trkpt>
      <trkpt lat="44.75821" lon="-0.07605">
        <ele>60.7</ele>
        <time>2014-11-23T14:33:16Z</time>
      </trkpt>
      <trkpt lat="44.75803" lon="-0.07608">
        <ele>59.74</ele>
        <time>2014-11-23T14:33:34Z</time>
      </trkpt>
      <trkpt lat="44.75782" lon="-0.07612">
        <ele>58.78</ele>
        <time>2014-11-23T14:33:54Z</time>
      </trkpt>
      <trkpt lat="44.75756" lon="-0.07617">
        <ele>57.82</ele>
        <time>2014-11-23T14:34:17Z</time>
      </trkpt>
      <trkpt lat="44.7574" lon="-0.07622">
        <ele>56.86</ele>
        <time>2014-11-23T14:34:31Z</time>
      </trkpt>
      <trkpt lat="44.7572" lon="-0.07625">
        <ele>55.89</ele>
        <time>2014-11-23T14:34:48Z</time>
      </trkpt>
      <trkpt lat="44.75713" lon="-0.07624">
        <ele>55.41</ele>
        <time>2014-11-23T14:35:01Z</time>
      </trkpt>
      <trkpt lat="44.75713" lon="-0.07624">
        <ele>54.93</ele>
        <time>2014-11-23T14:35:02Z</time>
      </trkpt>
      <trkpt lat="44.75694" lon="-0.07633">
        <ele>53.49</ele>
        <time>2014-11-23T14:35:20Z</time>
      </trkpt>
      <trkpt lat="44.75672" lon="-0.07637">
        <ele>51.09</ele>
        <time>2014-11-23T14:35:41Z</time>
      </trkpt>
      <trkpt lat="44.75657" lon="-0.07649">
        <ele>49.65</ele>
        <time>2014-11-23T14:35:59Z</time>
      </trkpt>
      <trkpt lat="44.75656" lon="-0.0765">
        <ele>48.68</ele>
        <time>2014-11-23T14:36:00Z</time>
      </trkpt>
      <trkpt lat="44.75637" lon="-0.07676">
        <ele>46.28</ele>
        <time>2014-11-23T14:36:24Z</time>
      </trkpt>
      <trkpt lat="44.75623" lon="-0.07696">
        <ele>45.8</ele>
        <time>2014-11-23T14:36:44Z</time>
      </trkpt>
      <trkpt lat="44.75607" lon="-0.07711">
        <ele>43.88</ele>
        <time>2014-11-23T14:37:02Z</time>
      </trkpt>
      <trkpt lat="44.75589" lon="-0.0771">
        <ele>42.44</ele>
        <time>2014-11-23T14:37:19Z</time>
      </trkpt>
      <trkpt lat="44.75577" lon="-0.07704">
        <ele>41.47</ele>
        <time>2014-11-23T14:37:38Z</time>
      </trkpt>
      <trkpt lat="44.75562" lon="-0.07696">
        <ele>40.03</ele>
        <time>2014-11-23T14:37:55Z</time>
      </trkpt>
      <trkpt lat="44.75555" lon="-0.07689">
        <ele>38.59</ele>
        <time>2014-11-23T14:38:03Z</time>
      </trkpt>
      <trkpt lat="44.75539" lon="-0.07677">
        <ele>36.67</ele>
        <time>2014-11-23T14:38:21Z</time>
      </trkpt>
      <trkpt lat="44.75522" lon="-0.07662">
        <ele>33.78</ele>
        <time>2014-11-23T14:38:39Z</time>
      </trkpt>
      <trkpt lat="44.75503" lon="-0.07648">
        <ele>30.42</ele>
        <time>2014-11-23T14:38:58Z</time>
      </trkpt>
      <trkpt lat="44.75492" lon="-0.07641">
        <ele>30.42</ele>
        <time>2014-11-23T14:39:14Z</time>
      </trkpt>
      <trkpt lat="44.75476" lon="-0.07648">
        <ele>29.46</ele>
        <time>2014-11-23T14:39:32Z</time>
      </trkpt>
      <trkpt lat="44.75464" lon="-0.07654">
        <ele>28.5</ele>
        <time>2014-11-23T14:39:44Z</time>
      </trkpt>
      <trkpt lat="44.75444" lon="-0.0766">
        <ele>28.02</ele>
        <time>2014-11-23T14:40:00Z</time>
      </trkpt>
      <trkpt lat="44.75435" lon="-0.07666">
        <ele>28.02</ele>
        <time>2014-11-23T14:40:09Z</time>
      </trkpt>
      <trkpt lat="44.75429" lon="-0.07658">
        <ele>27.53</ele>
        <time>2014-11-23T14:40:25Z</time>
      </trkpt>
      <trkpt lat="44.7543" lon="-0.07654">
        <ele>27.05</ele>
        <time>2014-11-23T14:40:55Z</time>
      </trkpt>
      <trkpt lat="44.75429" lon="-0.07652">
        <ele>27.05</ele>
        <time>2014-11-23T14:41:24Z</time>
      </trkpt>
      <trkpt lat="44.75426" lon="-0.07654">
        <ele>26.09</ele>
        <time>2014-11-23T14:41:35Z</time>
      </trkpt>
      <trkpt lat="44.75423" lon="-0.07625">
        <ele>25.61</ele>
        <time>2014-11-23T14:41:55Z</time>
      </trkpt>
      <trkpt lat="44.75413" lon="-0.07596">
        <ele>25.61</ele>
        <time>2014-11-23T14:42:15Z</time>
      </trkpt>
      <trkpt lat="44.75398" lon="-0.07575">
        <ele>25.61</ele>
        <time>2014-11-23T14:42:33Z</time>
      </trkpt>
      <trkpt lat="44.75383" lon="-0.0756">
        <ele>25.61</ele>
        <time>2014-11-23T14:42:50Z</time>
      </trkpt>
      <trkpt lat="44.75376" lon="-0.07549">
        <ele>25.13</ele>
        <time>2014-11-23T14:43:03Z</time>
      </trkpt>
      <trkpt lat="44.75375" lon="-0.07547">
        <ele>24.65</ele>
        <time>2014-11-23T14:43:05Z</time>
      </trkpt>
      <trkpt lat="44.75375" lon="-0.0754">
        <ele>24.65</ele>
        <time>2014-11-23T14:43:10Z</time>
      </trkpt>
      <trkpt lat="44.75377" lon="-0.07518">
        <ele>24.65</ele>
        <time>2014-11-23T14:43:24Z</time>
      </trkpt>
      <trkpt lat="44.75378" lon="-0.07496">
        <ele>24.17</ele>
        <time>2014-11-23T14:43:41Z</time>
      </trkpt>
      <trkpt lat="44.75376" lon="-0.07493">
        <ele>24.65</ele>
        <time>2014-11-23T14:43:57Z</time>
      </trkpt>
      <trkpt lat="44.75374" lon="-0.07492">
        <ele>23.69</ele>
        <time>2014-11-23T14:44:17Z</time>
      </trkpt>
      <trkpt lat="44.75373" lon="-0.07488">
        <ele>23.69</ele>
        <time>2014-11-23T14:44:37Z</time>
      </trkpt>
      <trkpt lat="44.75369" lon="-0.07486">
        <ele>23.69</ele>
        <time>2014-11-23T14:45:07Z</time>
      </trkpt>
      <trkpt lat="44.75374" lon="-0.07488">
        <ele>24.17</ele>
        <time>2014-11-23T14:45:22Z</time>
      </trkpt>
      <trkpt lat="44.75384" lon="-0.07483">
        <ele>23.69</ele>
        <time>2014-11-23T14:45:43Z</time>
      </trkpt>
      <trkpt lat="44.75379" lon="-0.07484">
        <ele>24.17</ele>
        <time>2014-11-23T14:46:02Z</time>
      </trkpt>
      <trkpt lat="44.75379" lon="-0.07485">
        <ele>24.17</ele>
        <time>2014-11-23T14:46:15Z</time>
      </trkpt>
      <trkpt lat="44.75381" lon="-0.07481">
        <ele>24.17</ele>
        <time>2014-11-23T14:46:38Z</time>
      </trkpt>
      <trkpt lat="44.75383" lon="-0.07479">
        <ele>24.17</ele>
        <time>2014-11-23T14:46:55Z</time>
      </trkpt>
      <trkpt lat="44.75383" lon="-0.07482">
        <ele>24.17</ele>
        <time>2014-11-23T14:47:15Z</time>
      </trkpt>
      <trkpt lat="44.75382" lon="-0.07481">
        <ele>24.17</ele>
        <time>2014-11-23T14:47:32Z</time>
      </trkpt>
      <trkpt lat="44.75385" lon="-0.07484">
        <ele>23.69</ele>
        <time>2014-11-23T14:48:00Z</time>
      </trkpt>
      <trkpt lat="44.75383" lon="-0.07477">
        <ele>24.65</ele>
        <time>2014-11-23T14:48:15Z</time>
      </trkpt>
      <trkpt lat="44.75385" lon="-0.07486">
        <ele>24.17</ele>
        <time>2014-11-23T14:48:39Z</time>
      </trkpt>
      <trkpt lat="44.75384" lon="-0.07482">
        <ele>24.65</ele>
        <time>2014-11-23T14:49:02Z</time>
      </trkpt>
      <trkpt lat="44.75386" lon="-0.07479">
        <ele>24.65</ele>
        <time>2014-11-23T14:49:29Z</time>
      </trkpt>
      <trkpt lat="44.75383" lon="-0.0748">
        <ele>24.65</ele>
        <time>2014-11-23T14:49:53Z</time>
      </trkpt>
      <trkpt lat="44.75383" lon="-0.0748">
        <ele>24.65</ele>
        <time>2014-11-23T14:50:10Z</time>
      </trkpt>
      <trkpt lat="44.75384" lon="-0.07477">
        <ele>25.13</ele>
        <time>2014-11-23T14:50:35Z</time>
      </trkpt>
      <trkpt lat="44.75383" lon="-0.07479">
        <ele>24.65</ele>
        <time>2014-11-23T14:50:54Z</time>
      </trkpt>
      <trkpt lat="44.75387" lon="-0.07485">
        <ele>24.65</ele>
        <time>2014-11-23T14:51:18Z</time>
      </trkpt>
      <trkpt lat="44.75384" lon="-0.07495">
        <ele>24.65</ele>
        <time>2014-11-23T14:51:43Z</time>
      </trkpt>
      <trkpt lat="44.75382" lon="-0.07493">
        <ele>25.61</ele>
        <time>2014-11-23T14:52:08Z</time>
      </trkpt>
      <trkpt lat="44.7538" lon="-0.07487">
        <ele>25.61</ele>
        <time>2014-11-23T14:52:36Z</time>
      </trkpt>
      <trkpt lat="44.75381" lon="-0.07491">
        <ele>26.09</ele>
        <time>2014-11-23T14:52:58Z</time>
      </trkpt>
      <trkpt lat="44.75384" lon="-0.07491">
        <ele>26.09</ele>
        <time>2014-11-23T14:53:17Z</time>
      </trkpt>
      <trkpt lat="44.75384" lon="-0.07491">
        <ele>25.61</ele>
        <time>2014-11-23T14:53:37Z</time>
      </trkpt>
      <trkpt lat="44.75384" lon="-0.07489">
        <ele>25.61</ele>
        <time>2014-11-23T14:53:59Z</time>
      </trkpt>
      <trkpt lat="44.75383" lon="-0.07496">
        <ele>26.09</ele>
        <time>2014-11-23T14:54:16Z</time>
      </trkpt>
      <trkpt lat="44.75384" lon="-0.07496">
        <ele>26.57</ele>
        <time>2014-11-23T14:54:36Z</time>
      </trkpt>
      <trkpt lat="44.75384" lon="-0.0749">
        <ele>26.09</ele>
        <time>2014-11-23T14:55:02Z</time>
      </trkpt>
      <trkpt lat="44.75385" lon="-0.0749">
        <ele>26.09</ele>
        <time>2014-11-23T14:55:33Z</time>
      </trkpt>
      <trkpt lat="44.75385" lon="-0.07493">
        <ele>26.57</ele>
        <time>2014-11-23T14:55:53Z</time>
      </trkpt>
      <trkpt lat="44.75376" lon="-0.0749">
        <ele>26.09</ele>
        <time>2014-11-23T14:56:11Z</time>
      </trkpt>
      <trkpt lat="44.75378" lon="-0.07494">
        <ele>26.09</ele>
        <time>2014-11-23T14:56:28Z</time>
      </trkpt>
      <trkpt lat="44.75382" lon="-0.07487">
        <ele>26.09</ele>
        <time>2014-11-23T14:56:44Z</time>
      </trkpt>
      <trkpt lat="44.75379" lon="-0.07487">
        <ele>26.57</ele>
        <time>2014-11-23T14:57:03Z</time>
      </trkpt>
      <trkpt lat="44.75381" lon="-0.07482">
        <ele>27.05</ele>
        <time>2014-11-23T14:57:25Z</time>
      </trkpt>
      <trkpt lat="44.75383" lon="-0.07475">
        <ele>27.05</ele>
        <time>2014-11-23T14:57:47Z</time>
      </trkpt>
      <trkpt lat="44.75387" lon="-0.07475">
        <ele>26.57</ele>
        <time>2014-11-23T14:59:24Z</time>
      </trkpt>
      <trkpt lat="44.75386" lon="-0.07488">
        <ele>26.09</ele>
        <time>2014-11-23T14:59:41Z</time>
      </trkpt>
      <trkpt lat="44.75385" lon="-0.07486">
        <ele>26.57</ele>
        <time>2014-11-23T15:00:03Z</time>
      </trkpt>
      <trkpt lat="44.75382" lon="-0.07486">
        <ele>26.57</ele>
        <time>2014-11-23T15:00:27Z</time>
      </trkpt>
      <trkpt lat="44.75382" lon="-0.07482">
        <ele>26.57</ele>
        <time>2014-11-23T15:00:46Z</time>
      </trkpt>
      <trkpt lat="44.75382" lon="-0.07489">
        <ele>27.05</ele>
        <time>2014-11-23T15:01:05Z</time>
      </trkpt>
      <trkpt lat="44.75376" lon="-0.07487">
        <ele>27.05</ele>
        <time>2014-11-23T15:01:24Z</time>
      </trkpt>
      <trkpt lat="44.75374" lon="-0.07483">
        <ele>26.57</ele>
        <time>2014-11-23T15:01:36Z</time>
      </trkpt>
      <trkpt lat="44.75369" lon="-0.0748">
        <ele>27.05</ele>
        <time>2014-11-23T15:01:57Z</time>
      </trkpt>
      <trkpt lat="44.75374" lon="-0.07479">
        <ele>27.05</ele>
        <time>2014-11-23T15:02:15Z</time>
      </trkpt>
      <trkpt lat="44.75373" lon="-0.07483">
        <ele>27.53</ele>
        <time>2014-11-23T15:02:32Z</time>
      </trkpt>
      <trkpt lat="44.75371" lon="-0.0748">
        <ele>27.05</ele>
        <time>2014-11-23T15:02:52Z</time>
      </trkpt>
      <trkpt lat="44.75369" lon="-0.07479">
        <ele>27.05</ele>
        <time>2014-11-23T15:03:20Z</time>
      </trkpt>
      <trkpt lat="44.7537" lon="-0.07481">
        <ele>27.05</ele>
        <time>2014-11-23T15:03:42Z</time>
      </trkpt>
      <trkpt lat="44.75369" lon="-0.07479">
        <ele>26.57</ele>
        <time>2014-11-23T15:04:05Z</time>
      </trkpt>
      <trkpt lat="44.75368" lon="-0.07481">
        <ele>27.05</ele>
        <time>2014-11-23T15:04:33Z</time>
      </trkpt>
      <trkpt lat="44.75369" lon="-0.07481">
        <ele>27.05</ele>
        <time>2014-11-23T15:04:54Z</time>
      </trkpt>
      <trkpt lat="44.7537" lon="-0.07483">
        <ele>27.05</ele>
        <time>2014-11-23T15:05:12Z</time>
      </trkpt>
      <trkpt lat="44.75369" lon="-0.07488">
        <ele>27.05</ele>
        <time>2014-11-23T15:05:24Z</time>
      </trkpt>
      <trkpt lat="44.75369" lon="-0.07485">
        <ele>26.57</ele>
        <time>2014-11-23T15:05:51Z</time>
      </trkpt>
      <trkpt lat="44.75373" lon="-0.07491">
        <ele>26.09</ele>
        <time>2014-11-23T15:06:15Z</time>
      </trkpt>
      <trkpt lat="44.75369" lon="-0.07499">
        <ele>26.57</ele>
        <time>2014-11-23T15:06:22Z</time>
      </trkpt>
      <trkpt lat="44.75361" lon="-0.07509">
        <ele>26.57</ele>
        <time>2014-11-23T15:06:30Z</time>
      </trkpt>
      <trkpt lat="44.75341" lon="-0.07509">
        <ele>27.05</ele>
        <time>2014-11-23T15:06:47Z</time>
      </trkpt>
      <trkpt lat="44.75334" lon="-0.07508">
        <ele>27.05</ele>
        <time>2014-11-23T15:07:00Z</time>
      </trkpt>
      <trkpt lat="44.75321" lon="-0.07511">
        <ele>27.05</ele>
        <time>2014-11-23T15:07:14Z</time>
      </trkpt>
      <trkpt lat="44.75317" lon="-0.07514">
        <ele>27.05</ele>
        <time>2014-11-23T15:07:27Z</time>
      </trkpt>
      <trkpt lat="44.75315" lon="-0.0751">
        <ele>27.05</ele>
        <time>2014-11-23T15:07:42Z</time>
      </trkpt>
      <trkpt lat="44.75315" lon="-0.07517">
        <ele>27.05</ele>
        <time>2014-11-23T15:08:09Z</time>
      </trkpt>
      <trkpt lat="44.75307" lon="-0.07521">
        <ele>27.53</ele>
        <time>2014-11-23T15:08:23Z</time>
      </trkpt>
      <trkpt lat="44.75292" lon="-0.07515">
        <ele>27.05</ele>
        <time>2014-11-23T15:08:39Z</time>
      </trkpt>
      <trkpt lat="44.75291" lon="-0.07514">
        <ele>27.05</ele>
        <time>2014-11-23T15:08:40Z</time>
      </trkpt>
      <trkpt lat="44.75272" lon="-0.07511">
        <ele>27.05</ele>
        <time>2014-11-23T15:08:58Z</time>
      </trkpt>
      <trkpt lat="44.75255" lon="-0.07508">
        <ele>27.53</ele>
        <time>2014-11-23T15:09:13Z</time>
      </trkpt>
      <trkpt lat="44.75238" lon="-0.07507">
        <ele>27.53</ele>
        <time>2014-11-23T15:09:29Z</time>
      </trkpt>
      <trkpt lat="44.75229" lon="-0.07516">
        <ele>27.53</ele>
        <time>2014-11-23T15:09:41Z</time>
      </trkpt>
      <trkpt lat="44.75223" lon="-0.07539">
        <ele>28.02</ele>
        <time>2014-11-23T15:09:59Z</time>
      </trkpt>
      <trkpt lat="44.75215" lon="-0.07568">
        <ele>28.5</ele>
        <time>2014-11-23T15:10:21Z</time>
      </trkpt>
      <trkpt lat="44.7521" lon="-0.07588">
        <ele>28.02</ele>
        <time>2014-11-23T15:10:34Z</time>
      </trkpt>
      <trkpt lat="44.75207" lon="-0.07594">
        <ele>28.02</ele>
        <time>2014-11-23T15:10:38Z</time>
      </trkpt>
      <trkpt lat="44.75201" lon="-0.07621">
        <ele>28.5</ele>
        <time>2014-11-23T15:10:57Z</time>
      </trkpt>
      <trkpt lat="44.75201" lon="-0.07623">
        <ele>28.02</ele>
        <time>2014-11-23T15:10:58Z</time>
      </trkpt>
      <trkpt lat="44.75198" lon="-0.07635">
        <ele>28.98</ele>
        <time>2014-11-23T15:11:07Z</time>
      </trkpt>
      <trkpt lat="44.7519" lon="-0.07672">
        <ele>28.5</ele>
        <time>2014-11-23T15:11:30Z</time>
      </trkpt>
      <trkpt lat="44.75183" lon="-0.07699">
        <ele>28.5</ele>
        <time>2014-11-23T15:11:48Z</time>
      </trkpt>
      <trkpt lat="44.75175" lon="-0.07728">
        <ele>28.5</ele>
        <time>2014-11-23T15:12:07Z</time>
      </trkpt>
      <trkpt lat="44.75168" lon="-0.07758">
        <ele>28.98</ele>
        <time>2014-11-23T15:12:27Z</time>
      </trkpt>
      <trkpt lat="44.75166" lon="-0.07767">
        <ele>28.5</ele>
        <time>2014-11-23T15:12:33Z</time>
      </trkpt>
      <trkpt lat="44.75159" lon="-0.078">
        <ele>28.5</ele>
        <time>2014-11-23T15:12:54Z</time>
      </trkpt>
      <trkpt lat="44.75153" lon="-0.07828">
        <ele>28.5</ele>
        <time>2014-11-23T15:13:12Z</time>
      </trkpt>
      <trkpt lat="44.75146" lon="-0.07859">
        <ele>28.5</ele>
        <time>2014-11-23T15:13:32Z</time>
      </trkpt>
      <trkpt lat="44.75142" lon="-0.07877">
        <ele>28.98</ele>
        <time>2014-11-23T15:13:45Z</time>
      </trkpt>
      <trkpt lat="44.75117" lon="-0.07878">
        <ele>30.42</ele>
        <time>2014-11-23T15:14:05Z</time>
      </trkpt>
      <trkpt lat="44.75102" lon="-0.07872">
        <ele>32.82</ele>
        <time>2014-11-23T15:14:21Z</time>
      </trkpt>
      <trkpt lat="44.75098" lon="-0.0787">
        <ele>32.82</ele>
        <time>2014-11-23T15:14:25Z</time>
      </trkpt>
      <trkpt lat="44.75087" lon="-0.07868">
        <ele>35.23</ele>
        <time>2014-11-23T15:14:37Z</time>
      </trkpt>
      <trkpt lat="44.75077" lon="-0.07862">
        <ele>36.67</ele>
        <time>2014-11-23T15:14:47Z</time>
      </trkpt>
      <trkpt lat="44.75073" lon="-0.0784">
        <ele>38.11</ele>
        <time>2014-11-23T15:15:05Z</time>
      </trkpt>
      <trkpt lat="44.75071" lon="-0.07814">
        <ele>38.11</ele>
        <time>2014-11-23T15:15:23Z</time>
      </trkpt>
      <trkpt lat="44.75068" lon="-0.07793">
        <ele>39.07</ele>
        <time>2014-11-23T15:15:41Z</time>
      </trkpt>
      <trkpt lat="44.75063" lon="-0.07771">
        <ele>41.47</ele>
        <time>2014-11-23T15:15:58Z</time>
      </trkpt>
      <trkpt lat="44.75059" lon="-0.07753">
        <ele>42.92</ele>
        <time>2014-11-23T15:16:13Z</time>
      </trkpt>
      <trkpt lat="44.75053" lon="-0.07735">
        <ele>44.84</ele>
        <time>2014-11-23T15:16:30Z</time>
      </trkpt>
      <trkpt lat="44.75045" lon="-0.07717">
        <ele>46.28</ele>
        <time>2014-11-23T15:16:47Z</time>
      </trkpt>
      <trkpt lat="44.75038" lon="-0.07704">
        <ele>47.72</ele>
        <time>2014-11-23T15:17:02Z</time>
      </trkpt>
      <trkpt lat="44.75032" lon="-0.07696">
        <ele>49.65</ele>
        <time>2014-11-23T15:17:18Z</time>
      </trkpt>
      <trkpt lat="44.75023" lon="-0.07695">
        <ele>50.61</ele>
        <time>2014-11-23T15:17:35Z</time>
      </trkpt>
      <trkpt lat="44.75024" lon="-0.07687">
        <ele>50.61</ele>
        <time>2014-11-23T15:17:55Z</time>
      </trkpt>
      <trkpt lat="44.75026" lon="-0.07684">
        <ele>50.61</ele>
        <time>2014-11-23T15:18:15Z</time>
      </trkpt>
      <trkpt lat="44.75029" lon="-0.07688">
        <ele>50.13</ele>
        <time>2014-11-23T15:18:36Z</time>
      </trkpt>
      <trkpt lat="44.75027" lon="-0.07684">
        <ele>50.61</ele>
        <time>2014-11-23T15:19:10Z</time>
      </trkpt>
      <trkpt lat="44.75023" lon="-0.07682">
        <ele>50.61</ele>
        <time>2014-11-23T15:19:33Z</time>
      </trkpt>
      <trkpt lat="44.75023" lon="-0.07684">
        <ele>50.61</ele>
        <time>2014-11-23T15:19:50Z</time>
      </trkpt>
      <trkpt lat="44.75022" lon="-0.07684">
        <ele>50.61</ele>
        <time>2014-11-23T15:20:02Z</time>
      </trkpt>
      <trkpt lat="44.75008" lon="-0.07677">
        <ele>51.57</ele>
        <time>2014-11-23T15:20:17Z</time>
      </trkpt>
      <trkpt lat="44.74999" lon="-0.07654">
        <ele>53.49</ele>
        <time>2014-11-23T15:20:36Z</time>
      </trkpt>
      <trkpt lat="44.74997" lon="-0.07633">
        <ele>53.97</ele>
        <time>2014-11-23T15:20:52Z</time>
      </trkpt>
      <trkpt lat="44.74987" lon="-0.07608">
        <ele>53.97</ele>
        <time>2014-11-23T15:21:09Z</time>
      </trkpt>
      <trkpt lat="44.74969" lon="-0.07577">
        <ele>54.93</ele>
        <time>2014-11-23T15:21:27Z</time>
      </trkpt>
      <trkpt lat="44.74966" lon="-0.07549">
        <ele>56.37</ele>
        <time>2014-11-23T15:21:46Z</time>
      </trkpt>
      <trkpt lat="44.74957" lon="-0.07528">
        <ele>55.41</ele>
        <time>2014-11-23T15:22:02Z</time>
      </trkpt>
      <trkpt lat="44.74951" lon="-0.07528">
        <ele>56.37</ele>
        <time>2014-11-23T15:22:07Z</time>
      </trkpt>
      <trkpt lat="44.74932" lon="-0.07501">
        <ele>56.37</ele>
        <time>2014-11-23T15:22:28Z</time>
      </trkpt>
      <trkpt lat="44.74923" lon="-0.07489">
        <ele>56.37</ele>
        <time>2014-11-23T15:22:42Z</time>
      </trkpt>
      <trkpt lat="44.74921" lon="-0.07486">
        <ele>55.89</ele>
        <time>2014-11-23T15:22:59Z</time>
      </trkpt>
      <trkpt lat="44.74917" lon="-0.07487">
        <ele>55.41</ele>
        <time>2014-11-23T15:23:16Z</time>
      </trkpt>
      <trkpt lat="44.74914" lon="-0.07484">
        <ele>55.41</ele>
        <time>2014-11-23T15:23:53Z</time>
      </trkpt>
    </trkseg>
  </trk>
  <trk>
    <name><![CDATA[track]]></name>
    <extensions>
      <line xmlns="http://www.topografix.com/GPX/gpx_style/0/2">
        <color>00FFFF</color>
        <width>4</width>
      </line>
    </extensions>
    <trkseg>
      <trkpt lat="44.8795" lon="-0.09782">
        <ele>24</ele>
        <time>2020-10-29T08:08:44Z</time>
      </trkpt>
      <trkpt lat="44.8795" lon="-0.09782">
        <ele>24</ele>
        <time>2020-10-29T08:08:45Z</time>
      </trkpt>
      <trkpt lat="44.87947" lon="-0.09779">
        <ele>24</ele>
        <time>2020-10-29T08:09:16Z</time>
      </trkpt>
      <trkpt lat="44.87947" lon="-0.09779">
        <ele>24</ele>
        <time>2020-10-29T08:09:49Z</time>
      </trkpt>
      <trkpt lat="44.87953" lon="-0.09783">
        <ele>24</ele>
        <time>2020-10-29T08:10:04Z</time>
      </trkpt>
      <trkpt lat="44.87962" lon="-0.09797">
        <ele>25</ele>
        <time>2020-10-29T08:10:22Z</time>
      </trkpt>
      <trkpt lat="44.8797" lon="-0.09796">
        <ele>25</ele>
        <time>2020-10-29T08:10:38Z</time>
      </trkpt>
      <trkpt lat="44.8797" lon="-0.09798">
        <ele>24</ele>
        <time>2020-10-29T08:10:55Z</time>
      </trkpt>
      <trkpt lat="44.87969" lon="-0.09797">
        <ele>24</ele>
        <time>2020-10-29T08:11:15Z</time>
      </trkpt>
      <trkpt lat="44.87968" lon="-0.09797">
        <ele>24</ele>
        <time>2020-10-29T08:11:36Z</time>
      </trkpt>
      <trkpt lat="44.87967" lon="-0.09798">
        <ele>24</ele>
        <time>2020-10-29T08:11:52Z</time>
      </trkpt>
      <trkpt lat="44.87969" lon="-0.09796">
        <ele>24</ele>
        <time>2020-10-29T08:12:22Z</time>
      </trkpt>
      <trkpt lat="44.8797" lon="-0.09799">
        <ele>26</ele>
        <time>2020-10-29T08:12:52Z</time>
      </trkpt>
      <trkpt lat="44.8797" lon="-0.09799">
        <ele>24</ele>
        <time>2020-10-29T08:12:54Z</time>
      </trkpt>
      <trkpt lat="44.8797" lon="-0.09798">
        <ele>24</ele>
        <time>2020-10-29T08:13:07Z</time>
      </trkpt>
      <trkpt lat="44.87969" lon="-0.09798">
        <ele>24</ele>
        <time>2020-10-29T08:13:31Z</time>
      </trkpt>
      <trkpt lat="44.87969" lon="-0.09798">
        <ele>25</ele>
        <time>2020-10-29T08:13:48Z</time>
      </trkpt>
      <trkpt lat="44.87967" lon="-0.09798">
        <ele>25</ele>
        <time>2020-10-29T08:14:16Z</time>
      </trkpt>
      <trkpt lat="44.87967" lon="-0.09797">
        <ele>24</ele>
        <time>2020-10-29T08:14:46Z</time>
      </trkpt>
      <trkpt lat="44.87969" lon="-0.09798">
        <ele>25</ele>
        <time>2020-10-29T08:15:19Z</time>
      </trkpt>
      <trkpt lat="44.87969" lon="-0.09799">
        <ele>23</ele>
        <time>2020-10-29T08:15:43Z</time>
      </trkpt>
      <trkpt lat="44.87966" lon="-0.09798">
        <ele>23</ele>
        <time>2020-10-29T08:16:14Z</time>
      </trkpt>
      <trkpt lat="44.87967" lon="-0.09798">
        <ele>25</ele>
        <time>2020-10-29T08:16:17Z</time>
      </trkpt>
      <trkpt lat="44.87967" lon="-0.09798">
        <ele>22</ele>
        <time>2020-10-29T08:16:20Z</time>
      </trkpt>
      <trkpt lat="44.87966" lon="-0.09799">
        <ele>26</ele>
        <time>2020-10-29T08:16:21Z</time>
      </trkpt>
      <trkpt lat="44.87966" lon="-0.09799">
        <ele>24</ele>
        <time>2020-10-29T08:16:22Z</time>
      </trkpt>
      <trkpt lat="44.87966" lon="-0.09804">
        <ele>24</ele>
        <time>2020-10-29T08:16:36Z</time>
      </trkpt>
      <trkpt lat="44.8797" lon="-0.09815">
        <ele>24</ele>
        <time>2020-10-29T08:16:48Z</time>
      </trkpt>
      <trkpt lat="44.87973" lon="-0.09833">
        <ele>24</ele>
        <time>2020-10-29T08:17:05Z</time>
      </trkpt>
      <trkpt lat="44.87985" lon="-0.0983">
        <ele>24</ele>
        <time>2020-10-29T08:17:19Z</time>
      </trkpt>
      <trkpt lat="44.87993" lon="-0.09828">
        <ele>25</ele>
        <time>2020-10-29T08:17:30Z</time>
      </trkpt>
      <trkpt lat="44.88002" lon="-0.09828">
        <ele>25</ele>
        <time>2020-10-29T08:17:41Z</time>
      </trkpt>
      <trkpt lat="44.88015" lon="-0.09829">
        <ele>26</ele>
        <time>2020-10-29T08:17:56Z</time>
      </trkpt>
      <trkpt lat="44.88026" lon="-0.09834">
        <ele>27</ele>
        <time>2020-10-29T08:18:13Z</time>
      </trkpt>
      <trkpt lat="44.8803" lon="-0.09838">
        <ele>28</ele>
        <time>2020-10-29T08:18:26Z</time>
      </trkpt>
      <trkpt lat="44.88033" lon="-0.09837">
        <ele>28</ele>
        <time>2020-10-29T08:18:41Z</time>
      </trkpt>
      <trkpt lat="44.88038" lon="-0.09838">
        <ele>28</ele>
        <time>2020-10-29T08:18:56Z</time>
      </trkpt>
      <trkpt lat="44.88042" lon="-0.09834">
        <ele>29</ele>
        <time>2020-10-29T08:19:12Z</time>
      </trkpt>
      <trkpt lat="44.88046" lon="-0.0984">
        <ele>29</ele>
        <time>2020-10-29T08:19:35Z</time>
      </trkpt>
      <trkpt lat="44.88054" lon="-0.09854">
        <ele>32</ele>
        <time>2020-10-29T08:19:52Z</time>
      </trkpt>
      <trkpt lat="44.88057" lon="-0.09869">
        <ele>33</ele>
        <time>2020-10-29T08:20:09Z</time>
      </trkpt>
      <trkpt lat="44.88063" lon="-0.09887">
        <ele>34</ele>
        <time>2020-10-29T08:20:26Z</time>
      </trkpt>
      <trkpt lat="44.88068" lon="-0.09896">
        <ele>36</ele>
        <time>2020-10-29T08:20:40Z</time>
      </trkpt>
      <trkpt lat="44.8807" lon="-0.09896">
        <ele>37</ele>
        <time>2020-10-29T08:21:02Z</time>
      </trkpt>
      <trkpt lat="44.88071" lon="-0.09895">
        <ele>37</ele>
        <time>2020-10-29T08:21:27Z</time>
      </trkpt>
      <trkpt lat="44.88071" lon="-0.09894">
        <ele>37</ele>
        <time>2020-10-29T08:21:49Z</time>
      </trkpt>
      <trkpt lat="44.88076" lon="-0.09895">
        <ele>37</ele>
        <time>2020-10-29T08:22:03Z</time>
      </trkpt>
      <trkpt lat="44.88088" lon="-0.09893">
        <ele>39</ele>
        <time>2020-10-29T08:22:19Z</time>
      </trkpt>
      <trkpt lat="44.881" lon="-0.09891">
        <ele>40</ele>
        <time>2020-10-29T08:22:32Z</time>
      </trkpt>
      <trkpt lat="44.88107" lon="-0.09896">
        <ele>41</ele>
        <time>2020-10-29T08:22:46Z</time>
      </trkpt>
      <trkpt lat="44.88105" lon="-0.09892">
        <ele>41</ele>
        <time>2020-10-29T08:23:00Z</time>
      </trkpt>
      <trkpt lat="44.88102" lon="-0.0989">
        <ele>41</ele>
        <time>2020-10-29T08:23:04Z</time>
      </trkpt>
      <trkpt lat="44.88096" lon="-0.09892">
        <ele>39</ele>
        <time>2020-10-29T08:23:10Z</time>
      </trkpt>
      <trkpt lat="44.8808" lon="-0.09893">
        <ele>37</ele>
        <time>2020-10-29T08:23:26Z</time>
      </trkpt>
      <trkpt lat="44.88076" lon="-0.09894">
        <ele>37</ele>
        <time>2020-10-29T08:23:30Z</time>
      </trkpt>
      <trkpt lat="44.88071" lon="-0.09887">
        <ele>37</ele>
        <time>2020-10-29T08:23:45Z</time>
      </trkpt>
      <trkpt lat="44.88074" lon="-0.09888">
        <ele>38</ele>
        <time>2020-10-29T08:24:00Z</time>
      </trkpt>
      <trkpt lat="44.88078" lon="-0.09886">
        <ele>38</ele>
        <time>2020-10-29T08:24:05Z</time>
      </trkpt>
      <trkpt lat="44.88095" lon="-0.09883">
        <ele>41</ele>
        <time>2020-10-29T08:24:23Z</time>
      </trkpt>
      <trkpt lat="44.88102" lon="-0.09881">
        <ele>41</ele>
        <time>2020-10-29T08:24:35Z</time>
      </trkpt>
      <trkpt lat="44.8812" lon="-0.09876">
        <ele>44</ele>
        <time>2020-10-29T08:24:52Z</time>
      </trkpt>
      <trkpt lat="44.88122" lon="-0.09867">
        <ele>44</ele>
        <time>2020-10-29T08:25:00Z</time>
      </trkpt>
      <trkpt lat="44.88121" lon="-0.09846">
        <ele>45</ele>
        <time>2020-10-29T08:25:14Z</time>
      </trkpt>
      <trkpt lat="44.88121" lon="-0.09842">
        <ele>45</ele>
        <time>2020-10-29T08:25:18Z</time>
      </trkpt>
      <trkpt lat="44.88123" lon="-0.09835">
        <ele>45</ele>
        <time>2020-10-29T08:25:23Z</time>
      </trkpt>
      <trkpt lat="44.88127" lon="-0.09815">
        <ele>46</ele>
        <time>2020-10-29T08:25:38Z</time>
      </trkpt>
      <trkpt lat="44.8813" lon="-0.09804">
        <ele>46</ele>
        <time>2020-10-29T08:25:46Z</time>
      </trkpt>
      <trkpt lat="44.88131" lon="-0.098">
        <ele>46</ele>
        <time>2020-10-29T08:25:49Z</time>
      </trkpt>
      <trkpt lat="44.88129" lon="-0.0978">
        <ele>45</ele>
        <time>2020-10-29T08:26:02Z</time>
      </trkpt>
      <trkpt lat="44.88127" lon="-0.09777">
        <ele>45</ele>
        <time>2020-10-29T08:26:06Z</time>
      </trkpt>
      <trkpt lat="44.88118" lon="-0.09759">
        <ele>43</ele>
        <time>2020-10-29T08:26:21Z</time>
      </trkpt>
      <trkpt lat="44.88119" lon="-0.09754">
        <ele>42</ele>
        <time>2020-10-29T08:26:25Z</time>
      </trkpt>
      <trkpt lat="44.88121" lon="-0.0975">
        <ele>42</ele>
        <time>2020-10-29T08:26:28Z</time>
      </trkpt>
      <trkpt lat="44.88122" lon="-0.09746">
        <ele>42</ele>
        <time>2020-10-29T08:26:32Z</time>
      </trkpt>
      <trkpt lat="44.88135" lon="-0.0973">
        <ele>42</ele>
        <time>2020-10-29T08:26:50Z</time>
      </trkpt>
      <trkpt lat="44.88143" lon="-0.09718">
        <ele>42</ele>
        <time>2020-10-29T08:27:01Z</time>
      </trkpt>
      <trkpt lat="44.88151" lon="-0.09706">
        <ele>42</ele>
        <time>2020-10-29T08:27:13Z</time>
      </trkpt>
      <trkpt lat="44.88158" lon="-0.09699">
        <ele>43</ele>
        <time>2020-10-29T08:27:21Z</time>
      </trkpt>
      <trkpt lat="44.88172" lon="-0.09687">
        <ele>43</ele>
        <time>2020-10-29T08:27:36Z</time>
      </trkpt>
      <trkpt lat="44.88185" lon="-0.0967">
        <ele>44</ele>
        <time>2020-10-29T08:27:53Z</time>
      </trkpt>
      <trkpt lat="44.8819" lon="-0.09664">
        <ele>44</ele>
        <time>2020-10-29T08:27:59Z</time>
      </trkpt>
      <trkpt lat="44.88197" lon="-0.09661">
        <ele>44</ele>
        <time>2020-10-29T08:28:06Z</time>
      </trkpt>
      <trkpt lat="44.88199" lon="-0.09661">
        <ele>45</ele>
        <time>2020-10-29T08:28:10Z</time>
      </trkpt>
      <trkpt lat="44.88205" lon="-0.09664">
        <ele>45</ele>
        <time>2020-10-29T08:28:17Z</time>
      </trkpt>
      <trkpt lat="44.88213" lon="-0.09672">
        <ele>47</ele>
        <time>2020-10-29T08:28:29Z</time>
      </trkpt>
      <trkpt lat="44.88227" lon="-0.09683">
        <ele>50</ele>
        <time>2020-10-29T08:28:45Z</time>
      </trkpt>
      <trkpt lat="44.88238" lon="-0.09697">
        <ele>53</ele>
        <time>2020-10-29T08:29:01Z</time>
      </trkpt>
      <trkpt lat="44.88246" lon="-0.09704">
        <ele>55</ele>
        <time>2020-10-29T08:29:12Z</time>
      </trkpt>
      <trkpt lat="44.88252" lon="-0.09704">
        <ele>55</ele>
        <time>2020-10-29T08:29:19Z</time>
      </trkpt>
      <trkpt lat="44.88264" lon="-0.09716">
        <ele>58</ele>
        <time>2020-10-29T08:29:36Z</time>
      </trkpt>
      <trkpt lat="44.88274" lon="-0.09727">
        <ele>60</ele>
        <time>2020-10-29T08:29:50Z</time>
      </trkpt>
      <trkpt lat="44.88282" lon="-0.09739">
        <ele>62</ele>
        <time>2020-10-29T08:30:05Z</time>
      </trkpt>
      <trkpt lat="44.8829" lon="-0.0975">
        <ele>64</ele>
        <time>2020-10-29T08:30:20Z</time>
      </trkpt>
      <trkpt lat="44.88297" lon="-0.09767">
        <ele>65</ele>
        <time>2020-10-29T08:30:35Z</time>
      </trkpt>
      <trkpt lat="44.88298" lon="-0.09781">
        <ele>67</ele>
        <time>2020-10-29T08:30:48Z</time>
      </trkpt>
      <trkpt lat="44.88298" lon="-0.09786">
        <ele>69</ele>
        <time>2020-10-29T08:30:54Z</time>
      </trkpt>
      <trkpt lat="44.88296" lon="-0.09801">
        <ele>71</ele>
        <time>2020-10-29T08:31:12Z</time>
      </trkpt>
      <trkpt lat="44.88294" lon="-0.09814">
        <ele>74</ele>
        <time>2020-10-29T08:31:24Z</time>
      </trkpt>
      <trkpt lat="44.88294" lon="-0.09815">
        <ele>74</ele>
        <time>2020-10-29T08:31:25Z</time>
      </trkpt>
      <trkpt lat="44.88294" lon="-0.09828">
        <ele>75</ele>
        <time>2020-10-29T08:31:41Z</time>
      </trkpt>
      <trkpt lat="44.88293" lon="-0.09831">
        <ele>75</ele>
        <time>2020-10-29T08:32:00Z</time>
      </trkpt>
      <trkpt lat="44.88295" lon="-0.09835">
        <ele>73</ele>
        <time>2020-10-29T08:32:22Z</time>
      </trkpt>
      <trkpt lat="44.88296" lon="-0.09836">
        <ele>77</ele>
        <time>2020-10-29T08:32:23Z</time>
      </trkpt>
      <trkpt lat="44.88301" lon="-0.09846">
        <ele>78</ele>
        <time>2020-10-29T08:32:40Z</time>
      </trkpt>
      <trkpt lat="44.88313" lon="-0.09852">
        <ele>78</ele>
        <time>2020-10-29T08:32:53Z</time>
      </trkpt>
      <trkpt lat="44.88316" lon="-0.09868">
        <ele>81</ele>
        <time>2020-10-29T08:33:15Z</time>
      </trkpt>
      <trkpt lat="44.88315" lon="-0.09867">
        <ele>81</ele>
        <time>2020-10-29T08:33:36Z</time>
      </trkpt>
      <trkpt lat="44.88313" lon="-0.09865">
        <ele>81</ele>
        <time>2020-10-29T08:33:38Z</time>
      </trkpt>
      <trkpt lat="44.88304" lon="-0.09859">
        <ele>84</ele>
        <time>2020-10-29T08:33:47Z</time>
      </trkpt>
      <trkpt lat="44.88301" lon="-0.09859">
        <ele>82</ele>
        <time>2020-10-29T08:33:49Z</time>
      </trkpt>
      <trkpt lat="44.88286" lon="-0.09853">
        <ele>82</ele>
        <time>2020-10-29T08:34:05Z</time>
      </trkpt>
      <trkpt lat="44.8827" lon="-0.09853">
        <ele>81</ele>
        <time>2020-10-29T08:34:20Z</time>
      </trkpt>
      <trkpt lat="44.88254" lon="-0.0985">
        <ele>83</ele>
        <time>2020-10-29T08:34:36Z</time>
      </trkpt>
      <trkpt lat="44.88241" lon="-0.0985">
        <ele>81</ele>
        <time>2020-10-29T08:34:50Z</time>
      </trkpt>
      <trkpt lat="44.88225" lon="-0.09859">
        <ele>81</ele>
        <time>2020-10-29T08:35:06Z</time>
      </trkpt>
      <trkpt lat="44.88211" lon="-0.09862">
        <ele>81</ele>
        <time>2020-10-29T08:35:23Z</time>
      </trkpt>
      <trkpt lat="44.88205" lon="-0.09859">
        <ele>81</ele>
        <time>2020-10-29T08:35:44Z</time>
      </trkpt>
      <trkpt lat="44.88204" lon="-0.09861">
        <ele>81</ele>
        <time>2020-10-29T08:36:06Z</time>
      </trkpt>
      <trkpt lat="44.88203" lon="-0.09862">
        <ele>81</ele>
        <time>2020-10-29T08:36:25Z</time>
      </trkpt>
      <trkpt lat="44.88203" lon="-0.09859">
        <ele>81</ele>
        <time>2020-10-29T08:36:43Z</time>
      </trkpt>
      <trkpt lat="44.88205" lon="-0.09857">
        <ele>81</ele>
        <time>2020-10-29T08:37:09Z</time>
      </trkpt>
      <trkpt lat="44.88204" lon="-0.0986">
        <ele>81</ele>
        <time>2020-10-29T08:37:23Z</time>
      </trkpt>
      <trkpt lat="44.88202" lon="-0.0986">
        <ele>81</ele>
        <time>2020-10-29T08:37:36Z</time>
      </trkpt>
      <trkpt lat="44.88207" lon="-0.09857">
        <ele>81</ele>
        <time>2020-10-29T08:37:51Z</time>
      </trkpt>
      <trkpt lat="44.88208" lon="-0.09861">
        <ele>81</ele>
        <time>2020-10-29T08:38:05Z</time>
      </trkpt>
      <trkpt lat="44.88204" lon="-0.09864">
        <ele>81</ele>
        <time>2020-10-29T08:38:24Z</time>
      </trkpt>
      <trkpt lat="44.88202" lon="-0.09865">
        <ele>80</ele>
        <time>2020-10-29T08:38:51Z</time>
      </trkpt>
      <trkpt lat="44.88203" lon="-0.09862">
        <ele>80</ele>
        <time>2020-10-29T08:39:19Z</time>
      </trkpt>
      <trkpt lat="44.88203" lon="-0.09864">
        <ele>80</ele>
        <time>2020-10-29T08:39:49Z</time>
      </trkpt>
      <trkpt lat="44.88203" lon="-0.09863">
        <ele>81</ele>
        <time>2020-10-29T08:40:21Z</time>
      </trkpt>
      <trkpt lat="44.88209" lon="-0.09858">
        <ele>81</ele>
        <time>2020-10-29T08:40:41Z</time>
      </trkpt>
      <trkpt lat="44.8821" lon="-0.09858">
        <ele>81</ele>
        <time>2020-10-29T08:40:42Z</time>
      </trkpt>
      <trkpt lat="44.88226" lon="-0.09859">
        <ele>81</ele>
        <time>2020-10-29T08:41:00Z</time>
      </trkpt>
      <trkpt lat="44.88244" lon="-0.09853">
        <ele>81</ele>
        <time>2020-10-29T08:41:20Z</time>
      </trkpt>
      <trkpt lat="44.88253" lon="-0.09849">
        <ele>81</ele>
        <time>2020-10-29T08:41:32Z</time>
      </trkpt>
      <trkpt lat="44.88256" lon="-0.09849">
        <ele>81</ele>
        <time>2020-10-29T08:41:36Z</time>
      </trkpt>
      <trkpt lat="44.88271" lon="-0.09851">
        <ele>80</ele>
        <time>2020-10-29T08:41:53Z</time>
      </trkpt>
      <trkpt lat="44.88287" lon="-0.09854">
        <ele>80</ele>
        <time>2020-10-29T08:42:12Z</time>
      </trkpt>
      <trkpt lat="44.88305" lon="-0.09861">
        <ele>80</ele>
        <time>2020-10-29T08:42:30Z</time>
      </trkpt>
      <trkpt lat="44.88317" lon="-0.09867">
        <ele>80</ele>
        <time>2020-10-29T08:42:43Z</time>
      </trkpt>
      <trkpt lat="44.88329" lon="-0.09883">
        <ele>80</ele>
        <time>2020-10-29T08:43:01Z</time>
      </trkpt>
      <trkpt lat="44.88337" lon="-0.09898">
        <ele>81</ele>
        <time>2020-10-29T08:43:14Z</time>
      </trkpt>
      <trkpt lat="44.88338" lon="-0.09901">
        <ele>81</ele>
        <time>2020-10-29T08:43:16Z</time>
      </trkpt>
      <trkpt lat="44.88348" lon="-0.09925">
        <ele>81</ele>
        <time>2020-10-29T08:43:37Z</time>
      </trkpt>
      <trkpt lat="44.88352" lon="-0.0993">
        <ele>81</ele>
        <time>2020-10-29T08:43:42Z</time>
      </trkpt>
      <trkpt lat="44.88364" lon="-0.09958">
        <ele>82</ele>
        <time>2020-10-29T08:44:04Z</time>
      </trkpt>
      <trkpt lat="44.88366" lon="-0.09962">
        <ele>75</ele>
        <time>2020-10-29T08:44:07Z</time>
      </trkpt>
      <trkpt lat="44.88367" lon="-0.09963">
        <ele>79</ele>
        <time>2020-10-29T08:44:08Z</time>
      </trkpt>
      <trkpt lat="44.88367" lon="-0.09965">
        <ele>93</ele>
        <time>2020-10-29T08:44:10Z</time>
      </trkpt>
      <trkpt lat="44.88368" lon="-0.09966">
        <ele>83</ele>
        <time>2020-10-29T08:44:11Z</time>
      </trkpt>
      <trkpt lat="44.88369" lon="-0.09969">
        <ele>82</ele>
        <time>2020-10-29T08:44:13Z</time>
      </trkpt>
      <trkpt lat="44.88378" lon="-0.09991">
        <ele>82</ele>
        <time>2020-10-29T08:44:31Z</time>
      </trkpt>
      <trkpt lat="44.88387" lon="-0.10015">
        <ele>83</ele>
        <time>2020-10-29T08:44:50Z</time>
      </trkpt>
      <trkpt lat="44.88396" lon="-0.10037">
        <ele>83</ele>
        <time>2020-10-29T08:45:06Z</time>
      </trkpt>
      <trkpt lat="44.88406" lon="-0.1006">
        <ele>84</ele>
        <time>2020-10-29T08:45:25Z</time>
      </trkpt>
      <trkpt lat="44.88417" lon="-0.10083">
        <ele>85</ele>
        <time>2020-10-29T08:45:43Z</time>
      </trkpt>
      <trkpt lat="44.88427" lon="-0.10107">
        <ele>85</ele>
        <time>2020-10-29T08:46:02Z</time>
      </trkpt>
      <trkpt lat="44.88436" lon="-0.10129">
        <ele>85</ele>
        <time>2020-10-29T08:46:19Z</time>
      </trkpt>
      <trkpt lat="44.88442" lon="-0.10142">
        <ele>83</ele>
        <time>2020-10-29T08:46:30Z</time>
      </trkpt>
      <trkpt lat="44.88455" lon="-0.10168">
        <ele>83</ele>
        <time>2020-10-29T08:46:50Z</time>
      </trkpt>
      <trkpt lat="44.88465" lon="-0.10188">
        <ele>83</ele>
        <time>2020-10-29T08:47:06Z</time>
      </trkpt>
      <trkpt lat="44.88472" lon="-0.10201">
        <ele>83</ele>
        <time>2020-10-29T08:47:17Z</time>
      </trkpt>
      <trkpt lat="44.88484" lon="-0.10226">
        <ele>78</ele>
        <time>2020-10-29T08:47:36Z</time>
      </trkpt>
      <trkpt lat="44.88485" lon="-0.10227">
        <ele>86</ele>
        <time>2020-10-29T08:47:37Z</time>
      </trkpt>
      <trkpt lat="44.88486" lon="-0.10229">
        <ele>82</ele>
        <time>2020-10-29T08:47:39Z</time>
      </trkpt>
      <trkpt lat="44.88487" lon="-0.1023">
        <ele>82</ele>
        <time>2020-10-29T08:47:40Z</time>
      </trkpt>
      <trkpt lat="44.88491" lon="-0.10247">
        <ele>82</ele>
        <time>2020-10-29T08:47:53Z</time>
      </trkpt>
      <trkpt lat="44.88494" lon="-0.10253">
        <ele>82</ele>
        <time>2020-10-29T08:47:58Z</time>
      </trkpt>
      <trkpt lat="44.88509" lon="-0.1025">
        <ele>82</ele>
        <time>2020-10-29T08:48:14Z</time>
      </trkpt>
      <trkpt lat="44.88512" lon="-0.10251">
        <ele>82</ele>
        <time>2020-10-29T08:48:17Z</time>
      </trkpt>
      <trkpt lat="44.88524" lon="-0.10265">
        <ele>82</ele>
        <time>2020-10-29T08:48:31Z</time>
      </trkpt>
      <trkpt lat="44.88527" lon="-0.10272">
        <ele>82</ele>
        <time>2020-10-29T08:48:35Z</time>
      </trkpt>
      <trkpt lat="44.88537" lon="-0.10293">
        <ele>82</ele>
        <time>2020-10-29T08:48:51Z</time>
      </trkpt>
      <trkpt lat="44.88547" lon="-0.10308">
        <ele>82</ele>
        <time>2020-10-29T08:49:04Z</time>
      </trkpt>
      <trkpt lat="44.88553" lon="-0.10316">
        <ele>82</ele>
        <time>2020-10-29T08:49:14Z</time>
      </trkpt>
      <trkpt lat="44.88559" lon="-0.10336">
        <ele>82</ele>
        <time>2020-10-29T08:49:28Z</time>
      </trkpt>
      <trkpt lat="44.88565" lon="-0.1036">
        <ele>82</ele>
        <time>2020-10-29T08:49:45Z</time>
      </trkpt>
      <trkpt lat="44.88571" lon="-0.10379">
        <ele>82</ele>
        <time>2020-10-29T08:50:00Z</time>
      </trkpt>
      <trkpt lat="44.88574" lon="-0.10394">
        <ele>82</ele>
        <time>2020-10-29T08:50:13Z</time>
      </trkpt>
      <trkpt lat="44.88576" lon="-0.104">
        <ele>82</ele>
        <time>2020-10-29T08:50:30Z</time>
      </trkpt>
      <trkpt lat="44.88577" lon="-0.10402">
        <ele>82</ele>
        <time>2020-10-29T08:50:32Z</time>
      </trkpt>
      <trkpt lat="44.88578" lon="-0.10411">
        <ele>82</ele>
        <time>2020-10-29T08:50:48Z</time>
      </trkpt>
      <trkpt lat="44.8858" lon="-0.10415">
        <ele>82</ele>
        <time>2020-10-29T08:50:56Z</time>
      </trkpt>
      <trkpt lat="44.88583" lon="-0.10428">
        <ele>82</ele>
        <time>2020-10-29T08:51:10Z</time>
      </trkpt>
      <trkpt lat="44.88588" lon="-0.10443">
        <ele>82</ele>
        <time>2020-10-29T08:51:24Z</time>
      </trkpt>
      <trkpt lat="44.88591" lon="-0.10453">
        <ele>82</ele>
        <time>2020-10-29T08:51:33Z</time>
      </trkpt>
      <trkpt lat="44.88592" lon="-0.10455">
        <ele>87</ele>
        <time>2020-10-29T08:51:35Z</time>
      </trkpt>
      <trkpt lat="44.88594" lon="-0.10456">
        <ele>83</ele>
        <time>2020-10-29T08:51:36Z</time>
      </trkpt>
      <trkpt lat="44.88596" lon="-0.10459">
        <ele>82</ele>
        <time>2020-10-29T08:51:38Z</time>
      </trkpt>
      <trkpt lat="44.88602" lon="-0.10478">
        <ele>82</ele>
        <time>2020-10-29T08:51:56Z</time>
      </trkpt>
      <trkpt lat="44.88604" lon="-0.10483">
        <ele>82</ele>
        <time>2020-10-29T08:52:00Z</time>
      </trkpt>
      <trkpt lat="44.88615" lon="-0.10509">
        <ele>82</ele>
        <time>2020-10-29T08:52:20Z</time>
      </trkpt>
      <trkpt lat="44.88619" lon="-0.10535">
        <ele>83</ele>
        <time>2020-10-29T08:52:39Z</time>
      </trkpt>
      <trkpt lat="44.88616" lon="-0.10555">
        <ele>83</ele>
        <time>2020-10-29T08:52:54Z</time>
      </trkpt>
      <trkpt lat="44.88617" lon="-0.10558">
        <ele>85</ele>
        <time>2020-10-29T08:52:56Z</time>
      </trkpt>
      <trkpt lat="44.88618" lon="-0.10562">
        <ele>83</ele>
        <time>2020-10-29T08:52:59Z</time>
      </trkpt>
      <trkpt lat="44.88627" lon="-0.10582">
        <ele>83</ele>
        <time>2020-10-29T08:53:14Z</time>
      </trkpt>
      <trkpt lat="44.88633" lon="-0.10596">
        <ele>84</ele>
        <time>2020-10-29T08:53:26Z</time>
      </trkpt>
      <trkpt lat="44.8864" lon="-0.10615">
        <ele>84</ele>
        <time>2020-10-29T08:53:38Z</time>
      </trkpt>
      <trkpt lat="44.88645" lon="-0.10624">
        <ele>84</ele>
        <time>2020-10-29T08:53:48Z</time>
      </trkpt>
      <trkpt lat="44.88653" lon="-0.10646">
        <ele>84</ele>
        <time>2020-10-29T08:54:04Z</time>
      </trkpt>
      <trkpt lat="44.88662" lon="-0.10664">
        <ele>85</ele>
        <time>2020-10-29T08:54:18Z</time>
      </trkpt>
      <trkpt lat="44.88667" lon="-0.10677">
        <ele>85</ele>
        <time>2020-10-29T08:54:30Z</time>
      </trkpt>
      <trkpt lat="44.88668" lon="-0.1068">
        <ele>85</ele>
        <time>2020-10-29T08:54:37Z</time>
      </trkpt>
      <trkpt lat="44.88672" lon="-0.10696">
        <ele>86</ele>
        <time>2020-10-29T08:54:48Z</time>
      </trkpt>
      <trkpt lat="44.8868" lon="-0.10712">
        <ele>86</ele>
        <time>2020-10-29T08:55:02Z</time>
      </trkpt>
      <trkpt lat="44.88687" lon="-0.10729">
        <ele>87</ele>
        <time>2020-10-29T08:55:16Z</time>
      </trkpt>
      <trkpt lat="44.88694" lon="-0.10745">
        <ele>88</ele>
        <time>2020-10-29T08:55:28Z</time>
      </trkpt>
      <trkpt lat="44.88695" lon="-0.10747">
        <ele>88</ele>
        <time>2020-10-29T08:55:30Z</time>
      </trkpt>
      <trkpt lat="44.88704" lon="-0.10766">
        <ele>89</ele>
        <time>2020-10-29T08:55:45Z</time>
      </trkpt>
      <trkpt lat="44.8871" lon="-0.10781">
        <ele>90</ele>
        <time>2020-10-29T08:55:57Z</time>
      </trkpt>
      <trkpt lat="44.88714" lon="-0.10791">
        <ele>91</ele>
        <time>2020-10-29T08:56:05Z</time>
      </trkpt>
      <trkpt lat="44.88722" lon="-0.1081">
        <ele>92</ele>
        <time>2020-10-29T08:56:20Z</time>
      </trkpt>
      <trkpt lat="44.88725" lon="-0.10816">
        <ele>93</ele>
        <time>2020-10-29T08:56:25Z</time>
      </trkpt>
      <trkpt lat="44.88726" lon="-0.10819">
        <ele>93</ele>
        <time>2020-10-29T08:56:28Z</time>
      </trkpt>
      <trkpt lat="44.88728" lon="-0.10824">
        <ele>93</ele>
        <time>2020-10-29T08:56:31Z</time>
      </trkpt>
      <trkpt lat="44.8873" lon="-0.10827">
        <ele>94</ele>
        <time>2020-10-29T08:56:35Z</time>
      </trkpt>
      <trkpt lat="44.88732" lon="-0.10833">
        <ele>94</ele>
        <time>2020-10-29T08:56:40Z</time>
      </trkpt>
      <trkpt lat="44.88738" lon="-0.10847">
        <ele>95</ele>
        <time>2020-10-29T08:56:52Z</time>
      </trkpt>
      <trkpt lat="44.88738" lon="-0.10849">
        <ele>95</ele>
        <time>2020-10-29T08:56:54Z</time>
      </trkpt>
      <trkpt lat="44.88746" lon="-0.10869">
        <ele>95</ele>
        <time>2020-10-29T08:57:08Z</time>
      </trkpt>
      <trkpt lat="44.88754" lon="-0.10886">
        <ele>95</ele>
        <time>2020-10-29T08:57:21Z</time>
      </trkpt>
      <trkpt lat="44.88763" lon="-0.109">
        <ele>94</ele>
        <time>2020-10-29T08:57:34Z</time>
      </trkpt>
      <trkpt lat="44.8877" lon="-0.10912">
        <ele>93</ele>
        <time>2020-10-29T08:57:48Z</time>
      </trkpt>
      <trkpt lat="44.88783" lon="-0.1094">
        <ele>92</ele>
        <time>2020-10-29T08:58:03Z</time>
      </trkpt>
      <trkpt lat="44.88794" lon="-0.10957">
        <ele>92</ele>
        <time>2020-10-29T08:58:16Z</time>
      </trkpt>
      <trkpt lat="44.88803" lon="-0.10971">
        <ele>91</ele>
        <time>2020-10-29T08:58:34Z</time>
      </trkpt>
      <trkpt lat="44.88816" lon="-0.10997">
        <ele>90</ele>
        <time>2020-10-29T08:58:49Z</time>
      </trkpt>
      <trkpt lat="44.88829" lon="-0.11018">
        <ele>90</ele>
        <time>2020-10-29T08:59:03Z</time>
      </trkpt>
      <trkpt lat="44.88841" lon="-0.11037">
        <ele>89</ele>
        <time>2020-10-29T08:59:22Z</time>
      </trkpt>
      <trkpt lat="44.88849" lon="-0.11054">
        <ele>87</ele>
        <time>2020-10-29T08:59:33Z</time>
      </trkpt>
      <trkpt lat="44.88854" lon="-0.11063">
        <ele>88</ele>
        <time>2020-10-29T08:59:39Z</time>
      </trkpt>
      <trkpt lat="44.88867" lon="-0.11086">
        <ele>87</ele>
        <time>2020-10-29T08:59:55Z</time>
      </trkpt>
      <trkpt lat="44.88878" lon="-0.11109">
        <ele>85</ele>
        <time>2020-10-29T09:00:09Z</time>
      </trkpt>
      <trkpt lat="44.88892" lon="-0.11131">
        <ele>85</ele>
        <time>2020-10-29T09:00:27Z</time>
      </trkpt>
      <trkpt lat="44.88904" lon="-0.1115">
        <ele>84</ele>
        <time>2020-10-29T09:00:46Z</time>
      </trkpt>
      <trkpt lat="44.88915" lon="-0.11167">
        <ele>83</ele>
        <time>2020-10-29T09:01:04Z</time>
      </trkpt>
      <trkpt lat="44.88926" lon="-0.11193">
        <ele>82</ele>
        <time>2020-10-29T09:01:20Z</time>
      </trkpt>
      <trkpt lat="44.88943" lon="-0.11226">
        <ele>82</ele>
        <time>2020-10-29T09:01:38Z</time>
      </trkpt>
      <trkpt lat="44.88959" lon="-0.1125">
        <ele>81</ele>
        <time>2020-10-29T09:01:57Z</time>
      </trkpt>
      <trkpt lat="44.88967" lon="-0.11264">
        <ele>81</ele>
        <time>2020-10-29T09:02:14Z</time>
      </trkpt>
      <trkpt lat="44.88979" lon="-0.11286">
        <ele>81</ele>
        <time>2020-10-29T09:02:29Z</time>
      </trkpt>
      <trkpt lat="44.88988" lon="-0.11301">
        <ele>81</ele>
        <time>2020-10-29T09:02:41Z</time>
      </trkpt>
      <trkpt lat="44.88996" lon="-0.1133">
        <ele>81</ele>
        <time>2020-10-29T09:02:57Z</time>
      </trkpt>
      <trkpt lat="44.89003" lon="-0.11352">
        <ele>81</ele>
        <time>2020-10-29T09:03:18Z</time>
      </trkpt>
      <trkpt lat="44.89011" lon="-0.11381">
        <ele>81</ele>
        <time>2020-10-29T09:03:37Z</time>
      </trkpt>
      <trkpt lat="44.89016" lon="-0.11402">
        <ele>81</ele>
        <time>2020-10-29T09:03:48Z</time>
      </trkpt>
      <trkpt lat="44.89018" lon="-0.11419">
        <ele>81</ele>
        <time>2020-10-29T09:04:01Z</time>
      </trkpt>
      <trkpt lat="44.89022" lon="-0.11437">
        <ele>81</ele>
        <time>2020-10-29T09:04:14Z</time>
      </trkpt>
      <trkpt lat="44.89026" lon="-0.11448">
        <ele>82</ele>
        <time>2020-10-29T09:04:20Z</time>
      </trkpt>
      <trkpt lat="44.89033" lon="-0.11471">
        <ele>82</ele>
        <time>2020-10-29T09:04:38Z</time>
      </trkpt>
      <trkpt lat="44.89045" lon="-0.11507">
        <ele>83</ele>
        <time>2020-10-29T09:05:00Z</time>
      </trkpt>
      <trkpt lat="44.89052" lon="-0.11531">
        <ele>83</ele>
        <time>2020-10-29T09:05:20Z</time>
      </trkpt>
      <trkpt lat="44.89058" lon="-0.11564">
        <ele>85</ele>
        <time>2020-10-29T09:05:38Z</time>
      </trkpt>
      <trkpt lat="44.8906" lon="-0.11569">
        <ele>84</ele>
        <time>2020-10-29T09:05:41Z</time>
      </trkpt>
      <trkpt lat="44.89071" lon="-0.11605">
        <ele>84</ele>
        <time>2020-10-29T09:05:59Z</time>
      </trkpt>
      <trkpt lat="44.89079" lon="-0.11628">
        <ele>85</ele>
        <time>2020-10-29T09:06:21Z</time>
      </trkpt>
      <trkpt lat="44.8908" lon="-0.11639">
        <ele>85</ele>
        <time>2020-10-29T09:06:28Z</time>
      </trkpt>
      <trkpt lat="44.89089" lon="-0.11667">
        <ele>85</ele>
        <time>2020-10-29T09:06:48Z</time>
      </trkpt>
      <trkpt lat="44.89091" lon="-0.11678">
        <ele>85</ele>
        <time>2020-10-29T09:06:55Z</time>
      </trkpt>
      <trkpt lat="44.89092" lon="-0.11686">
        <ele>85</ele>
        <time>2020-10-29T09:06:59Z</time>
      </trkpt>
      <trkpt lat="44.89097" lon="-0.11709">
        <ele>85</ele>
        <time>2020-10-29T09:07:14Z</time>
      </trkpt>
      <trkpt lat="44.89104" lon="-0.11731">
        <ele>85</ele>
        <time>2020-10-29T09:07:28Z</time>
      </trkpt>
      <trkpt lat="44.8911" lon="-0.11753">
        <ele>85</ele>
        <time>2020-10-29T09:07:45Z</time>
      </trkpt>
      <trkpt lat="44.89118" lon="-0.11783">
        <ele>85</ele>
        <time>2020-10-29T09:08:01Z</time>
      </trkpt>
      <trkpt lat="44.89125" lon="-0.11806">
        <ele>85</ele>
        <time>2020-10-29T09:08:19Z</time>
      </trkpt>
      <trkpt lat="44.89127" lon="-0.1181">
        <ele>82</ele>
        <time>2020-10-29T09:08:25Z</time>
      </trkpt>
      <trkpt lat="44.89127" lon="-0.1181">
        <ele>88</ele>
        <time>2020-10-29T09:08:26Z</time>
      </trkpt>
      <trkpt lat="44.89127" lon="-0.1181">
        <ele>88</ele>
        <time>2020-10-29T09:08:27Z</time>
      </trkpt>
      <trkpt lat="44.89128" lon="-0.11809">
        <ele>86</ele>
        <time>2020-10-29T09:08:29Z</time>
      </trkpt>
      <trkpt lat="44.89128" lon="-0.11814">
        <ele>86</ele>
        <time>2020-10-29T09:08:50Z</time>
      </trkpt>
      <trkpt lat="44.89133" lon="-0.11824">
        <ele>86</ele>
        <time>2020-10-29T09:09:11Z</time>
      </trkpt>
      <trkpt lat="44.89136" lon="-0.11836">
        <ele>86</ele>
        <time>2020-10-29T09:09:25Z</time>
      </trkpt>
      <trkpt lat="44.89141" lon="-0.11844">
        <ele>86</ele>
        <time>2020-10-29T09:09:40Z</time>
      </trkpt>
      <trkpt lat="44.89144" lon="-0.11849">
        <ele>82</ele>
        <time>2020-10-29T09:09:45Z</time>
      </trkpt>
      <trkpt lat="44.89144" lon="-0.11851">
        <ele>89</ele>
        <time>2020-10-29T09:09:46Z</time>
      </trkpt>
      <trkpt lat="44.89146" lon="-0.11853">
        <ele>85</ele>
        <time>2020-10-29T09:09:48Z</time>
      </trkpt>
      <trkpt lat="44.89146" lon="-0.11854">
        <ele>85</ele>
        <time>2020-10-29T09:09:49Z</time>
      </trkpt>
      <trkpt lat="44.89148" lon="-0.11861">
        <ele>85</ele>
        <time>2020-10-29T09:10:02Z</time>
      </trkpt>
      <trkpt lat="44.89148" lon="-0.11859">
        <ele>85</ele>
        <time>2020-10-29T09:10:15Z</time>
      </trkpt>
      <trkpt lat="44.89157" lon="-0.11878">
        <ele>84</ele>
        <time>2020-10-29T09:10:30Z</time>
      </trkpt>
      <trkpt lat="44.89162" lon="-0.11896">
        <ele>84</ele>
        <time>2020-10-29T09:10:42Z</time>
      </trkpt>
      <trkpt lat="44.89168" lon="-0.11917">
        <ele>83</ele>
        <time>2020-10-29T09:10:59Z</time>
      </trkpt>
      <trkpt lat="44.89168" lon="-0.11918">
        <ele>83</ele>
        <time>2020-10-29T09:11:00Z</time>
      </trkpt>
      <trkpt lat="44.89174" lon="-0.11949">
        <ele>83</ele>
        <time>2020-10-29T09:11:15Z</time>
      </trkpt>
      <trkpt lat="44.89174" lon="-0.11965">
        <ele>83</ele>
        <time>2020-10-29T09:11:30Z</time>
      </trkpt>
      <trkpt lat="44.89173" lon="-0.11963">
        <ele>83</ele>
        <time>2020-10-29T09:11:47Z</time>
      </trkpt>
      <trkpt lat="44.89171" lon="-0.11964">
        <ele>83</ele>
        <time>2020-10-29T09:12:02Z</time>
      </trkpt>
      <trkpt lat="44.8917" lon="-0.11969">
        <ele>82</ele>
        <time>2020-10-29T09:12:19Z</time>
      </trkpt>
      <trkpt lat="44.8917" lon="-0.11971">
        <ele>82</ele>
        <time>2020-10-29T09:12:34Z</time>
      </trkpt>
      <trkpt lat="44.8917" lon="-0.11976">
        <ele>82</ele>
        <time>2020-10-29T09:12:45Z</time>
      </trkpt>
      <trkpt lat="44.89171" lon="-0.11975">
        <ele>82</ele>
        <time>2020-10-29T09:12:49Z</time>
      </trkpt>
      <trkpt lat="44.89174" lon="-0.11966">
        <ele>82</ele>
        <time>2020-10-29T09:12:55Z</time>
      </trkpt>
      <trkpt lat="44.89172" lon="-0.11939">
        <ele>82</ele>
        <time>2020-10-29T09:13:12Z</time>
      </trkpt>
      <trkpt lat="44.89167" lon="-0.11924">
        <ele>82</ele>
        <time>2020-10-29T09:13:24Z</time>
      </trkpt>
      <trkpt lat="44.89167" lon="-0.11915">
        <ele>83</ele>
        <time>2020-10-29T09:13:29Z</time>
      </trkpt>
      <trkpt lat="44.89157" lon="-0.11885">
        <ele>84</ele>
        <time>2020-10-29T09:13:50Z</time>
      </trkpt>
      <trkpt lat="44.89156" lon="-0.11877">
        <ele>84</ele>
        <time>2020-10-29T09:13:56Z</time>
      </trkpt>
      <trkpt lat="44.89154" lon="-0.11865">
        <ele>84</ele>
        <time>2020-10-29T09:14:02Z</time>
      </trkpt>
      <trkpt lat="44.89145" lon="-0.11845">
        <ele>85</ele>
        <time>2020-10-29T09:14:18Z</time>
      </trkpt>
      <trkpt lat="44.89143" lon="-0.11824">
        <ele>86</ele>
        <time>2020-10-29T09:14:32Z</time>
      </trkpt>
      <trkpt lat="44.89161" lon="-0.11801">
        <ele>82</ele>
        <time>2020-10-29T09:14:49Z</time>
      </trkpt>
      <trkpt lat="44.89162" lon="-0.118">
        <ele>85</ele>
        <time>2020-10-29T09:14:50Z</time>
      </trkpt>
      <trkpt lat="44.89164" lon="-0.11797">
        <ele>91</ele>
        <time>2020-10-29T09:14:52Z</time>
      </trkpt>
      <trkpt lat="44.89165" lon="-0.11797">
        <ele>87</ele>
        <time>2020-10-29T09:14:53Z</time>
      </trkpt>
      <trkpt lat="44.89167" lon="-0.11796">
        <ele>86</ele>
        <time>2020-10-29T09:14:55Z</time>
      </trkpt>
      <trkpt lat="44.89178" lon="-0.11783">
        <ele>86</ele>
        <time>2020-10-29T09:15:09Z</time>
      </trkpt>
      <trkpt lat="44.89195" lon="-0.11765">
        <ele>85</ele>
        <time>2020-10-29T09:15:30Z</time>
      </trkpt>
      <trkpt lat="44.89196" lon="-0.11764">
        <ele>85</ele>
        <time>2020-10-29T09:15:31Z</time>
      </trkpt>
      <trkpt lat="44.89205" lon="-0.11758">
        <ele>85</ele>
        <time>2020-10-29T09:15:47Z</time>
      </trkpt>
      <trkpt lat="44.89204" lon="-0.11757">
        <ele>84</ele>
        <time>2020-10-29T09:16:16Z</time>
      </trkpt>
      <trkpt lat="44.89206" lon="-0.11757">
        <ele>84</ele>
        <time>2020-10-29T09:16:52Z</time>
      </trkpt>
      <trkpt lat="44.89205" lon="-0.1176">
        <ele>84</ele>
        <time>2020-10-29T09:17:30Z</time>
      </trkpt>
      <trkpt lat="44.89204" lon="-0.11761">
        <ele>84</ele>
        <time>2020-10-29T09:18:01Z</time>
      </trkpt>
      <trkpt lat="44.89204" lon="-0.11761">
        <ele>84</ele>
        <time>2020-10-29T09:18:23Z</time>
      </trkpt>
      <trkpt lat="44.89204" lon="-0.11761">
        <ele>86</ele>
        <time>2020-10-29T09:18:29Z</time>
      </trkpt>
      <trkpt lat="44.89204" lon="-0.11761">
        <ele>83</ele>
        <time>2020-10-29T09:18:30Z</time>
      </trkpt>
      <trkpt lat="44.89204" lon="-0.1176">
        <ele>86</ele>
        <time>2020-10-29T09:18:31Z</time>
      </trkpt>
      <trkpt lat="44.89203" lon="-0.11758">
        <ele>81</ele>
        <time>2020-10-29T09:18:34Z</time>
      </trkpt>
      <trkpt lat="44.89204" lon="-0.11758">
        <ele>90</ele>
        <time>2020-10-29T09:18:35Z</time>
      </trkpt>
      <trkpt lat="44.89205" lon="-0.11757">
        <ele>86</ele>
        <time>2020-10-29T09:18:36Z</time>
      </trkpt>
      <trkpt lat="44.89216" lon="-0.11745">
        <ele>85</ele>
        <time>2020-10-29T09:18:54Z</time>
      </trkpt>
      <trkpt lat="44.89228" lon="-0.1173">
        <ele>85</ele>
        <time>2020-10-29T09:19:08Z</time>
      </trkpt>
      <trkpt lat="44.89243" lon="-0.11716">
        <ele>85</ele>
        <time>2020-10-29T09:19:24Z</time>
      </trkpt>
      <trkpt lat="44.89256" lon="-0.11699">
        <ele>85</ele>
        <time>2020-10-29T09:19:41Z</time>
      </trkpt>
      <trkpt lat="44.89272" lon="-0.11681">
        <ele>85</ele>
        <time>2020-10-29T09:19:59Z</time>
      </trkpt>
      <trkpt lat="44.89287" lon="-0.11668">
        <ele>85</ele>
        <time>2020-10-29T09:20:14Z</time>
      </trkpt>
      <trkpt lat="44.89297" lon="-0.11654">
        <ele>85</ele>
        <time>2020-10-29T09:20:30Z</time>
      </trkpt>
      <trkpt lat="44.89308" lon="-0.1164">
        <ele>85</ele>
        <time>2020-10-29T09:20:45Z</time>
      </trkpt>
      <trkpt lat="44.89313" lon="-0.11632">
        <ele>84</ele>
        <time>2020-10-29T09:20:53Z</time>
      </trkpt>
      <trkpt lat="44.89332" lon="-0.11618">
        <ele>84</ele>
        <time>2020-10-29T09:21:09Z</time>
      </trkpt>
      <trkpt lat="44.89338" lon="-0.11602">
        <ele>84</ele>
        <time>2020-10-29T09:21:19Z</time>
      </trkpt>
      <trkpt lat="44.89334" lon="-0.11578">
        <ele>84</ele>
        <time>2020-10-29T09:21:35Z</time>
      </trkpt>
      <trkpt lat="44.89329" lon="-0.11557">
        <ele>84</ele>
        <time>2020-10-29T09:21:47Z</time>
      </trkpt>
      <trkpt lat="44.89325" lon="-0.11543">
        <ele>83</ele>
        <time>2020-10-29T09:21:59Z</time>
      </trkpt>
      <trkpt lat="44.89319" lon="-0.11517">
        <ele>83</ele>
        <time>2020-10-29T09:22:14Z</time>
      </trkpt>
      <trkpt lat="44.89319" lon="-0.11514">
        <ele>83</ele>
        <time>2020-10-29T09:22:16Z</time>
      </trkpt>
      <trkpt lat="44.89311" lon="-0.11492">
        <ele>83</ele>
        <time>2020-10-29T09:22:33Z</time>
      </trkpt>
      <trkpt lat="44.89306" lon="-0.11479">
        <ele>85</ele>
        <time>2020-10-29T09:22:42Z</time>
      </trkpt>
      <trkpt lat="44.89298" lon="-0.11461">
        <ele>85</ele>
        <time>2020-10-29T09:22:59Z</time>
      </trkpt>
      <trkpt lat="44.89298" lon="-0.11461">
        <ele>85</ele>
        <time>2020-10-29T09:23:03Z</time>
      </trkpt>
      <trkpt lat="44.89299" lon="-0.11461">
        <ele>85</ele>
        <time>2020-10-29T09:23:04Z</time>
      </trkpt>
      <trkpt lat="44.893" lon="-0.11461">
        <ele>85</ele>
        <time>2020-10-29T09:23:05Z</time>
      </trkpt>
      <trkpt lat="44.89316" lon="-0.11452">
        <ele>85</ele>
        <time>2020-10-29T09:23:21Z</time>
      </trkpt>
      <trkpt lat="44.89335" lon="-0.11444">
        <ele>84</ele>
        <time>2020-10-29T09:23:36Z</time>
      </trkpt>
      <trkpt lat="44.89342" lon="-0.11439">
        <ele>83</ele>
        <time>2020-10-29T09:23:47Z</time>
      </trkpt>
      <trkpt lat="44.89342" lon="-0.11438">
        <ele>83</ele>
        <time>2020-10-29T09:23:48Z</time>
      </trkpt>
      <trkpt lat="44.89344" lon="-0.11426">
        <ele>83</ele>
        <time>2020-10-29T09:23:55Z</time>
      </trkpt>
      <trkpt lat="44.89358" lon="-0.11418">
        <ele>82</ele>
        <time>2020-10-29T09:24:08Z</time>
      </trkpt>
      <trkpt lat="44.89373" lon="-0.1141">
        <ele>81</ele>
        <time>2020-10-29T09:24:22Z</time>
      </trkpt>
      <trkpt lat="44.89397" lon="-0.11403">
        <ele>80</ele>
        <time>2020-10-29T09:24:42Z</time>
      </trkpt>
      <trkpt lat="44.89414" lon="-0.11395">
        <ele>79</ele>
        <time>2020-10-29T09:24:56Z</time>
      </trkpt>
      <trkpt lat="44.89425" lon="-0.11391">
        <ele>80</ele>
        <time>2020-10-29T09:25:05Z</time>
      </trkpt>
      <trkpt lat="44.89434" lon="-0.11388">
        <ele>77</ele>
        <time>2020-10-29T09:25:13Z</time>
      </trkpt>
      <trkpt lat="44.89435" lon="-0.11387">
        <ele>80</ele>
        <time>2020-10-29T09:25:14Z</time>
      </trkpt>
      <trkpt lat="44.89438" lon="-0.11386">
        <ele>78</ele>
        <time>2020-10-29T09:25:17Z</time>
      </trkpt>
      <trkpt lat="44.8946" lon="-0.11378">
        <ele>77</ele>
        <time>2020-10-29T09:25:34Z</time>
      </trkpt>
      <trkpt lat="44.89477" lon="-0.11367">
        <ele>76</ele>
        <time>2020-10-29T09:25:50Z</time>
      </trkpt>
      <trkpt lat="44.89479" lon="-0.11337">
        <ele>76</ele>
        <time>2020-10-29T09:26:08Z</time>
      </trkpt>
      <trkpt lat="44.89479" lon="-0.11336">
        <ele>76</ele>
        <time>2020-10-29T09:26:09Z</time>
      </trkpt>
      <trkpt lat="44.89486" lon="-0.11322">
        <ele>75</ele>
        <time>2020-10-29T09:26:19Z</time>
      </trkpt>
      <trkpt lat="44.89476" lon="-0.11298">
        <ele>73</ele>
        <time>2020-10-29T09:26:35Z</time>
      </trkpt>
      <trkpt lat="44.89464" lon="-0.11281">
        <ele>72</ele>
        <time>2020-10-29T09:26:49Z</time>
      </trkpt>
      <trkpt lat="44.89458" lon="-0.11275">
        <ele>72</ele>
        <time>2020-10-29T09:26:57Z</time>
      </trkpt>
      <trkpt lat="44.89443" lon="-0.11259">
        <ele>72</ele>
        <time>2020-10-29T09:27:12Z</time>
      </trkpt>
      <trkpt lat="44.89438" lon="-0.11252">
        <ele>74</ele>
        <time>2020-10-29T09:27:19Z</time>
      </trkpt>
      <trkpt lat="44.89431" lon="-0.11234">
        <ele>74</ele>
        <time>2020-10-29T09:27:32Z</time>
      </trkpt>
      <trkpt lat="44.89423" lon="-0.11211">
        <ele>74</ele>
        <time>2020-10-29T09:27:47Z</time>
      </trkpt>
      <trkpt lat="44.89416" lon="-0.11194">
        <ele>74</ele>
        <time>2020-10-29T09:28:01Z</time>
      </trkpt>
      <trkpt lat="44.89411" lon="-0.11183">
        <ele>74</ele>
        <time>2020-10-29T09:28:08Z</time>
      </trkpt>
      <trkpt lat="44.89409" lon="-0.11179">
        <ele>74</ele>
        <time>2020-10-29T09:28:12Z</time>
      </trkpt>
      <trkpt lat="44.894" lon="-0.11163">
        <ele>72</ele>
        <time>2020-10-29T09:28:24Z</time>
      </trkpt>
      <trkpt lat="44.89397" lon="-0.11156">
        <ele>72</ele>
        <time>2020-10-29T09:28:29Z</time>
      </trkpt>
      <trkpt lat="44.89387" lon="-0.11135">
        <ele>72</ele>
        <time>2020-10-29T09:28:45Z</time>
      </trkpt>
      <trkpt lat="44.89384" lon="-0.11127">
        <ele>73</ele>
        <time>2020-10-29T09:28:50Z</time>
      </trkpt>
      <trkpt lat="44.89378" lon="-0.11115">
        <ele>69</ele>
        <time>2020-10-29T09:28:59Z</time>
      </trkpt>
      <trkpt lat="44.89378" lon="-0.11113">
        <ele>75</ele>
        <time>2020-10-29T09:29:00Z</time>
      </trkpt>
      <trkpt lat="44.89377" lon="-0.11112">
        <ele>75</ele>
        <time>2020-10-29T09:29:01Z</time>
      </trkpt>
      <trkpt lat="44.89377" lon="-0.11109">
        <ele>73</ele>
        <time>2020-10-29T09:29:03Z</time>
      </trkpt>
      <trkpt lat="44.8937" lon="-0.1108">
        <ele>73</ele>
        <time>2020-10-29T09:29:23Z</time>
      </trkpt>
      <trkpt lat="44.89366" lon="-0.11058">
        <ele>74</ele>
        <time>2020-10-29T09:29:41Z</time>
      </trkpt>
      <trkpt lat="44.89361" lon="-0.1104">
        <ele>75</ele>
        <time>2020-10-29T09:29:56Z</time>
      </trkpt>
      <trkpt lat="44.89357" lon="-0.11026">
        <ele>75</ele>
        <time>2020-10-29T09:30:08Z</time>
      </trkpt>
      <trkpt lat="44.89352" lon="-0.11003">
        <ele>77</ele>
        <time>2020-10-29T09:30:25Z</time>
      </trkpt>
      <trkpt lat="44.89348" lon="-0.10982">
        <ele>77</ele>
        <time>2020-10-29T09:30:40Z</time>
      </trkpt>
      <trkpt lat="44.89343" lon="-0.10963">
        <ele>78</ele>
        <time>2020-10-29T09:30:55Z</time>
      </trkpt>
      <trkpt lat="44.89343" lon="-0.10962">
        <ele>78</ele>
        <time>2020-10-29T09:30:56Z</time>
      </trkpt>
      <trkpt lat="44.8934" lon="-0.10953">
        <ele>78</ele>
        <time>2020-10-29T09:31:04Z</time>
      </trkpt>
      <trkpt lat="44.89336" lon="-0.10933">
        <ele>78</ele>
        <time>2020-10-29T09:31:21Z</time>
      </trkpt>
      <trkpt lat="44.89332" lon="-0.10919">
        <ele>78</ele>
        <time>2020-10-29T09:31:36Z</time>
      </trkpt>
      <trkpt lat="44.89331" lon="-0.10913">
        <ele>78</ele>
        <time>2020-10-29T09:31:54Z</time>
      </trkpt>
      <trkpt lat="44.89334" lon="-0.109">
        <ele>78</ele>
        <time>2020-10-29T09:32:11Z</time>
      </trkpt>
      <trkpt lat="44.89337" lon="-0.10894">
        <ele>78</ele>
        <time>2020-10-29T09:32:17Z</time>
      </trkpt>
      <trkpt lat="44.89342" lon="-0.10888">
        <ele>78</ele>
        <time>2020-10-29T09:32:24Z</time>
      </trkpt>
      <trkpt lat="44.89338" lon="-0.10896">
        <ele>77</ele>
        <time>2020-10-29T09:32:32Z</time>
      </trkpt>
      <trkpt lat="44.89321" lon="-0.10918">
        <ele>77</ele>
        <time>2020-10-29T09:32:50Z</time>
      </trkpt>
      <trkpt lat="44.89314" lon="-0.10924">
        <ele>78</ele>
        <time>2020-10-29T09:32:55Z</time>
      </trkpt>
      <trkpt lat="44.89295" lon="-0.10938">
        <ele>78</ele>
        <time>2020-10-29T09:33:09Z</time>
      </trkpt>
      <trkpt lat="44.89282" lon="-0.1095">
        <ele>78</ele>
        <time>2020-10-29T09:33:22Z</time>
      </trkpt>
      <trkpt lat="44.89274" lon="-0.10954">
        <ele>78</ele>
        <time>2020-10-29T09:33:29Z</time>
      </trkpt>
      <trkpt lat="44.89273" lon="-0.10954">
        <ele>78</ele>
        <time>2020-10-29T09:33:30Z</time>
      </trkpt>
      <trkpt lat="44.89272" lon="-0.10944">
        <ele>78</ele>
        <time>2020-10-29T09:33:38Z</time>
      </trkpt>
      <trkpt lat="44.89272" lon="-0.10942">
        <ele>78</ele>
        <time>2020-10-29T09:33:39Z</time>
      </trkpt>
      <trkpt lat="44.89272" lon="-0.10933">
        <ele>78</ele>
        <time>2020-10-29T09:33:43Z</time>
      </trkpt>
      <trkpt lat="44.89267" lon="-0.10904">
        <ele>78</ele>
        <time>2020-10-29T09:34:02Z</time>
      </trkpt>
      <trkpt lat="44.89262" lon="-0.10877">
        <ele>78</ele>
        <time>2020-10-29T09:34:17Z</time>
      </trkpt>
      <trkpt lat="44.89257" lon="-0.1086">
        <ele>78</ele>
        <time>2020-10-29T09:34:31Z</time>
      </trkpt>
      <trkpt lat="44.89251" lon="-0.10833">
        <ele>79</ele>
        <time>2020-10-29T09:34:45Z</time>
      </trkpt>
      <trkpt lat="44.89246" lon="-0.10821">
        <ele>79</ele>
        <time>2020-10-29T09:34:56Z</time>
      </trkpt>
      <trkpt lat="44.89244" lon="-0.10819">
        <ele>79</ele>
        <time>2020-10-29T09:34:58Z</time>
      </trkpt>
      <trkpt lat="44.89241" lon="-0.10816">
        <ele>79</ele>
        <time>2020-10-29T09:35:02Z</time>
      </trkpt>
      <trkpt lat="44.89229" lon="-0.10824">
        <ele>79</ele>
        <time>2020-10-29T09:35:13Z</time>
      </trkpt>
      <trkpt lat="44.89218" lon="-0.10829">
        <ele>79</ele>
        <time>2020-10-29T09:35:29Z</time>
      </trkpt>
      <trkpt lat="44.89194" lon="-0.10839">
        <ele>79</ele>
        <time>2020-10-29T09:35:46Z</time>
      </trkpt>
      <trkpt lat="44.89182" lon="-0.10844">
        <ele>80</ele>
        <time>2020-10-29T09:35:55Z</time>
      </trkpt>
      <trkpt lat="44.89179" lon="-0.10845">
        <ele>79</ele>
        <time>2020-10-29T09:35:58Z</time>
      </trkpt>
      <trkpt lat="44.89174" lon="-0.10844">
        <ele>79</ele>
        <time>2020-10-29T09:36:04Z</time>
      </trkpt>
      <trkpt lat="44.89173" lon="-0.1084">
        <ele>80</ele>
        <time>2020-10-29T09:36:06Z</time>
      </trkpt>
      <trkpt lat="44.89165" lon="-0.1081">
        <ele>80</ele>
        <time>2020-10-29T09:36:21Z</time>
      </trkpt>
      <trkpt lat="44.89158" lon="-0.10789">
        <ele>80</ele>
        <time>2020-10-29T09:36:37Z</time>
      </trkpt>
      <trkpt lat="44.89158" lon="-0.10794">
        <ele>80</ele>
        <time>2020-10-29T09:36:49Z</time>
      </trkpt>
      <trkpt lat="44.89157" lon="-0.10792">
        <ele>80</ele>
        <time>2020-10-29T09:37:00Z</time>
      </trkpt>
      <trkpt lat="44.89155" lon="-0.10787">
        <ele>80</ele>
        <time>2020-10-29T09:37:04Z</time>
      </trkpt>
      <trkpt lat="44.89151" lon="-0.10768">
        <ele>80</ele>
        <time>2020-10-29T09:37:18Z</time>
      </trkpt>
      <trkpt lat="44.89145" lon="-0.10748">
        <ele>80</ele>
        <time>2020-10-29T09:37:33Z</time>
      </trkpt>
      <trkpt lat="44.89147" lon="-0.10743">
        <ele>80</ele>
        <time>2020-10-29T09:37:38Z</time>
      </trkpt>
      <trkpt lat="44.89152" lon="-0.10738">
        <ele>79</ele>
        <time>2020-10-29T09:37:42Z</time>
      </trkpt>
      <trkpt lat="44.89166" lon="-0.1073">
        <ele>78</ele>
        <time>2020-10-29T09:37:57Z</time>
      </trkpt>
      <trkpt lat="44.89186" lon="-0.10721">
        <ele>78</ele>
        <time>2020-10-29T09:38:09Z</time>
      </trkpt>
      <trkpt lat="44.89201" lon="-0.10715">
        <ele>77</ele>
        <time>2020-10-29T09:38:25Z</time>
      </trkpt>
      <trkpt lat="44.89222" lon="-0.10708">
        <ele>75</ele>
        <time>2020-10-29T09:38:39Z</time>
      </trkpt>
      <trkpt lat="44.89234" lon="-0.10706">
        <ele>74</ele>
        <time>2020-10-29T09:38:53Z</time>
      </trkpt>
      <trkpt lat="44.89234" lon="-0.10711">
        <ele>74</ele>
        <time>2020-10-29T09:39:03Z</time>
      </trkpt>
      <trkpt lat="44.89236" lon="-0.10719">
        <ele>74</ele>
        <time>2020-10-29T09:39:08Z</time>
      </trkpt>
      <trkpt lat="44.89232" lon="-0.10735">
        <ele>74</ele>
        <time>2020-10-29T09:39:20Z</time>
      </trkpt>
      <trkpt lat="44.89231" lon="-0.10748">
        <ele>76</ele>
        <time>2020-10-29T09:39:30Z</time>
      </trkpt>
      <trkpt lat="44.89242" lon="-0.10754">
        <ele>77</ele>
        <time>2020-10-29T09:39:44Z</time>
      </trkpt>
      <trkpt lat="44.89254" lon="-0.10747">
        <ele>74</ele>
        <time>2020-10-29T09:39:58Z</time>
      </trkpt>
      <trkpt lat="44.89269" lon="-0.1074">
        <ele>72</ele>
        <time>2020-10-29T09:40:11Z</time>
      </trkpt>
      <trkpt lat="44.89274" lon="-0.10738">
        <ele>72</ele>
        <time>2020-10-29T09:40:17Z</time>
      </trkpt>
      <trkpt lat="44.89299" lon="-0.10724">
        <ele>69</ele>
        <time>2020-10-29T09:40:33Z</time>
      </trkpt>
      <trkpt lat="44.89314" lon="-0.10716">
        <ele>68</ele>
        <time>2020-10-29T09:40:44Z</time>
      </trkpt>
      <trkpt lat="44.8933" lon="-0.10701">
        <ele>67</ele>
        <time>2020-10-29T09:40:57Z</time>
      </trkpt>
      <trkpt lat="44.89333" lon="-0.10701">
        <ele>67</ele>
        <time>2020-10-29T09:41:07Z</time>
      </trkpt>
      <trkpt lat="44.89339" lon="-0.10699">
        <ele>67</ele>
        <time>2020-10-29T09:41:11Z</time>
      </trkpt>
      <trkpt lat="44.89351" lon="-0.10698">
        <ele>67</ele>
        <time>2020-10-29T09:41:18Z</time>
      </trkpt>
      <trkpt lat="44.89365" lon="-0.10688">
        <ele>67</ele>
        <time>2020-10-29T09:41:35Z</time>
      </trkpt>
      <trkpt lat="44.8937" lon="-0.10685">
        <ele>64</ele>
        <time>2020-10-29T09:41:40Z</time>
      </trkpt>
      <trkpt lat="44.89371" lon="-0.10685">
        <ele>64</ele>
        <time>2020-10-29T09:41:41Z</time>
      </trkpt>
      <trkpt lat="44.89371" lon="-0.10685">
        <ele>71</ele>
        <time>2020-10-29T09:41:42Z</time>
      </trkpt>
      <trkpt lat="44.89371" lon="-0.10685">
        <ele>66</ele>
        <time>2020-10-29T09:41:43Z</time>
      </trkpt>
      <trkpt lat="44.89371" lon="-0.10684">
        <ele>71</ele>
        <time>2020-10-29T09:41:46Z</time>
      </trkpt>
      <trkpt lat="44.89371" lon="-0.10684">
        <ele>67</ele>
        <time>2020-10-29T09:41:48Z</time>
      </trkpt>
      <trkpt lat="44.89376" lon="-0.10687">
        <ele>67</ele>
        <time>2020-10-29T09:42:15Z</time>
      </trkpt>
      <trkpt lat="44.8938" lon="-0.10693">
        <ele>67</ele>
        <time>2020-10-29T09:42:21Z</time>
      </trkpt>
      <trkpt lat="44.89381" lon="-0.10696">
        <ele>70</ele>
        <time>2020-10-29T09:42:23Z</time>
      </trkpt>
      <trkpt lat="44.89382" lon="-0.10697">
        <ele>70</ele>
        <time>2020-10-29T09:42:24Z</time>
      </trkpt>
      <trkpt lat="44.89383" lon="-0.10699">
        <ele>68</ele>
        <time>2020-10-29T09:42:26Z</time>
      </trkpt>
      <trkpt lat="44.89391" lon="-0.10716">
        <ele>69</ele>
        <time>2020-10-29T09:42:39Z</time>
      </trkpt>
      <trkpt lat="44.89401" lon="-0.10734">
        <ele>70</ele>
        <time>2020-10-29T09:42:52Z</time>
      </trkpt>
      <trkpt lat="44.89405" lon="-0.1074">
        <ele>71</ele>
        <time>2020-10-29T09:43:04Z</time>
      </trkpt>
      <trkpt lat="44.89414" lon="-0.10755">
        <ele>72</ele>
        <time>2020-10-29T09:43:17Z</time>
      </trkpt>
      <trkpt lat="44.89419" lon="-0.10756">
        <ele>72</ele>
        <time>2020-10-29T09:43:23Z</time>
      </trkpt>
      <trkpt lat="44.89434" lon="-0.10754">
        <ele>67</ele>
        <time>2020-10-29T09:43:33Z</time>
      </trkpt>
      <trkpt lat="44.89435" lon="-0.10754">
        <ele>78</ele>
        <time>2020-10-29T09:43:34Z</time>
      </trkpt>
      <trkpt lat="44.89436" lon="-0.10753">
        <ele>73</ele>
        <time>2020-10-29T09:43:35Z</time>
      </trkpt>
      <trkpt lat="44.89438" lon="-0.10752">
        <ele>72</ele>
        <time>2020-10-29T09:43:37Z</time>
      </trkpt>
      <trkpt lat="44.89446" lon="-0.10748">
        <ele>71</ele>
        <time>2020-10-29T09:43:45Z</time>
      </trkpt>
      <trkpt lat="44.89452" lon="-0.1074">
        <ele>70</ele>
        <time>2020-10-29T09:43:57Z</time>
      </trkpt>
      <trkpt lat="44.8946" lon="-0.10718">
        <ele>68</ele>
        <time>2020-10-29T09:44:13Z</time>
      </trkpt>
      <trkpt lat="44.89468" lon="-0.10698">
        <ele>63</ele>
        <time>2020-10-29T09:44:27Z</time>
      </trkpt>
      <trkpt lat="44.89469" lon="-0.10696">
        <ele>66</ele>
        <time>2020-10-29T09:44:28Z</time>
      </trkpt>
      <trkpt lat="44.89476" lon="-0.10682">
        <ele>64</ele>
        <time>2020-10-29T09:44:35Z</time>
      </trkpt>
      <trkpt lat="44.89479" lon="-0.10663">
        <ele>62</ele>
        <time>2020-10-29T09:44:46Z</time>
      </trkpt>
      <trkpt lat="44.89477" lon="-0.10661">
        <ele>62</ele>
        <time>2020-10-29T09:44:51Z</time>
      </trkpt>
      <trkpt lat="44.89478" lon="-0.10652">
        <ele>61</ele>
        <time>2020-10-29T09:44:57Z</time>
      </trkpt>
      <trkpt lat="44.8948" lon="-0.10648">
        <ele>61</ele>
        <time>2020-10-29T09:45:01Z</time>
      </trkpt>
      <trkpt lat="44.89486" lon="-0.1063">
        <ele>60</ele>
        <time>2020-10-29T09:45:14Z</time>
      </trkpt>
      <trkpt lat="44.89488" lon="-0.10624">
        <ele>60</ele>
        <time>2020-10-29T09:45:21Z</time>
      </trkpt>
      <trkpt lat="44.89493" lon="-0.10613">
        <ele>60</ele>
        <time>2020-10-29T09:45:27Z</time>
      </trkpt>
      <trkpt lat="44.89499" lon="-0.10591">
        <ele>60</ele>
        <time>2020-10-29T09:45:43Z</time>
      </trkpt>
      <trkpt lat="44.89499" lon="-0.1059">
        <ele>60</ele>
        <time>2020-10-29T09:45:44Z</time>
      </trkpt>
      <trkpt lat="44.89509" lon="-0.10572">
        <ele>60</ele>
        <time>2020-10-29T09:45:57Z</time>
      </trkpt>
      <trkpt lat="44.89511" lon="-0.10567">
        <ele>61</ele>
        <time>2020-10-29T09:46:19Z</time>
      </trkpt>
      <trkpt lat="44.89511" lon="-0.10565">
        <ele>61</ele>
        <time>2020-10-29T09:46:36Z</time>
      </trkpt>
      <trkpt lat="44.8951" lon="-0.10561">
        <ele>61</ele>
        <time>2020-10-29T09:46:54Z</time>
      </trkpt>
      <trkpt lat="44.89507" lon="-0.10549">
        <ele>59</ele>
        <time>2020-10-29T09:47:07Z</time>
      </trkpt>
      <trkpt lat="44.89502" lon="-0.10539">
        <ele>56</ele>
        <time>2020-10-29T09:47:20Z</time>
      </trkpt>
      <trkpt lat="44.89494" lon="-0.10521">
        <ele>53</ele>
        <time>2020-10-29T09:47:36Z</time>
      </trkpt>
      <trkpt lat="44.89486" lon="-0.10493">
        <ele>51</ele>
        <time>2020-10-29T09:47:50Z</time>
      </trkpt>
      <trkpt lat="44.89479" lon="-0.10482">
        <ele>49</ele>
        <time>2020-10-29T09:48:04Z</time>
      </trkpt>
      <trkpt lat="44.8947" lon="-0.10459">
        <ele>48</ele>
        <time>2020-10-29T09:48:17Z</time>
      </trkpt>
      <trkpt lat="44.89468" lon="-0.10454">
        <ele>48</ele>
        <time>2020-10-29T09:48:23Z</time>
      </trkpt>
      <trkpt lat="44.89465" lon="-0.10444">
        <ele>48</ele>
        <time>2020-10-29T09:48:28Z</time>
      </trkpt>
      <trkpt lat="44.89459" lon="-0.10429">
        <ele>47</ele>
        <time>2020-10-29T09:48:40Z</time>
      </trkpt>
      <trkpt lat="44.89454" lon="-0.10413">
        <ele>47</ele>
        <time>2020-10-29T09:48:52Z</time>
      </trkpt>
      <trkpt lat="44.8945" lon="-0.10398">
        <ele>46</ele>
        <time>2020-10-29T09:49:02Z</time>
      </trkpt>
      <trkpt lat="44.89452" lon="-0.10392">
        <ele>46</ele>
        <time>2020-10-29T09:49:08Z</time>
      </trkpt>
      <trkpt lat="44.89461" lon="-0.10378">
        <ele>45</ele>
        <time>2020-10-29T09:49:21Z</time>
      </trkpt>
      <trkpt lat="44.89469" lon="-0.10363">
        <ele>45</ele>
        <time>2020-10-29T09:49:34Z</time>
      </trkpt>
      <trkpt lat="44.89479" lon="-0.10344">
        <ele>44</ele>
        <time>2020-10-29T09:49:49Z</time>
      </trkpt>
      <trkpt lat="44.89497" lon="-0.10316">
        <ele>43</ele>
        <time>2020-10-29T09:50:06Z</time>
      </trkpt>
      <trkpt lat="44.89502" lon="-0.10303">
        <ele>43</ele>
        <time>2020-10-29T09:50:20Z</time>
      </trkpt>
      <trkpt lat="44.89514" lon="-0.10282">
        <ele>42</ele>
        <time>2020-10-29T09:50:33Z</time>
      </trkpt>
      <trkpt lat="44.89518" lon="-0.10275">
        <ele>42</ele>
        <time>2020-10-29T09:50:41Z</time>
      </trkpt>
      <trkpt lat="44.89523" lon="-0.10267">
        <ele>42</ele>
        <time>2020-10-29T09:50:51Z</time>
      </trkpt>
      <trkpt lat="44.89532" lon="-0.1025">
        <ele>41</ele>
        <time>2020-10-29T09:51:02Z</time>
      </trkpt>
      <trkpt lat="44.89543" lon="-0.10231">
        <ele>41</ele>
        <time>2020-10-29T09:51:17Z</time>
      </trkpt>
      <trkpt lat="44.89552" lon="-0.10215">
        <ele>41</ele>
        <time>2020-10-29T09:51:30Z</time>
      </trkpt>
      <trkpt lat="44.8956" lon="-0.10196">
        <ele>41</ele>
        <time>2020-10-29T09:51:45Z</time>
      </trkpt>
      <trkpt lat="44.89555" lon="-0.10189">
        <ele>40</ele>
        <time>2020-10-29T09:51:56Z</time>
      </trkpt>
      <trkpt lat="44.89553" lon="-0.10187">
        <ele>40</ele>
        <time>2020-10-29T09:51:59Z</time>
      </trkpt>
      <trkpt lat="44.89547" lon="-0.10187">
        <ele>40</ele>
        <time>2020-10-29T09:52:08Z</time>
      </trkpt>
      <trkpt lat="44.89536" lon="-0.10176">
        <ele>41</ele>
        <time>2020-10-29T09:52:21Z</time>
      </trkpt>
      <trkpt lat="44.89534" lon="-0.10174">
        <ele>32</ele>
        <time>2020-10-29T09:52:25Z</time>
      </trkpt>
      <trkpt lat="44.89534" lon="-0.10173">
        <ele>41</ele>
        <time>2020-10-29T09:52:26Z</time>
      </trkpt>
      <trkpt lat="44.89534" lon="-0.10173">
        <ele>48</ele>
        <time>2020-10-29T09:52:27Z</time>
      </trkpt>
      <trkpt lat="44.89534" lon="-0.10172">
        <ele>44</ele>
        <time>2020-10-29T09:52:28Z</time>
      </trkpt>
      <trkpt lat="44.89533" lon="-0.10172">
        <ele>41</ele>
        <time>2020-10-29T09:52:29Z</time>
      </trkpt>
      <trkpt lat="44.89533" lon="-0.10171">
        <ele>42</ele>
        <time>2020-10-29T09:52:30Z</time>
      </trkpt>
      <trkpt lat="44.89533" lon="-0.10171">
        <ele>37</ele>
        <time>2020-10-29T09:52:34Z</time>
      </trkpt>
      <trkpt lat="44.89533" lon="-0.10171">
        <ele>37</ele>
        <time>2020-10-29T09:52:35Z</time>
      </trkpt>
      <trkpt lat="44.89533" lon="-0.10171">
        <ele>41</ele>
        <time>2020-10-29T09:52:36Z</time>
      </trkpt>
      <trkpt lat="44.89533" lon="-0.1017">
        <ele>41</ele>
        <time>2020-10-29T09:52:37Z</time>
      </trkpt>
      <trkpt lat="44.89532" lon="-0.1017">
        <ele>43</ele>
        <time>2020-10-29T09:52:39Z</time>
      </trkpt>
      <trkpt lat="44.8953" lon="-0.10169">
        <ele>42</ele>
        <time>2020-10-29T09:52:57Z</time>
      </trkpt>
      <trkpt lat="44.89524" lon="-0.10162">
        <ele>42</ele>
        <time>2020-10-29T09:53:13Z</time>
      </trkpt>
      <trkpt lat="44.89513" lon="-0.10154">
        <ele>42</ele>
        <time>2020-10-29T09:53:28Z</time>
      </trkpt>
      <trkpt lat="44.89498" lon="-0.10141">
        <ele>44</ele>
        <time>2020-10-29T09:53:46Z</time>
      </trkpt>
      <trkpt lat="44.89484" lon="-0.10131">
        <ele>46</ele>
        <time>2020-10-29T09:54:04Z</time>
      </trkpt>
      <trkpt lat="44.89473" lon="-0.10119">
        <ele>47</ele>
        <time>2020-10-29T09:54:19Z</time>
      </trkpt>
      <trkpt lat="44.89464" lon="-0.10112">
        <ele>49</ele>
        <time>2020-10-29T09:54:33Z</time>
      </trkpt>
      <trkpt lat="44.89463" lon="-0.10111">
        <ele>49</ele>
        <time>2020-10-29T09:54:47Z</time>
      </trkpt>
      <trkpt lat="44.89458" lon="-0.10106">
        <ele>50</ele>
        <time>2020-10-29T09:55:06Z</time>
      </trkpt>
      <trkpt lat="44.89449" lon="-0.10098">
        <ele>52</ele>
        <time>2020-10-29T09:55:24Z</time>
      </trkpt>
      <trkpt lat="44.89444" lon="-0.10094">
        <ele>53</ele>
        <time>2020-10-29T09:55:40Z</time>
      </trkpt>
      <trkpt lat="44.89435" lon="-0.10085">
        <ele>55</ele>
        <time>2020-10-29T09:55:54Z</time>
      </trkpt>
      <trkpt lat="44.89431" lon="-0.10082">
        <ele>56</ele>
        <time>2020-10-29T09:55:59Z</time>
      </trkpt>
      <trkpt lat="44.89428" lon="-0.10075">
        <ele>59</ele>
        <time>2020-10-29T09:56:10Z</time>
      </trkpt>
      <trkpt lat="44.89428" lon="-0.10074">
        <ele>56</ele>
        <time>2020-10-29T09:56:12Z</time>
      </trkpt>
      <trkpt lat="44.89433" lon="-0.10073">
        <ele>56</ele>
        <time>2020-10-29T09:56:32Z</time>
      </trkpt>
      <trkpt lat="44.89435" lon="-0.1007">
        <ele>56</ele>
        <time>2020-10-29T09:56:36Z</time>
      </trkpt>
      <trkpt lat="44.89449" lon="-0.1006">
        <ele>55</ele>
        <time>2020-10-29T09:56:52Z</time>
      </trkpt>
      <trkpt lat="44.89464" lon="-0.10052">
        <ele>54</ele>
        <time>2020-10-29T09:57:09Z</time>
      </trkpt>
      <trkpt lat="44.89484" lon="-0.10039">
        <ele>53</ele>
        <time>2020-10-29T09:57:28Z</time>
      </trkpt>
      <trkpt lat="44.89504" lon="-0.10027">
        <ele>53</ele>
        <time>2020-10-29T09:57:46Z</time>
      </trkpt>
      <trkpt lat="44.89511" lon="-0.10023">
        <ele>49</ele>
        <time>2020-10-29T09:57:52Z</time>
      </trkpt>
      <trkpt lat="44.89513" lon="-0.10023">
        <ele>55</ele>
        <time>2020-10-29T09:57:53Z</time>
      </trkpt>
      <trkpt lat="44.89515" lon="-0.10021">
        <ele>52</ele>
        <time>2020-10-29T09:57:55Z</time>
      </trkpt>
      <trkpt lat="44.89517" lon="-0.10021">
        <ele>52</ele>
        <time>2020-10-29T09:57:56Z</time>
      </trkpt>
      <trkpt lat="44.89523" lon="-0.10019">
        <ele>52</ele>
        <time>2020-10-29T09:58:01Z</time>
      </trkpt>
      <trkpt lat="44.89527" lon="-0.10016">
        <ele>51</ele>
        <time>2020-10-29T09:58:05Z</time>
      </trkpt>
      <trkpt lat="44.89531" lon="-0.10014">
        <ele>54</ele>
        <time>2020-10-29T09:58:09Z</time>
      </trkpt>
      <trkpt lat="44.89533" lon="-0.10014">
        <ele>52</ele>
        <time>2020-10-29T09:58:11Z</time>
      </trkpt>
      <trkpt lat="44.89556" lon="-0.10009">
        <ele>51</ele>
        <time>2020-10-29T09:58:30Z</time>
      </trkpt>
      <trkpt lat="44.89583" lon="-0.10004">
        <ele>50</ele>
        <time>2020-10-29T09:58:52Z</time>
      </trkpt>
      <trkpt lat="44.8961" lon="-0.09998">
        <ele>49</ele>
        <time>2020-10-29T09:59:14Z</time>
      </trkpt>
      <trkpt lat="44.89633" lon="-0.09993">
        <ele>49</ele>
        <time>2020-10-29T09:59:32Z</time>
      </trkpt>
      <trkpt lat="44.8966" lon="-0.09986">
        <ele>48</ele>
        <time>2020-10-29T09:59:55Z</time>
      </trkpt>
      <trkpt lat="44.89687" lon="-0.09981">
        <ele>47</ele>
        <time>2020-10-29T10:00:15Z</time>
      </trkpt>
      <trkpt lat="44.89716" lon="-0.09974">
        <ele>46</ele>
        <time>2020-10-29T10:00:37Z</time>
      </trkpt>
      <trkpt lat="44.89734" lon="-0.0997">
        <ele>45</ele>
        <time>2020-10-29T10:00:54Z</time>
      </trkpt>
      <trkpt lat="44.8976" lon="-0.09965">
        <ele>45</ele>
        <time>2020-10-29T10:01:15Z</time>
      </trkpt>
      <trkpt lat="44.89791" lon="-0.09957">
        <ele>43</ele>
        <time>2020-10-29T10:01:40Z</time>
      </trkpt>
      <trkpt lat="44.89817" lon="-0.0995">
        <ele>43</ele>
        <time>2020-10-29T10:02:01Z</time>
      </trkpt>
      <trkpt lat="44.89844" lon="-0.09945">
        <ele>42</ele>
        <time>2020-10-29T10:02:23Z</time>
      </trkpt>
      <trkpt lat="44.89873" lon="-0.09939">
        <ele>42</ele>
        <time>2020-10-29T10:02:45Z</time>
      </trkpt>
      <trkpt lat="44.89903" lon="-0.09931">
        <ele>41</ele>
        <time>2020-10-29T10:03:09Z</time>
      </trkpt>
      <trkpt lat="44.89929" lon="-0.09924">
        <ele>41</ele>
        <time>2020-10-29T10:03:29Z</time>
      </trkpt>
      <trkpt lat="44.89957" lon="-0.09916">
        <ele>40</ele>
        <time>2020-10-29T10:03:51Z</time>
      </trkpt>
      <trkpt lat="44.89987" lon="-0.09906">
        <ele>38</ele>
        <time>2020-10-29T10:04:15Z</time>
      </trkpt>
      <trkpt lat="44.90011" lon="-0.09898">
        <ele>37</ele>
        <time>2020-10-29T10:04:35Z</time>
      </trkpt>
      <trkpt lat="44.90034" lon="-0.0989">
        <ele>36</ele>
        <time>2020-10-29T10:04:53Z</time>
      </trkpt>
      <trkpt lat="44.90059" lon="-0.09878">
        <ele>33</ele>
        <time>2020-10-29T10:05:13Z</time>
      </trkpt>
      <trkpt lat="44.90078" lon="-0.09865">
        <ele>31</ele>
        <time>2020-10-29T10:05:31Z</time>
      </trkpt>
      <trkpt lat="44.90097" lon="-0.09852">
        <ele>29</ele>
        <time>2020-10-29T10:05:49Z</time>
      </trkpt>
      <trkpt lat="44.90101" lon="-0.09851">
        <ele>29</ele>
        <time>2020-10-29T10:05:53Z</time>
      </trkpt>
      <trkpt lat="44.90104" lon="-0.09852">
        <ele>25</ele>
        <time>2020-10-29T10:05:56Z</time>
      </trkpt>
      <trkpt lat="44.90106" lon="-0.09852">
        <ele>31</ele>
        <time>2020-10-29T10:05:57Z</time>
      </trkpt>
      <trkpt lat="44.90109" lon="-0.09854">
        <ele>29</ele>
        <time>2020-10-29T10:06:00Z</time>
      </trkpt>
      <trkpt lat="44.90115" lon="-0.0986">
        <ele>29</ele>
        <time>2020-10-29T10:06:05Z</time>
      </trkpt>
      <trkpt lat="44.90139" lon="-0.09877">
        <ele>28</ele>
        <time>2020-10-29T10:06:29Z</time>
      </trkpt>
      <trkpt lat="44.90143" lon="-0.09876">
        <ele>27</ele>
        <time>2020-10-29T10:06:46Z</time>
      </trkpt>
      <trkpt lat="44.90145" lon="-0.09882">
        <ele>27</ele>
        <time>2020-10-29T10:07:02Z</time>
      </trkpt>
      <trkpt lat="44.90163" lon="-0.09898">
        <ele>27</ele>
        <time>2020-10-29T10:07:23Z</time>
      </trkpt>
      <trkpt lat="44.90174" lon="-0.09905">
        <ele>27</ele>
        <time>2020-10-29T10:07:40Z</time>
      </trkpt>
      <trkpt lat="44.90175" lon="-0.09907">
        <ele>26</ele>
        <time>2020-10-29T10:07:47Z</time>
      </trkpt>
      <trkpt lat="44.90178" lon="-0.09911">
        <ele>26</ele>
        <time>2020-10-29T10:07:51Z</time>
      </trkpt>
      <trkpt lat="44.90199" lon="-0.09927">
        <ele>26</ele>
        <time>2020-10-29T10:08:12Z</time>
      </trkpt>
      <trkpt lat="44.90203" lon="-0.09929">
        <ele>28</ele>
        <time>2020-10-29T10:08:16Z</time>
      </trkpt>
      <trkpt lat="44.90209" lon="-0.09922">
        <ele>24</ele>
        <time>2020-10-29T10:08:28Z</time>
      </trkpt>
      <trkpt lat="44.9021" lon="-0.09922">
        <ele>30</ele>
        <time>2020-10-29T10:08:29Z</time>
      </trkpt>
      <trkpt lat="44.9021" lon="-0.09922">
        <ele>28</ele>
        <time>2020-10-29T10:08:30Z</time>
      </trkpt>
      <trkpt lat="44.90211" lon="-0.09923">
        <ele>26</ele>
        <time>2020-10-29T10:08:32Z</time>
      </trkpt>
      <trkpt lat="44.9021" lon="-0.0992">
        <ele>26</ele>
        <time>2020-10-29T10:08:52Z</time>
      </trkpt>
      <trkpt lat="44.9021" lon="-0.09913">
        <ele>26</ele>
        <time>2020-10-29T10:08:57Z</time>
      </trkpt>
      <trkpt lat="44.90212" lon="-0.09887">
        <ele>23</ele>
        <time>2020-10-29T10:09:11Z</time>
      </trkpt>
      <trkpt lat="44.90212" lon="-0.09885">
        <ele>29</ele>
        <time>2020-10-29T10:09:12Z</time>
      </trkpt>
      <trkpt lat="44.90213" lon="-0.09869">
        <ele>26</ele>
        <time>2020-10-29T10:09:24Z</time>
      </trkpt>
      <trkpt lat="44.90214" lon="-0.09866">
        <ele>26</ele>
        <time>2020-10-29T10:09:27Z</time>
      </trkpt>
      <trkpt lat="44.90214" lon="-0.09835">
        <ele>25</ele>
        <time>2020-10-29T10:09:43Z</time>
      </trkpt>
      <trkpt lat="44.90217" lon="-0.09801">
        <ele>25</ele>
        <time>2020-10-29T10:10:02Z</time>
      </trkpt>
      <trkpt lat="44.9022" lon="-0.09773">
        <ele>25</ele>
        <time>2020-10-29T10:10:18Z</time>
      </trkpt>
      <trkpt lat="44.90227" lon="-0.09741">
        <ele>27</ele>
        <time>2020-10-29T10:10:33Z</time>
      </trkpt>
      <trkpt lat="44.90228" lon="-0.09735">
        <ele>27</ele>
        <time>2020-10-29T10:10:45Z</time>
      </trkpt>
      <trkpt lat="44.90232" lon="-0.09729">
        <ele>27</ele>
        <time>2020-10-29T10:10:53Z</time>
      </trkpt>
      <trkpt lat="44.90236" lon="-0.09728">
        <ele>27</ele>
        <time>2020-10-29T10:11:10Z</time>
      </trkpt>
      <trkpt lat="44.90237" lon="-0.09727">
        <ele>23</ele>
        <time>2020-10-29T10:11:33Z</time>
      </trkpt>
      <trkpt lat="44.90237" lon="-0.09728">
        <ele>29</ele>
        <time>2020-10-29T10:11:34Z</time>
      </trkpt>
      <trkpt lat="44.90237" lon="-0.09729">
        <ele>29</ele>
        <time>2020-10-29T10:11:35Z</time>
      </trkpt>
      <trkpt lat="44.90238" lon="-0.09731">
        <ele>27</ele>
        <time>2020-10-29T10:11:37Z</time>
      </trkpt>
      <trkpt lat="44.90239" lon="-0.09727">
        <ele>27</ele>
        <time>2020-10-29T10:12:01Z</time>
      </trkpt>
      <trkpt lat="44.90239" lon="-0.09721">
        <ele>27</ele>
        <time>2020-10-29T10:12:16Z</time>
      </trkpt>
      <trkpt lat="44.90247" lon="-0.09714">
        <ele>27</ele>
        <time>2020-10-29T10:12:31Z</time>
      </trkpt>
      <trkpt lat="44.90249" lon="-0.09712">
        <ele>30</ele>
        <time>2020-10-29T10:12:34Z</time>
      </trkpt>
      <trkpt lat="44.90252" lon="-0.09711">
        <ele>28</ele>
        <time>2020-10-29T10:12:37Z</time>
      </trkpt>
      <trkpt lat="44.90256" lon="-0.09707">
        <ele>25</ele>
        <time>2020-10-29T10:12:42Z</time>
      </trkpt>
      <trkpt lat="44.90256" lon="-0.09707">
        <ele>30</ele>
        <time>2020-10-29T10:12:43Z</time>
      </trkpt>
      <trkpt lat="44.90257" lon="-0.09706">
        <ele>26</ele>
        <time>2020-10-29T10:12:44Z</time>
      </trkpt>
      <trkpt lat="44.90258" lon="-0.09705">
        <ele>30</ele>
        <time>2020-10-29T10:12:45Z</time>
      </trkpt>
      <trkpt lat="44.90259" lon="-0.09705">
        <ele>28</ele>
        <time>2020-10-29T10:12:48Z</time>
      </trkpt>
      <trkpt lat="44.90263" lon="-0.09703">
        <ele>28</ele>
        <time>2020-10-29T10:13:04Z</time>
      </trkpt>
      <trkpt lat="44.90276" lon="-0.09694">
        <ele>28</ele>
        <time>2020-10-29T10:13:20Z</time>
      </trkpt>
      <trkpt lat="44.90291" lon="-0.09686">
        <ele>28</ele>
        <time>2020-10-29T10:13:35Z</time>
      </trkpt>
      <trkpt lat="44.90309" lon="-0.09677">
        <ele>29</ele>
        <time>2020-10-29T10:13:52Z</time>
      </trkpt>
      <trkpt lat="44.90323" lon="-0.09668">
        <ele>29</ele>
        <time>2020-10-29T10:14:09Z</time>
      </trkpt>
      <trkpt lat="44.90341" lon="-0.09659">
        <ele>31</ele>
        <time>2020-10-29T10:14:29Z</time>
      </trkpt>
      <trkpt lat="44.90343" lon="-0.09658">
        <ele>32</ele>
        <time>2020-10-29T10:14:32Z</time>
      </trkpt>
      <trkpt lat="44.90345" lon="-0.09658">
        <ele>34</ele>
        <time>2020-10-29T10:14:34Z</time>
      </trkpt>
      <trkpt lat="44.90346" lon="-0.09657">
        <ele>34</ele>
        <time>2020-10-29T10:14:35Z</time>
      </trkpt>
      <trkpt lat="44.90347" lon="-0.09656">
        <ele>32</ele>
        <time>2020-10-29T10:14:37Z</time>
      </trkpt>
      <trkpt lat="44.90357" lon="-0.09659">
        <ele>33</ele>
        <time>2020-10-29T10:14:49Z</time>
      </trkpt>
      <trkpt lat="44.90366" lon="-0.09669">
        <ele>33</ele>
        <time>2020-10-29T10:15:06Z</time>
      </trkpt>
      <trkpt lat="44.90375" lon="-0.09684">
        <ele>33</ele>
        <time>2020-10-29T10:15:23Z</time>
      </trkpt>
      <trkpt lat="44.90377" lon="-0.09687">
        <ele>33</ele>
        <time>2020-10-29T10:15:26Z</time>
      </trkpt>
      <trkpt lat="44.90391" lon="-0.09709">
        <ele>33</ele>
        <time>2020-10-29T10:15:47Z</time>
      </trkpt>
      <trkpt lat="44.90406" lon="-0.09726">
        <ele>35</ele>
        <time>2020-10-29T10:16:06Z</time>
      </trkpt>
      <trkpt lat="44.90422" lon="-0.09731">
        <ele>36</ele>
        <time>2020-10-29T10:16:22Z</time>
      </trkpt>
      <trkpt lat="44.90433" lon="-0.09731">
        <ele>36</ele>
        <time>2020-10-29T10:16:31Z</time>
      </trkpt>
      <trkpt lat="44.90439" lon="-0.09734">
        <ele>36</ele>
        <time>2020-10-29T10:16:37Z</time>
      </trkpt>
      <trkpt lat="44.9045" lon="-0.09735">
        <ele>38</ele>
        <time>2020-10-29T10:16:46Z</time>
      </trkpt>
      <trkpt lat="44.90479" lon="-0.09739">
        <ele>36</ele>
        <time>2020-10-29T10:17:10Z</time>
      </trkpt>
      <trkpt lat="44.90503" lon="-0.09745">
        <ele>36</ele>
        <time>2020-10-29T10:17:30Z</time>
      </trkpt>
      <trkpt lat="44.9053" lon="-0.09752">
        <ele>38</ele>
        <time>2020-10-29T10:17:51Z</time>
      </trkpt>
      <trkpt lat="44.90553" lon="-0.09756">
        <ele>38</ele>
        <time>2020-10-29T10:18:11Z</time>
      </trkpt>
      <trkpt lat="44.90573" lon="-0.09763">
        <ele>39</ele>
        <time>2020-10-29T10:18:32Z</time>
      </trkpt>
      <trkpt lat="44.90575" lon="-0.09763">
        <ele>30</ele>
        <time>2020-10-29T10:18:34Z</time>
      </trkpt>
      <trkpt lat="44.90575" lon="-0.09763">
        <ele>44</ele>
        <time>2020-10-29T10:18:35Z</time>
      </trkpt>
      <trkpt lat="44.90576" lon="-0.09762">
        <ele>40</ele>
        <time>2020-10-29T10:18:37Z</time>
      </trkpt>
      <trkpt lat="44.90578" lon="-0.09762">
        <ele>31</ele>
        <time>2020-10-29T10:18:39Z</time>
      </trkpt>
      <trkpt lat="44.90579" lon="-0.09761">
        <ele>33</ele>
        <time>2020-10-29T10:18:40Z</time>
      </trkpt>
      <trkpt lat="44.9058" lon="-0.09761">
        <ele>42</ele>
        <time>2020-10-29T10:18:41Z</time>
      </trkpt>
      <trkpt lat="44.90581" lon="-0.09761">
        <ele>48</ele>
        <time>2020-10-29T10:18:42Z</time>
      </trkpt>
      <trkpt lat="44.90581" lon="-0.09761">
        <ele>41</ele>
        <time>2020-10-29T10:18:43Z</time>
      </trkpt>
      <trkpt lat="44.90583" lon="-0.09759">
        <ele>40</ele>
        <time>2020-10-29T10:18:45Z</time>
      </trkpt>
      <trkpt lat="44.90592" lon="-0.09754">
        <ele>41</ele>
        <time>2020-10-29T10:18:57Z</time>
      </trkpt>
      <trkpt lat="44.90595" lon="-0.09752">
        <ele>35</ele>
        <time>2020-10-29T10:19:00Z</time>
      </trkpt>
      <trkpt lat="44.90595" lon="-0.09752">
        <ele>43</ele>
        <time>2020-10-29T10:19:01Z</time>
      </trkpt>
      <trkpt lat="44.90597" lon="-0.09751">
        <ele>43</ele>
        <time>2020-10-29T10:19:02Z</time>
      </trkpt>
      <trkpt lat="44.90599" lon="-0.0975">
        <ele>40</ele>
        <time>2020-10-29T10:19:04Z</time>
      </trkpt>
      <trkpt lat="44.90616" lon="-0.0974">
        <ele>42</ele>
        <time>2020-10-29T10:19:22Z</time>
      </trkpt>
      <trkpt lat="44.90629" lon="-0.09732">
        <ele>43</ele>
        <time>2020-10-29T10:19:37Z</time>
      </trkpt>
      <trkpt lat="44.90642" lon="-0.09728">
        <ele>45</ele>
        <time>2020-10-29T10:19:54Z</time>
      </trkpt>
      <trkpt lat="44.90657" lon="-0.09723">
        <ele>47</ele>
        <time>2020-10-29T10:20:11Z</time>
      </trkpt>
      <trkpt lat="44.90671" lon="-0.09723">
        <ele>50</ele>
        <time>2020-10-29T10:20:29Z</time>
      </trkpt>
      <trkpt lat="44.90681" lon="-0.0973">
        <ele>53</ele>
        <time>2020-10-29T10:20:46Z</time>
      </trkpt>
      <trkpt lat="44.90688" lon="-0.0974">
        <ele>55</ele>
        <time>2020-10-29T10:21:00Z</time>
      </trkpt>
      <trkpt lat="44.90691" lon="-0.09756">
        <ele>56</ele>
        <time>2020-10-29T10:21:12Z</time>
      </trkpt>
      <trkpt lat="44.90694" lon="-0.09774">
        <ele>58</ele>
        <time>2020-10-29T10:21:28Z</time>
      </trkpt>
      <trkpt lat="44.90696" lon="-0.09788">
        <ele>58</ele>
        <time>2020-10-29T10:21:45Z</time>
      </trkpt>
      <trkpt lat="44.90696" lon="-0.09795">
        <ele>58</ele>
        <time>2020-10-29T10:21:56Z</time>
      </trkpt>
      <trkpt lat="44.90703" lon="-0.09804">
        <ele>58</ele>
        <time>2020-10-29T10:22:16Z</time>
      </trkpt>
      <trkpt lat="44.90705" lon="-0.09808">
        <ele>60</ele>
        <time>2020-10-29T10:22:21Z</time>
      </trkpt>
      <trkpt lat="44.90706" lon="-0.09809">
        <ele>58</ele>
        <time>2020-10-29T10:22:24Z</time>
      </trkpt>
      <trkpt lat="44.90707" lon="-0.09812">
        <ele>58</ele>
        <time>2020-10-29T10:22:39Z</time>
      </trkpt>
      <trkpt lat="44.90709" lon="-0.09812">
        <ele>58</ele>
        <time>2020-10-29T10:22:55Z</time>
      </trkpt>
      <trkpt lat="44.90708" lon="-0.09806">
        <ele>58</ele>
        <time>2020-10-29T10:23:09Z</time>
      </trkpt>
      <trkpt lat="44.90708" lon="-0.09803">
        <ele>58</ele>
        <time>2020-10-29T10:23:12Z</time>
      </trkpt>
      <trkpt lat="44.90706" lon="-0.09792">
        <ele>58</ele>
        <time>2020-10-29T10:23:26Z</time>
      </trkpt>
      <trkpt lat="44.90705" lon="-0.09783">
        <ele>58</ele>
        <time>2020-10-29T10:23:40Z</time>
      </trkpt>
      <trkpt lat="44.9071" lon="-0.09778">
        <ele>59</ele>
        <time>2020-10-29T10:23:52Z</time>
      </trkpt>
      <trkpt lat="44.90713" lon="-0.09767">
        <ele>60</ele>
        <time>2020-10-29T10:24:07Z</time>
      </trkpt>
      <trkpt lat="44.90711" lon="-0.09764">
        <ele>60</ele>
        <time>2020-10-29T10:24:26Z</time>
      </trkpt>
      <trkpt lat="44.90714" lon="-0.09775">
        <ele>60</ele>
        <time>2020-10-29T10:24:39Z</time>
      </trkpt>
      <trkpt lat="44.90708" lon="-0.0978">
        <ele>59</ele>
        <time>2020-10-29T10:24:52Z</time>
      </trkpt>
      <trkpt lat="44.90702" lon="-0.09773">
        <ele>59</ele>
        <time>2020-10-29T10:25:06Z</time>
      </trkpt>
      <trkpt lat="44.90699" lon="-0.0976">
        <ele>59</ele>
        <time>2020-10-29T10:25:16Z</time>
      </trkpt>
      <trkpt lat="44.90698" lon="-0.09745">
        <ele>59</ele>
        <time>2020-10-29T10:25:29Z</time>
      </trkpt>
      <trkpt lat="44.90699" lon="-0.09747">
        <ele>59</ele>
        <time>2020-10-29T10:25:32Z</time>
      </trkpt>
      <trkpt lat="44.90699" lon="-0.09753">
        <ele>59</ele>
        <time>2020-10-29T10:25:37Z</time>
      </trkpt>
      <trkpt lat="44.90699" lon="-0.0976">
        <ele>59</ele>
        <time>2020-10-29T10:25:50Z</time>
      </trkpt>
      <trkpt lat="44.90701" lon="-0.09773">
        <ele>59</ele>
        <time>2020-10-29T10:26:01Z</time>
      </trkpt>
      <trkpt lat="44.90708" lon="-0.09794">
        <ele>59</ele>
        <time>2020-10-29T10:26:15Z</time>
      </trkpt>
      <trkpt lat="44.90709" lon="-0.09799">
        <ele>59</ele>
        <time>2020-10-29T10:26:19Z</time>
      </trkpt>
      <trkpt lat="44.9071" lon="-0.0981">
        <ele>59</ele>
        <time>2020-10-29T10:26:31Z</time>
      </trkpt>
      <trkpt lat="44.90712" lon="-0.09818">
        <ele>59</ele>
        <time>2020-10-29T10:26:36Z</time>
      </trkpt>
      <trkpt lat="44.90725" lon="-0.09821">
        <ele>59</ele>
        <time>2020-10-29T10:26:49Z</time>
      </trkpt>
      <trkpt lat="44.9074" lon="-0.09821">
        <ele>59</ele>
        <time>2020-10-29T10:27:01Z</time>
      </trkpt>
      <trkpt lat="44.90755" lon="-0.09816">
        <ele>61</ele>
        <time>2020-10-29T10:27:15Z</time>
      </trkpt>
      <trkpt lat="44.90772" lon="-0.09812">
        <ele>61</ele>
        <time>2020-10-29T10:27:27Z</time>
      </trkpt>
      <trkpt lat="44.90778" lon="-0.0981">
        <ele>61</ele>
        <time>2020-10-29T10:27:32Z</time>
      </trkpt>
      <trkpt lat="44.90795" lon="-0.09808">
        <ele>61</ele>
        <time>2020-10-29T10:27:48Z</time>
      </trkpt>
      <trkpt lat="44.90809" lon="-0.09804">
        <ele>62</ele>
        <time>2020-10-29T10:28:05Z</time>
      </trkpt>
      <trkpt lat="44.90823" lon="-0.09797">
        <ele>62</ele>
        <time>2020-10-29T10:28:17Z</time>
      </trkpt>
      <trkpt lat="44.90834" lon="-0.09788">
        <ele>62</ele>
        <time>2020-10-29T10:28:27Z</time>
      </trkpt>
      <trkpt lat="44.90835" lon="-0.09787">
        <ele>62</ele>
        <time>2020-10-29T10:28:28Z</time>
      </trkpt>
      <trkpt lat="44.90837" lon="-0.09785">
        <ele>62</ele>
        <time>2020-10-29T10:28:29Z</time>
      </trkpt>
      <trkpt lat="44.90838" lon="-0.09784">
        <ele>62</ele>
        <time>2020-10-29T10:28:30Z</time>
      </trkpt>
      <trkpt lat="44.90839" lon="-0.09783">
        <ele>62</ele>
        <time>2020-10-29T10:28:31Z</time>
      </trkpt>
      <trkpt lat="44.90841" lon="-0.09782">
        <ele>62</ele>
        <time>2020-10-29T10:28:32Z</time>
      </trkpt>
      <trkpt lat="44.90863" lon="-0.09756">
        <ele>62</ele>
        <time>2020-10-29T10:28:51Z</time>
      </trkpt>
      <trkpt lat="44.90864" lon="-0.0973">
        <ele>61</ele>
        <time>2020-10-29T10:29:04Z</time>
      </trkpt>
      <trkpt lat="44.9086" lon="-0.09723">
        <ele>61</ele>
        <time>2020-10-29T10:29:11Z</time>
      </trkpt>
      <trkpt lat="44.90859" lon="-0.09722">
        <ele>61</ele>
        <time>2020-10-29T10:29:12Z</time>
      </trkpt>
      <trkpt lat="44.90858" lon="-0.09721">
        <ele>61</ele>
        <time>2020-10-29T10:29:13Z</time>
      </trkpt>
      <trkpt lat="44.90857" lon="-0.0972">
        <ele>60</ele>
        <time>2020-10-29T10:29:14Z</time>
      </trkpt>
      <trkpt lat="44.90856" lon="-0.09718">
        <ele>60</ele>
        <time>2020-10-29T10:29:15Z</time>
      </trkpt>
      <trkpt lat="44.90855" lon="-0.09717">
        <ele>60</ele>
        <time>2020-10-29T10:29:16Z</time>
      </trkpt>
      <trkpt lat="44.90854" lon="-0.09717">
        <ele>60</ele>
        <time>2020-10-29T10:29:17Z</time>
      </trkpt>
      <trkpt lat="44.90845" lon="-0.09707">
        <ele>59</ele>
        <time>2020-10-29T10:29:32Z</time>
      </trkpt>
      <trkpt lat="44.90844" lon="-0.09705">
        <ele>58</ele>
        <time>2020-10-29T10:29:55Z</time>
      </trkpt>
      <trkpt lat="44.90838" lon="-0.097">
        <ele>58</ele>
        <time>2020-10-29T10:30:07Z</time>
      </trkpt>
      <trkpt lat="44.90837" lon="-0.097">
        <ele>58</ele>
        <time>2020-10-29T10:30:33Z</time>
      </trkpt>
      <trkpt lat="44.90829" lon="-0.09695">
        <ele>57</ele>
        <time>2020-10-29T10:30:43Z</time>
      </trkpt>
      <trkpt lat="44.90827" lon="-0.09693">
        <ele>57</ele>
        <time>2020-10-29T10:30:44Z</time>
      </trkpt>
      <trkpt lat="44.90811" lon="-0.09684">
        <ele>57</ele>
        <time>2020-10-29T10:30:59Z</time>
      </trkpt>
      <trkpt lat="44.90794" lon="-0.09666">
        <ele>56</ele>
        <time>2020-10-29T10:31:16Z</time>
      </trkpt>
      <trkpt lat="44.90792" lon="-0.09663">
        <ele>45</ele>
        <time>2020-10-29T10:31:18Z</time>
      </trkpt>
      <trkpt lat="44.90791" lon="-0.09663">
        <ele>61</ele>
        <time>2020-10-29T10:31:19Z</time>
      </trkpt>
      <trkpt lat="44.9079" lon="-0.09662">
        <ele>61</ele>
        <time>2020-10-29T10:31:20Z</time>
      </trkpt>
      <trkpt lat="44.90789" lon="-0.09661">
        <ele>56</ele>
        <time>2020-10-29T10:31:21Z</time>
      </trkpt>
      <trkpt lat="44.90787" lon="-0.0966">
        <ele>55</ele>
        <time>2020-10-29T10:31:23Z</time>
      </trkpt>
      <trkpt lat="44.90772" lon="-0.09639">
        <ele>53</ele>
        <time>2020-10-29T10:31:45Z</time>
      </trkpt>
      <trkpt lat="44.90759" lon="-0.09619">
        <ele>51</ele>
        <time>2020-10-29T10:32:04Z</time>
      </trkpt>
      <trkpt lat="44.90744" lon="-0.09598">
        <ele>48</ele>
        <time>2020-10-29T10:32:24Z</time>
      </trkpt>
      <trkpt lat="44.90735" lon="-0.09584">
        <ele>44</ele>
        <time>2020-10-29T10:32:38Z</time>
      </trkpt>
      <trkpt lat="44.90734" lon="-0.09582">
        <ele>48</ele>
        <time>2020-10-29T10:32:39Z</time>
      </trkpt>
      <trkpt lat="44.90732" lon="-0.0958">
        <ele>46</ele>
        <time>2020-10-29T10:32:42Z</time>
      </trkpt>
      <trkpt lat="44.90729" lon="-0.09573">
        <ele>45</ele>
        <time>2020-10-29T10:32:50Z</time>
      </trkpt>
      <trkpt lat="44.90729" lon="-0.09571">
        <ele>45</ele>
        <time>2020-10-29T10:32:51Z</time>
      </trkpt>
      <trkpt lat="44.90722" lon="-0.09569">
        <ele>45</ele>
        <time>2020-10-29T10:33:00Z</time>
      </trkpt>
      <trkpt lat="44.90717" lon="-0.0957">
        <ele>45</ele>
        <time>2020-10-29T10:33:04Z</time>
      </trkpt>
      <trkpt lat="44.907" lon="-0.09582">
        <ele>45</ele>
        <time>2020-10-29T10:33:18Z</time>
      </trkpt>
      <trkpt lat="44.90685" lon="-0.09598">
        <ele>46</ele>
        <time>2020-10-29T10:33:35Z</time>
      </trkpt>
      <trkpt lat="44.90674" lon="-0.09612">
        <ele>46</ele>
        <time>2020-10-29T10:33:48Z</time>
      </trkpt>
      <trkpt lat="44.90666" lon="-0.09624">
        <ele>47</ele>
        <time>2020-10-29T10:34:00Z</time>
      </trkpt>
      <trkpt lat="44.90651" lon="-0.09637">
        <ele>47</ele>
        <time>2020-10-29T10:34:13Z</time>
      </trkpt>
      <trkpt lat="44.9065" lon="-0.0964">
        <ele>47</ele>
        <time>2020-10-29T10:34:15Z</time>
      </trkpt>
      <trkpt lat="44.9065" lon="-0.09643">
        <ele>47</ele>
        <time>2020-10-29T10:34:17Z</time>
      </trkpt>
      <trkpt lat="44.90649" lon="-0.09644">
        <ele>47</ele>
        <time>2020-10-29T10:34:18Z</time>
      </trkpt>
      <trkpt lat="44.90648" lon="-0.09645">
        <ele>47</ele>
        <time>2020-10-29T10:34:19Z</time>
      </trkpt>
      <trkpt lat="44.90647" lon="-0.09645">
        <ele>47</ele>
        <time>2020-10-29T10:34:20Z</time>
      </trkpt>
      <trkpt lat="44.90646" lon="-0.09646">
        <ele>47</ele>
        <time>2020-10-29T10:34:21Z</time>
      </trkpt>
      <trkpt lat="44.90645" lon="-0.09647">
        <ele>47</ele>
        <time>2020-10-29T10:34:22Z</time>
      </trkpt>
      <trkpt lat="44.90645" lon="-0.09648">
        <ele>47</ele>
        <time>2020-10-29T10:34:23Z</time>
      </trkpt>
      <trkpt lat="44.90635" lon="-0.09661">
        <ele>47</ele>
        <time>2020-10-29T10:34:38Z</time>
      </trkpt>
      <trkpt lat="44.90631" lon="-0.09666">
        <ele>45</ele>
        <time>2020-10-29T10:34:42Z</time>
      </trkpt>
      <trkpt lat="44.90621" lon="-0.09681">
        <ele>45</ele>
        <time>2020-10-29T10:34:53Z</time>
      </trkpt>
      <trkpt lat="44.90621" lon="-0.09682">
        <ele>45</ele>
        <time>2020-10-29T10:34:54Z</time>
      </trkpt>
      <trkpt lat="44.9062" lon="-0.09685">
        <ele>45</ele>
        <time>2020-10-29T10:34:55Z</time>
      </trkpt>
      <trkpt lat="44.90619" lon="-0.09686">
        <ele>45</ele>
        <time>2020-10-29T10:34:56Z</time>
      </trkpt>
      <trkpt lat="44.90618" lon="-0.09692">
        <ele>45</ele>
        <time>2020-10-29T10:35:00Z</time>
      </trkpt>
      <trkpt lat="44.90618" lon="-0.09694">
        <ele>45</ele>
        <time>2020-10-29T10:35:01Z</time>
      </trkpt>
      <trkpt lat="44.90618" lon="-0.09716">
        <ele>44</ele>
        <time>2020-10-29T10:35:14Z</time>
      </trkpt>
      <trkpt lat="44.90618" lon="-0.09718">
        <ele>43</ele>
        <time>2020-10-29T10:35:15Z</time>
      </trkpt>
      <trkpt lat="44.90618" lon="-0.0972">
        <ele>43</ele>
        <time>2020-10-29T10:35:16Z</time>
      </trkpt>
      <trkpt lat="44.90613" lon="-0.09736">
        <ele>42</ele>
        <time>2020-10-29T10:35:27Z</time>
      </trkpt>
      <trkpt lat="44.90612" lon="-0.09738">
        <ele>41</ele>
        <time>2020-10-29T10:35:28Z</time>
      </trkpt>
      <trkpt lat="44.90606" lon="-0.09742">
        <ele>41</ele>
        <time>2020-10-29T10:35:33Z</time>
      </trkpt>
      <trkpt lat="44.90605" lon="-0.09742">
        <ele>41</ele>
        <time>2020-10-29T10:35:34Z</time>
      </trkpt>
      <trkpt lat="44.90592" lon="-0.09749">
        <ele>40</ele>
        <time>2020-10-29T10:35:45Z</time>
      </trkpt>
      <trkpt lat="44.90573" lon="-0.09757">
        <ele>38</ele>
        <time>2020-10-29T10:36:00Z</time>
      </trkpt>
      <trkpt lat="44.90568" lon="-0.09757">
        <ele>38</ele>
        <time>2020-10-29T10:36:11Z</time>
      </trkpt>
      <trkpt lat="44.90566" lon="-0.09757">
        <ele>38</ele>
        <time>2020-10-29T10:36:12Z</time>
      </trkpt>
      <trkpt lat="44.90565" lon="-0.09757">
        <ele>38</ele>
        <time>2020-10-29T10:36:13Z</time>
      </trkpt>
      <trkpt lat="44.90564" lon="-0.09757">
        <ele>38</ele>
        <time>2020-10-29T10:36:14Z</time>
      </trkpt>
      <trkpt lat="44.90549" lon="-0.09757">
        <ele>37</ele>
        <time>2020-10-29T10:36:29Z</time>
      </trkpt>
      <trkpt lat="44.90532" lon="-0.09754">
        <ele>37</ele>
        <time>2020-10-29T10:36:40Z</time>
      </trkpt>
      <trkpt lat="44.9051" lon="-0.09746">
        <ele>37</ele>
        <time>2020-10-29T10:36:57Z</time>
      </trkpt>
      <trkpt lat="44.90495" lon="-0.09742">
        <ele>36</ele>
        <time>2020-10-29T10:37:13Z</time>
      </trkpt>
      <trkpt lat="44.90477" lon="-0.09739">
        <ele>36</ele>
        <time>2020-10-29T10:37:32Z</time>
      </trkpt>
      <trkpt lat="44.90476" lon="-0.09739">
        <ele>36</ele>
        <time>2020-10-29T10:37:33Z</time>
      </trkpt>
      <trkpt lat="44.90453" lon="-0.09733">
        <ele>35</ele>
        <time>2020-10-29T10:37:47Z</time>
      </trkpt>
      <trkpt lat="44.90426" lon="-0.09725">
        <ele>35</ele>
        <time>2020-10-29T10:38:04Z</time>
      </trkpt>
      <trkpt lat="44.90414" lon="-0.09727">
        <ele>34</ele>
        <time>2020-10-29T10:38:19Z</time>
      </trkpt>
      <trkpt lat="44.904" lon="-0.0972">
        <ele>33</ele>
        <time>2020-10-29T10:38:34Z</time>
      </trkpt>
      <trkpt lat="44.90386" lon="-0.097">
        <ele>33</ele>
        <time>2020-10-29T10:38:52Z</time>
      </trkpt>
      <trkpt lat="44.90383" lon="-0.09696">
        <ele>33</ele>
        <time>2020-10-29T10:38:55Z</time>
      </trkpt>
      <trkpt lat="44.90379" lon="-0.09689">
        <ele>33</ele>
        <time>2020-10-29T10:38:59Z</time>
      </trkpt>
      <trkpt lat="44.90362" lon="-0.09656">
        <ele>33</ele>
        <time>2020-10-29T10:39:17Z</time>
      </trkpt>
      <trkpt lat="44.9035" lon="-0.09641">
        <ele>32</ele>
        <time>2020-10-29T10:39:34Z</time>
      </trkpt>
      <trkpt lat="44.90347" lon="-0.09636">
        <ele>32</ele>
        <time>2020-10-29T10:39:38Z</time>
      </trkpt>
      <trkpt lat="44.90343" lon="-0.09624">
        <ele>32</ele>
        <time>2020-10-29T10:39:43Z</time>
      </trkpt>
      <trkpt lat="44.90338" lon="-0.09594">
        <ele>31</ele>
        <time>2020-10-29T10:39:57Z</time>
      </trkpt>
      <trkpt lat="44.90336" lon="-0.09591">
        <ele>31</ele>
        <time>2020-10-29T10:40:01Z</time>
      </trkpt>
      <trkpt lat="44.90328" lon="-0.09568">
        <ele>30</ele>
        <time>2020-10-29T10:40:16Z</time>
      </trkpt>
      <trkpt lat="44.90324" lon="-0.09548">
        <ele>30</ele>
        <time>2020-10-29T10:40:24Z</time>
      </trkpt>
      <trkpt lat="44.90315" lon="-0.09534">
        <ele>29</ele>
        <time>2020-10-29T10:40:40Z</time>
      </trkpt>
      <trkpt lat="44.90306" lon="-0.09531">
        <ele>29</ele>
        <time>2020-10-29T10:40:48Z</time>
      </trkpt>
      <trkpt lat="44.90276" lon="-0.09533">
        <ele>29</ele>
        <time>2020-10-29T10:41:05Z</time>
      </trkpt>
      <trkpt lat="44.90265" lon="-0.09533">
        <ele>29</ele>
        <time>2020-10-29T10:41:18Z</time>
      </trkpt>
      <trkpt lat="44.9026" lon="-0.09534">
        <ele>29</ele>
        <time>2020-10-29T10:41:31Z</time>
      </trkpt>
      <trkpt lat="44.9026" lon="-0.09533">
        <ele>29</ele>
        <time>2020-10-29T10:41:33Z</time>
      </trkpt>
      <trkpt lat="44.90239" lon="-0.09533">
        <ele>29</ele>
        <time>2020-10-29T10:41:46Z</time>
      </trkpt>
      <trkpt lat="44.90225" lon="-0.09536">
        <ele>29</ele>
        <time>2020-10-29T10:42:01Z</time>
      </trkpt>
      <trkpt lat="44.90211" lon="-0.09536">
        <ele>29</ele>
        <time>2020-10-29T10:42:11Z</time>
      </trkpt>
      <trkpt lat="44.90195" lon="-0.09537">
        <ele>29</ele>
        <time>2020-10-29T10:42:26Z</time>
      </trkpt>
      <trkpt lat="44.90172" lon="-0.09541">
        <ele>29</ele>
        <time>2020-10-29T10:42:42Z</time>
      </trkpt>
      <trkpt lat="44.90153" lon="-0.09539">
        <ele>29</ele>
        <time>2020-10-29T10:42:58Z</time>
      </trkpt>
      <trkpt lat="44.90147" lon="-0.09541">
        <ele>29</ele>
        <time>2020-10-29T10:43:05Z</time>
      </trkpt>
      <trkpt lat="44.90141" lon="-0.09543">
        <ele>29</ele>
        <time>2020-10-29T10:43:09Z</time>
      </trkpt>
      <trkpt lat="44.90116" lon="-0.09543">
        <ele>29</ele>
        <time>2020-10-29T10:43:25Z</time>
      </trkpt>
      <trkpt lat="44.90114" lon="-0.09543">
        <ele>28</ele>
        <time>2020-10-29T10:43:27Z</time>
      </trkpt>
      <trkpt lat="44.90097" lon="-0.09547">
        <ele>29</ele>
        <time>2020-10-29T10:43:41Z</time>
      </trkpt>
      <trkpt lat="44.90075" lon="-0.09547">
        <ele>29</ele>
        <time>2020-10-29T10:44:00Z</time>
      </trkpt>
      <trkpt lat="44.90068" lon="-0.09547">
        <ele>24</ele>
        <time>2020-10-29T10:44:05Z</time>
      </trkpt>
      <trkpt lat="44.90067" lon="-0.09548">
        <ele>26</ele>
        <time>2020-10-29T10:44:06Z</time>
      </trkpt>
      <trkpt lat="44.90066" lon="-0.09548">
        <ele>31</ele>
        <time>2020-10-29T10:44:07Z</time>
      </trkpt>
      <trkpt lat="44.90065" lon="-0.09548">
        <ele>26</ele>
        <time>2020-10-29T10:44:08Z</time>
      </trkpt>
      <trkpt lat="44.90062" lon="-0.09546">
        <ele>30</ele>
        <time>2020-10-29T10:44:11Z</time>
      </trkpt>
      <trkpt lat="44.90043" lon="-0.09545">
        <ele>28</ele>
        <time>2020-10-29T10:44:25Z</time>
      </trkpt>
      <trkpt lat="44.90025" lon="-0.09537">
        <ele>28</ele>
        <time>2020-10-29T10:44:41Z</time>
      </trkpt>
      <trkpt lat="44.90013" lon="-0.09532">
        <ele>28</ele>
        <time>2020-10-29T10:44:57Z</time>
      </trkpt>
      <trkpt lat="44.90009" lon="-0.0953">
        <ele>28</ele>
        <time>2020-10-29T10:45:18Z</time>
      </trkpt>
      <trkpt lat="44.90001" lon="-0.09529">
        <ele>28</ele>
        <time>2020-10-29T10:45:26Z</time>
      </trkpt>
      <trkpt lat="44.89976" lon="-0.09522">
        <ele>29</ele>
        <time>2020-10-29T10:45:48Z</time>
      </trkpt>
      <trkpt lat="44.8996" lon="-0.09513">
        <ele>30</ele>
        <time>2020-10-29T10:46:01Z</time>
      </trkpt>
      <trkpt lat="44.89949" lon="-0.09511">
        <ele>30</ele>
        <time>2020-10-29T10:46:14Z</time>
      </trkpt>
      <trkpt lat="44.89938" lon="-0.09507">
        <ele>31</ele>
        <time>2020-10-29T10:46:25Z</time>
      </trkpt>
      <trkpt lat="44.89935" lon="-0.09505">
        <ele>32</ele>
        <time>2020-10-29T10:46:29Z</time>
      </trkpt>
      <trkpt lat="44.89918" lon="-0.095">
        <ele>32</ele>
        <time>2020-10-29T10:46:42Z</time>
      </trkpt>
      <trkpt lat="44.89908" lon="-0.09495">
        <ele>32</ele>
        <time>2020-10-29T10:46:52Z</time>
      </trkpt>
      <trkpt lat="44.89906" lon="-0.09494">
        <ele>32</ele>
        <time>2020-10-29T10:46:53Z</time>
      </trkpt>
      <trkpt lat="44.89905" lon="-0.09494">
        <ele>32</ele>
        <time>2020-10-29T10:46:54Z</time>
      </trkpt>
      <trkpt lat="44.89903" lon="-0.09494">
        <ele>33</ele>
        <time>2020-10-29T10:46:55Z</time>
      </trkpt>
      <trkpt lat="44.89902" lon="-0.09493">
        <ele>33</ele>
        <time>2020-10-29T10:46:56Z</time>
      </trkpt>
      <trkpt lat="44.89901" lon="-0.09493">
        <ele>33</ele>
        <time>2020-10-29T10:46:57Z</time>
      </trkpt>
      <trkpt lat="44.899" lon="-0.09493">
        <ele>33</ele>
        <time>2020-10-29T10:46:58Z</time>
      </trkpt>
      <trkpt lat="44.89887" lon="-0.09489">
        <ele>34</ele>
        <time>2020-10-29T10:47:13Z</time>
      </trkpt>
      <trkpt lat="44.89873" lon="-0.09483">
        <ele>35</ele>
        <time>2020-10-29T10:47:28Z</time>
      </trkpt>
      <trkpt lat="44.89854" lon="-0.09476">
        <ele>36</ele>
        <time>2020-10-29T10:47:43Z</time>
      </trkpt>
      <trkpt lat="44.89825" lon="-0.0946">
        <ele>36</ele>
        <time>2020-10-29T10:48:01Z</time>
      </trkpt>
      <trkpt lat="44.89807" lon="-0.09453">
        <ele>37</ele>
        <time>2020-10-29T10:48:13Z</time>
      </trkpt>
      <trkpt lat="44.89792" lon="-0.09443">
        <ele>38</ele>
        <time>2020-10-29T10:48:28Z</time>
      </trkpt>
      <trkpt lat="44.89782" lon="-0.09431">
        <ele>38</ele>
        <time>2020-10-29T10:48:46Z</time>
      </trkpt>
      <trkpt lat="44.89767" lon="-0.09421">
        <ele>38</ele>
        <time>2020-10-29T10:48:56Z</time>
      </trkpt>
      <trkpt lat="44.89748" lon="-0.09397">
        <ele>38</ele>
        <time>2020-10-29T10:49:11Z</time>
      </trkpt>
      <trkpt lat="44.8974" lon="-0.09385">
        <ele>39</ele>
        <time>2020-10-29T10:49:23Z</time>
      </trkpt>
      <trkpt lat="44.89728" lon="-0.09364">
        <ele>39</ele>
        <time>2020-10-29T10:49:37Z</time>
      </trkpt>
      <trkpt lat="44.8972" lon="-0.09353">
        <ele>39</ele>
        <time>2020-10-29T10:49:48Z</time>
      </trkpt>
      <trkpt lat="44.89706" lon="-0.09332">
        <ele>39</ele>
        <time>2020-10-29T10:50:02Z</time>
      </trkpt>
      <trkpt lat="44.89694" lon="-0.09312">
        <ele>40</ele>
        <time>2020-10-29T10:50:17Z</time>
      </trkpt>
      <trkpt lat="44.89688" lon="-0.09305">
        <ele>40</ele>
        <time>2020-10-29T10:50:26Z</time>
      </trkpt>
      <trkpt lat="44.89686" lon="-0.09304">
        <ele>40</ele>
        <time>2020-10-29T10:50:27Z</time>
      </trkpt>
      <trkpt lat="44.89682" lon="-0.09301">
        <ele>40</ele>
        <time>2020-10-29T10:50:30Z</time>
      </trkpt>
      <trkpt lat="44.89679" lon="-0.09298">
        <ele>40</ele>
        <time>2020-10-29T10:50:35Z</time>
      </trkpt>
      <trkpt lat="44.89678" lon="-0.09297">
        <ele>40</ele>
        <time>2020-10-29T10:50:36Z</time>
      </trkpt>
      <trkpt lat="44.89677" lon="-0.09296">
        <ele>40</ele>
        <time>2020-10-29T10:50:37Z</time>
      </trkpt>
      <trkpt lat="44.89676" lon="-0.09295">
        <ele>40</ele>
        <time>2020-10-29T10:50:38Z</time>
      </trkpt>
      <trkpt lat="44.89674" lon="-0.09294">
        <ele>40</ele>
        <time>2020-10-29T10:50:39Z</time>
      </trkpt>
      <trkpt lat="44.89653" lon="-0.09272">
        <ele>40</ele>
        <time>2020-10-29T10:50:53Z</time>
      </trkpt>
      <trkpt lat="44.89647" lon="-0.09266">
        <ele>40</ele>
        <time>2020-10-29T10:51:07Z</time>
      </trkpt>
      <trkpt lat="44.8964" lon="-0.0926">
        <ele>41</ele>
        <time>2020-10-29T10:51:17Z</time>
      </trkpt>
      <trkpt lat="44.89638" lon="-0.09259">
        <ele>41</ele>
        <time>2020-10-29T10:51:18Z</time>
      </trkpt>
      <trkpt lat="44.89618" lon="-0.09241">
        <ele>41</ele>
        <time>2020-10-29T10:51:30Z</time>
      </trkpt>
      <trkpt lat="44.896" lon="-0.09227">
        <ele>41</ele>
        <time>2020-10-29T10:51:44Z</time>
      </trkpt>
      <trkpt lat="44.89578" lon="-0.09209">
        <ele>42</ele>
        <time>2020-10-29T10:52:01Z</time>
      </trkpt>
      <trkpt lat="44.89568" lon="-0.09204">
        <ele>42</ele>
        <time>2020-10-29T10:52:15Z</time>
      </trkpt>
      <trkpt lat="44.89552" lon="-0.09195">
        <ele>43</ele>
        <time>2020-10-29T10:52:28Z</time>
      </trkpt>
      <trkpt lat="44.89529" lon="-0.09177">
        <ele>43</ele>
        <time>2020-10-29T10:52:43Z</time>
      </trkpt>
      <trkpt lat="44.89513" lon="-0.09167">
        <ele>43</ele>
        <time>2020-10-29T10:53:00Z</time>
      </trkpt>
      <trkpt lat="44.89495" lon="-0.09154">
        <ele>44</ele>
        <time>2020-10-29T10:53:15Z</time>
      </trkpt>
      <trkpt lat="44.89493" lon="-0.09152">
        <ele>44</ele>
        <time>2020-10-29T10:53:17Z</time>
      </trkpt>
      <trkpt lat="44.89492" lon="-0.09151">
        <ele>44</ele>
        <time>2020-10-29T10:53:18Z</time>
      </trkpt>
      <trkpt lat="44.8949" lon="-0.0915">
        <ele>44</ele>
        <time>2020-10-29T10:53:19Z</time>
      </trkpt>
      <trkpt lat="44.89489" lon="-0.0915">
        <ele>44</ele>
        <time>2020-10-29T10:53:20Z</time>
      </trkpt>
      <trkpt lat="44.89488" lon="-0.09149">
        <ele>44</ele>
        <time>2020-10-29T10:53:21Z</time>
      </trkpt>
      <trkpt lat="44.89486" lon="-0.09149">
        <ele>44</ele>
        <time>2020-10-29T10:53:22Z</time>
      </trkpt>
      <trkpt lat="44.89471" lon="-0.09152">
        <ele>41</ele>
        <time>2020-10-29T10:53:33Z</time>
      </trkpt>
      <trkpt lat="44.8947" lon="-0.09153">
        <ele>41</ele>
        <time>2020-10-29T10:53:34Z</time>
      </trkpt>
      <trkpt lat="44.89469" lon="-0.09154">
        <ele>48</ele>
        <time>2020-10-29T10:53:35Z</time>
      </trkpt>
      <trkpt lat="44.89468" lon="-0.09154">
        <ele>48</ele>
        <time>2020-10-29T10:53:36Z</time>
      </trkpt>
      <trkpt lat="44.89467" lon="-0.09156">
        <ele>45</ele>
        <time>2020-10-29T10:53:38Z</time>
      </trkpt>
      <trkpt lat="44.89466" lon="-0.09158">
        <ele>44</ele>
        <time>2020-10-29T10:53:39Z</time>
      </trkpt>
      <trkpt lat="44.89453" lon="-0.09183">
        <ele>44</ele>
        <time>2020-10-29T10:53:55Z</time>
      </trkpt>
      <trkpt lat="44.89444" lon="-0.09198">
        <ele>44</ele>
        <time>2020-10-29T10:54:11Z</time>
      </trkpt>
      <trkpt lat="44.89443" lon="-0.09199">
        <ele>44</ele>
        <time>2020-10-29T10:54:13Z</time>
      </trkpt>
      <trkpt lat="44.8942" lon="-0.09224">
        <ele>44</ele>
        <time>2020-10-29T10:54:35Z</time>
      </trkpt>
      <trkpt lat="44.89415" lon="-0.0923">
        <ele>45</ele>
        <time>2020-10-29T10:54:40Z</time>
      </trkpt>
      <trkpt lat="44.89391" lon="-0.0925">
        <ele>47</ele>
        <time>2020-10-29T10:55:01Z</time>
      </trkpt>
      <trkpt lat="44.89364" lon="-0.09273">
        <ele>48</ele>
        <time>2020-10-29T10:55:25Z</time>
      </trkpt>
      <trkpt lat="44.8934" lon="-0.09293">
        <ele>51</ele>
        <time>2020-10-29T10:55:47Z</time>
      </trkpt>
      <trkpt lat="44.89333" lon="-0.0931">
        <ele>52</ele>
        <time>2020-10-29T10:56:01Z</time>
      </trkpt>
      <trkpt lat="44.89338" lon="-0.09341">
        <ele>53</ele>
        <time>2020-10-29T10:56:18Z</time>
      </trkpt>
      <trkpt lat="44.89342" lon="-0.09367">
        <ele>55</ele>
        <time>2020-10-29T10:56:34Z</time>
      </trkpt>
      <trkpt lat="44.89342" lon="-0.09369">
        <ele>55</ele>
        <time>2020-10-29T10:56:35Z</time>
      </trkpt>
      <trkpt lat="44.89339" lon="-0.09375">
        <ele>55</ele>
        <time>2020-10-29T10:56:39Z</time>
      </trkpt>
      <trkpt lat="44.8933" lon="-0.09404">
        <ele>56</ele>
        <time>2020-10-29T10:56:57Z</time>
      </trkpt>
      <trkpt lat="44.89323" lon="-0.09417">
        <ele>54</ele>
        <time>2020-10-29T10:57:10Z</time>
      </trkpt>
      <trkpt lat="44.89301" lon="-0.09427">
        <ele>53</ele>
        <time>2020-10-29T10:57:23Z</time>
      </trkpt>
      <trkpt lat="44.89283" lon="-0.0944">
        <ele>53</ele>
        <time>2020-10-29T10:57:40Z</time>
      </trkpt>
      <trkpt lat="44.89259" lon="-0.0946">
        <ele>53</ele>
        <time>2020-10-29T10:57:56Z</time>
      </trkpt>
      <trkpt lat="44.89251" lon="-0.0947">
        <ele>53</ele>
        <time>2020-10-29T10:58:10Z</time>
      </trkpt>
      <trkpt lat="44.89232" lon="-0.09491">
        <ele>53</ele>
        <time>2020-10-29T10:58:25Z</time>
      </trkpt>
      <trkpt lat="44.8922" lon="-0.09504">
        <ele>53</ele>
        <time>2020-10-29T10:58:39Z</time>
      </trkpt>
      <trkpt lat="44.89199" lon="-0.09522">
        <ele>53</ele>
        <time>2020-10-29T10:58:53Z</time>
      </trkpt>
      <trkpt lat="44.89187" lon="-0.09533">
        <ele>51</ele>
        <time>2020-10-29T10:59:07Z</time>
      </trkpt>
      <trkpt lat="44.89168" lon="-0.09551">
        <ele>50</ele>
        <time>2020-10-29T10:59:24Z</time>
      </trkpt>
      <trkpt lat="44.89151" lon="-0.09562">
        <ele>48</ele>
        <time>2020-10-29T10:59:40Z</time>
      </trkpt>
      <trkpt lat="44.89133" lon="-0.09576">
        <ele>48</ele>
        <time>2020-10-29T10:59:53Z</time>
      </trkpt>
      <trkpt lat="44.89139" lon="-0.09573">
        <ele>48</ele>
        <time>2020-10-29T10:59:59Z</time>
      </trkpt>
      <trkpt lat="44.89146" lon="-0.09563">
        <ele>48</ele>
        <time>2020-10-29T11:00:09Z</time>
      </trkpt>
      <trkpt lat="44.89141" lon="-0.09543">
        <ele>50</ele>
        <time>2020-10-29T11:00:22Z</time>
      </trkpt>
      <trkpt lat="44.8914" lon="-0.09541">
        <ele>50</ele>
        <time>2020-10-29T11:00:23Z</time>
      </trkpt>
      <trkpt lat="44.89134" lon="-0.09521">
        <ele>51</ele>
        <time>2020-10-29T11:00:36Z</time>
      </trkpt>
      <trkpt lat="44.89133" lon="-0.09518">
        <ele>51</ele>
        <time>2020-10-29T11:00:40Z</time>
      </trkpt>
      <trkpt lat="44.89127" lon="-0.09499">
        <ele>52</ele>
        <time>2020-10-29T11:00:54Z</time>
      </trkpt>
      <trkpt lat="44.89126" lon="-0.09498">
        <ele>52</ele>
        <time>2020-10-29T11:00:55Z</time>
      </trkpt>
      <trkpt lat="44.89122" lon="-0.09482">
        <ele>53</ele>
        <time>2020-10-29T11:01:06Z</time>
      </trkpt>
      <trkpt lat="44.89118" lon="-0.09469">
        <ele>53</ele>
        <time>2020-10-29T11:01:17Z</time>
      </trkpt>
      <trkpt lat="44.89117" lon="-0.09465">
        <ele>54</ele>
        <time>2020-10-29T11:01:20Z</time>
      </trkpt>
      <trkpt lat="44.89114" lon="-0.09453">
        <ele>55</ele>
        <time>2020-10-29T11:01:31Z</time>
      </trkpt>
      <trkpt lat="44.89108" lon="-0.09435">
        <ele>58</ele>
        <time>2020-10-29T11:01:49Z</time>
      </trkpt>
      <trkpt lat="44.89111" lon="-0.09422">
        <ele>59</ele>
        <time>2020-10-29T11:02:03Z</time>
      </trkpt>
      <trkpt lat="44.89117" lon="-0.09404">
        <ele>62</ele>
        <time>2020-10-29T11:02:21Z</time>
      </trkpt>
      <trkpt lat="44.89116" lon="-0.09385">
        <ele>63</ele>
        <time>2020-10-29T11:02:37Z</time>
      </trkpt>
      <trkpt lat="44.89119" lon="-0.09353">
        <ele>64</ele>
        <time>2020-10-29T11:02:56Z</time>
      </trkpt>
      <trkpt lat="44.8912" lon="-0.09336">
        <ele>62</ele>
        <time>2020-10-29T11:03:11Z</time>
      </trkpt>
      <trkpt lat="44.89125" lon="-0.09303">
        <ele>62</ele>
        <time>2020-10-29T11:03:25Z</time>
      </trkpt>
      <trkpt lat="44.89124" lon="-0.09285">
        <ele>60</ele>
        <time>2020-10-29T11:03:40Z</time>
      </trkpt>
      <trkpt lat="44.89127" lon="-0.09261">
        <ele>60</ele>
        <time>2020-10-29T11:03:53Z</time>
      </trkpt>
      <trkpt lat="44.89126" lon="-0.09255">
        <ele>60</ele>
        <time>2020-10-29T11:04:05Z</time>
      </trkpt>
      <trkpt lat="44.89126" lon="-0.09229">
        <ele>59</ele>
        <time>2020-10-29T11:04:20Z</time>
      </trkpt>
      <trkpt lat="44.89126" lon="-0.09208">
        <ele>59</ele>
        <time>2020-10-29T11:04:33Z</time>
      </trkpt>
      <trkpt lat="44.89128" lon="-0.09185">
        <ele>59</ele>
        <time>2020-10-29T11:04:48Z</time>
      </trkpt>
      <trkpt lat="44.89134" lon="-0.09157">
        <ele>59</ele>
        <time>2020-10-29T11:05:03Z</time>
      </trkpt>
      <trkpt lat="44.89142" lon="-0.09134">
        <ele>59</ele>
        <time>2020-10-29T11:05:20Z</time>
      </trkpt>
      <trkpt lat="44.8916" lon="-0.09109">
        <ele>59</ele>
        <time>2020-10-29T11:05:38Z</time>
      </trkpt>
      <trkpt lat="44.89171" lon="-0.09099">
        <ele>59</ele>
        <time>2020-10-29T11:05:53Z</time>
      </trkpt>
      <trkpt lat="44.89193" lon="-0.09077">
        <ele>59</ele>
        <time>2020-10-29T11:06:12Z</time>
      </trkpt>
      <trkpt lat="44.89204" lon="-0.09054">
        <ele>60</ele>
        <time>2020-10-29T11:06:27Z</time>
      </trkpt>
      <trkpt lat="44.89207" lon="-0.0903">
        <ele>60</ele>
        <time>2020-10-29T11:06:43Z</time>
      </trkpt>
      <trkpt lat="44.89211" lon="-0.09013">
        <ele>60</ele>
        <time>2020-10-29T11:06:55Z</time>
      </trkpt>
      <trkpt lat="44.89211" lon="-0.08994">
        <ele>60</ele>
        <time>2020-10-29T11:07:09Z</time>
      </trkpt>
      <trkpt lat="44.89212" lon="-0.08989">
        <ele>60</ele>
        <time>2020-10-29T11:07:13Z</time>
      </trkpt>
      <trkpt lat="44.89212" lon="-0.0898">
        <ele>60</ele>
        <time>2020-10-29T11:07:17Z</time>
      </trkpt>
      <trkpt lat="44.89218" lon="-0.08952">
        <ele>60</ele>
        <time>2020-10-29T11:07:31Z</time>
      </trkpt>
      <trkpt lat="44.89222" lon="-0.08942">
        <ele>60</ele>
        <time>2020-10-29T11:07:37Z</time>
      </trkpt>
      <trkpt lat="44.89223" lon="-0.08943">
        <ele>58</ele>
        <time>2020-10-29T11:07:38Z</time>
      </trkpt>
      <trkpt lat="44.89227" lon="-0.08929">
        <ele>57</ele>
        <time>2020-10-29T11:07:49Z</time>
      </trkpt>
      <trkpt lat="44.89224" lon="-0.08909">
        <ele>57</ele>
        <time>2020-10-29T11:08:02Z</time>
      </trkpt>
      <trkpt lat="44.89224" lon="-0.08892">
        <ele>57</ele>
        <time>2020-10-29T11:08:17Z</time>
      </trkpt>
      <trkpt lat="44.89229" lon="-0.08867">
        <ele>57</ele>
        <time>2020-10-29T11:08:33Z</time>
      </trkpt>
      <trkpt lat="44.89235" lon="-0.08831">
        <ele>57</ele>
        <time>2020-10-29T11:08:48Z</time>
      </trkpt>
      <trkpt lat="44.89242" lon="-0.088">
        <ele>57</ele>
        <time>2020-10-29T11:09:05Z</time>
      </trkpt>
      <trkpt lat="44.89243" lon="-0.08778">
        <ele>57</ele>
        <time>2020-10-29T11:09:20Z</time>
      </trkpt>
      <trkpt lat="44.89245" lon="-0.08758">
        <ele>58</ele>
        <time>2020-10-29T11:09:34Z</time>
      </trkpt>
      <trkpt lat="44.89248" lon="-0.08732">
        <ele>58</ele>
        <time>2020-10-29T11:09:53Z</time>
      </trkpt>
      <trkpt lat="44.89254" lon="-0.08701">
        <ele>58</ele>
        <time>2020-10-29T11:10:06Z</time>
      </trkpt>
      <trkpt lat="44.89257" lon="-0.08674">
        <ele>59</ele>
        <time>2020-10-29T11:10:21Z</time>
      </trkpt>
      <trkpt lat="44.89255" lon="-0.08663">
        <ele>59</ele>
        <time>2020-10-29T11:10:34Z</time>
      </trkpt>
      <trkpt lat="44.89255" lon="-0.08654">
        <ele>59</ele>
        <time>2020-10-29T11:10:40Z</time>
      </trkpt>
      <trkpt lat="44.89256" lon="-0.08638">
        <ele>59</ele>
        <time>2020-10-29T11:10:47Z</time>
      </trkpt>
      <trkpt lat="44.89255" lon="-0.08613">
        <ele>59</ele>
        <time>2020-10-29T11:11:02Z</time>
      </trkpt>
      <trkpt lat="44.89253" lon="-0.08597">
        <ele>59</ele>
        <time>2020-10-29T11:11:17Z</time>
      </trkpt>
      <trkpt lat="44.89252" lon="-0.08594">
        <ele>59</ele>
        <time>2020-10-29T11:11:19Z</time>
      </trkpt>
      <trkpt lat="44.89252" lon="-0.0859">
        <ele>58</ele>
        <time>2020-10-29T11:11:21Z</time>
      </trkpt>
      <trkpt lat="44.89251" lon="-0.08574">
        <ele>57</ele>
        <time>2020-10-29T11:11:31Z</time>
      </trkpt>
      <trkpt lat="44.89254" lon="-0.08544">
        <ele>55</ele>
        <time>2020-10-29T11:11:44Z</time>
      </trkpt>
      <trkpt lat="44.89251" lon="-0.08514">
        <ele>53</ele>
        <time>2020-10-29T11:11:57Z</time>
      </trkpt>
      <trkpt lat="44.89246" lon="-0.08497">
        <ele>51</ele>
        <time>2020-10-29T11:12:11Z</time>
      </trkpt>
      <trkpt lat="44.89242" lon="-0.08482">
        <ele>49</ele>
        <time>2020-10-29T11:12:25Z</time>
      </trkpt>
      <trkpt lat="44.89236" lon="-0.08454">
        <ele>47</ele>
        <time>2020-10-29T11:12:43Z</time>
      </trkpt>
      <trkpt lat="44.89232" lon="-0.08432">
        <ele>46</ele>
        <time>2020-10-29T11:13:00Z</time>
      </trkpt>
      <trkpt lat="44.89228" lon="-0.08404">
        <ele>45</ele>
        <time>2020-10-29T11:13:13Z</time>
      </trkpt>
      <trkpt lat="44.89228" lon="-0.08395">
        <ele>45</ele>
        <time>2020-10-29T11:13:19Z</time>
      </trkpt>
      <trkpt lat="44.89225" lon="-0.08386">
        <ele>45</ele>
        <time>2020-10-29T11:13:24Z</time>
      </trkpt>
      <trkpt lat="44.89221" lon="-0.08361">
        <ele>45</ele>
        <time>2020-10-29T11:13:37Z</time>
      </trkpt>
      <trkpt lat="44.89218" lon="-0.0833">
        <ele>45</ele>
        <time>2020-10-29T11:13:52Z</time>
      </trkpt>
      <trkpt lat="44.89216" lon="-0.08308">
        <ele>46</ele>
        <time>2020-10-29T11:14:03Z</time>
      </trkpt>
      <trkpt lat="44.89213" lon="-0.08299">
        <ele>46</ele>
        <time>2020-10-29T11:14:16Z</time>
      </trkpt>
      <trkpt lat="44.89213" lon="-0.08299">
        <ele>44</ele>
        <time>2020-10-29T11:14:26Z</time>
      </trkpt>
      <trkpt lat="44.89215" lon="-0.083">
        <ele>46</ele>
        <time>2020-10-29T11:14:40Z</time>
      </trkpt>
      <trkpt lat="44.89218" lon="-0.0831">
        <ele>46</ele>
        <time>2020-10-29T11:15:00Z</time>
      </trkpt>
      <trkpt lat="44.89217" lon="-0.08308">
        <ele>46</ele>
        <time>2020-10-29T11:15:20Z</time>
      </trkpt>
      <trkpt lat="44.89218" lon="-0.0831">
        <ele>46</ele>
        <time>2020-10-29T11:15:40Z</time>
      </trkpt>
      <trkpt lat="44.89218" lon="-0.08309">
        <ele>47</ele>
        <time>2020-10-29T11:15:43Z</time>
      </trkpt>
      <trkpt lat="44.89218" lon="-0.08309">
        <ele>46</ele>
        <time>2020-10-29T11:15:45Z</time>
      </trkpt>
      <trkpt lat="44.89218" lon="-0.08309">
        <ele>46</ele>
        <time>2020-10-29T11:16:05Z</time>
      </trkpt>
      <trkpt lat="44.89217" lon="-0.0831">
        <ele>46</ele>
        <time>2020-10-29T11:16:26Z</time>
      </trkpt>
      <trkpt lat="44.89218" lon="-0.08307">
        <ele>47</ele>
        <time>2020-10-29T11:16:46Z</time>
      </trkpt>
      <trkpt lat="44.89217" lon="-0.08307">
        <ele>46</ele>
        <time>2020-10-29T11:16:48Z</time>
      </trkpt>
      <trkpt lat="44.89216" lon="-0.08307">
        <ele>46</ele>
        <time>2020-10-29T11:17:09Z</time>
      </trkpt>
      <trkpt lat="44.89215" lon="-0.08307">
        <ele>46</ele>
        <time>2020-10-29T11:17:31Z</time>
      </trkpt>
      <trkpt lat="44.89214" lon="-0.08304">
        <ele>46</ele>
        <time>2020-10-29T11:17:48Z</time>
      </trkpt>
      <trkpt lat="44.89214" lon="-0.08307">
        <ele>46</ele>
        <time>2020-10-29T11:18:31Z</time>
      </trkpt>
      <trkpt lat="44.89213" lon="-0.08308">
        <ele>46</ele>
        <time>2020-10-29T11:19:04Z</time>
      </trkpt>
      <trkpt lat="44.89213" lon="-0.0831">
        <ele>46</ele>
        <time>2020-10-29T11:19:36Z</time>
      </trkpt>
      <trkpt lat="44.89213" lon="-0.08309">
        <ele>46</ele>
        <time>2020-10-29T11:20:10Z</time>
      </trkpt>
      <trkpt lat="44.89212" lon="-0.08306">
        <ele>47</ele>
        <time>2020-10-29T11:20:55Z</time>
      </trkpt>
      <trkpt lat="44.89218" lon="-0.08307">
        <ele>47</ele>
        <time>2020-10-29T11:21:40Z</time>
      </trkpt>
      <trkpt lat="44.89218" lon="-0.08309">
        <ele>47</ele>
        <time>2020-10-29T11:22:19Z</time>
      </trkpt>
      <trkpt lat="44.89218" lon="-0.08308">
        <ele>47</ele>
        <time>2020-10-29T11:22:59Z</time>
      </trkpt>
      <trkpt lat="44.89215" lon="-0.08308">
        <ele>48</ele>
        <time>2020-10-29T11:23:39Z</time>
      </trkpt>
      <trkpt lat="44.89214" lon="-0.08312">
        <ele>48</ele>
        <time>2020-10-29T11:24:21Z</time>
      </trkpt>
      <trkpt lat="44.89213" lon="-0.08308">
        <ele>48</ele>
        <time>2020-10-29T11:25:06Z</time>
      </trkpt>
      <trkpt lat="44.89215" lon="-0.08307">
        <ele>48</ele>
        <time>2020-10-29T11:25:35Z</time>
      </trkpt>
      <trkpt lat="44.89216" lon="-0.08312">
        <ele>49</ele>
        <time>2020-10-29T11:26:17Z</time>
      </trkpt>
      <trkpt lat="44.89215" lon="-0.08312">
        <ele>49</ele>
        <time>2020-10-29T11:27:05Z</time>
      </trkpt>
      <trkpt lat="44.89214" lon="-0.08309">
        <ele>50</ele>
        <time>2020-10-29T11:27:45Z</time>
      </trkpt>
      <trkpt lat="44.89216" lon="-0.08311">
        <ele>50</ele>
        <time>2020-10-29T11:28:10Z</time>
      </trkpt>
      <trkpt lat="44.89222" lon="-0.08306">
        <ele>49</ele>
        <time>2020-10-29T11:28:42Z</time>
      </trkpt>
      <trkpt lat="44.89222" lon="-0.08307">
        <ele>49</ele>
        <time>2020-10-29T11:28:43Z</time>
      </trkpt>
      <trkpt lat="44.89221" lon="-0.08306">
        <ele>52</ele>
        <time>2020-10-29T11:28:48Z</time>
      </trkpt>
      <trkpt lat="44.89221" lon="-0.08306">
        <ele>50</ele>
        <time>2020-10-29T11:28:49Z</time>
      </trkpt>
      <trkpt lat="44.89219" lon="-0.08308">
        <ele>50</ele>
        <time>2020-10-29T11:29:20Z</time>
      </trkpt>
      <trkpt lat="44.8922" lon="-0.08309">
        <ele>49</ele>
        <time>2020-10-29T11:29:33Z</time>
      </trkpt>
      <trkpt lat="44.8922" lon="-0.08308">
        <ele>50</ele>
        <time>2020-10-29T11:29:35Z</time>
      </trkpt>
      <trkpt lat="44.89219" lon="-0.08308">
        <ele>49</ele>
        <time>2020-10-29T11:29:57Z</time>
      </trkpt>
      <trkpt lat="44.8922" lon="-0.08309">
        <ele>52</ele>
        <time>2020-10-29T11:30:08Z</time>
      </trkpt>
      <trkpt lat="44.89219" lon="-0.08309">
        <ele>50</ele>
        <time>2020-10-29T11:30:10Z</time>
      </trkpt>
      <trkpt lat="44.89211" lon="-0.08309">
        <ele>51</ele>
        <time>2020-10-29T11:30:43Z</time>
      </trkpt>
      <trkpt lat="44.89212" lon="-0.08314">
        <ele>50</ele>
        <time>2020-10-29T11:31:17Z</time>
      </trkpt>
      <trkpt lat="44.89215" lon="-0.08311">
        <ele>51</ele>
        <time>2020-10-29T11:31:28Z</time>
      </trkpt>
      <trkpt lat="44.89213" lon="-0.08318">
        <ele>51</ele>
        <time>2020-10-29T11:31:55Z</time>
      </trkpt>
      <trkpt lat="44.89214" lon="-0.0832">
        <ele>51</ele>
        <time>2020-10-29T11:32:20Z</time>
      </trkpt>
      <trkpt lat="44.89233" lon="-0.08293">
        <ele>52</ele>
        <time>2020-10-29T11:32:50Z</time>
      </trkpt>
      <trkpt lat="44.89223" lon="-0.08301">
        <ele>52</ele>
        <time>2020-10-29T11:33:14Z</time>
      </trkpt>
      <trkpt lat="44.89215" lon="-0.08307">
        <ele>52</ele>
        <time>2020-10-29T11:33:54Z</time>
      </trkpt>
      <trkpt lat="44.89218" lon="-0.08304">
        <ele>52</ele>
        <time>2020-10-29T11:34:37Z</time>
      </trkpt>
      <trkpt lat="44.8922" lon="-0.08307">
        <ele>52</ele>
        <time>2020-10-29T11:35:15Z</time>
      </trkpt>
      <trkpt lat="44.89216" lon="-0.08308">
        <ele>52</ele>
        <time>2020-10-29T11:35:40Z</time>
      </trkpt>
      <trkpt lat="44.89218" lon="-0.0831">
        <ele>53</ele>
        <time>2020-10-29T11:36:05Z</time>
      </trkpt>
      <trkpt lat="44.8922" lon="-0.08316">
        <ele>53</ele>
        <time>2020-10-29T11:36:28Z</time>
      </trkpt>
      <trkpt lat="44.89221" lon="-0.08315">
        <ele>50</ele>
        <time>2020-10-29T11:36:33Z</time>
      </trkpt>
      <trkpt lat="44.89221" lon="-0.08315">
        <ele>50</ele>
        <time>2020-10-29T11:36:34Z</time>
      </trkpt>
      <trkpt lat="44.89221" lon="-0.08315">
        <ele>51</ele>
        <time>2020-10-29T11:36:36Z</time>
      </trkpt>
      <trkpt lat="44.89221" lon="-0.08315">
        <ele>56</ele>
        <time>2020-10-29T11:36:37Z</time>
      </trkpt>
      <trkpt lat="44.89221" lon="-0.08315">
        <ele>52</ele>
        <time>2020-10-29T11:36:38Z</time>
      </trkpt>
      <trkpt lat="44.8922" lon="-0.08314">
        <ele>53</ele>
        <time>2020-10-29T11:36:42Z</time>
      </trkpt>
      <trkpt lat="44.89219" lon="-0.08307">
        <ele>53</ele>
        <time>2020-10-29T11:37:11Z</time>
      </trkpt>
      <trkpt lat="44.89219" lon="-0.08308">
        <ele>53</ele>
        <time>2020-10-29T11:37:49Z</time>
      </trkpt>
      <trkpt lat="44.89216" lon="-0.08317">
        <ele>53</ele>
        <time>2020-10-29T11:38:20Z</time>
      </trkpt>
      <trkpt lat="44.89217" lon="-0.0831">
        <ele>53</ele>
        <time>2020-10-29T11:39:02Z</time>
      </trkpt>
      <trkpt lat="44.89217" lon="-0.08306">
        <ele>53</ele>
        <time>2020-10-29T11:39:36Z</time>
      </trkpt>
      <trkpt lat="44.89219" lon="-0.08302">
        <ele>54</ele>
        <time>2020-10-29T11:39:58Z</time>
      </trkpt>
      <trkpt lat="44.89217" lon="-0.083">
        <ele>54</ele>
        <time>2020-10-29T11:40:17Z</time>
      </trkpt>
      <trkpt lat="44.89218" lon="-0.08302">
        <ele>53</ele>
        <time>2020-10-29T11:40:24Z</time>
      </trkpt>
      <trkpt lat="44.89215" lon="-0.08292">
        <ele>55</ele>
        <time>2020-10-29T11:40:51Z</time>
      </trkpt>
      <trkpt lat="44.89215" lon="-0.08299">
        <ele>54</ele>
        <time>2020-10-29T11:41:31Z</time>
      </trkpt>
      <trkpt lat="44.89214" lon="-0.08296">
        <ele>54</ele>
        <time>2020-10-29T11:42:11Z</time>
      </trkpt>
      <trkpt lat="44.89214" lon="-0.083">
        <ele>54</ele>
        <time>2020-10-29T11:42:46Z</time>
      </trkpt>
      <trkpt lat="44.89214" lon="-0.08303">
        <ele>55</ele>
        <time>2020-10-29T11:43:11Z</time>
      </trkpt>
      <trkpt lat="44.89219" lon="-0.08307">
        <ele>55</ele>
        <time>2020-10-29T11:43:37Z</time>
      </trkpt>
      <trkpt lat="44.89221" lon="-0.08313">
        <ele>56</ele>
        <time>2020-10-29T11:43:57Z</time>
      </trkpt>
      <trkpt lat="44.89223" lon="-0.08313">
        <ele>55</ele>
        <time>2020-10-29T11:44:31Z</time>
      </trkpt>
      <trkpt lat="44.89213" lon="-0.08307">
        <ele>55</ele>
        <time>2020-10-29T11:45:16Z</time>
      </trkpt>
      <trkpt lat="44.89211" lon="-0.08301">
        <ele>55</ele>
        <time>2020-10-29T11:45:52Z</time>
      </trkpt>
      <trkpt lat="44.89216" lon="-0.08307">
        <ele>55</ele>
        <time>2020-10-29T11:46:30Z</time>
      </trkpt>
      <trkpt lat="44.89217" lon="-0.08311">
        <ele>55</ele>
        <time>2020-10-29T11:47:16Z</time>
      </trkpt>
      <trkpt lat="44.89217" lon="-0.08307">
        <ele>55</ele>
        <time>2020-10-29T11:47:59Z</time>
      </trkpt>
      <trkpt lat="44.89218" lon="-0.0831">
        <ele>55</ele>
        <time>2020-10-29T11:48:41Z</time>
      </trkpt>
      <trkpt lat="44.89218" lon="-0.08309">
        <ele>55</ele>
        <time>2020-10-29T11:49:20Z</time>
      </trkpt>
      <trkpt lat="44.89219" lon="-0.08309">
        <ele>55</ele>
        <time>2020-10-29T11:49:50Z</time>
      </trkpt>
      <trkpt lat="44.89219" lon="-0.08305">
        <ele>55</ele>
        <time>2020-10-29T11:50:22Z</time>
      </trkpt>
      <trkpt lat="44.89217" lon="-0.08307">
        <ele>55</ele>
        <time>2020-10-29T11:50:54Z</time>
      </trkpt>
      <trkpt lat="44.8922" lon="-0.08309">
        <ele>55</ele>
        <time>2020-10-29T11:51:27Z</time>
      </trkpt>
      <trkpt lat="44.89219" lon="-0.08308">
        <ele>55</ele>
        <time>2020-10-29T11:51:56Z</time>
      </trkpt>
      <trkpt lat="44.8922" lon="-0.08306">
        <ele>55</ele>
        <time>2020-10-29T11:52:32Z</time>
      </trkpt>
      <trkpt lat="44.89218" lon="-0.08304">
        <ele>55</ele>
        <time>2020-10-29T11:53:05Z</time>
      </trkpt>
      <trkpt lat="44.89219" lon="-0.08308">
        <ele>58</ele>
        <time>2020-10-29T11:53:33Z</time>
      </trkpt>
      <trkpt lat="44.89219" lon="-0.08308">
        <ele>58</ele>
        <time>2020-10-29T11:53:34Z</time>
      </trkpt>
      <trkpt lat="44.89219" lon="-0.08304">
        <ele>52</ele>
        <time>2020-10-29T11:53:40Z</time>
      </trkpt>
      <trkpt lat="44.89219" lon="-0.08304">
        <ele>45</ele>
        <time>2020-10-29T11:53:41Z</time>
      </trkpt>
      <trkpt lat="44.89219" lon="-0.08304">
        <ele>65</ele>
        <time>2020-10-29T11:53:42Z</time>
      </trkpt>
      <trkpt lat="44.8922" lon="-0.08304">
        <ele>57</ele>
        <time>2020-10-29T11:53:44Z</time>
      </trkpt>
      <trkpt lat="44.8922" lon="-0.08304">
        <ele>57</ele>
        <time>2020-10-29T11:53:45Z</time>
      </trkpt>
      <trkpt lat="44.89216" lon="-0.08301">
        <ele>57</ele>
        <time>2020-10-29T11:53:58Z</time>
      </trkpt>
      <trkpt lat="44.8922" lon="-0.08291">
        <ele>57</ele>
        <time>2020-10-29T11:54:12Z</time>
      </trkpt>
      <trkpt lat="44.89229" lon="-0.08278">
        <ele>57</ele>
        <time>2020-10-29T11:54:30Z</time>
      </trkpt>
      <trkpt lat="44.89234" lon="-0.08271">
        <ele>58</ele>
        <time>2020-10-29T11:54:41Z</time>
      </trkpt>
      <trkpt lat="44.89246" lon="-0.08256">
        <ele>61</ele>
        <time>2020-10-29T11:54:58Z</time>
      </trkpt>
      <trkpt lat="44.89253" lon="-0.08243">
        <ele>58</ele>
        <time>2020-10-29T11:55:10Z</time>
      </trkpt>
      <trkpt lat="44.89261" lon="-0.0823">
        <ele>59</ele>
        <time>2020-10-29T11:55:22Z</time>
      </trkpt>
      <trkpt lat="44.89264" lon="-0.08227">
        <ele>59</ele>
        <time>2020-10-29T11:55:26Z</time>
      </trkpt>
      <trkpt lat="44.89274" lon="-0.08218">
        <ele>60</ele>
        <time>2020-10-29T11:55:38Z</time>
      </trkpt>
      <trkpt lat="44.89284" lon="-0.08209">
        <ele>61</ele>
        <time>2020-10-29T11:55:50Z</time>
      </trkpt>
      <trkpt lat="44.89288" lon="-0.08203">
        <ele>61</ele>
        <time>2020-10-29T11:55:57Z</time>
      </trkpt>
      <trkpt lat="44.89294" lon="-0.082">
        <ele>61</ele>
        <time>2020-10-29T11:56:01Z</time>
      </trkpt>
      <trkpt lat="44.89307" lon="-0.08186">
        <ele>62</ele>
        <time>2020-10-29T11:56:17Z</time>
      </trkpt>
      <trkpt lat="44.89308" lon="-0.08186">
        <ele>62</ele>
        <time>2020-10-29T11:56:18Z</time>
      </trkpt>
      <trkpt lat="44.89311" lon="-0.08183">
        <ele>62</ele>
        <time>2020-10-29T11:56:22Z</time>
      </trkpt>
      <trkpt lat="44.89326" lon="-0.0817">
        <ele>62</ele>
        <time>2020-10-29T11:56:38Z</time>
      </trkpt>
      <trkpt lat="44.89342" lon="-0.08155">
        <ele>63</ele>
        <time>2020-10-29T11:56:56Z</time>
      </trkpt>
      <trkpt lat="44.89356" lon="-0.08145">
        <ele>63</ele>
        <time>2020-10-29T11:57:11Z</time>
      </trkpt>
      <trkpt lat="44.89372" lon="-0.08138">
        <ele>63</ele>
        <time>2020-10-29T11:57:26Z</time>
      </trkpt>
      <trkpt lat="44.89384" lon="-0.08138">
        <ele>63</ele>
        <time>2020-10-29T11:57:38Z</time>
      </trkpt>
      <trkpt lat="44.89397" lon="-0.08142">
        <ele>64</ele>
        <time>2020-10-29T11:57:50Z</time>
      </trkpt>
      <trkpt lat="44.89399" lon="-0.08143">
        <ele>64</ele>
        <time>2020-10-29T11:57:52Z</time>
      </trkpt>
      <trkpt lat="44.89412" lon="-0.08153">
        <ele>65</ele>
        <time>2020-10-29T11:58:05Z</time>
      </trkpt>
      <trkpt lat="44.89415" lon="-0.08156">
        <ele>65</ele>
        <time>2020-10-29T11:58:10Z</time>
      </trkpt>
      <trkpt lat="44.89421" lon="-0.08162">
        <ele>65</ele>
        <time>2020-10-29T11:58:14Z</time>
      </trkpt>
      <trkpt lat="44.89422" lon="-0.08163">
        <ele>65</ele>
        <time>2020-10-29T11:58:15Z</time>
      </trkpt>
      <trkpt lat="44.89423" lon="-0.08164">
        <ele>65</ele>
        <time>2020-10-29T11:58:16Z</time>
      </trkpt>
      <trkpt lat="44.89423" lon="-0.08165">
        <ele>65</ele>
        <time>2020-10-29T11:58:17Z</time>
      </trkpt>
      <trkpt lat="44.89424" lon="-0.08165">
        <ele>63</ele>
        <time>2020-10-29T11:58:18Z</time>
      </trkpt>
      <trkpt lat="44.89425" lon="-0.08166">
        <ele>66</ele>
        <time>2020-10-29T11:58:19Z</time>
      </trkpt>
      <trkpt lat="44.89427" lon="-0.08167">
        <ele>65</ele>
        <time>2020-10-29T11:58:20Z</time>
      </trkpt>
      <trkpt lat="44.89427" lon="-0.08167">
        <ele>65</ele>
        <time>2020-10-29T11:58:21Z</time>
      </trkpt>
      <trkpt lat="44.8944" lon="-0.08171">
        <ele>64</ele>
        <time>2020-10-29T11:58:36Z</time>
      </trkpt>
      <trkpt lat="44.89459" lon="-0.08172">
        <ele>62</ele>
        <time>2020-10-29T11:58:51Z</time>
      </trkpt>
      <trkpt lat="44.89466" lon="-0.08168">
        <ele>62</ele>
        <time>2020-10-29T11:59:00Z</time>
      </trkpt>
      <trkpt lat="44.89467" lon="-0.08167">
        <ele>62</ele>
        <time>2020-10-29T11:59:01Z</time>
      </trkpt>
      <trkpt lat="44.89466" lon="-0.08159">
        <ele>62</ele>
        <time>2020-10-29T11:59:08Z</time>
      </trkpt>
      <trkpt lat="44.89465" lon="-0.08157">
        <ele>62</ele>
        <time>2020-10-29T11:59:09Z</time>
      </trkpt>
      <trkpt lat="44.8946" lon="-0.08142">
        <ele>63</ele>
        <time>2020-10-29T11:59:19Z</time>
      </trkpt>
      <trkpt lat="44.89453" lon="-0.08126">
        <ele>64</ele>
        <time>2020-10-29T11:59:33Z</time>
      </trkpt>
      <trkpt lat="44.89448" lon="-0.08115">
        <ele>65</ele>
        <time>2020-10-29T11:59:43Z</time>
      </trkpt>
      <trkpt lat="44.89444" lon="-0.08108">
        <ele>66</ele>
        <time>2020-10-29T11:59:48Z</time>
      </trkpt>
      <trkpt lat="44.89438" lon="-0.08092">
        <ele>67</ele>
        <time>2020-10-29T12:00:03Z</time>
      </trkpt>
      <trkpt lat="44.89432" lon="-0.08074">
        <ele>68</ele>
        <time>2020-10-29T12:00:17Z</time>
      </trkpt>
      <trkpt lat="44.89423" lon="-0.08063">
        <ele>69</ele>
        <time>2020-10-29T12:00:29Z</time>
      </trkpt>
      <trkpt lat="44.89418" lon="-0.08057">
        <ele>69</ele>
        <time>2020-10-29T12:00:35Z</time>
      </trkpt>
      <trkpt lat="44.89413" lon="-0.0805">
        <ele>70</ele>
        <time>2020-10-29T12:00:42Z</time>
      </trkpt>
      <trkpt lat="44.89407" lon="-0.08043">
        <ele>70</ele>
        <time>2020-10-29T12:00:49Z</time>
      </trkpt>
      <trkpt lat="44.89402" lon="-0.08037">
        <ele>71</ele>
        <time>2020-10-29T12:00:56Z</time>
      </trkpt>
      <trkpt lat="44.89391" lon="-0.08027">
        <ele>72</ele>
        <time>2020-10-29T12:01:10Z</time>
      </trkpt>
      <trkpt lat="44.89379" lon="-0.08018">
        <ele>72</ele>
        <time>2020-10-29T12:01:22Z</time>
      </trkpt>
      <trkpt lat="44.89377" lon="-0.08016">
        <ele>73</ele>
        <time>2020-10-29T12:01:26Z</time>
      </trkpt>
      <trkpt lat="44.89373" lon="-0.08012">
        <ele>73</ele>
        <time>2020-10-29T12:01:31Z</time>
      </trkpt>
      <trkpt lat="44.89367" lon="-0.08007">
        <ele>73</ele>
        <time>2020-10-29T12:01:38Z</time>
      </trkpt>
      <trkpt lat="44.89359" lon="-0.08001">
        <ele>75</ele>
        <time>2020-10-29T12:01:50Z</time>
      </trkpt>
      <trkpt lat="44.89356" lon="-0.07999">
        <ele>75</ele>
        <time>2020-10-29T12:02:00Z</time>
      </trkpt>
      <trkpt lat="44.89349" lon="-0.07996">
        <ele>76</ele>
        <time>2020-10-29T12:02:07Z</time>
      </trkpt>
      <trkpt lat="44.89342" lon="-0.0799">
        <ele>77</ele>
        <time>2020-10-29T12:02:15Z</time>
      </trkpt>
      <trkpt lat="44.89328" lon="-0.0798">
        <ele>78</ele>
        <time>2020-10-29T12:02:31Z</time>
      </trkpt>
      <trkpt lat="44.89314" lon="-0.07964">
        <ele>77</ele>
        <time>2020-10-29T12:02:50Z</time>
      </trkpt>
      <trkpt lat="44.89306" lon="-0.07957">
        <ele>77</ele>
        <time>2020-10-29T12:02:59Z</time>
      </trkpt>
      <trkpt lat="44.89297" lon="-0.07947">
        <ele>77</ele>
        <time>2020-10-29T12:03:11Z</time>
      </trkpt>
      <trkpt lat="44.89286" lon="-0.07936">
        <ele>75</ele>
        <time>2020-10-29T12:03:26Z</time>
      </trkpt>
      <trkpt lat="44.89285" lon="-0.07935">
        <ele>78</ele>
        <time>2020-10-29T12:03:27Z</time>
      </trkpt>
      <trkpt lat="44.89277" lon="-0.07924">
        <ele>76</ele>
        <time>2020-10-29T12:03:38Z</time>
      </trkpt>
      <trkpt lat="44.89265" lon="-0.07911">
        <ele>76</ele>
        <time>2020-10-29T12:03:53Z</time>
      </trkpt>
      <trkpt lat="44.89264" lon="-0.0791">
        <ele>76</ele>
        <time>2020-10-29T12:03:55Z</time>
      </trkpt>
      <trkpt lat="44.89248" lon="-0.07892">
        <ele>75</ele>
        <time>2020-10-29T12:04:11Z</time>
      </trkpt>
      <trkpt lat="44.89246" lon="-0.07888">
        <ele>75</ele>
        <time>2020-10-29T12:04:16Z</time>
      </trkpt>
      <trkpt lat="44.89237" lon="-0.07877">
        <ele>75</ele>
        <time>2020-10-29T12:04:27Z</time>
      </trkpt>
      <trkpt lat="44.89225" lon="-0.07861">
        <ele>75</ele>
        <time>2020-10-29T12:04:41Z</time>
      </trkpt>
      <trkpt lat="44.89217" lon="-0.07845">
        <ele>75</ele>
        <time>2020-10-29T12:04:56Z</time>
      </trkpt>
      <trkpt lat="44.89209" lon="-0.07832">
        <ele>75</ele>
        <time>2020-10-29T12:05:08Z</time>
      </trkpt>
      <trkpt lat="44.89201" lon="-0.07814">
        <ele>75</ele>
        <time>2020-10-29T12:05:21Z</time>
      </trkpt>
      <trkpt lat="44.892" lon="-0.07811">
        <ele>77</ele>
        <time>2020-10-29T12:05:24Z</time>
      </trkpt>
      <trkpt lat="44.89193" lon="-0.07798">
        <ele>77</ele>
        <time>2020-10-29T12:05:35Z</time>
      </trkpt>
      <trkpt lat="44.89186" lon="-0.07785">
        <ele>78</ele>
        <time>2020-10-29T12:05:45Z</time>
      </trkpt>
      <trkpt lat="44.89175" lon="-0.07774">
        <ele>78</ele>
        <time>2020-10-29T12:05:57Z</time>
      </trkpt>
      <trkpt lat="44.8917" lon="-0.07771">
        <ele>79</ele>
        <time>2020-10-29T12:06:04Z</time>
      </trkpt>
      <trkpt lat="44.89157" lon="-0.07768">
        <ele>80</ele>
        <time>2020-10-29T12:06:16Z</time>
      </trkpt>
      <trkpt lat="44.89146" lon="-0.07765">
        <ele>80</ele>
        <time>2020-10-29T12:06:27Z</time>
      </trkpt>
      <trkpt lat="44.89143" lon="-0.07764">
        <ele>80</ele>
        <time>2020-10-29T12:06:30Z</time>
      </trkpt>
      <trkpt lat="44.89137" lon="-0.07762">
        <ele>81</ele>
        <time>2020-10-29T12:06:37Z</time>
      </trkpt>
      <trkpt lat="44.89124" lon="-0.07753">
        <ele>81</ele>
        <time>2020-10-29T12:06:51Z</time>
      </trkpt>
      <trkpt lat="44.8911" lon="-0.0774">
        <ele>81</ele>
        <time>2020-10-29T12:07:06Z</time>
      </trkpt>
      <trkpt lat="44.89108" lon="-0.07736">
        <ele>81</ele>
        <time>2020-10-29T12:07:10Z</time>
      </trkpt>
      <trkpt lat="44.89105" lon="-0.07726">
        <ele>81</ele>
        <time>2020-10-29T12:07:15Z</time>
      </trkpt>
      <trkpt lat="44.89097" lon="-0.07702">
        <ele>81</ele>
        <time>2020-10-29T12:07:28Z</time>
      </trkpt>
      <trkpt lat="44.89094" lon="-0.07684">
        <ele>81</ele>
        <time>2020-10-29T12:07:44Z</time>
      </trkpt>
      <trkpt lat="44.89092" lon="-0.0766">
        <ele>81</ele>
        <time>2020-10-29T12:07:58Z</time>
      </trkpt>
      <trkpt lat="44.89088" lon="-0.07639">
        <ele>81</ele>
        <time>2020-10-29T12:08:10Z</time>
      </trkpt>
      <trkpt lat="44.89086" lon="-0.07624">
        <ele>82</ele>
        <time>2020-10-29T12:08:22Z</time>
      </trkpt>
      <trkpt lat="44.89085" lon="-0.07616">
        <ele>82</ele>
        <time>2020-10-29T12:08:29Z</time>
      </trkpt>
      <trkpt lat="44.89085" lon="-0.07611">
        <ele>82</ele>
        <time>2020-10-29T12:08:32Z</time>
      </trkpt>
      <trkpt lat="44.89085" lon="-0.07596">
        <ele>83</ele>
        <time>2020-10-29T12:08:47Z</time>
      </trkpt>
      <trkpt lat="44.89085" lon="-0.07595">
        <ele>83</ele>
        <time>2020-10-29T12:08:48Z</time>
      </trkpt>
      <trkpt lat="44.89087" lon="-0.07579">
        <ele>84</ele>
        <time>2020-10-29T12:09:00Z</time>
      </trkpt>
      <trkpt lat="44.89088" lon="-0.07558">
        <ele>84</ele>
        <time>2020-10-29T12:09:15Z</time>
      </trkpt>
      <trkpt lat="44.89088" lon="-0.07538">
        <ele>84</ele>
        <time>2020-10-29T12:09:28Z</time>
      </trkpt>
      <trkpt lat="44.89088" lon="-0.07514">
        <ele>85</ele>
        <time>2020-10-29T12:09:43Z</time>
      </trkpt>
      <trkpt lat="44.89088" lon="-0.07496">
        <ele>86</ele>
        <time>2020-10-29T12:09:55Z</time>
      </trkpt>
      <trkpt lat="44.89088" lon="-0.07486">
        <ele>86</ele>
        <time>2020-10-29T12:10:00Z</time>
      </trkpt>
      <trkpt lat="44.89082" lon="-0.07463">
        <ele>87</ele>
        <time>2020-10-29T12:10:15Z</time>
      </trkpt>
      <trkpt lat="44.89077" lon="-0.07455">
        <ele>87</ele>
        <time>2020-10-29T12:10:22Z</time>
      </trkpt>
      <trkpt lat="44.8907" lon="-0.07437">
        <ele>89</ele>
        <time>2020-10-29T12:10:38Z</time>
      </trkpt>
      <trkpt lat="44.89069" lon="-0.07433">
        <ele>89</ele>
        <time>2020-10-29T12:10:40Z</time>
      </trkpt>
      <trkpt lat="44.89067" lon="-0.07419">
        <ele>90</ele>
        <time>2020-10-29T12:10:46Z</time>
      </trkpt>
      <trkpt lat="44.89064" lon="-0.07412">
        <ele>90</ele>
        <time>2020-10-29T12:10:53Z</time>
      </trkpt>
      <trkpt lat="44.89062" lon="-0.0739">
        <ele>90</ele>
        <time>2020-10-29T12:11:06Z</time>
      </trkpt>
      <trkpt lat="44.89063" lon="-0.07368">
        <ele>91</ele>
        <time>2020-10-29T12:11:18Z</time>
      </trkpt>
      <trkpt lat="44.89064" lon="-0.07362">
        <ele>91</ele>
        <time>2020-10-29T12:11:24Z</time>
      </trkpt>
      <trkpt lat="44.89067" lon="-0.07341">
        <ele>91</ele>
        <time>2020-10-29T12:11:38Z</time>
      </trkpt>
      <trkpt lat="44.89067" lon="-0.0734">
        <ele>91</ele>
        <time>2020-10-29T12:11:40Z</time>
      </trkpt>
      <trkpt lat="44.89066" lon="-0.07332">
        <ele>91</ele>
        <time>2020-10-29T12:11:44Z</time>
      </trkpt>
      <trkpt lat="44.89068" lon="-0.07312">
        <ele>91</ele>
        <time>2020-10-29T12:11:57Z</time>
      </trkpt>
      <trkpt lat="44.8907" lon="-0.07299">
        <ele>91</ele>
        <time>2020-10-29T12:12:02Z</time>
      </trkpt>
      <trkpt lat="44.8907" lon="-0.07282">
        <ele>91</ele>
        <time>2020-10-29T12:12:17Z</time>
      </trkpt>
      <trkpt lat="44.89076" lon="-0.07251">
        <ele>91</ele>
        <time>2020-10-29T12:12:30Z</time>
      </trkpt>
      <trkpt lat="44.89079" lon="-0.07233">
        <ele>91</ele>
        <time>2020-10-29T12:12:45Z</time>
      </trkpt>
      <trkpt lat="44.89087" lon="-0.07213">
        <ele>91</ele>
        <time>2020-10-29T12:13:00Z</time>
      </trkpt>
      <trkpt lat="44.89088" lon="-0.07208">
        <ele>91</ele>
        <time>2020-10-29T12:13:04Z</time>
      </trkpt>
      <trkpt lat="44.89094" lon="-0.07193">
        <ele>90</ele>
        <time>2020-10-29T12:13:18Z</time>
      </trkpt>
      <trkpt lat="44.89104" lon="-0.07176">
        <ele>89</ele>
        <time>2020-10-29T12:13:29Z</time>
      </trkpt>
      <trkpt lat="44.89114" lon="-0.07146">
        <ele>87</ele>
        <time>2020-10-29T12:13:45Z</time>
      </trkpt>
      <trkpt lat="44.89125" lon="-0.07118">
        <ele>85</ele>
        <time>2020-10-29T12:13:59Z</time>
      </trkpt>
      <trkpt lat="44.8913" lon="-0.07105">
        <ele>83</ele>
        <time>2020-10-29T12:14:10Z</time>
      </trkpt>
      <trkpt lat="44.89131" lon="-0.07099">
        <ele>83</ele>
        <time>2020-10-29T12:14:14Z</time>
      </trkpt>
      <trkpt lat="44.89136" lon="-0.07084">
        <ele>82</ele>
        <time>2020-10-29T12:14:26Z</time>
      </trkpt>
      <trkpt lat="44.89134" lon="-0.07084">
        <ele>82</ele>
        <time>2020-10-29T12:14:41Z</time>
      </trkpt>
      <trkpt lat="44.89132" lon="-0.07082">
        <ele>81</ele>
        <time>2020-10-29T12:14:58Z</time>
      </trkpt>
      <trkpt lat="44.89138" lon="-0.07065">
        <ele>80</ele>
        <time>2020-10-29T12:15:17Z</time>
      </trkpt>
      <trkpt lat="44.89141" lon="-0.07055">
        <ele>79</ele>
        <time>2020-10-29T12:15:29Z</time>
      </trkpt>
      <trkpt lat="44.89133" lon="-0.07032">
        <ele>76</ele>
        <time>2020-10-29T12:15:48Z</time>
      </trkpt>
      <trkpt lat="44.89128" lon="-0.07026">
        <ele>76</ele>
        <time>2020-10-29T12:15:54Z</time>
      </trkpt>
      <trkpt lat="44.89122" lon="-0.07017">
        <ele>76</ele>
        <time>2020-10-29T12:16:03Z</time>
      </trkpt>
      <trkpt lat="44.89107" lon="-0.06999">
        <ele>75</ele>
        <time>2020-10-29T12:16:22Z</time>
      </trkpt>
      <trkpt lat="44.89095" lon="-0.06982">
        <ele>74</ele>
        <time>2020-10-29T12:16:37Z</time>
      </trkpt>
      <trkpt lat="44.89087" lon="-0.06969">
        <ele>74</ele>
        <time>2020-10-29T12:16:49Z</time>
      </trkpt>
      <trkpt lat="44.89081" lon="-0.06962">
        <ele>74</ele>
        <time>2020-10-29T12:16:59Z</time>
      </trkpt>
      <trkpt lat="44.89077" lon="-0.06959">
        <ele>74</ele>
        <time>2020-10-29T12:17:03Z</time>
      </trkpt>
      <trkpt lat="44.89065" lon="-0.06945">
        <ele>74</ele>
        <time>2020-10-29T12:17:20Z</time>
      </trkpt>
      <trkpt lat="44.89063" lon="-0.06943">
        <ele>74</ele>
        <time>2020-10-29T12:17:23Z</time>
      </trkpt>
      <trkpt lat="44.89056" lon="-0.06937">
        <ele>74</ele>
        <time>2020-10-29T12:17:31Z</time>
      </trkpt>
      <trkpt lat="44.89043" lon="-0.06924">
        <ele>74</ele>
        <time>2020-10-29T12:17:45Z</time>
      </trkpt>
      <trkpt lat="44.89032" lon="-0.06913">
        <ele>74</ele>
        <time>2020-10-29T12:17:57Z</time>
      </trkpt>
      <trkpt lat="44.89029" lon="-0.06908">
        <ele>74</ele>
        <time>2020-10-29T12:18:02Z</time>
      </trkpt>
      <trkpt lat="44.89023" lon="-0.069">
        <ele>75</ele>
        <time>2020-10-29T12:18:10Z</time>
      </trkpt>
      <trkpt lat="44.89012" lon="-0.0689">
        <ele>76</ele>
        <time>2020-10-29T12:18:22Z</time>
      </trkpt>
      <trkpt lat="44.88998" lon="-0.06881">
        <ele>76</ele>
        <time>2020-10-29T12:18:36Z</time>
      </trkpt>
      <trkpt lat="44.88983" lon="-0.06864">
        <ele>76</ele>
        <time>2020-10-29T12:18:51Z</time>
      </trkpt>
      <trkpt lat="44.88973" lon="-0.06851">
        <ele>76</ele>
        <time>2020-10-29T12:19:04Z</time>
      </trkpt>
      <trkpt lat="44.88964" lon="-0.06832">
        <ele>74</ele>
        <time>2020-10-29T12:19:20Z</time>
      </trkpt>
      <trkpt lat="44.88963" lon="-0.0683">
        <ele>74</ele>
        <time>2020-10-29T12:19:21Z</time>
      </trkpt>
      <trkpt lat="44.88948" lon="-0.06806">
        <ele>73</ele>
        <time>2020-10-29T12:19:39Z</time>
      </trkpt>
      <trkpt lat="44.88935" lon="-0.06789">
        <ele>72</ele>
        <time>2020-10-29T12:19:55Z</time>
      </trkpt>
      <trkpt lat="44.88924" lon="-0.06785">
        <ele>72</ele>
        <time>2020-10-29T12:20:05Z</time>
      </trkpt>
      <trkpt lat="44.88918" lon="-0.0678">
        <ele>72</ele>
        <time>2020-10-29T12:20:10Z</time>
      </trkpt>
      <trkpt lat="44.88909" lon="-0.06779">
        <ele>72</ele>
        <time>2020-10-29T12:20:24Z</time>
      </trkpt>
      <trkpt lat="44.88907" lon="-0.06778">
        <ele>72</ele>
        <time>2020-10-29T12:20:32Z</time>
      </trkpt>
      <trkpt lat="44.88893" lon="-0.06774">
        <ele>72</ele>
        <time>2020-10-29T12:20:44Z</time>
      </trkpt>
      <trkpt lat="44.88873" lon="-0.06767">
        <ele>73</ele>
        <time>2020-10-29T12:21:03Z</time>
      </trkpt>
      <trkpt lat="44.88864" lon="-0.06764">
        <ele>74</ele>
        <time>2020-10-29T12:21:19Z</time>
      </trkpt>
      <trkpt lat="44.88862" lon="-0.06764">
        <ele>75</ele>
        <time>2020-10-29T12:21:34Z</time>
      </trkpt>
      <trkpt lat="44.88855" lon="-0.06762">
        <ele>73</ele>
        <time>2020-10-29T12:21:49Z</time>
      </trkpt>
      <trkpt lat="44.88852" lon="-0.06761">
        <ele>73</ele>
        <time>2020-10-29T12:21:54Z</time>
      </trkpt>
      <trkpt lat="44.88851" lon="-0.0676">
        <ele>73</ele>
        <time>2020-10-29T12:21:55Z</time>
      </trkpt>
      <trkpt lat="44.88848" lon="-0.06757">
        <ele>73</ele>
        <time>2020-10-29T12:21:58Z</time>
      </trkpt>
      <trkpt lat="44.88843" lon="-0.06756">
        <ele>73</ele>
        <time>2020-10-29T12:22:04Z</time>
      </trkpt>
      <trkpt lat="44.88841" lon="-0.06756">
        <ele>73</ele>
        <time>2020-10-29T12:22:05Z</time>
      </trkpt>
      <trkpt lat="44.88826" lon="-0.06753">
        <ele>72</ele>
        <time>2020-10-29T12:22:18Z</time>
      </trkpt>
      <trkpt lat="44.88814" lon="-0.06756">
        <ele>71</ele>
        <time>2020-10-29T12:22:34Z</time>
      </trkpt>
      <trkpt lat="44.88804" lon="-0.06756">
        <ele>70</ele>
        <time>2020-10-29T12:22:40Z</time>
      </trkpt>
      <trkpt lat="44.88802" lon="-0.06755">
        <ele>70</ele>
        <time>2020-10-29T12:22:41Z</time>
      </trkpt>
      <trkpt lat="44.88801" lon="-0.06755">
        <ele>70</ele>
        <time>2020-10-29T12:22:42Z</time>
      </trkpt>
      <trkpt lat="44.888" lon="-0.06756">
        <ele>70</ele>
        <time>2020-10-29T12:22:43Z</time>
      </trkpt>
      <trkpt lat="44.88794" lon="-0.06757">
        <ele>70</ele>
        <time>2020-10-29T12:22:52Z</time>
      </trkpt>
      <trkpt lat="44.88775" lon="-0.06756">
        <ele>69</ele>
        <time>2020-10-29T12:23:04Z</time>
      </trkpt>
      <trkpt lat="44.88765" lon="-0.06754">
        <ele>68</ele>
        <time>2020-10-29T12:23:19Z</time>
      </trkpt>
      <trkpt lat="44.88762" lon="-0.06753">
        <ele>67</ele>
        <time>2020-10-29T12:23:36Z</time>
      </trkpt>
      <trkpt lat="44.88755" lon="-0.06747">
        <ele>67</ele>
        <time>2020-10-29T12:23:45Z</time>
      </trkpt>
      <trkpt lat="44.88754" lon="-0.06746">
        <ele>67</ele>
        <time>2020-10-29T12:23:46Z</time>
      </trkpt>
      <trkpt lat="44.88743" lon="-0.06734">
        <ele>66</ele>
        <time>2020-10-29T12:24:01Z</time>
      </trkpt>
      <trkpt lat="44.88737" lon="-0.06727">
        <ele>66</ele>
        <time>2020-10-29T12:24:08Z</time>
      </trkpt>
      <trkpt lat="44.88714" lon="-0.06702">
        <ele>65</ele>
        <time>2020-10-29T12:24:25Z</time>
      </trkpt>
      <trkpt lat="44.887" lon="-0.06683">
        <ele>64</ele>
        <time>2020-10-29T12:24:40Z</time>
      </trkpt>
      <trkpt lat="44.88685" lon="-0.06669">
        <ele>63</ele>
        <time>2020-10-29T12:24:55Z</time>
      </trkpt>
      <trkpt lat="44.88676" lon="-0.06668">
        <ele>62</ele>
        <time>2020-10-29T12:25:08Z</time>
      </trkpt>
      <trkpt lat="44.88666" lon="-0.0667">
        <ele>61</ele>
        <time>2020-10-29T12:25:18Z</time>
      </trkpt>
      <trkpt lat="44.88664" lon="-0.06694">
        <ele>59</ele>
        <time>2020-10-29T12:25:32Z</time>
      </trkpt>
      <trkpt lat="44.88667" lon="-0.06708">
        <ele>56</ele>
        <time>2020-10-29T12:25:48Z</time>
      </trkpt>
      <trkpt lat="44.88668" lon="-0.06728">
        <ele>55</ele>
        <time>2020-10-29T12:26:00Z</time>
      </trkpt>
      <trkpt lat="44.88667" lon="-0.06766">
        <ele>53</ele>
        <time>2020-10-29T12:26:15Z</time>
      </trkpt>
      <trkpt lat="44.88661" lon="-0.06806">
        <ele>53</ele>
        <time>2020-10-29T12:26:32Z</time>
      </trkpt>
      <trkpt lat="44.8866" lon="-0.06833">
        <ele>52</ele>
        <time>2020-10-29T12:26:48Z</time>
      </trkpt>
      <trkpt lat="44.88663" lon="-0.06849">
        <ele>52</ele>
        <time>2020-10-29T12:27:03Z</time>
      </trkpt>
      <trkpt lat="44.88663" lon="-0.06873">
        <ele>52</ele>
        <time>2020-10-29T12:27:21Z</time>
      </trkpt>
      <trkpt lat="44.88656" lon="-0.06914">
        <ele>51</ele>
        <time>2020-10-29T12:27:38Z</time>
      </trkpt>
      <trkpt lat="44.88643" lon="-0.0695">
        <ele>51</ele>
        <time>2020-10-29T12:27:52Z</time>
      </trkpt>
      <trkpt lat="44.88635" lon="-0.06973">
        <ele>51</ele>
        <time>2020-10-29T12:28:05Z</time>
      </trkpt>
      <trkpt lat="44.88639" lon="-0.06984">
        <ele>51</ele>
        <time>2020-10-29T12:28:21Z</time>
      </trkpt>
      <trkpt lat="44.88641" lon="-0.07002">
        <ele>51</ele>
        <time>2020-10-29T12:28:33Z</time>
      </trkpt>
      <trkpt lat="44.88642" lon="-0.07027">
        <ele>51</ele>
        <time>2020-10-29T12:28:47Z</time>
      </trkpt>
      <trkpt lat="44.88643" lon="-0.07051">
        <ele>52</ele>
        <time>2020-10-29T12:29:01Z</time>
      </trkpt>
      <trkpt lat="44.88641" lon="-0.07059">
        <ele>54</ele>
        <time>2020-10-29T12:29:13Z</time>
      </trkpt>
      <trkpt lat="44.88641" lon="-0.0706">
        <ele>53</ele>
        <time>2020-10-29T12:29:15Z</time>
      </trkpt>
      <trkpt lat="44.8864" lon="-0.07061">
        <ele>53</ele>
        <time>2020-10-29T12:29:17Z</time>
      </trkpt>
      <trkpt lat="44.88639" lon="-0.07062">
        <ele>53</ele>
        <time>2020-10-29T12:29:18Z</time>
      </trkpt>
      <trkpt lat="44.88637" lon="-0.07062">
        <ele>53</ele>
        <time>2020-10-29T12:29:19Z</time>
      </trkpt>
      <trkpt lat="44.88617" lon="-0.07076">
        <ele>51</ele>
        <time>2020-10-29T12:29:37Z</time>
      </trkpt>
      <trkpt lat="44.8861" lon="-0.07089">
        <ele>50</ele>
        <time>2020-10-29T12:29:54Z</time>
      </trkpt>
      <trkpt lat="44.88603" lon="-0.07105">
        <ele>49</ele>
        <time>2020-10-29T12:30:11Z</time>
      </trkpt>
      <trkpt lat="44.88598" lon="-0.07136">
        <ele>47</ele>
        <time>2020-10-29T12:30:29Z</time>
      </trkpt>
      <trkpt lat="44.88598" lon="-0.07143">
        <ele>47</ele>
        <time>2020-10-29T12:30:33Z</time>
      </trkpt>
      <trkpt lat="44.88588" lon="-0.07183">
        <ele>46</ele>
        <time>2020-10-29T12:30:46Z</time>
      </trkpt>
      <trkpt lat="44.88578" lon="-0.07209">
        <ele>45</ele>
        <time>2020-10-29T12:31:00Z</time>
      </trkpt>
      <trkpt lat="44.8857" lon="-0.07226">
        <ele>45</ele>
        <time>2020-10-29T12:31:14Z</time>
      </trkpt>
      <trkpt lat="44.88567" lon="-0.07228">
        <ele>40</ele>
        <time>2020-10-29T12:31:16Z</time>
      </trkpt>
      <trkpt lat="44.88565" lon="-0.0723">
        <ele>53</ele>
        <time>2020-10-29T12:31:18Z</time>
      </trkpt>
      <trkpt lat="44.88564" lon="-0.07231">
        <ele>47</ele>
        <time>2020-10-29T12:31:19Z</time>
      </trkpt>
      <trkpt lat="44.88562" lon="-0.07233">
        <ele>44</ele>
        <time>2020-10-29T12:31:21Z</time>
      </trkpt>
      <trkpt lat="44.88548" lon="-0.07248">
        <ele>43</ele>
        <time>2020-10-29T12:31:40Z</time>
      </trkpt>
      <trkpt lat="44.88544" lon="-0.0725">
        <ele>43</ele>
        <time>2020-10-29T12:31:56Z</time>
      </trkpt>
      <trkpt lat="44.88542" lon="-0.0725">
        <ele>43</ele>
        <time>2020-10-29T12:31:58Z</time>
      </trkpt>
      <trkpt lat="44.88541" lon="-0.07251">
        <ele>43</ele>
        <time>2020-10-29T12:31:59Z</time>
      </trkpt>
      <trkpt lat="44.8854" lon="-0.07251">
        <ele>43</ele>
        <time>2020-10-29T12:32:00Z</time>
      </trkpt>
      <trkpt lat="44.88539" lon="-0.07252">
        <ele>43</ele>
        <time>2020-10-29T12:32:01Z</time>
      </trkpt>
      <trkpt lat="44.88538" lon="-0.07253">
        <ele>43</ele>
        <time>2020-10-29T12:32:02Z</time>
      </trkpt>
      <trkpt lat="44.88537" lon="-0.07254">
        <ele>43</ele>
        <time>2020-10-29T12:32:03Z</time>
      </trkpt>
      <trkpt lat="44.88515" lon="-0.07273">
        <ele>43</ele>
        <time>2020-10-29T12:32:24Z</time>
      </trkpt>
      <trkpt lat="44.88497" lon="-0.07296">
        <ele>43</ele>
        <time>2020-10-29T12:32:44Z</time>
      </trkpt>
      <trkpt lat="44.88484" lon="-0.07322">
        <ele>45</ele>
        <time>2020-10-29T12:33:04Z</time>
      </trkpt>
      <trkpt lat="44.88478" lon="-0.07334">
        <ele>41</ele>
        <time>2020-10-29T12:33:13Z</time>
      </trkpt>
      <trkpt lat="44.88465" lon="-0.07359">
        <ele>40</ele>
        <time>2020-10-29T12:33:31Z</time>
      </trkpt>
      <trkpt lat="44.88462" lon="-0.07364">
        <ele>44</ele>
        <time>2020-10-29T12:33:34Z</time>
      </trkpt>
      <trkpt lat="44.8846" lon="-0.07369">
        <ele>41</ele>
        <time>2020-10-29T12:33:37Z</time>
      </trkpt>
      <trkpt lat="44.88442" lon="-0.07403">
        <ele>41</ele>
        <time>2020-10-29T12:34:02Z</time>
      </trkpt>
      <trkpt lat="44.88427" lon="-0.07431">
        <ele>41</ele>
        <time>2020-10-29T12:34:22Z</time>
      </trkpt>
      <trkpt lat="44.88419" lon="-0.07445">
        <ele>41</ele>
        <time>2020-10-29T12:34:35Z</time>
      </trkpt>
      <trkpt lat="44.88406" lon="-0.07474">
        <ele>41</ele>
        <time>2020-10-29T12:34:53Z</time>
      </trkpt>
      <trkpt lat="44.88399" lon="-0.07502">
        <ele>41</ele>
        <time>2020-10-29T12:35:11Z</time>
      </trkpt>
      <trkpt lat="44.884" lon="-0.07526">
        <ele>42</ele>
        <time>2020-10-29T12:35:30Z</time>
      </trkpt>
      <trkpt lat="44.88407" lon="-0.07564">
        <ele>43</ele>
        <time>2020-10-29T12:35:50Z</time>
      </trkpt>
      <trkpt lat="44.88415" lon="-0.07591">
        <ele>43</ele>
        <time>2020-10-29T12:36:09Z</time>
      </trkpt>
      <trkpt lat="44.88422" lon="-0.07615">
        <ele>44</ele>
        <time>2020-10-29T12:36:25Z</time>
      </trkpt>
      <trkpt lat="44.88426" lon="-0.07624">
        <ele>44</ele>
        <time>2020-10-29T12:36:33Z</time>
      </trkpt>
      <trkpt lat="44.88426" lon="-0.07626">
        <ele>44</ele>
        <time>2020-10-29T12:36:34Z</time>
      </trkpt>
      <trkpt lat="44.88427" lon="-0.07628">
        <ele>44</ele>
        <time>2020-10-29T12:36:35Z</time>
      </trkpt>
      <trkpt lat="44.88427" lon="-0.0763">
        <ele>44</ele>
        <time>2020-10-29T12:36:36Z</time>
      </trkpt>
      <trkpt lat="44.88428" lon="-0.07632">
        <ele>45</ele>
        <time>2020-10-29T12:36:37Z</time>
      </trkpt>
      <trkpt lat="44.88434" lon="-0.07653">
        <ele>45</ele>
        <time>2020-10-29T12:36:51Z</time>
      </trkpt>
      <trkpt lat="44.8844" lon="-0.07675">
        <ele>46</ele>
        <time>2020-10-29T12:37:07Z</time>
      </trkpt>
      <trkpt lat="44.88445" lon="-0.07698">
        <ele>46</ele>
        <time>2020-10-29T12:37:19Z</time>
      </trkpt>
      <trkpt lat="44.88448" lon="-0.07719">
        <ele>46</ele>
        <time>2020-10-29T12:37:36Z</time>
      </trkpt>
      <trkpt lat="44.88451" lon="-0.07741">
        <ele>47</ele>
        <time>2020-10-29T12:37:50Z</time>
      </trkpt>
      <trkpt lat="44.88447" lon="-0.07765">
        <ele>47</ele>
        <time>2020-10-29T12:38:08Z</time>
      </trkpt>
      <trkpt lat="44.88446" lon="-0.07799">
        <ele>47</ele>
        <time>2020-10-29T12:38:23Z</time>
      </trkpt>
      <trkpt lat="44.88448" lon="-0.07828">
        <ele>47</ele>
        <time>2020-10-29T12:38:39Z</time>
      </trkpt>
      <trkpt lat="44.88449" lon="-0.07842">
        <ele>47</ele>
        <time>2020-10-29T12:38:54Z</time>
      </trkpt>
      <trkpt lat="44.88446" lon="-0.07852">
        <ele>46</ele>
        <time>2020-10-29T12:39:07Z</time>
      </trkpt>
      <trkpt lat="44.88446" lon="-0.07855">
        <ele>46</ele>
        <time>2020-10-29T12:39:08Z</time>
      </trkpt>
      <trkpt lat="44.88445" lon="-0.07886">
        <ele>46</ele>
        <time>2020-10-29T12:39:22Z</time>
      </trkpt>
      <trkpt lat="44.88449" lon="-0.07898">
        <ele>46</ele>
        <time>2020-10-29T12:39:35Z</time>
      </trkpt>
      <trkpt lat="44.88454" lon="-0.07916">
        <ele>47</ele>
        <time>2020-10-29T12:39:48Z</time>
      </trkpt>
      <trkpt lat="44.88454" lon="-0.07917">
        <ele>47</ele>
        <time>2020-10-29T12:39:49Z</time>
      </trkpt>
      <trkpt lat="44.88455" lon="-0.0792">
        <ele>47</ele>
        <time>2020-10-29T12:39:50Z</time>
      </trkpt>
      <trkpt lat="44.88456" lon="-0.07926">
        <ele>48</ele>
        <time>2020-10-29T12:39:55Z</time>
      </trkpt>
      <trkpt lat="44.88456" lon="-0.07928">
        <ele>46</ele>
        <time>2020-10-29T12:39:57Z</time>
      </trkpt>
      <trkpt lat="44.88457" lon="-0.07937">
        <ele>47</ele>
        <time>2020-10-29T12:40:11Z</time>
      </trkpt>
      <trkpt lat="44.88457" lon="-0.07938">
        <ele>47</ele>
        <time>2020-10-29T12:40:12Z</time>
      </trkpt>
      <trkpt lat="44.88459" lon="-0.07951">
        <ele>47</ele>
        <time>2020-10-29T12:40:22Z</time>
      </trkpt>
      <trkpt lat="44.88459" lon="-0.07953">
        <ele>47</ele>
        <time>2020-10-29T12:40:23Z</time>
      </trkpt>
      <trkpt lat="44.88458" lon="-0.07973">
        <ele>48</ele>
        <time>2020-10-29T12:40:39Z</time>
      </trkpt>
      <trkpt lat="44.88457" lon="-0.07982">
        <ele>48</ele>
        <time>2020-10-29T12:40:46Z</time>
      </trkpt>
      <trkpt lat="44.88456" lon="-0.07984">
        <ele>48</ele>
        <time>2020-10-29T12:40:47Z</time>
      </trkpt>
      <trkpt lat="44.88456" lon="-0.07985">
        <ele>48</ele>
        <time>2020-10-29T12:40:48Z</time>
      </trkpt>
      <trkpt lat="44.88455" lon="-0.07987">
        <ele>48</ele>
        <time>2020-10-29T12:40:49Z</time>
      </trkpt>
      <trkpt lat="44.88454" lon="-0.07988">
        <ele>48</ele>
        <time>2020-10-29T12:40:50Z</time>
      </trkpt>
      <trkpt lat="44.88443" lon="-0.08018">
        <ele>48</ele>
        <time>2020-10-29T12:41:10Z</time>
      </trkpt>
      <trkpt lat="44.88434" lon="-0.0804">
        <ele>48</ele>
        <time>2020-10-29T12:41:28Z</time>
      </trkpt>
      <trkpt lat="44.88433" lon="-0.08041">
        <ele>48</ele>
        <time>2020-10-29T12:41:29Z</time>
      </trkpt>
      <trkpt lat="44.88418" lon="-0.08063">
        <ele>47</ele>
        <time>2020-10-29T12:41:45Z</time>
      </trkpt>
      <trkpt lat="44.88401" lon="-0.08078">
        <ele>46</ele>
        <time>2020-10-29T12:42:04Z</time>
      </trkpt>
      <trkpt lat="44.88387" lon="-0.08078">
        <ele>46</ele>
        <time>2020-10-29T12:42:17Z</time>
      </trkpt>
      <trkpt lat="44.88377" lon="-0.08079">
        <ele>45</ele>
        <time>2020-10-29T12:42:31Z</time>
      </trkpt>
      <trkpt lat="44.8838" lon="-0.08079">
        <ele>46</ele>
        <time>2020-10-29T12:42:34Z</time>
      </trkpt>
      <trkpt lat="44.88385" lon="-0.08081">
        <ele>46</ele>
        <time>2020-10-29T12:42:39Z</time>
      </trkpt>
      <trkpt lat="44.88386" lon="-0.0808">
        <ele>46</ele>
        <time>2020-10-29T12:42:40Z</time>
      </trkpt>
      <trkpt lat="44.88386" lon="-0.08086">
        <ele>46</ele>
        <time>2020-10-29T12:42:52Z</time>
      </trkpt>
      <trkpt lat="44.88387" lon="-0.08092">
        <ele>46</ele>
        <time>2020-10-29T12:43:04Z</time>
      </trkpt>
      <trkpt lat="44.88386" lon="-0.08093">
        <ele>46</ele>
        <time>2020-10-29T12:43:05Z</time>
      </trkpt>
      <trkpt lat="44.88385" lon="-0.08094">
        <ele>47</ele>
        <time>2020-10-29T12:43:06Z</time>
      </trkpt>
      <trkpt lat="44.88383" lon="-0.08095">
        <ele>47</ele>
        <time>2020-10-29T12:43:07Z</time>
      </trkpt>
      <trkpt lat="44.88383" lon="-0.08097">
        <ele>47</ele>
        <time>2020-10-29T12:43:08Z</time>
      </trkpt>
      <trkpt lat="44.88376" lon="-0.0811">
        <ele>47</ele>
        <time>2020-10-29T12:43:19Z</time>
      </trkpt>
      <trkpt lat="44.88369" lon="-0.08126">
        <ele>47</ele>
        <time>2020-10-29T12:43:32Z</time>
      </trkpt>
      <trkpt lat="44.88359" lon="-0.08148">
        <ele>47</ele>
        <time>2020-10-29T12:43:48Z</time>
      </trkpt>
      <trkpt lat="44.88351" lon="-0.08165">
        <ele>48</ele>
        <time>2020-10-29T12:44:02Z</time>
      </trkpt>
      <trkpt lat="44.88343" lon="-0.08185">
        <ele>49</ele>
        <time>2020-10-29T12:44:17Z</time>
      </trkpt>
      <trkpt lat="44.8834" lon="-0.08194">
        <ele>49</ele>
        <time>2020-10-29T12:44:25Z</time>
      </trkpt>
      <trkpt lat="44.88331" lon="-0.08211">
        <ele>50</ele>
        <time>2020-10-29T12:44:38Z</time>
      </trkpt>
      <trkpt lat="44.8833" lon="-0.08213">
        <ele>50</ele>
        <time>2020-10-29T12:44:41Z</time>
      </trkpt>
      <trkpt lat="44.88327" lon="-0.08222">
        <ele>50</ele>
        <time>2020-10-29T12:44:48Z</time>
      </trkpt>
      <trkpt lat="44.88337" lon="-0.08239">
        <ele>51</ele>
        <time>2020-10-29T12:45:03Z</time>
      </trkpt>
      <trkpt lat="44.88345" lon="-0.0825">
        <ele>52</ele>
        <time>2020-10-29T12:45:14Z</time>
      </trkpt>
      <trkpt lat="44.88352" lon="-0.08261">
        <ele>53</ele>
        <time>2020-10-29T12:45:28Z</time>
      </trkpt>
      <trkpt lat="44.88351" lon="-0.08263">
        <ele>53</ele>
        <time>2020-10-29T12:45:30Z</time>
      </trkpt>
      <trkpt lat="44.88349" lon="-0.08265">
        <ele>54</ele>
        <time>2020-10-29T12:45:33Z</time>
      </trkpt>
      <trkpt lat="44.88339" lon="-0.08276">
        <ele>54</ele>
        <time>2020-10-29T12:45:47Z</time>
      </trkpt>
      <trkpt lat="44.88328" lon="-0.08288">
        <ele>54</ele>
        <time>2020-10-29T12:45:59Z</time>
      </trkpt>
      <trkpt lat="44.8832" lon="-0.08299">
        <ele>55</ele>
        <time>2020-10-29T12:46:10Z</time>
      </trkpt>
      <trkpt lat="44.88313" lon="-0.0831">
        <ele>54</ele>
        <time>2020-10-29T12:46:21Z</time>
      </trkpt>
      <trkpt lat="44.88312" lon="-0.08311">
        <ele>48</ele>
        <time>2020-10-29T12:46:22Z</time>
      </trkpt>
      <trkpt lat="44.88311" lon="-0.08312">
        <ele>50</ele>
        <time>2020-10-29T12:46:23Z</time>
      </trkpt>
      <trkpt lat="44.88311" lon="-0.08313">
        <ele>64</ele>
        <time>2020-10-29T12:46:24Z</time>
      </trkpt>
      <trkpt lat="44.8831" lon="-0.08314">
        <ele>58</ele>
        <time>2020-10-29T12:46:25Z</time>
      </trkpt>
      <trkpt lat="44.88309" lon="-0.08315">
        <ele>55</ele>
        <time>2020-10-29T12:46:26Z</time>
      </trkpt>
      <trkpt lat="44.88298" lon="-0.08333">
        <ele>54</ele>
        <time>2020-10-29T12:46:44Z</time>
      </trkpt>
      <trkpt lat="44.88296" lon="-0.0834">
        <ele>54</ele>
        <time>2020-10-29T12:47:00Z</time>
      </trkpt>
      <trkpt lat="44.88292" lon="-0.08343">
        <ele>54</ele>
        <time>2020-10-29T12:47:17Z</time>
      </trkpt>
      <trkpt lat="44.88291" lon="-0.0834">
        <ele>54</ele>
        <time>2020-10-29T12:47:40Z</time>
      </trkpt>
      <trkpt lat="44.88294" lon="-0.08346">
        <ele>53</ele>
        <time>2020-10-29T12:47:55Z</time>
      </trkpt>
      <trkpt lat="44.88295" lon="-0.08347">
        <ele>53</ele>
        <time>2020-10-29T12:47:56Z</time>
      </trkpt>
      <trkpt lat="44.88304" lon="-0.08359">
        <ele>55</ele>
        <time>2020-10-29T12:48:09Z</time>
      </trkpt>
      <trkpt lat="44.88313" lon="-0.08371">
        <ele>57</ele>
        <time>2020-10-29T12:48:22Z</time>
      </trkpt>
      <trkpt lat="44.88315" lon="-0.08372">
        <ele>57</ele>
        <time>2020-10-29T12:48:26Z</time>
      </trkpt>
      <trkpt lat="44.88315" lon="-0.0838">
        <ele>58</ele>
        <time>2020-10-29T12:48:33Z</time>
      </trkpt>
      <trkpt lat="44.8831" lon="-0.08387">
        <ele>60</ele>
        <time>2020-10-29T12:48:45Z</time>
      </trkpt>
      <trkpt lat="44.88303" lon="-0.08397">
        <ele>60</ele>
        <time>2020-10-29T12:48:57Z</time>
      </trkpt>
      <trkpt lat="44.88294" lon="-0.08407">
        <ele>61</ele>
        <time>2020-10-29T12:49:08Z</time>
      </trkpt>
      <trkpt lat="44.88284" lon="-0.08419">
        <ele>61</ele>
        <time>2020-10-29T12:49:20Z</time>
      </trkpt>
      <trkpt lat="44.88272" lon="-0.08434">
        <ele>60</ele>
        <time>2020-10-29T12:49:32Z</time>
      </trkpt>
      <trkpt lat="44.88266" lon="-0.08447">
        <ele>59</ele>
        <time>2020-10-29T12:49:46Z</time>
      </trkpt>
      <trkpt lat="44.88262" lon="-0.0845">
        <ele>59</ele>
        <time>2020-10-29T12:49:49Z</time>
      </trkpt>
      <trkpt lat="44.88257" lon="-0.08457">
        <ele>58</ele>
        <time>2020-10-29T12:49:54Z</time>
      </trkpt>
      <trkpt lat="44.88241" lon="-0.08479">
        <ele>57</ele>
        <time>2020-10-29T12:50:12Z</time>
      </trkpt>
      <trkpt lat="44.88225" lon="-0.08493">
        <ele>56</ele>
        <time>2020-10-29T12:50:25Z</time>
      </trkpt>
      <trkpt lat="44.88212" lon="-0.08513">
        <ele>55</ele>
        <time>2020-10-29T12:50:39Z</time>
      </trkpt>
      <trkpt lat="44.88212" lon="-0.08514">
        <ele>54</ele>
        <time>2020-10-29T12:50:44Z</time>
      </trkpt>
      <trkpt lat="44.88201" lon="-0.08522">
        <ele>53</ele>
        <time>2020-10-29T12:50:56Z</time>
      </trkpt>
      <trkpt lat="44.88195" lon="-0.08527">
        <ele>61</ele>
        <time>2020-10-29T12:51:04Z</time>
      </trkpt>
      <trkpt lat="44.88196" lon="-0.08527">
        <ele>58</ele>
        <time>2020-10-29T12:51:05Z</time>
      </trkpt>
      <trkpt lat="44.88196" lon="-0.08527">
        <ele>52</ele>
        <time>2020-10-29T12:51:06Z</time>
      </trkpt>
      <trkpt lat="44.88195" lon="-0.08527">
        <ele>52</ele>
        <time>2020-10-29T12:51:07Z</time>
      </trkpt>
      <trkpt lat="44.88196" lon="-0.08526">
        <ele>57</ele>
        <time>2020-10-29T12:51:09Z</time>
      </trkpt>
      <trkpt lat="44.88196" lon="-0.08526">
        <ele>54</ele>
        <time>2020-10-29T12:51:10Z</time>
      </trkpt>
      <trkpt lat="44.88197" lon="-0.08525">
        <ele>53</ele>
        <time>2020-10-29T12:51:12Z</time>
      </trkpt>
      <trkpt lat="44.88197" lon="-0.08528">
        <ele>53</ele>
        <time>2020-10-29T12:51:32Z</time>
      </trkpt>
      <trkpt lat="44.8819" lon="-0.08539">
        <ele>53</ele>
        <time>2020-10-29T12:51:45Z</time>
      </trkpt>
      <trkpt lat="44.88185" lon="-0.08543">
        <ele>53</ele>
        <time>2020-10-29T12:51:55Z</time>
      </trkpt>
      <trkpt lat="44.88182" lon="-0.08546">
        <ele>53</ele>
        <time>2020-10-29T12:51:59Z</time>
      </trkpt>
      <trkpt lat="44.88179" lon="-0.0855">
        <ele>53</ele>
        <time>2020-10-29T12:52:03Z</time>
      </trkpt>
      <trkpt lat="44.88182" lon="-0.08564">
        <ele>54</ele>
        <time>2020-10-29T12:52:16Z</time>
      </trkpt>
      <trkpt lat="44.88186" lon="-0.08572">
        <ele>56</ele>
        <time>2020-10-29T12:52:31Z</time>
      </trkpt>
      <trkpt lat="44.88186" lon="-0.08576">
        <ele>56</ele>
        <time>2020-10-29T12:52:46Z</time>
      </trkpt>
      <trkpt lat="44.88192" lon="-0.08588">
        <ele>58</ele>
        <time>2020-10-29T12:53:01Z</time>
      </trkpt>
      <trkpt lat="44.88197" lon="-0.08597">
        <ele>60</ele>
        <time>2020-10-29T12:53:12Z</time>
      </trkpt>
      <trkpt lat="44.88201" lon="-0.08602">
        <ele>61</ele>
        <time>2020-10-29T12:53:26Z</time>
      </trkpt>
      <trkpt lat="44.88206" lon="-0.0861">
        <ele>62</ele>
        <time>2020-10-29T12:53:40Z</time>
      </trkpt>
      <trkpt lat="44.88211" lon="-0.08614">
        <ele>63</ele>
        <time>2020-10-29T12:53:55Z</time>
      </trkpt>
      <trkpt lat="44.8822" lon="-0.08606">
        <ele>64</ele>
        <time>2020-10-29T12:54:07Z</time>
      </trkpt>
      <trkpt lat="44.88229" lon="-0.08593">
        <ele>64</ele>
        <time>2020-10-29T12:54:20Z</time>
      </trkpt>
      <trkpt lat="44.88234" lon="-0.08588">
        <ele>65</ele>
        <time>2020-10-29T12:54:26Z</time>
      </trkpt>
      <trkpt lat="44.88236" lon="-0.08587">
        <ele>65</ele>
        <time>2020-10-29T12:54:39Z</time>
      </trkpt>
      <trkpt lat="44.88236" lon="-0.08586">
        <ele>65</ele>
        <time>2020-10-29T12:54:40Z</time>
      </trkpt>
      <trkpt lat="44.88239" lon="-0.08585">
        <ele>65</ele>
        <time>2020-10-29T12:54:42Z</time>
      </trkpt>
      <trkpt lat="44.88249" lon="-0.08576">
        <ele>66</ele>
        <time>2020-10-29T12:54:54Z</time>
      </trkpt>
      <trkpt lat="44.88257" lon="-0.0858">
        <ele>67</ele>
        <time>2020-10-29T12:55:02Z</time>
      </trkpt>
      <trkpt lat="44.88259" lon="-0.08584">
        <ele>68</ele>
        <time>2020-10-29T12:55:05Z</time>
      </trkpt>
      <trkpt lat="44.88261" lon="-0.08591">
        <ele>69</ele>
        <time>2020-10-29T12:55:11Z</time>
      </trkpt>
      <trkpt lat="44.88263" lon="-0.08593">
        <ele>69</ele>
        <time>2020-10-29T12:55:16Z</time>
      </trkpt>
      <trkpt lat="44.88255" lon="-0.08601">
        <ele>70</ele>
        <time>2020-10-29T12:55:26Z</time>
      </trkpt>
      <trkpt lat="44.88254" lon="-0.08602">
        <ele>70</ele>
        <time>2020-10-29T12:55:27Z</time>
      </trkpt>
      <trkpt lat="44.8825" lon="-0.08608">
        <ele>70</ele>
        <time>2020-10-29T12:55:33Z</time>
      </trkpt>
      <trkpt lat="44.88244" lon="-0.08613">
        <ele>71</ele>
        <time>2020-10-29T12:55:46Z</time>
      </trkpt>
      <trkpt lat="44.88241" lon="-0.08614">
        <ele>71</ele>
        <time>2020-10-29T12:55:51Z</time>
      </trkpt>
      <trkpt lat="44.88238" lon="-0.08621">
        <ele>71</ele>
        <time>2020-10-29T12:55:55Z</time>
      </trkpt>
      <trkpt lat="44.88227" lon="-0.08633">
        <ele>73</ele>
        <time>2020-10-29T12:56:07Z</time>
      </trkpt>
      <trkpt lat="44.88224" lon="-0.08636">
        <ele>74</ele>
        <time>2020-10-29T12:56:12Z</time>
      </trkpt>
      <trkpt lat="44.88221" lon="-0.08642">
        <ele>74</ele>
        <time>2020-10-29T12:56:18Z</time>
      </trkpt>
      <trkpt lat="44.88235" lon="-0.08636">
        <ele>76</ele>
        <time>2020-10-29T12:56:33Z</time>
      </trkpt>
      <trkpt lat="44.88242" lon="-0.08633">
        <ele>77</ele>
        <time>2020-10-29T12:56:41Z</time>
      </trkpt>
      <trkpt lat="44.88255" lon="-0.08628">
        <ele>78</ele>
        <time>2020-10-29T12:56:55Z</time>
      </trkpt>
      <trkpt lat="44.88261" lon="-0.0863">
        <ele>78</ele>
        <time>2020-10-29T12:57:02Z</time>
      </trkpt>
      <trkpt lat="44.88272" lon="-0.08636">
        <ele>79</ele>
        <time>2020-10-29T12:57:13Z</time>
      </trkpt>
      <trkpt lat="44.88278" lon="-0.08647">
        <ele>80</ele>
        <time>2020-10-29T12:57:23Z</time>
      </trkpt>
      <trkpt lat="44.88287" lon="-0.08661">
        <ele>81</ele>
        <time>2020-10-29T12:57:35Z</time>
      </trkpt>
      <trkpt lat="44.8829" lon="-0.08668">
        <ele>82</ele>
        <time>2020-10-29T12:57:39Z</time>
      </trkpt>
      <trkpt lat="44.88298" lon="-0.08684">
        <ele>82</ele>
        <time>2020-10-29T12:57:51Z</time>
      </trkpt>
      <trkpt lat="44.88304" lon="-0.08699">
        <ele>83</ele>
        <time>2020-10-29T12:58:05Z</time>
      </trkpt>
      <trkpt lat="44.8831" lon="-0.08709">
        <ele>83</ele>
        <time>2020-10-29T12:58:16Z</time>
      </trkpt>
      <trkpt lat="44.88312" lon="-0.08715">
        <ele>83</ele>
        <time>2020-10-29T12:58:27Z</time>
      </trkpt>
      <trkpt lat="44.88317" lon="-0.08743">
        <ele>83</ele>
        <time>2020-10-29T12:58:42Z</time>
      </trkpt>
      <trkpt lat="44.88321" lon="-0.08756">
        <ele>83</ele>
        <time>2020-10-29T12:58:55Z</time>
      </trkpt>
      <trkpt lat="44.8832" lon="-0.08781">
        <ele>83</ele>
        <time>2020-10-29T12:59:10Z</time>
      </trkpt>
      <trkpt lat="44.88321" lon="-0.08792">
        <ele>83</ele>
        <time>2020-10-29T12:59:24Z</time>
      </trkpt>
      <trkpt lat="44.88318" lon="-0.08805">
        <ele>83</ele>
        <time>2020-10-29T12:59:34Z</time>
      </trkpt>
      <trkpt lat="44.88313" lon="-0.08829">
        <ele>83</ele>
        <time>2020-10-29T12:59:51Z</time>
      </trkpt>
      <trkpt lat="44.88311" lon="-0.08845">
        <ele>82</ele>
        <time>2020-10-29T13:00:01Z</time>
      </trkpt>
      <trkpt lat="44.88306" lon="-0.08878">
        <ele>82</ele>
        <time>2020-10-29T13:00:16Z</time>
      </trkpt>
      <trkpt lat="44.88303" lon="-0.08892">
        <ele>82</ele>
        <time>2020-10-29T13:00:28Z</time>
      </trkpt>
      <trkpt lat="44.88298" lon="-0.08908">
        <ele>75</ele>
        <time>2020-10-29T13:00:38Z</time>
      </trkpt>
      <trkpt lat="44.88298" lon="-0.08909">
        <ele>75</ele>
        <time>2020-10-29T13:00:39Z</time>
      </trkpt>
      <trkpt lat="44.88298" lon="-0.0891">
        <ele>93</ele>
        <time>2020-10-29T13:00:40Z</time>
      </trkpt>
      <trkpt lat="44.88297" lon="-0.08911">
        <ele>85</ele>
        <time>2020-10-29T13:00:41Z</time>
      </trkpt>
      <trkpt lat="44.88296" lon="-0.08917">
        <ele>82</ele>
        <time>2020-10-29T13:00:58Z</time>
      </trkpt>
      <trkpt lat="44.883" lon="-0.08932">
        <ele>82</ele>
        <time>2020-10-29T13:01:13Z</time>
      </trkpt>
      <trkpt lat="44.88305" lon="-0.08933">
        <ele>82</ele>
        <time>2020-10-29T13:01:27Z</time>
      </trkpt>
      <trkpt lat="44.883" lon="-0.08926">
        <ele>82</ele>
        <time>2020-10-29T13:01:48Z</time>
      </trkpt>
      <trkpt lat="44.88296" lon="-0.08924">
        <ele>82</ele>
        <time>2020-10-29T13:01:57Z</time>
      </trkpt>
      <trkpt lat="44.88286" lon="-0.08928">
        <ele>82</ele>
        <time>2020-10-29T13:02:07Z</time>
      </trkpt>
      <trkpt lat="44.88276" lon="-0.08937">
        <ele>82</ele>
        <time>2020-10-29T13:02:24Z</time>
      </trkpt>
      <trkpt lat="44.88272" lon="-0.08938">
        <ele>82</ele>
        <time>2020-10-29T13:02:36Z</time>
      </trkpt>
      <trkpt lat="44.88269" lon="-0.08938">
        <ele>82</ele>
        <time>2020-10-29T13:02:40Z</time>
      </trkpt>
      <trkpt lat="44.88246" lon="-0.08936">
        <ele>82</ele>
        <time>2020-10-29T13:03:02Z</time>
      </trkpt>
      <trkpt lat="44.88233" lon="-0.08935">
        <ele>81</ele>
        <time>2020-10-29T13:03:15Z</time>
      </trkpt>
      <trkpt lat="44.88225" lon="-0.08935">
        <ele>81</ele>
        <time>2020-10-29T13:03:23Z</time>
      </trkpt>
      <trkpt lat="44.88211" lon="-0.08936">
        <ele>80</ele>
        <time>2020-10-29T13:03:40Z</time>
      </trkpt>
      <trkpt lat="44.88202" lon="-0.08943">
        <ele>80</ele>
        <time>2020-10-29T13:03:57Z</time>
      </trkpt>
      <trkpt lat="44.88192" lon="-0.08947">
        <ele>80</ele>
        <time>2020-10-29T13:04:10Z</time>
      </trkpt>
      <trkpt lat="44.88187" lon="-0.08943">
        <ele>79</ele>
        <time>2020-10-29T13:04:28Z</time>
      </trkpt>
      <trkpt lat="44.88184" lon="-0.08943">
        <ele>79</ele>
        <time>2020-10-29T13:04:45Z</time>
      </trkpt>
      <trkpt lat="44.88185" lon="-0.08944">
        <ele>79</ele>
        <time>2020-10-29T13:04:50Z</time>
      </trkpt>
      <trkpt lat="44.88186" lon="-0.08942">
        <ele>80</ele>
        <time>2020-10-29T13:05:06Z</time>
      </trkpt>
      <trkpt lat="44.88186" lon="-0.0894">
        <ele>80</ele>
        <time>2020-10-29T13:05:27Z</time>
      </trkpt>
      <trkpt lat="44.88183" lon="-0.08941">
        <ele>80</ele>
        <time>2020-10-29T13:05:47Z</time>
      </trkpt>
      <trkpt lat="44.88182" lon="-0.08941">
        <ele>80</ele>
        <time>2020-10-29T13:06:05Z</time>
      </trkpt>
      <trkpt lat="44.88181" lon="-0.08939">
        <ele>80</ele>
        <time>2020-10-29T13:06:28Z</time>
      </trkpt>
      <trkpt lat="44.88179" lon="-0.08932">
        <ele>80</ele>
        <time>2020-10-29T13:06:48Z</time>
      </trkpt>
      <trkpt lat="44.88183" lon="-0.08942">
        <ele>79</ele>
        <time>2020-10-29T13:07:10Z</time>
      </trkpt>
      <trkpt lat="44.8819" lon="-0.08942">
        <ele>79</ele>
        <time>2020-10-29T13:07:27Z</time>
      </trkpt>
      <trkpt lat="44.88194" lon="-0.08941">
        <ele>79</ele>
        <time>2020-10-29T13:07:48Z</time>
      </trkpt>
      <trkpt lat="44.88196" lon="-0.08937">
        <ele>77</ele>
        <time>2020-10-29T13:07:54Z</time>
      </trkpt>
      <trkpt lat="44.88198" lon="-0.08936">
        <ele>82</ele>
        <time>2020-10-29T13:07:56Z</time>
      </trkpt>
      <trkpt lat="44.88199" lon="-0.08935">
        <ele>79</ele>
        <time>2020-10-29T13:07:57Z</time>
      </trkpt>
      <trkpt lat="44.88215" lon="-0.08931">
        <ele>79</ele>
        <time>2020-10-29T13:08:10Z</time>
      </trkpt>
      <trkpt lat="44.88227" lon="-0.08932">
        <ele>79</ele>
        <time>2020-10-29T13:08:22Z</time>
      </trkpt>
      <trkpt lat="44.88238" lon="-0.08933">
        <ele>79</ele>
        <time>2020-10-29T13:08:31Z</time>
      </trkpt>
      <trkpt lat="44.88253" lon="-0.08935">
        <ele>80</ele>
        <time>2020-10-29T13:08:45Z</time>
      </trkpt>
      <trkpt lat="44.88266" lon="-0.08936">
        <ele>80</ele>
        <time>2020-10-29T13:08:57Z</time>
      </trkpt>
      <trkpt lat="44.88269" lon="-0.08936">
        <ele>80</ele>
        <time>2020-10-29T13:09:01Z</time>
      </trkpt>
      <trkpt lat="44.88279" lon="-0.08929">
        <ele>81</ele>
        <time>2020-10-29T13:09:14Z</time>
      </trkpt>
      <trkpt lat="44.88293" lon="-0.08915">
        <ele>81</ele>
        <time>2020-10-29T13:09:26Z</time>
      </trkpt>
      <trkpt lat="44.88294" lon="-0.08914">
        <ele>81</ele>
        <time>2020-10-29T13:09:30Z</time>
      </trkpt>
      <trkpt lat="44.88301" lon="-0.08898">
        <ele>81</ele>
        <time>2020-10-29T13:09:43Z</time>
      </trkpt>
      <trkpt lat="44.88303" lon="-0.08896">
        <ele>81</ele>
        <time>2020-10-29T13:09:46Z</time>
      </trkpt>
      <trkpt lat="44.88304" lon="-0.08892">
        <ele>81</ele>
        <time>2020-10-29T13:09:48Z</time>
      </trkpt>
      <trkpt lat="44.88306" lon="-0.08881">
        <ele>81</ele>
        <time>2020-10-29T13:10:04Z</time>
      </trkpt>
      <trkpt lat="44.88307" lon="-0.08866">
        <ele>81</ele>
        <time>2020-10-29T13:10:23Z</time>
      </trkpt>
      <trkpt lat="44.88308" lon="-0.0886">
        <ele>81</ele>
        <time>2020-10-29T13:10:27Z</time>
      </trkpt>
      <trkpt lat="44.88312" lon="-0.08836">
        <ele>81</ele>
        <time>2020-10-29T13:10:42Z</time>
      </trkpt>
      <trkpt lat="44.88314" lon="-0.08815">
        <ele>81</ele>
        <time>2020-10-29T13:10:56Z</time>
      </trkpt>
      <trkpt lat="44.88317" lon="-0.08794">
        <ele>81</ele>
        <time>2020-10-29T13:11:10Z</time>
      </trkpt>
      <trkpt lat="44.88317" lon="-0.08792">
        <ele>82</ele>
        <time>2020-10-29T13:11:27Z</time>
      </trkpt>
      <trkpt lat="44.88317" lon="-0.08788">
        <ele>82</ele>
        <time>2020-10-29T13:11:44Z</time>
      </trkpt>
      <trkpt lat="44.88318" lon="-0.08784">
        <ele>82</ele>
        <time>2020-10-29T13:11:50Z</time>
      </trkpt>
      <trkpt lat="44.88318" lon="-0.0878">
        <ele>82</ele>
        <time>2020-10-29T13:11:52Z</time>
      </trkpt>
      <trkpt lat="44.88318" lon="-0.08763">
        <ele>82</ele>
        <time>2020-10-29T13:12:03Z</time>
      </trkpt>
      <trkpt lat="44.88319" lon="-0.08755">
        <ele>82</ele>
        <time>2020-10-29T13:12:08Z</time>
      </trkpt>
      <trkpt lat="44.88323" lon="-0.08741">
        <ele>82</ele>
        <time>2020-10-29T13:12:19Z</time>
      </trkpt>
      <trkpt lat="44.88327" lon="-0.08737">
        <ele>82</ele>
        <time>2020-10-29T13:12:23Z</time>
      </trkpt>
      <trkpt lat="44.88341" lon="-0.0873">
        <ele>82</ele>
        <time>2020-10-29T13:12:37Z</time>
      </trkpt>
      <trkpt lat="44.88349" lon="-0.08724">
        <ele>82</ele>
        <time>2020-10-29T13:12:55Z</time>
      </trkpt>
      <trkpt lat="44.88363" lon="-0.08718">
        <ele>82</ele>
        <time>2020-10-29T13:13:09Z</time>
      </trkpt>
      <trkpt lat="44.88377" lon="-0.0871">
        <ele>81</ele>
        <time>2020-10-29T13:13:23Z</time>
      </trkpt>
      <trkpt lat="44.88389" lon="-0.087">
        <ele>81</ele>
        <time>2020-10-29T13:13:36Z</time>
      </trkpt>
      <trkpt lat="44.8841" lon="-0.08684">
        <ele>81</ele>
        <time>2020-10-29T13:13:56Z</time>
      </trkpt>
      <trkpt lat="44.88427" lon="-0.08671">
        <ele>81</ele>
        <time>2020-10-29T13:14:14Z</time>
      </trkpt>
      <trkpt lat="44.88442" lon="-0.08662">
        <ele>81</ele>
        <time>2020-10-29T13:14:29Z</time>
      </trkpt>
      <trkpt lat="44.88464" lon="-0.08655">
        <ele>81</ele>
        <time>2020-10-29T13:14:44Z</time>
      </trkpt>
      <trkpt lat="44.88486" lon="-0.08644">
        <ele>81</ele>
        <time>2020-10-29T13:15:01Z</time>
      </trkpt>
      <trkpt lat="44.88499" lon="-0.08633">
        <ele>82</ele>
        <time>2020-10-29T13:15:14Z</time>
      </trkpt>
      <trkpt lat="44.88521" lon="-0.08617">
        <ele>82</ele>
        <time>2020-10-29T13:15:32Z</time>
      </trkpt>
      <trkpt lat="44.88539" lon="-0.08605">
        <ele>82</ele>
        <time>2020-10-29T13:15:45Z</time>
      </trkpt>
      <trkpt lat="44.88549" lon="-0.08599">
        <ele>82</ele>
        <time>2020-10-29T13:15:56Z</time>
      </trkpt>
      <trkpt lat="44.88558" lon="-0.08585">
        <ele>83</ele>
        <time>2020-10-29T13:16:15Z</time>
      </trkpt>
      <trkpt lat="44.88564" lon="-0.08579">
        <ele>83</ele>
        <time>2020-10-29T13:16:22Z</time>
      </trkpt>
      <trkpt lat="44.88565" lon="-0.08578">
        <ele>83</ele>
        <time>2020-10-29T13:16:23Z</time>
      </trkpt>
      <trkpt lat="44.88567" lon="-0.08576">
        <ele>81</ele>
        <time>2020-10-29T13:16:24Z</time>
      </trkpt>
      <trkpt lat="44.88579" lon="-0.08565">
        <ele>83</ele>
        <time>2020-10-29T13:16:35Z</time>
      </trkpt>
      <trkpt lat="44.88593" lon="-0.0855">
        <ele>83</ele>
        <time>2020-10-29T13:16:50Z</time>
      </trkpt>
      <trkpt lat="44.88613" lon="-0.08527">
        <ele>83</ele>
        <time>2020-10-29T13:17:08Z</time>
      </trkpt>
      <trkpt lat="44.88632" lon="-0.08511">
        <ele>83</ele>
        <time>2020-10-29T13:17:22Z</time>
      </trkpt>
      <trkpt lat="44.88638" lon="-0.0851">
        <ele>83</ele>
        <time>2020-10-29T13:17:32Z</time>
      </trkpt>
      <trkpt lat="44.88643" lon="-0.08496">
        <ele>83</ele>
        <time>2020-10-29T13:17:48Z</time>
      </trkpt>
      <trkpt lat="44.8866" lon="-0.08482">
        <ele>83</ele>
        <time>2020-10-29T13:18:00Z</time>
      </trkpt>
      <trkpt lat="44.88674" lon="-0.08487">
        <ele>83</ele>
        <time>2020-10-29T13:18:14Z</time>
      </trkpt>
      <trkpt lat="44.88674" lon="-0.0851">
        <ele>83</ele>
        <time>2020-10-29T13:18:29Z</time>
      </trkpt>
      <trkpt lat="44.88675" lon="-0.08513">
        <ele>83</ele>
        <time>2020-10-29T13:18:31Z</time>
      </trkpt>
      <trkpt lat="44.88675" lon="-0.08515">
        <ele>83</ele>
        <time>2020-10-29T13:18:32Z</time>
      </trkpt>
      <trkpt lat="44.88676" lon="-0.08516">
        <ele>83</ele>
        <time>2020-10-29T13:18:33Z</time>
      </trkpt>
      <trkpt lat="44.88677" lon="-0.08517">
        <ele>83</ele>
        <time>2020-10-29T13:18:34Z</time>
      </trkpt>
      <trkpt lat="44.88678" lon="-0.08518">
        <ele>83</ele>
        <time>2020-10-29T13:18:35Z</time>
      </trkpt>
      <trkpt lat="44.88684" lon="-0.08527">
        <ele>83</ele>
        <time>2020-10-29T13:18:44Z</time>
      </trkpt>
      <trkpt lat="44.8869" lon="-0.08544">
        <ele>83</ele>
        <time>2020-10-29T13:18:56Z</time>
      </trkpt>
      <trkpt lat="44.88691" lon="-0.08548">
        <ele>83</ele>
        <time>2020-10-29T13:18:59Z</time>
      </trkpt>
      <trkpt lat="44.88694" lon="-0.0857">
        <ele>83</ele>
        <time>2020-10-29T13:19:13Z</time>
      </trkpt>
      <trkpt lat="44.88696" lon="-0.08586">
        <ele>83</ele>
        <time>2020-10-29T13:19:24Z</time>
      </trkpt>
      <trkpt lat="44.88698" lon="-0.08596">
        <ele>84</ele>
        <time>2020-10-29T13:19:31Z</time>
      </trkpt>
      <trkpt lat="44.88703" lon="-0.08614">
        <ele>84</ele>
        <time>2020-10-29T13:19:44Z</time>
      </trkpt>
      <trkpt lat="44.88708" lon="-0.08637">
        <ele>84</ele>
        <time>2020-10-29T13:19:58Z</time>
      </trkpt>
      <trkpt lat="44.88712" lon="-0.0866">
        <ele>85</ele>
        <time>2020-10-29T13:20:14Z</time>
      </trkpt>
      <trkpt lat="44.88714" lon="-0.08668">
        <ele>79</ele>
        <time>2020-10-29T13:20:19Z</time>
      </trkpt>
      <trkpt lat="44.88715" lon="-0.0867">
        <ele>73</ele>
        <time>2020-10-29T13:20:20Z</time>
      </trkpt>
      <trkpt lat="44.88715" lon="-0.08671">
        <ele>91</ele>
        <time>2020-10-29T13:20:21Z</time>
      </trkpt>
      <trkpt lat="44.88716" lon="-0.08672">
        <ele>84</ele>
        <time>2020-10-29T13:20:22Z</time>
      </trkpt>
      <trkpt lat="44.88717" lon="-0.08679">
        <ele>89</ele>
        <time>2020-10-29T13:20:26Z</time>
      </trkpt>
      <trkpt lat="44.88718" lon="-0.0868">
        <ele>95</ele>
        <time>2020-10-29T13:20:27Z</time>
      </trkpt>
      <trkpt lat="44.88718" lon="-0.08681">
        <ele>86</ele>
        <time>2020-10-29T13:20:28Z</time>
      </trkpt>
      <trkpt lat="44.88719" lon="-0.08685">
        <ele>85</ele>
        <time>2020-10-29T13:20:30Z</time>
      </trkpt>
      <trkpt lat="44.88724" lon="-0.08713">
        <ele>85</ele>
        <time>2020-10-29T13:20:48Z</time>
      </trkpt>
      <trkpt lat="44.8873" lon="-0.08742">
        <ele>85</ele>
        <time>2020-10-29T13:21:06Z</time>
      </trkpt>
      <trkpt lat="44.88736" lon="-0.08777">
        <ele>85</ele>
        <time>2020-10-29T13:21:28Z</time>
      </trkpt>
      <trkpt lat="44.88743" lon="-0.08805">
        <ele>86</ele>
        <time>2020-10-29T13:21:46Z</time>
      </trkpt>
      <trkpt lat="44.88743" lon="-0.0881">
        <ele>86</ele>
        <time>2020-10-29T13:21:49Z</time>
      </trkpt>
      <trkpt lat="44.88749" lon="-0.08833">
        <ele>86</ele>
        <time>2020-10-29T13:22:05Z</time>
      </trkpt>
      <trkpt lat="44.88752" lon="-0.08857">
        <ele>87</ele>
        <time>2020-10-29T13:22:22Z</time>
      </trkpt>
      <trkpt lat="44.88753" lon="-0.08859">
        <ele>88</ele>
        <time>2020-10-29T13:22:24Z</time>
      </trkpt>
      <trkpt lat="44.88753" lon="-0.0886">
        <ele>86</ele>
        <time>2020-10-29T13:22:26Z</time>
      </trkpt>
      <trkpt lat="44.88755" lon="-0.08866">
        <ele>87</ele>
        <time>2020-10-29T13:22:32Z</time>
      </trkpt>
      <trkpt lat="44.88756" lon="-0.08868">
        <ele>86</ele>
        <time>2020-10-29T13:22:34Z</time>
      </trkpt>
      <trkpt lat="44.88759" lon="-0.08879">
        <ele>86</ele>
        <time>2020-10-29T13:22:45Z</time>
      </trkpt>
      <trkpt lat="44.8876" lon="-0.08888">
        <ele>86</ele>
        <time>2020-10-29T13:22:51Z</time>
      </trkpt>
      <trkpt lat="44.88761" lon="-0.08889">
        <ele>86</ele>
        <time>2020-10-29T13:22:52Z</time>
      </trkpt>
      <trkpt lat="44.88764" lon="-0.08909">
        <ele>86</ele>
        <time>2020-10-29T13:23:05Z</time>
      </trkpt>
      <trkpt lat="44.88768" lon="-0.08931">
        <ele>86</ele>
        <time>2020-10-29T13:23:19Z</time>
      </trkpt>
      <trkpt lat="44.88772" lon="-0.08951">
        <ele>86</ele>
        <time>2020-10-29T13:23:33Z</time>
      </trkpt>
      <trkpt lat="44.88777" lon="-0.0897">
        <ele>86</ele>
        <time>2020-10-29T13:23:47Z</time>
      </trkpt>
      <trkpt lat="44.88782" lon="-0.08994">
        <ele>86</ele>
        <time>2020-10-29T13:24:02Z</time>
      </trkpt>
      <trkpt lat="44.88783" lon="-0.08995">
        <ele>86</ele>
        <time>2020-10-29T13:24:03Z</time>
      </trkpt>
      <trkpt lat="44.88787" lon="-0.09018">
        <ele>86</ele>
        <time>2020-10-29T13:24:18Z</time>
      </trkpt>
      <trkpt lat="44.88792" lon="-0.09042">
        <ele>86</ele>
        <time>2020-10-29T13:24:31Z</time>
      </trkpt>
      <trkpt lat="44.88797" lon="-0.09067">
        <ele>86</ele>
        <time>2020-10-29T13:24:47Z</time>
      </trkpt>
      <trkpt lat="44.888" lon="-0.09088">
        <ele>85</ele>
        <time>2020-10-29T13:25:00Z</time>
      </trkpt>
      <trkpt lat="44.88804" lon="-0.09115">
        <ele>85</ele>
        <time>2020-10-29T13:25:15Z</time>
      </trkpt>
      <trkpt lat="44.8881" lon="-0.09139">
        <ele>85</ele>
        <time>2020-10-29T13:25:29Z</time>
      </trkpt>
      <trkpt lat="44.88812" lon="-0.09154">
        <ele>84</ele>
        <time>2020-10-29T13:25:44Z</time>
      </trkpt>
      <trkpt lat="44.88818" lon="-0.09189">
        <ele>84</ele>
        <time>2020-10-29T13:26:00Z</time>
      </trkpt>
      <trkpt lat="44.88825" lon="-0.09219">
        <ele>83</ele>
        <time>2020-10-29T13:26:15Z</time>
      </trkpt>
      <trkpt lat="44.88827" lon="-0.09233">
        <ele>83</ele>
        <time>2020-10-29T13:26:28Z</time>
      </trkpt>
      <trkpt lat="44.88827" lon="-0.09234">
        <ele>83</ele>
        <time>2020-10-29T13:26:29Z</time>
      </trkpt>
      <trkpt lat="44.88826" lon="-0.09235">
        <ele>83</ele>
        <time>2020-10-29T13:26:30Z</time>
      </trkpt>
      <trkpt lat="44.88826" lon="-0.09237">
        <ele>83</ele>
        <time>2020-10-29T13:26:32Z</time>
      </trkpt>
      <trkpt lat="44.88826" lon="-0.09239">
        <ele>83</ele>
        <time>2020-10-29T13:26:33Z</time>
      </trkpt>
      <trkpt lat="44.88832" lon="-0.09262">
        <ele>83</ele>
        <time>2020-10-29T13:26:52Z</time>
      </trkpt>
      <trkpt lat="44.88835" lon="-0.09287">
        <ele>82</ele>
        <time>2020-10-29T13:27:09Z</time>
      </trkpt>
      <trkpt lat="44.8884" lon="-0.09312">
        <ele>82</ele>
        <time>2020-10-29T13:27:23Z</time>
      </trkpt>
      <trkpt lat="44.88843" lon="-0.09346">
        <ele>80</ele>
        <time>2020-10-29T13:27:41Z</time>
      </trkpt>
      <trkpt lat="44.88841" lon="-0.09366">
        <ele>80</ele>
        <time>2020-10-29T13:27:56Z</time>
      </trkpt>
      <trkpt lat="44.88837" lon="-0.09386">
        <ele>79</ele>
        <time>2020-10-29T13:28:11Z</time>
      </trkpt>
      <trkpt lat="44.88833" lon="-0.094">
        <ele>78</ele>
        <time>2020-10-29T13:28:20Z</time>
      </trkpt>
      <trkpt lat="44.88825" lon="-0.09435">
        <ele>76</ele>
        <time>2020-10-29T13:28:34Z</time>
      </trkpt>
      <trkpt lat="44.88822" lon="-0.09452">
        <ele>75</ele>
        <time>2020-10-29T13:28:47Z</time>
      </trkpt>
      <trkpt lat="44.88822" lon="-0.09455">
        <ele>74</ele>
        <time>2020-10-29T13:28:49Z</time>
      </trkpt>
      <trkpt lat="44.88822" lon="-0.09457">
        <ele>74</ele>
        <time>2020-10-29T13:28:50Z</time>
      </trkpt>
      <trkpt lat="44.88822" lon="-0.09459">
        <ele>74</ele>
        <time>2020-10-29T13:28:51Z</time>
      </trkpt>
      <trkpt lat="44.88822" lon="-0.09461">
        <ele>73</ele>
        <time>2020-10-29T13:28:52Z</time>
      </trkpt>
      <trkpt lat="44.88821" lon="-0.09463">
        <ele>73</ele>
        <time>2020-10-29T13:28:53Z</time>
      </trkpt>
      <trkpt lat="44.8882" lon="-0.09466">
        <ele>73</ele>
        <time>2020-10-29T13:28:54Z</time>
      </trkpt>
      <trkpt lat="44.88823" lon="-0.09493">
        <ele>71</ele>
        <time>2020-10-29T13:29:09Z</time>
      </trkpt>
      <trkpt lat="44.88829" lon="-0.095">
        <ele>70</ele>
        <time>2020-10-29T13:29:21Z</time>
      </trkpt>
      <trkpt lat="44.8883" lon="-0.09502">
        <ele>70</ele>
        <time>2020-10-29T13:29:22Z</time>
      </trkpt>
      <trkpt lat="44.88849" lon="-0.09519">
        <ele>69</ele>
        <time>2020-10-29T13:29:36Z</time>
      </trkpt>
      <trkpt lat="44.8886" lon="-0.09541">
        <ele>67</ele>
        <time>2020-10-29T13:29:51Z</time>
      </trkpt>
      <trkpt lat="44.8886" lon="-0.09541">
        <ele>67</ele>
        <time>2020-10-29T13:29:57Z</time>
      </trkpt>
      <trkpt lat="44.8886" lon="-0.09543">
        <ele>67</ele>
        <time>2020-10-29T13:29:58Z</time>
      </trkpt>
      <trkpt lat="44.8886" lon="-0.09547">
        <ele>66</ele>
        <time>2020-10-29T13:30:02Z</time>
      </trkpt>
      <trkpt lat="44.8886" lon="-0.09551">
        <ele>66</ele>
        <time>2020-10-29T13:30:05Z</time>
      </trkpt>
      <trkpt lat="44.8886" lon="-0.09553">
        <ele>66</ele>
        <time>2020-10-29T13:30:06Z</time>
      </trkpt>
      <trkpt lat="44.88855" lon="-0.09577">
        <ele>64</ele>
        <time>2020-10-29T13:30:23Z</time>
      </trkpt>
      <trkpt lat="44.88853" lon="-0.09593">
        <ele>63</ele>
        <time>2020-10-29T13:30:34Z</time>
      </trkpt>
      <trkpt lat="44.88847" lon="-0.09619">
        <ele>62</ele>
        <time>2020-10-29T13:30:49Z</time>
      </trkpt>
      <trkpt lat="44.88846" lon="-0.09621">
        <ele>62</ele>
        <time>2020-10-29T13:30:50Z</time>
      </trkpt>
      <trkpt lat="44.88846" lon="-0.09623">
        <ele>62</ele>
        <time>2020-10-29T13:30:51Z</time>
      </trkpt>
      <trkpt lat="44.88838" lon="-0.09659">
        <ele>61</ele>
        <time>2020-10-29T13:31:06Z</time>
      </trkpt>
      <trkpt lat="44.88837" lon="-0.09674">
        <ele>60</ele>
        <time>2020-10-29T13:31:19Z</time>
      </trkpt>
      <trkpt lat="44.88835" lon="-0.09703">
        <ele>60</ele>
        <time>2020-10-29T13:31:31Z</time>
      </trkpt>
      <trkpt lat="44.88832" lon="-0.09734">
        <ele>59</ele>
        <time>2020-10-29T13:31:50Z</time>
      </trkpt>
      <trkpt lat="44.88832" lon="-0.09751">
        <ele>59</ele>
        <time>2020-10-29T13:32:03Z</time>
      </trkpt>
      <trkpt lat="44.88827" lon="-0.09777">
        <ele>59</ele>
        <time>2020-10-29T13:32:19Z</time>
      </trkpt>
      <trkpt lat="44.88824" lon="-0.09806">
        <ele>59</ele>
        <time>2020-10-29T13:32:34Z</time>
      </trkpt>
      <trkpt lat="44.88824" lon="-0.0981">
        <ele>59</ele>
        <time>2020-10-29T13:32:37Z</time>
      </trkpt>
      <trkpt lat="44.88824" lon="-0.09812">
        <ele>59</ele>
        <time>2020-10-29T13:32:38Z</time>
      </trkpt>
      <trkpt lat="44.88824" lon="-0.09814">
        <ele>59</ele>
        <time>2020-10-29T13:32:39Z</time>
      </trkpt>
      <trkpt lat="44.88824" lon="-0.09816">
        <ele>59</ele>
        <time>2020-10-29T13:32:40Z</time>
      </trkpt>
      <trkpt lat="44.88824" lon="-0.09818">
        <ele>59</ele>
        <time>2020-10-29T13:32:41Z</time>
      </trkpt>
      <trkpt lat="44.88823" lon="-0.09838">
        <ele>59</ele>
        <time>2020-10-29T13:32:55Z</time>
      </trkpt>
      <trkpt lat="44.8882" lon="-0.09861">
        <ele>60</ele>
        <time>2020-10-29T13:33:11Z</time>
      </trkpt>
      <trkpt lat="44.88819" lon="-0.09863">
        <ele>60</ele>
        <time>2020-10-29T13:33:12Z</time>
      </trkpt>
      <trkpt lat="44.88819" lon="-0.09865">
        <ele>60</ele>
        <time>2020-10-29T13:33:13Z</time>
      </trkpt>
      <trkpt lat="44.88819" lon="-0.09867">
        <ele>60</ele>
        <time>2020-10-29T13:33:14Z</time>
      </trkpt>
      <trkpt lat="44.88819" lon="-0.09869">
        <ele>60</ele>
        <time>2020-10-29T13:33:15Z</time>
      </trkpt>
      <trkpt lat="44.88819" lon="-0.0987">
        <ele>60</ele>
        <time>2020-10-29T13:33:16Z</time>
      </trkpt>
      <trkpt lat="44.88819" lon="-0.09892">
        <ele>60</ele>
        <time>2020-10-29T13:33:32Z</time>
      </trkpt>
      <trkpt lat="44.88817" lon="-0.09922">
        <ele>61</ele>
        <time>2020-10-29T13:33:50Z</time>
      </trkpt>
      <trkpt lat="44.88816" lon="-0.09925">
        <ele>61</ele>
        <time>2020-10-29T13:33:53Z</time>
      </trkpt>
      <trkpt lat="44.88815" lon="-0.09927">
        <ele>61</ele>
        <time>2020-10-29T13:33:54Z</time>
      </trkpt>
      <trkpt lat="44.88814" lon="-0.09944">
        <ele>62</ele>
        <time>2020-10-29T13:34:06Z</time>
      </trkpt>
      <trkpt lat="44.88814" lon="-0.09945">
        <ele>62</ele>
        <time>2020-10-29T13:34:22Z</time>
      </trkpt>
      <trkpt lat="44.88813" lon="-0.09951">
        <ele>62</ele>
        <time>2020-10-29T13:34:26Z</time>
      </trkpt>
      <trkpt lat="44.88812" lon="-0.09954">
        <ele>62</ele>
        <time>2020-10-29T13:34:27Z</time>
      </trkpt>
      <trkpt lat="44.88812" lon="-0.09956">
        <ele>62</ele>
        <time>2020-10-29T13:34:28Z</time>
      </trkpt>
      <trkpt lat="44.8881" lon="-0.09982">
        <ele>64</ele>
        <time>2020-10-29T13:34:45Z</time>
      </trkpt>
      <trkpt lat="44.88808" lon="-0.10004">
        <ele>65</ele>
        <time>2020-10-29T13:34:59Z</time>
      </trkpt>
      <trkpt lat="44.88807" lon="-0.10022">
        <ele>66</ele>
        <time>2020-10-29T13:35:10Z</time>
      </trkpt>
      <trkpt lat="44.88807" lon="-0.10023">
        <ele>66</ele>
        <time>2020-10-29T13:35:11Z</time>
      </trkpt>
      <trkpt lat="44.88807" lon="-0.10025">
        <ele>66</ele>
        <time>2020-10-29T13:35:12Z</time>
      </trkpt>
      <trkpt lat="44.88805" lon="-0.1004">
        <ele>66</ele>
        <time>2020-10-29T13:35:24Z</time>
      </trkpt>
      <trkpt lat="44.88803" lon="-0.10058">
        <ele>66</ele>
        <time>2020-10-29T13:35:36Z</time>
      </trkpt>
      <trkpt lat="44.88803" lon="-0.10062">
        <ele>67</ele>
        <time>2020-10-29T13:35:39Z</time>
      </trkpt>
      <trkpt lat="44.88801" lon="-0.10085">
        <ele>67</ele>
        <time>2020-10-29T13:35:53Z</time>
      </trkpt>
      <trkpt lat="44.88798" lon="-0.10092">
        <ele>68</ele>
        <time>2020-10-29T13:36:00Z</time>
      </trkpt>
      <trkpt lat="44.88797" lon="-0.10093">
        <ele>68</ele>
        <time>2020-10-29T13:36:01Z</time>
      </trkpt>
      <trkpt lat="44.88796" lon="-0.10098">
        <ele>68</ele>
        <time>2020-10-29T13:36:06Z</time>
      </trkpt>
      <trkpt lat="44.88795" lon="-0.10106">
        <ele>68</ele>
        <time>2020-10-29T13:36:12Z</time>
      </trkpt>
      <trkpt lat="44.88791" lon="-0.10111">
        <ele>68</ele>
        <time>2020-10-29T13:36:17Z</time>
      </trkpt>
      <trkpt lat="44.8879" lon="-0.10112">
        <ele>69</ele>
        <time>2020-10-29T13:36:18Z</time>
      </trkpt>
      <trkpt lat="44.8879" lon="-0.10112">
        <ele>69</ele>
        <time>2020-10-29T13:36:31Z</time>
      </trkpt>
      <trkpt lat="44.88789" lon="-0.10113">
        <ele>69</ele>
        <time>2020-10-29T13:36:44Z</time>
      </trkpt>
      <trkpt lat="44.88786" lon="-0.10114">
        <ele>69</ele>
        <time>2020-10-29T13:36:52Z</time>
      </trkpt>
      <trkpt lat="44.88772" lon="-0.10115">
        <ele>69</ele>
        <time>2020-10-29T13:37:04Z</time>
      </trkpt>
      <trkpt lat="44.88764" lon="-0.10117">
        <ele>70</ele>
        <time>2020-10-29T13:37:14Z</time>
      </trkpt>
      <trkpt lat="44.88752" lon="-0.10117">
        <ele>70</ele>
        <time>2020-10-29T13:37:24Z</time>
      </trkpt>
      <trkpt lat="44.88741" lon="-0.1012">
        <ele>70</ele>
        <time>2020-10-29T13:37:36Z</time>
      </trkpt>
      <trkpt lat="44.88734" lon="-0.10124">
        <ele>70</ele>
        <time>2020-10-29T13:37:43Z</time>
      </trkpt>
      <trkpt lat="44.88723" lon="-0.10128">
        <ele>70</ele>
        <time>2020-10-29T13:37:55Z</time>
      </trkpt>
      <trkpt lat="44.88712" lon="-0.1013">
        <ele>71</ele>
        <time>2020-10-29T13:38:07Z</time>
      </trkpt>
      <trkpt lat="44.887" lon="-0.10133">
        <ele>71</ele>
        <time>2020-10-29T13:38:18Z</time>
      </trkpt>
      <trkpt lat="44.88695" lon="-0.10134">
        <ele>71</ele>
        <time>2020-10-29T13:38:22Z</time>
      </trkpt>
      <trkpt lat="44.8869" lon="-0.10136">
        <ele>71</ele>
        <time>2020-10-29T13:38:27Z</time>
      </trkpt>
      <trkpt lat="44.8868" lon="-0.10138">
        <ele>72</ele>
        <time>2020-10-29T13:38:37Z</time>
      </trkpt>
      <trkpt lat="44.88678" lon="-0.10139">
        <ele>72</ele>
        <time>2020-10-29T13:38:40Z</time>
      </trkpt>
      <trkpt lat="44.88665" lon="-0.10141">
        <ele>72</ele>
        <time>2020-10-29T13:38:52Z</time>
      </trkpt>
      <trkpt lat="44.88652" lon="-0.10143">
        <ele>74</ele>
        <time>2020-10-29T13:39:03Z</time>
      </trkpt>
      <trkpt lat="44.88649" lon="-0.10144">
        <ele>74</ele>
        <time>2020-10-29T13:39:08Z</time>
      </trkpt>
      <trkpt lat="44.88646" lon="-0.10146">
        <ele>74</ele>
        <time>2020-10-29T13:39:11Z</time>
      </trkpt>
      <trkpt lat="44.88634" lon="-0.10149">
        <ele>75</ele>
        <time>2020-10-29T13:39:25Z</time>
      </trkpt>
      <trkpt lat="44.88631" lon="-0.1015">
        <ele>76</ele>
        <time>2020-10-29T13:39:29Z</time>
      </trkpt>
      <trkpt lat="44.88627" lon="-0.1015">
        <ele>76</ele>
        <time>2020-10-29T13:39:33Z</time>
      </trkpt>
      <trkpt lat="44.88616" lon="-0.10154">
        <ele>77</ele>
        <time>2020-10-29T13:39:45Z</time>
      </trkpt>
      <trkpt lat="44.88616" lon="-0.10157">
        <ele>77</ele>
        <time>2020-10-29T13:39:48Z</time>
      </trkpt>
      <trkpt lat="44.88615" lon="-0.1016">
        <ele>77</ele>
        <time>2020-10-29T13:39:51Z</time>
      </trkpt>
      <trkpt lat="44.88619" lon="-0.10174">
        <ele>77</ele>
        <time>2020-10-29T13:40:03Z</time>
      </trkpt>
      <trkpt lat="44.88624" lon="-0.10186">
        <ele>78</ele>
        <time>2020-10-29T13:40:13Z</time>
      </trkpt>
      <trkpt lat="44.88627" lon="-0.10191">
        <ele>78</ele>
        <time>2020-10-29T13:40:17Z</time>
      </trkpt>
      <trkpt lat="44.88627" lon="-0.10197">
        <ele>78</ele>
        <time>2020-10-29T13:40:21Z</time>
      </trkpt>
      <trkpt lat="44.88628" lon="-0.10206">
        <ele>79</ele>
        <time>2020-10-29T13:40:31Z</time>
      </trkpt>
      <trkpt lat="44.88633" lon="-0.10222">
        <ele>79</ele>
        <time>2020-10-29T13:40:42Z</time>
      </trkpt>
      <trkpt lat="44.88641" lon="-0.10237">
        <ele>80</ele>
        <time>2020-10-29T13:40:56Z</time>
      </trkpt>
      <trkpt lat="44.88645" lon="-0.10245">
        <ele>80</ele>
        <time>2020-10-29T13:41:02Z</time>
      </trkpt>
      <trkpt lat="44.8865" lon="-0.10259">
        <ele>80</ele>
        <time>2020-10-29T13:41:14Z</time>
      </trkpt>
      <trkpt lat="44.88656" lon="-0.10275">
        <ele>81</ele>
        <time>2020-10-29T13:41:25Z</time>
      </trkpt>
      <trkpt lat="44.8866" lon="-0.10294">
        <ele>81</ele>
        <time>2020-10-29T13:41:38Z</time>
      </trkpt>
      <trkpt lat="44.88663" lon="-0.10301">
        <ele>81</ele>
        <time>2020-10-29T13:41:45Z</time>
      </trkpt>
      <trkpt lat="44.88666" lon="-0.1031">
        <ele>81</ele>
        <time>2020-10-29T13:41:50Z</time>
      </trkpt>
      <trkpt lat="44.88675" lon="-0.1033">
        <ele>81</ele>
        <time>2020-10-29T13:42:04Z</time>
      </trkpt>
      <trkpt lat="44.88681" lon="-0.10344">
        <ele>82</ele>
        <time>2020-10-29T13:42:16Z</time>
      </trkpt>
      <trkpt lat="44.88687" lon="-0.1036">
        <ele>82</ele>
        <time>2020-10-29T13:42:28Z</time>
      </trkpt>
      <trkpt lat="44.88689" lon="-0.10373">
        <ele>82</ele>
        <time>2020-10-29T13:42:34Z</time>
      </trkpt>
      <trkpt lat="44.88695" lon="-0.10389">
        <ele>82</ele>
        <time>2020-10-29T13:42:47Z</time>
      </trkpt>
      <trkpt lat="44.88695" lon="-0.10392">
        <ele>82</ele>
        <time>2020-10-29T13:42:48Z</time>
      </trkpt>
      <trkpt lat="44.887" lon="-0.10409">
        <ele>82</ele>
        <time>2020-10-29T13:43:01Z</time>
      </trkpt>
      <trkpt lat="44.88705" lon="-0.10425">
        <ele>82</ele>
        <time>2020-10-29T13:43:14Z</time>
      </trkpt>
      <trkpt lat="44.88711" lon="-0.10448">
        <ele>82</ele>
        <time>2020-10-29T13:43:28Z</time>
      </trkpt>
      <trkpt lat="44.88714" lon="-0.10454">
        <ele>82</ele>
        <time>2020-10-29T13:43:34Z</time>
      </trkpt>
      <trkpt lat="44.8872" lon="-0.10477">
        <ele>82</ele>
        <time>2020-10-29T13:43:47Z</time>
      </trkpt>
      <trkpt lat="44.88721" lon="-0.10496">
        <ele>82</ele>
        <time>2020-10-29T13:43:59Z</time>
      </trkpt>
      <trkpt lat="44.88723" lon="-0.10516">
        <ele>82</ele>
        <time>2020-10-29T13:44:12Z</time>
      </trkpt>
      <trkpt lat="44.88725" lon="-0.10531">
        <ele>83</ele>
        <time>2020-10-29T13:44:24Z</time>
      </trkpt>
      <trkpt lat="44.88728" lon="-0.1055">
        <ele>83</ele>
        <time>2020-10-29T13:44:36Z</time>
      </trkpt>
      <trkpt lat="44.88728" lon="-0.10557">
        <ele>83</ele>
        <time>2020-10-29T13:44:40Z</time>
      </trkpt>
      <trkpt lat="44.88729" lon="-0.10564">
        <ele>83</ele>
        <time>2020-10-29T13:44:45Z</time>
      </trkpt>
      <trkpt lat="44.88727" lon="-0.10571">
        <ele>84</ele>
        <time>2020-10-29T13:44:58Z</time>
      </trkpt>
      <trkpt lat="44.88725" lon="-0.10573">
        <ele>84</ele>
        <time>2020-10-29T13:45:09Z</time>
      </trkpt>
      <trkpt lat="44.88714" lon="-0.10589">
        <ele>84</ele>
        <time>2020-10-29T13:45:23Z</time>
      </trkpt>
      <trkpt lat="44.88707" lon="-0.10601">
        <ele>84</ele>
        <time>2020-10-29T13:45:37Z</time>
      </trkpt>
      <trkpt lat="44.88701" lon="-0.10606">
        <ele>84</ele>
        <time>2020-10-29T13:45:41Z</time>
      </trkpt>
      <trkpt lat="44.88686" lon="-0.10626">
        <ele>84</ele>
        <time>2020-10-29T13:45:57Z</time>
      </trkpt>
      <trkpt lat="44.88673" lon="-0.1064">
        <ele>84</ele>
        <time>2020-10-29T13:46:11Z</time>
      </trkpt>
      <trkpt lat="44.88672" lon="-0.10641">
        <ele>84</ele>
        <time>2020-10-29T13:46:12Z</time>
      </trkpt>
      <trkpt lat="44.88667" lon="-0.10646">
        <ele>84</ele>
        <time>2020-10-29T13:46:17Z</time>
      </trkpt>
      <trkpt lat="44.88662" lon="-0.10662">
        <ele>84</ele>
        <time>2020-10-29T13:46:30Z</time>
      </trkpt>
      <trkpt lat="44.88663" lon="-0.10674">
        <ele>84</ele>
        <time>2020-10-29T13:46:42Z</time>
      </trkpt>
      <trkpt lat="44.88665" lon="-0.10677">
        <ele>85</ele>
        <time>2020-10-29T13:47:01Z</time>
      </trkpt>
      <trkpt lat="44.88664" lon="-0.10678">
        <ele>85</ele>
        <time>2020-10-29T13:47:16Z</time>
      </trkpt>
      <trkpt lat="44.88664" lon="-0.10679">
        <ele>85</ele>
        <time>2020-10-29T13:47:23Z</time>
      </trkpt>
      <trkpt lat="44.88671" lon="-0.10694">
        <ele>84</ele>
        <time>2020-10-29T13:47:35Z</time>
      </trkpt>
      <trkpt lat="44.88678" lon="-0.10708">
        <ele>85</ele>
        <time>2020-10-29T13:47:47Z</time>
      </trkpt>
      <trkpt lat="44.88681" lon="-0.10715">
        <ele>85</ele>
        <time>2020-10-29T13:47:54Z</time>
      </trkpt>
      <trkpt lat="44.88685" lon="-0.10722">
        <ele>86</ele>
        <time>2020-10-29T13:47:58Z</time>
      </trkpt>
      <trkpt lat="44.88693" lon="-0.1074">
        <ele>87</ele>
        <time>2020-10-29T13:48:12Z</time>
      </trkpt>
      <trkpt lat="44.887" lon="-0.10756">
        <ele>88</ele>
        <time>2020-10-29T13:48:26Z</time>
      </trkpt>
      <trkpt lat="44.88705" lon="-0.10772">
        <ele>89</ele>
        <time>2020-10-29T13:48:37Z</time>
      </trkpt>
      <trkpt lat="44.88709" lon="-0.10781">
        <ele>90</ele>
        <time>2020-10-29T13:48:51Z</time>
      </trkpt>
      <trkpt lat="44.88709" lon="-0.10781">
        <ele>89</ele>
        <time>2020-10-29T13:49:16Z</time>
      </trkpt>
      <trkpt lat="44.88709" lon="-0.10781">
        <ele>91</ele>
        <time>2020-10-29T13:49:32Z</time>
      </trkpt>
      <trkpt lat="44.88709" lon="-0.10781">
        <ele>89</ele>
        <time>2020-10-29T13:49:35Z</time>
      </trkpt>
      <trkpt lat="44.88708" lon="-0.1078">
        <ele>88</ele>
        <time>2020-10-29T13:49:59Z</time>
      </trkpt>
      <trkpt lat="44.88708" lon="-0.1078">
        <ele>91</ele>
        <time>2020-10-29T13:50:00Z</time>
      </trkpt>
      <trkpt lat="44.88708" lon="-0.1078">
        <ele>90</ele>
        <time>2020-10-29T13:50:01Z</time>
      </trkpt>
      <trkpt lat="44.88708" lon="-0.10781">
        <ele>89</ele>
        <time>2020-10-29T13:50:03Z</time>
      </trkpt>
      <trkpt lat="44.88708" lon="-0.10781">
        <ele>91</ele>
        <time>2020-10-29T13:50:08Z</time>
      </trkpt>
      <trkpt lat="44.88708" lon="-0.10781">
        <ele>90</ele>
        <time>2020-10-29T13:50:10Z</time>
      </trkpt>
      <trkpt lat="44.88709" lon="-0.10781">
        <ele>89</ele>
        <time>2020-10-29T13:50:31Z</time>
      </trkpt>
      <trkpt lat="44.88708" lon="-0.10778">
        <ele>89</ele>
        <time>2020-10-29T13:50:51Z</time>
      </trkpt>
      <trkpt lat="44.88702" lon="-0.10767">
        <ele>87</ele>
        <time>2020-10-29T13:51:03Z</time>
      </trkpt>
      <trkpt lat="44.88702" lon="-0.10767">
        <ele>89</ele>
        <time>2020-10-29T13:51:05Z</time>
      </trkpt>
      <trkpt lat="44.88696" lon="-0.10754">
        <ele>88</ele>
        <time>2020-10-29T13:51:19Z</time>
      </trkpt>
      <trkpt lat="44.88695" lon="-0.1075">
        <ele>88</ele>
        <time>2020-10-29T13:51:22Z</time>
      </trkpt>
      <trkpt lat="44.88688" lon="-0.10733">
        <ele>87</ele>
        <time>2020-10-29T13:51:35Z</time>
      </trkpt>
      <trkpt lat="44.88685" lon="-0.10727">
        <ele>86</ele>
        <time>2020-10-29T13:51:40Z</time>
      </trkpt>
      <trkpt lat="44.88676" lon="-0.10709">
        <ele>85</ele>
        <time>2020-10-29T13:51:55Z</time>
      </trkpt>
      <trkpt lat="44.88667" lon="-0.10682">
        <ele>85</ele>
        <time>2020-10-29T13:52:09Z</time>
      </trkpt>
      <trkpt lat="44.88659" lon="-0.10668">
        <ele>85</ele>
        <time>2020-10-29T13:52:23Z</time>
      </trkpt>
      <trkpt lat="44.88657" lon="-0.10664">
        <ele>85</ele>
        <time>2020-10-29T13:52:38Z</time>
      </trkpt>
      <trkpt lat="44.88654" lon="-0.10655">
        <ele>84</ele>
        <time>2020-10-29T13:53:01Z</time>
      </trkpt>
      <trkpt lat="44.88646" lon="-0.10637">
        <ele>83</ele>
        <time>2020-10-29T13:53:17Z</time>
      </trkpt>
      <trkpt lat="44.8864" lon="-0.10621">
        <ele>83</ele>
        <time>2020-10-29T13:53:29Z</time>
      </trkpt>
      <trkpt lat="44.88627" lon="-0.10592">
        <ele>83</ele>
        <time>2020-10-29T13:53:47Z</time>
      </trkpt>
      <trkpt lat="44.88617" lon="-0.10566">
        <ele>83</ele>
        <time>2020-10-29T13:54:00Z</time>
      </trkpt>
      <trkpt lat="44.88607" lon="-0.10547">
        <ele>82</ele>
        <time>2020-10-29T13:54:15Z</time>
      </trkpt>
      <trkpt lat="44.88593" lon="-0.10538">
        <ele>82</ele>
        <time>2020-10-29T13:54:31Z</time>
      </trkpt>
      <trkpt lat="44.88585" lon="-0.10539">
        <ele>81</ele>
        <time>2020-10-29T13:54:39Z</time>
      </trkpt>
      <trkpt lat="44.88583" lon="-0.10538">
        <ele>81</ele>
        <time>2020-10-29T13:54:42Z</time>
      </trkpt>
      <trkpt lat="44.88579" lon="-0.10541">
        <ele>80</ele>
        <time>2020-10-29T13:54:46Z</time>
      </trkpt>
      <trkpt lat="44.88561" lon="-0.10558">
        <ele>80</ele>
        <time>2020-10-29T13:55:03Z</time>
      </trkpt>
      <trkpt lat="44.88545" lon="-0.10577">
        <ele>79</ele>
        <time>2020-10-29T13:55:18Z</time>
      </trkpt>
      <trkpt lat="44.88529" lon="-0.10605">
        <ele>78</ele>
        <time>2020-10-29T13:55:43Z</time>
      </trkpt>
      <trkpt lat="44.88507" lon="-0.10618">
        <ele>78</ele>
        <time>2020-10-29T13:56:03Z</time>
      </trkpt>
      <trkpt lat="44.88496" lon="-0.10613">
        <ele>76</ele>
        <time>2020-10-29T13:56:18Z</time>
      </trkpt>
      <trkpt lat="44.88486" lon="-0.10594">
        <ele>73</ele>
        <time>2020-10-29T13:56:33Z</time>
      </trkpt>
      <trkpt lat="44.88486" lon="-0.10589">
        <ele>73</ele>
        <time>2020-10-29T13:56:36Z</time>
      </trkpt>
      <trkpt lat="44.88484" lon="-0.10566">
        <ele>72</ele>
        <time>2020-10-29T13:56:50Z</time>
      </trkpt>
      <trkpt lat="44.88489" lon="-0.10549">
        <ele>71</ele>
        <time>2020-10-29T13:57:03Z</time>
      </trkpt>
      <trkpt lat="44.88504" lon="-0.10531">
        <ele>70</ele>
        <time>2020-10-29T13:57:20Z</time>
      </trkpt>
      <trkpt lat="44.88514" lon="-0.10515">
        <ele>69</ele>
        <time>2020-10-29T13:57:35Z</time>
      </trkpt>
      <trkpt lat="44.88522" lon="-0.10498">
        <ele>66</ele>
        <time>2020-10-29T13:57:46Z</time>
      </trkpt>
      <trkpt lat="44.88524" lon="-0.10492">
        <ele>68</ele>
        <time>2020-10-29T13:57:51Z</time>
      </trkpt>
      <trkpt lat="44.88523" lon="-0.10491">
        <ele>66</ele>
        <time>2020-10-29T13:57:53Z</time>
      </trkpt>
      <trkpt lat="44.88523" lon="-0.10483">
        <ele>66</ele>
        <time>2020-10-29T13:58:10Z</time>
      </trkpt>
      <trkpt lat="44.88522" lon="-0.10481">
        <ele>65</ele>
        <time>2020-10-29T13:58:12Z</time>
      </trkpt>
      <trkpt lat="44.88516" lon="-0.10461">
        <ele>64</ele>
        <time>2020-10-29T13:58:28Z</time>
      </trkpt>
      <trkpt lat="44.88515" lon="-0.10458">
        <ele>63</ele>
        <time>2020-10-29T13:58:30Z</time>
      </trkpt>
      <trkpt lat="44.885" lon="-0.10434">
        <ele>61</ele>
        <time>2020-10-29T13:58:44Z</time>
      </trkpt>
      <trkpt lat="44.88483" lon="-0.10413">
        <ele>59</ele>
        <time>2020-10-29T13:58:59Z</time>
      </trkpt>
      <trkpt lat="44.8847" lon="-0.10407">
        <ele>56</ele>
        <time>2020-10-29T13:59:17Z</time>
      </trkpt>
      <trkpt lat="44.88458" lon="-0.10405">
        <ele>54</ele>
        <time>2020-10-29T13:59:34Z</time>
      </trkpt>
      <trkpt lat="44.88441" lon="-0.10406">
        <ele>52</ele>
        <time>2020-10-29T13:59:49Z</time>
      </trkpt>
      <trkpt lat="44.88423" lon="-0.10393">
        <ele>50</ele>
        <time>2020-10-29T14:00:04Z</time>
      </trkpt>
      <trkpt lat="44.8841" lon="-0.10388">
        <ele>49</ele>
        <time>2020-10-29T14:00:13Z</time>
      </trkpt>
      <trkpt lat="44.88388" lon="-0.10383">
        <ele>45</ele>
        <time>2020-10-29T14:00:29Z</time>
      </trkpt>
      <trkpt lat="44.88362" lon="-0.10366">
        <ele>43</ele>
        <time>2020-10-29T14:00:49Z</time>
      </trkpt>
      <trkpt lat="44.88341" lon="-0.10356">
        <ele>41</ele>
        <time>2020-10-29T14:01:08Z</time>
      </trkpt>
      <trkpt lat="44.88333" lon="-0.10353">
        <ele>40</ele>
        <time>2020-10-29T14:01:23Z</time>
      </trkpt>
      <trkpt lat="44.88329" lon="-0.10353">
        <ele>40</ele>
        <time>2020-10-29T14:01:26Z</time>
      </trkpt>
      <trkpt lat="44.88321" lon="-0.10349">
        <ele>39</ele>
        <time>2020-10-29T14:01:31Z</time>
      </trkpt>
      <trkpt lat="44.88299" lon="-0.10346">
        <ele>37</ele>
        <time>2020-10-29T14:01:49Z</time>
      </trkpt>
      <trkpt lat="44.88287" lon="-0.10346">
        <ele>36</ele>
        <time>2020-10-29T14:02:02Z</time>
      </trkpt>
      <trkpt lat="44.88264" lon="-0.10338">
        <ele>34</ele>
        <time>2020-10-29T14:02:17Z</time>
      </trkpt>
      <trkpt lat="44.88243" lon="-0.10327">
        <ele>33</ele>
        <time>2020-10-29T14:02:31Z</time>
      </trkpt>
      <trkpt lat="44.88228" lon="-0.10322">
        <ele>31</ele>
        <time>2020-10-29T14:02:46Z</time>
      </trkpt>
      <trkpt lat="44.88214" lon="-0.10319">
        <ele>29</ele>
        <time>2020-10-29T14:03:02Z</time>
      </trkpt>
      <trkpt lat="44.88211" lon="-0.10318">
        <ele>20</ele>
        <time>2020-10-29T14:03:04Z</time>
      </trkpt>
      <trkpt lat="44.88209" lon="-0.10317">
        <ele>23</ele>
        <time>2020-10-29T14:03:05Z</time>
      </trkpt>
      <trkpt lat="44.88208" lon="-0.10316">
        <ele>38</ele>
        <time>2020-10-29T14:03:06Z</time>
      </trkpt>
      <trkpt lat="44.88206" lon="-0.10314">
        <ele>41</ele>
        <time>2020-10-29T14:03:08Z</time>
      </trkpt>
      <trkpt lat="44.88204" lon="-0.10314">
        <ele>31</ele>
        <time>2020-10-29T14:03:09Z</time>
      </trkpt>
      <trkpt lat="44.88201" lon="-0.10314">
        <ele>29</ele>
        <time>2020-10-29T14:03:11Z</time>
      </trkpt>
      <trkpt lat="44.88196" lon="-0.10311">
        <ele>29</ele>
        <time>2020-10-29T14:03:14Z</time>
      </trkpt>
      <trkpt lat="44.88183" lon="-0.103">
        <ele>28</ele>
        <time>2020-10-29T14:03:29Z</time>
      </trkpt>
      <trkpt lat="44.88163" lon="-0.10285">
        <ele>27</ele>
        <time>2020-10-29T14:03:46Z</time>
      </trkpt>
      <trkpt lat="44.88146" lon="-0.10272">
        <ele>23</ele>
        <time>2020-10-29T14:04:04Z</time>
      </trkpt>
      <trkpt lat="44.88145" lon="-0.1027">
        <ele>27</ele>
        <time>2020-10-29T14:04:05Z</time>
      </trkpt>
      <trkpt lat="44.88141" lon="-0.10263">
        <ele>24</ele>
        <time>2020-10-29T14:04:11Z</time>
      </trkpt>
      <trkpt lat="44.88136" lon="-0.10258">
        <ele>24</ele>
        <time>2020-10-29T14:04:16Z</time>
      </trkpt>
      <trkpt lat="44.88136" lon="-0.10256">
        <ele>13</ele>
        <time>2020-10-29T14:04:18Z</time>
      </trkpt>
      <trkpt lat="44.88135" lon="-0.10255">
        <ele>31</ele>
        <time>2020-10-29T14:04:19Z</time>
      </trkpt>
      <trkpt lat="44.88134" lon="-0.10254">
        <ele>29</ele>
        <time>2020-10-29T14:04:20Z</time>
      </trkpt>
      <trkpt lat="44.88132" lon="-0.10253">
        <ele>25</ele>
        <time>2020-10-29T14:04:21Z</time>
      </trkpt>
      <trkpt lat="44.8813" lon="-0.10251">
        <ele>24</ele>
        <time>2020-10-29T14:04:23Z</time>
      </trkpt>
      <trkpt lat="44.88128" lon="-0.10248">
        <ele>24</ele>
        <time>2020-10-29T14:04:26Z</time>
      </trkpt>
      <trkpt lat="44.88125" lon="-0.10244">
        <ele>13</ele>
        <time>2020-10-29T14:04:29Z</time>
      </trkpt>
      <trkpt lat="44.88123" lon="-0.10243">
        <ele>32</ele>
        <time>2020-10-29T14:04:30Z</time>
      </trkpt>
      <trkpt lat="44.88122" lon="-0.10241">
        <ele>26</ele>
        <time>2020-10-29T14:04:31Z</time>
      </trkpt>
      <trkpt lat="44.88109" lon="-0.1022">
        <ele>23</ele>
        <time>2020-10-29T14:04:48Z</time>
      </trkpt>
      <trkpt lat="44.88097" lon="-0.10198">
        <ele>22</ele>
        <time>2020-10-29T14:05:06Z</time>
      </trkpt>
      <trkpt lat="44.88087" lon="-0.10176">
        <ele>22</ele>
        <time>2020-10-29T14:05:22Z</time>
      </trkpt>
      <trkpt lat="44.88085" lon="-0.10174">
        <ele>21</ele>
        <time>2020-10-29T14:05:24Z</time>
      </trkpt>
      <trkpt lat="44.88074" lon="-0.10152">
        <ele>21</ele>
        <time>2020-10-29T14:05:38Z</time>
      </trkpt>
      <trkpt lat="44.88061" lon="-0.10128">
        <ele>20</ele>
        <time>2020-10-29T14:05:57Z</time>
      </trkpt>
      <trkpt lat="44.88054" lon="-0.10113">
        <ele>20</ele>
        <time>2020-10-29T14:06:07Z</time>
      </trkpt>
      <trkpt lat="44.88049" lon="-0.10104">
        <ele>19</ele>
        <time>2020-10-29T14:06:13Z</time>
      </trkpt>
      <trkpt lat="44.88039" lon="-0.10091">
        <ele>19</ele>
        <time>2020-10-29T14:06:24Z</time>
      </trkpt>
      <trkpt lat="44.88021" lon="-0.1008">
        <ele>18</ele>
        <time>2020-10-29T14:06:39Z</time>
      </trkpt>
      <trkpt lat="44.88002" lon="-0.10075">
        <ele>17</ele>
        <time>2020-10-29T14:06:56Z</time>
      </trkpt>
      <trkpt lat="44.87984" lon="-0.10071">
        <ele>17</ele>
        <time>2020-10-29T14:07:12Z</time>
      </trkpt>
      <trkpt lat="44.8797" lon="-0.1005">
        <ele>17</ele>
        <time>2020-10-29T14:07:29Z</time>
      </trkpt>
      <trkpt lat="44.87974" lon="-0.10028">
        <ele>17</ele>
        <time>2020-10-29T14:07:42Z</time>
      </trkpt>
      <trkpt lat="44.87979" lon="-0.10005">
        <ele>17</ele>
        <time>2020-10-29T14:08:01Z</time>
      </trkpt>
      <trkpt lat="44.87985" lon="-0.09986">
        <ele>17</ele>
        <time>2020-10-29T14:08:15Z</time>
      </trkpt>
      <trkpt lat="44.87987" lon="-0.09963">
        <ele>17</ele>
        <time>2020-10-29T14:08:29Z</time>
      </trkpt>
      <trkpt lat="44.87988" lon="-0.0995">
        <ele>17</ele>
        <time>2020-10-29T14:08:42Z</time>
      </trkpt>
      <trkpt lat="44.87986" lon="-0.0992">
        <ele>18</ele>
        <time>2020-10-29T14:08:57Z</time>
      </trkpt>
      <trkpt lat="44.87985" lon="-0.099">
        <ele>18</ele>
        <time>2020-10-29T14:09:13Z</time>
      </trkpt>
      <trkpt lat="44.87981" lon="-0.09873">
        <ele>18</ele>
        <time>2020-10-29T14:09:29Z</time>
      </trkpt>
      <trkpt lat="44.87979" lon="-0.09864">
        <ele>18</ele>
        <time>2020-10-29T14:09:35Z</time>
      </trkpt>
      <trkpt lat="44.87979" lon="-0.09862">
        <ele>18</ele>
        <time>2020-10-29T14:09:36Z</time>
      </trkpt>
      <trkpt lat="44.87976" lon="-0.09841">
        <ele>18</ele>
        <time>2020-10-29T14:09:51Z</time>
      </trkpt>
      <trkpt lat="44.87976" lon="-0.09839">
        <ele>18</ele>
        <time>2020-10-29T14:09:52Z</time>
      </trkpt>
      <trkpt lat="44.87976" lon="-0.09817">
        <ele>18</ele>
        <time>2020-10-29T14:10:05Z</time>
      </trkpt>
      <trkpt lat="44.87976" lon="-0.09814">
        <ele>18</ele>
        <time>2020-10-29T14:10:06Z</time>
      </trkpt>
      <trkpt lat="44.87975" lon="-0.09812">
        <ele>18</ele>
        <time>2020-10-29T14:10:07Z</time>
      </trkpt>
      <trkpt lat="44.87962" lon="-0.09789">
        <ele>20</ele>
        <time>2020-10-29T14:10:25Z</time>
      </trkpt>
      <trkpt lat="44.87962" lon="-0.09788">
        <ele>20</ele>
        <time>2020-10-29T14:10:26Z</time>
      </trkpt>
      <trkpt lat="44.87955" lon="-0.09784">
        <ele>20</ele>
        <time>2020-10-29T14:10:39Z</time>
      </trkpt>
      <trkpt lat="44.87952" lon="-0.09784">
        <ele>19</ele>
        <time>2020-10-29T14:11:11Z</time>
      </trkpt>
    </trkseg>
  </trk>
  <trk>
    <name><![CDATA[Boucle de Sainte-Colombe à Saint-Magne-de-Castillon]]></name>
    <extensions>
      <line xmlns="http://www.topografix.com/GPX/gpx_style/0/2">
        <color>FFFF00</color>
        <width>4</width>
      </line>
    </extensions>
    <trkseg>
      <trkpt lat="44.87819" lon="-0.06913">
        <ele>46</ele>
        <time>2021-07-16T09:44:16+02:00</time>
      </trkpt>
      <trkpt lat="44.87839" lon="-0.0696">
        <ele>45</ele>
        <time>2021-07-16T09:44:21+02:00</time>
      </trkpt>
      <trkpt lat="44.8784" lon="-0.06979">
        <ele>44</ele>
        <time>2021-07-16T09:44:26+02:00</time>
      </trkpt>
      <trkpt lat="44.87824" lon="-0.06995">
        <ele>44</ele>
        <time>2021-07-16T09:44:31+02:00</time>
      </trkpt>
      <trkpt lat="44.87814" lon="-0.06998">
        <ele>43</ele>
        <time>2021-07-16T09:44:36+02:00</time>
      </trkpt>
      <trkpt lat="44.8784" lon="-0.07116">
        <ele>36</ele>
        <time>2021-07-16T09:44:41+02:00</time>
      </trkpt>
      <trkpt lat="44.87857" lon="-0.07205">
        <ele>33</ele>
        <time>2021-07-16T09:44:46+02:00</time>
      </trkpt>
      <trkpt lat="44.87853" lon="-0.07306">
        <ele>31</ele>
        <time>2021-07-16T09:44:51+02:00</time>
      </trkpt>
      <trkpt lat="44.87865" lon="-0.0735">
        <ele>30</ele>
        <time>2021-07-16T09:44:56+02:00</time>
      </trkpt>
      <trkpt lat="44.8788" lon="-0.07371">
        <ele>30</ele>
        <time>2021-07-16T09:45:01+02:00</time>
      </trkpt>
      <trkpt lat="44.87882" lon="-0.07459">
        <ele>30</ele>
        <time>2021-07-16T09:45:06+02:00</time>
      </trkpt>
      <trkpt lat="44.87902" lon="-0.07512">
        <ele>31</ele>
        <time>2021-07-16T09:45:11+02:00</time>
      </trkpt>
      <trkpt lat="44.87952" lon="-0.07573">
        <ele>31</ele>
        <time>2021-07-16T09:45:16+02:00</time>
      </trkpt>
      <trkpt lat="44.87971" lon="-0.07591">
        <ele>31</ele>
        <time>2021-07-16T09:45:21+02:00</time>
      </trkpt>
      <trkpt lat="44.87978" lon="-0.0761">
        <ele>32</ele>
        <time>2021-07-16T09:45:26+02:00</time>
      </trkpt>
      <trkpt lat="44.87964" lon="-0.07631">
        <ele>32</ele>
        <time>2021-07-16T09:45:31+02:00</time>
      </trkpt>
      <trkpt lat="44.87945" lon="-0.07645">
        <ele>32</ele>
        <time>2021-07-16T09:45:36+02:00</time>
      </trkpt>
      <trkpt lat="44.8789" lon="-0.07656">
        <ele>32</ele>
        <time>2021-07-16T09:45:41+02:00</time>
      </trkpt>
      <trkpt lat="44.87833" lon="-0.07661">
        <ele>34</ele>
        <time>2021-07-16T09:45:46+02:00</time>
      </trkpt>
      <trkpt lat="44.87808" lon="-0.0767">
        <ele>34</ele>
        <time>2021-07-16T09:45:51+02:00</time>
      </trkpt>
      <trkpt lat="44.87775" lon="-0.07698">
        <ele>35</ele>
        <time>2021-07-16T09:45:56+02:00</time>
      </trkpt>
      <trkpt lat="44.8775" lon="-0.07722">
        <ele>36</ele>
        <time>2021-07-16T09:46:01+02:00</time>
      </trkpt>
      <trkpt lat="44.87734" lon="-0.0773">
        <ele>37</ele>
        <time>2021-07-16T09:46:06+02:00</time>
      </trkpt>
      <trkpt lat="44.87713" lon="-0.07732">
        <ele>37</ele>
        <time>2021-07-16T09:46:11+02:00</time>
      </trkpt>
      <trkpt lat="44.87698" lon="-0.0774">
        <ele>37</ele>
        <time>2021-07-16T09:46:16+02:00</time>
      </trkpt>
      <trkpt lat="44.87657" lon="-0.07682">
        <ele>33</ele>
        <time>2021-07-16T09:46:21+02:00</time>
      </trkpt>
      <trkpt lat="44.87609" lon="-0.07594">
        <ele>29</ele>
        <time>2021-07-16T09:46:26+02:00</time>
      </trkpt>
      <trkpt lat="44.87603" lon="-0.0759">
        <ele>29</ele>
        <time>2021-07-16T09:46:31+02:00</time>
      </trkpt>
      <trkpt lat="44.8757" lon="-0.07599">
        <ele>29</ele>
        <time>2021-07-16T09:46:36+02:00</time>
      </trkpt>
      <trkpt lat="44.87561" lon="-0.07596">
        <ele>29</ele>
        <time>2021-07-16T09:46:41+02:00</time>
      </trkpt>
      <trkpt lat="44.87555" lon="-0.07582">
        <ele>28</ele>
        <time>2021-07-16T09:46:46+02:00</time>
      </trkpt>
      <trkpt lat="44.87544" lon="-0.07584">
        <ele>28</ele>
        <time>2021-07-16T09:46:51+02:00</time>
      </trkpt>
      <trkpt lat="44.875" lon="-0.07618">
        <ele>27</ele>
        <time>2021-07-16T09:46:56+02:00</time>
      </trkpt>
      <trkpt lat="44.87469" lon="-0.07645">
        <ele>27</ele>
        <time>2021-07-16T09:47:01+02:00</time>
      </trkpt>
      <trkpt lat="44.87461" lon="-0.07643">
        <ele>27</ele>
        <time>2021-07-16T09:47:06+02:00</time>
      </trkpt>
      <trkpt lat="44.87439" lon="-0.07578">
        <ele>26</ele>
        <time>2021-07-16T09:47:11+02:00</time>
      </trkpt>
      <trkpt lat="44.87401" lon="-0.07614">
        <ele>26</ele>
        <time>2021-07-16T09:47:16+02:00</time>
      </trkpt>
      <trkpt lat="44.87335" lon="-0.07657">
        <ele>25</ele>
        <time>2021-07-16T09:47:21+02:00</time>
      </trkpt>
      <trkpt lat="44.87136" lon="-0.07838">
        <ele>25</ele>
        <time>2021-07-16T09:47:26+02:00</time>
      </trkpt>
      <trkpt lat="44.87115" lon="-0.07814">
        <ele>25</ele>
        <time>2021-07-16T09:47:31+02:00</time>
      </trkpt>
      <trkpt lat="44.87105" lon="-0.07778">
        <ele>24</ele>
        <time>2021-07-16T09:47:36+02:00</time>
      </trkpt>
      <trkpt lat="44.87073" lon="-0.0771">
        <ele>25</ele>
        <time>2021-07-16T09:47:41+02:00</time>
      </trkpt>
      <trkpt lat="44.87018" lon="-0.07609">
        <ele>29</ele>
        <time>2021-07-16T09:47:46+02:00</time>
      </trkpt>
      <trkpt lat="44.87037" lon="-0.07578">
        <ele>30</ele>
        <time>2021-07-16T09:47:51+02:00</time>
      </trkpt>
      <trkpt lat="44.87007" lon="-0.07504">
        <ele>34</ele>
        <time>2021-07-16T09:47:56+02:00</time>
      </trkpt>
      <trkpt lat="44.86999" lon="-0.07464">
        <ele>36</ele>
        <time>2021-07-16T09:48:01+02:00</time>
      </trkpt>
      <trkpt lat="44.86999" lon="-0.07431">
        <ele>37</ele>
        <time>2021-07-16T09:48:06+02:00</time>
      </trkpt>
      <trkpt lat="44.8699" lon="-0.07416">
        <ele>38</ele>
        <time>2021-07-16T09:48:11+02:00</time>
      </trkpt>
      <trkpt lat="44.86968" lon="-0.07398">
        <ele>39</ele>
        <time>2021-07-16T09:48:16+02:00</time>
      </trkpt>
      <trkpt lat="44.86936" lon="-0.07386">
        <ele>39</ele>
        <time>2021-07-16T09:48:21+02:00</time>
      </trkpt>
      <trkpt lat="44.86915" lon="-0.07378">
        <ele>39</ele>
        <time>2021-07-16T09:48:26+02:00</time>
      </trkpt>
      <trkpt lat="44.86895" lon="-0.07354">
        <ele>38</ele>
        <time>2021-07-16T09:48:31+02:00</time>
      </trkpt>
      <trkpt lat="44.86867" lon="-0.07325">
        <ele>36</ele>
        <time>2021-07-16T09:48:36+02:00</time>
      </trkpt>
      <trkpt lat="44.86829" lon="-0.07267">
        <ele>36</ele>
        <time>2021-07-16T09:48:41+02:00</time>
      </trkpt>
      <trkpt lat="44.86762" lon="-0.07118">
        <ele>35</ele>
        <time>2021-07-16T09:48:46+02:00</time>
      </trkpt>
      <trkpt lat="44.86743" lon="-0.07062">
        <ele>35</ele>
        <time>2021-07-16T09:48:51+02:00</time>
      </trkpt>
      <trkpt lat="44.86679" lon="-0.06974">
        <ele>33</ele>
        <time>2021-07-16T09:48:56+02:00</time>
      </trkpt>
      <trkpt lat="44.86665" lon="-0.0695">
        <ele>32</ele>
        <time>2021-07-16T09:49:01+02:00</time>
      </trkpt>
      <trkpt lat="44.86651" lon="-0.06917">
        <ele>32</ele>
        <time>2021-07-16T09:49:06+02:00</time>
      </trkpt>
      <trkpt lat="44.86626" lon="-0.06882">
        <ele>31</ele>
        <time>2021-07-16T09:49:11+02:00</time>
      </trkpt>
      <trkpt lat="44.86609" lon="-0.06849">
        <ele>31</ele>
        <time>2021-07-16T09:49:16+02:00</time>
      </trkpt>
      <trkpt lat="44.86582" lon="-0.06781">
        <ele>31</ele>
        <time>2021-07-16T09:49:21+02:00</time>
      </trkpt>
      <trkpt lat="44.86524" lon="-0.06818">
        <ele>28</ele>
        <time>2021-07-16T09:49:26+02:00</time>
      </trkpt>
      <trkpt lat="44.8651" lon="-0.06813">
        <ele>28</ele>
        <time>2021-07-16T09:49:31+02:00</time>
      </trkpt>
      <trkpt lat="44.86507" lon="-0.06799">
        <ele>28</ele>
        <time>2021-07-16T09:49:36+02:00</time>
      </trkpt>
      <trkpt lat="44.86501" lon="-0.06756">
        <ele>29</ele>
        <time>2021-07-16T09:49:41+02:00</time>
      </trkpt>
      <trkpt lat="44.86472" lon="-0.06628">
        <ele>29</ele>
        <time>2021-07-16T09:49:46+02:00</time>
      </trkpt>
      <trkpt lat="44.86434" lon="-0.06489">
        <ele>27</ele>
        <time>2021-07-16T09:49:51+02:00</time>
      </trkpt>
      <trkpt lat="44.86385" lon="-0.06442">
        <ele>25</ele>
        <time>2021-07-16T09:49:56+02:00</time>
      </trkpt>
      <trkpt lat="44.86386" lon="-0.06435">
        <ele>25</ele>
        <time>2021-07-16T09:50:01+02:00</time>
      </trkpt>
      <trkpt lat="44.86399" lon="-0.06429">
        <ele>26</ele>
        <time>2021-07-16T09:50:06+02:00</time>
      </trkpt>
      <trkpt lat="44.86413" lon="-0.06412">
        <ele>26</ele>
        <time>2021-07-16T09:50:11+02:00</time>
      </trkpt>
      <trkpt lat="44.86416" lon="-0.06391">
        <ele>26</ele>
        <time>2021-07-16T09:50:16+02:00</time>
      </trkpt>
      <trkpt lat="44.86416" lon="-0.06369">
        <ele>27</ele>
        <time>2021-07-16T09:50:21+02:00</time>
      </trkpt>
      <trkpt lat="44.86411" lon="-0.06336">
        <ele>27</ele>
        <time>2021-07-16T09:50:26+02:00</time>
      </trkpt>
      <trkpt lat="44.86405" lon="-0.06247">
        <ele>26</ele>
        <time>2021-07-16T09:50:31+02:00</time>
      </trkpt>
      <trkpt lat="44.86393" lon="-0.06162">
        <ele>26</ele>
        <time>2021-07-16T09:50:36+02:00</time>
      </trkpt>
      <trkpt lat="44.86394" lon="-0.06125">
        <ele>26</ele>
        <time>2021-07-16T09:50:41+02:00</time>
      </trkpt>
      <trkpt lat="44.86398" lon="-0.06091">
        <ele>27</ele>
        <time>2021-07-16T09:50:46+02:00</time>
      </trkpt>
      <trkpt lat="44.86435" lon="-0.0609">
        <ele>29</ele>
        <time>2021-07-16T09:50:51+02:00</time>
      </trkpt>
      <trkpt lat="44.86512" lon="-0.06085">
        <ele>32</ele>
        <time>2021-07-16T09:50:56+02:00</time>
      </trkpt>
      <trkpt lat="44.86539" lon="-0.06082">
        <ele>34</ele>
        <time>2021-07-16T09:51:01+02:00</time>
      </trkpt>
      <trkpt lat="44.86573" lon="-0.06073">
        <ele>37</ele>
        <time>2021-07-16T09:51:06+02:00</time>
      </trkpt>
      <trkpt lat="44.86604" lon="-0.06074">
        <ele>41</ele>
        <time>2021-07-16T09:51:11+02:00</time>
      </trkpt>
      <trkpt lat="44.86672" lon="-0.06057">
        <ele>51</ele>
        <time>2021-07-16T09:51:16+02:00</time>
      </trkpt>
      <trkpt lat="44.86682" lon="-0.06053">
        <ele>52</ele>
        <time>2021-07-16T09:51:21+02:00</time>
      </trkpt>
      <trkpt lat="44.86743" lon="-0.06013">
        <ele>56</ele>
        <time>2021-07-16T09:51:26+02:00</time>
      </trkpt>
      <trkpt lat="44.86816" lon="-0.05951">
        <ele>50</ele>
        <time>2021-07-16T09:51:31+02:00</time>
      </trkpt>
      <trkpt lat="44.86832" lon="-0.05948">
        <ele>50</ele>
        <time>2021-07-16T09:51:36+02:00</time>
      </trkpt>
      <trkpt lat="44.86845" lon="-0.05958">
        <ele>51</ele>
        <time>2021-07-16T09:51:41+02:00</time>
      </trkpt>
      <trkpt lat="44.86896" lon="-0.0602">
        <ele>54</ele>
        <time>2021-07-16T09:51:46+02:00</time>
      </trkpt>
      <trkpt lat="44.86937" lon="-0.06106">
        <ele>60</ele>
        <time>2021-07-16T09:51:51+02:00</time>
      </trkpt>
      <trkpt lat="44.8704" lon="-0.06076">
        <ele>64</ele>
        <time>2021-07-16T09:51:56+02:00</time>
      </trkpt>
      <trkpt lat="44.87127" lon="-0.06076">
        <ele>75</ele>
        <time>2021-07-16T09:52:01+02:00</time>
      </trkpt>
      <trkpt lat="44.87136" lon="-0.06067">
        <ele>76</ele>
        <time>2021-07-16T09:52:06+02:00</time>
      </trkpt>
      <trkpt lat="44.87152" lon="-0.06068">
        <ele>78</ele>
        <time>2021-07-16T09:52:11+02:00</time>
      </trkpt>
      <trkpt lat="44.87174" lon="-0.06183">
        <ele>79</ele>
        <time>2021-07-16T09:52:16+02:00</time>
      </trkpt>
      <trkpt lat="44.87205" lon="-0.06251">
        <ele>81</ele>
        <time>2021-07-16T09:52:21+02:00</time>
      </trkpt>
      <trkpt lat="44.87094" lon="-0.06322">
        <ele>81</ele>
        <time>2021-07-16T09:52:26+02:00</time>
      </trkpt>
      <trkpt lat="44.87047" lon="-0.06365">
        <ele>83</ele>
        <time>2021-07-16T09:52:31+02:00</time>
      </trkpt>
      <trkpt lat="44.86743" lon="-0.06612">
        <ele>66</ele>
        <time>2021-07-16T09:52:36+02:00</time>
      </trkpt>
      <trkpt lat="44.8671" lon="-0.06659">
        <ele>53</ele>
        <time>2021-07-16T09:52:41+02:00</time>
      </trkpt>
      <trkpt lat="44.86701" lon="-0.06695">
        <ele>49</ele>
        <time>2021-07-16T09:52:46+02:00</time>
      </trkpt>
      <trkpt lat="44.86742" lon="-0.06726">
        <ele>52</ele>
        <time>2021-07-16T09:52:51+02:00</time>
      </trkpt>
      <trkpt lat="44.86752" lon="-0.06723">
        <ele>53</ele>
        <time>2021-07-16T09:52:56+02:00</time>
      </trkpt>
      <trkpt lat="44.86938" lon="-0.06549">
        <ele>94</ele>
        <time>2021-07-16T09:53:01+02:00</time>
      </trkpt>
      <trkpt lat="44.86953" lon="-0.06546">
        <ele>94</ele>
        <time>2021-07-16T09:53:06+02:00</time>
      </trkpt>
      <trkpt lat="44.87017" lon="-0.06517">
        <ele>92</ele>
        <time>2021-07-16T09:53:11+02:00</time>
      </trkpt>
      <trkpt lat="44.87047" lon="-0.06527">
        <ele>91</ele>
        <time>2021-07-16T09:53:16+02:00</time>
      </trkpt>
      <trkpt lat="44.87163" lon="-0.06453">
        <ele>87</ele>
        <time>2021-07-16T09:53:21+02:00</time>
      </trkpt>
      <trkpt lat="44.87182" lon="-0.06444">
        <ele>86</ele>
        <time>2021-07-16T09:53:26+02:00</time>
      </trkpt>
      <trkpt lat="44.87277" lon="-0.06375">
        <ele>85</ele>
        <time>2021-07-16T09:53:31+02:00</time>
      </trkpt>
      <trkpt lat="44.87404" lon="-0.06359">
        <ele>85</ele>
        <time>2021-07-16T09:53:36+02:00</time>
      </trkpt>
      <trkpt lat="44.87428" lon="-0.06345">
        <ele>85</ele>
        <time>2021-07-16T09:53:41+02:00</time>
      </trkpt>
      <trkpt lat="44.87501" lon="-0.06269">
        <ele>84</ele>
        <time>2021-07-16T09:53:46+02:00</time>
      </trkpt>
      <trkpt lat="44.87564" lon="-0.06266">
        <ele>84</ele>
        <time>2021-07-16T09:53:51+02:00</time>
      </trkpt>
      <trkpt lat="44.87578" lon="-0.06272">
        <ele>85</ele>
        <time>2021-07-16T09:53:56+02:00</time>
      </trkpt>
      <trkpt lat="44.87555" lon="-0.06211">
        <ele>81</ele>
        <time>2021-07-16T09:54:01+02:00</time>
      </trkpt>
      <trkpt lat="44.87544" lon="-0.06195">
        <ele>80</ele>
        <time>2021-07-16T09:54:06+02:00</time>
      </trkpt>
      <trkpt lat="44.8753" lon="-0.06168">
        <ele>78</ele>
        <time>2021-07-16T09:54:11+02:00</time>
      </trkpt>
      <trkpt lat="44.87508" lon="-0.06109">
        <ele>75</ele>
        <time>2021-07-16T09:54:16+02:00</time>
      </trkpt>
      <trkpt lat="44.8749" lon="-0.06041">
        <ele>70</ele>
        <time>2021-07-16T09:54:21+02:00</time>
      </trkpt>
      <trkpt lat="44.87477" lon="-0.05806">
        <ele>61</ele>
        <time>2021-07-16T09:54:26+02:00</time>
      </trkpt>
      <trkpt lat="44.8748" lon="-0.05774">
        <ele>60</ele>
        <time>2021-07-16T09:54:31+02:00</time>
      </trkpt>
      <trkpt lat="44.87487" lon="-0.05731">
        <ele>60</ele>
        <time>2021-07-16T09:54:36+02:00</time>
      </trkpt>
      <trkpt lat="44.87486" lon="-0.05686">
        <ele>59</ele>
        <time>2021-07-16T09:54:41+02:00</time>
      </trkpt>
      <trkpt lat="44.87517" lon="-0.05702">
        <ele>60</ele>
        <time>2021-07-16T09:54:46+02:00</time>
      </trkpt>
      <trkpt lat="44.87588" lon="-0.05718">
        <ele>57</ele>
        <time>2021-07-16T09:54:51+02:00</time>
      </trkpt>
      <trkpt lat="44.87646" lon="-0.05746">
        <ele>56</ele>
        <time>2021-07-16T09:54:56+02:00</time>
      </trkpt>
      <trkpt lat="44.87669" lon="-0.05752">
        <ele>55</ele>
        <time>2021-07-16T09:55:01+02:00</time>
      </trkpt>
      <trkpt lat="44.87696" lon="-0.05753">
        <ele>57</ele>
        <time>2021-07-16T09:55:06+02:00</time>
      </trkpt>
      <trkpt lat="44.87707" lon="-0.05765">
        <ele>57</ele>
        <time>2021-07-16T09:55:11+02:00</time>
      </trkpt>
      <trkpt lat="44.87708" lon="-0.05741">
        <ele>58</ele>
        <time>2021-07-16T09:55:16+02:00</time>
      </trkpt>
      <trkpt lat="44.87815" lon="-0.05695">
        <ele>74</ele>
        <time>2021-07-16T09:55:21+02:00</time>
      </trkpt>
      <trkpt lat="44.8782" lon="-0.05693">
        <ele>75</ele>
        <time>2021-07-16T09:55:26+02:00</time>
      </trkpt>
      <trkpt lat="44.8782" lon="-0.05681">
        <ele>75</ele>
        <time>2021-07-16T09:55:31+02:00</time>
      </trkpt>
      <trkpt lat="44.87853" lon="-0.05668">
        <ele>79</ele>
        <time>2021-07-16T09:55:36+02:00</time>
      </trkpt>
      <trkpt lat="44.87862" lon="-0.05666">
        <ele>80</ele>
        <time>2021-07-16T09:55:41+02:00</time>
      </trkpt>
      <trkpt lat="44.87864" lon="-0.05655">
        <ele>81</ele>
        <time>2021-07-16T09:55:46+02:00</time>
      </trkpt>
      <trkpt lat="44.87825" lon="-0.05601">
        <ele>79</ele>
        <time>2021-07-16T09:55:51+02:00</time>
      </trkpt>
      <trkpt lat="44.87817" lon="-0.05573">
        <ele>79</ele>
        <time>2021-07-16T09:55:56+02:00</time>
      </trkpt>
      <trkpt lat="44.8778" lon="-0.0545">
        <ele>78</ele>
        <time>2021-07-16T09:56:01+02:00</time>
      </trkpt>
      <trkpt lat="44.87756" lon="-0.0543">
        <ele>75</ele>
        <time>2021-07-16T09:56:06+02:00</time>
      </trkpt>
      <trkpt lat="44.87744" lon="-0.05401">
        <ele>75</ele>
        <time>2021-07-16T09:56:11+02:00</time>
      </trkpt>
      <trkpt lat="44.87717" lon="-0.0538">
        <ele>71</ele>
        <time>2021-07-16T09:56:16+02:00</time>
      </trkpt>
      <trkpt lat="44.87708" lon="-0.05368">
        <ele>70</ele>
        <time>2021-07-16T09:56:21+02:00</time>
      </trkpt>
      <trkpt lat="44.87711" lon="-0.0535">
        <ele>72</ele>
        <time>2021-07-16T09:56:26+02:00</time>
      </trkpt>
      <trkpt lat="44.87726" lon="-0.05377">
        <ele>73</ele>
        <time>2021-07-16T09:56:31+02:00</time>
      </trkpt>
      <trkpt lat="44.87745" lon="-0.05385">
        <ele>76</ele>
        <time>2021-07-16T09:56:36+02:00</time>
      </trkpt>
      <trkpt lat="44.87861" lon="-0.05398">
        <ele>86</ele>
        <time>2021-07-16T09:56:41+02:00</time>
      </trkpt>
      <trkpt lat="44.87895" lon="-0.05408">
        <ele>86</ele>
        <time>2021-07-16T09:56:46+02:00</time>
      </trkpt>
      <trkpt lat="44.87956" lon="-0.05432">
        <ele>85</ele>
        <time>2021-07-16T09:56:51+02:00</time>
      </trkpt>
      <trkpt lat="44.87997" lon="-0.05432">
        <ele>84</ele>
        <time>2021-07-16T09:56:56+02:00</time>
      </trkpt>
      <trkpt lat="44.88019" lon="-0.05443">
        <ele>82</ele>
        <time>2021-07-16T09:57:01+02:00</time>
      </trkpt>
      <trkpt lat="44.88036" lon="-0.05479">
        <ele>83</ele>
        <time>2021-07-16T09:57:06+02:00</time>
      </trkpt>
      <trkpt lat="44.88042" lon="-0.05515">
        <ele>84</ele>
        <time>2021-07-16T09:57:11+02:00</time>
      </trkpt>
      <trkpt lat="44.88082" lon="-0.05604">
        <ele>86</ele>
        <time>2021-07-16T09:57:16+02:00</time>
      </trkpt>
      <trkpt lat="44.8809" lon="-0.05656">
        <ele>89</ele>
        <time>2021-07-16T09:57:21+02:00</time>
      </trkpt>
      <trkpt lat="44.88091" lon="-0.05726">
        <ele>91</ele>
        <time>2021-07-16T09:57:26+02:00</time>
      </trkpt>
      <trkpt lat="44.88096" lon="-0.05762">
        <ele>91</ele>
        <time>2021-07-16T09:57:31+02:00</time>
      </trkpt>
      <trkpt lat="44.88146" lon="-0.0578">
        <ele>92</ele>
        <time>2021-07-16T09:57:36+02:00</time>
      </trkpt>
      <trkpt lat="44.88185" lon="-0.05786">
        <ele>93</ele>
        <time>2021-07-16T09:57:41+02:00</time>
      </trkpt>
      <trkpt lat="44.88234" lon="-0.0578">
        <ele>94</ele>
        <time>2021-07-16T09:57:46+02:00</time>
      </trkpt>
      <trkpt lat="44.88274" lon="-0.05767">
        <ele>94</ele>
        <time>2021-07-16T09:57:51+02:00</time>
      </trkpt>
      <trkpt lat="44.88295" lon="-0.05767">
        <ele>94</ele>
        <time>2021-07-16T09:57:56+02:00</time>
      </trkpt>
      <trkpt lat="44.88343" lon="-0.05785">
        <ele>93</ele>
        <time>2021-07-16T09:58:01+02:00</time>
      </trkpt>
      <trkpt lat="44.88404" lon="-0.05786">
        <ele>92</ele>
        <time>2021-07-16T09:58:06+02:00</time>
      </trkpt>
      <trkpt lat="44.88378" lon="-0.05686">
        <ele>88</ele>
        <time>2021-07-16T09:58:11+02:00</time>
      </trkpt>
      <trkpt lat="44.88348" lon="-0.05557">
        <ele>83</ele>
        <time>2021-07-16T09:58:16+02:00</time>
      </trkpt>
      <trkpt lat="44.88341" lon="-0.05529">
        <ele>82</ele>
        <time>2021-07-16T09:58:21+02:00</time>
      </trkpt>
      <trkpt lat="44.88326" lon="-0.05496">
        <ele>80</ele>
        <time>2021-07-16T09:58:26+02:00</time>
      </trkpt>
      <trkpt lat="44.88308" lon="-0.05413">
        <ele>73</ele>
        <time>2021-07-16T09:58:31+02:00</time>
      </trkpt>
      <trkpt lat="44.8831" lon="-0.05277">
        <ele>64</ele>
        <time>2021-07-16T09:58:36+02:00</time>
      </trkpt>
      <trkpt lat="44.88314" lon="-0.05239">
        <ele>62</ele>
        <time>2021-07-16T09:58:41+02:00</time>
      </trkpt>
      <trkpt lat="44.88329" lon="-0.05208">
        <ele>62</ele>
        <time>2021-07-16T09:58:46+02:00</time>
      </trkpt>
      <trkpt lat="44.88354" lon="-0.05156">
        <ele>59</ele>
        <time>2021-07-16T09:58:51+02:00</time>
      </trkpt>
      <trkpt lat="44.88371" lon="-0.05075">
        <ele>55</ele>
        <time>2021-07-16T09:58:56+02:00</time>
      </trkpt>
      <trkpt lat="44.88376" lon="-0.05021">
        <ele>52</ele>
        <time>2021-07-16T09:59:01+02:00</time>
      </trkpt>
      <trkpt lat="44.88437" lon="-0.05029">
        <ele>52</ele>
        <time>2021-07-16T09:59:06+02:00</time>
      </trkpt>
      <trkpt lat="44.88483" lon="-0.0506">
        <ele>53</ele>
        <time>2021-07-16T09:59:11+02:00</time>
      </trkpt>
      <trkpt lat="44.88519" lon="-0.05099">
        <ele>54</ele>
        <time>2021-07-16T09:59:16+02:00</time>
      </trkpt>
      <trkpt lat="44.88535" lon="-0.05149">
        <ele>56</ele>
        <time>2021-07-16T09:59:21+02:00</time>
      </trkpt>
      <trkpt lat="44.88543" lon="-0.05181">
        <ele>57</ele>
        <time>2021-07-16T09:59:26+02:00</time>
      </trkpt>
      <trkpt lat="44.88604" lon="-0.05344">
        <ele>64</ele>
        <time>2021-07-16T09:59:31+02:00</time>
      </trkpt>
      <trkpt lat="44.88609" lon="-0.05409">
        <ele>66</ele>
        <time>2021-07-16T09:59:36+02:00</time>
      </trkpt>
      <trkpt lat="44.88621" lon="-0.05558">
        <ele>76</ele>
        <time>2021-07-16T09:59:41+02:00</time>
      </trkpt>
      <trkpt lat="44.88638" lon="-0.05639">
        <ele>84</ele>
        <time>2021-07-16T09:59:46+02:00</time>
      </trkpt>
      <trkpt lat="44.88635" lon="-0.05672">
        <ele>87</ele>
        <time>2021-07-16T09:59:51+02:00</time>
      </trkpt>
      <trkpt lat="44.88641" lon="-0.05773">
        <ele>88</ele>
        <time>2021-07-16T09:59:56+02:00</time>
      </trkpt>
      <trkpt lat="44.88635" lon="-0.05783">
        <ele>88</ele>
        <time>2021-07-16T10:00:01+02:00</time>
      </trkpt>
      <trkpt lat="44.88508" lon="-0.058">
        <ele>93</ele>
        <time>2021-07-16T10:00:06+02:00</time>
      </trkpt>
      <trkpt lat="44.88503" lon="-0.05847">
        <ele>94</ele>
        <time>2021-07-16T10:00:11+02:00</time>
      </trkpt>
      <trkpt lat="44.88491" lon="-0.05861">
        <ele>94</ele>
        <time>2021-07-16T10:00:16+02:00</time>
      </trkpt>
      <trkpt lat="44.88364" lon="-0.05882">
        <ele>93</ele>
        <time>2021-07-16T10:00:21+02:00</time>
      </trkpt>
      <trkpt lat="44.88337" lon="-0.05894">
        <ele>94</ele>
        <time>2021-07-16T10:00:26+02:00</time>
      </trkpt>
      <trkpt lat="44.88304" lon="-0.05936">
        <ele>95</ele>
        <time>2021-07-16T10:00:31+02:00</time>
      </trkpt>
      <trkpt lat="44.88293" lon="-0.05947">
        <ele>95</ele>
        <time>2021-07-16T10:00:36+02:00</time>
      </trkpt>
      <trkpt lat="44.88151" lon="-0.05997">
        <ele>95</ele>
        <time>2021-07-16T10:00:41+02:00</time>
      </trkpt>
      <trkpt lat="44.88111" lon="-0.06024">
        <ele>94</ele>
        <time>2021-07-16T10:00:46+02:00</time>
      </trkpt>
      <trkpt lat="44.88034" lon="-0.06122">
        <ele>94</ele>
        <time>2021-07-16T10:00:51+02:00</time>
      </trkpt>
      <trkpt lat="44.87979" lon="-0.06185">
        <ele>93</ele>
        <time>2021-07-16T10:00:56+02:00</time>
      </trkpt>
      <trkpt lat="44.87964" lon="-0.06193">
        <ele>92</ele>
        <time>2021-07-16T10:01:01+02:00</time>
      </trkpt>
      <trkpt lat="44.87963" lon="-0.06207">
        <ele>92</ele>
        <time>2021-07-16T10:01:06+02:00</time>
      </trkpt>
      <trkpt lat="44.87951" lon="-0.0625">
        <ele>92</ele>
        <time>2021-07-16T10:01:11+02:00</time>
      </trkpt>
      <trkpt lat="44.87939" lon="-0.06274">
        <ele>91</ele>
        <time>2021-07-16T10:01:16+02:00</time>
      </trkpt>
      <trkpt lat="44.87909" lon="-0.06345">
        <ele>90</ele>
        <time>2021-07-16T10:01:21+02:00</time>
      </trkpt>
      <trkpt lat="44.87904" lon="-0.06362">
        <ele>90</ele>
        <time>2021-07-16T10:01:26+02:00</time>
      </trkpt>
      <trkpt lat="44.87904" lon="-0.06412">
        <ele>90</ele>
        <time>2021-07-16T10:01:31+02:00</time>
      </trkpt>
      <trkpt lat="44.87882" lon="-0.06652">
        <ele>59</ele>
        <time>2021-07-16T10:01:36+02:00</time>
      </trkpt>
      <trkpt lat="44.87882" lon="-0.0666">
        <ele>58</ele>
        <time>2021-07-16T10:01:41+02:00</time>
      </trkpt>
      <trkpt lat="44.87848" lon="-0.06674">
        <ele>60</ele>
        <time>2021-07-16T10:01:46+02:00</time>
      </trkpt>
      <trkpt lat="44.87815" lon="-0.0671">
        <ele>56</ele>
        <time>2021-07-16T10:01:51+02:00</time>
      </trkpt>
      <trkpt lat="44.87812" lon="-0.06721">
        <ele>55</ele>
        <time>2021-07-16T10:01:56+02:00</time>
      </trkpt>
      <trkpt lat="44.87824" lon="-0.06848">
        <ele>46</ele>
        <time>2021-07-16T10:02:01+02:00</time>
      </trkpt>
      <trkpt lat="44.87829" lon="-0.0689">
        <ele>46</ele>
        <time>2021-07-16T10:02:06+02:00</time>
      </trkpt>
      <trkpt lat="44.87818" lon="-0.06898">
        <ele>46</ele>
        <time>2021-07-16T10:02:11+02:00</time>
      </trkpt>
      <trkpt lat="44.87819" lon="-0.06912">
        <ele>46</ele>
        <time>2021-07-16T10:02:16+02:00</time>
      </trkpt>
    </trkseg>
  </trk>
  <trk>
    <name><![CDATA[NewTrack]]></name>
    <desc><![CDATA[Total: 10.2km]]></desc>
    <extensions>
      <line xmlns="http://www.topografix.com/GPX/gpx_style/0/2">
        <color>FF00FF</color>
        <width>4</width>
      </line>
    </extensions>
    <trkseg>
      <trkpt lat="44.66012" lon="-0.18235">
        <ele>110</ele>
      </trkpt>
      <trkpt lat="44.66093" lon="-0.18248">
        <ele>106.6</ele>
      </trkpt>
      <trkpt lat="44.6613" lon="-0.18202">
        <ele>105.8</ele>
      </trkpt>
      <trkpt lat="44.66234" lon="-0.18167">
        <ele>107.4</ele>
      </trkpt>
      <trkpt lat="44.66244" lon="-0.18127">
        <ele>108.3</ele>
      </trkpt>
      <trkpt lat="44.66285" lon="-0.18122">
        <ele>109</ele>
      </trkpt>
      <trkpt lat="44.66303" lon="-0.18062">
        <ele>108.9</ele>
      </trkpt>
      <trkpt lat="44.66398" lon="-0.17939">
        <ele>100</ele>
      </trkpt>
      <trkpt lat="44.66417" lon="-0.1796">
        <ele>100.6</ele>
      </trkpt>
      <trkpt lat="44.66441" lon="-0.181">
        <ele>107.8</ele>
      </trkpt>
      <trkpt lat="44.66476" lon="-0.18139">
        <ele>106.9</ele>
      </trkpt>
      <trkpt lat="44.66495" lon="-0.18203">
        <ele>105.5</ele>
      </trkpt>
      <trkpt lat="44.66527" lon="-0.18232">
        <ele>105</ele>
      </trkpt>
      <trkpt lat="44.66597" lon="-0.18239">
        <ele>103.8</ele>
      </trkpt>
      <trkpt lat="44.66617" lon="-0.18283">
        <ele>103.3</ele>
      </trkpt>
      <trkpt lat="44.66632" lon="-0.18292">
        <ele>101.9</ele>
      </trkpt>
      <trkpt lat="44.66677" lon="-0.18281">
        <ele>99.8</ele>
      </trkpt>
      <trkpt lat="44.66698" lon="-0.18281">
        <ele>99.8</ele>
      </trkpt>
      <trkpt lat="44.66798" lon="-0.18295">
        <ele>105.2</ele>
      </trkpt>
      <trkpt lat="44.66821" lon="-0.18302">
        <ele>105.7</ele>
      </trkpt>
      <trkpt lat="44.66843" lon="-0.18314">
        <ele>105.6</ele>
      </trkpt>
      <trkpt lat="44.66881" lon="-0.18339">
        <ele>105.2</ele>
      </trkpt>
      <trkpt lat="44.66907" lon="-0.18369">
        <ele>105.6</ele>
      </trkpt>
      <trkpt lat="44.66928" lon="-0.18411">
        <ele>105.6</ele>
      </trkpt>
      <trkpt lat="44.66957" lon="-0.18476">
        <ele>104</ele>
      </trkpt>
      <trkpt lat="44.66973" lon="-0.18495">
        <ele>101.6</ele>
      </trkpt>
      <trkpt lat="44.67084" lon="-0.18534">
        <ele>86.9</ele>
      </trkpt>
      <trkpt lat="44.6729" lon="-0.18613">
        <ele>76.1</ele>
      </trkpt>
      <trkpt lat="44.67422" lon="-0.1871">
        <ele>72</ele>
      </trkpt>
      <trkpt lat="44.67403" lon="-0.18744">
        <ele>72.1</ele>
      </trkpt>
      <trkpt lat="44.67393" lon="-0.18771">
        <ele>72</ele>
      </trkpt>
      <trkpt lat="44.67388" lon="-0.18801">
        <ele>72</ele>
      </trkpt>
      <trkpt lat="44.67919" lon="-0.18907">
        <ele>66.3</ele>
      </trkpt>
      <trkpt lat="44.67936" lon="-0.1893">
        <ele>65.5</ele>
      </trkpt>
      <trkpt lat="44.68067" lon="-0.18972">
        <ele>64</ele>
      </trkpt>
      <trkpt lat="44.68207" lon="-0.18947">
        <ele>62</ele>
      </trkpt>
      <trkpt lat="44.68282" lon="-0.18904">
        <ele>61</ele>
      </trkpt>
      <trkpt lat="44.68333" lon="-0.18882">
        <ele>62</ele>
      </trkpt>
      <trkpt lat="44.6849" lon="-0.18838">
        <ele>72.4</ele>
      </trkpt>
      <trkpt lat="44.68507" lon="-0.18851">
        <ele>72.1</ele>
      </trkpt>
      <trkpt lat="44.68552" lon="-0.19034">
        <ele>73.6</ele>
      </trkpt>
      <trkpt lat="44.68637" lon="-0.18982">
        <ele>75.6</ele>
      </trkpt>
      <trkpt lat="44.687" lon="-0.18918">
        <ele>77</ele>
      </trkpt>
      <trkpt lat="44.68802" lon="-0.18803">
        <ele>77</ele>
      </trkpt>
      <trkpt lat="44.68838" lon="-0.18744">
        <ele>77</ele>
      </trkpt>
      <trkpt lat="44.68908" lon="-0.18603">
        <ele>73</ele>
      </trkpt>
      <trkpt lat="44.68965" lon="-0.18513">
        <ele>72.9</ele>
      </trkpt>
      <trkpt lat="44.68999" lon="-0.18432">
        <ele>71.5</ele>
      </trkpt>
      <trkpt lat="44.69114" lon="-0.18228">
        <ele>73.1</ele>
      </trkpt>
      <trkpt lat="44.69241" lon="-0.18118">
        <ele>79</ele>
      </trkpt>
      <trkpt lat="44.69244" lon="-0.18077">
        <ele>79</ele>
      </trkpt>
      <trkpt lat="44.69273" lon="-0.17892">
        <ele>78</ele>
      </trkpt>
      <trkpt lat="44.69271" lon="-0.17846">
        <ele>75.7</ele>
      </trkpt>
      <trkpt lat="44.69206" lon="-0.17638">
        <ele>68.5</ele>
      </trkpt>
      <trkpt lat="44.69196" lon="-0.17573">
        <ele>65.6</ele>
      </trkpt>
      <trkpt lat="44.69191" lon="-0.17387">
        <ele>63.1</ele>
      </trkpt>
      <trkpt lat="44.69152" lon="-0.17258">
        <ele>58.1</ele>
      </trkpt>
      <trkpt lat="44.69144" lon="-0.17123">
        <ele>51.1</ele>
      </trkpt>
      <trkpt lat="44.69148" lon="-0.17044">
        <ele>50.7</ele>
      </trkpt>
      <trkpt lat="44.69132" lon="-0.16974">
        <ele>51</ele>
      </trkpt>
      <trkpt lat="44.69113" lon="-0.16903">
        <ele>50.9</ele>
      </trkpt>
      <trkpt lat="44.69137" lon="-0.16838">
        <ele>52.6</ele>
      </trkpt>
      <trkpt lat="44.69151" lon="-0.16748">
        <ele>56.5</ele>
      </trkpt>
      <trkpt lat="44.69046" lon="-0.16738">
        <ele>54.4</ele>
      </trkpt>
      <trkpt lat="44.68982" lon="-0.16749">
        <ele>53.1</ele>
      </trkpt>
      <trkpt lat="44.68916" lon="-0.16765">
        <ele>52.4</ele>
      </trkpt>
      <trkpt lat="44.68821" lon="-0.16855">
        <ele>55.3</ele>
      </trkpt>
      <trkpt lat="44.68794" lon="-0.1686">
        <ele>55.8</ele>
      </trkpt>
      <trkpt lat="44.68702" lon="-0.16833">
        <ele>59</ele>
      </trkpt>
      <trkpt lat="44.68599" lon="-0.16869">
        <ele>65.7</ele>
      </trkpt>
      <trkpt lat="44.68577" lon="-0.1689">
        <ele>65.8</ele>
      </trkpt>
      <trkpt lat="44.68498" lon="-0.17032">
        <ele>70.3</ele>
      </trkpt>
      <trkpt lat="44.68341" lon="-0.17035">
        <ele>74.1</ele>
      </trkpt>
      <trkpt lat="44.68203" lon="-0.17051">
        <ele>76</ele>
      </trkpt>
      <trkpt lat="44.68113" lon="-0.17034">
        <ele>74.2</ele>
      </trkpt>
      <trkpt lat="44.68035" lon="-0.17029">
        <ele>74.1</ele>
      </trkpt>
      <trkpt lat="44.67871" lon="-0.1704">
        <ele>79.4</ele>
      </trkpt>
      <trkpt lat="44.67849" lon="-0.17043">
        <ele>79.6</ele>
      </trkpt>
      <trkpt lat="44.67795" lon="-0.17058">
        <ele>80.4</ele>
      </trkpt>
      <trkpt lat="44.67661" lon="-0.17055">
        <ele>80.8</ele>
      </trkpt>
      <trkpt lat="44.67589" lon="-0.17072">
        <ele>80</ele>
      </trkpt>
      <trkpt lat="44.67125" lon="-0.17432">
        <ele>78.8</ele>
      </trkpt>
      <trkpt lat="44.67191" lon="-0.17836">
        <ele>78.2</ele>
      </trkpt>
      <trkpt lat="44.66942" lon="-0.179">
        <ele>88.5</ele>
      </trkpt>
      <trkpt lat="44.66922" lon="-0.17829">
        <ele>87.9</ele>
      </trkpt>
      <trkpt lat="44.66906" lon="-0.17675">
        <ele>88.5</ele>
      </trkpt>
      <trkpt lat="44.66873" lon="-0.17584">
        <ele>86</ele>
      </trkpt>
      <trkpt lat="44.66788" lon="-0.17591">
        <ele>86.1</ele>
      </trkpt>
      <trkpt lat="44.6663" lon="-0.17574">
        <ele>82</ele>
      </trkpt>
      <trkpt lat="44.66598" lon="-0.17654">
        <ele>84.5</ele>
      </trkpt>
      <trkpt lat="44.66548" lon="-0.17887">
        <ele>88.9</ele>
      </trkpt>
      <trkpt lat="44.66537" lon="-0.17903">
        <ele>89.3</ele>
      </trkpt>
      <trkpt lat="44.66408" lon="-0.17944">
        <ele>99.6</ele>
      </trkpt>
      <trkpt lat="44.66398" lon="-0.17945">
        <ele>100.4</ele>
      </trkpt>
      <trkpt lat="44.66302" lon="-0.18064">
        <ele>108.9</ele>
      </trkpt>
      <trkpt lat="44.66284" lon="-0.1812">
        <ele>109</ele>
      </trkpt>
      <trkpt lat="44.66243" lon="-0.18127">
        <ele>108.3</ele>
      </trkpt>
      <trkpt lat="44.66233" lon="-0.18166">
        <ele>107.4</ele>
      </trkpt>
      <trkpt lat="44.6613" lon="-0.18201">
        <ele>105.8</ele>
      </trkpt>
      <trkpt lat="44.66093" lon="-0.18248">
        <ele>106.7</ele>
      </trkpt>
      <trkpt lat="44.66017" lon="-0.18235">
        <ele>109.8</ele>
      </trkpt>
    </trkseg>
  </trk>
  <trk>
    <name><![CDATA[NewTrack]]></name>
    <desc><![CDATA[Total: 14.7km]]></desc>
    <extensions>
      <line xmlns="http://www.topografix.com/GPX/gpx_style/0/2">
        <color>000088</color>
        <width>4</width>
      </line>
    </extensions>
    <trkseg>
      <trkpt lat="44.76881" lon="-0.31278">
        <ele>85.6</ele>
      </trkpt>
      <trkpt lat="44.76741" lon="-0.3127">
        <ele>97</ele>
      </trkpt>
      <trkpt lat="44.76745" lon="-0.31243">
        <ele>96.8</ele>
      </trkpt>
      <trkpt lat="44.76741" lon="-0.31204">
        <ele>98</ele>
      </trkpt>
      <trkpt lat="44.76737" lon="-0.31191">
        <ele>98.7</ele>
      </trkpt>
      <trkpt lat="44.76746" lon="-0.31113">
        <ele>100.3</ele>
      </trkpt>
      <trkpt lat="44.76753" lon="-0.31098">
        <ele>99.3</ele>
      </trkpt>
      <trkpt lat="44.76772" lon="-0.30995">
        <ele>93.7</ele>
      </trkpt>
      <trkpt lat="44.76779" lon="-0.30989">
        <ele>92.7</ele>
      </trkpt>
      <trkpt lat="44.76821" lon="-0.31014">
        <ele>90.4</ele>
      </trkpt>
      <trkpt lat="44.76935" lon="-0.311">
        <ele>86.2</ele>
      </trkpt>
      <trkpt lat="44.76948" lon="-0.31098">
        <ele>83.7</ele>
      </trkpt>
      <trkpt lat="44.76954" lon="-0.31078">
        <ele>83.3</ele>
      </trkpt>
      <trkpt lat="44.76965" lon="-0.3106">
        <ele>82.6</ele>
      </trkpt>
      <trkpt lat="44.77012" lon="-0.31001">
        <ele>79.2</ele>
      </trkpt>
      <trkpt lat="44.77124" lon="-0.31091">
        <ele>72</ele>
      </trkpt>
      <trkpt lat="44.77234" lon="-0.31167">
        <ele>67.6</ele>
      </trkpt>
      <trkpt lat="44.77257" lon="-0.31172">
        <ele>67</ele>
      </trkpt>
      <trkpt lat="44.77273" lon="-0.31165">
        <ele>67</ele>
      </trkpt>
      <trkpt lat="44.77326" lon="-0.31055">
        <ele>68</ele>
      </trkpt>
      <trkpt lat="44.77355" lon="-0.31">
        <ele>68.8</ele>
      </trkpt>
      <trkpt lat="44.77371" lon="-0.30986">
        <ele>69.7</ele>
      </trkpt>
      <trkpt lat="44.7743" lon="-0.30981">
        <ele>73.6</ele>
      </trkpt>
      <trkpt lat="44.77463" lon="-0.30983">
        <ele>75.5</ele>
      </trkpt>
      <trkpt lat="44.77501" lon="-0.30958">
        <ele>75</ele>
      </trkpt>
      <trkpt lat="44.77637" lon="-0.30841">
        <ele>80.4</ele>
      </trkpt>
      <trkpt lat="44.77663" lon="-0.30819">
        <ele>81.6</ele>
      </trkpt>
      <trkpt lat="44.7773" lon="-0.30766">
        <ele>80.7</ele>
      </trkpt>
      <trkpt lat="44.77749" lon="-0.30757">
        <ele>81.7</ele>
      </trkpt>
      <trkpt lat="44.77787" lon="-0.3076">
        <ele>84</ele>
      </trkpt>
      <trkpt lat="44.77821" lon="-0.30751">
        <ele>86.5</ele>
      </trkpt>
      <trkpt lat="44.77845" lon="-0.30759">
        <ele>86.4</ele>
      </trkpt>
      <trkpt lat="44.78088" lon="-0.30569">
        <ele>92.3</ele>
      </trkpt>
      <trkpt lat="44.78121" lon="-0.30476">
        <ele>97</ele>
      </trkpt>
      <trkpt lat="44.78119" lon="-0.30397">
        <ele>101.6</ele>
      </trkpt>
      <trkpt lat="44.78097" lon="-0.30278">
        <ele>102.5</ele>
      </trkpt>
      <trkpt lat="44.78181" lon="-0.30042">
        <ele>90.5</ele>
      </trkpt>
      <trkpt lat="44.78234" lon="-0.30039">
        <ele>89.6</ele>
      </trkpt>
      <trkpt lat="44.78282" lon="-0.30018">
        <ele>87.8</ele>
      </trkpt>
      <trkpt lat="44.78326" lon="-0.29987">
        <ele>86.2</ele>
      </trkpt>
      <trkpt lat="44.78399" lon="-0.29916">
        <ele>84</ele>
      </trkpt>
      <trkpt lat="44.78653" lon="-0.29745">
        <ele>83.5</ele>
      </trkpt>
      <trkpt lat="44.78687" lon="-0.29731">
        <ele>84.7</ele>
      </trkpt>
      <trkpt lat="44.78706" lon="-0.30051">
        <ele>77.2</ele>
      </trkpt>
      <trkpt lat="44.78725" lon="-0.30349">
        <ele>73.1</ele>
      </trkpt>
      <trkpt lat="44.78727" lon="-0.30601">
        <ele>71.7</ele>
      </trkpt>
      <trkpt lat="44.78685" lon="-0.31287">
        <ele>72.2</ele>
      </trkpt>
      <trkpt lat="44.78696" lon="-0.31564">
        <ele>68</ele>
      </trkpt>
      <trkpt lat="44.7865" lon="-0.318">
        <ele>65.1</ele>
      </trkpt>
      <trkpt lat="44.78576" lon="-0.31796">
        <ele>63.7</ele>
      </trkpt>
      <trkpt lat="44.78456" lon="-0.31746">
        <ele>60.6</ele>
      </trkpt>
      <trkpt lat="44.78359" lon="-0.31768">
        <ele>62.8</ele>
      </trkpt>
      <trkpt lat="44.7829" lon="-0.3176">
        <ele>66.9</ele>
      </trkpt>
      <trkpt lat="44.78205" lon="-0.31734">
        <ele>68.8</ele>
      </trkpt>
      <trkpt lat="44.78102" lon="-0.3174">
        <ele>67.4</ele>
      </trkpt>
      <trkpt lat="44.7797" lon="-0.31675">
        <ele>66.8</ele>
      </trkpt>
      <trkpt lat="44.77888" lon="-0.31644">
        <ele>71.8</ele>
      </trkpt>
      <trkpt lat="44.77657" lon="-0.31584">
        <ele>73.3</ele>
      </trkpt>
      <trkpt lat="44.77569" lon="-0.31597">
        <ele>72</ele>
      </trkpt>
      <trkpt lat="44.77426" lon="-0.31518">
        <ele>71.4</ele>
      </trkpt>
      <trkpt lat="44.77379" lon="-0.31462">
        <ele>71.7</ele>
      </trkpt>
      <trkpt lat="44.77337" lon="-0.31422">
        <ele>67.4</ele>
      </trkpt>
      <trkpt lat="44.77297" lon="-0.31314">
        <ele>68.7</ele>
      </trkpt>
      <trkpt lat="44.77252" lon="-0.31321">
        <ele>66</ele>
      </trkpt>
      <trkpt lat="44.77198" lon="-0.31344">
        <ele>68.8</ele>
      </trkpt>
      <trkpt lat="44.77098" lon="-0.31386">
        <ele>76.4</ele>
      </trkpt>
      <trkpt lat="44.77039" lon="-0.31405">
        <ele>79.2</ele>
      </trkpt>
      <trkpt lat="44.77001" lon="-0.31409">
        <ele>81.3</ele>
      </trkpt>
      <trkpt lat="44.76963" lon="-0.31403">
        <ele>80.7</ele>
      </trkpt>
      <trkpt lat="44.76888" lon="-0.31387">
        <ele>81</ele>
      </trkpt>
      <trkpt lat="44.7687" lon="-0.31627">
        <ele>97.8</ele>
      </trkpt>
      <trkpt lat="44.76852" lon="-0.31679">
        <ele>101.9</ele>
      </trkpt>
      <trkpt lat="44.76833" lon="-0.31713">
        <ele>102</ele>
      </trkpt>
      <trkpt lat="44.76815" lon="-0.3171">
        <ele>101</ele>
      </trkpt>
      <trkpt lat="44.76808" lon="-0.31722">
        <ele>100.2</ele>
      </trkpt>
      <trkpt lat="44.76791" lon="-0.31736">
        <ele>97.7</ele>
      </trkpt>
      <trkpt lat="44.76778" lon="-0.31751">
        <ele>94.9</ele>
      </trkpt>
      <trkpt lat="44.76758" lon="-0.31791">
        <ele>89.9</ele>
      </trkpt>
      <trkpt lat="44.7674" lon="-0.31836">
        <ele>84.4</ele>
      </trkpt>
      <trkpt lat="44.76723" lon="-0.31842">
        <ele>83.4</ele>
      </trkpt>
      <trkpt lat="44.76705" lon="-0.31838">
        <ele>83.1</ele>
      </trkpt>
      <trkpt lat="44.76692" lon="-0.31843">
        <ele>82.6</ele>
      </trkpt>
      <trkpt lat="44.76684" lon="-0.31855">
        <ele>81.8</ele>
      </trkpt>
      <trkpt lat="44.76666" lon="-0.31934">
        <ele>83.3</ele>
      </trkpt>
      <trkpt lat="44.76664" lon="-0.31984">
        <ele>87</ele>
      </trkpt>
      <trkpt lat="44.76652" lon="-0.32016">
        <ele>90.6</ele>
      </trkpt>
      <trkpt lat="44.76563" lon="-0.32028">
        <ele>98.7</ele>
      </trkpt>
      <trkpt lat="44.76552" lon="-0.3203">
        <ele>99.2</ele>
      </trkpt>
      <trkpt lat="44.76545" lon="-0.32046">
        <ele>100</ele>
      </trkpt>
      <trkpt lat="44.76549" lon="-0.32041">
        <ele>99.7</ele>
      </trkpt>
      <trkpt lat="44.76539" lon="-0.32087">
        <ele>101.1</ele>
      </trkpt>
      <trkpt lat="44.76526" lon="-0.32109">
        <ele>101.9</ele>
      </trkpt>
      <trkpt lat="44.76465" lon="-0.3211">
        <ele>101</ele>
      </trkpt>
      <trkpt lat="44.76383" lon="-0.32082">
        <ele>104</ele>
      </trkpt>
      <trkpt lat="44.7636" lon="-0.32081">
        <ele>104.1</ele>
      </trkpt>
      <trkpt lat="44.76305" lon="-0.32063">
        <ele>104</ele>
      </trkpt>
      <trkpt lat="44.76218" lon="-0.32068">
        <ele>105.1</ele>
      </trkpt>
      <trkpt lat="44.76118" lon="-0.32243">
        <ele>104.2</ele>
      </trkpt>
      <trkpt lat="44.75998" lon="-0.32212">
        <ele>106.4</ele>
      </trkpt>
      <trkpt lat="44.75922" lon="-0.32146">
        <ele>106.9</ele>
      </trkpt>
      <trkpt lat="44.75915" lon="-0.32195">
        <ele>106.1</ele>
      </trkpt>
      <trkpt lat="44.75879" lon="-0.32297">
        <ele>105</ele>
      </trkpt>
      <trkpt lat="44.75844" lon="-0.3247">
        <ele>103.3</ele>
      </trkpt>
      <trkpt lat="44.75794" lon="-0.32629">
        <ele>101.3</ele>
      </trkpt>
      <trkpt lat="44.75743" lon="-0.32772">
        <ele>102.8</ele>
      </trkpt>
      <trkpt lat="44.75672" lon="-0.3283">
        <ele>104.8</ele>
      </trkpt>
      <trkpt lat="44.75317" lon="-0.32493">
        <ele>104.4</ele>
      </trkpt>
      <trkpt lat="44.74968" lon="-0.32223">
        <ele>99</ele>
      </trkpt>
      <trkpt lat="44.7477" lon="-0.32056">
        <ele>79.8</ele>
      </trkpt>
      <trkpt lat="44.74742" lon="-0.31998">
        <ele>73.7</ele>
      </trkpt>
      <trkpt lat="44.74617" lon="-0.31974">
        <ele>65.7</ele>
      </trkpt>
      <trkpt lat="44.74581" lon="-0.32008">
        <ele>66.9</ele>
      </trkpt>
      <trkpt lat="44.74567" lon="-0.32069">
        <ele>65</ele>
      </trkpt>
      <trkpt lat="44.74686" lon="-0.32427">
        <ele>84.8</ele>
      </trkpt>
      <trkpt lat="44.7464" lon="-0.32496">
        <ele>91.6</ele>
      </trkpt>
      <trkpt lat="44.7471" lon="-0.32629">
        <ele>100.4</ele>
      </trkpt>
      <trkpt lat="44.7495" lon="-0.33156">
        <ele>103</ele>
      </trkpt>
      <trkpt lat="44.75434" lon="-0.32944">
        <ele>106.6</ele>
      </trkpt>
      <trkpt lat="44.75509" lon="-0.32931">
        <ele>107.4</ele>
      </trkpt>
      <trkpt lat="44.75535" lon="-0.3295">
        <ele>107</ele>
      </trkpt>
      <trkpt lat="44.75621" lon="-0.32866">
        <ele>105.5</ele>
      </trkpt>
      <trkpt lat="44.75744" lon="-0.3277">
        <ele>102.7</ele>
      </trkpt>
      <trkpt lat="44.75793" lon="-0.32629">
        <ele>101.3</ele>
      </trkpt>
      <trkpt lat="44.75844" lon="-0.32471">
        <ele>103.4</ele>
      </trkpt>
      <trkpt lat="44.75879" lon="-0.32299">
        <ele>105</ele>
      </trkpt>
      <trkpt lat="44.75913" lon="-0.32195">
        <ele>106.1</ele>
      </trkpt>
      <trkpt lat="44.7592" lon="-0.32146">
        <ele>106.9</ele>
      </trkpt>
      <trkpt lat="44.75995" lon="-0.3221">
        <ele>106.6</ele>
      </trkpt>
      <trkpt lat="44.76118" lon="-0.32242">
        <ele>104.3</ele>
      </trkpt>
      <trkpt lat="44.7622" lon="-0.32066">
        <ele>105.1</ele>
      </trkpt>
      <trkpt lat="44.76305" lon="-0.32063">
        <ele>104</ele>
      </trkpt>
      <trkpt lat="44.76357" lon="-0.32079">
        <ele>104.1</ele>
      </trkpt>
      <trkpt lat="44.76381" lon="-0.3208">
        <ele>104</ele>
      </trkpt>
      <trkpt lat="44.76463" lon="-0.32109">
        <ele>101.1</ele>
      </trkpt>
      <trkpt lat="44.76525" lon="-0.32111">
        <ele>101.9</ele>
      </trkpt>
      <trkpt lat="44.76537" lon="-0.32088">
        <ele>101.1</ele>
      </trkpt>
      <trkpt lat="44.76553" lon="-0.3203">
        <ele>99.2</ele>
      </trkpt>
      <trkpt lat="44.76652" lon="-0.32015">
        <ele>90.5</ele>
      </trkpt>
      <trkpt lat="44.76665" lon="-0.31985">
        <ele>87.1</ele>
      </trkpt>
      <trkpt lat="44.76666" lon="-0.31935">
        <ele>83.3</ele>
      </trkpt>
      <trkpt lat="44.76683" lon="-0.31857">
        <ele>81.7</ele>
      </trkpt>
      <trkpt lat="44.76692" lon="-0.31844">
        <ele>82.5</ele>
      </trkpt>
      <trkpt lat="44.7674" lon="-0.31837">
        <ele>84.4</ele>
      </trkpt>
      <trkpt lat="44.76777" lon="-0.3175">
        <ele>94.9</ele>
      </trkpt>
      <trkpt lat="44.76814" lon="-0.31711">
        <ele>100.9</ele>
      </trkpt>
      <trkpt lat="44.76832" lon="-0.31714">
        <ele>101.9</ele>
      </trkpt>
      <trkpt lat="44.76852" lon="-0.31677">
        <ele>101.8</ele>
      </trkpt>
      <trkpt lat="44.76869" lon="-0.31627">
        <ele>97.9</ele>
      </trkpt>
      <trkpt lat="44.76888" lon="-0.31385">
        <ele>80.9</ele>
      </trkpt>
      <trkpt lat="44.76889" lon="-0.31283">
        <ele>84.5</ele>
      </trkpt>
    </trkseg>
  </trk>
  <trk>
    <name><![CDATA[randogps33-476]]></name>
    <extensions>
      <line xmlns="http://www.topografix.com/GPX/gpx_style/0/2">
        <color>0000FF</color>
        <width>4</width>
      </line>
    </extensions>
    <trkseg>
      <trkpt lat="44.67394" lon="-0.2302">
        <ele>33.78</ele>
        <time>2016-09-17T07:00:40Z</time>
      </trkpt>
      <trkpt lat="44.67394" lon="-0.2302">
        <ele>37.63</ele>
        <time>2016-09-17T07:00:41Z</time>
      </trkpt>
      <trkpt lat="44.67394" lon="-0.23021">
        <ele>36.67</ele>
        <time>2016-09-17T07:00:42Z</time>
      </trkpt>
      <trkpt lat="44.67394" lon="-0.23021">
        <ele>38.59</ele>
        <time>2016-09-17T07:00:45Z</time>
      </trkpt>
      <trkpt lat="44.67395" lon="-0.23025">
        <ele>40.51</ele>
        <time>2016-09-17T07:00:49Z</time>
      </trkpt>
      <trkpt lat="44.67399" lon="-0.23028">
        <ele>42.92</ele>
        <time>2016-09-17T07:00:53Z</time>
      </trkpt>
      <trkpt lat="44.67399" lon="-0.23029">
        <ele>44.84</ele>
        <time>2016-09-17T07:00:58Z</time>
      </trkpt>
      <trkpt lat="44.67398" lon="-0.23031">
        <ele>48.2</ele>
        <time>2016-09-17T07:01:15Z</time>
      </trkpt>
      <trkpt lat="44.674" lon="-0.23034">
        <ele>48.2</ele>
        <time>2016-09-17T07:01:19Z</time>
      </trkpt>
      <trkpt lat="44.67409" lon="-0.23044">
        <ele>49.16</ele>
        <time>2016-09-17T07:01:27Z</time>
      </trkpt>
      <trkpt lat="44.67415" lon="-0.2305">
        <ele>49.65</ele>
        <time>2016-09-17T07:01:33Z</time>
      </trkpt>
      <trkpt lat="44.67431" lon="-0.23069">
        <ele>50.13</ele>
        <time>2016-09-17T07:01:47Z</time>
      </trkpt>
      <trkpt lat="44.67438" lon="-0.23074">
        <ele>50.61</ele>
        <time>2016-09-17T07:01:52Z</time>
      </trkpt>
      <trkpt lat="44.67454" lon="-0.23092">
        <ele>51.57</ele>
        <time>2016-09-17T07:02:06Z</time>
      </trkpt>
      <trkpt lat="44.67473" lon="-0.23111">
        <ele>51.57</ele>
        <time>2016-09-17T07:02:20Z</time>
      </trkpt>
      <trkpt lat="44.67479" lon="-0.23121">
        <ele>53.01</ele>
        <time>2016-09-17T07:02:26Z</time>
      </trkpt>
      <trkpt lat="44.67486" lon="-0.23129">
        <ele>52.53</ele>
        <time>2016-09-17T07:02:32Z</time>
      </trkpt>
      <trkpt lat="44.675" lon="-0.2315">
        <ele>53.49</ele>
        <time>2016-09-17T07:02:48Z</time>
      </trkpt>
      <trkpt lat="44.67529" lon="-0.23172">
        <ele>54.93</ele>
        <time>2016-09-17T07:03:07Z</time>
      </trkpt>
      <trkpt lat="44.67542" lon="-0.232">
        <ele>55.89</ele>
        <time>2016-09-17T07:03:23Z</time>
      </trkpt>
      <trkpt lat="44.67548" lon="-0.23223">
        <ele>55.89</ele>
        <time>2016-09-17T07:03:36Z</time>
      </trkpt>
      <trkpt lat="44.67552" lon="-0.23261">
        <ele>55.41</ele>
        <time>2016-09-17T07:03:57Z</time>
      </trkpt>
      <trkpt lat="44.67558" lon="-0.23295">
        <ele>55.41</ele>
        <time>2016-09-17T07:04:19Z</time>
      </trkpt>
      <trkpt lat="44.67573" lon="-0.23285">
        <ele>56.37</ele>
        <time>2016-09-17T07:04:35Z</time>
      </trkpt>
      <trkpt lat="44.67582" lon="-0.23274">
        <ele>57.34</ele>
        <time>2016-09-17T07:04:47Z</time>
      </trkpt>
      <trkpt lat="44.6761" lon="-0.23254">
        <ele>59.26</ele>
        <time>2016-09-17T07:05:10Z</time>
      </trkpt>
      <trkpt lat="44.6763" lon="-0.23239">
        <ele>61.18</ele>
        <time>2016-09-17T07:05:29Z</time>
      </trkpt>
      <trkpt lat="44.67652" lon="-0.23222">
        <ele>62.62</ele>
        <time>2016-09-17T07:05:51Z</time>
      </trkpt>
      <trkpt lat="44.6767" lon="-0.23204">
        <ele>63.58</ele>
        <time>2016-09-17T07:06:10Z</time>
      </trkpt>
      <trkpt lat="44.67689" lon="-0.2318">
        <ele>62.62</ele>
        <time>2016-09-17T07:06:30Z</time>
      </trkpt>
      <trkpt lat="44.67712" lon="-0.23154">
        <ele>62.62</ele>
        <time>2016-09-17T07:06:51Z</time>
      </trkpt>
      <trkpt lat="44.67731" lon="-0.23128">
        <ele>62.62</ele>
        <time>2016-09-17T07:07:12Z</time>
      </trkpt>
      <trkpt lat="44.67742" lon="-0.23115">
        <ele>64.07</ele>
        <time>2016-09-17T07:07:27Z</time>
      </trkpt>
      <trkpt lat="44.67759" lon="-0.23092">
        <ele>64.55</ele>
        <time>2016-09-17T07:07:44Z</time>
      </trkpt>
      <trkpt lat="44.67777" lon="-0.23081">
        <ele>65.51</ele>
        <time>2016-09-17T07:08:02Z</time>
      </trkpt>
      <trkpt lat="44.678" lon="-0.23075">
        <ele>66.47</ele>
        <time>2016-09-17T07:08:21Z</time>
      </trkpt>
      <trkpt lat="44.67824" lon="-0.23078">
        <ele>66.47</ele>
        <time>2016-09-17T07:08:40Z</time>
      </trkpt>
      <trkpt lat="44.67827" lon="-0.23099">
        <ele>66.47</ele>
        <time>2016-09-17T07:08:56Z</time>
      </trkpt>
      <trkpt lat="44.67827" lon="-0.23102">
        <ele>66.47</ele>
        <time>2016-09-17T07:08:58Z</time>
      </trkpt>
      <trkpt lat="44.67818" lon="-0.23122">
        <ele>65.51</ele>
        <time>2016-09-17T07:09:15Z</time>
      </trkpt>
      <trkpt lat="44.6781" lon="-0.23131">
        <ele>65.51</ele>
        <time>2016-09-17T07:09:23Z</time>
      </trkpt>
      <trkpt lat="44.67794" lon="-0.23147">
        <ele>64.55</ele>
        <time>2016-09-17T07:09:41Z</time>
      </trkpt>
      <trkpt lat="44.67793" lon="-0.2315">
        <ele>64.07</ele>
        <time>2016-09-17T07:09:43Z</time>
      </trkpt>
      <trkpt lat="44.67804" lon="-0.23176">
        <ele>62.14</ele>
        <time>2016-09-17T07:10:01Z</time>
      </trkpt>
      <trkpt lat="44.67804" lon="-0.23181">
        <ele>62.14</ele>
        <time>2016-09-17T07:10:04Z</time>
      </trkpt>
      <trkpt lat="44.67815" lon="-0.23205">
        <ele>60.7</ele>
        <time>2016-09-17T07:10:23Z</time>
      </trkpt>
      <trkpt lat="44.67829" lon="-0.2323">
        <ele>59.26</ele>
        <time>2016-09-17T07:10:43Z</time>
      </trkpt>
      <trkpt lat="44.6784" lon="-0.23256">
        <ele>57.34</ele>
        <time>2016-09-17T07:11:03Z</time>
      </trkpt>
      <trkpt lat="44.6785" lon="-0.2328">
        <ele>56.86</ele>
        <time>2016-09-17T07:11:23Z</time>
      </trkpt>
      <trkpt lat="44.67851" lon="-0.23281">
        <ele>56.86</ele>
        <time>2016-09-17T07:11:24Z</time>
      </trkpt>
      <trkpt lat="44.67867" lon="-0.23309">
        <ele>55.41</ele>
        <time>2016-09-17T07:11:44Z</time>
      </trkpt>
      <trkpt lat="44.67881" lon="-0.23334">
        <ele>54.93</ele>
        <time>2016-09-17T07:12:02Z</time>
      </trkpt>
      <trkpt lat="44.67894" lon="-0.23364">
        <ele>54.93</ele>
        <time>2016-09-17T07:12:23Z</time>
      </trkpt>
      <trkpt lat="44.67906" lon="-0.23391">
        <ele>55.41</ele>
        <time>2016-09-17T07:12:41Z</time>
      </trkpt>
      <trkpt lat="44.67916" lon="-0.23415">
        <ele>56.86</ele>
        <time>2016-09-17T07:12:59Z</time>
      </trkpt>
      <trkpt lat="44.67922" lon="-0.23426">
        <ele>57.34</ele>
        <time>2016-09-17T07:13:08Z</time>
      </trkpt>
      <trkpt lat="44.67934" lon="-0.23447">
        <ele>58.78</ele>
        <time>2016-09-17T07:13:26Z</time>
      </trkpt>
      <trkpt lat="44.67944" lon="-0.23466">
        <ele>60.7</ele>
        <time>2016-09-17T07:13:42Z</time>
      </trkpt>
      <trkpt lat="44.67958" lon="-0.23488">
        <ele>61.66</ele>
        <time>2016-09-17T07:14:02Z</time>
      </trkpt>
      <trkpt lat="44.67972" lon="-0.2351">
        <ele>63.1</ele>
        <time>2016-09-17T07:14:21Z</time>
      </trkpt>
      <trkpt lat="44.67983" lon="-0.2353">
        <ele>63.58</ele>
        <time>2016-09-17T07:14:38Z</time>
      </trkpt>
      <trkpt lat="44.67983" lon="-0.23531">
        <ele>63.58</ele>
        <time>2016-09-17T07:14:39Z</time>
      </trkpt>
      <trkpt lat="44.67986" lon="-0.23534">
        <ele>63.58</ele>
        <time>2016-09-17T07:14:43Z</time>
      </trkpt>
      <trkpt lat="44.68002" lon="-0.23558">
        <ele>62.62</ele>
        <time>2016-09-17T07:15:03Z</time>
      </trkpt>
      <trkpt lat="44.68006" lon="-0.23563">
        <ele>62.14</ele>
        <time>2016-09-17T07:15:08Z</time>
      </trkpt>
      <trkpt lat="44.68014" lon="-0.23562">
        <ele>62.14</ele>
        <time>2016-09-17T07:15:17Z</time>
      </trkpt>
      <trkpt lat="44.68036" lon="-0.23553">
        <ele>63.1</ele>
        <time>2016-09-17T07:15:37Z</time>
      </trkpt>
      <trkpt lat="44.68055" lon="-0.23541">
        <ele>63.58</ele>
        <time>2016-09-17T07:15:53Z</time>
      </trkpt>
      <trkpt lat="44.68073" lon="-0.2353">
        <ele>64.07</ele>
        <time>2016-09-17T07:16:11Z</time>
      </trkpt>
      <trkpt lat="44.68072" lon="-0.23531">
        <ele>64.07</ele>
        <time>2016-09-17T07:16:21Z</time>
      </trkpt>
      <trkpt lat="44.68073" lon="-0.23531">
        <ele>64.55</ele>
        <time>2016-09-17T07:16:27Z</time>
      </trkpt>
      <trkpt lat="44.68075" lon="-0.23529">
        <ele>64.07</ele>
        <time>2016-09-17T07:16:30Z</time>
      </trkpt>
      <trkpt lat="44.68083" lon="-0.23524">
        <ele>64.55</ele>
        <time>2016-09-17T07:16:45Z</time>
      </trkpt>
      <trkpt lat="44.68099" lon="-0.23511">
        <ele>64.07</ele>
        <time>2016-09-17T07:17:01Z</time>
      </trkpt>
      <trkpt lat="44.68115" lon="-0.23498">
        <ele>64.07</ele>
        <time>2016-09-17T07:17:16Z</time>
      </trkpt>
      <trkpt lat="44.68118" lon="-0.23495">
        <ele>64.07</ele>
        <time>2016-09-17T07:17:19Z</time>
      </trkpt>
      <trkpt lat="44.68121" lon="-0.23491">
        <ele>64.07</ele>
        <time>2016-09-17T07:17:22Z</time>
      </trkpt>
      <trkpt lat="44.68126" lon="-0.23486">
        <ele>64.07</ele>
        <time>2016-09-17T07:17:27Z</time>
      </trkpt>
      <trkpt lat="44.6813" lon="-0.23479">
        <ele>64.07</ele>
        <time>2016-09-17T07:17:32Z</time>
      </trkpt>
      <trkpt lat="44.68136" lon="-0.23468">
        <ele>64.07</ele>
        <time>2016-09-17T07:17:40Z</time>
      </trkpt>
      <trkpt lat="44.68142" lon="-0.23457">
        <ele>64.07</ele>
        <time>2016-09-17T07:17:48Z</time>
      </trkpt>
      <trkpt lat="44.68153" lon="-0.23449">
        <ele>64.55</ele>
        <time>2016-09-17T07:17:59Z</time>
      </trkpt>
      <trkpt lat="44.68157" lon="-0.23454">
        <ele>64.55</ele>
        <time>2016-09-17T07:18:04Z</time>
      </trkpt>
      <trkpt lat="44.68164" lon="-0.23481">
        <ele>64.07</ele>
        <time>2016-09-17T07:18:22Z</time>
      </trkpt>
      <trkpt lat="44.68171" lon="-0.23514">
        <ele>63.1</ele>
        <time>2016-09-17T07:18:42Z</time>
      </trkpt>
      <trkpt lat="44.68179" lon="-0.23546">
        <ele>62.62</ele>
        <time>2016-09-17T07:19:01Z</time>
      </trkpt>
      <trkpt lat="44.68186" lon="-0.23578">
        <ele>61.66</ele>
        <time>2016-09-17T07:19:21Z</time>
      </trkpt>
      <trkpt lat="44.6819" lon="-0.23612">
        <ele>60.7</ele>
        <time>2016-09-17T07:19:40Z</time>
      </trkpt>
      <trkpt lat="44.68191" lon="-0.23626">
        <ele>59.74</ele>
        <time>2016-09-17T07:19:49Z</time>
      </trkpt>
      <trkpt lat="44.68202" lon="-0.23662">
        <ele>58.3</ele>
        <time>2016-09-17T07:20:11Z</time>
      </trkpt>
      <trkpt lat="44.68208" lon="-0.23674">
        <ele>58.78</ele>
        <time>2016-09-17T07:20:28Z</time>
      </trkpt>
      <trkpt lat="44.68208" lon="-0.23674">
        <ele>58.78</ele>
        <time>2016-09-17T07:20:47Z</time>
      </trkpt>
      <trkpt lat="44.68209" lon="-0.23674">
        <ele>58.78</ele>
        <time>2016-09-17T07:21:03Z</time>
      </trkpt>
      <trkpt lat="44.68215" lon="-0.23675">
        <ele>58.78</ele>
        <time>2016-09-17T07:21:08Z</time>
      </trkpt>
      <trkpt lat="44.68225" lon="-0.2368">
        <ele>59.26</ele>
        <time>2016-09-17T07:21:24Z</time>
      </trkpt>
      <trkpt lat="44.68227" lon="-0.23681">
        <ele>59.26</ele>
        <time>2016-09-17T07:22:02Z</time>
      </trkpt>
      <trkpt lat="44.68226" lon="-0.23679">
        <ele>59.26</ele>
        <time>2016-09-17T07:22:04Z</time>
      </trkpt>
      <trkpt lat="44.68225" lon="-0.23678">
        <ele>59.26</ele>
        <time>2016-09-17T07:22:06Z</time>
      </trkpt>
      <trkpt lat="44.6821" lon="-0.23675">
        <ele>58.3</ele>
        <time>2016-09-17T07:22:23Z</time>
      </trkpt>
      <trkpt lat="44.6821" lon="-0.23674">
        <ele>58.78</ele>
        <time>2016-09-17T07:22:42Z</time>
      </trkpt>
      <trkpt lat="44.6821" lon="-0.23674">
        <ele>59.26</ele>
        <time>2016-09-17T07:23:02Z</time>
      </trkpt>
      <trkpt lat="44.6821" lon="-0.23675">
        <ele>58.78</ele>
        <time>2016-09-17T07:23:33Z</time>
      </trkpt>
      <trkpt lat="44.6821" lon="-0.23675">
        <ele>58.78</ele>
        <time>2016-09-17T07:23:52Z</time>
      </trkpt>
      <trkpt lat="44.6821" lon="-0.23675">
        <ele>58.3</ele>
        <time>2016-09-17T07:24:10Z</time>
      </trkpt>
      <trkpt lat="44.68209" lon="-0.23674">
        <ele>58.78</ele>
        <time>2016-09-17T07:24:34Z</time>
      </trkpt>
      <trkpt lat="44.68209" lon="-0.23672">
        <ele>58.78</ele>
        <time>2016-09-17T07:24:55Z</time>
      </trkpt>
      <trkpt lat="44.68208" lon="-0.23673">
        <ele>58.3</ele>
        <time>2016-09-17T07:25:13Z</time>
      </trkpt>
      <trkpt lat="44.68208" lon="-0.23673">
        <ele>58.3</ele>
        <time>2016-09-17T07:25:41Z</time>
      </trkpt>
      <trkpt lat="44.68208" lon="-0.23673">
        <ele>58.3</ele>
        <time>2016-09-17T07:26:03Z</time>
      </trkpt>
      <trkpt lat="44.68208" lon="-0.23673">
        <ele>58.3</ele>
        <time>2016-09-17T07:26:33Z</time>
      </trkpt>
      <trkpt lat="44.68208" lon="-0.23676">
        <ele>58.3</ele>
        <time>2016-09-17T07:26:47Z</time>
      </trkpt>
      <trkpt lat="44.68216" lon="-0.23677">
        <ele>58.3</ele>
        <time>2016-09-17T07:26:59Z</time>
      </trkpt>
      <trkpt lat="44.68218" lon="-0.23677">
        <ele>58.3</ele>
        <time>2016-09-17T07:27:01Z</time>
      </trkpt>
      <trkpt lat="44.68241" lon="-0.23677">
        <ele>59.26</ele>
        <time>2016-09-17T07:27:20Z</time>
      </trkpt>
      <trkpt lat="44.68244" lon="-0.23689">
        <ele>59.74</ele>
        <time>2016-09-17T07:27:29Z</time>
      </trkpt>
      <trkpt lat="44.68245" lon="-0.23724">
        <ele>59.74</ele>
        <time>2016-09-17T07:27:50Z</time>
      </trkpt>
      <trkpt lat="44.68247" lon="-0.23762">
        <ele>59.74</ele>
        <time>2016-09-17T07:28:10Z</time>
      </trkpt>
      <trkpt lat="44.68249" lon="-0.23799">
        <ele>59.26</ele>
        <time>2016-09-17T07:28:31Z</time>
      </trkpt>
      <trkpt lat="44.68248" lon="-0.23826">
        <ele>59.26</ele>
        <time>2016-09-17T07:28:48Z</time>
      </trkpt>
      <trkpt lat="44.68255" lon="-0.23857">
        <ele>59.26</ele>
        <time>2016-09-17T07:29:07Z</time>
      </trkpt>
      <trkpt lat="44.68258" lon="-0.23889">
        <ele>59.74</ele>
        <time>2016-09-17T07:29:26Z</time>
      </trkpt>
      <trkpt lat="44.68263" lon="-0.23919">
        <ele>59.74</ele>
        <time>2016-09-17T07:29:43Z</time>
      </trkpt>
      <trkpt lat="44.68268" lon="-0.23937">
        <ele>60.22</ele>
        <time>2016-09-17T07:29:57Z</time>
      </trkpt>
      <trkpt lat="44.68272" lon="-0.23964">
        <ele>60.22</ele>
        <time>2016-09-17T07:30:13Z</time>
      </trkpt>
      <trkpt lat="44.68273" lon="-0.23966">
        <ele>60.7</ele>
        <time>2016-09-17T07:30:15Z</time>
      </trkpt>
      <trkpt lat="44.68282" lon="-0.23993">
        <ele>59.74</ele>
        <time>2016-09-17T07:30:33Z</time>
      </trkpt>
      <trkpt lat="44.68299" lon="-0.24012">
        <ele>59.26</ele>
        <time>2016-09-17T07:30:53Z</time>
      </trkpt>
      <trkpt lat="44.68308" lon="-0.24037">
        <ele>59.26</ele>
        <time>2016-09-17T07:31:12Z</time>
      </trkpt>
      <trkpt lat="44.68311" lon="-0.24065">
        <ele>59.74</ele>
        <time>2016-09-17T07:31:31Z</time>
      </trkpt>
      <trkpt lat="44.68314" lon="-0.24091">
        <ele>59.74</ele>
        <time>2016-09-17T07:31:49Z</time>
      </trkpt>
      <trkpt lat="44.68326" lon="-0.24109">
        <ele>59.26</ele>
        <time>2016-09-17T07:32:09Z</time>
      </trkpt>
      <trkpt lat="44.6833" lon="-0.24112">
        <ele>59.26</ele>
        <time>2016-09-17T07:32:13Z</time>
      </trkpt>
      <trkpt lat="44.68335" lon="-0.24145">
        <ele>58.78</ele>
        <time>2016-09-17T07:32:33Z</time>
      </trkpt>
      <trkpt lat="44.68335" lon="-0.24147">
        <ele>58.78</ele>
        <time>2016-09-17T07:32:34Z</time>
      </trkpt>
      <trkpt lat="44.68335" lon="-0.24159">
        <ele>58.3</ele>
        <time>2016-09-17T07:32:40Z</time>
      </trkpt>
      <trkpt lat="44.68344" lon="-0.242">
        <ele>57.82</ele>
        <time>2016-09-17T07:33:04Z</time>
      </trkpt>
      <trkpt lat="44.68347" lon="-0.24222">
        <ele>57.34</ele>
        <time>2016-09-17T07:33:23Z</time>
      </trkpt>
      <trkpt lat="44.68355" lon="-0.24222">
        <ele>57.82</ele>
        <time>2016-09-17T07:33:31Z</time>
      </trkpt>
      <trkpt lat="44.68381" lon="-0.24213">
        <ele>58.78</ele>
        <time>2016-09-17T07:33:52Z</time>
      </trkpt>
      <trkpt lat="44.68407" lon="-0.24207">
        <ele>58.78</ele>
        <time>2016-09-17T07:34:13Z</time>
      </trkpt>
      <trkpt lat="44.68435" lon="-0.24199">
        <ele>57.34</ele>
        <time>2016-09-17T07:34:36Z</time>
      </trkpt>
      <trkpt lat="44.68462" lon="-0.2419">
        <ele>56.86</ele>
        <time>2016-09-17T07:34:58Z</time>
      </trkpt>
      <trkpt lat="44.68489" lon="-0.24181">
        <ele>56.37</ele>
        <time>2016-09-17T07:35:20Z</time>
      </trkpt>
      <trkpt lat="44.68518" lon="-0.24169">
        <ele>55.41</ele>
        <time>2016-09-17T07:35:41Z</time>
      </trkpt>
      <trkpt lat="44.68546" lon="-0.24157">
        <ele>54.93</ele>
        <time>2016-09-17T07:36:06Z</time>
      </trkpt>
      <trkpt lat="44.68574" lon="-0.24145">
        <ele>54.45</ele>
        <time>2016-09-17T07:36:27Z</time>
      </trkpt>
      <trkpt lat="44.68597" lon="-0.24133">
        <ele>54.45</ele>
        <time>2016-09-17T07:36:48Z</time>
      </trkpt>
      <trkpt lat="44.68626" lon="-0.24116">
        <ele>53.97</ele>
        <time>2016-09-17T07:37:13Z</time>
      </trkpt>
      <trkpt lat="44.68653" lon="-0.24099">
        <ele>53.49</ele>
        <time>2016-09-17T07:37:36Z</time>
      </trkpt>
      <trkpt lat="44.68674" lon="-0.24084">
        <ele>53.49</ele>
        <time>2016-09-17T07:37:57Z</time>
      </trkpt>
      <trkpt lat="44.68695" lon="-0.24071">
        <ele>53.97</ele>
        <time>2016-09-17T07:38:16Z</time>
      </trkpt>
      <trkpt lat="44.68715" lon="-0.24059">
        <ele>53.97</ele>
        <time>2016-09-17T07:38:33Z</time>
      </trkpt>
      <trkpt lat="44.68732" lon="-0.24049">
        <ele>53.97</ele>
        <time>2016-09-17T07:38:54Z</time>
      </trkpt>
      <trkpt lat="44.6873" lon="-0.2405">
        <ele>54.45</ele>
        <time>2016-09-17T07:39:02Z</time>
      </trkpt>
      <trkpt lat="44.68742" lon="-0.24054">
        <ele>53.97</ele>
        <time>2016-09-17T07:39:17Z</time>
      </trkpt>
      <trkpt lat="44.68742" lon="-0.24059">
        <ele>53.97</ele>
        <time>2016-09-17T07:39:21Z</time>
      </trkpt>
      <trkpt lat="44.68749" lon="-0.2409">
        <ele>53.01</ele>
        <time>2016-09-17T07:39:42Z</time>
      </trkpt>
      <trkpt lat="44.68751" lon="-0.24097">
        <ele>53.01</ele>
        <time>2016-09-17T07:39:47Z</time>
      </trkpt>
      <trkpt lat="44.68761" lon="-0.2413">
        <ele>52.53</ele>
        <time>2016-09-17T07:40:09Z</time>
      </trkpt>
      <trkpt lat="44.6877" lon="-0.2416">
        <ele>51.57</ele>
        <time>2016-09-17T07:40:29Z</time>
      </trkpt>
      <trkpt lat="44.6877" lon="-0.24161">
        <ele>51.57</ele>
        <time>2016-09-17T07:40:30Z</time>
      </trkpt>
      <trkpt lat="44.68781" lon="-0.2419">
        <ele>51.09</ele>
        <time>2016-09-17T07:40:50Z</time>
      </trkpt>
      <trkpt lat="44.68788" lon="-0.24216">
        <ele>50.61</ele>
        <time>2016-09-17T07:41:07Z</time>
      </trkpt>
      <trkpt lat="44.68797" lon="-0.24249">
        <ele>49.65</ele>
        <time>2016-09-17T07:41:29Z</time>
      </trkpt>
      <trkpt lat="44.68805" lon="-0.2428">
        <ele>49.16</ele>
        <time>2016-09-17T07:41:49Z</time>
      </trkpt>
      <trkpt lat="44.68806" lon="-0.24284">
        <ele>49.16</ele>
        <time>2016-09-17T07:41:51Z</time>
      </trkpt>
      <trkpt lat="44.68817" lon="-0.24328">
        <ele>48.68</ele>
        <time>2016-09-17T07:42:17Z</time>
      </trkpt>
      <trkpt lat="44.68828" lon="-0.24358">
        <ele>48.2</ele>
        <time>2016-09-17T07:42:39Z</time>
      </trkpt>
      <trkpt lat="44.68844" lon="-0.24386">
        <ele>48.2</ele>
        <time>2016-09-17T07:43:00Z</time>
      </trkpt>
      <trkpt lat="44.68867" lon="-0.24404">
        <ele>48.68</ele>
        <time>2016-09-17T07:43:23Z</time>
      </trkpt>
      <trkpt lat="44.68869" lon="-0.24405">
        <ele>48.2</ele>
        <time>2016-09-17T07:43:25Z</time>
      </trkpt>
      <trkpt lat="44.68896" lon="-0.24417">
        <ele>49.16</ele>
        <time>2016-09-17T07:43:48Z</time>
      </trkpt>
      <trkpt lat="44.68915" lon="-0.24426">
        <ele>50.13</ele>
        <time>2016-09-17T07:44:06Z</time>
      </trkpt>
      <trkpt lat="44.68937" lon="-0.24439">
        <ele>51.57</ele>
        <time>2016-09-17T07:44:28Z</time>
      </trkpt>
      <trkpt lat="44.68959" lon="-0.24452">
        <ele>52.05</ele>
        <time>2016-09-17T07:44:47Z</time>
      </trkpt>
      <trkpt lat="44.68979" lon="-0.24462">
        <ele>52.53</ele>
        <time>2016-09-17T07:45:06Z</time>
      </trkpt>
      <trkpt lat="44.68998" lon="-0.24474">
        <ele>52.05</ele>
        <time>2016-09-17T07:45:25Z</time>
      </trkpt>
      <trkpt lat="44.69016" lon="-0.24495">
        <ele>52.05</ele>
        <time>2016-09-17T07:45:46Z</time>
      </trkpt>
      <trkpt lat="44.6902" lon="-0.2452">
        <ele>51.57</ele>
        <time>2016-09-17T07:46:00Z</time>
      </trkpt>
      <trkpt lat="44.69023" lon="-0.24546">
        <ele>51.09</ele>
        <time>2016-09-17T07:46:19Z</time>
      </trkpt>
      <trkpt lat="44.69029" lon="-0.24583">
        <ele>51.09</ele>
        <time>2016-09-17T07:46:38Z</time>
      </trkpt>
      <trkpt lat="44.6903" lon="-0.24607">
        <ele>51.09</ele>
        <time>2016-09-17T07:46:57Z</time>
      </trkpt>
      <trkpt lat="44.69028" lon="-0.24623">
        <ele>51.09</ele>
        <time>2016-09-17T07:47:11Z</time>
      </trkpt>
      <trkpt lat="44.69029" lon="-0.24655">
        <ele>51.57</ele>
        <time>2016-09-17T07:47:31Z</time>
      </trkpt>
      <trkpt lat="44.69031" lon="-0.24693">
        <ele>51.57</ele>
        <time>2016-09-17T07:47:51Z</time>
      </trkpt>
      <trkpt lat="44.69034" lon="-0.24728">
        <ele>51.09</ele>
        <time>2016-09-17T07:48:11Z</time>
      </trkpt>
      <trkpt lat="44.6904" lon="-0.24764">
        <ele>50.61</ele>
        <time>2016-09-17T07:48:35Z</time>
      </trkpt>
      <trkpt lat="44.69041" lon="-0.24785">
        <ele>50.13</ele>
        <time>2016-09-17T07:48:55Z</time>
      </trkpt>
      <trkpt lat="44.69035" lon="-0.24792">
        <ele>50.13</ele>
        <time>2016-09-17T07:49:18Z</time>
      </trkpt>
      <trkpt lat="44.6904" lon="-0.24795">
        <ele>50.13</ele>
        <time>2016-09-17T07:49:43Z</time>
      </trkpt>
      <trkpt lat="44.69049" lon="-0.24829">
        <ele>49.65</ele>
        <time>2016-09-17T07:50:07Z</time>
      </trkpt>
      <trkpt lat="44.69056" lon="-0.24865">
        <ele>49.16</ele>
        <time>2016-09-17T07:50:29Z</time>
      </trkpt>
      <trkpt lat="44.69063" lon="-0.24899">
        <ele>49.16</ele>
        <time>2016-09-17T07:50:50Z</time>
      </trkpt>
      <trkpt lat="44.69073" lon="-0.24925">
        <ele>48.68</ele>
        <time>2016-09-17T07:51:08Z</time>
      </trkpt>
      <trkpt lat="44.6908" lon="-0.24925">
        <ele>48.68</ele>
        <time>2016-09-17T07:51:14Z</time>
      </trkpt>
      <trkpt lat="44.69106" lon="-0.2491">
        <ele>48.2</ele>
        <time>2016-09-17T07:51:36Z</time>
      </trkpt>
      <trkpt lat="44.69119" lon="-0.24901">
        <ele>48.2</ele>
        <time>2016-09-17T07:51:57Z</time>
      </trkpt>
      <trkpt lat="44.69132" lon="-0.24897">
        <ele>48.68</ele>
        <time>2016-09-17T07:52:15Z</time>
      </trkpt>
      <trkpt lat="44.6915" lon="-0.24887">
        <ele>48.68</ele>
        <time>2016-09-17T07:52:30Z</time>
      </trkpt>
      <trkpt lat="44.69172" lon="-0.2488">
        <ele>48.2</ele>
        <time>2016-09-17T07:52:51Z</time>
      </trkpt>
      <trkpt lat="44.69179" lon="-0.24874">
        <ele>46.76</ele>
        <time>2016-09-17T07:53:09Z</time>
      </trkpt>
      <trkpt lat="44.69198" lon="-0.24868">
        <ele>45.8</ele>
        <time>2016-09-17T07:53:27Z</time>
      </trkpt>
      <trkpt lat="44.69207" lon="-0.24865">
        <ele>44.84</ele>
        <time>2016-09-17T07:53:46Z</time>
      </trkpt>
      <trkpt lat="44.6924" lon="-0.2486">
        <ele>44.36</ele>
        <time>2016-09-17T07:54:09Z</time>
      </trkpt>
      <trkpt lat="44.69261" lon="-0.24861">
        <ele>44.36</ele>
        <time>2016-09-17T07:54:29Z</time>
      </trkpt>
      <trkpt lat="44.69271" lon="-0.24888">
        <ele>45.8</ele>
        <time>2016-09-17T07:54:47Z</time>
      </trkpt>
      <trkpt lat="44.69273" lon="-0.249">
        <ele>45.8</ele>
        <time>2016-09-17T07:54:52Z</time>
      </trkpt>
      <trkpt lat="44.69277" lon="-0.24938">
        <ele>45.32</ele>
        <time>2016-09-17T07:55:13Z</time>
      </trkpt>
      <trkpt lat="44.69279" lon="-0.24977">
        <ele>44.84</ele>
        <time>2016-09-17T07:55:36Z</time>
      </trkpt>
      <trkpt lat="44.69281" lon="-0.25022">
        <ele>44.36</ele>
        <time>2016-09-17T07:56:00Z</time>
      </trkpt>
      <trkpt lat="44.69284" lon="-0.25053">
        <ele>43.88</ele>
        <time>2016-09-17T07:56:24Z</time>
      </trkpt>
      <trkpt lat="44.69295" lon="-0.25078">
        <ele>43.88</ele>
        <time>2016-09-17T07:56:42Z</time>
      </trkpt>
      <trkpt lat="44.6933" lon="-0.25071">
        <ele>44.36</ele>
        <time>2016-09-17T07:57:03Z</time>
      </trkpt>
      <trkpt lat="44.69342" lon="-0.25068">
        <ele>44.84</ele>
        <time>2016-09-17T07:57:13Z</time>
      </trkpt>
      <trkpt lat="44.69373" lon="-0.25062">
        <ele>45.32</ele>
        <time>2016-09-17T07:57:37Z</time>
      </trkpt>
      <trkpt lat="44.69402" lon="-0.25055">
        <ele>45.8</ele>
        <time>2016-09-17T07:58:01Z</time>
      </trkpt>
      <trkpt lat="44.69431" lon="-0.25051">
        <ele>45.8</ele>
        <time>2016-09-17T07:58:25Z</time>
      </trkpt>
      <trkpt lat="44.69457" lon="-0.25046">
        <ele>46.28</ele>
        <time>2016-09-17T07:58:48Z</time>
      </trkpt>
      <trkpt lat="44.69484" lon="-0.2504">
        <ele>46.76</ele>
        <time>2016-09-17T07:59:10Z</time>
      </trkpt>
      <trkpt lat="44.6951" lon="-0.2504">
        <ele>45.8</ele>
        <time>2016-09-17T07:59:32Z</time>
      </trkpt>
      <trkpt lat="44.69534" lon="-0.25036">
        <ele>45.32</ele>
        <time>2016-09-17T07:59:53Z</time>
      </trkpt>
      <trkpt lat="44.6956" lon="-0.25027">
        <ele>45.32</ele>
        <time>2016-09-17T08:00:15Z</time>
      </trkpt>
      <trkpt lat="44.69568" lon="-0.25023">
        <ele>45.32</ele>
        <time>2016-09-17T08:00:22Z</time>
      </trkpt>
      <trkpt lat="44.69568" lon="-0.24992">
        <ele>45.8</ele>
        <time>2016-09-17T08:00:41Z</time>
      </trkpt>
      <trkpt lat="44.69565" lon="-0.24962">
        <ele>46.76</ele>
        <time>2016-09-17T08:01:00Z</time>
      </trkpt>
      <trkpt lat="44.69561" lon="-0.24923">
        <ele>47.24</ele>
        <time>2016-09-17T08:01:25Z</time>
      </trkpt>
      <trkpt lat="44.69557" lon="-0.24889">
        <ele>47.72</ele>
        <time>2016-09-17T08:01:45Z</time>
      </trkpt>
      <trkpt lat="44.69553" lon="-0.24848">
        <ele>47.24</ele>
        <time>2016-09-17T08:02:07Z</time>
      </trkpt>
      <trkpt lat="44.69551" lon="-0.24812">
        <ele>47.24</ele>
        <time>2016-09-17T08:02:29Z</time>
      </trkpt>
      <trkpt lat="44.69548" lon="-0.24789">
        <ele>47.24</ele>
        <time>2016-09-17T08:02:47Z</time>
      </trkpt>
      <trkpt lat="44.69549" lon="-0.24784">
        <ele>47.24</ele>
        <time>2016-09-17T08:02:50Z</time>
      </trkpt>
      <trkpt lat="44.69553" lon="-0.24776">
        <ele>47.24</ele>
        <time>2016-09-17T08:02:56Z</time>
      </trkpt>
      <trkpt lat="44.69565" lon="-0.24774">
        <ele>46.76</ele>
        <time>2016-09-17T08:03:10Z</time>
      </trkpt>
      <trkpt lat="44.69571" lon="-0.24773">
        <ele>46.76</ele>
        <time>2016-09-17T08:03:14Z</time>
      </trkpt>
      <trkpt lat="44.69602" lon="-0.24772">
        <ele>45.32</ele>
        <time>2016-09-17T08:03:38Z</time>
      </trkpt>
      <trkpt lat="44.69621" lon="-0.24765">
        <ele>45.32</ele>
        <time>2016-09-17T08:03:57Z</time>
      </trkpt>
      <trkpt lat="44.69622" lon="-0.24764">
        <ele>45.32</ele>
        <time>2016-09-17T08:04:13Z</time>
      </trkpt>
      <trkpt lat="44.69622" lon="-0.24764">
        <ele>45.8</ele>
        <time>2016-09-17T08:04:47Z</time>
      </trkpt>
      <trkpt lat="44.69622" lon="-0.24765">
        <ele>45.8</ele>
        <time>2016-09-17T08:04:48Z</time>
      </trkpt>
      <trkpt lat="44.69648" lon="-0.24769">
        <ele>44.84</ele>
        <time>2016-09-17T08:05:05Z</time>
      </trkpt>
      <trkpt lat="44.69679" lon="-0.24772">
        <ele>44.36</ele>
        <time>2016-09-17T08:05:24Z</time>
      </trkpt>
      <trkpt lat="44.69708" lon="-0.24771">
        <ele>43.4</ele>
        <time>2016-09-17T08:05:44Z</time>
      </trkpt>
      <trkpt lat="44.69714" lon="-0.24772">
        <ele>42.92</ele>
        <time>2016-09-17T08:05:49Z</time>
      </trkpt>
      <trkpt lat="44.69724" lon="-0.2477">
        <ele>42.92</ele>
        <time>2016-09-17T08:05:55Z</time>
      </trkpt>
      <trkpt lat="44.69758" lon="-0.24769">
        <ele>42.44</ele>
        <time>2016-09-17T08:06:17Z</time>
      </trkpt>
      <trkpt lat="44.69792" lon="-0.24765">
        <ele>40.99</ele>
        <time>2016-09-17T08:06:39Z</time>
      </trkpt>
      <trkpt lat="44.69816" lon="-0.24763">
        <ele>40.03</ele>
        <time>2016-09-17T08:06:55Z</time>
      </trkpt>
      <trkpt lat="44.69831" lon="-0.2479">
        <ele>40.03</ele>
        <time>2016-09-17T08:07:13Z</time>
      </trkpt>
      <trkpt lat="44.69836" lon="-0.24831">
        <ele>39.07</ele>
        <time>2016-09-17T08:07:32Z</time>
      </trkpt>
      <trkpt lat="44.69834" lon="-0.24837">
        <ele>39.07</ele>
        <time>2016-09-17T08:07:35Z</time>
      </trkpt>
      <trkpt lat="44.69815" lon="-0.24854">
        <ele>38.59</ele>
        <time>2016-09-17T08:07:53Z</time>
      </trkpt>
      <trkpt lat="44.69794" lon="-0.24862">
        <ele>35.23</ele>
        <time>2016-09-17T08:08:07Z</time>
      </trkpt>
      <trkpt lat="44.69793" lon="-0.24862">
        <ele>43.88</ele>
        <time>2016-09-17T08:08:08Z</time>
      </trkpt>
      <trkpt lat="44.69792" lon="-0.24862">
        <ele>39.55</ele>
        <time>2016-09-17T08:08:09Z</time>
      </trkpt>
      <trkpt lat="44.69782" lon="-0.24869">
        <ele>39.07</ele>
        <time>2016-09-17T08:08:20Z</time>
      </trkpt>
      <trkpt lat="44.69758" lon="-0.24888">
        <ele>39.07</ele>
        <time>2016-09-17T08:08:43Z</time>
      </trkpt>
      <trkpt lat="44.69763" lon="-0.2489">
        <ele>37.63</ele>
        <time>2016-09-17T08:08:57Z</time>
      </trkpt>
      <trkpt lat="44.69783" lon="-0.24876">
        <ele>35.71</ele>
        <time>2016-09-17T08:09:17Z</time>
      </trkpt>
      <trkpt lat="44.69813" lon="-0.24877">
        <ele>35.23</ele>
        <time>2016-09-17T08:09:39Z</time>
      </trkpt>
      <trkpt lat="44.69802" lon="-0.24899">
        <ele>35.71</ele>
        <time>2016-09-17T08:09:57Z</time>
      </trkpt>
      <trkpt lat="44.69809" lon="-0.24908">
        <ele>35.23</ele>
        <time>2016-09-17T08:10:07Z</time>
      </trkpt>
      <trkpt lat="44.69825" lon="-0.24939">
        <ele>35.23</ele>
        <time>2016-09-17T08:10:29Z</time>
      </trkpt>
      <trkpt lat="44.69843" lon="-0.2494">
        <ele>36.19</ele>
        <time>2016-09-17T08:10:48Z</time>
      </trkpt>
      <trkpt lat="44.69872" lon="-0.24949">
        <ele>38.59</ele>
        <time>2016-09-17T08:11:13Z</time>
      </trkpt>
      <trkpt lat="44.69891" lon="-0.24971">
        <ele>40.51</ele>
        <time>2016-09-17T08:11:34Z</time>
      </trkpt>
      <trkpt lat="44.6992" lon="-0.24977">
        <ele>41.47</ele>
        <time>2016-09-17T08:11:58Z</time>
      </trkpt>
      <trkpt lat="44.69931" lon="-0.24975">
        <ele>42.44</ele>
        <time>2016-09-17T08:12:09Z</time>
      </trkpt>
      <trkpt lat="44.69961" lon="-0.24969">
        <ele>42.92</ele>
        <time>2016-09-17T08:12:32Z</time>
      </trkpt>
      <trkpt lat="44.69988" lon="-0.24965">
        <ele>43.4</ele>
        <time>2016-09-17T08:12:54Z</time>
      </trkpt>
      <trkpt lat="44.70015" lon="-0.24962">
        <ele>44.84</ele>
        <time>2016-09-17T08:13:18Z</time>
      </trkpt>
      <trkpt lat="44.70044" lon="-0.24959">
        <ele>46.28</ele>
        <time>2016-09-17T08:13:42Z</time>
      </trkpt>
      <trkpt lat="44.7007" lon="-0.24956">
        <ele>47.72</ele>
        <time>2016-09-17T08:14:04Z</time>
      </trkpt>
      <trkpt lat="44.70087" lon="-0.24948">
        <ele>48.68</ele>
        <time>2016-09-17T08:14:23Z</time>
      </trkpt>
      <trkpt lat="44.70092" lon="-0.24917">
        <ele>49.16</ele>
        <time>2016-09-17T08:14:43Z</time>
      </trkpt>
      <trkpt lat="44.70093" lon="-0.24891">
        <ele>48.68</ele>
        <time>2016-09-17T08:15:03Z</time>
      </trkpt>
      <trkpt lat="44.70099" lon="-0.24895">
        <ele>48.68</ele>
        <time>2016-09-17T08:15:23Z</time>
      </trkpt>
      <trkpt lat="44.70097" lon="-0.24878">
        <ele>48.68</ele>
        <time>2016-09-17T08:15:36Z</time>
      </trkpt>
      <trkpt lat="44.70109" lon="-0.24856">
        <ele>48.68</ele>
        <time>2016-09-17T08:15:56Z</time>
      </trkpt>
      <trkpt lat="44.70127" lon="-0.24852">
        <ele>50.13</ele>
        <time>2016-09-17T08:16:18Z</time>
      </trkpt>
      <trkpt lat="44.70152" lon="-0.24854">
        <ele>51.09</ele>
        <time>2016-09-17T08:16:38Z</time>
      </trkpt>
      <trkpt lat="44.70161" lon="-0.24855">
        <ele>51.09</ele>
        <time>2016-09-17T08:16:43Z</time>
      </trkpt>
      <trkpt lat="44.7019" lon="-0.24862">
        <ele>53.01</ele>
        <time>2016-09-17T08:17:04Z</time>
      </trkpt>
      <trkpt lat="44.70212" lon="-0.24871">
        <ele>54.93</ele>
        <time>2016-09-17T08:17:24Z</time>
      </trkpt>
      <trkpt lat="44.70235" lon="-0.24874">
        <ele>55.89</ele>
        <time>2016-09-17T08:17:42Z</time>
      </trkpt>
      <trkpt lat="44.70257" lon="-0.24886">
        <ele>57.34</ele>
        <time>2016-09-17T08:18:04Z</time>
      </trkpt>
      <trkpt lat="44.70288" lon="-0.24888">
        <ele>58.3</ele>
        <time>2016-09-17T08:18:29Z</time>
      </trkpt>
      <trkpt lat="44.70317" lon="-0.2489">
        <ele>59.26</ele>
        <time>2016-09-17T08:18:53Z</time>
      </trkpt>
      <trkpt lat="44.70346" lon="-0.24891">
        <ele>59.74</ele>
        <time>2016-09-17T08:19:16Z</time>
      </trkpt>
      <trkpt lat="44.70372" lon="-0.24895">
        <ele>60.22</ele>
        <time>2016-09-17T08:19:39Z</time>
      </trkpt>
      <trkpt lat="44.704" lon="-0.24899">
        <ele>61.18</ele>
        <time>2016-09-17T08:20:04Z</time>
      </trkpt>
      <trkpt lat="44.70408" lon="-0.24901">
        <ele>61.18</ele>
        <time>2016-09-17T08:20:15Z</time>
      </trkpt>
      <trkpt lat="44.70435" lon="-0.24909">
        <ele>61.66</ele>
        <time>2016-09-17T08:20:39Z</time>
      </trkpt>
      <trkpt lat="44.7043" lon="-0.24917">
        <ele>61.18</ele>
        <time>2016-09-17T08:20:49Z</time>
      </trkpt>
      <trkpt lat="44.70417" lon="-0.24944">
        <ele>61.66</ele>
        <time>2016-09-17T08:21:10Z</time>
      </trkpt>
      <trkpt lat="44.70416" lon="-0.24977">
        <ele>61.18</ele>
        <time>2016-09-17T08:21:31Z</time>
      </trkpt>
      <trkpt lat="44.70416" lon="-0.24986">
        <ele>61.18</ele>
        <time>2016-09-17T08:21:36Z</time>
      </trkpt>
      <trkpt lat="44.70419" lon="-0.25005">
        <ele>61.18</ele>
        <time>2016-09-17T08:21:55Z</time>
      </trkpt>
      <trkpt lat="44.70418" lon="-0.25015">
        <ele>60.7</ele>
        <time>2016-09-17T08:22:14Z</time>
      </trkpt>
      <trkpt lat="44.70423" lon="-0.25027">
        <ele>60.7</ele>
        <time>2016-09-17T08:22:29Z</time>
      </trkpt>
      <trkpt lat="44.70422" lon="-0.25029">
        <ele>60.22</ele>
        <time>2016-09-17T08:22:32Z</time>
      </trkpt>
      <trkpt lat="44.70419" lon="-0.25035">
        <ele>59.74</ele>
        <time>2016-09-17T08:22:36Z</time>
      </trkpt>
      <trkpt lat="44.70395" lon="-0.25065">
        <ele>58.78</ele>
        <time>2016-09-17T08:22:59Z</time>
      </trkpt>
      <trkpt lat="44.70372" lon="-0.25085">
        <ele>57.34</ele>
        <time>2016-09-17T08:23:21Z</time>
      </trkpt>
      <trkpt lat="44.70355" lon="-0.25108">
        <ele>55.89</ele>
        <time>2016-09-17T08:23:40Z</time>
      </trkpt>
      <trkpt lat="44.70343" lon="-0.25137">
        <ele>54.93</ele>
        <time>2016-09-17T08:24:00Z</time>
      </trkpt>
      <trkpt lat="44.70341" lon="-0.25169">
        <ele>54.45</ele>
        <time>2016-09-17T08:24:22Z</time>
      </trkpt>
      <trkpt lat="44.70341" lon="-0.25183">
        <ele>53.97</ele>
        <time>2016-09-17T08:24:30Z</time>
      </trkpt>
      <trkpt lat="44.70342" lon="-0.25214">
        <ele>53.49</ele>
        <time>2016-09-17T08:24:52Z</time>
      </trkpt>
      <trkpt lat="44.70343" lon="-0.25249">
        <ele>53.01</ele>
        <time>2016-09-17T08:25:13Z</time>
      </trkpt>
      <trkpt lat="44.70343" lon="-0.25283">
        <ele>52.53</ele>
        <time>2016-09-17T08:25:33Z</time>
      </trkpt>
      <trkpt lat="44.70346" lon="-0.25318">
        <ele>51.57</ele>
        <time>2016-09-17T08:25:57Z</time>
      </trkpt>
      <trkpt lat="44.70351" lon="-0.25338">
        <ele>52.05</ele>
        <time>2016-09-17T08:26:13Z</time>
      </trkpt>
      <trkpt lat="44.70354" lon="-0.25368">
        <ele>51.57</ele>
        <time>2016-09-17T08:26:35Z</time>
      </trkpt>
      <trkpt lat="44.70353" lon="-0.25404">
        <ele>50.61</ele>
        <time>2016-09-17T08:26:58Z</time>
      </trkpt>
      <trkpt lat="44.70353" lon="-0.25433">
        <ele>50.13</ele>
        <time>2016-09-17T08:27:17Z</time>
      </trkpt>
      <trkpt lat="44.70356" lon="-0.25458">
        <ele>50.13</ele>
        <time>2016-09-17T08:27:36Z</time>
      </trkpt>
      <trkpt lat="44.70355" lon="-0.25476">
        <ele>49.65</ele>
        <time>2016-09-17T08:27:51Z</time>
      </trkpt>
      <trkpt lat="44.70353" lon="-0.25514">
        <ele>48.68</ele>
        <time>2016-09-17T08:28:15Z</time>
      </trkpt>
      <trkpt lat="44.70351" lon="-0.25547">
        <ele>47.72</ele>
        <time>2016-09-17T08:28:36Z</time>
      </trkpt>
      <trkpt lat="44.70352" lon="-0.25571">
        <ele>46.76</ele>
        <time>2016-09-17T08:28:57Z</time>
      </trkpt>
      <trkpt lat="44.70349" lon="-0.256">
        <ele>45.8</ele>
        <time>2016-09-17T08:29:20Z</time>
      </trkpt>
      <trkpt lat="44.70346" lon="-0.25621">
        <ele>45.8</ele>
        <time>2016-09-17T08:29:38Z</time>
      </trkpt>
      <trkpt lat="44.70347" lon="-0.25621">
        <ele>45.8</ele>
        <time>2016-09-17T08:29:51Z</time>
      </trkpt>
      <trkpt lat="44.70346" lon="-0.25631">
        <ele>45.32</ele>
        <time>2016-09-17T08:30:08Z</time>
      </trkpt>
      <trkpt lat="44.70344" lon="-0.25643">
        <ele>45.32</ele>
        <time>2016-09-17T08:30:19Z</time>
      </trkpt>
      <trkpt lat="44.70343" lon="-0.25647">
        <ele>44.84</ele>
        <time>2016-09-17T08:30:22Z</time>
      </trkpt>
      <trkpt lat="44.70338" lon="-0.25687">
        <ele>43.4</ele>
        <time>2016-09-17T08:30:43Z</time>
      </trkpt>
      <trkpt lat="44.70332" lon="-0.25717">
        <ele>41.95</ele>
        <time>2016-09-17T08:31:04Z</time>
      </trkpt>
      <trkpt lat="44.70329" lon="-0.25751">
        <ele>41.47</ele>
        <time>2016-09-17T08:31:24Z</time>
      </trkpt>
      <trkpt lat="44.70325" lon="-0.25789">
        <ele>40.51</ele>
        <time>2016-09-17T08:31:47Z</time>
      </trkpt>
      <trkpt lat="44.70316" lon="-0.25821">
        <ele>39.55</ele>
        <time>2016-09-17T08:32:09Z</time>
      </trkpt>
      <trkpt lat="44.70307" lon="-0.25849">
        <ele>39.07</ele>
        <time>2016-09-17T08:32:27Z</time>
      </trkpt>
      <trkpt lat="44.70298" lon="-0.25883">
        <ele>38.11</ele>
        <time>2016-09-17T08:32:46Z</time>
      </trkpt>
      <trkpt lat="44.70293" lon="-0.25896">
        <ele>37.15</ele>
        <time>2016-09-17T08:33:03Z</time>
      </trkpt>
      <trkpt lat="44.70288" lon="-0.25905">
        <ele>37.15</ele>
        <time>2016-09-17T08:33:13Z</time>
      </trkpt>
      <trkpt lat="44.70271" lon="-0.25932">
        <ele>34.74</ele>
        <time>2016-09-17T08:33:35Z</time>
      </trkpt>
      <trkpt lat="44.70259" lon="-0.25958">
        <ele>32.82</ele>
        <time>2016-09-17T08:33:53Z</time>
      </trkpt>
      <trkpt lat="44.70262" lon="-0.25981">
        <ele>31.38</ele>
        <time>2016-09-17T08:34:13Z</time>
      </trkpt>
      <trkpt lat="44.70264" lon="-0.26022">
        <ele>30.9</ele>
        <time>2016-09-17T08:34:33Z</time>
      </trkpt>
      <trkpt lat="44.70264" lon="-0.2603">
        <ele>30.9</ele>
        <time>2016-09-17T08:34:36Z</time>
      </trkpt>
      <trkpt lat="44.70263" lon="-0.26059">
        <ele>29.94</ele>
        <time>2016-09-17T08:34:55Z</time>
      </trkpt>
      <trkpt lat="44.70261" lon="-0.26065">
        <ele>29.94</ele>
        <time>2016-09-17T08:35:11Z</time>
      </trkpt>
      <trkpt lat="44.70258" lon="-0.26076">
        <ele>29.46</ele>
        <time>2016-09-17T08:35:31Z</time>
      </trkpt>
      <trkpt lat="44.7026" lon="-0.26077">
        <ele>29.46</ele>
        <time>2016-09-17T08:35:56Z</time>
      </trkpt>
      <trkpt lat="44.7026" lon="-0.26078">
        <ele>29.94</ele>
        <time>2016-09-17T08:36:22Z</time>
      </trkpt>
      <trkpt lat="44.70258" lon="-0.26077">
        <ele>29.46</ele>
        <time>2016-09-17T08:36:38Z</time>
      </trkpt>
      <trkpt lat="44.70258" lon="-0.26077">
        <ele>29.94</ele>
        <time>2016-09-17T08:36:55Z</time>
      </trkpt>
      <trkpt lat="44.70258" lon="-0.26077">
        <ele>33.3</ele>
        <time>2016-09-17T08:37:01Z</time>
      </trkpt>
      <trkpt lat="44.70258" lon="-0.26077">
        <ele>29.94</ele>
        <time>2016-09-17T08:37:02Z</time>
      </trkpt>
      <trkpt lat="44.70258" lon="-0.26077">
        <ele>32.34</ele>
        <time>2016-09-17T08:37:07Z</time>
      </trkpt>
      <trkpt lat="44.70258" lon="-0.26077">
        <ele>29.94</ele>
        <time>2016-09-17T08:37:09Z</time>
      </trkpt>
      <trkpt lat="44.70258" lon="-0.26077">
        <ele>33.3</ele>
        <time>2016-09-17T08:37:24Z</time>
      </trkpt>
      <trkpt lat="44.70258" lon="-0.26077">
        <ele>29.46</ele>
        <time>2016-09-17T08:37:25Z</time>
      </trkpt>
      <trkpt lat="44.70258" lon="-0.26077">
        <ele>30.42</ele>
        <time>2016-09-17T08:37:39Z</time>
      </trkpt>
      <trkpt lat="44.70259" lon="-0.26072">
        <ele>29.94</ele>
        <time>2016-09-17T08:37:57Z</time>
      </trkpt>
      <trkpt lat="44.70259" lon="-0.26072">
        <ele>29.94</ele>
        <time>2016-09-17T08:38:20Z</time>
      </trkpt>
      <trkpt lat="44.70259" lon="-0.26076">
        <ele>29.94</ele>
        <time>2016-09-17T08:38:38Z</time>
      </trkpt>
      <trkpt lat="44.70259" lon="-0.26075">
        <ele>29.94</ele>
        <time>2016-09-17T08:38:57Z</time>
      </trkpt>
      <trkpt lat="44.70258" lon="-0.26075">
        <ele>30.42</ele>
        <time>2016-09-17T08:39:20Z</time>
      </trkpt>
      <trkpt lat="44.7026" lon="-0.26075">
        <ele>29.46</ele>
        <time>2016-09-17T08:39:37Z</time>
      </trkpt>
      <trkpt lat="44.70261" lon="-0.26077">
        <ele>29.46</ele>
        <time>2016-09-17T08:39:54Z</time>
      </trkpt>
      <trkpt lat="44.70262" lon="-0.26078">
        <ele>28.98</ele>
        <time>2016-09-17T08:40:27Z</time>
      </trkpt>
      <trkpt lat="44.70261" lon="-0.26077">
        <ele>28.98</ele>
        <time>2016-09-17T08:41:07Z</time>
      </trkpt>
      <trkpt lat="44.70261" lon="-0.26076">
        <ele>28.98</ele>
        <time>2016-09-17T08:41:37Z</time>
      </trkpt>
      <trkpt lat="44.70262" lon="-0.26077">
        <ele>28.98</ele>
        <time>2016-09-17T08:42:12Z</time>
      </trkpt>
      <trkpt lat="44.70262" lon="-0.26077">
        <ele>30.9</ele>
        <time>2016-09-17T08:42:28Z</time>
      </trkpt>
      <trkpt lat="44.70259" lon="-0.26074">
        <ele>29.94</ele>
        <time>2016-09-17T08:42:49Z</time>
      </trkpt>
      <trkpt lat="44.70259" lon="-0.26075">
        <ele>30.42</ele>
        <time>2016-09-17T08:43:08Z</time>
      </trkpt>
      <trkpt lat="44.70259" lon="-0.26074">
        <ele>30.42</ele>
        <time>2016-09-17T08:43:31Z</time>
      </trkpt>
      <trkpt lat="44.70251" lon="-0.26068">
        <ele>30.42</ele>
        <time>2016-09-17T08:43:53Z</time>
      </trkpt>
      <trkpt lat="44.70257" lon="-0.26063">
        <ele>29.46</ele>
        <time>2016-09-17T08:44:13Z</time>
      </trkpt>
      <trkpt lat="44.70258" lon="-0.26062">
        <ele>30.42</ele>
        <time>2016-09-17T08:44:34Z</time>
      </trkpt>
      <trkpt lat="44.70257" lon="-0.2606">
        <ele>30.42</ele>
        <time>2016-09-17T08:44:56Z</time>
      </trkpt>
      <trkpt lat="44.70258" lon="-0.26062">
        <ele>30.9</ele>
        <time>2016-09-17T08:45:28Z</time>
      </trkpt>
      <trkpt lat="44.70255" lon="-0.26063">
        <ele>30.9</ele>
        <time>2016-09-17T08:45:47Z</time>
      </trkpt>
      <trkpt lat="44.70255" lon="-0.26063">
        <ele>30.9</ele>
        <time>2016-09-17T08:46:15Z</time>
      </trkpt>
      <trkpt lat="44.70256" lon="-0.26066">
        <ele>30.9</ele>
        <time>2016-09-17T08:46:43Z</time>
      </trkpt>
      <trkpt lat="44.70258" lon="-0.26068">
        <ele>30.9</ele>
        <time>2016-09-17T08:47:07Z</time>
      </trkpt>
      <trkpt lat="44.7026" lon="-0.26071">
        <ele>30.9</ele>
        <time>2016-09-17T08:47:28Z</time>
      </trkpt>
      <trkpt lat="44.70265" lon="-0.26075">
        <ele>31.38</ele>
        <time>2016-09-17T08:47:56Z</time>
      </trkpt>
      <trkpt lat="44.70263" lon="-0.26104">
        <ele>31.38</ele>
        <time>2016-09-17T08:48:19Z</time>
      </trkpt>
      <trkpt lat="44.70264" lon="-0.26128">
        <ele>31.86</ele>
        <time>2016-09-17T08:48:40Z</time>
      </trkpt>
      <trkpt lat="44.70264" lon="-0.26141">
        <ele>31.86</ele>
        <time>2016-09-17T08:48:49Z</time>
      </trkpt>
      <trkpt lat="44.70264" lon="-0.26167">
        <ele>32.34</ele>
        <time>2016-09-17T08:49:04Z</time>
      </trkpt>
      <trkpt lat="44.70264" lon="-0.26174">
        <ele>32.34</ele>
        <time>2016-09-17T08:49:09Z</time>
      </trkpt>
      <trkpt lat="44.70264" lon="-0.26195">
        <ele>32.82</ele>
        <time>2016-09-17T08:49:23Z</time>
      </trkpt>
      <trkpt lat="44.70268" lon="-0.26216">
        <ele>34.74</ele>
        <time>2016-09-17T08:49:38Z</time>
      </trkpt>
      <trkpt lat="44.70271" lon="-0.26243">
        <ele>37.15</ele>
        <time>2016-09-17T08:49:58Z</time>
      </trkpt>
      <trkpt lat="44.70273" lon="-0.26263">
        <ele>39.07</ele>
        <time>2016-09-17T08:50:15Z</time>
      </trkpt>
      <trkpt lat="44.70264" lon="-0.26258">
        <ele>40.03</ele>
        <time>2016-09-17T08:50:29Z</time>
      </trkpt>
      <trkpt lat="44.70252" lon="-0.26239">
        <ele>40.03</ele>
        <time>2016-09-17T08:50:45Z</time>
      </trkpt>
      <trkpt lat="44.70249" lon="-0.26233">
        <ele>36.67</ele>
        <time>2016-09-17T08:50:52Z</time>
      </trkpt>
      <trkpt lat="44.70249" lon="-0.26233">
        <ele>41.95</ele>
        <time>2016-09-17T08:50:53Z</time>
      </trkpt>
      <trkpt lat="44.70247" lon="-0.2623">
        <ele>39.07</ele>
        <time>2016-09-17T08:51:03Z</time>
      </trkpt>
      <trkpt lat="44.70246" lon="-0.26228">
        <ele>44.36</ele>
        <time>2016-09-17T08:51:05Z</time>
      </trkpt>
      <trkpt lat="44.70245" lon="-0.26227">
        <ele>38.59</ele>
        <time>2016-09-17T08:51:06Z</time>
      </trkpt>
      <trkpt lat="44.70234" lon="-0.26215">
        <ele>39.55</ele>
        <time>2016-09-17T08:51:20Z</time>
      </trkpt>
      <trkpt lat="44.70232" lon="-0.26214">
        <ele>39.55</ele>
        <time>2016-09-17T08:51:21Z</time>
      </trkpt>
      <trkpt lat="44.70226" lon="-0.26211">
        <ele>40.03</ele>
        <time>2016-09-17T08:51:26Z</time>
      </trkpt>
      <trkpt lat="44.70203" lon="-0.26203">
        <ele>40.99</ele>
        <time>2016-09-17T08:51:46Z</time>
      </trkpt>
      <trkpt lat="44.70183" lon="-0.26195">
        <ele>41.95</ele>
        <time>2016-09-17T08:52:03Z</time>
      </trkpt>
      <trkpt lat="44.70165" lon="-0.26188">
        <ele>42.92</ele>
        <time>2016-09-17T08:52:19Z</time>
      </trkpt>
      <trkpt lat="44.70151" lon="-0.26175">
        <ele>41.95</ele>
        <time>2016-09-17T08:52:35Z</time>
      </trkpt>
      <trkpt lat="44.70151" lon="-0.2617">
        <ele>41.47</ele>
        <time>2016-09-17T08:52:38Z</time>
      </trkpt>
      <trkpt lat="44.70144" lon="-0.26153">
        <ele>41.47</ele>
        <time>2016-09-17T08:52:51Z</time>
      </trkpt>
      <trkpt lat="44.70125" lon="-0.26148">
        <ele>41.47</ele>
        <time>2016-09-17T08:53:05Z</time>
      </trkpt>
      <trkpt lat="44.70103" lon="-0.26145">
        <ele>41.47</ele>
        <time>2016-09-17T08:53:22Z</time>
      </trkpt>
      <trkpt lat="44.70083" lon="-0.26144">
        <ele>41.47</ele>
        <time>2016-09-17T08:53:39Z</time>
      </trkpt>
      <trkpt lat="44.70058" lon="-0.26142">
        <ele>40.99</ele>
        <time>2016-09-17T08:53:58Z</time>
      </trkpt>
      <trkpt lat="44.70052" lon="-0.26139">
        <ele>40.51</ele>
        <time>2016-09-17T08:54:05Z</time>
      </trkpt>
      <trkpt lat="44.70043" lon="-0.26117">
        <ele>38.11</ele>
        <time>2016-09-17T08:54:23Z</time>
      </trkpt>
      <trkpt lat="44.70035" lon="-0.26097">
        <ele>35.71</ele>
        <time>2016-09-17T08:54:39Z</time>
      </trkpt>
      <trkpt lat="44.70026" lon="-0.26092">
        <ele>33.78</ele>
        <time>2016-09-17T08:54:54Z</time>
      </trkpt>
      <trkpt lat="44.70016" lon="-0.26111">
        <ele>34.74</ele>
        <time>2016-09-17T08:55:12Z</time>
      </trkpt>
      <trkpt lat="44.7001" lon="-0.26116">
        <ele>34.26</ele>
        <time>2016-09-17T08:55:19Z</time>
      </trkpt>
      <trkpt lat="44.70008" lon="-0.26119">
        <ele>34.74</ele>
        <time>2016-09-17T08:55:22Z</time>
      </trkpt>
      <trkpt lat="44.69995" lon="-0.26138">
        <ele>35.23</ele>
        <time>2016-09-17T08:55:39Z</time>
      </trkpt>
      <trkpt lat="44.6999" lon="-0.26147">
        <ele>35.71</ele>
        <time>2016-09-17T08:55:47Z</time>
      </trkpt>
      <trkpt lat="44.69988" lon="-0.26148">
        <ele>35.71</ele>
        <time>2016-09-17T08:55:49Z</time>
      </trkpt>
      <trkpt lat="44.69967" lon="-0.26164">
        <ele>35.23</ele>
        <time>2016-09-17T08:56:10Z</time>
      </trkpt>
      <trkpt lat="44.69956" lon="-0.26178">
        <ele>35.71</ele>
        <time>2016-09-17T08:56:24Z</time>
      </trkpt>
      <trkpt lat="44.69944" lon="-0.26195">
        <ele>34.74</ele>
        <time>2016-09-17T08:56:44Z</time>
      </trkpt>
      <trkpt lat="44.69942" lon="-0.26194">
        <ele>34.26</ele>
        <time>2016-09-17T08:57:09Z</time>
      </trkpt>
      <trkpt lat="44.69941" lon="-0.26193">
        <ele>34.26</ele>
        <time>2016-09-17T08:57:32Z</time>
      </trkpt>
      <trkpt lat="44.69941" lon="-0.26193">
        <ele>33.3</ele>
        <time>2016-09-17T08:57:52Z</time>
      </trkpt>
      <trkpt lat="44.69934" lon="-0.26164">
        <ele>33.3</ele>
        <time>2016-09-17T08:58:10Z</time>
      </trkpt>
      <trkpt lat="44.6993" lon="-0.26137">
        <ele>32.82</ele>
        <time>2016-09-17T08:58:30Z</time>
      </trkpt>
      <trkpt lat="44.69937" lon="-0.26122">
        <ele>32.34</ele>
        <time>2016-09-17T08:58:47Z</time>
      </trkpt>
      <trkpt lat="44.69939" lon="-0.26098">
        <ele>32.82</ele>
        <time>2016-09-17T08:59:06Z</time>
      </trkpt>
      <trkpt lat="44.69945" lon="-0.26075">
        <ele>32.34</ele>
        <time>2016-09-17T08:59:24Z</time>
      </trkpt>
      <trkpt lat="44.6993" lon="-0.26061">
        <ele>32.82</ele>
        <time>2016-09-17T08:59:41Z</time>
      </trkpt>
      <trkpt lat="44.69926" lon="-0.26055">
        <ele>32.82</ele>
        <time>2016-09-17T08:59:45Z</time>
      </trkpt>
      <trkpt lat="44.69911" lon="-0.26045">
        <ele>32.82</ele>
        <time>2016-09-17T09:00:03Z</time>
      </trkpt>
      <trkpt lat="44.69895" lon="-0.26041">
        <ele>32.82</ele>
        <time>2016-09-17T09:00:22Z</time>
      </trkpt>
      <trkpt lat="44.69895" lon="-0.26043">
        <ele>32.82</ele>
        <time>2016-09-17T09:00:48Z</time>
      </trkpt>
      <trkpt lat="44.69892" lon="-0.26041">
        <ele>32.82</ele>
        <time>2016-09-17T09:01:09Z</time>
      </trkpt>
      <trkpt lat="44.6989" lon="-0.26041">
        <ele>32.82</ele>
        <time>2016-09-17T09:01:25Z</time>
      </trkpt>
      <trkpt lat="44.69883" lon="-0.26034">
        <ele>32.82</ele>
        <time>2016-09-17T09:01:43Z</time>
      </trkpt>
      <trkpt lat="44.69883" lon="-0.26032">
        <ele>32.82</ele>
        <time>2016-09-17T09:02:06Z</time>
      </trkpt>
      <trkpt lat="44.69877" lon="-0.26017">
        <ele>33.3</ele>
        <time>2016-09-17T09:02:25Z</time>
      </trkpt>
      <trkpt lat="44.69873" lon="-0.25993">
        <ele>32.82</ele>
        <time>2016-09-17T09:02:42Z</time>
      </trkpt>
      <trkpt lat="44.69864" lon="-0.25973">
        <ele>32.34</ele>
        <time>2016-09-17T09:03:00Z</time>
      </trkpt>
      <trkpt lat="44.69855" lon="-0.25959">
        <ele>33.3</ele>
        <time>2016-09-17T09:03:13Z</time>
      </trkpt>
      <trkpt lat="44.69844" lon="-0.25943">
        <ele>33.3</ele>
        <time>2016-09-17T09:03:31Z</time>
      </trkpt>
      <trkpt lat="44.69829" lon="-0.25935">
        <ele>33.3</ele>
        <time>2016-09-17T09:03:49Z</time>
      </trkpt>
      <trkpt lat="44.69809" lon="-0.25926">
        <ele>33.3</ele>
        <time>2016-09-17T09:04:05Z</time>
      </trkpt>
      <trkpt lat="44.69802" lon="-0.25924">
        <ele>33.3</ele>
        <time>2016-09-17T09:04:19Z</time>
      </trkpt>
      <trkpt lat="44.69794" lon="-0.25918">
        <ele>33.3</ele>
        <time>2016-09-17T09:04:35Z</time>
      </trkpt>
      <trkpt lat="44.69785" lon="-0.2592">
        <ele>33.3</ele>
        <time>2016-09-17T09:04:54Z</time>
      </trkpt>
      <trkpt lat="44.6978" lon="-0.25929">
        <ele>34.74</ele>
        <time>2016-09-17T09:05:11Z</time>
      </trkpt>
      <trkpt lat="44.69772" lon="-0.2594">
        <ele>36.19</ele>
        <time>2016-09-17T09:05:26Z</time>
      </trkpt>
      <trkpt lat="44.69769" lon="-0.25938">
        <ele>36.19</ele>
        <time>2016-09-17T09:05:31Z</time>
      </trkpt>
      <trkpt lat="44.69756" lon="-0.25934">
        <ele>36.67</ele>
        <time>2016-09-17T09:05:47Z</time>
      </trkpt>
      <trkpt lat="44.69747" lon="-0.25933">
        <ele>37.63</ele>
        <time>2016-09-17T09:06:01Z</time>
      </trkpt>
      <trkpt lat="44.69733" lon="-0.25924">
        <ele>37.63</ele>
        <time>2016-09-17T09:06:18Z</time>
      </trkpt>
      <trkpt lat="44.6972" lon="-0.25915">
        <ele>37.15</ele>
        <time>2016-09-17T09:06:31Z</time>
      </trkpt>
      <trkpt lat="44.69705" lon="-0.25911">
        <ele>37.63</ele>
        <time>2016-09-17T09:06:47Z</time>
      </trkpt>
      <trkpt lat="44.69689" lon="-0.25904">
        <ele>38.11</ele>
        <time>2016-09-17T09:07:05Z</time>
      </trkpt>
      <trkpt lat="44.69676" lon="-0.259">
        <ele>38.11</ele>
        <time>2016-09-17T09:07:19Z</time>
      </trkpt>
      <trkpt lat="44.69659" lon="-0.25897">
        <ele>38.11</ele>
        <time>2016-09-17T09:07:34Z</time>
      </trkpt>
      <trkpt lat="44.69642" lon="-0.25895">
        <ele>37.15</ele>
        <time>2016-09-17T09:07:50Z</time>
      </trkpt>
      <trkpt lat="44.69625" lon="-0.25897">
        <ele>37.15</ele>
        <time>2016-09-17T09:08:05Z</time>
      </trkpt>
      <trkpt lat="44.69612" lon="-0.25902">
        <ele>37.15</ele>
        <time>2016-09-17T09:08:23Z</time>
      </trkpt>
      <trkpt lat="44.69608" lon="-0.25904">
        <ele>37.15</ele>
        <time>2016-09-17T09:08:43Z</time>
      </trkpt>
      <trkpt lat="44.69601" lon="-0.25903">
        <ele>36.67</ele>
        <time>2016-09-17T09:08:54Z</time>
      </trkpt>
      <trkpt lat="44.69594" lon="-0.25874">
        <ele>35.71</ele>
        <time>2016-09-17T09:09:16Z</time>
      </trkpt>
      <trkpt lat="44.69586" lon="-0.25879">
        <ele>35.71</ele>
        <time>2016-09-17T09:09:26Z</time>
      </trkpt>
      <trkpt lat="44.69574" lon="-0.25889">
        <ele>36.19</ele>
        <time>2016-09-17T09:09:39Z</time>
      </trkpt>
      <trkpt lat="44.69559" lon="-0.25904">
        <ele>36.67</ele>
        <time>2016-09-17T09:09:56Z</time>
      </trkpt>
      <trkpt lat="44.69543" lon="-0.25916">
        <ele>38.11</ele>
        <time>2016-09-17T09:10:13Z</time>
      </trkpt>
      <trkpt lat="44.69532" lon="-0.25924">
        <ele>38.59</ele>
        <time>2016-09-17T09:10:25Z</time>
      </trkpt>
      <trkpt lat="44.69517" lon="-0.25935">
        <ele>40.03</ele>
        <time>2016-09-17T09:10:43Z</time>
      </trkpt>
      <trkpt lat="44.69502" lon="-0.25951">
        <ele>40.99</ele>
        <time>2016-09-17T09:11:00Z</time>
      </trkpt>
      <trkpt lat="44.69491" lon="-0.25968">
        <ele>42.92</ele>
        <time>2016-09-17T09:11:16Z</time>
      </trkpt>
      <trkpt lat="44.69482" lon="-0.25984">
        <ele>42.92</ele>
        <time>2016-09-17T09:11:31Z</time>
      </trkpt>
      <trkpt lat="44.69471" lon="-0.25996">
        <ele>43.88</ele>
        <time>2016-09-17T09:11:45Z</time>
      </trkpt>
      <trkpt lat="44.69452" lon="-0.25997">
        <ele>43.4</ele>
        <time>2016-09-17T09:12:02Z</time>
      </trkpt>
      <trkpt lat="44.69442" lon="-0.26006">
        <ele>42.92</ele>
        <time>2016-09-17T09:12:14Z</time>
      </trkpt>
      <trkpt lat="44.69425" lon="-0.26025">
        <ele>42.44</ele>
        <time>2016-09-17T09:12:33Z</time>
      </trkpt>
      <trkpt lat="44.69406" lon="-0.26043">
        <ele>40.99</ele>
        <time>2016-09-17T09:12:53Z</time>
      </trkpt>
      <trkpt lat="44.69389" lon="-0.26053">
        <ele>39.55</ele>
        <time>2016-09-17T09:13:12Z</time>
      </trkpt>
      <trkpt lat="44.69389" lon="-0.26073">
        <ele>38.59</ele>
        <time>2016-09-17T09:13:34Z</time>
      </trkpt>
      <trkpt lat="44.69386" lon="-0.261">
        <ele>37.15</ele>
        <time>2016-09-17T09:13:53Z</time>
      </trkpt>
      <trkpt lat="44.69383" lon="-0.2611">
        <ele>35.71</ele>
        <time>2016-09-17T09:14:13Z</time>
      </trkpt>
      <trkpt lat="44.69382" lon="-0.26136">
        <ele>35.71</ele>
        <time>2016-09-17T09:14:34Z</time>
      </trkpt>
      <trkpt lat="44.6938" lon="-0.26168">
        <ele>36.67</ele>
        <time>2016-09-17T09:14:54Z</time>
      </trkpt>
      <trkpt lat="44.69375" lon="-0.26202">
        <ele>37.15</ele>
        <time>2016-09-17T09:15:15Z</time>
      </trkpt>
      <trkpt lat="44.69365" lon="-0.26226">
        <ele>37.15</ele>
        <time>2016-09-17T09:15:31Z</time>
      </trkpt>
      <trkpt lat="44.6936" lon="-0.26241">
        <ele>35.23</ele>
        <time>2016-09-17T09:15:50Z</time>
      </trkpt>
      <trkpt lat="44.69357" lon="-0.26252">
        <ele>34.74</ele>
        <time>2016-09-17T09:16:05Z</time>
      </trkpt>
      <trkpt lat="44.69356" lon="-0.26257">
        <ele>34.74</ele>
        <time>2016-09-17T09:16:26Z</time>
      </trkpt>
      <trkpt lat="44.69351" lon="-0.26268">
        <ele>34.26</ele>
        <time>2016-09-17T09:16:43Z</time>
      </trkpt>
      <trkpt lat="44.69345" lon="-0.26284">
        <ele>33.78</ele>
        <time>2016-09-17T09:17:00Z</time>
      </trkpt>
      <trkpt lat="44.69342" lon="-0.26294">
        <ele>33.78</ele>
        <time>2016-09-17T09:17:14Z</time>
      </trkpt>
      <trkpt lat="44.6934" lon="-0.26296">
        <ele>33.78</ele>
        <time>2016-09-17T09:17:16Z</time>
      </trkpt>
      <trkpt lat="44.69337" lon="-0.26299">
        <ele>34.26</ele>
        <time>2016-09-17T09:17:18Z</time>
      </trkpt>
      <trkpt lat="44.69322" lon="-0.26303">
        <ele>34.26</ele>
        <time>2016-09-17T09:17:35Z</time>
      </trkpt>
      <trkpt lat="44.69318" lon="-0.26303">
        <ele>33.78</ele>
        <time>2016-09-17T09:17:51Z</time>
      </trkpt>
      <trkpt lat="44.69313" lon="-0.26306">
        <ele>33.78</ele>
        <time>2016-09-17T09:18:04Z</time>
      </trkpt>
      <trkpt lat="44.69306" lon="-0.26307">
        <ele>34.26</ele>
        <time>2016-09-17T09:18:13Z</time>
      </trkpt>
      <trkpt lat="44.69292" lon="-0.26309">
        <ele>35.71</ele>
        <time>2016-09-17T09:18:30Z</time>
      </trkpt>
      <trkpt lat="44.69282" lon="-0.26313">
        <ele>36.67</ele>
        <time>2016-09-17T09:18:43Z</time>
      </trkpt>
      <trkpt lat="44.69271" lon="-0.26319">
        <ele>38.59</ele>
        <time>2016-09-17T09:18:58Z</time>
      </trkpt>
      <trkpt lat="44.6926" lon="-0.26325">
        <ele>40.03</ele>
        <time>2016-09-17T09:19:10Z</time>
      </trkpt>
      <trkpt lat="44.6925" lon="-0.26328">
        <ele>40.99</ele>
        <time>2016-09-17T09:19:20Z</time>
      </trkpt>
      <trkpt lat="44.69236" lon="-0.26332">
        <ele>42.92</ele>
        <time>2016-09-17T09:19:37Z</time>
      </trkpt>
      <trkpt lat="44.69233" lon="-0.26332">
        <ele>43.4</ele>
        <time>2016-09-17T09:19:41Z</time>
      </trkpt>
      <trkpt lat="44.69218" lon="-0.26336">
        <ele>43.88</ele>
        <time>2016-09-17T09:19:57Z</time>
      </trkpt>
      <trkpt lat="44.69202" lon="-0.26339">
        <ele>44.84</ele>
        <time>2016-09-17T09:20:14Z</time>
      </trkpt>
      <trkpt lat="44.69191" lon="-0.26341">
        <ele>45.32</ele>
        <time>2016-09-17T09:20:24Z</time>
      </trkpt>
      <trkpt lat="44.69176" lon="-0.26342">
        <ele>45.8</ele>
        <time>2016-09-17T09:20:39Z</time>
      </trkpt>
      <trkpt lat="44.69159" lon="-0.2634">
        <ele>46.28</ele>
        <time>2016-09-17T09:20:55Z</time>
      </trkpt>
      <trkpt lat="44.69143" lon="-0.26346">
        <ele>45.8</ele>
        <time>2016-09-17T09:21:10Z</time>
      </trkpt>
      <trkpt lat="44.69132" lon="-0.26354">
        <ele>45.32</ele>
        <time>2016-09-17T09:21:21Z</time>
      </trkpt>
      <trkpt lat="44.69116" lon="-0.2637">
        <ele>45.32</ele>
        <time>2016-09-17T09:21:38Z</time>
      </trkpt>
      <trkpt lat="44.69099" lon="-0.26387">
        <ele>46.28</ele>
        <time>2016-09-17T09:21:56Z</time>
      </trkpt>
      <trkpt lat="44.69084" lon="-0.26404">
        <ele>46.76</ele>
        <time>2016-09-17T09:22:12Z</time>
      </trkpt>
      <trkpt lat="44.69062" lon="-0.26418">
        <ele>47.24</ele>
        <time>2016-09-17T09:22:31Z</time>
      </trkpt>
      <trkpt lat="44.6905" lon="-0.26411">
        <ele>46.28</ele>
        <time>2016-09-17T09:22:44Z</time>
      </trkpt>
      <trkpt lat="44.69045" lon="-0.26404">
        <ele>45.8</ele>
        <time>2016-09-17T09:22:50Z</time>
      </trkpt>
      <trkpt lat="44.69033" lon="-0.26383">
        <ele>45.32</ele>
        <time>2016-09-17T09:23:07Z</time>
      </trkpt>
      <trkpt lat="44.69019" lon="-0.26371">
        <ele>43.4</ele>
        <time>2016-09-17T09:23:20Z</time>
      </trkpt>
      <trkpt lat="44.69001" lon="-0.26377">
        <ele>44.84</ele>
        <time>2016-09-17T09:23:36Z</time>
      </trkpt>
      <trkpt lat="44.68983" lon="-0.26392">
        <ele>40.51</ele>
        <time>2016-09-17T09:23:53Z</time>
      </trkpt>
      <trkpt lat="44.68982" lon="-0.26393">
        <ele>48.2</ele>
        <time>2016-09-17T09:23:54Z</time>
      </trkpt>
      <trkpt lat="44.68978" lon="-0.26396">
        <ele>41.95</ele>
        <time>2016-09-17T09:23:58Z</time>
      </trkpt>
      <trkpt lat="44.68977" lon="-0.26397">
        <ele>46.76</ele>
        <time>2016-09-17T09:23:59Z</time>
      </trkpt>
      <trkpt lat="44.6896" lon="-0.26411">
        <ele>45.8</ele>
        <time>2016-09-17T09:24:15Z</time>
      </trkpt>
      <trkpt lat="44.68937" lon="-0.26426">
        <ele>46.76</ele>
        <time>2016-09-17T09:24:36Z</time>
      </trkpt>
      <trkpt lat="44.68928" lon="-0.26421">
        <ele>47.24</ele>
        <time>2016-09-17T09:24:48Z</time>
      </trkpt>
      <trkpt lat="44.68921" lon="-0.26382">
        <ele>47.72</ele>
        <time>2016-09-17T09:25:10Z</time>
      </trkpt>
      <trkpt lat="44.68915" lon="-0.26349">
        <ele>45.8</ele>
        <time>2016-09-17T09:25:30Z</time>
      </trkpt>
      <trkpt lat="44.68905" lon="-0.26321">
        <ele>45.32</ele>
        <time>2016-09-17T09:25:49Z</time>
      </trkpt>
      <trkpt lat="44.68893" lon="-0.26282">
        <ele>44.36</ele>
        <time>2016-09-17T09:26:13Z</time>
      </trkpt>
      <trkpt lat="44.6888" lon="-0.26246">
        <ele>43.4</ele>
        <time>2016-09-17T09:26:39Z</time>
      </trkpt>
      <trkpt lat="44.68863" lon="-0.26218">
        <ele>43.4</ele>
        <time>2016-09-17T09:27:01Z</time>
      </trkpt>
      <trkpt lat="44.68846" lon="-0.26198">
        <ele>43.4</ele>
        <time>2016-09-17T09:27:22Z</time>
      </trkpt>
      <trkpt lat="44.68831" lon="-0.26166">
        <ele>42.44</ele>
        <time>2016-09-17T09:27:44Z</time>
      </trkpt>
      <trkpt lat="44.68814" lon="-0.26138">
        <ele>41.47</ele>
        <time>2016-09-17T09:28:08Z</time>
      </trkpt>
      <trkpt lat="44.68801" lon="-0.2611">
        <ele>40.51</ele>
        <time>2016-09-17T09:28:31Z</time>
      </trkpt>
      <trkpt lat="44.68787" lon="-0.26081">
        <ele>39.55</ele>
        <time>2016-09-17T09:28:52Z</time>
      </trkpt>
      <trkpt lat="44.68772" lon="-0.26052">
        <ele>37.63</ele>
        <time>2016-09-17T09:29:13Z</time>
      </trkpt>
      <trkpt lat="44.68753" lon="-0.26021">
        <ele>36.19</ele>
        <time>2016-09-17T09:29:39Z</time>
      </trkpt>
      <trkpt lat="44.68737" lon="-0.25997">
        <ele>34.74</ele>
        <time>2016-09-17T09:29:58Z</time>
      </trkpt>
      <trkpt lat="44.68718" lon="-0.25973">
        <ele>33.3</ele>
        <time>2016-09-17T09:30:20Z</time>
      </trkpt>
      <trkpt lat="44.6872" lon="-0.25951">
        <ele>31.38</ele>
        <time>2016-09-17T09:30:36Z</time>
      </trkpt>
      <trkpt lat="44.68713" lon="-0.25942">
        <ele>30.42</ele>
        <time>2016-09-17T09:30:42Z</time>
      </trkpt>
      <trkpt lat="44.68689" lon="-0.25916">
        <ele>28.98</ele>
        <time>2016-09-17T09:31:06Z</time>
      </trkpt>
      <trkpt lat="44.68671" lon="-0.25905">
        <ele>28.5</ele>
        <time>2016-09-17T09:31:23Z</time>
      </trkpt>
      <trkpt lat="44.68658" lon="-0.25909">
        <ele>28.5</ele>
        <time>2016-09-17T09:31:33Z</time>
      </trkpt>
      <trkpt lat="44.68642" lon="-0.25911">
        <ele>29.46</ele>
        <time>2016-09-17T09:31:52Z</time>
      </trkpt>
      <trkpt lat="44.68643" lon="-0.25914">
        <ele>28.98</ele>
        <time>2016-09-17T09:32:18Z</time>
      </trkpt>
      <trkpt lat="44.68642" lon="-0.25918">
        <ele>29.46</ele>
        <time>2016-09-17T09:32:43Z</time>
      </trkpt>
      <trkpt lat="44.68639" lon="-0.25902">
        <ele>29.46</ele>
        <time>2016-09-17T09:32:59Z</time>
      </trkpt>
      <trkpt lat="44.68639" lon="-0.25897">
        <ele>29.46</ele>
        <time>2016-09-17T09:33:05Z</time>
      </trkpt>
      <trkpt lat="44.68653" lon="-0.2588">
        <ele>29.94</ele>
        <time>2016-09-17T09:33:26Z</time>
      </trkpt>
      <trkpt lat="44.68653" lon="-0.25866">
        <ele>30.42</ele>
        <time>2016-09-17T09:33:39Z</time>
      </trkpt>
      <trkpt lat="44.68674" lon="-0.25846">
        <ele>30.9</ele>
        <time>2016-09-17T09:34:01Z</time>
      </trkpt>
      <trkpt lat="44.68699" lon="-0.25837">
        <ele>32.82</ele>
        <time>2016-09-17T09:34:23Z</time>
      </trkpt>
      <trkpt lat="44.6871" lon="-0.25823">
        <ele>33.78</ele>
        <time>2016-09-17T09:34:43Z</time>
      </trkpt>
      <trkpt lat="44.68708" lon="-0.25823">
        <ele>33.78</ele>
        <time>2016-09-17T09:34:45Z</time>
      </trkpt>
      <trkpt lat="44.68688" lon="-0.25823">
        <ele>34.26</ele>
        <time>2016-09-17T09:35:01Z</time>
      </trkpt>
      <trkpt lat="44.68685" lon="-0.25821">
        <ele>34.26</ele>
        <time>2016-09-17T09:35:04Z</time>
      </trkpt>
      <trkpt lat="44.68667" lon="-0.25825">
        <ele>35.71</ele>
        <time>2016-09-17T09:35:21Z</time>
      </trkpt>
      <trkpt lat="44.68647" lon="-0.25822">
        <ele>36.67</ele>
        <time>2016-09-17T09:35:39Z</time>
      </trkpt>
      <trkpt lat="44.68646" lon="-0.25819">
        <ele>36.67</ele>
        <time>2016-09-17T09:35:41Z</time>
      </trkpt>
      <trkpt lat="44.68639" lon="-0.258">
        <ele>37.15</ele>
        <time>2016-09-17T09:36:01Z</time>
      </trkpt>
      <trkpt lat="44.68635" lon="-0.25779">
        <ele>38.11</ele>
        <time>2016-09-17T09:36:16Z</time>
      </trkpt>
      <trkpt lat="44.68634" lon="-0.25775">
        <ele>38.11</ele>
        <time>2016-09-17T09:36:19Z</time>
      </trkpt>
      <trkpt lat="44.68627" lon="-0.25746">
        <ele>39.55</ele>
        <time>2016-09-17T09:36:37Z</time>
      </trkpt>
      <trkpt lat="44.68624" lon="-0.2573">
        <ele>40.03</ele>
        <time>2016-09-17T09:36:47Z</time>
      </trkpt>
      <trkpt lat="44.68616" lon="-0.25696">
        <ele>41.47</ele>
        <time>2016-09-17T09:37:10Z</time>
      </trkpt>
      <trkpt lat="44.68609" lon="-0.25662">
        <ele>42.44</ele>
        <time>2016-09-17T09:37:31Z</time>
      </trkpt>
      <trkpt lat="44.68603" lon="-0.25634">
        <ele>42.92</ele>
        <time>2016-09-17T09:37:49Z</time>
      </trkpt>
      <trkpt lat="44.68598" lon="-0.25608">
        <ele>43.88</ele>
        <time>2016-09-17T09:38:06Z</time>
      </trkpt>
      <trkpt lat="44.68591" lon="-0.25579">
        <ele>44.36</ele>
        <time>2016-09-17T09:38:25Z</time>
      </trkpt>
      <trkpt lat="44.68585" lon="-0.25552">
        <ele>44.84</ele>
        <time>2016-09-17T09:38:42Z</time>
      </trkpt>
      <trkpt lat="44.68577" lon="-0.25523">
        <ele>45.32</ele>
        <time>2016-09-17T09:39:01Z</time>
      </trkpt>
      <trkpt lat="44.6857" lon="-0.25493">
        <ele>45.32</ele>
        <time>2016-09-17T09:39:20Z</time>
      </trkpt>
      <trkpt lat="44.68559" lon="-0.25448">
        <ele>44.84</ele>
        <time>2016-09-17T09:39:46Z</time>
      </trkpt>
      <trkpt lat="44.68553" lon="-0.25422">
        <ele>45.32</ele>
        <time>2016-09-17T09:40:05Z</time>
      </trkpt>
      <trkpt lat="44.68545" lon="-0.25396">
        <ele>46.28</ele>
        <time>2016-09-17T09:40:23Z</time>
      </trkpt>
      <trkpt lat="44.68539" lon="-0.25367">
        <ele>46.28</ele>
        <time>2016-09-17T09:40:41Z</time>
      </trkpt>
      <trkpt lat="44.68533" lon="-0.25349">
        <ele>45.32</ele>
        <time>2016-09-17T09:40:54Z</time>
      </trkpt>
      <trkpt lat="44.68533" lon="-0.25345">
        <ele>46.76</ele>
        <time>2016-09-17T09:40:56Z</time>
      </trkpt>
      <trkpt lat="44.68524" lon="-0.25312">
        <ele>47.24</ele>
        <time>2016-09-17T09:41:17Z</time>
      </trkpt>
      <trkpt lat="44.68518" lon="-0.25285">
        <ele>47.24</ele>
        <time>2016-09-17T09:41:34Z</time>
      </trkpt>
      <trkpt lat="44.68511" lon="-0.25259">
        <ele>47.72</ele>
        <time>2016-09-17T09:41:52Z</time>
      </trkpt>
      <trkpt lat="44.68504" lon="-0.2523">
        <ele>48.68</ele>
        <time>2016-09-17T09:42:11Z</time>
      </trkpt>
      <trkpt lat="44.68496" lon="-0.25201">
        <ele>49.16</ele>
        <time>2016-09-17T09:42:29Z</time>
      </trkpt>
      <trkpt lat="44.6849" lon="-0.25175">
        <ele>49.65</ele>
        <time>2016-09-17T09:42:46Z</time>
      </trkpt>
      <trkpt lat="44.68482" lon="-0.25148">
        <ele>50.61</ele>
        <time>2016-09-17T09:43:04Z</time>
      </trkpt>
      <trkpt lat="44.68482" lon="-0.25127">
        <ele>51.09</ele>
        <time>2016-09-17T09:43:22Z</time>
      </trkpt>
      <trkpt lat="44.68488" lon="-0.2512">
        <ele>51.09</ele>
        <time>2016-09-17T09:43:29Z</time>
      </trkpt>
      <trkpt lat="44.68511" lon="-0.25105">
        <ele>52.05</ele>
        <time>2016-09-17T09:43:47Z</time>
      </trkpt>
      <trkpt lat="44.68526" lon="-0.25089">
        <ele>53.01</ele>
        <time>2016-09-17T09:44:03Z</time>
      </trkpt>
      <trkpt lat="44.68544" lon="-0.25075">
        <ele>53.49</ele>
        <time>2016-09-17T09:44:20Z</time>
      </trkpt>
      <trkpt lat="44.68561" lon="-0.25059">
        <ele>53.49</ele>
        <time>2016-09-17T09:44:37Z</time>
      </trkpt>
      <trkpt lat="44.68578" lon="-0.25042">
        <ele>53.49</ele>
        <time>2016-09-17T09:44:55Z</time>
      </trkpt>
      <trkpt lat="44.68584" lon="-0.25032">
        <ele>53.97</ele>
        <time>2016-09-17T09:45:09Z</time>
      </trkpt>
      <trkpt lat="44.68587" lon="-0.25024">
        <ele>53.97</ele>
        <time>2016-09-17T09:45:15Z</time>
      </trkpt>
      <trkpt lat="44.68586" lon="-0.25014">
        <ele>54.45</ele>
        <time>2016-09-17T09:45:21Z</time>
      </trkpt>
      <trkpt lat="44.68579" lon="-0.24991">
        <ele>55.89</ele>
        <time>2016-09-17T09:45:37Z</time>
      </trkpt>
      <trkpt lat="44.68571" lon="-0.2497">
        <ele>56.37</ele>
        <time>2016-09-17T09:45:50Z</time>
      </trkpt>
      <trkpt lat="44.68569" lon="-0.24965">
        <ele>56.37</ele>
        <time>2016-09-17T09:45:54Z</time>
      </trkpt>
      <trkpt lat="44.68561" lon="-0.2494">
        <ele>56.37</ele>
        <time>2016-09-17T09:46:10Z</time>
      </trkpt>
      <trkpt lat="44.68553" lon="-0.24918">
        <ele>56.86</ele>
        <time>2016-09-17T09:46:26Z</time>
      </trkpt>
      <trkpt lat="44.68545" lon="-0.24895">
        <ele>57.34</ele>
        <time>2016-09-17T09:46:41Z</time>
      </trkpt>
      <trkpt lat="44.68537" lon="-0.24873">
        <ele>57.34</ele>
        <time>2016-09-17T09:46:56Z</time>
      </trkpt>
      <trkpt lat="44.68528" lon="-0.24851">
        <ele>56.86</ele>
        <time>2016-09-17T09:47:12Z</time>
      </trkpt>
      <trkpt lat="44.68519" lon="-0.24825">
        <ele>55.89</ele>
        <time>2016-09-17T09:47:28Z</time>
      </trkpt>
      <trkpt lat="44.68507" lon="-0.24803">
        <ele>55.89</ele>
        <time>2016-09-17T09:47:44Z</time>
      </trkpt>
      <trkpt lat="44.68497" lon="-0.24783">
        <ele>55.41</ele>
        <time>2016-09-17T09:47:57Z</time>
      </trkpt>
      <trkpt lat="44.68487" lon="-0.24758">
        <ele>55.41</ele>
        <time>2016-09-17T09:48:13Z</time>
      </trkpt>
      <trkpt lat="44.68478" lon="-0.24729">
        <ele>54.93</ele>
        <time>2016-09-17T09:48:32Z</time>
      </trkpt>
      <trkpt lat="44.68472" lon="-0.24715">
        <ele>54.93</ele>
        <time>2016-09-17T09:48:47Z</time>
      </trkpt>
      <trkpt lat="44.68469" lon="-0.24706">
        <ele>54.45</ele>
        <time>2016-09-17T09:48:54Z</time>
      </trkpt>
      <trkpt lat="44.68463" lon="-0.24681">
        <ele>55.41</ele>
        <time>2016-09-17T09:49:10Z</time>
      </trkpt>
      <trkpt lat="44.68462" lon="-0.24676">
        <ele>55.41</ele>
        <time>2016-09-17T09:49:14Z</time>
      </trkpt>
      <trkpt lat="44.68459" lon="-0.24673">
        <ele>55.89</ele>
        <time>2016-09-17T09:49:17Z</time>
      </trkpt>
      <trkpt lat="44.68452" lon="-0.24644">
        <ele>55.41</ele>
        <time>2016-09-17T09:49:35Z</time>
      </trkpt>
      <trkpt lat="44.68451" lon="-0.24641">
        <ele>55.41</ele>
        <time>2016-09-17T09:49:37Z</time>
      </trkpt>
      <trkpt lat="44.68448" lon="-0.24631">
        <ele>55.41</ele>
        <time>2016-09-17T09:49:44Z</time>
      </trkpt>
      <trkpt lat="44.68442" lon="-0.24617">
        <ele>55.41</ele>
        <time>2016-09-17T09:49:54Z</time>
      </trkpt>
      <trkpt lat="44.6844" lon="-0.24608">
        <ele>55.41</ele>
        <time>2016-09-17T09:49:59Z</time>
      </trkpt>
      <trkpt lat="44.68437" lon="-0.24597">
        <ele>55.89</ele>
        <time>2016-09-17T09:50:13Z</time>
      </trkpt>
      <trkpt lat="44.68433" lon="-0.24596">
        <ele>55.41</ele>
        <time>2016-09-17T09:50:32Z</time>
      </trkpt>
      <trkpt lat="44.68409" lon="-0.24602">
        <ele>54.45</ele>
        <time>2016-09-17T09:50:53Z</time>
      </trkpt>
      <trkpt lat="44.68387" lon="-0.24611">
        <ele>53.49</ele>
        <time>2016-09-17T09:51:12Z</time>
      </trkpt>
      <trkpt lat="44.68365" lon="-0.24612">
        <ele>53.01</ele>
        <time>2016-09-17T09:51:30Z</time>
      </trkpt>
      <trkpt lat="44.68355" lon="-0.24611">
        <ele>53.01</ele>
        <time>2016-09-17T09:51:38Z</time>
      </trkpt>
      <trkpt lat="44.68342" lon="-0.24611">
        <ele>53.01</ele>
        <time>2016-09-17T09:51:50Z</time>
      </trkpt>
      <trkpt lat="44.68325" lon="-0.24613">
        <ele>52.53</ele>
        <time>2016-09-17T09:52:05Z</time>
      </trkpt>
      <trkpt lat="44.68305" lon="-0.24628">
        <ele>52.05</ele>
        <time>2016-09-17T09:52:25Z</time>
      </trkpt>
      <trkpt lat="44.68289" lon="-0.2463">
        <ele>51.57</ele>
        <time>2016-09-17T09:52:40Z</time>
      </trkpt>
      <trkpt lat="44.68267" lon="-0.24631">
        <ele>49.65</ele>
        <time>2016-09-17T09:53:00Z</time>
      </trkpt>
      <trkpt lat="44.6825" lon="-0.24632">
        <ele>48.68</ele>
        <time>2016-09-17T09:53:17Z</time>
      </trkpt>
      <trkpt lat="44.68228" lon="-0.2463">
        <ele>48.2</ele>
        <time>2016-09-17T09:53:37Z</time>
      </trkpt>
      <trkpt lat="44.68214" lon="-0.24628">
        <ele>47.24</ele>
        <time>2016-09-17T09:53:50Z</time>
      </trkpt>
      <trkpt lat="44.68208" lon="-0.24625">
        <ele>47.24</ele>
        <time>2016-09-17T09:53:57Z</time>
      </trkpt>
      <trkpt lat="44.68195" lon="-0.24627">
        <ele>46.76</ele>
        <time>2016-09-17T09:54:08Z</time>
      </trkpt>
      <trkpt lat="44.68192" lon="-0.24626">
        <ele>46.28</ele>
        <time>2016-09-17T09:54:11Z</time>
      </trkpt>
      <trkpt lat="44.6817" lon="-0.24627">
        <ele>45.32</ele>
        <time>2016-09-17T09:54:28Z</time>
      </trkpt>
      <trkpt lat="44.68151" lon="-0.24626">
        <ele>44.36</ele>
        <time>2016-09-17T09:54:43Z</time>
      </trkpt>
      <trkpt lat="44.68131" lon="-0.24626">
        <ele>44.36</ele>
        <time>2016-09-17T09:54:59Z</time>
      </trkpt>
      <trkpt lat="44.68112" lon="-0.24628">
        <ele>42.92</ele>
        <time>2016-09-17T09:55:15Z</time>
      </trkpt>
      <trkpt lat="44.68092" lon="-0.24631">
        <ele>41.95</ele>
        <time>2016-09-17T09:55:33Z</time>
      </trkpt>
      <trkpt lat="44.68067" lon="-0.24639">
        <ele>40.99</ele>
        <time>2016-09-17T09:55:53Z</time>
      </trkpt>
      <trkpt lat="44.68045" lon="-0.24646">
        <ele>40.03</ele>
        <time>2016-09-17T09:56:11Z</time>
      </trkpt>
      <trkpt lat="44.68023" lon="-0.2465">
        <ele>40.03</ele>
        <time>2016-09-17T09:56:30Z</time>
      </trkpt>
      <trkpt lat="44.68004" lon="-0.24656">
        <ele>39.07</ele>
        <time>2016-09-17T09:56:48Z</time>
      </trkpt>
      <trkpt lat="44.67984" lon="-0.24664">
        <ele>38.59</ele>
        <time>2016-09-17T09:57:06Z</time>
      </trkpt>
      <trkpt lat="44.67964" lon="-0.24676">
        <ele>37.63</ele>
        <time>2016-09-17T09:57:24Z</time>
      </trkpt>
      <trkpt lat="44.6794" lon="-0.24691">
        <ele>37.15</ele>
        <time>2016-09-17T09:57:45Z</time>
      </trkpt>
      <trkpt lat="44.67925" lon="-0.24697">
        <ele>36.19</ele>
        <time>2016-09-17T09:58:00Z</time>
      </trkpt>
      <trkpt lat="44.67906" lon="-0.24703">
        <ele>35.23</ele>
        <time>2016-09-17T09:58:16Z</time>
      </trkpt>
      <trkpt lat="44.67887" lon="-0.2471">
        <ele>34.26</ele>
        <time>2016-09-17T09:58:32Z</time>
      </trkpt>
      <trkpt lat="44.67878" lon="-0.24716">
        <ele>34.26</ele>
        <time>2016-09-17T09:58:41Z</time>
      </trkpt>
      <trkpt lat="44.67855" lon="-0.24724">
        <ele>33.3</ele>
        <time>2016-09-17T09:59:00Z</time>
      </trkpt>
      <trkpt lat="44.67851" lon="-0.24725">
        <ele>33.3</ele>
        <time>2016-09-17T09:59:16Z</time>
      </trkpt>
      <trkpt lat="44.67851" lon="-0.24725">
        <ele>33.3</ele>
        <time>2016-09-17T09:59:33Z</time>
      </trkpt>
      <trkpt lat="44.67851" lon="-0.24725">
        <ele>32.82</ele>
        <time>2016-09-17T09:59:55Z</time>
      </trkpt>
      <trkpt lat="44.67846" lon="-0.24721">
        <ele>33.3</ele>
        <time>2016-09-17T10:00:11Z</time>
      </trkpt>
      <trkpt lat="44.67839" lon="-0.24699">
        <ele>33.3</ele>
        <time>2016-09-17T10:00:26Z</time>
      </trkpt>
      <trkpt lat="44.67835" lon="-0.24676">
        <ele>33.78</ele>
        <time>2016-09-17T10:00:40Z</time>
      </trkpt>
      <trkpt lat="44.67835" lon="-0.24674">
        <ele>33.78</ele>
        <time>2016-09-17T10:00:41Z</time>
      </trkpt>
      <trkpt lat="44.6783" lon="-0.24651">
        <ele>35.23</ele>
        <time>2016-09-17T10:00:57Z</time>
      </trkpt>
      <trkpt lat="44.67825" lon="-0.24646">
        <ele>35.23</ele>
        <time>2016-09-17T10:01:03Z</time>
      </trkpt>
      <trkpt lat="44.67808" lon="-0.24643">
        <ele>35.23</ele>
        <time>2016-09-17T10:01:19Z</time>
      </trkpt>
      <trkpt lat="44.67796" lon="-0.24641">
        <ele>35.23</ele>
        <time>2016-09-17T10:01:35Z</time>
      </trkpt>
      <trkpt lat="44.67784" lon="-0.24641">
        <ele>35.23</ele>
        <time>2016-09-17T10:01:53Z</time>
      </trkpt>
      <trkpt lat="44.67781" lon="-0.24636">
        <ele>35.23</ele>
        <time>2016-09-17T10:02:04Z</time>
      </trkpt>
      <trkpt lat="44.67777" lon="-0.24632">
        <ele>35.23</ele>
        <time>2016-09-17T10:02:19Z</time>
      </trkpt>
      <trkpt lat="44.67778" lon="-0.2463">
        <ele>35.23</ele>
        <time>2016-09-17T10:02:33Z</time>
      </trkpt>
      <trkpt lat="44.67779" lon="-0.24629">
        <ele>35.23</ele>
        <time>2016-09-17T10:02:52Z</time>
      </trkpt>
      <trkpt lat="44.67777" lon="-0.24635">
        <ele>35.23</ele>
        <time>2016-09-17T10:03:18Z</time>
      </trkpt>
      <trkpt lat="44.67779" lon="-0.24634">
        <ele>35.71</ele>
        <time>2016-09-17T10:03:42Z</time>
      </trkpt>
      <trkpt lat="44.67776" lon="-0.24644">
        <ele>35.23</ele>
        <time>2016-09-17T10:03:55Z</time>
      </trkpt>
      <trkpt lat="44.67776" lon="-0.24654">
        <ele>34.26</ele>
        <time>2016-09-17T10:04:08Z</time>
      </trkpt>
      <trkpt lat="44.67776" lon="-0.24654">
        <ele>34.26</ele>
        <time>2016-09-17T10:04:14Z</time>
      </trkpt>
      <trkpt lat="44.67777" lon="-0.24647">
        <ele>34.74</ele>
        <time>2016-09-17T10:04:26Z</time>
      </trkpt>
      <trkpt lat="44.67778" lon="-0.24651">
        <ele>34.26</ele>
        <time>2016-09-17T10:04:45Z</time>
      </trkpt>
      <trkpt lat="44.67775" lon="-0.24661">
        <ele>34.26</ele>
        <time>2016-09-17T10:04:57Z</time>
      </trkpt>
      <trkpt lat="44.67775" lon="-0.24663">
        <ele>33.78</ele>
        <time>2016-09-17T10:04:59Z</time>
      </trkpt>
      <trkpt lat="44.67768" lon="-0.24691">
        <ele>33.78</ele>
        <time>2016-09-17T10:05:15Z</time>
      </trkpt>
      <trkpt lat="44.67765" lon="-0.24715">
        <ele>33.78</ele>
        <time>2016-09-17T10:05:32Z</time>
      </trkpt>
      <trkpt lat="44.67765" lon="-0.24739">
        <ele>33.3</ele>
        <time>2016-09-17T10:05:48Z</time>
      </trkpt>
      <trkpt lat="44.67764" lon="-0.2477">
        <ele>33.78</ele>
        <time>2016-09-17T10:06:05Z</time>
      </trkpt>
      <trkpt lat="44.67763" lon="-0.24798">
        <ele>33.3</ele>
        <time>2016-09-17T10:06:23Z</time>
      </trkpt>
      <trkpt lat="44.67762" lon="-0.24824">
        <ele>33.78</ele>
        <time>2016-09-17T10:06:39Z</time>
      </trkpt>
      <trkpt lat="44.67761" lon="-0.24851">
        <ele>33.3</ele>
        <time>2016-09-17T10:06:55Z</time>
      </trkpt>
      <trkpt lat="44.6776" lon="-0.24863">
        <ele>33.3</ele>
        <time>2016-09-17T10:07:02Z</time>
      </trkpt>
      <trkpt lat="44.67757" lon="-0.24881">
        <ele>33.3</ele>
        <time>2016-09-17T10:07:14Z</time>
      </trkpt>
      <trkpt lat="44.6775" lon="-0.24884">
        <ele>33.3</ele>
        <time>2016-09-17T10:07:19Z</time>
      </trkpt>
      <trkpt lat="44.67733" lon="-0.24892">
        <ele>34.74</ele>
        <time>2016-09-17T10:07:36Z</time>
      </trkpt>
      <trkpt lat="44.67714" lon="-0.24889">
        <ele>35.23</ele>
        <time>2016-09-17T10:07:52Z</time>
      </trkpt>
      <trkpt lat="44.67698" lon="-0.24894">
        <ele>36.19</ele>
        <time>2016-09-17T10:08:07Z</time>
      </trkpt>
      <trkpt lat="44.67694" lon="-0.24903">
        <ele>37.15</ele>
        <time>2016-09-17T10:08:17Z</time>
      </trkpt>
      <trkpt lat="44.67695" lon="-0.24906">
        <ele>37.15</ele>
        <time>2016-09-17T10:08:19Z</time>
      </trkpt>
      <trkpt lat="44.67699" lon="-0.24928">
        <ele>38.11</ele>
        <time>2016-09-17T10:08:34Z</time>
      </trkpt>
      <trkpt lat="44.67702" lon="-0.24949">
        <ele>39.07</ele>
        <time>2016-09-17T10:08:48Z</time>
      </trkpt>
      <trkpt lat="44.67704" lon="-0.24957">
        <ele>40.03</ele>
        <time>2016-09-17T10:09:04Z</time>
      </trkpt>
      <trkpt lat="44.67706" lon="-0.24967">
        <ele>40.51</ele>
        <time>2016-09-17T10:09:11Z</time>
      </trkpt>
      <trkpt lat="44.6771" lon="-0.24994">
        <ele>40.51</ele>
        <time>2016-09-17T10:09:28Z</time>
      </trkpt>
      <trkpt lat="44.67715" lon="-0.25024">
        <ele>40.03</ele>
        <time>2016-09-17T10:09:45Z</time>
      </trkpt>
      <trkpt lat="44.67707" lon="-0.25041">
        <ele>40.51</ele>
        <time>2016-09-17T10:10:01Z</time>
      </trkpt>
      <trkpt lat="44.67705" lon="-0.25043">
        <ele>40.51</ele>
        <time>2016-09-17T10:10:03Z</time>
      </trkpt>
      <trkpt lat="44.67697" lon="-0.25061">
        <ele>40.99</ele>
        <time>2016-09-17T10:10:17Z</time>
      </trkpt>
      <trkpt lat="44.6769" lon="-0.25083">
        <ele>40.99</ele>
        <time>2016-09-17T10:10:31Z</time>
      </trkpt>
      <trkpt lat="44.67681" lon="-0.25109">
        <ele>40.99</ele>
        <time>2016-09-17T10:10:49Z</time>
      </trkpt>
      <trkpt lat="44.67672" lon="-0.25134">
        <ele>40.99</ele>
        <time>2016-09-17T10:11:05Z</time>
      </trkpt>
      <trkpt lat="44.67662" lon="-0.25159">
        <ele>42.44</ele>
        <time>2016-09-17T10:11:22Z</time>
      </trkpt>
      <trkpt lat="44.67653" lon="-0.2517">
        <ele>41.95</ele>
        <time>2016-09-17T10:11:33Z</time>
      </trkpt>
      <trkpt lat="44.67634" lon="-0.25175">
        <ele>43.88</ele>
        <time>2016-09-17T10:11:50Z</time>
      </trkpt>
      <trkpt lat="44.67622" lon="-0.25175">
        <ele>45.32</ele>
        <time>2016-09-17T10:12:04Z</time>
      </trkpt>
      <trkpt lat="44.67621" lon="-0.25177">
        <ele>45.8</ele>
        <time>2016-09-17T10:12:19Z</time>
      </trkpt>
      <trkpt lat="44.67623" lon="-0.25177">
        <ele>45.8</ele>
        <time>2016-09-17T10:12:38Z</time>
      </trkpt>
      <trkpt lat="44.67618" lon="-0.25176">
        <ele>46.28</ele>
        <time>2016-09-17T10:12:55Z</time>
      </trkpt>
      <trkpt lat="44.67613" lon="-0.25175">
        <ele>46.28</ele>
        <time>2016-09-17T10:13:11Z</time>
      </trkpt>
      <trkpt lat="44.6763" lon="-0.25172">
        <ele>44.84</ele>
        <time>2016-09-17T10:13:29Z</time>
      </trkpt>
      <trkpt lat="44.67632" lon="-0.25173">
        <ele>44.36</ele>
        <time>2016-09-17T10:13:49Z</time>
      </trkpt>
      <trkpt lat="44.67633" lon="-0.25177">
        <ele>44.36</ele>
        <time>2016-09-17T10:14:09Z</time>
      </trkpt>
      <trkpt lat="44.67635" lon="-0.25178">
        <ele>44.84</ele>
        <time>2016-09-17T10:14:30Z</time>
      </trkpt>
      <trkpt lat="44.67635" lon="-0.2518">
        <ele>44.36</ele>
        <time>2016-09-17T10:14:56Z</time>
      </trkpt>
      <trkpt lat="44.67636" lon="-0.25191">
        <ele>44.84</ele>
        <time>2016-09-17T10:15:15Z</time>
      </trkpt>
      <trkpt lat="44.67637" lon="-0.25203">
        <ele>44.84</ele>
        <time>2016-09-17T10:15:34Z</time>
      </trkpt>
      <trkpt lat="44.67641" lon="-0.25222">
        <ele>44.36</ele>
        <time>2016-09-17T10:15:48Z</time>
      </trkpt>
      <trkpt lat="44.67628" lon="-0.25245">
        <ele>45.32</ele>
        <time>2016-09-17T10:16:05Z</time>
      </trkpt>
      <trkpt lat="44.67615" lon="-0.25266">
        <ele>46.76</ele>
        <time>2016-09-17T10:16:25Z</time>
      </trkpt>
      <trkpt lat="44.67607" lon="-0.25281">
        <ele>49.16</ele>
        <time>2016-09-17T10:16:46Z</time>
      </trkpt>
      <trkpt lat="44.67598" lon="-0.25302">
        <ele>50.61</ele>
        <time>2016-09-17T10:17:04Z</time>
      </trkpt>
      <trkpt lat="44.67589" lon="-0.25328">
        <ele>51.57</ele>
        <time>2016-09-17T10:17:26Z</time>
      </trkpt>
      <trkpt lat="44.67581" lon="-0.25352">
        <ele>51.57</ele>
        <time>2016-09-17T10:17:42Z</time>
      </trkpt>
      <trkpt lat="44.67576" lon="-0.25363">
        <ele>51.09</ele>
        <time>2016-09-17T10:17:49Z</time>
      </trkpt>
      <trkpt lat="44.67567" lon="-0.25393">
        <ele>50.61</ele>
        <time>2016-09-17T10:18:09Z</time>
      </trkpt>
      <trkpt lat="44.6757" lon="-0.25414">
        <ele>50.13</ele>
        <time>2016-09-17T10:18:23Z</time>
      </trkpt>
      <trkpt lat="44.67574" lon="-0.25448">
        <ele>50.13</ele>
        <time>2016-09-17T10:18:43Z</time>
      </trkpt>
      <trkpt lat="44.67578" lon="-0.25476">
        <ele>49.16</ele>
        <time>2016-09-17T10:19:00Z</time>
      </trkpt>
      <trkpt lat="44.67579" lon="-0.25482">
        <ele>49.16</ele>
        <time>2016-09-17T10:19:04Z</time>
      </trkpt>
      <trkpt lat="44.67581" lon="-0.25517">
        <ele>49.16</ele>
        <time>2016-09-17T10:19:24Z</time>
      </trkpt>
      <trkpt lat="44.6757" lon="-0.25548">
        <ele>49.16</ele>
        <time>2016-09-17T10:19:44Z</time>
      </trkpt>
      <trkpt lat="44.67554" lon="-0.25566">
        <ele>49.16</ele>
        <time>2016-09-17T10:20:01Z</time>
      </trkpt>
      <trkpt lat="44.67549" lon="-0.25589">
        <ele>48.68</ele>
        <time>2016-09-17T10:20:15Z</time>
      </trkpt>
      <trkpt lat="44.67549" lon="-0.25602">
        <ele>49.16</ele>
        <time>2016-09-17T10:20:27Z</time>
      </trkpt>
      <trkpt lat="44.67549" lon="-0.25604">
        <ele>48.68</ele>
        <time>2016-09-17T10:20:30Z</time>
      </trkpt>
      <trkpt lat="44.67552" lon="-0.25613">
        <ele>49.16</ele>
        <time>2016-09-17T10:20:37Z</time>
      </trkpt>
      <trkpt lat="44.67549" lon="-0.25619">
        <ele>48.68</ele>
        <time>2016-09-17T10:20:41Z</time>
      </trkpt>
      <trkpt lat="44.67535" lon="-0.25632">
        <ele>48.2</ele>
        <time>2016-09-17T10:20:56Z</time>
      </trkpt>
      <trkpt lat="44.67528" lon="-0.25636">
        <ele>47.72</ele>
        <time>2016-09-17T10:21:03Z</time>
      </trkpt>
      <trkpt lat="44.67517" lon="-0.25644">
        <ele>47.24</ele>
        <time>2016-09-17T10:21:15Z</time>
      </trkpt>
      <trkpt lat="44.67504" lon="-0.25654">
        <ele>45.8</ele>
        <time>2016-09-17T10:21:29Z</time>
      </trkpt>
      <trkpt lat="44.67492" lon="-0.25663">
        <ele>45.32</ele>
        <time>2016-09-17T10:21:40Z</time>
      </trkpt>
      <trkpt lat="44.67478" lon="-0.25679">
        <ele>43.88</ele>
        <time>2016-09-17T10:21:57Z</time>
      </trkpt>
      <trkpt lat="44.67477" lon="-0.25679">
        <ele>43.88</ele>
        <time>2016-09-17T10:21:59Z</time>
      </trkpt>
      <trkpt lat="44.67473" lon="-0.25684">
        <ele>43.88</ele>
        <time>2016-09-17T10:22:05Z</time>
      </trkpt>
      <trkpt lat="44.67456" lon="-0.25704">
        <ele>42.44</ele>
        <time>2016-09-17T10:22:24Z</time>
      </trkpt>
      <trkpt lat="44.67445" lon="-0.25717">
        <ele>41.47</ele>
        <time>2016-09-17T10:22:41Z</time>
      </trkpt>
      <trkpt lat="44.67436" lon="-0.25728">
        <ele>40.99</ele>
        <time>2016-09-17T10:22:53Z</time>
      </trkpt>
      <trkpt lat="44.67418" lon="-0.25746">
        <ele>40.03</ele>
        <time>2016-09-17T10:23:11Z</time>
      </trkpt>
      <trkpt lat="44.67403" lon="-0.25764">
        <ele>39.55</ele>
        <time>2016-09-17T10:23:29Z</time>
      </trkpt>
      <trkpt lat="44.6739" lon="-0.25783">
        <ele>40.03</ele>
        <time>2016-09-17T10:23:46Z</time>
      </trkpt>
      <trkpt lat="44.67379" lon="-0.25802">
        <ele>40.51</ele>
        <time>2016-09-17T10:24:02Z</time>
      </trkpt>
      <trkpt lat="44.67369" lon="-0.25819">
        <ele>40.99</ele>
        <time>2016-09-17T10:24:17Z</time>
      </trkpt>
      <trkpt lat="44.67359" lon="-0.25836">
        <ele>41.95</ele>
        <time>2016-09-17T10:24:32Z</time>
      </trkpt>
      <trkpt lat="44.67347" lon="-0.25853">
        <ele>43.4</ele>
        <time>2016-09-17T10:24:47Z</time>
      </trkpt>
      <trkpt lat="44.67335" lon="-0.25875">
        <ele>44.36</ele>
        <time>2016-09-17T10:25:06Z</time>
      </trkpt>
      <trkpt lat="44.67324" lon="-0.25891">
        <ele>45.32</ele>
        <time>2016-09-17T10:25:21Z</time>
      </trkpt>
      <trkpt lat="44.67315" lon="-0.25904">
        <ele>47.24</ele>
        <time>2016-09-17T10:25:37Z</time>
      </trkpt>
      <trkpt lat="44.67305" lon="-0.2592">
        <ele>49.16</ele>
        <time>2016-09-17T10:25:55Z</time>
      </trkpt>
      <trkpt lat="44.67298" lon="-0.25926">
        <ele>50.13</ele>
        <time>2016-09-17T10:26:05Z</time>
      </trkpt>
      <trkpt lat="44.67296" lon="-0.25925">
        <ele>50.13</ele>
        <time>2016-09-17T10:26:07Z</time>
      </trkpt>
      <trkpt lat="44.67284" lon="-0.25913">
        <ele>51.57</ele>
        <time>2016-09-17T10:26:20Z</time>
      </trkpt>
      <trkpt lat="44.67281" lon="-0.2591">
        <ele>52.05</ele>
        <time>2016-09-17T10:26:24Z</time>
      </trkpt>
      <trkpt lat="44.67268" lon="-0.25913">
        <ele>53.01</ele>
        <time>2016-09-17T10:26:34Z</time>
      </trkpt>
      <trkpt lat="44.67254" lon="-0.25922">
        <ele>54.93</ele>
        <time>2016-09-17T10:26:49Z</time>
      </trkpt>
      <trkpt lat="44.67249" lon="-0.25926">
        <ele>55.41</ele>
        <time>2016-09-17T10:26:56Z</time>
      </trkpt>
      <trkpt lat="44.67242" lon="-0.25932">
        <ele>56.37</ele>
        <time>2016-09-17T10:27:02Z</time>
      </trkpt>
      <trkpt lat="44.67228" lon="-0.2594">
        <ele>57.82</ele>
        <time>2016-09-17T10:27:17Z</time>
      </trkpt>
      <trkpt lat="44.67219" lon="-0.25948">
        <ele>58.3</ele>
        <time>2016-09-17T10:27:29Z</time>
      </trkpt>
      <trkpt lat="44.67218" lon="-0.25952">
        <ele>58.78</ele>
        <time>2016-09-17T10:27:32Z</time>
      </trkpt>
      <trkpt lat="44.67213" lon="-0.2596">
        <ele>58.78</ele>
        <time>2016-09-17T10:27:46Z</time>
      </trkpt>
      <trkpt lat="44.67213" lon="-0.2596">
        <ele>59.26</ele>
        <time>2016-09-17T10:28:06Z</time>
      </trkpt>
      <trkpt lat="44.67204" lon="-0.25948">
        <ele>58.78</ele>
        <time>2016-09-17T10:28:24Z</time>
      </trkpt>
      <trkpt lat="44.67203" lon="-0.25945">
        <ele>58.78</ele>
        <time>2016-09-17T10:28:26Z</time>
      </trkpt>
      <trkpt lat="44.67185" lon="-0.25927">
        <ele>58.78</ele>
        <time>2016-09-17T10:28:45Z</time>
      </trkpt>
      <trkpt lat="44.67166" lon="-0.25912">
        <ele>59.26</ele>
        <time>2016-09-17T10:29:02Z</time>
      </trkpt>
      <trkpt lat="44.67163" lon="-0.25909">
        <ele>59.26</ele>
        <time>2016-09-17T10:29:05Z</time>
      </trkpt>
      <trkpt lat="44.67161" lon="-0.25907">
        <ele>59.26</ele>
        <time>2016-09-17T10:29:07Z</time>
      </trkpt>
      <trkpt lat="44.67146" lon="-0.25902">
        <ele>59.74</ele>
        <time>2016-09-17T10:29:19Z</time>
      </trkpt>
      <trkpt lat="44.67126" lon="-0.25896">
        <ele>59.74</ele>
        <time>2016-09-17T10:29:36Z</time>
      </trkpt>
      <trkpt lat="44.67106" lon="-0.2589">
        <ele>58.3</ele>
        <time>2016-09-17T10:29:53Z</time>
      </trkpt>
      <trkpt lat="44.67091" lon="-0.25885">
        <ele>57.82</ele>
        <time>2016-09-17T10:30:07Z</time>
      </trkpt>
      <trkpt lat="44.67074" lon="-0.25884">
        <ele>57.34</ele>
        <time>2016-09-17T10:30:21Z</time>
      </trkpt>
      <trkpt lat="44.67059" lon="-0.25898">
        <ele>55.89</ele>
        <time>2016-09-17T10:30:36Z</time>
      </trkpt>
      <trkpt lat="44.67047" lon="-0.25916">
        <ele>54.45</ele>
        <time>2016-09-17T10:30:50Z</time>
      </trkpt>
      <trkpt lat="44.67032" lon="-0.25932">
        <ele>53.49</ele>
        <time>2016-09-17T10:31:06Z</time>
      </trkpt>
      <trkpt lat="44.67013" lon="-0.25936">
        <ele>52.53</ele>
        <time>2016-09-17T10:31:21Z</time>
      </trkpt>
      <trkpt lat="44.67002" lon="-0.25937">
        <ele>52.53</ele>
        <time>2016-09-17T10:31:35Z</time>
      </trkpt>
      <trkpt lat="44.67001" lon="-0.25941">
        <ele>52.53</ele>
        <time>2016-09-17T10:31:57Z</time>
      </trkpt>
      <trkpt lat="44.67001" lon="-0.2594">
        <ele>52.05</ele>
        <time>2016-09-17T10:32:20Z</time>
      </trkpt>
      <trkpt lat="44.67" lon="-0.25938">
        <ele>52.05</ele>
        <time>2016-09-17T10:32:26Z</time>
      </trkpt>
      <trkpt lat="44.66995" lon="-0.25912">
        <ele>53.01</ele>
        <time>2016-09-17T10:32:43Z</time>
      </trkpt>
      <trkpt lat="44.66991" lon="-0.25909">
        <ele>53.01</ele>
        <time>2016-09-17T10:32:52Z</time>
      </trkpt>
      <trkpt lat="44.66986" lon="-0.25908">
        <ele>53.01</ele>
        <time>2016-09-17T10:32:56Z</time>
      </trkpt>
      <trkpt lat="44.66984" lon="-0.25907">
        <ele>52.53</ele>
        <time>2016-09-17T10:32:58Z</time>
      </trkpt>
      <trkpt lat="44.66973" lon="-0.25891">
        <ele>53.97</ele>
        <time>2016-09-17T10:33:14Z</time>
      </trkpt>
      <trkpt lat="44.66962" lon="-0.25871">
        <ele>54.93</ele>
        <time>2016-09-17T10:33:29Z</time>
      </trkpt>
      <trkpt lat="44.66956" lon="-0.25847">
        <ele>55.89</ele>
        <time>2016-09-17T10:33:45Z</time>
      </trkpt>
      <trkpt lat="44.66951" lon="-0.25842">
        <ele>55.89</ele>
        <time>2016-09-17T10:33:50Z</time>
      </trkpt>
      <trkpt lat="44.66936" lon="-0.25824">
        <ele>56.86</ele>
        <time>2016-09-17T10:34:06Z</time>
      </trkpt>
      <trkpt lat="44.66933" lon="-0.2582">
        <ele>57.34</ele>
        <time>2016-09-17T10:34:10Z</time>
      </trkpt>
      <trkpt lat="44.66915" lon="-0.25802">
        <ele>58.78</ele>
        <time>2016-09-17T10:34:28Z</time>
      </trkpt>
      <trkpt lat="44.66898" lon="-0.25791">
        <ele>59.74</ele>
        <time>2016-09-17T10:34:44Z</time>
      </trkpt>
      <trkpt lat="44.6689" lon="-0.25788">
        <ele>60.22</ele>
        <time>2016-09-17T10:34:50Z</time>
      </trkpt>
      <trkpt lat="44.6687" lon="-0.25782">
        <ele>60.7</ele>
        <time>2016-09-17T10:35:06Z</time>
      </trkpt>
      <trkpt lat="44.66853" lon="-0.2578">
        <ele>61.18</ele>
        <time>2016-09-17T10:35:21Z</time>
      </trkpt>
      <trkpt lat="44.66833" lon="-0.25777">
        <ele>61.18</ele>
        <time>2016-09-17T10:35:37Z</time>
      </trkpt>
      <trkpt lat="44.66818" lon="-0.25777">
        <ele>62.14</ele>
        <time>2016-09-17T10:35:48Z</time>
      </trkpt>
      <trkpt lat="44.668" lon="-0.2578">
        <ele>62.62</ele>
        <time>2016-09-17T10:36:03Z</time>
      </trkpt>
      <trkpt lat="44.66782" lon="-0.25786">
        <ele>63.58</ele>
        <time>2016-09-17T10:36:19Z</time>
      </trkpt>
      <trkpt lat="44.66765" lon="-0.25795">
        <ele>64.07</ele>
        <time>2016-09-17T10:36:33Z</time>
      </trkpt>
      <trkpt lat="44.66754" lon="-0.25797">
        <ele>64.55</ele>
        <time>2016-09-17T10:36:42Z</time>
      </trkpt>
      <trkpt lat="44.66743" lon="-0.25799">
        <ele>65.03</ele>
        <time>2016-09-17T10:36:52Z</time>
      </trkpt>
      <trkpt lat="44.66729" lon="-0.25815">
        <ele>66.47</ele>
        <time>2016-09-17T10:37:06Z</time>
      </trkpt>
      <trkpt lat="44.66723" lon="-0.25824">
        <ele>67.43</ele>
        <time>2016-09-17T10:37:13Z</time>
      </trkpt>
      <trkpt lat="44.6671" lon="-0.25838">
        <ele>67.43</ele>
        <time>2016-09-17T10:37:27Z</time>
      </trkpt>
      <trkpt lat="44.66709" lon="-0.2584">
        <ele>67.91</ele>
        <time>2016-09-17T10:37:29Z</time>
      </trkpt>
      <trkpt lat="44.66695" lon="-0.25857">
        <ele>68.87</ele>
        <time>2016-09-17T10:37:46Z</time>
      </trkpt>
      <trkpt lat="44.66682" lon="-0.25872">
        <ele>69.83</ele>
        <time>2016-09-17T10:38:01Z</time>
      </trkpt>
      <trkpt lat="44.6667" lon="-0.25889">
        <ele>71.27</ele>
        <time>2016-09-17T10:38:16Z</time>
      </trkpt>
      <trkpt lat="44.66666" lon="-0.25892">
        <ele>71.27</ele>
        <time>2016-09-17T10:38:21Z</time>
      </trkpt>
      <trkpt lat="44.66653" lon="-0.2591">
        <ele>72.72</ele>
        <time>2016-09-17T10:38:37Z</time>
      </trkpt>
      <trkpt lat="44.6664" lon="-0.25927">
        <ele>72.72</ele>
        <time>2016-09-17T10:38:51Z</time>
      </trkpt>
      <trkpt lat="44.66629" lon="-0.25942">
        <ele>73.2</ele>
        <time>2016-09-17T10:39:04Z</time>
      </trkpt>
      <trkpt lat="44.66618" lon="-0.25958">
        <ele>73.68</ele>
        <time>2016-09-17T10:39:19Z</time>
      </trkpt>
      <trkpt lat="44.66609" lon="-0.25966">
        <ele>73.68</ele>
        <time>2016-09-17T10:39:34Z</time>
      </trkpt>
      <trkpt lat="44.66603" lon="-0.25974">
        <ele>73.68</ele>
        <time>2016-09-17T10:39:47Z</time>
      </trkpt>
      <trkpt lat="44.666" lon="-0.25994">
        <ele>73.68</ele>
        <time>2016-09-17T10:40:06Z</time>
      </trkpt>
      <trkpt lat="44.66598" lon="-0.25998">
        <ele>73.68</ele>
        <time>2016-09-17T10:40:24Z</time>
      </trkpt>
      <trkpt lat="44.666" lon="-0.25995">
        <ele>73.68</ele>
        <time>2016-09-17T10:40:44Z</time>
      </trkpt>
      <trkpt lat="44.66601" lon="-0.25995">
        <ele>73.2</ele>
        <time>2016-09-17T10:41:01Z</time>
      </trkpt>
      <trkpt lat="44.66601" lon="-0.25996">
        <ele>73.2</ele>
        <time>2016-09-17T10:41:12Z</time>
      </trkpt>
      <trkpt lat="44.66602" lon="-0.25994">
        <ele>72.24</ele>
        <time>2016-09-17T10:41:26Z</time>
      </trkpt>
      <trkpt lat="44.66604" lon="-0.25991">
        <ele>73.68</ele>
        <time>2016-09-17T10:41:52Z</time>
      </trkpt>
      <trkpt lat="44.66604" lon="-0.25992">
        <ele>70.31</ele>
        <time>2016-09-17T10:42:02Z</time>
      </trkpt>
      <trkpt lat="44.66604" lon="-0.25992">
        <ele>71.27</ele>
        <time>2016-09-17T10:42:03Z</time>
      </trkpt>
      <trkpt lat="44.66604" lon="-0.25992">
        <ele>72.72</ele>
        <time>2016-09-17T10:42:06Z</time>
      </trkpt>
      <trkpt lat="44.66603" lon="-0.25992">
        <ele>72.72</ele>
        <time>2016-09-17T10:42:24Z</time>
      </trkpt>
      <trkpt lat="44.66604" lon="-0.25992">
        <ele>72.72</ele>
        <time>2016-09-17T10:42:51Z</time>
      </trkpt>
      <trkpt lat="44.66604" lon="-0.25992">
        <ele>73.2</ele>
        <time>2016-09-17T10:43:17Z</time>
      </trkpt>
      <trkpt lat="44.66602" lon="-0.25995">
        <ele>72.72</ele>
        <time>2016-09-17T10:43:40Z</time>
      </trkpt>
      <trkpt lat="44.66603" lon="-0.25996">
        <ele>73.2</ele>
        <time>2016-09-17T10:44:17Z</time>
      </trkpt>
      <trkpt lat="44.66602" lon="-0.25994">
        <ele>73.2</ele>
        <time>2016-09-17T10:44:49Z</time>
      </trkpt>
      <trkpt lat="44.66602" lon="-0.25994">
        <ele>73.2</ele>
        <time>2016-09-17T10:45:20Z</time>
      </trkpt>
      <trkpt lat="44.66602" lon="-0.25997">
        <ele>73.2</ele>
        <time>2016-09-17T10:45:52Z</time>
      </trkpt>
      <trkpt lat="44.66603" lon="-0.25997">
        <ele>73.2</ele>
        <time>2016-09-17T10:46:27Z</time>
      </trkpt>
      <trkpt lat="44.66602" lon="-0.25996">
        <ele>73.68</ele>
        <time>2016-09-17T10:46:59Z</time>
      </trkpt>
      <trkpt lat="44.66602" lon="-0.25995">
        <ele>73.68</ele>
        <time>2016-09-17T10:47:27Z</time>
      </trkpt>
      <trkpt lat="44.66602" lon="-0.25993">
        <ele>73.2</ele>
        <time>2016-09-17T10:47:59Z</time>
      </trkpt>
      <trkpt lat="44.66602" lon="-0.25993">
        <ele>73.68</ele>
        <time>2016-09-17T10:48:31Z</time>
      </trkpt>
      <trkpt lat="44.66602" lon="-0.25994">
        <ele>73.68</ele>
        <time>2016-09-17T10:49:06Z</time>
      </trkpt>
      <trkpt lat="44.66602" lon="-0.25994">
        <ele>73.68</ele>
        <time>2016-09-17T10:49:34Z</time>
      </trkpt>
      <trkpt lat="44.66602" lon="-0.25995">
        <ele>73.68</ele>
        <time>2016-09-17T10:50:02Z</time>
      </trkpt>
      <trkpt lat="44.66601" lon="-0.25996">
        <ele>73.68</ele>
        <time>2016-09-17T10:50:33Z</time>
      </trkpt>
      <trkpt lat="44.66601" lon="-0.25995">
        <ele>73.68</ele>
        <time>2016-09-17T10:51:05Z</time>
      </trkpt>
      <trkpt lat="44.66601" lon="-0.25994">
        <ele>73.68</ele>
        <time>2016-09-17T10:51:41Z</time>
      </trkpt>
      <trkpt lat="44.66601" lon="-0.25994">
        <ele>73.68</ele>
        <time>2016-09-17T10:52:13Z</time>
      </trkpt>
      <trkpt lat="44.666" lon="-0.25993">
        <ele>73.68</ele>
        <time>2016-09-17T10:52:39Z</time>
      </trkpt>
      <trkpt lat="44.66601" lon="-0.2599">
        <ele>73.68</ele>
        <time>2016-09-17T10:53:13Z</time>
      </trkpt>
      <trkpt lat="44.66601" lon="-0.25991">
        <ele>74.16</ele>
        <time>2016-09-17T10:53:43Z</time>
      </trkpt>
      <trkpt lat="44.66601" lon="-0.25991">
        <ele>74.16</ele>
        <time>2016-09-17T10:54:10Z</time>
      </trkpt>
      <trkpt lat="44.666" lon="-0.2599">
        <ele>74.16</ele>
        <time>2016-09-17T10:54:35Z</time>
      </trkpt>
      <trkpt lat="44.66601" lon="-0.25989">
        <ele>74.16</ele>
        <time>2016-09-17T10:55:03Z</time>
      </trkpt>
      <trkpt lat="44.66602" lon="-0.25988">
        <ele>74.16</ele>
        <time>2016-09-17T10:55:37Z</time>
      </trkpt>
      <trkpt lat="44.66602" lon="-0.25988">
        <ele>74.16</ele>
        <time>2016-09-17T10:56:08Z</time>
      </trkpt>
      <trkpt lat="44.66601" lon="-0.25988">
        <ele>74.16</ele>
        <time>2016-09-17T10:56:35Z</time>
      </trkpt>
      <trkpt lat="44.66601" lon="-0.25989">
        <ele>74.16</ele>
        <time>2016-09-17T10:57:04Z</time>
      </trkpt>
      <trkpt lat="44.66602" lon="-0.25989">
        <ele>75.12</ele>
        <time>2016-09-17T10:57:34Z</time>
      </trkpt>
      <trkpt lat="44.66602" lon="-0.25989">
        <ele>74.64</ele>
        <time>2016-09-17T10:58:03Z</time>
      </trkpt>
      <trkpt lat="44.66602" lon="-0.25992">
        <ele>74.64</ele>
        <time>2016-09-17T10:58:31Z</time>
      </trkpt>
      <trkpt lat="44.66604" lon="-0.25991">
        <ele>74.64</ele>
        <time>2016-09-17T10:59:01Z</time>
      </trkpt>
      <trkpt lat="44.66603" lon="-0.25993">
        <ele>74.64</ele>
        <time>2016-09-17T10:59:30Z</time>
      </trkpt>
      <trkpt lat="44.66603" lon="-0.25992">
        <ele>74.64</ele>
        <time>2016-09-17T11:00:00Z</time>
      </trkpt>
      <trkpt lat="44.66604" lon="-0.25992">
        <ele>74.64</ele>
        <time>2016-09-17T11:00:28Z</time>
      </trkpt>
      <trkpt lat="44.66604" lon="-0.25991">
        <ele>74.64</ele>
        <time>2016-09-17T11:00:57Z</time>
      </trkpt>
      <trkpt lat="44.66605" lon="-0.25991">
        <ele>74.64</ele>
        <time>2016-09-17T11:01:26Z</time>
      </trkpt>
      <trkpt lat="44.66605" lon="-0.25992">
        <ele>74.64</ele>
        <time>2016-09-17T11:01:59Z</time>
      </trkpt>
      <trkpt lat="44.66605" lon="-0.25994">
        <ele>75.12</ele>
        <time>2016-09-17T11:02:29Z</time>
      </trkpt>
      <trkpt lat="44.66604" lon="-0.25995">
        <ele>75.12</ele>
        <time>2016-09-17T11:03:00Z</time>
      </trkpt>
      <trkpt lat="44.66604" lon="-0.25994">
        <ele>75.12</ele>
        <time>2016-09-17T11:03:32Z</time>
      </trkpt>
      <trkpt lat="44.66603" lon="-0.25992">
        <ele>75.12</ele>
        <time>2016-09-17T11:04:02Z</time>
      </trkpt>
      <trkpt lat="44.66604" lon="-0.25991">
        <ele>75.6</ele>
        <time>2016-09-17T11:04:31Z</time>
      </trkpt>
      <trkpt lat="44.66604" lon="-0.25992">
        <ele>75.6</ele>
        <time>2016-09-17T11:04:59Z</time>
      </trkpt>
      <trkpt lat="44.66605" lon="-0.25991">
        <ele>75.6</ele>
        <time>2016-09-17T11:05:27Z</time>
      </trkpt>
      <trkpt lat="44.66605" lon="-0.25993">
        <ele>75.6</ele>
        <time>2016-09-17T11:05:52Z</time>
      </trkpt>
      <trkpt lat="44.66604" lon="-0.25994">
        <ele>76.08</ele>
        <time>2016-09-17T11:06:16Z</time>
      </trkpt>
      <trkpt lat="44.66603" lon="-0.25993">
        <ele>76.08</ele>
        <time>2016-09-17T11:06:40Z</time>
      </trkpt>
      <trkpt lat="44.66603" lon="-0.25993">
        <ele>76.56</ele>
        <time>2016-09-17T11:07:03Z</time>
      </trkpt>
      <trkpt lat="44.66603" lon="-0.25992">
        <ele>76.56</ele>
        <time>2016-09-17T11:07:17Z</time>
      </trkpt>
      <trkpt lat="44.66603" lon="-0.25993">
        <ele>77.04</ele>
        <time>2016-09-17T11:07:40Z</time>
      </trkpt>
      <trkpt lat="44.66605" lon="-0.25992">
        <ele>77.04</ele>
        <time>2016-09-17T11:08:04Z</time>
      </trkpt>
      <trkpt lat="44.66602" lon="-0.2598">
        <ele>77.04</ele>
        <time>2016-09-17T11:08:20Z</time>
      </trkpt>
      <trkpt lat="44.66602" lon="-0.2598">
        <ele>77.04</ele>
        <time>2016-09-17T11:08:40Z</time>
      </trkpt>
      <trkpt lat="44.666" lon="-0.25967">
        <ele>77.52</ele>
        <time>2016-09-17T11:09:01Z</time>
      </trkpt>
      <trkpt lat="44.666" lon="-0.2597">
        <ele>77.52</ele>
        <time>2016-09-17T11:09:30Z</time>
      </trkpt>
      <trkpt lat="44.666" lon="-0.25982">
        <ele>77.52</ele>
        <time>2016-09-17T11:09:50Z</time>
      </trkpt>
      <trkpt lat="44.66603" lon="-0.25986">
        <ele>78</ele>
        <time>2016-09-17T11:10:12Z</time>
      </trkpt>
      <trkpt lat="44.66604" lon="-0.25987">
        <ele>78</ele>
        <time>2016-09-17T11:10:34Z</time>
      </trkpt>
      <trkpt lat="44.66603" lon="-0.25986">
        <ele>78.48</ele>
        <time>2016-09-17T11:11:00Z</time>
      </trkpt>
      <trkpt lat="44.66606" lon="-0.25991">
        <ele>77.04</ele>
        <time>2016-09-17T11:11:24Z</time>
      </trkpt>
      <trkpt lat="44.66605" lon="-0.25995">
        <ele>77.04</ele>
        <time>2016-09-17T11:11:56Z</time>
      </trkpt>
      <trkpt lat="44.66604" lon="-0.25998">
        <ele>77.52</ele>
        <time>2016-09-17T11:12:27Z</time>
      </trkpt>
      <trkpt lat="44.66603" lon="-0.25996">
        <ele>77.52</ele>
        <time>2016-09-17T11:13:01Z</time>
      </trkpt>
      <trkpt lat="44.66602" lon="-0.25997">
        <ele>78</ele>
        <time>2016-09-17T11:13:31Z</time>
      </trkpt>
      <trkpt lat="44.66602" lon="-0.25996">
        <ele>78</ele>
        <time>2016-09-17T11:13:49Z</time>
      </trkpt>
      <trkpt lat="44.66602" lon="-0.25995">
        <ele>77.52</ele>
        <time>2016-09-17T11:14:11Z</time>
      </trkpt>
      <trkpt lat="44.66602" lon="-0.25995">
        <ele>78</ele>
        <time>2016-09-17T11:14:33Z</time>
      </trkpt>
      <trkpt lat="44.66602" lon="-0.25995">
        <ele>78</ele>
        <time>2016-09-17T11:15:00Z</time>
      </trkpt>
      <trkpt lat="44.66602" lon="-0.25994">
        <ele>78.48</ele>
        <time>2016-09-17T11:15:24Z</time>
      </trkpt>
      <trkpt lat="44.66602" lon="-0.25993">
        <ele>78.48</ele>
        <time>2016-09-17T11:15:39Z</time>
      </trkpt>
      <trkpt lat="44.66602" lon="-0.25993">
        <ele>78.48</ele>
        <time>2016-09-17T11:16:00Z</time>
      </trkpt>
      <trkpt lat="44.66605" lon="-0.25993">
        <ele>78.48</ele>
        <time>2016-09-17T11:16:21Z</time>
      </trkpt>
      <trkpt lat="44.66603" lon="-0.25988">
        <ele>78</ele>
        <time>2016-09-17T11:16:43Z</time>
      </trkpt>
      <trkpt lat="44.66604" lon="-0.25987">
        <ele>79.93</ele>
        <time>2016-09-17T11:16:55Z</time>
      </trkpt>
      <trkpt lat="44.66604" lon="-0.25987">
        <ele>78.48</ele>
        <time>2016-09-17T11:16:57Z</time>
      </trkpt>
      <trkpt lat="44.66603" lon="-0.25989">
        <ele>78</ele>
        <time>2016-09-17T11:17:24Z</time>
      </trkpt>
      <trkpt lat="44.66603" lon="-0.25989">
        <ele>77.52</ele>
        <time>2016-09-17T11:17:49Z</time>
      </trkpt>
      <trkpt lat="44.666" lon="-0.2599">
        <ele>78.48</ele>
        <time>2016-09-17T11:18:13Z</time>
      </trkpt>
      <trkpt lat="44.66585" lon="-0.26003">
        <ele>78.97</ele>
        <time>2016-09-17T11:18:35Z</time>
      </trkpt>
      <trkpt lat="44.66572" lon="-0.26028">
        <ele>79.93</ele>
        <time>2016-09-17T11:18:58Z</time>
      </trkpt>
      <trkpt lat="44.6656" lon="-0.26044">
        <ele>79.45</ele>
        <time>2016-09-17T11:19:18Z</time>
      </trkpt>
      <trkpt lat="44.66539" lon="-0.26067">
        <ele>78</ele>
        <time>2016-09-17T11:19:39Z</time>
      </trkpt>
      <trkpt lat="44.66529" lon="-0.26078">
        <ele>77.52</ele>
        <time>2016-09-17T11:19:48Z</time>
      </trkpt>
      <trkpt lat="44.66508" lon="-0.261">
        <ele>77.04</ele>
        <time>2016-09-17T11:20:13Z</time>
      </trkpt>
      <trkpt lat="44.66502" lon="-0.26123">
        <ele>77.04</ele>
        <time>2016-09-17T11:20:31Z</time>
      </trkpt>
      <trkpt lat="44.66504" lon="-0.26163">
        <ele>78</ele>
        <time>2016-09-17T11:20:53Z</time>
      </trkpt>
      <trkpt lat="44.66502" lon="-0.262">
        <ele>78.97</ele>
        <time>2016-09-17T11:21:15Z</time>
      </trkpt>
      <trkpt lat="44.66493" lon="-0.26219">
        <ele>80.89</ele>
        <time>2016-09-17T11:21:34Z</time>
      </trkpt>
      <trkpt lat="44.66487" lon="-0.26246">
        <ele>82.33</ele>
        <time>2016-09-17T11:21:54Z</time>
      </trkpt>
      <trkpt lat="44.66477" lon="-0.26271">
        <ele>82.33</ele>
        <time>2016-09-17T11:22:12Z</time>
      </trkpt>
      <trkpt lat="44.6647" lon="-0.263">
        <ele>82.81</ele>
        <time>2016-09-17T11:22:31Z</time>
      </trkpt>
      <trkpt lat="44.6646" lon="-0.26337">
        <ele>83.77</ele>
        <time>2016-09-17T11:22:53Z</time>
      </trkpt>
      <trkpt lat="44.66461" lon="-0.2636">
        <ele>83.77</ele>
        <time>2016-09-17T11:23:11Z</time>
      </trkpt>
      <trkpt lat="44.66454" lon="-0.26376">
        <ele>86.18</ele>
        <time>2016-09-17T11:23:32Z</time>
      </trkpt>
      <trkpt lat="44.66445" lon="-0.26388">
        <ele>87.62</ele>
        <time>2016-09-17T11:23:53Z</time>
      </trkpt>
      <trkpt lat="44.66442" lon="-0.26391">
        <ele>87.62</ele>
        <time>2016-09-17T11:24:17Z</time>
      </trkpt>
      <trkpt lat="44.66438" lon="-0.26401">
        <ele>88.58</ele>
        <time>2016-09-17T11:24:32Z</time>
      </trkpt>
      <trkpt lat="44.66436" lon="-0.26402">
        <ele>88.58</ele>
        <time>2016-09-17T11:24:58Z</time>
      </trkpt>
      <trkpt lat="44.66436" lon="-0.26403">
        <ele>88.58</ele>
        <time>2016-09-17T11:25:18Z</time>
      </trkpt>
      <trkpt lat="44.66437" lon="-0.26413">
        <ele>87.62</ele>
        <time>2016-09-17T11:25:24Z</time>
      </trkpt>
      <trkpt lat="44.66444" lon="-0.26451">
        <ele>85.21</ele>
        <time>2016-09-17T11:25:48Z</time>
      </trkpt>
      <trkpt lat="44.66449" lon="-0.26479">
        <ele>82.81</ele>
        <time>2016-09-17T11:26:07Z</time>
      </trkpt>
      <trkpt lat="44.66452" lon="-0.26509">
        <ele>81.85</ele>
        <time>2016-09-17T11:26:25Z</time>
      </trkpt>
      <trkpt lat="44.6646" lon="-0.26546">
        <ele>81.85</ele>
        <time>2016-09-17T11:26:48Z</time>
      </trkpt>
      <trkpt lat="44.66467" lon="-0.26581">
        <ele>82.33</ele>
        <time>2016-09-17T11:27:10Z</time>
      </trkpt>
      <trkpt lat="44.66474" lon="-0.26612">
        <ele>83.77</ele>
        <time>2016-09-17T11:27:31Z</time>
      </trkpt>
      <trkpt lat="44.66475" lon="-0.26637">
        <ele>86.18</ele>
        <time>2016-09-17T11:27:49Z</time>
      </trkpt>
      <trkpt lat="44.66475" lon="-0.26649">
        <ele>87.62</ele>
        <time>2016-09-17T11:28:09Z</time>
      </trkpt>
      <trkpt lat="44.66475" lon="-0.2665">
        <ele>87.14</ele>
        <time>2016-09-17T11:28:35Z</time>
      </trkpt>
      <trkpt lat="44.66474" lon="-0.26653">
        <ele>87.14</ele>
        <time>2016-09-17T11:28:58Z</time>
      </trkpt>
      <trkpt lat="44.66474" lon="-0.26648">
        <ele>87.14</ele>
        <time>2016-09-17T11:29:22Z</time>
      </trkpt>
      <trkpt lat="44.6648" lon="-0.26649">
        <ele>87.14</ele>
        <time>2016-09-17T11:29:29Z</time>
      </trkpt>
      <trkpt lat="44.66483" lon="-0.2665">
        <ele>87.14</ele>
        <time>2016-09-17T11:29:32Z</time>
      </trkpt>
      <trkpt lat="44.66477" lon="-0.26655">
        <ele>87.62</ele>
        <time>2016-09-17T11:29:46Z</time>
      </trkpt>
      <trkpt lat="44.66467" lon="-0.2668">
        <ele>89.54</ele>
        <time>2016-09-17T11:30:03Z</time>
      </trkpt>
      <trkpt lat="44.66467" lon="-0.26683">
        <ele>89.54</ele>
        <time>2016-09-17T11:30:30Z</time>
      </trkpt>
      <trkpt lat="44.66464" lon="-0.26686">
        <ele>90.02</ele>
        <time>2016-09-17T11:30:43Z</time>
      </trkpt>
      <trkpt lat="44.6645" lon="-0.26702">
        <ele>91.46</ele>
        <time>2016-09-17T11:31:01Z</time>
      </trkpt>
      <trkpt lat="44.66449" lon="-0.26705">
        <ele>91.46</ele>
        <time>2016-09-17T11:31:03Z</time>
      </trkpt>
      <trkpt lat="44.6644" lon="-0.26719">
        <ele>92.42</ele>
        <time>2016-09-17T11:31:20Z</time>
      </trkpt>
      <trkpt lat="44.6644" lon="-0.26724">
        <ele>92.42</ele>
        <time>2016-09-17T11:31:28Z</time>
      </trkpt>
      <trkpt lat="44.66438" lon="-0.26748">
        <ele>94.83</ele>
        <time>2016-09-17T11:31:48Z</time>
      </trkpt>
      <trkpt lat="44.66437" lon="-0.26754">
        <ele>95.31</ele>
        <time>2016-09-17T11:32:06Z</time>
      </trkpt>
      <trkpt lat="44.66434" lon="-0.26755">
        <ele>95.31</ele>
        <time>2016-09-17T11:32:22Z</time>
      </trkpt>
      <trkpt lat="44.66435" lon="-0.26736">
        <ele>92.42</ele>
        <time>2016-09-17T11:32:43Z</time>
      </trkpt>
      <trkpt lat="44.66437" lon="-0.26729">
        <ele>91.94</ele>
        <time>2016-09-17T11:32:48Z</time>
      </trkpt>
      <trkpt lat="44.66453" lon="-0.26695">
        <ele>90.5</ele>
        <time>2016-09-17T11:33:07Z</time>
      </trkpt>
      <trkpt lat="44.66466" lon="-0.26683">
        <ele>89.54</ele>
        <time>2016-09-17T11:33:26Z</time>
      </trkpt>
      <trkpt lat="44.66466" lon="-0.26668">
        <ele>87.62</ele>
        <time>2016-09-17T11:33:44Z</time>
      </trkpt>
      <trkpt lat="44.66475" lon="-0.26647">
        <ele>85.69</ele>
        <time>2016-09-17T11:34:04Z</time>
      </trkpt>
      <trkpt lat="44.66478" lon="-0.26641">
        <ele>84.73</ele>
        <time>2016-09-17T11:34:10Z</time>
      </trkpt>
      <trkpt lat="44.66479" lon="-0.26634">
        <ele>84.25</ele>
        <time>2016-09-17T11:34:27Z</time>
      </trkpt>
      <trkpt lat="44.66478" lon="-0.2663">
        <ele>84.73</ele>
        <time>2016-09-17T11:34:51Z</time>
      </trkpt>
      <trkpt lat="44.66476" lon="-0.26631">
        <ele>84.73</ele>
        <time>2016-09-17T11:35:13Z</time>
      </trkpt>
      <trkpt lat="44.66477" lon="-0.26627">
        <ele>84.73</ele>
        <time>2016-09-17T11:35:38Z</time>
      </trkpt>
      <trkpt lat="44.66476" lon="-0.26622">
        <ele>83.29</ele>
        <time>2016-09-17T11:35:43Z</time>
      </trkpt>
      <trkpt lat="44.66474" lon="-0.26616">
        <ele>82.81</ele>
        <time>2016-09-17T11:35:47Z</time>
      </trkpt>
      <trkpt lat="44.66469" lon="-0.26581">
        <ele>80.41</ele>
        <time>2016-09-17T11:36:11Z</time>
      </trkpt>
      <trkpt lat="44.66463" lon="-0.26555">
        <ele>79.93</ele>
        <time>2016-09-17T11:36:29Z</time>
      </trkpt>
      <trkpt lat="44.66455" lon="-0.26529">
        <ele>79.93</ele>
        <time>2016-09-17T11:36:46Z</time>
      </trkpt>
      <trkpt lat="44.66448" lon="-0.26494">
        <ele>79.93</ele>
        <time>2016-09-17T11:37:09Z</time>
      </trkpt>
      <trkpt lat="44.66445" lon="-0.2647">
        <ele>81.37</ele>
        <time>2016-09-17T11:37:27Z</time>
      </trkpt>
      <trkpt lat="44.66439" lon="-0.26445">
        <ele>83.29</ele>
        <time>2016-09-17T11:37:42Z</time>
      </trkpt>
      <trkpt lat="44.66436" lon="-0.26418">
        <ele>85.69</ele>
        <time>2016-09-17T11:38:00Z</time>
      </trkpt>
      <trkpt lat="44.6643" lon="-0.26384">
        <ele>87.62</ele>
        <time>2016-09-17T11:38:22Z</time>
      </trkpt>
      <trkpt lat="44.66427" lon="-0.26357">
        <ele>89.06</ele>
        <time>2016-09-17T11:38:41Z</time>
      </trkpt>
      <trkpt lat="44.66419" lon="-0.26324">
        <ele>91.46</ele>
        <time>2016-09-17T11:39:04Z</time>
      </trkpt>
      <trkpt lat="44.66414" lon="-0.26304">
        <ele>93.39</ele>
        <time>2016-09-17T11:39:24Z</time>
      </trkpt>
      <trkpt lat="44.66408" lon="-0.26271">
        <ele>95.31</ele>
        <time>2016-09-17T11:39:44Z</time>
      </trkpt>
      <trkpt lat="44.66408" lon="-0.26249">
        <ele>96.75</ele>
        <time>2016-09-17T11:39:56Z</time>
      </trkpt>
      <trkpt lat="44.66406" lon="-0.26226">
        <ele>98.67</ele>
        <time>2016-09-17T11:40:09Z</time>
      </trkpt>
      <trkpt lat="44.66395" lon="-0.26188">
        <ele>99.63</ele>
        <time>2016-09-17T11:40:30Z</time>
      </trkpt>
      <trkpt lat="44.66394" lon="-0.26179">
        <ele>99.63</ele>
        <time>2016-09-17T11:40:36Z</time>
      </trkpt>
      <trkpt lat="44.66389" lon="-0.26164">
        <ele>99.63</ele>
        <time>2016-09-17T11:40:54Z</time>
      </trkpt>
      <trkpt lat="44.66381" lon="-0.26142">
        <ele>99.15</ele>
        <time>2016-09-17T11:41:12Z</time>
      </trkpt>
      <trkpt lat="44.66371" lon="-0.26108">
        <ele>99.63</ele>
        <time>2016-09-17T11:41:31Z</time>
      </trkpt>
      <trkpt lat="44.66362" lon="-0.26085">
        <ele>100.11</ele>
        <time>2016-09-17T11:41:49Z</time>
      </trkpt>
      <trkpt lat="44.6635" lon="-0.26055">
        <ele>100.11</ele>
        <time>2016-09-17T11:42:09Z</time>
      </trkpt>
      <trkpt lat="44.66337" lon="-0.26029">
        <ele>99.63</ele>
        <time>2016-09-17T11:42:27Z</time>
      </trkpt>
      <trkpt lat="44.66323" lon="-0.26002">
        <ele>99.15</ele>
        <time>2016-09-17T11:42:47Z</time>
      </trkpt>
      <trkpt lat="44.66312" lon="-0.25975">
        <ele>99.15</ele>
        <time>2016-09-17T11:43:05Z</time>
      </trkpt>
      <trkpt lat="44.66308" lon="-0.25944">
        <ele>100.6</ele>
        <time>2016-09-17T11:43:25Z</time>
      </trkpt>
      <trkpt lat="44.66306" lon="-0.25916">
        <ele>100.11</ele>
        <time>2016-09-17T11:43:43Z</time>
      </trkpt>
      <trkpt lat="44.66295" lon="-0.25895">
        <ele>100.11</ele>
        <time>2016-09-17T11:43:57Z</time>
      </trkpt>
      <trkpt lat="44.66281" lon="-0.25879">
        <ele>100.6</ele>
        <time>2016-09-17T11:44:13Z</time>
      </trkpt>
      <trkpt lat="44.66276" lon="-0.25875">
        <ele>100.6</ele>
        <time>2016-09-17T11:44:18Z</time>
      </trkpt>
      <trkpt lat="44.66253" lon="-0.25882">
        <ele>101.08</ele>
        <time>2016-09-17T11:44:37Z</time>
      </trkpt>
      <trkpt lat="44.66231" lon="-0.25891">
        <ele>101.08</ele>
        <time>2016-09-17T11:44:57Z</time>
      </trkpt>
      <trkpt lat="44.6622" lon="-0.2589">
        <ele>100.6</ele>
        <time>2016-09-17T11:45:07Z</time>
      </trkpt>
      <trkpt lat="44.66211" lon="-0.2588">
        <ele>100.6</ele>
        <time>2016-09-17T11:45:15Z</time>
      </trkpt>
      <trkpt lat="44.66197" lon="-0.2585">
        <ele>99.63</ele>
        <time>2016-09-17T11:45:36Z</time>
      </trkpt>
      <trkpt lat="44.6619" lon="-0.25843">
        <ele>99.63</ele>
        <time>2016-09-17T11:45:45Z</time>
      </trkpt>
      <trkpt lat="44.66169" lon="-0.25861">
        <ele>100.11</ele>
        <time>2016-09-17T11:46:06Z</time>
      </trkpt>
      <trkpt lat="44.66152" lon="-0.2588">
        <ele>98.19</ele>
        <time>2016-09-17T11:46:26Z</time>
      </trkpt>
      <trkpt lat="44.66134" lon="-0.25894">
        <ele>95.79</ele>
        <time>2016-09-17T11:46:45Z</time>
      </trkpt>
      <trkpt lat="44.66127" lon="-0.25892">
        <ele>94.83</ele>
        <time>2016-09-17T11:46:56Z</time>
      </trkpt>
      <trkpt lat="44.66117" lon="-0.25885">
        <ele>93.87</ele>
        <time>2016-09-17T11:47:07Z</time>
      </trkpt>
      <trkpt lat="44.66099" lon="-0.25869">
        <ele>91.46</ele>
        <time>2016-09-17T11:47:28Z</time>
      </trkpt>
      <trkpt lat="44.66089" lon="-0.25859">
        <ele>91.46</ele>
        <time>2016-09-17T11:47:39Z</time>
      </trkpt>
      <trkpt lat="44.66072" lon="-0.25871">
        <ele>87.62</ele>
        <time>2016-09-17T11:47:57Z</time>
      </trkpt>
      <trkpt lat="44.66056" lon="-0.25888">
        <ele>85.21</ele>
        <time>2016-09-17T11:48:14Z</time>
      </trkpt>
      <trkpt lat="44.66038" lon="-0.25906">
        <ele>83.29</ele>
        <time>2016-09-17T11:48:33Z</time>
      </trkpt>
      <trkpt lat="44.66019" lon="-0.2592">
        <ele>79.93</ele>
        <time>2016-09-17T11:48:53Z</time>
      </trkpt>
      <trkpt lat="44.66018" lon="-0.2592">
        <ele>79.93</ele>
        <time>2016-09-17T11:48:55Z</time>
      </trkpt>
      <trkpt lat="44.66011" lon="-0.25913">
        <ele>78.48</ele>
        <time>2016-09-17T11:49:06Z</time>
      </trkpt>
      <trkpt lat="44.65999" lon="-0.25892">
        <ele>76.08</ele>
        <time>2016-09-17T11:49:23Z</time>
      </trkpt>
      <trkpt lat="44.65984" lon="-0.25868">
        <ele>73.68</ele>
        <time>2016-09-17T11:49:42Z</time>
      </trkpt>
      <trkpt lat="44.65971" lon="-0.25853">
        <ele>72.72</ele>
        <time>2016-09-17T11:49:59Z</time>
      </trkpt>
      <trkpt lat="44.65966" lon="-0.25857">
        <ele>72.24</ele>
        <time>2016-09-17T11:50:04Z</time>
      </trkpt>
      <trkpt lat="44.65951" lon="-0.25874">
        <ele>70.31</ele>
        <time>2016-09-17T11:50:24Z</time>
      </trkpt>
      <trkpt lat="44.65937" lon="-0.25889">
        <ele>68.87</ele>
        <time>2016-09-17T11:50:42Z</time>
      </trkpt>
      <trkpt lat="44.65922" lon="-0.25905">
        <ele>67.43</ele>
        <time>2016-09-17T11:51:02Z</time>
      </trkpt>
      <trkpt lat="44.65908" lon="-0.25918">
        <ele>65.03</ele>
        <time>2016-09-17T11:51:20Z</time>
      </trkpt>
      <trkpt lat="44.65897" lon="-0.25909">
        <ele>64.55</ele>
        <time>2016-09-17T11:51:36Z</time>
      </trkpt>
      <trkpt lat="44.65891" lon="-0.25897">
        <ele>64.07</ele>
        <time>2016-09-17T11:51:46Z</time>
      </trkpt>
      <trkpt lat="44.65887" lon="-0.2587">
        <ele>63.1</ele>
        <time>2016-09-17T11:52:04Z</time>
      </trkpt>
      <trkpt lat="44.65873" lon="-0.25851">
        <ele>61.66</ele>
        <time>2016-09-17T11:52:21Z</time>
      </trkpt>
      <trkpt lat="44.65864" lon="-0.25836">
        <ele>57.82</ele>
        <time>2016-09-17T11:52:34Z</time>
      </trkpt>
      <trkpt lat="44.65863" lon="-0.25835">
        <ele>61.66</ele>
        <time>2016-09-17T11:52:35Z</time>
      </trkpt>
      <trkpt lat="44.6586" lon="-0.25828">
        <ele>57.34</ele>
        <time>2016-09-17T11:52:42Z</time>
      </trkpt>
      <trkpt lat="44.65859" lon="-0.25827">
        <ele>64.07</ele>
        <time>2016-09-17T11:52:43Z</time>
      </trkpt>
      <trkpt lat="44.65859" lon="-0.25825">
        <ele>60.7</ele>
        <time>2016-09-17T11:52:45Z</time>
      </trkpt>
      <trkpt lat="44.65858" lon="-0.25824">
        <ele>60.7</ele>
        <time>2016-09-17T11:52:46Z</time>
      </trkpt>
      <trkpt lat="44.65851" lon="-0.25801">
        <ele>58.78</ele>
        <time>2016-09-17T11:53:05Z</time>
      </trkpt>
      <trkpt lat="44.65848" lon="-0.25795">
        <ele>58.3</ele>
        <time>2016-09-17T11:53:11Z</time>
      </trkpt>
      <trkpt lat="44.65838" lon="-0.25779">
        <ele>57.34</ele>
        <time>2016-09-17T11:53:27Z</time>
      </trkpt>
      <trkpt lat="44.65827" lon="-0.25767">
        <ele>54.93</ele>
        <time>2016-09-17T11:53:42Z</time>
      </trkpt>
      <trkpt lat="44.65823" lon="-0.25764">
        <ele>54.93</ele>
        <time>2016-09-17T11:53:49Z</time>
      </trkpt>
      <trkpt lat="44.65819" lon="-0.25762">
        <ele>54.93</ele>
        <time>2016-09-17T11:53:53Z</time>
      </trkpt>
      <trkpt lat="44.65803" lon="-0.25751">
        <ele>53.49</ele>
        <time>2016-09-17T11:54:08Z</time>
      </trkpt>
      <trkpt lat="44.65784" lon="-0.25738">
        <ele>52.05</ele>
        <time>2016-09-17T11:54:25Z</time>
      </trkpt>
      <trkpt lat="44.65768" lon="-0.2573">
        <ele>50.61</ele>
        <time>2016-09-17T11:54:40Z</time>
      </trkpt>
      <trkpt lat="44.65755" lon="-0.25721">
        <ele>49.65</ele>
        <time>2016-09-17T11:54:54Z</time>
      </trkpt>
      <trkpt lat="44.65744" lon="-0.25711">
        <ele>48.68</ele>
        <time>2016-09-17T11:55:09Z</time>
      </trkpt>
      <trkpt lat="44.65736" lon="-0.25706">
        <ele>47.24</ele>
        <time>2016-09-17T11:55:25Z</time>
      </trkpt>
      <trkpt lat="44.65735" lon="-0.25707">
        <ele>47.24</ele>
        <time>2016-09-17T11:55:50Z</time>
      </trkpt>
      <trkpt lat="44.65735" lon="-0.25706">
        <ele>46.76</ele>
        <time>2016-09-17T11:55:59Z</time>
      </trkpt>
      <trkpt lat="44.65741" lon="-0.25678">
        <ele>48.2</ele>
        <time>2016-09-17T11:56:18Z</time>
      </trkpt>
      <trkpt lat="44.65743" lon="-0.25671">
        <ele>48.2</ele>
        <time>2016-09-17T11:56:22Z</time>
      </trkpt>
      <trkpt lat="44.65747" lon="-0.25659">
        <ele>49.16</ele>
        <time>2016-09-17T11:56:34Z</time>
      </trkpt>
      <trkpt lat="44.65748" lon="-0.25654">
        <ele>49.16</ele>
        <time>2016-09-17T11:56:37Z</time>
      </trkpt>
      <trkpt lat="44.65755" lon="-0.25619">
        <ele>50.13</ele>
        <time>2016-09-17T11:56:57Z</time>
      </trkpt>
      <trkpt lat="44.65757" lon="-0.25614">
        <ele>50.13</ele>
        <time>2016-09-17T11:57:02Z</time>
      </trkpt>
      <trkpt lat="44.65761" lon="-0.25602">
        <ele>49.65</ele>
        <time>2016-09-17T11:57:09Z</time>
      </trkpt>
      <trkpt lat="44.65769" lon="-0.25584">
        <ele>49.16</ele>
        <time>2016-09-17T11:57:24Z</time>
      </trkpt>
      <trkpt lat="44.65772" lon="-0.25554">
        <ele>48.68</ele>
        <time>2016-09-17T11:57:43Z</time>
      </trkpt>
      <trkpt lat="44.65774" lon="-0.2554">
        <ele>48.68</ele>
        <time>2016-09-17T11:57:50Z</time>
      </trkpt>
      <trkpt lat="44.65777" lon="-0.25506">
        <ele>49.65</ele>
        <time>2016-09-17T11:58:08Z</time>
      </trkpt>
      <trkpt lat="44.65777" lon="-0.25496">
        <ele>49.65</ele>
        <time>2016-09-17T11:58:15Z</time>
      </trkpt>
      <trkpt lat="44.65774" lon="-0.25461">
        <ele>49.16</ele>
        <time>2016-09-17T11:58:34Z</time>
      </trkpt>
      <trkpt lat="44.6577" lon="-0.25442">
        <ele>48.68</ele>
        <time>2016-09-17T11:58:47Z</time>
      </trkpt>
      <trkpt lat="44.65773" lon="-0.25421">
        <ele>49.16</ele>
        <time>2016-09-17T11:59:01Z</time>
      </trkpt>
      <trkpt lat="44.65779" lon="-0.25399">
        <ele>49.65</ele>
        <time>2016-09-17T11:59:14Z</time>
      </trkpt>
      <trkpt lat="44.65782" lon="-0.25371">
        <ele>50.61</ele>
        <time>2016-09-17T11:59:31Z</time>
      </trkpt>
      <trkpt lat="44.65789" lon="-0.25346">
        <ele>51.57</ele>
        <time>2016-09-17T11:59:48Z</time>
      </trkpt>
      <trkpt lat="44.65789" lon="-0.25342">
        <ele>51.57</ele>
        <time>2016-09-17T11:59:51Z</time>
      </trkpt>
      <trkpt lat="44.65788" lon="-0.2531">
        <ele>50.61</ele>
        <time>2016-09-17T12:00:10Z</time>
      </trkpt>
      <trkpt lat="44.65782" lon="-0.25289">
        <ele>49.65</ele>
        <time>2016-09-17T12:00:27Z</time>
      </trkpt>
      <trkpt lat="44.6578" lon="-0.25264">
        <ele>50.13</ele>
        <time>2016-09-17T12:00:41Z</time>
      </trkpt>
      <trkpt lat="44.65781" lon="-0.25241">
        <ele>50.61</ele>
        <time>2016-09-17T12:00:56Z</time>
      </trkpt>
      <trkpt lat="44.65777" lon="-0.25217">
        <ele>51.09</ele>
        <time>2016-09-17T12:01:13Z</time>
      </trkpt>
      <trkpt lat="44.65775" lon="-0.25197">
        <ele>50.13</ele>
        <time>2016-09-17T12:01:29Z</time>
      </trkpt>
      <trkpt lat="44.65776" lon="-0.25181">
        <ele>50.13</ele>
        <time>2016-09-17T12:01:42Z</time>
      </trkpt>
      <trkpt lat="44.65776" lon="-0.25176">
        <ele>50.13</ele>
        <time>2016-09-17T12:01:46Z</time>
      </trkpt>
      <trkpt lat="44.65763" lon="-0.25143">
        <ele>50.61</ele>
        <time>2016-09-17T12:02:05Z</time>
      </trkpt>
      <trkpt lat="44.6576" lon="-0.25139">
        <ele>50.61</ele>
        <time>2016-09-17T12:02:21Z</time>
      </trkpt>
      <trkpt lat="44.6576" lon="-0.25134">
        <ele>50.13</ele>
        <time>2016-09-17T12:02:44Z</time>
      </trkpt>
      <trkpt lat="44.65754" lon="-0.2513">
        <ele>50.13</ele>
        <time>2016-09-17T12:03:10Z</time>
      </trkpt>
      <trkpt lat="44.65744" lon="-0.25108">
        <ele>50.13</ele>
        <time>2016-09-17T12:03:30Z</time>
      </trkpt>
      <trkpt lat="44.65735" lon="-0.25078">
        <ele>50.13</ele>
        <time>2016-09-17T12:03:48Z</time>
      </trkpt>
      <trkpt lat="44.65729" lon="-0.25066">
        <ele>50.61</ele>
        <time>2016-09-17T12:04:05Z</time>
      </trkpt>
      <trkpt lat="44.65721" lon="-0.25038">
        <ele>51.09</ele>
        <time>2016-09-17T12:04:24Z</time>
      </trkpt>
      <trkpt lat="44.65722" lon="-0.25026">
        <ele>51.57</ele>
        <time>2016-09-17T12:04:39Z</time>
      </trkpt>
      <trkpt lat="44.65725" lon="-0.25007">
        <ele>52.53</ele>
        <time>2016-09-17T12:04:52Z</time>
      </trkpt>
      <trkpt lat="44.65725" lon="-0.24996">
        <ele>52.53</ele>
        <time>2016-09-17T12:05:01Z</time>
      </trkpt>
      <trkpt lat="44.65725" lon="-0.24993">
        <ele>52.53</ele>
        <time>2016-09-17T12:05:03Z</time>
      </trkpt>
      <trkpt lat="44.65723" lon="-0.24973">
        <ele>52.53</ele>
        <time>2016-09-17T12:05:19Z</time>
      </trkpt>
      <trkpt lat="44.65723" lon="-0.24948">
        <ele>53.49</ele>
        <time>2016-09-17T12:05:35Z</time>
      </trkpt>
      <trkpt lat="44.65721" lon="-0.24923">
        <ele>53.49</ele>
        <time>2016-09-17T12:05:51Z</time>
      </trkpt>
      <trkpt lat="44.65721" lon="-0.24917">
        <ele>53.49</ele>
        <time>2016-09-17T12:06:07Z</time>
      </trkpt>
      <trkpt lat="44.65721" lon="-0.24895">
        <ele>53.97</ele>
        <time>2016-09-17T12:06:23Z</time>
      </trkpt>
      <trkpt lat="44.65717" lon="-0.24868">
        <ele>54.45</ele>
        <time>2016-09-17T12:06:41Z</time>
      </trkpt>
      <trkpt lat="44.65716" lon="-0.24865">
        <ele>54.93</ele>
        <time>2016-09-17T12:06:43Z</time>
      </trkpt>
      <trkpt lat="44.65711" lon="-0.24843">
        <ele>54.93</ele>
        <time>2016-09-17T12:07:02Z</time>
      </trkpt>
      <trkpt lat="44.65711" lon="-0.2484">
        <ele>55.41</ele>
        <time>2016-09-17T12:07:27Z</time>
      </trkpt>
      <trkpt lat="44.65711" lon="-0.2484">
        <ele>55.41</ele>
        <time>2016-09-17T12:07:48Z</time>
      </trkpt>
      <trkpt lat="44.65711" lon="-0.2484">
        <ele>55.41</ele>
        <time>2016-09-17T12:08:07Z</time>
      </trkpt>
      <trkpt lat="44.6571" lon="-0.2484">
        <ele>55.41</ele>
        <time>2016-09-17T12:08:23Z</time>
      </trkpt>
      <trkpt lat="44.65709" lon="-0.24839">
        <ele>55.41</ele>
        <time>2016-09-17T12:08:47Z</time>
      </trkpt>
      <trkpt lat="44.65703" lon="-0.24828">
        <ele>54.45</ele>
        <time>2016-09-17T12:09:05Z</time>
      </trkpt>
      <trkpt lat="44.65688" lon="-0.24801">
        <ele>54.45</ele>
        <time>2016-09-17T12:09:21Z</time>
      </trkpt>
      <trkpt lat="44.65686" lon="-0.24794">
        <ele>55.41</ele>
        <time>2016-09-17T12:09:41Z</time>
      </trkpt>
      <trkpt lat="44.65685" lon="-0.24779">
        <ele>54.45</ele>
        <time>2016-09-17T12:09:57Z</time>
      </trkpt>
      <trkpt lat="44.65673" lon="-0.24759">
        <ele>53.97</ele>
        <time>2016-09-17T12:10:16Z</time>
      </trkpt>
      <trkpt lat="44.6566" lon="-0.24749">
        <ele>53.97</ele>
        <time>2016-09-17T12:10:35Z</time>
      </trkpt>
      <trkpt lat="44.65648" lon="-0.24726">
        <ele>53.97</ele>
        <time>2016-09-17T12:10:54Z</time>
      </trkpt>
      <trkpt lat="44.65644" lon="-0.24692">
        <ele>54.93</ele>
        <time>2016-09-17T12:11:15Z</time>
      </trkpt>
      <trkpt lat="44.65641" lon="-0.24662">
        <ele>55.89</ele>
        <time>2016-09-17T12:11:34Z</time>
      </trkpt>
      <trkpt lat="44.65641" lon="-0.24653">
        <ele>56.86</ele>
        <time>2016-09-17T12:11:41Z</time>
      </trkpt>
      <trkpt lat="44.65641" lon="-0.2465">
        <ele>57.34</ele>
        <time>2016-09-17T12:11:43Z</time>
      </trkpt>
      <trkpt lat="44.65637" lon="-0.24636">
        <ele>57.82</ele>
        <time>2016-09-17T12:11:52Z</time>
      </trkpt>
      <trkpt lat="44.65634" lon="-0.24611">
        <ele>59.26</ele>
        <time>2016-09-17T12:12:08Z</time>
      </trkpt>
      <trkpt lat="44.65632" lon="-0.24586">
        <ele>60.22</ele>
        <time>2016-09-17T12:12:25Z</time>
      </trkpt>
      <trkpt lat="44.65629" lon="-0.24566">
        <ele>60.7</ele>
        <time>2016-09-17T12:12:37Z</time>
      </trkpt>
      <trkpt lat="44.65628" lon="-0.24558">
        <ele>61.18</ele>
        <time>2016-09-17T12:12:42Z</time>
      </trkpt>
      <trkpt lat="44.65628" lon="-0.24532">
        <ele>61.66</ele>
        <time>2016-09-17T12:12:59Z</time>
      </trkpt>
      <trkpt lat="44.65626" lon="-0.2451">
        <ele>62.62</ele>
        <time>2016-09-17T12:13:14Z</time>
      </trkpt>
      <trkpt lat="44.65625" lon="-0.24487">
        <ele>63.58</ele>
        <time>2016-09-17T12:13:30Z</time>
      </trkpt>
      <trkpt lat="44.65625" lon="-0.24475">
        <ele>64.07</ele>
        <time>2016-09-17T12:13:39Z</time>
      </trkpt>
      <trkpt lat="44.65624" lon="-0.24446">
        <ele>65.51</ele>
        <time>2016-09-17T12:13:59Z</time>
      </trkpt>
      <trkpt lat="44.6562" lon="-0.24417">
        <ele>66.47</ele>
        <time>2016-09-17T12:14:16Z</time>
      </trkpt>
      <trkpt lat="44.65617" lon="-0.24396">
        <ele>67.91</ele>
        <time>2016-09-17T12:14:31Z</time>
      </trkpt>
      <trkpt lat="44.65615" lon="-0.24372">
        <ele>69.35</ele>
        <time>2016-09-17T12:14:49Z</time>
      </trkpt>
      <trkpt lat="44.65612" lon="-0.24346">
        <ele>70.31</ele>
        <time>2016-09-17T12:15:05Z</time>
      </trkpt>
      <trkpt lat="44.65611" lon="-0.24325">
        <ele>71.76</ele>
        <time>2016-09-17T12:15:20Z</time>
      </trkpt>
      <trkpt lat="44.6561" lon="-0.24295">
        <ele>73.2</ele>
        <time>2016-09-17T12:15:37Z</time>
      </trkpt>
      <trkpt lat="44.6561" lon="-0.24266">
        <ele>74.64</ele>
        <time>2016-09-17T12:15:53Z</time>
      </trkpt>
      <trkpt lat="44.65609" lon="-0.24238">
        <ele>75.6</ele>
        <time>2016-09-17T12:16:11Z</time>
      </trkpt>
      <trkpt lat="44.65609" lon="-0.24207">
        <ele>76.56</ele>
        <time>2016-09-17T12:16:30Z</time>
      </trkpt>
      <trkpt lat="44.65609" lon="-0.2418">
        <ele>78</ele>
        <time>2016-09-17T12:16:47Z</time>
      </trkpt>
      <trkpt lat="44.65608" lon="-0.24158">
        <ele>80.41</ele>
        <time>2016-09-17T12:17:02Z</time>
      </trkpt>
      <trkpt lat="44.65609" lon="-0.24141">
        <ele>82.33</ele>
        <time>2016-09-17T12:17:15Z</time>
      </trkpt>
      <trkpt lat="44.65607" lon="-0.24124">
        <ele>83.77</ele>
        <time>2016-09-17T12:17:28Z</time>
      </trkpt>
      <trkpt lat="44.65606" lon="-0.24103">
        <ele>85.69</ele>
        <time>2016-09-17T12:17:43Z</time>
      </trkpt>
      <trkpt lat="44.65606" lon="-0.24091">
        <ele>87.14</ele>
        <time>2016-09-17T12:17:54Z</time>
      </trkpt>
      <trkpt lat="44.65608" lon="-0.24089">
        <ele>87.14</ele>
        <time>2016-09-17T12:17:56Z</time>
      </trkpt>
      <trkpt lat="44.65622" lon="-0.24086">
        <ele>89.54</ele>
        <time>2016-09-17T12:18:12Z</time>
      </trkpt>
      <trkpt lat="44.65642" lon="-0.24085">
        <ele>91.94</ele>
        <time>2016-09-17T12:18:29Z</time>
      </trkpt>
      <trkpt lat="44.65648" lon="-0.24085">
        <ele>92.9</ele>
        <time>2016-09-17T12:18:42Z</time>
      </trkpt>
      <trkpt lat="44.65649" lon="-0.24084">
        <ele>92.9</ele>
        <time>2016-09-17T12:19:12Z</time>
      </trkpt>
      <trkpt lat="44.65649" lon="-0.24085">
        <ele>93.39</ele>
        <time>2016-09-17T12:19:36Z</time>
      </trkpt>
      <trkpt lat="44.65649" lon="-0.24085">
        <ele>92.9</ele>
        <time>2016-09-17T12:20:03Z</time>
      </trkpt>
      <trkpt lat="44.65649" lon="-0.24084">
        <ele>92.9</ele>
        <time>2016-09-17T12:20:28Z</time>
      </trkpt>
      <trkpt lat="44.65649" lon="-0.24084">
        <ele>92.9</ele>
        <time>2016-09-17T12:20:52Z</time>
      </trkpt>
      <trkpt lat="44.6565" lon="-0.24084">
        <ele>92.9</ele>
        <time>2016-09-17T12:21:19Z</time>
      </trkpt>
      <trkpt lat="44.6565" lon="-0.24084">
        <ele>92.9</ele>
        <time>2016-09-17T12:21:51Z</time>
      </trkpt>
      <trkpt lat="44.6565" lon="-0.24084">
        <ele>92.9</ele>
        <time>2016-09-17T12:22:17Z</time>
      </trkpt>
      <trkpt lat="44.6565" lon="-0.24083">
        <ele>92.9</ele>
        <time>2016-09-17T12:22:45Z</time>
      </trkpt>
      <trkpt lat="44.6565" lon="-0.24083">
        <ele>92.9</ele>
        <time>2016-09-17T12:23:10Z</time>
      </trkpt>
      <trkpt lat="44.65662" lon="-0.24095">
        <ele>92.9</ele>
        <time>2016-09-17T12:23:29Z</time>
      </trkpt>
      <trkpt lat="44.65682" lon="-0.24117">
        <ele>92.9</ele>
        <time>2016-09-17T12:23:52Z</time>
      </trkpt>
      <trkpt lat="44.65708" lon="-0.24138">
        <ele>94.35</ele>
        <time>2016-09-17T12:24:16Z</time>
      </trkpt>
      <trkpt lat="44.65734" lon="-0.24152">
        <ele>94.83</ele>
        <time>2016-09-17T12:24:38Z</time>
      </trkpt>
      <trkpt lat="44.65766" lon="-0.24162">
        <ele>95.31</ele>
        <time>2016-09-17T12:25:02Z</time>
      </trkpt>
      <trkpt lat="44.65796" lon="-0.24172">
        <ele>95.79</ele>
        <time>2016-09-17T12:25:24Z</time>
      </trkpt>
      <trkpt lat="44.6582" lon="-0.24178">
        <ele>95.79</ele>
        <time>2016-09-17T12:25:47Z</time>
      </trkpt>
      <trkpt lat="44.65841" lon="-0.24184">
        <ele>96.27</ele>
        <time>2016-09-17T12:26:08Z</time>
      </trkpt>
      <trkpt lat="44.65867" lon="-0.24194">
        <ele>96.27</ele>
        <time>2016-09-17T12:26:29Z</time>
      </trkpt>
      <trkpt lat="44.65896" lon="-0.24203">
        <ele>95.31</ele>
        <time>2016-09-17T12:26:52Z</time>
      </trkpt>
      <trkpt lat="44.65922" lon="-0.2421">
        <ele>95.31</ele>
        <time>2016-09-17T12:27:15Z</time>
      </trkpt>
      <trkpt lat="44.65948" lon="-0.24221">
        <ele>94.83</ele>
        <time>2016-09-17T12:27:37Z</time>
      </trkpt>
      <trkpt lat="44.65972" lon="-0.24233">
        <ele>95.31</ele>
        <time>2016-09-17T12:27:57Z</time>
      </trkpt>
      <trkpt lat="44.65995" lon="-0.24254">
        <ele>95.31</ele>
        <time>2016-09-17T12:28:16Z</time>
      </trkpt>
      <trkpt lat="44.66015" lon="-0.24278">
        <ele>94.83</ele>
        <time>2016-09-17T12:28:38Z</time>
      </trkpt>
      <trkpt lat="44.66038" lon="-0.24307">
        <ele>94.83</ele>
        <time>2016-09-17T12:29:02Z</time>
      </trkpt>
      <trkpt lat="44.66057" lon="-0.24338">
        <ele>95.31</ele>
        <time>2016-09-17T12:29:25Z</time>
      </trkpt>
      <trkpt lat="44.6607" lon="-0.2433">
        <ele>94.35</ele>
        <time>2016-09-17T12:29:42Z</time>
      </trkpt>
      <trkpt lat="44.66071" lon="-0.24317">
        <ele>93.39</ele>
        <time>2016-09-17T12:29:50Z</time>
      </trkpt>
      <trkpt lat="44.66082" lon="-0.24283">
        <ele>92.42</ele>
        <time>2016-09-17T12:30:13Z</time>
      </trkpt>
      <trkpt lat="44.66095" lon="-0.24266">
        <ele>91.94</ele>
        <time>2016-09-17T12:30:26Z</time>
      </trkpt>
      <trkpt lat="44.66111" lon="-0.24239">
        <ele>91.94</ele>
        <time>2016-09-17T12:30:45Z</time>
      </trkpt>
      <trkpt lat="44.66121" lon="-0.24204">
        <ele>92.42</ele>
        <time>2016-09-17T12:31:08Z</time>
      </trkpt>
      <trkpt lat="44.66136" lon="-0.24169">
        <ele>93.39</ele>
        <time>2016-09-17T12:31:30Z</time>
      </trkpt>
      <trkpt lat="44.66159" lon="-0.24142">
        <ele>93.87</ele>
        <time>2016-09-17T12:31:51Z</time>
      </trkpt>
      <trkpt lat="44.6617" lon="-0.24126">
        <ele>91.94</ele>
        <time>2016-09-17T12:32:13Z</time>
      </trkpt>
      <trkpt lat="44.66192" lon="-0.24112">
        <ele>88.58</ele>
        <time>2016-09-17T12:32:32Z</time>
      </trkpt>
      <trkpt lat="44.66207" lon="-0.241">
        <ele>85.69</ele>
        <time>2016-09-17T12:32:50Z</time>
      </trkpt>
      <trkpt lat="44.6623" lon="-0.24089">
        <ele>82.81</ele>
        <time>2016-09-17T12:33:11Z</time>
      </trkpt>
      <trkpt lat="44.66248" lon="-0.24078">
        <ele>81.37</ele>
        <time>2016-09-17T12:33:30Z</time>
      </trkpt>
      <trkpt lat="44.6627" lon="-0.24063">
        <ele>79.93</ele>
        <time>2016-09-17T12:33:49Z</time>
      </trkpt>
      <trkpt lat="44.66275" lon="-0.24061">
        <ele>79.93</ele>
        <time>2016-09-17T12:33:54Z</time>
      </trkpt>
      <trkpt lat="44.66285" lon="-0.24056">
        <ele>79.45</ele>
        <time>2016-09-17T12:34:02Z</time>
      </trkpt>
      <trkpt lat="44.66298" lon="-0.24049">
        <ele>79.45</ele>
        <time>2016-09-17T12:34:24Z</time>
      </trkpt>
      <trkpt lat="44.66298" lon="-0.24047">
        <ele>79.45</ele>
        <time>2016-09-17T12:34:45Z</time>
      </trkpt>
      <trkpt lat="44.66298" lon="-0.24047">
        <ele>78.97</ele>
        <time>2016-09-17T12:35:06Z</time>
      </trkpt>
      <trkpt lat="44.663" lon="-0.2405">
        <ele>79.45</ele>
        <time>2016-09-17T12:35:28Z</time>
      </trkpt>
      <trkpt lat="44.663" lon="-0.24044">
        <ele>78.97</ele>
        <time>2016-09-17T12:35:50Z</time>
      </trkpt>
      <trkpt lat="44.66301" lon="-0.24045">
        <ele>79.45</ele>
        <time>2016-09-17T12:36:12Z</time>
      </trkpt>
      <trkpt lat="44.66297" lon="-0.24041">
        <ele>79.45</ele>
        <time>2016-09-17T12:36:37Z</time>
      </trkpt>
      <trkpt lat="44.66297" lon="-0.24044">
        <ele>79.45</ele>
        <time>2016-09-17T12:37:02Z</time>
      </trkpt>
      <trkpt lat="44.66298" lon="-0.24044">
        <ele>79.45</ele>
        <time>2016-09-17T12:37:27Z</time>
      </trkpt>
      <trkpt lat="44.663" lon="-0.24045">
        <ele>79.45</ele>
        <time>2016-09-17T12:37:52Z</time>
      </trkpt>
      <trkpt lat="44.66296" lon="-0.24043">
        <ele>79.93</ele>
        <time>2016-09-17T12:38:18Z</time>
      </trkpt>
      <trkpt lat="44.66297" lon="-0.24045">
        <ele>79.93</ele>
        <time>2016-09-17T12:38:39Z</time>
      </trkpt>
      <trkpt lat="44.66298" lon="-0.24035">
        <ele>79.93</ele>
        <time>2016-09-17T12:38:57Z</time>
      </trkpt>
      <trkpt lat="44.66299" lon="-0.24038">
        <ele>79.93</ele>
        <time>2016-09-17T12:39:20Z</time>
      </trkpt>
      <trkpt lat="44.66297" lon="-0.24042">
        <ele>79.93</ele>
        <time>2016-09-17T12:39:41Z</time>
      </trkpt>
      <trkpt lat="44.66299" lon="-0.24045">
        <ele>79.93</ele>
        <time>2016-09-17T12:40:10Z</time>
      </trkpt>
      <trkpt lat="44.66312" lon="-0.24039">
        <ele>79.45</ele>
        <time>2016-09-17T12:40:30Z</time>
      </trkpt>
      <trkpt lat="44.66332" lon="-0.24026">
        <ele>78.48</ele>
        <time>2016-09-17T12:40:50Z</time>
      </trkpt>
      <trkpt lat="44.66359" lon="-0.24014">
        <ele>77.04</ele>
        <time>2016-09-17T12:41:13Z</time>
      </trkpt>
      <trkpt lat="44.66381" lon="-0.23997">
        <ele>75.12</ele>
        <time>2016-09-17T12:41:31Z</time>
      </trkpt>
      <trkpt lat="44.66392" lon="-0.23965">
        <ele>73.68</ele>
        <time>2016-09-17T12:41:51Z</time>
      </trkpt>
      <trkpt lat="44.66405" lon="-0.23936">
        <ele>71.76</ele>
        <time>2016-09-17T12:42:14Z</time>
      </trkpt>
      <trkpt lat="44.66409" lon="-0.23934">
        <ele>71.27</ele>
        <time>2016-09-17T12:42:20Z</time>
      </trkpt>
      <trkpt lat="44.66438" lon="-0.23935">
        <ele>68.87</ele>
        <time>2016-09-17T12:42:44Z</time>
      </trkpt>
      <trkpt lat="44.66452" lon="-0.23932">
        <ele>66.95</ele>
        <time>2016-09-17T12:43:05Z</time>
      </trkpt>
      <trkpt lat="44.66484" lon="-0.2393">
        <ele>65.51</ele>
        <time>2016-09-17T12:43:26Z</time>
      </trkpt>
      <trkpt lat="44.66498" lon="-0.23927">
        <ele>63.1</ele>
        <time>2016-09-17T12:43:44Z</time>
      </trkpt>
      <trkpt lat="44.66513" lon="-0.23925">
        <ele>62.62</ele>
        <time>2016-09-17T12:43:54Z</time>
      </trkpt>
      <trkpt lat="44.6655" lon="-0.23917">
        <ele>61.18</ele>
        <time>2016-09-17T12:44:18Z</time>
      </trkpt>
      <trkpt lat="44.66571" lon="-0.23899">
        <ele>60.7</ele>
        <time>2016-09-17T12:44:39Z</time>
      </trkpt>
      <trkpt lat="44.6659" lon="-0.2387">
        <ele>60.22</ele>
        <time>2016-09-17T12:45:02Z</time>
      </trkpt>
      <trkpt lat="44.66609" lon="-0.23843">
        <ele>58.78</ele>
        <time>2016-09-17T12:45:24Z</time>
      </trkpt>
      <trkpt lat="44.66627" lon="-0.23815">
        <ele>57.82</ele>
        <time>2016-09-17T12:45:47Z</time>
      </trkpt>
      <trkpt lat="44.66642" lon="-0.23805">
        <ele>58.3</ele>
        <time>2016-09-17T12:46:05Z</time>
      </trkpt>
      <trkpt lat="44.66654" lon="-0.23806">
        <ele>58.78</ele>
        <time>2016-09-17T12:46:14Z</time>
      </trkpt>
      <trkpt lat="44.66663" lon="-0.238">
        <ele>58.78</ele>
        <time>2016-09-17T12:46:24Z</time>
      </trkpt>
      <trkpt lat="44.66688" lon="-0.23786">
        <ele>58.78</ele>
        <time>2016-09-17T12:46:47Z</time>
      </trkpt>
      <trkpt lat="44.66719" lon="-0.23767">
        <ele>58.78</ele>
        <time>2016-09-17T12:47:11Z</time>
      </trkpt>
      <trkpt lat="44.66747" lon="-0.23749">
        <ele>59.26</ele>
        <time>2016-09-17T12:47:35Z</time>
      </trkpt>
      <trkpt lat="44.66768" lon="-0.2374">
        <ele>58.3</ele>
        <time>2016-09-17T12:47:55Z</time>
      </trkpt>
      <trkpt lat="44.66785" lon="-0.2373">
        <ele>55.89</ele>
        <time>2016-09-17T12:48:15Z</time>
      </trkpt>
      <trkpt lat="44.66805" lon="-0.23726">
        <ele>53.97</ele>
        <time>2016-09-17T12:48:36Z</time>
      </trkpt>
      <trkpt lat="44.66816" lon="-0.23725">
        <ele>52.05</ele>
        <time>2016-09-17T12:48:56Z</time>
      </trkpt>
      <trkpt lat="44.66848" lon="-0.23721">
        <ele>50.61</ele>
        <time>2016-09-17T12:49:15Z</time>
      </trkpt>
      <trkpt lat="44.66865" lon="-0.23714">
        <ele>49.16</ele>
        <time>2016-09-17T12:49:32Z</time>
      </trkpt>
      <trkpt lat="44.66889" lon="-0.23709">
        <ele>47.72</ele>
        <time>2016-09-17T12:49:50Z</time>
      </trkpt>
      <trkpt lat="44.66914" lon="-0.23698">
        <ele>47.24</ele>
        <time>2016-09-17T12:50:12Z</time>
      </trkpt>
      <trkpt lat="44.66937" lon="-0.23676">
        <ele>47.24</ele>
        <time>2016-09-17T12:50:35Z</time>
      </trkpt>
      <trkpt lat="44.66942" lon="-0.23672">
        <ele>47.24</ele>
        <time>2016-09-17T12:50:39Z</time>
      </trkpt>
      <trkpt lat="44.66969" lon="-0.23651">
        <ele>48.2</ele>
        <time>2016-09-17T12:51:01Z</time>
      </trkpt>
      <trkpt lat="44.66983" lon="-0.23647">
        <ele>49.65</ele>
        <time>2016-09-17T12:51:13Z</time>
      </trkpt>
      <trkpt lat="44.67015" lon="-0.23641">
        <ele>50.13</ele>
        <time>2016-09-17T12:51:37Z</time>
      </trkpt>
      <trkpt lat="44.67038" lon="-0.23637">
        <ele>51.57</ele>
        <time>2016-09-17T12:51:58Z</time>
      </trkpt>
      <trkpt lat="44.67068" lon="-0.23633">
        <ele>53.01</ele>
        <time>2016-09-17T12:52:24Z</time>
      </trkpt>
      <trkpt lat="44.67092" lon="-0.23626">
        <ele>52.53</ele>
        <time>2016-09-17T12:52:45Z</time>
      </trkpt>
      <trkpt lat="44.67115" lon="-0.23613">
        <ele>50.61</ele>
        <time>2016-09-17T12:53:07Z</time>
      </trkpt>
      <trkpt lat="44.6714" lon="-0.236">
        <ele>48.2</ele>
        <time>2016-09-17T12:53:27Z</time>
      </trkpt>
      <trkpt lat="44.67158" lon="-0.23591">
        <ele>46.76</ele>
        <time>2016-09-17T12:53:47Z</time>
      </trkpt>
      <trkpt lat="44.67186" lon="-0.2358">
        <ele>43.88</ele>
        <time>2016-09-17T12:54:09Z</time>
      </trkpt>
      <trkpt lat="44.67214" lon="-0.23568">
        <ele>41.47</ele>
        <time>2016-09-17T12:54:33Z</time>
      </trkpt>
      <trkpt lat="44.67219" lon="-0.23568">
        <ele>41.47</ele>
        <time>2016-09-17T12:54:37Z</time>
      </trkpt>
      <trkpt lat="44.67247" lon="-0.23558">
        <ele>40.03</ele>
        <time>2016-09-17T12:55:01Z</time>
      </trkpt>
      <trkpt lat="44.67271" lon="-0.23548">
        <ele>37.63</ele>
        <time>2016-09-17T12:55:23Z</time>
      </trkpt>
      <trkpt lat="44.67277" lon="-0.23547">
        <ele>36.19</ele>
        <time>2016-09-17T12:55:37Z</time>
      </trkpt>
      <trkpt lat="44.67277" lon="-0.23547">
        <ele>39.55</ele>
        <time>2016-09-17T12:55:41Z</time>
      </trkpt>
      <trkpt lat="44.67277" lon="-0.23547">
        <ele>38.11</ele>
        <time>2016-09-17T12:55:45Z</time>
      </trkpt>
      <trkpt lat="44.67277" lon="-0.23547">
        <ele>38.11</ele>
        <time>2016-09-17T12:55:50Z</time>
      </trkpt>
      <trkpt lat="44.67278" lon="-0.23545">
        <ele>37.63</ele>
        <time>2016-09-17T12:55:52Z</time>
      </trkpt>
      <trkpt lat="44.67288" lon="-0.23543">
        <ele>36.67</ele>
        <time>2016-09-17T12:56:02Z</time>
      </trkpt>
      <trkpt lat="44.67308" lon="-0.23537">
        <ele>36.19</ele>
        <time>2016-09-17T12:56:21Z</time>
      </trkpt>
      <trkpt lat="44.6732" lon="-0.23535">
        <ele>35.71</ele>
        <time>2016-09-17T12:56:34Z</time>
      </trkpt>
      <trkpt lat="44.67343" lon="-0.23525">
        <ele>36.19</ele>
        <time>2016-09-17T12:56:52Z</time>
      </trkpt>
      <trkpt lat="44.67357" lon="-0.23508">
        <ele>36.19</ele>
        <time>2016-09-17T12:57:06Z</time>
      </trkpt>
      <trkpt lat="44.67359" lon="-0.23509">
        <ele>36.19</ele>
        <time>2016-09-17T12:57:16Z</time>
      </trkpt>
      <trkpt lat="44.6737" lon="-0.23499">
        <ele>36.19</ele>
        <time>2016-09-17T12:57:24Z</time>
      </trkpt>
      <trkpt lat="44.67371" lon="-0.23473">
        <ele>37.15</ele>
        <time>2016-09-17T12:57:39Z</time>
      </trkpt>
      <trkpt lat="44.67372" lon="-0.2347">
        <ele>37.15</ele>
        <time>2016-09-17T12:57:41Z</time>
      </trkpt>
      <trkpt lat="44.67375" lon="-0.23437">
        <ele>38.59</ele>
        <time>2016-09-17T12:58:01Z</time>
      </trkpt>
      <trkpt lat="44.67375" lon="-0.2341">
        <ele>40.03</ele>
        <time>2016-09-17T12:58:18Z</time>
      </trkpt>
      <trkpt lat="44.67375" lon="-0.23406">
        <ele>40.51</ele>
        <time>2016-09-17T12:58:20Z</time>
      </trkpt>
      <trkpt lat="44.67373" lon="-0.23387">
        <ele>41.47</ele>
        <time>2016-09-17T12:58:30Z</time>
      </trkpt>
      <trkpt lat="44.67374" lon="-0.23379">
        <ele>41.95</ele>
        <time>2016-09-17T12:58:35Z</time>
      </trkpt>
      <trkpt lat="44.67375" lon="-0.23348">
        <ele>42.44</ele>
        <time>2016-09-17T12:58:53Z</time>
      </trkpt>
      <trkpt lat="44.67376" lon="-0.23313">
        <ele>43.4</ele>
        <time>2016-09-17T12:59:12Z</time>
      </trkpt>
      <trkpt lat="44.67378" lon="-0.23305">
        <ele>43.88</ele>
        <time>2016-09-17T12:59:17Z</time>
      </trkpt>
      <trkpt lat="44.6738" lon="-0.23298">
        <ele>43.88</ele>
        <time>2016-09-17T12:59:21Z</time>
      </trkpt>
      <trkpt lat="44.6739" lon="-0.23275">
        <ele>44.36</ele>
        <time>2016-09-17T12:59:37Z</time>
      </trkpt>
      <trkpt lat="44.67397" lon="-0.2326">
        <ele>44.84</ele>
        <time>2016-09-17T12:59:47Z</time>
      </trkpt>
      <trkpt lat="44.67399" lon="-0.23251">
        <ele>44.36</ele>
        <time>2016-09-17T12:59:53Z</time>
      </trkpt>
      <trkpt lat="44.67401" lon="-0.23244">
        <ele>44.84</ele>
        <time>2016-09-17T12:59:57Z</time>
      </trkpt>
      <trkpt lat="44.67397" lon="-0.23236">
        <ele>44.84</ele>
        <time>2016-09-17T13:00:02Z</time>
      </trkpt>
      <trkpt lat="44.67384" lon="-0.23212">
        <ele>44.84</ele>
        <time>2016-09-17T13:00:18Z</time>
      </trkpt>
      <trkpt lat="44.67378" lon="-0.23201">
        <ele>44.36</ele>
        <time>2016-09-17T13:00:26Z</time>
      </trkpt>
      <trkpt lat="44.67378" lon="-0.23195">
        <ele>44.36</ele>
        <time>2016-09-17T13:00:30Z</time>
      </trkpt>
      <trkpt lat="44.67387" lon="-0.23178">
        <ele>45.8</ele>
        <time>2016-09-17T13:00:45Z</time>
      </trkpt>
      <trkpt lat="44.67405" lon="-0.23166">
        <ele>46.76</ele>
        <time>2016-09-17T13:01:02Z</time>
      </trkpt>
      <trkpt lat="44.67425" lon="-0.23148">
        <ele>47.24</ele>
        <time>2016-09-17T13:01:21Z</time>
      </trkpt>
      <trkpt lat="44.67433" lon="-0.23136">
        <ele>48.2</ele>
        <time>2016-09-17T13:01:30Z</time>
      </trkpt>
      <trkpt lat="44.67439" lon="-0.23122">
        <ele>48.68</ele>
        <time>2016-09-17T13:01:40Z</time>
      </trkpt>
      <trkpt lat="44.67452" lon="-0.23093">
        <ele>49.65</ele>
        <time>2016-09-17T13:02:00Z</time>
      </trkpt>
      <trkpt lat="44.67438" lon="-0.23076">
        <ele>49.65</ele>
        <time>2016-09-17T13:02:13Z</time>
      </trkpt>
      <trkpt lat="44.67417" lon="-0.2305">
        <ele>48.68</ele>
        <time>2016-09-17T13:02:33Z</time>
      </trkpt>
      <trkpt lat="44.67412" lon="-0.23041">
        <ele>48.2</ele>
        <time>2016-09-17T13:02:40Z</time>
      </trkpt>
      <trkpt lat="44.6741" lon="-0.23037">
        <ele>48.2</ele>
        <time>2016-09-17T13:02:43Z</time>
      </trkpt>
      <trkpt lat="44.674" lon="-0.23025">
        <ele>47.72</ele>
        <time>2016-09-17T13:02:55Z</time>
      </trkpt>
      <trkpt lat="44.67402" lon="-0.23014">
        <ele>47.72</ele>
        <time>2016-09-17T13:03:09Z</time>
      </trkpt>
      <trkpt lat="44.67402" lon="-0.23014">
        <ele>48.2</ele>
        <time>2016-09-17T13:03:13Z</time>
      </trkpt>
    </trkseg>
  </trk>
  <trk>
    <name><![CDATA[randogps33-521]]></name>
    <extensions>
      <line xmlns="http://www.topografix.com/GPX/gpx_style/0/2">
        <color>0000FF</color>
        <width>4</width>
      </line>
    </extensions>
    <trkseg>
      <trkpt lat="44.73425" lon="-0.264">
        <ele>67.050781</ele>
      </trkpt>
      <trkpt lat="44.73402" lon="-0.26413">
        <ele>66.519531</ele>
      </trkpt>
      <trkpt lat="44.73317" lon="-0.2673">
        <ele>52.640625</ele>
      </trkpt>
      <trkpt lat="44.73236" lon="-0.27015">
        <ele>66.195312</ele>
      </trkpt>
      <trkpt lat="44.73218" lon="-0.27085">
        <ele>69.691406</ele>
      </trkpt>
      <trkpt lat="44.73232" lon="-0.27224">
        <ele>70.605469</ele>
      </trkpt>
      <trkpt lat="44.73259" lon="-0.27471">
        <ele>74.5625</ele>
      </trkpt>
      <trkpt lat="44.73227" lon="-0.27592">
        <ele>75.851562</ele>
      </trkpt>
      <trkpt lat="44.73151" lon="-0.27718">
        <ele>78.199219</ele>
      </trkpt>
      <trkpt lat="44.72732" lon="-0.27604">
        <ele>61.03125</ele>
      </trkpt>
      <trkpt lat="44.72379" lon="-0.27379">
        <ele>73</ele>
      </trkpt>
      <trkpt lat="44.72193" lon="-0.27353">
        <ele>79.832031</ele>
      </trkpt>
      <trkpt lat="44.72085" lon="-0.27611">
        <ele>83.433594</ele>
      </trkpt>
      <trkpt lat="44.71967" lon="-0.27703">
        <ele>89.902344</ele>
      </trkpt>
      <trkpt lat="44.72104" lon="-0.28284">
        <ele>102.410156</ele>
      </trkpt>
      <trkpt lat="44.71955" lon="-0.28387">
        <ele>99.65625</ele>
      </trkpt>
      <trkpt lat="44.7191" lon="-0.28497">
        <ele>98.328125</ele>
      </trkpt>
      <trkpt lat="44.71853" lon="-0.28532">
        <ele>97.84375</ele>
      </trkpt>
      <trkpt lat="44.71721" lon="-0.28277">
        <ele>78.886719</ele>
      </trkpt>
      <trkpt lat="44.71745" lon="-0.28205">
        <ele>78.378906</ele>
      </trkpt>
      <trkpt lat="44.71734" lon="-0.27912">
        <ele>77.796875</ele>
      </trkpt>
      <trkpt lat="44.71567" lon="-0.27509">
        <ele>77.414062</ele>
      </trkpt>
      <trkpt lat="44.71503" lon="-0.27402">
        <ele>74.679688</ele>
      </trkpt>
      <trkpt lat="44.71438" lon="-0.27166">
        <ele>71.976562</ele>
      </trkpt>
      <trkpt lat="44.71317" lon="-0.26972">
        <ele>71.210938</ele>
      </trkpt>
      <trkpt lat="44.71398" lon="-0.26934">
        <ele>68.417969</ele>
      </trkpt>
      <trkpt lat="44.71365" lon="-0.26832">
        <ele>68.042969</ele>
      </trkpt>
      <trkpt lat="44.71354" lon="-0.26569">
        <ele>59.03125</ele>
      </trkpt>
      <trkpt lat="44.71257" lon="-0.26364">
        <ele>42.117188</ele>
      </trkpt>
      <trkpt lat="44.71268" lon="-0.262">
        <ele>38.96875</ele>
      </trkpt>
      <trkpt lat="44.713" lon="-0.26128">
        <ele>41.851562</ele>
      </trkpt>
      <trkpt lat="44.71362" lon="-0.26086">
        <ele>43.867188</ele>
      </trkpt>
      <trkpt lat="44.71376" lon="-0.26056">
        <ele>44.851562</ele>
      </trkpt>
      <trkpt lat="44.71414" lon="-0.25698">
        <ele>52.691406</ele>
      </trkpt>
      <trkpt lat="44.71365" lon="-0.25657">
        <ele>55.679688</ele>
      </trkpt>
      <trkpt lat="44.7129" lon="-0.25463">
        <ele>58.496094</ele>
      </trkpt>
      <trkpt lat="44.7116" lon="-0.25333">
        <ele>63.800781</ele>
      </trkpt>
      <trkpt lat="44.71106" lon="-0.25208">
        <ele>66</ele>
      </trkpt>
      <trkpt lat="44.71131" lon="-0.2517">
        <ele>66.28125</ele>
      </trkpt>
      <trkpt lat="44.71076" lon="-0.25033">
        <ele>67.128906</ele>
      </trkpt>
      <trkpt lat="44.71105" lon="-0.25022">
        <ele>67.335938</ele>
      </trkpt>
      <trkpt lat="44.71339" lon="-0.24866">
        <ele>66.835938</ele>
      </trkpt>
      <trkpt lat="44.71382" lon="-0.24839">
        <ele>65.507812</ele>
      </trkpt>
      <trkpt lat="44.71439" lon="-0.24934">
        <ele>65.117188</ele>
      </trkpt>
      <trkpt lat="44.7149" lon="-0.25018">
        <ele>64.140625</ele>
      </trkpt>
      <trkpt lat="44.71533" lon="-0.25003">
        <ele>62.726562</ele>
      </trkpt>
      <trkpt lat="44.71574" lon="-0.24915">
        <ele>61.636719</ele>
      </trkpt>
      <trkpt lat="44.71611" lon="-0.2482">
        <ele>61.96875</ele>
      </trkpt>
      <trkpt lat="44.71663" lon="-0.24759">
        <ele>62.96875</ele>
      </trkpt>
      <trkpt lat="44.71501" lon="-0.24478">
        <ele>68.386719</ele>
      </trkpt>
      <trkpt lat="44.71355" lon="-0.2436">
        <ele>69.363281</ele>
      </trkpt>
      <trkpt lat="44.71221" lon="-0.24177">
        <ele>73.085938</ele>
      </trkpt>
      <trkpt lat="44.71067" lon="-0.24349">
        <ele>72.417969</ele>
      </trkpt>
      <trkpt lat="44.70921" lon="-0.24482">
        <ele>67.9375</ele>
      </trkpt>
      <trkpt lat="44.70892" lon="-0.24063">
        <ele>66.253906</ele>
      </trkpt>
      <trkpt lat="44.70811" lon="-0.23881">
        <ele>67.183594</ele>
      </trkpt>
      <trkpt lat="44.70744" lon="-0.23691">
        <ele>63.703125</ele>
      </trkpt>
      <trkpt lat="44.70722" lon="-0.23679">
        <ele>63.039062</ele>
      </trkpt>
      <trkpt lat="44.70695" lon="-0.23717">
        <ele>62.253906</ele>
      </trkpt>
      <trkpt lat="44.70531" lon="-0.2352">
        <ele>55.605469</ele>
      </trkpt>
      <trkpt lat="44.70563" lon="-0.23409">
        <ele>55.949219</ele>
      </trkpt>
      <trkpt lat="44.70663" lon="-0.23276">
        <ele>55.441406</ele>
      </trkpt>
      <trkpt lat="44.70665" lon="-0.23181">
        <ele>53.035156</ele>
      </trkpt>
      <trkpt lat="44.71" lon="-0.22603">
        <ele>54.226562</ele>
      </trkpt>
      <trkpt lat="44.7111" lon="-0.22592">
        <ele>55.015625</ele>
      </trkpt>
      <trkpt lat="44.71118" lon="-0.22493">
        <ele>56.046875</ele>
      </trkpt>
      <trkpt lat="44.71018" lon="-0.22485">
        <ele>54.386719</ele>
      </trkpt>
      <trkpt lat="44.70946" lon="-0.22443">
        <ele>54.042969</ele>
      </trkpt>
      <trkpt lat="44.70781" lon="-0.22234">
        <ele>61.886719</ele>
      </trkpt>
      <trkpt lat="44.70676" lon="-0.22284">
        <ele>64.25</ele>
      </trkpt>
      <trkpt lat="44.70531" lon="-0.22314">
        <ele>64.164062</ele>
      </trkpt>
      <trkpt lat="44.7062" lon="-0.22447">
        <ele>59.019531</ele>
      </trkpt>
      <trkpt lat="44.70393" lon="-0.2285">
        <ele>56.492188</ele>
      </trkpt>
      <trkpt lat="44.70272" lon="-0.22972">
        <ele>59.84375</ele>
      </trkpt>
      <trkpt lat="44.7017" lon="-0.23037">
        <ele>60.242188</ele>
      </trkpt>
      <trkpt lat="44.69941" lon="-0.23364">
        <ele>60.429688</ele>
      </trkpt>
      <trkpt lat="44.69792" lon="-0.23116">
        <ele>65.667969</ele>
      </trkpt>
      <trkpt lat="44.69816" lon="-0.23067">
        <ele>67.789062</ele>
      </trkpt>
      <trkpt lat="44.6987" lon="-0.22934">
        <ele>70.261719</ele>
      </trkpt>
      <trkpt lat="44.69748" lon="-0.22671">
        <ele>72.3125</ele>
      </trkpt>
      <trkpt lat="44.69616" lon="-0.22398">
        <ele>71.699219</ele>
      </trkpt>
      <trkpt lat="44.69711" lon="-0.22405">
        <ele>75.625</ele>
      </trkpt>
      <trkpt lat="44.69805" lon="-0.22371">
        <ele>75.527344</ele>
      </trkpt>
      <trkpt lat="44.69899" lon="-0.22287">
        <ele>75.25</ele>
      </trkpt>
      <trkpt lat="44.7001" lon="-0.22177">
        <ele>73.285156</ele>
      </trkpt>
      <trkpt lat="44.70091" lon="-0.22048">
        <ele>76.519531</ele>
      </trkpt>
      <trkpt lat="44.70417" lon="-0.21706">
        <ele>78.5</ele>
      </trkpt>
      <trkpt lat="44.70608" lon="-0.21561">
        <ele>70.734375</ele>
      </trkpt>
      <trkpt lat="44.70873" lon="-0.21515">
        <ele>60</ele>
      </trkpt>
      <trkpt lat="44.71172" lon="-0.21325">
        <ele>68.914062</ele>
      </trkpt>
      <trkpt lat="44.71336" lon="-0.21048">
        <ele>76.003906</ele>
      </trkpt>
      <trkpt lat="44.71743" lon="-0.20915">
        <ele>73.316406</ele>
      </trkpt>
      <trkpt lat="44.71697" lon="-0.21108">
        <ele>78.394531</ele>
      </trkpt>
      <trkpt lat="44.71652" lon="-0.21245">
        <ele>81.730469</ele>
      </trkpt>
      <trkpt lat="44.71644" lon="-0.2134">
        <ele>81.636719</ele>
      </trkpt>
      <trkpt lat="44.71689" lon="-0.21348">
        <ele>81.5</ele>
      </trkpt>
      <trkpt lat="44.71727" lon="-0.21409">
        <ele>80.535156</ele>
      </trkpt>
      <trkpt lat="44.71797" lon="-0.21432">
        <ele>81.777344</ele>
      </trkpt>
      <trkpt lat="44.72011" lon="-0.21477">
        <ele>83.589844</ele>
      </trkpt>
      <trkpt lat="44.72062" lon="-0.22219">
        <ele>83.921875</ele>
      </trkpt>
      <trkpt lat="44.72135" lon="-0.22196">
        <ele>86.699219</ele>
      </trkpt>
      <trkpt lat="44.72242" lon="-0.22139">
        <ele>90.226562</ele>
      </trkpt>
      <trkpt lat="44.72296" lon="-0.22386">
        <ele>91.371094</ele>
      </trkpt>
      <trkpt lat="44.7228" lon="-0.22481">
        <ele>87.28125</ele>
      </trkpt>
      <trkpt lat="44.7231" lon="-0.22641">
        <ele>82.5625</ele>
      </trkpt>
      <trkpt lat="44.72283" lon="-0.22782">
        <ele>77.359375</ele>
      </trkpt>
      <trkpt lat="44.7217" lon="-0.2325">
        <ele>84.109375</ele>
      </trkpt>
      <trkpt lat="44.71873" lon="-0.23078">
        <ele>73.847656</ele>
      </trkpt>
      <trkpt lat="44.71924" lon="-0.24179">
        <ele>82.683594</ele>
      </trkpt>
      <trkpt lat="44.72089" lon="-0.2462">
        <ele>68.972656</ele>
      </trkpt>
      <trkpt lat="44.71965" lon="-0.24826">
        <ele>65.585938</ele>
      </trkpt>
      <trkpt lat="44.71868" lon="-0.24909">
        <ele>67.121094</ele>
      </trkpt>
      <trkpt lat="44.719" lon="-0.24951">
        <ele>66.703125</ele>
      </trkpt>
      <trkpt lat="44.72083" lon="-0.25183">
        <ele>54.554688</ele>
      </trkpt>
      <trkpt lat="44.72205" lon="-0.25259">
        <ele>59.140625</ele>
      </trkpt>
      <trkpt lat="44.72205" lon="-0.2537">
        <ele>62.34375</ele>
      </trkpt>
      <trkpt lat="44.72132" lon="-0.254">
        <ele>60.796875</ele>
      </trkpt>
      <trkpt lat="44.72135" lon="-0.25556">
        <ele>63.03125</ele>
      </trkpt>
      <trkpt lat="44.72148" lon="-0.25665">
        <ele>64.285156</ele>
      </trkpt>
      <trkpt lat="44.72113" lon="-0.26091">
        <ele>53.285156</ele>
      </trkpt>
      <trkpt lat="44.72189" lon="-0.26084">
        <ele>55.066406</ele>
      </trkpt>
      <trkpt lat="44.72256" lon="-0.26148">
        <ele>53.15625</ele>
      </trkpt>
      <trkpt lat="44.72296" lon="-0.2624">
        <ele>46.367188</ele>
      </trkpt>
      <trkpt lat="44.72407" lon="-0.26285">
        <ele>46.949219</ele>
      </trkpt>
      <trkpt lat="44.72434" lon="-0.26167">
        <ele>55.0625</ele>
      </trkpt>
      <trkpt lat="44.72552" lon="-0.26221">
        <ele>55.21875</ele>
      </trkpt>
      <trkpt lat="44.72628" lon="-0.2619">
        <ele>56.933594</ele>
      </trkpt>
      <trkpt lat="44.72693" lon="-0.26137">
        <ele>59.894531</ele>
      </trkpt>
      <trkpt lat="44.72792" lon="-0.26126">
        <ele>60.765625</ele>
      </trkpt>
      <trkpt lat="44.72854" lon="-0.26164">
        <ele>59.769531</ele>
      </trkpt>
      <trkpt lat="44.72967" lon="-0.26095">
        <ele>60.003906</ele>
      </trkpt>
      <trkpt lat="44.73099" lon="-0.26293">
        <ele>51.386719</ele>
      </trkpt>
      <trkpt lat="44.73212" lon="-0.26213">
        <ele>55.960938</ele>
      </trkpt>
      <trkpt lat="44.73341" lon="-0.26232">
        <ele>59.078125</ele>
      </trkpt>
      <trkpt lat="44.73417" lon="-0.26289">
        <ele>61.460938</ele>
      </trkpt>
      <trkpt lat="44.73425" lon="-0.26399">
        <ele>67.042969</ele>
      </trkpt>
    </trkseg>
  </trk>
  <trk>
    <name><![CDATA[NewTrack]]></name>
    <desc><![CDATA[Total: 4.7km]]></desc>
    <extensions>
      <line xmlns="http://www.topografix.com/GPX/gpx_style/0/2">
        <color>008888</color>
        <width>4</width>
      </line>
    </extensions>
    <trkseg>
      <trkpt lat="44.62323" lon="-0.10699">
        <ele>27.14</ele>
        <time>2015-02-21T14:22:17Z</time>
      </trkpt>
      <trkpt lat="44.62356" lon="-0.10878">
        <ele>34.22</ele>
        <time>2015-02-21T14:23:45Z</time>
      </trkpt>
      <trkpt lat="44.62341" lon="-0.1108">
        <ele>32.39</ele>
        <time>2015-02-21T14:25:22Z</time>
      </trkpt>
      <trkpt lat="44.62339" lon="-0.11117">
        <ele>32.82</ele>
        <time>2015-02-21T14:25:40Z</time>
      </trkpt>
      <trkpt lat="44.62348" lon="-0.11183">
        <ele>35.41</ele>
        <time>2015-02-21T14:26:11Z</time>
      </trkpt>
      <trkpt lat="44.62357" lon="-0.112">
        <ele>36.74</ele>
        <time>2015-02-21T14:26:21Z</time>
      </trkpt>
      <trkpt lat="44.62426" lon="-0.11269">
        <ele>44.56</ele>
        <time>2015-02-21T14:27:18Z</time>
      </trkpt>
      <trkpt lat="44.62435" lon="-0.113">
        <ele>45.11</ele>
        <time>2015-02-21T14:27:34Z</time>
      </trkpt>
      <trkpt lat="44.62434" lon="-0.11374">
        <ele>45.53</ele>
        <time>2015-02-21T14:28:10Z</time>
      </trkpt>
      <trkpt lat="44.62417" lon="-0.11604">
        <ele>49.26</ele>
        <time>2015-02-21T14:30:00Z</time>
      </trkpt>
      <trkpt lat="44.62412" lon="-0.11691">
        <ele>50.65</ele>
        <time>2015-02-21T14:30:41Z</time>
      </trkpt>
      <trkpt lat="44.62407" lon="-0.11756">
        <ele>52.41</ele>
        <time>2015-02-21T14:31:12Z</time>
      </trkpt>
      <trkpt lat="44.62404" lon="-0.11806">
        <ele>53.32</ele>
        <time>2015-02-21T14:31:37Z</time>
      </trkpt>
      <trkpt lat="44.62378" lon="-0.11862">
        <ele>50.67</ele>
        <time>2015-02-21T14:32:09Z</time>
      </trkpt>
      <trkpt lat="44.62367" lon="-0.11864">
        <ele>49.86</ele>
        <time>2015-02-21T14:32:16Z</time>
      </trkpt>
      <trkpt lat="44.62358" lon="-0.11815">
        <ele>49.79</ele>
        <time>2015-02-21T14:32:40Z</time>
      </trkpt>
      <trkpt lat="44.62403" lon="-0.11812">
        <ele>53.39</ele>
        <time>2015-02-21T14:33:11Z</time>
      </trkpt>
      <trkpt lat="44.62407" lon="-0.11894">
        <ele>50.94</ele>
        <time>2015-02-21T14:33:49Z</time>
      </trkpt>
      <trkpt lat="44.62411" lon="-0.11929">
        <ele>49.49</ele>
        <time>2015-02-21T14:34:06Z</time>
      </trkpt>
      <trkpt lat="44.62436" lon="-0.12031">
        <ele>48.64</ele>
        <time>2015-02-21T14:34:58Z</time>
      </trkpt>
      <trkpt lat="44.62465" lon="-0.12145">
        <ele>50.01</ele>
        <time>2015-02-21T14:35:55Z</time>
      </trkpt>
      <trkpt lat="44.62498" lon="-0.12235">
        <ele>51.22</ele>
        <time>2015-02-21T14:36:44Z</time>
      </trkpt>
      <trkpt lat="44.6257" lon="-0.1231">
        <ele>53.76</ele>
        <time>2015-02-21T14:37:44Z</time>
      </trkpt>
      <trkpt lat="44.62581" lon="-0.12337">
        <ele>53.82</ele>
        <time>2015-02-21T14:37:58Z</time>
      </trkpt>
      <trkpt lat="44.62631" lon="-0.1256">
        <ele>51.08</ele>
        <time>2015-02-21T14:39:50Z</time>
      </trkpt>
      <trkpt lat="44.62628" lon="-0.12731">
        <ele>58.07</ele>
        <time>2015-02-21T14:41:11Z</time>
      </trkpt>
      <trkpt lat="44.6266" lon="-0.12737">
        <ele>60.83</ele>
        <time>2015-02-21T14:41:33Z</time>
      </trkpt>
      <trkpt lat="44.62904" lon="-0.12628">
        <ele>68.43</ele>
        <time>2015-02-21T14:44:23Z</time>
      </trkpt>
      <trkpt lat="44.62947" lon="-0.12613">
        <ele>70.65</ele>
        <time>2015-02-21T14:44:53Z</time>
      </trkpt>
      <trkpt lat="44.62993" lon="-0.12603">
        <ele>73.07</ele>
        <time>2015-02-21T14:45:24Z</time>
      </trkpt>
      <trkpt lat="44.63035" lon="-0.12589">
        <ele>74.58</ele>
        <time>2015-02-21T14:45:53Z</time>
      </trkpt>
      <trkpt lat="44.63138" lon="-0.12536">
        <ele>82.39</ele>
        <time>2015-02-21T14:47:06Z</time>
      </trkpt>
      <trkpt lat="44.63084" lon="-0.1237">
        <ele>79.59</ele>
        <time>2015-02-21T14:48:32Z</time>
      </trkpt>
      <trkpt lat="44.63049" lon="-0.1231">
        <ele>78.76</ele>
        <time>2015-02-21T14:49:09Z</time>
      </trkpt>
      <trkpt lat="44.63033" lon="-0.12261">
        <ele>78.18</ele>
        <time>2015-02-21T14:49:35Z</time>
      </trkpt>
      <trkpt lat="44.63014" lon="-0.1216">
        <ele>76.49</ele>
        <time>2015-02-21T14:50:25Z</time>
      </trkpt>
      <trkpt lat="44.62954" lon="-0.1187">
        <ele>77.71</ele>
        <time>2015-02-21T14:52:49Z</time>
      </trkpt>
      <trkpt lat="44.62941" lon="-0.11829">
        <ele>77.89</ele>
        <time>2015-02-21T14:53:10Z</time>
      </trkpt>
      <trkpt lat="44.62899" lon="-0.11737">
        <ele>75.73</ele>
        <time>2015-02-21T14:54:02Z</time>
      </trkpt>
      <trkpt lat="44.62876" lon="-0.11675">
        <ele>74.08</ele>
        <time>2015-02-21T14:54:35Z</time>
      </trkpt>
      <trkpt lat="44.62848" lon="-0.11578">
        <ele>72.66</ele>
        <time>2015-02-21T14:55:25Z</time>
      </trkpt>
      <trkpt lat="44.62854" lon="-0.11556">
        <ele>72.75</ele>
        <time>2015-02-21T14:55:37Z</time>
      </trkpt>
      <trkpt lat="44.62934" lon="-0.11478">
        <ele>72.25</ele>
        <time>2015-02-21T14:56:42Z</time>
      </trkpt>
      <trkpt lat="44.6294" lon="-0.11463">
        <ele>71.58</ele>
        <time>2015-02-21T14:56:50Z</time>
      </trkpt>
      <trkpt lat="44.62943" lon="-0.11449">
        <ele>70.9</ele>
        <time>2015-02-21T14:56:57Z</time>
      </trkpt>
      <trkpt lat="44.62934" lon="-0.11373">
        <ele>68.12</ele>
        <time>2015-02-21T14:57:34Z</time>
      </trkpt>
      <trkpt lat="44.62924" lon="-0.11309">
        <ele>65.24</ele>
        <time>2015-02-21T14:58:05Z</time>
      </trkpt>
      <trkpt lat="44.62908" lon="-0.11259">
        <ele>61.64</ele>
        <time>2015-02-21T14:58:31Z</time>
      </trkpt>
      <trkpt lat="44.62879" lon="-0.11204">
        <ele>57.44</ele>
        <time>2015-02-21T14:59:03Z</time>
      </trkpt>
      <trkpt lat="44.62857" lon="-0.11138">
        <ele>52.56</ele>
        <time>2015-02-21T14:59:38Z</time>
      </trkpt>
      <trkpt lat="44.62849" lon="-0.11097">
        <ele>50.01</ele>
        <time>2015-02-21T14:59:59Z</time>
      </trkpt>
      <trkpt lat="44.62851" lon="-0.10995">
        <ele>45.15</ele>
        <time>2015-02-21T15:00:47Z</time>
      </trkpt>
      <trkpt lat="44.62845" lon="-0.10979">
        <ele>44.09</ele>
        <time>2015-02-21T15:00:56Z</time>
      </trkpt>
      <trkpt lat="44.62833" lon="-0.10969">
        <ele>43.17</ele>
        <time>2015-02-21T15:01:05Z</time>
      </trkpt>
      <trkpt lat="44.62814" lon="-0.10964">
        <ele>44.7</ele>
        <time>2015-02-21T15:01:18Z</time>
      </trkpt>
      <trkpt lat="44.62779" lon="-0.10912">
        <ele>44.45</ele>
        <time>2015-02-21T15:01:52Z</time>
      </trkpt>
      <trkpt lat="44.62748" lon="-0.10844">
        <ele>35</ele>
        <time>2015-02-21T15:02:31Z</time>
      </trkpt>
      <trkpt lat="44.62713" lon="-0.10702">
        <ele>23.32</ele>
        <time>2015-02-21T15:03:43Z</time>
      </trkpt>
      <trkpt lat="44.62657" lon="-0.10701">
        <ele>22.49</ele>
        <time>2015-02-21T15:04:20Z</time>
      </trkpt>
      <trkpt lat="44.62597" lon="-0.107">
        <ele>22.9</ele>
        <time>2015-02-21T15:05:00Z</time>
      </trkpt>
      <trkpt lat="44.62568" lon="-0.10697">
        <ele>24.59</ele>
        <time>2015-02-21T15:05:20Z</time>
      </trkpt>
      <trkpt lat="44.62549" lon="-0.10687">
        <ele>25.73</ele>
        <time>2015-02-21T15:05:33Z</time>
      </trkpt>
      <trkpt lat="44.62511" lon="-0.10647">
        <ele>26.05</ele>
        <time>2015-02-21T15:06:05Z</time>
      </trkpt>
      <trkpt lat="44.6246" lon="-0.10606">
        <ele>26.11</ele>
        <time>2015-02-21T15:06:44Z</time>
      </trkpt>
      <trkpt lat="44.62411" lon="-0.10574">
        <ele>24.35</ele>
        <time>2015-02-21T15:07:20Z</time>
      </trkpt>
      <trkpt lat="44.62389" lon="-0.10563">
        <ele>23.03</ele>
        <time>2015-02-21T15:07:36Z</time>
      </trkpt>
      <trkpt lat="44.62372" lon="-0.1056">
        <ele>22.27</ele>
        <time>2015-02-21T15:07:47Z</time>
      </trkpt>
      <trkpt lat="44.62357" lon="-0.10562">
        <ele>21.78</ele>
        <time>2015-02-21T15:07:57Z</time>
      </trkpt>
      <trkpt lat="44.62334" lon="-0.10572">
        <ele>21.48</ele>
        <time>2015-02-21T15:08:13Z</time>
      </trkpt>
      <trkpt lat="44.62324" lon="-0.10584">
        <ele>21.98</ele>
        <time>2015-02-21T15:08:22Z</time>
      </trkpt>
      <trkpt lat="44.62318" lon="-0.10604">
        <ele>23.06</ele>
        <time>2015-02-21T15:08:32Z</time>
      </trkpt>
      <trkpt lat="44.62319" lon="-0.10633">
        <ele>24.57</ele>
        <time>2015-02-21T15:08:46Z</time>
      </trkpt>
      <trkpt lat="44.62324" lon="-0.10693">
        <ele>27.09</ele>
        <time>2015-02-21T15:09:15Z</time>
      </trkpt>
    </trkseg>
  </trk>
</gpx>